<?xml version="1.0"?>
<gpx version="1.1" creator="Generated by Swisstopo App. See https://www.swisstopo.ch/app for more information." xmlns="http://www.topografix.com/GPX/1/1" xmlns:xsi="http://www.w3.org/2001/XMLSchema-instance" xmlns:swisstopo="https://prod-static.swisstopo-app.ch/xmlschemas/SwisstopoExtensions" xmlns:schemaLocation="http://www.topografix.com/GPX/1/1 http://www.topografix.com/GPX/1/1/gpx.xsd https://swisstopo-app.ch/xmlschemas/SwisstopoExtensions https://prod-static.swisstopo-app.ch/xmlschemas/SwisstopoExtensions.xsd">
	<metadata>
		<name>Solothurn - Bern</name>
		<extensions>
			<swisstopo:tour_type>3</swisstopo:tour_type>
		</extensions>
		<time>2021-05-24T09:51:55+02:00</time>
	</metadata>
	<wpt lat="46.9969224555" lon="7.4591568600">
		<ele>557.2</ele>
		<name>Startpunkt</name>
		<extensions>
			<swisstopo:waypoint_id>1</swisstopo:waypoint_id>
			<swisstopo:waypoint_routepoint_id>1659827161</swisstopo:waypoint_routepoint_id>
			<swisstopo:waypoint_meters_into_tour>0.000000</swisstopo:waypoint_meters_into_tour>
			<swisstopo:waypoint_is_controlpoint>1</swisstopo:waypoint_is_controlpoint>
		</extensions>
	</wpt>
	<wpt lat="47.2086810618" lon="7.5813756714">
		<ele>433.1</ele>
		<name>Ziel</name>
		<extensions>
			<swisstopo:waypoint_id>2</swisstopo:waypoint_id>
			<swisstopo:waypoint_routepoint_id>878838371</swisstopo:waypoint_routepoint_id>
			<swisstopo:waypoint_meters_into_tour>43712.844542</swisstopo:waypoint_meters_into_tour>
			<swisstopo:waypoint_is_controlpoint>1</swisstopo:waypoint_is_controlpoint>
			<swisstopo:waypoint_stage_before distance="43712.844542" duration="4334.000000" ascent="227.450000" descent="351.550000" />
		</extensions>
	</wpt>
	<trk>
		<name>Swisstopo Route</name>
		<trkseg>
			<trkpt lat="46.9969224555" lon="7.4591568600">
				<ele>557.2</ele>
				<time>2021-04-12T09:50:28+02:00</time>
				<extensions>
					<swisstopo:routepoint_id>1659827161</swisstopo:routepoint_id>
				</extensions>
			</trkpt>
			<trkpt lat="46.9969821218" lon="7.4592068236">
				<ele>557.5</ele>
				<time>2021-04-12T09:50:29+02:00</time>
				<extensions>
					<swisstopo:routepoint_id>902520397</swisstopo:routepoint_id>
				</extensions>
			</trkpt>
			<trkpt lat="46.9969820931" lon="7.4592067997">
				<ele>557.5</ele>
				<time>2021-04-12T09:50:30+02:00</time>
				<extensions>
					<swisstopo:routepoint_id>983313618</swisstopo:routepoint_id>
				</extensions>
			</trkpt>
			<trkpt lat="46.9969823688" lon="7.4592070277">
				<ele>557.5</ele>
				<time>2021-04-12T09:50:31+02:00</time>
				<extensions>
					<swisstopo:routepoint_id>1665314061</swisstopo:routepoint_id>
				</extensions>
			</trkpt>
			<trkpt lat="46.9969846292" lon="7.4592089067">
				<ele>557.5</ele>
				<time>2021-04-12T09:50:31+02:00</time>
				<extensions>
					<swisstopo:routepoint_id>779051876</swisstopo:routepoint_id>
				</extensions>
			</trkpt>
			<trkpt lat="46.9969919163" lon="7.4592151879">
				<ele>557.5</ele>
				<time>2021-04-12T09:50:32+02:00</time>
				<extensions>
					<swisstopo:routepoint_id>317084173</swisstopo:routepoint_id>
				</extensions>
			</trkpt>
			<trkpt lat="46.9970077618" lon="7.4592295568">
				<ele>557.5</ele>
				<time>2021-04-12T09:50:33+02:00</time>
				<extensions>
					<swisstopo:routepoint_id>1326767404</swisstopo:routepoint_id>
				</extensions>
			</trkpt>
			<trkpt lat="46.9970344381" lon="7.4592556817">
				<ele>557.6</ele>
				<time>2021-04-12T09:50:34+02:00</time>
				<extensions>
					<swisstopo:routepoint_id>1657052227</swisstopo:routepoint_id>
				</extensions>
			</trkpt>
			<trkpt lat="46.9970721490" lon="7.4592947542">
				<ele>557.6</ele>
				<time>2021-04-12T09:50:35+02:00</time>
				<extensions>
					<swisstopo:routepoint_id>1508844893</swisstopo:routepoint_id>
				</extensions>
			</trkpt>
			<trkpt lat="46.9971196232" lon="7.4593433273">
				<ele>557.7</ele>
				<time>2021-04-12T09:50:36+02:00</time>
				<extensions>
					<swisstopo:routepoint_id>1669212875</swisstopo:routepoint_id>
				</extensions>
			</trkpt>
			<trkpt lat="46.9971749848" lon="7.4593948290">
				<ele>557.7</ele>
				<time>2021-04-12T09:50:37+02:00</time>
				<extensions>
					<swisstopo:routepoint_id>1881909364</swisstopo:routepoint_id>
				</extensions>
			</trkpt>
			<trkpt lat="46.9972354927" lon="7.4594454161">
				<ele>557.7</ele>
				<time>2021-04-12T09:50:38+02:00</time>
				<extensions>
					<swisstopo:routepoint_id>1111527732</swisstopo:routepoint_id>
				</extensions>
			</trkpt>
			<trkpt lat="46.9972984076" lon="7.4594940604">
				<ele>557.8</ele>
				<time>2021-04-12T09:50:39+02:00</time>
				<extensions>
					<swisstopo:routepoint_id>486346471</swisstopo:routepoint_id>
				</extensions>
			</trkpt>
			<trkpt lat="46.9973618438" lon="7.4595419323">
				<ele>557.9</ele>
				<time>2021-04-12T09:50:40+02:00</time>
				<extensions>
					<swisstopo:routepoint_id>702377615</swisstopo:routepoint_id>
				</extensions>
			</trkpt>
			<trkpt lat="46.9974252916" lon="7.4595897332">
				<ele>558.1</ele>
				<time>2021-04-12T09:50:41+02:00</time>
				<extensions>
					<swisstopo:routepoint_id>142967746</swisstopo:routepoint_id>
				</extensions>
			</trkpt>
			<trkpt lat="46.9974883217" lon="7.4596390593">
				<ele>558.2</ele>
				<time>2021-04-12T09:50:42+02:00</time>
				<extensions>
					<swisstopo:routepoint_id>1972189676</swisstopo:routepoint_id>
				</extensions>
			</trkpt>
			<trkpt lat="46.9975509017" lon="7.4596887488">
				<ele>558.4</ele>
				<time>2021-04-12T09:50:43+02:00</time>
				<extensions>
					<swisstopo:routepoint_id>181793087</swisstopo:routepoint_id>
				</extensions>
			</trkpt>
			<trkpt lat="46.9976131861" lon="7.4597381484">
				<ele>558.6</ele>
				<time>2021-04-12T09:50:44+02:00</time>
				<extensions>
					<swisstopo:routepoint_id>1674667175</swisstopo:routepoint_id>
				</extensions>
			</trkpt>
			<trkpt lat="46.9976749235" lon="7.4597879673">
				<ele>558.7</ele>
				<time>2021-04-12T09:50:45+02:00</time>
				<extensions>
					<swisstopo:routepoint_id>1210532643</swisstopo:routepoint_id>
				</extensions>
			</trkpt>
			<trkpt lat="46.9977358039" lon="7.4598395442">
				<ele>558.8</ele>
				<time>2021-04-12T09:50:46+02:00</time>
				<extensions>
					<swisstopo:routepoint_id>162059223</swisstopo:routepoint_id>
				</extensions>
			</trkpt>
			<trkpt lat="46.9977956667" lon="7.4598921942">
				<ele>558.9</ele>
				<time>2021-04-12T09:50:47+02:00</time>
				<extensions>
					<swisstopo:routepoint_id>720096565</swisstopo:routepoint_id>
				</extensions>
			</trkpt>
			<trkpt lat="46.9978546058" lon="7.4599452415">
				<ele>559.0</ele>
				<time>2021-04-12T09:50:48+02:00</time>
				<extensions>
					<swisstopo:routepoint_id>1592617110</swisstopo:routepoint_id>
				</extensions>
			</trkpt>
			<trkpt lat="46.9979127670" lon="7.4599989280">
				<ele>559.1</ele>
				<time>2021-04-12T09:50:49+02:00</time>
				<extensions>
					<swisstopo:routepoint_id>879591562</swisstopo:routepoint_id>
				</extensions>
			</trkpt>
			<trkpt lat="46.9979702492" lon="7.4600522439">
				<ele>559.2</ele>
				<time>2021-04-12T09:50:50+02:00</time>
				<extensions>
					<swisstopo:routepoint_id>17956586</swisstopo:routepoint_id>
				</extensions>
			</trkpt>
			<trkpt lat="46.9980271198" lon="7.4601054502">
				<ele>559.4</ele>
				<time>2021-04-12T09:50:51+02:00</time>
				<extensions>
					<swisstopo:routepoint_id>1148630322</swisstopo:routepoint_id>
				</extensions>
			</trkpt>
			<trkpt lat="46.9980840353" lon="7.4601573452">
				<ele>559.6</ele>
				<time>2021-04-12T09:50:52+02:00</time>
				<extensions>
					<swisstopo:routepoint_id>1299318971</swisstopo:routepoint_id>
				</extensions>
			</trkpt>
			<trkpt lat="46.9981405552" lon="7.4602085105">
				<ele>559.7</ele>
				<time>2021-04-12T09:50:53+02:00</time>
				<extensions>
					<swisstopo:routepoint_id>2040222901</swisstopo:routepoint_id>
				</extensions>
			</trkpt>
			<trkpt lat="46.9981968928" lon="7.4602598973">
				<ele>559.9</ele>
				<time>2021-04-12T09:50:54+02:00</time>
				<extensions>
					<swisstopo:routepoint_id>1154905458</swisstopo:routepoint_id>
				</extensions>
			</trkpt>
			<trkpt lat="46.9982537745" lon="7.4603106051">
				<ele>560.0</ele>
				<time>2021-04-12T09:50:55+02:00</time>
				<extensions>
					<swisstopo:routepoint_id>1538831020</swisstopo:routepoint_id>
				</extensions>
			</trkpt>
			<trkpt lat="46.9983108717" lon="7.4603596436">
				<ele>560.1</ele>
				<time>2021-04-12T09:50:56+02:00</time>
				<extensions>
					<swisstopo:routepoint_id>987392319</swisstopo:routepoint_id>
				</extensions>
			</trkpt>
			<trkpt lat="46.9983684344" lon="7.4604084873">
				<ele>560.2</ele>
				<time>2021-04-12T09:50:57+02:00</time>
				<extensions>
					<swisstopo:routepoint_id>1496565064</swisstopo:routepoint_id>
				</extensions>
			</trkpt>
			<trkpt lat="46.9984262766" lon="7.4604583076">
				<ele>560.3</ele>
				<time>2021-04-12T09:50:58+02:00</time>
				<extensions>
					<swisstopo:routepoint_id>1440556984</swisstopo:routepoint_id>
				</extensions>
			</trkpt>
			<trkpt lat="46.9984842649" lon="7.4605081436">
				<ele>560.4</ele>
				<time>2021-04-12T09:50:59+02:00</time>
				<extensions>
					<swisstopo:routepoint_id>710593810</swisstopo:routepoint_id>
				</extensions>
			</trkpt>
			<trkpt lat="46.9985421998" lon="7.4605577152">
				<ele>560.6</ele>
				<time>2021-04-12T09:51:00+02:00</time>
				<extensions>
					<swisstopo:routepoint_id>793603703</swisstopo:routepoint_id>
				</extensions>
			</trkpt>
			<trkpt lat="46.9985995274" lon="7.4606078755">
				<ele>560.7</ele>
				<time>2021-04-12T09:51:01+02:00</time>
				<extensions>
					<swisstopo:routepoint_id>76504804</swisstopo:routepoint_id>
				</extensions>
			</trkpt>
			<trkpt lat="46.9986567060" lon="7.4606579077">
				<ele>560.8</ele>
				<time>2021-04-12T09:51:02+02:00</time>
				<extensions>
					<swisstopo:routepoint_id>1621019922</swisstopo:routepoint_id>
				</extensions>
			</trkpt>
			<trkpt lat="46.9987134970" lon="7.4607064318">
				<ele>561.0</ele>
				<time>2021-04-12T09:51:03+02:00</time>
				<extensions>
					<swisstopo:routepoint_id>1504283212</swisstopo:routepoint_id>
				</extensions>
			</trkpt>
			<trkpt lat="46.9987699178" lon="7.4607538727">
				<ele>561.1</ele>
				<time>2021-04-12T09:51:04+02:00</time>
				<extensions>
					<swisstopo:routepoint_id>162967953</swisstopo:routepoint_id>
				</extensions>
			</trkpt>
			<trkpt lat="46.9988261345" lon="7.4608005441">
				<ele>561.3</ele>
				<time>2021-04-12T09:51:05+02:00</time>
				<extensions>
					<swisstopo:routepoint_id>960736146</swisstopo:routepoint_id>
				</extensions>
			</trkpt>
			<trkpt lat="46.9988821728" lon="7.4608465224">
				<ele>561.4</ele>
				<time>2021-04-12T09:51:06+02:00</time>
				<extensions>
					<swisstopo:routepoint_id>162864029</swisstopo:routepoint_id>
				</extensions>
			</trkpt>
			<trkpt lat="46.9989378835" lon="7.4608917898">
				<ele>561.6</ele>
				<time>2021-04-12T09:51:07+02:00</time>
				<extensions>
					<swisstopo:routepoint_id>1361569125</swisstopo:routepoint_id>
				</extensions>
			</trkpt>
			<trkpt lat="46.9989933398" lon="7.4609361255">
				<ele>561.7</ele>
				<time>2021-04-12T09:51:08+02:00</time>
				<extensions>
					<swisstopo:routepoint_id>306541443</swisstopo:routepoint_id>
				</extensions>
			</trkpt>
			<trkpt lat="46.9990478142" lon="7.4609803591">
				<ele>561.9</ele>
				<time>2021-04-12T09:51:09+02:00</time>
				<extensions>
					<swisstopo:routepoint_id>228763348</swisstopo:routepoint_id>
				</extensions>
			</trkpt>
			<trkpt lat="46.9991010712" lon="7.4610239331">
				<ele>562.0</ele>
				<time>2021-04-12T09:51:10+02:00</time>
				<extensions>
					<swisstopo:routepoint_id>829861706</swisstopo:routepoint_id>
				</extensions>
			</trkpt>
			<trkpt lat="46.9991525133" lon="7.4610666837">
				<ele>562.1</ele>
				<time>2021-04-12T09:51:11+02:00</time>
				<extensions>
					<swisstopo:routepoint_id>1726889124</swisstopo:routepoint_id>
				</extensions>
			</trkpt>
			<trkpt lat="46.9992018219" lon="7.4611081036">
				<ele>562.2</ele>
				<time>2021-04-12T09:51:12+02:00</time>
				<extensions>
					<swisstopo:routepoint_id>584017863</swisstopo:routepoint_id>
				</extensions>
			</trkpt>
			<trkpt lat="46.9992486952" lon="7.4611481753">
				<ele>562.3</ele>
				<time>2021-04-12T09:51:13+02:00</time>
				<extensions>
					<swisstopo:routepoint_id>1587956651</swisstopo:routepoint_id>
				</extensions>
			</trkpt>
			<trkpt lat="46.9992903234" lon="7.4611842228">
				<ele>562.3</ele>
				<time>2021-04-12T09:51:14+02:00</time>
				<extensions>
					<swisstopo:routepoint_id>2008152088</swisstopo:routepoint_id>
				</extensions>
			</trkpt>
			<trkpt lat="46.9993251075" lon="7.4612150164">
				<ele>562.2</ele>
				<time>2021-04-12T09:51:15+02:00</time>
				<extensions>
					<swisstopo:routepoint_id>1159146764</swisstopo:routepoint_id>
				</extensions>
			</trkpt>
			<trkpt lat="46.9993570799" lon="7.4612436223">
				<ele>562.1</ele>
				<time>2021-04-12T09:51:16+02:00</time>
				<extensions>
					<swisstopo:routepoint_id>1955500611</swisstopo:routepoint_id>
				</extensions>
			</trkpt>
			<trkpt lat="46.9993879423" lon="7.4612715466">
				<ele>562.0</ele>
				<time>2021-04-12T09:51:17+02:00</time>
				<extensions>
					<swisstopo:routepoint_id>1009035389</swisstopo:routepoint_id>
				</extensions>
			</trkpt>
			<trkpt lat="46.9994178157" lon="7.4613000126">
				<ele>562.0</ele>
				<time>2021-04-12T09:51:18+02:00</time>
				<extensions>
					<swisstopo:routepoint_id>179422564</swisstopo:routepoint_id>
				</extensions>
			</trkpt>
			<trkpt lat="46.9994474601" lon="7.4613300093">
				<ele>562.0</ele>
				<time>2021-04-12T09:51:19+02:00</time>
				<extensions>
					<swisstopo:routepoint_id>487992760</swisstopo:routepoint_id>
				</extensions>
			</trkpt>
			<trkpt lat="46.9994775174" lon="7.4613595241">
				<ele>561.9</ele>
				<time>2021-04-12T09:51:20+02:00</time>
				<extensions>
					<swisstopo:routepoint_id>454269427</swisstopo:routepoint_id>
				</extensions>
			</trkpt>
			<trkpt lat="46.9995081225" lon="7.4613876252">
				<ele>561.8</ele>
				<time>2021-04-12T09:51:21+02:00</time>
				<extensions>
					<swisstopo:routepoint_id>601894504</swisstopo:routepoint_id>
				</extensions>
			</trkpt>
			<trkpt lat="46.9995381663" lon="7.4614136122">
				<ele>561.7</ele>
				<time>2021-04-12T09:51:22+02:00</time>
				<extensions>
					<swisstopo:routepoint_id>1392951358</swisstopo:routepoint_id>
				</extensions>
			</trkpt>
			<trkpt lat="46.9995671275" lon="7.4614372394">
				<ele>561.6</ele>
				<time>2021-04-12T09:51:23+02:00</time>
				<extensions>
					<swisstopo:routepoint_id>1614237959</swisstopo:routepoint_id>
				</extensions>
			</trkpt>
			<trkpt lat="46.9995944862" lon="7.4614583347">
				<ele>561.5</ele>
				<time>2021-04-12T09:51:24+02:00</time>
				<extensions>
					<swisstopo:routepoint_id>1336464362</swisstopo:routepoint_id>
				</extensions>
			</trkpt>
			<trkpt lat="46.9996198196" lon="7.4614766090">
				<ele>561.4</ele>
				<time>2021-04-12T09:51:25+02:00</time>
				<extensions>
					<swisstopo:routepoint_id>1425068161</swisstopo:routepoint_id>
				</extensions>
			</trkpt>
			<trkpt lat="46.9996424973" lon="7.4614922718">
				<ele>561.3</ele>
				<time>2021-04-12T09:51:26+02:00</time>
				<extensions>
					<swisstopo:routepoint_id>235466936</swisstopo:routepoint_id>
				</extensions>
			</trkpt>
			<trkpt lat="46.9996622830" lon="7.4615050933">
				<ele>561.2</ele>
				<time>2021-04-12T09:51:27+02:00</time>
				<extensions>
					<swisstopo:routepoint_id>1827915578</swisstopo:routepoint_id>
				</extensions>
			</trkpt>
			<trkpt lat="46.9996791415" lon="7.4615152865">
				<ele>561.2</ele>
				<time>2021-04-12T09:51:28+02:00</time>
				<extensions>
					<swisstopo:routepoint_id>2023549111</swisstopo:routepoint_id>
				</extensions>
			</trkpt>
			<trkpt lat="46.9996920472" lon="7.4615226154">
				<ele>561.1</ele>
				<time>2021-04-12T09:51:29+02:00</time>
				<extensions>
					<swisstopo:routepoint_id>91391038</swisstopo:routepoint_id>
				</extensions>
			</trkpt>
			<trkpt lat="46.9997010126" lon="7.4615269415">
				<ele>561.1</ele>
				<time>2021-04-12T09:51:30+02:00</time>
				<extensions>
					<swisstopo:routepoint_id>558368061</swisstopo:routepoint_id>
				</extensions>
			</trkpt>
			<trkpt lat="46.9997064251" lon="7.4615285560">
				<ele>561.0</ele>
				<time>2021-04-12T09:51:31+02:00</time>
				<extensions>
					<swisstopo:routepoint_id>2135947484</swisstopo:routepoint_id>
				</extensions>
			</trkpt>
			<trkpt lat="46.9997092714" lon="7.4615281216">
				<ele>561.0</ele>
				<time>2021-04-12T09:51:32+02:00</time>
				<extensions>
					<swisstopo:routepoint_id>1532720336</swisstopo:routepoint_id>
				</extensions>
			</trkpt>
			<trkpt lat="46.9997101294" lon="7.4615266056">
				<ele>561.0</ele>
				<time>2021-04-12T09:51:33+02:00</time>
				<extensions>
					<swisstopo:routepoint_id>1364341387</swisstopo:routepoint_id>
				</extensions>
			</trkpt>
			<trkpt lat="46.9997095782" lon="7.4615244856">
				<ele>561.0</ele>
				<time>2021-04-12T09:51:34+02:00</time>
				<extensions>
					<swisstopo:routepoint_id>1802792290</swisstopo:routepoint_id>
				</extensions>
			</trkpt>
			<trkpt lat="46.9997081687" lon="7.4615220515">
				<ele>561.0</ele>
				<time>2021-04-12T09:51:35+02:00</time>
				<extensions>
					<swisstopo:routepoint_id>683242507</swisstopo:routepoint_id>
				</extensions>
			</trkpt>
			<trkpt lat="46.9997062844" lon="7.4615193907">
				<ele>561.0</ele>
				<time>2021-04-12T09:51:36+02:00</time>
				<extensions>
					<swisstopo:routepoint_id>661754640</swisstopo:routepoint_id>
				</extensions>
			</trkpt>
			<trkpt lat="46.9997040605" lon="7.4615169291">
				<ele>561.0</ele>
				<time>2021-04-12T09:51:37+02:00</time>
				<extensions>
					<swisstopo:routepoint_id>292426667</swisstopo:routepoint_id>
				</extensions>
			</trkpt>
			<trkpt lat="46.9997021906" lon="7.4615143842">
				<ele>561.0</ele>
				<time>2021-04-12T09:51:38+02:00</time>
				<extensions>
					<swisstopo:routepoint_id>1372407933</swisstopo:routepoint_id>
				</extensions>
			</trkpt>
			<trkpt lat="46.9997012157" lon="7.4615129098">
				<ele>561.0</ele>
				<time>2021-04-12T09:51:39+02:00</time>
				<extensions>
					<swisstopo:routepoint_id>2085761151</swisstopo:routepoint_id>
				</extensions>
			</trkpt>
			<trkpt lat="46.9997025407" lon="7.4615140499">
				<ele>561.0</ele>
				<time>2021-04-12T09:51:40+02:00</time>
				<extensions>
					<swisstopo:routepoint_id>2012094876</swisstopo:routepoint_id>
				</extensions>
			</trkpt>
			<trkpt lat="46.9997078873" lon="7.4615202072">
				<ele>561.0</ele>
				<time>2021-04-12T09:51:41+02:00</time>
				<extensions>
					<swisstopo:routepoint_id>853591623</swisstopo:routepoint_id>
				</extensions>
			</trkpt>
			<trkpt lat="46.9997182601" lon="7.4615344924">
				<ele>561.0</ele>
				<time>2021-04-12T09:51:42+02:00</time>
				<extensions>
					<swisstopo:routepoint_id>1123645801</swisstopo:routepoint_id>
				</extensions>
			</trkpt>
			<trkpt lat="46.9997353804" lon="7.4615566314">
				<ele>560.9</ele>
				<time>2021-04-12T09:51:43+02:00</time>
				<extensions>
					<swisstopo:routepoint_id>143785689</swisstopo:routepoint_id>
				</extensions>
			</trkpt>
			<trkpt lat="46.9997601363" lon="7.4615839178">
				<ele>560.8</ele>
				<time>2021-04-12T09:51:44+02:00</time>
				<extensions>
					<swisstopo:routepoint_id>686972148</swisstopo:routepoint_id>
				</extensions>
			</trkpt>
			<trkpt lat="46.9997930572" lon="7.4616099368">
				<ele>560.7</ele>
				<time>2021-04-12T09:51:45+02:00</time>
				<extensions>
					<swisstopo:routepoint_id>1068805164</swisstopo:routepoint_id>
				</extensions>
			</trkpt>
			<trkpt lat="46.9998335334" lon="7.4616327681">
				<ele>560.6</ele>
				<time>2021-04-12T09:51:46+02:00</time>
				<extensions>
					<swisstopo:routepoint_id>1855167840</swisstopo:routepoint_id>
				</extensions>
			</trkpt>
			<trkpt lat="46.9998806002" lon="7.4616542710">
				<ele>560.5</ele>
				<time>2021-04-12T09:51:47+02:00</time>
				<extensions>
					<swisstopo:routepoint_id>490816087</swisstopo:routepoint_id>
				</extensions>
			</trkpt>
			<trkpt lat="46.9999340170" lon="7.4616768588">
				<ele>560.5</ele>
				<time>2021-04-12T09:51:48+02:00</time>
				<extensions>
					<swisstopo:routepoint_id>661286082</swisstopo:routepoint_id>
				</extensions>
			</trkpt>
			<trkpt lat="46.9999934960" lon="7.4617016909">
				<ele>560.4</ele>
				<time>2021-04-12T09:51:49+02:00</time>
				<extensions>
					<swisstopo:routepoint_id>1007306949</swisstopo:routepoint_id>
				</extensions>
			</trkpt>
			<trkpt lat="47.0000582308" lon="7.4617292419">
				<ele>560.4</ele>
				<time>2021-04-12T09:51:50+02:00</time>
				<extensions>
					<swisstopo:routepoint_id>1194302542</swisstopo:routepoint_id>
				</extensions>
			</trkpt>
			<trkpt lat="47.0001270581" lon="7.4617595515">
				<ele>560.5</ele>
				<time>2021-04-12T09:51:51+02:00</time>
				<extensions>
					<swisstopo:routepoint_id>113174885</swisstopo:routepoint_id>
				</extensions>
			</trkpt>
			<trkpt lat="47.0001987677" lon="7.4617921631">
				<ele>560.5</ele>
				<time>2021-04-12T09:51:52+02:00</time>
				<extensions>
					<swisstopo:routepoint_id>1607264600</swisstopo:routepoint_id>
				</extensions>
			</trkpt>
			<trkpt lat="47.0002721820" lon="7.4618265506">
				<ele>560.6</ele>
				<time>2021-04-12T09:51:53+02:00</time>
				<extensions>
					<swisstopo:routepoint_id>99336587</swisstopo:routepoint_id>
				</extensions>
			</trkpt>
			<trkpt lat="47.0003465107" lon="7.4618620920">
				<ele>560.7</ele>
				<time>2021-04-12T09:51:54+02:00</time>
				<extensions>
					<swisstopo:routepoint_id>955223990</swisstopo:routepoint_id>
				</extensions>
			</trkpt>
			<trkpt lat="47.0004208244" lon="7.4618982099">
				<ele>560.7</ele>
				<time>2021-04-12T09:51:55+02:00</time>
				<extensions>
					<swisstopo:routepoint_id>2009338605</swisstopo:routepoint_id>
				</extensions>
			</trkpt>
			<trkpt lat="47.0004946029" lon="7.4619344731">
				<ele>560.8</ele>
				<time>2021-04-12T09:51:56+02:00</time>
				<extensions>
					<swisstopo:routepoint_id>1773585160</swisstopo:routepoint_id>
				</extensions>
			</trkpt>
			<trkpt lat="47.0005675495" lon="7.4619708379">
				<ele>560.9</ele>
				<time>2021-04-12T09:51:57+02:00</time>
				<extensions>
					<swisstopo:routepoint_id>1572763760</swisstopo:routepoint_id>
				</extensions>
			</trkpt>
			<trkpt lat="47.0006397501" lon="7.4620067155">
				<ele>560.9</ele>
				<time>2021-04-12T09:51:58+02:00</time>
				<extensions>
					<swisstopo:routepoint_id>64303397</swisstopo:routepoint_id>
				</extensions>
			</trkpt>
			<trkpt lat="47.0007106791" lon="7.4620409373">
				<ele>561.0</ele>
				<time>2021-04-12T09:51:59+02:00</time>
				<extensions>
					<swisstopo:routepoint_id>562918938</swisstopo:routepoint_id>
				</extensions>
			</trkpt>
			<trkpt lat="47.0007813512" lon="7.4620743521">
				<ele>561.1</ele>
				<time>2021-04-12T09:52:00+02:00</time>
				<extensions>
					<swisstopo:routepoint_id>1313125931</swisstopo:routepoint_id>
				</extensions>
			</trkpt>
			<trkpt lat="47.0008524765" lon="7.4621074173">
				<ele>561.2</ele>
				<time>2021-04-12T09:52:01+02:00</time>
				<extensions>
					<swisstopo:routepoint_id>18082098</swisstopo:routepoint_id>
				</extensions>
			</trkpt>
			<trkpt lat="47.0009241002" lon="7.4621402627">
				<ele>561.4</ele>
				<time>2021-04-12T09:52:02+02:00</time>
				<extensions>
					<swisstopo:routepoint_id>1110626859</swisstopo:routepoint_id>
				</extensions>
			</trkpt>
			<trkpt lat="47.0009965207" lon="7.4621733486">
				<ele>561.6</ele>
				<time>2021-04-12T09:52:03+02:00</time>
				<extensions>
					<swisstopo:routepoint_id>377759489</swisstopo:routepoint_id>
				</extensions>
			</trkpt>
			<trkpt lat="47.0010702003" lon="7.4622065248">
				<ele>561.7</ele>
				<time>2021-04-12T09:52:04+02:00</time>
				<extensions>
					<swisstopo:routepoint_id>1042071091</swisstopo:routepoint_id>
				</extensions>
			</trkpt>
			<trkpt lat="47.0011451397" lon="7.4622405512">
				<ele>561.6</ele>
				<time>2021-04-12T09:52:05+02:00</time>
				<extensions>
					<swisstopo:routepoint_id>1359685152</swisstopo:routepoint_id>
				</extensions>
			</trkpt>
			<trkpt lat="47.0012204478" lon="7.4622761211">
				<ele>561.6</ele>
				<time>2021-04-12T09:52:06+02:00</time>
				<extensions>
					<swisstopo:routepoint_id>854861937</swisstopo:routepoint_id>
				</extensions>
			</trkpt>
			<trkpt lat="47.0012948479" lon="7.4623123892">
				<ele>561.5</ele>
				<time>2021-04-12T09:52:07+02:00</time>
				<extensions>
					<swisstopo:routepoint_id>998976729</swisstopo:routepoint_id>
				</extensions>
			</trkpt>
			<trkpt lat="47.0013663576" lon="7.4623488307">
				<ele>561.4</ele>
				<time>2021-04-12T09:52:08+02:00</time>
				<extensions>
					<swisstopo:routepoint_id>774732057</swisstopo:routepoint_id>
				</extensions>
			</trkpt>
			<trkpt lat="47.0014341360" lon="7.4623837347">
				<ele>561.3</ele>
				<time>2021-04-12T09:52:09+02:00</time>
				<extensions>
					<swisstopo:routepoint_id>728330238</swisstopo:routepoint_id>
				</extensions>
			</trkpt>
			<trkpt lat="47.0014967745" lon="7.4624161673">
				<ele>561.2</ele>
				<time>2021-04-12T09:52:10+02:00</time>
				<extensions>
					<swisstopo:routepoint_id>389522166</swisstopo:routepoint_id>
				</extensions>
			</trkpt>
			<trkpt lat="47.0015537379" lon="7.4624458644">
				<ele>561.1</ele>
				<time>2021-04-12T09:52:11+02:00</time>
				<extensions>
					<swisstopo:routepoint_id>1168887906</swisstopo:routepoint_id>
				</extensions>
			</trkpt>
			<trkpt lat="47.0016052220" lon="7.4624735163">
				<ele>561.0</ele>
				<time>2021-04-12T09:52:12+02:00</time>
				<extensions>
					<swisstopo:routepoint_id>318633386</swisstopo:routepoint_id>
				</extensions>
			</trkpt>
			<trkpt lat="47.0016517958" lon="7.4624984791">
				<ele>560.9</ele>
				<time>2021-04-12T09:52:13+02:00</time>
				<extensions>
					<swisstopo:routepoint_id>1594586531</swisstopo:routepoint_id>
				</extensions>
			</trkpt>
			<trkpt lat="47.0016939486" lon="7.4625208876">
				<ele>560.8</ele>
				<time>2021-04-12T09:52:14+02:00</time>
				<extensions>
					<swisstopo:routepoint_id>1767395604</swisstopo:routepoint_id>
				</extensions>
			</trkpt>
			<trkpt lat="47.0017324025" lon="7.4625413325">
				<ele>560.7</ele>
				<time>2021-04-12T09:52:15+02:00</time>
				<extensions>
					<swisstopo:routepoint_id>624111124</swisstopo:routepoint_id>
				</extensions>
			</trkpt>
			<trkpt lat="47.0017672213" lon="7.4625601300">
				<ele>560.6</ele>
				<time>2021-04-12T09:52:16+02:00</time>
				<extensions>
					<swisstopo:routepoint_id>1125529120</swisstopo:routepoint_id>
				</extensions>
			</trkpt>
			<trkpt lat="47.0017991280" lon="7.4625772512">
				<ele>560.6</ele>
				<time>2021-04-12T09:52:17+02:00</time>
				<extensions>
					<swisstopo:routepoint_id>1731957064</swisstopo:routepoint_id>
				</extensions>
			</trkpt>
			<trkpt lat="47.0018284291" lon="7.4625929854">
				<ele>560.5</ele>
				<time>2021-04-12T09:52:18+02:00</time>
				<extensions>
					<swisstopo:routepoint_id>2009023210</swisstopo:routepoint_id>
				</extensions>
			</trkpt>
			<trkpt lat="47.0018560910" lon="7.4626075281">
				<ele>560.4</ele>
				<time>2021-04-12T09:52:19+02:00</time>
				<extensions>
					<swisstopo:routepoint_id>767708689</swisstopo:routepoint_id>
				</extensions>
			</trkpt>
			<trkpt lat="47.0018828778" lon="7.4626209928">
				<ele>560.4</ele>
				<time>2021-04-12T09:52:20+02:00</time>
				<extensions>
					<swisstopo:routepoint_id>798184847</swisstopo:routepoint_id>
				</extensions>
			</trkpt>
			<trkpt lat="47.0019094307" lon="7.4626343994">
				<ele>560.3</ele>
				<time>2021-04-12T09:52:21+02:00</time>
				<extensions>
					<swisstopo:routepoint_id>1909864367</swisstopo:routepoint_id>
				</extensions>
			</trkpt>
			<trkpt lat="47.0019369585" lon="7.4626481438">
				<ele>560.3</ele>
				<time>2021-04-12T09:52:22+02:00</time>
				<extensions>
					<swisstopo:routepoint_id>652344460</swisstopo:routepoint_id>
				</extensions>
			</trkpt>
			<trkpt lat="47.0019667605" lon="7.4626630476">
				<ele>560.2</ele>
				<time>2021-04-12T09:52:23+02:00</time>
				<extensions>
					<swisstopo:routepoint_id>1049321285</swisstopo:routepoint_id>
				</extensions>
			</trkpt>
			<trkpt lat="47.0019998182" lon="7.4626795468">
				<ele>560.2</ele>
				<time>2021-04-12T09:52:24+02:00</time>
				<extensions>
					<swisstopo:routepoint_id>807127831</swisstopo:routepoint_id>
				</extensions>
			</trkpt>
			<trkpt lat="47.0020364305" lon="7.4626980386">
				<ele>560.1</ele>
				<time>2021-04-12T09:52:25+02:00</time>
				<extensions>
					<swisstopo:routepoint_id>1890741165</swisstopo:routepoint_id>
				</extensions>
			</trkpt>
			<trkpt lat="47.0020764529" lon="7.4627187324">
				<ele>560.0</ele>
				<time>2021-04-12T09:52:26+02:00</time>
				<extensions>
					<swisstopo:routepoint_id>1371235496</swisstopo:routepoint_id>
				</extensions>
			</trkpt>
			<trkpt lat="47.0021194491" lon="7.4627413722">
				<ele>559.9</ele>
				<time>2021-04-12T09:52:27+02:00</time>
				<extensions>
					<swisstopo:routepoint_id>1707965315</swisstopo:routepoint_id>
				</extensions>
			</trkpt>
			<trkpt lat="47.0021652419" lon="7.4627654354">
				<ele>559.8</ele>
				<time>2021-04-12T09:52:28+02:00</time>
				<extensions>
					<swisstopo:routepoint_id>359139756</swisstopo:routepoint_id>
				</extensions>
			</trkpt>
			<trkpt lat="47.0022138741" lon="7.4627905894">
				<ele>559.7</ele>
				<time>2021-04-12T09:52:29+02:00</time>
				<extensions>
					<swisstopo:routepoint_id>1632831022</swisstopo:routepoint_id>
				</extensions>
			</trkpt>
			<trkpt lat="47.0022652204" lon="7.4628173830">
				<ele>559.6</ele>
				<time>2021-04-12T09:52:30+02:00</time>
				<extensions>
					<swisstopo:routepoint_id>297461741</swisstopo:routepoint_id>
				</extensions>
			</trkpt>
			<trkpt lat="47.0023191614" lon="7.4628450024">
				<ele>559.4</ele>
				<time>2021-04-12T09:52:31+02:00</time>
				<extensions>
					<swisstopo:routepoint_id>97550771</swisstopo:routepoint_id>
				</extensions>
			</trkpt>
			<trkpt lat="47.0023755624" lon="7.4628729025">
				<ele>559.3</ele>
				<time>2021-04-12T09:52:32+02:00</time>
				<extensions>
					<swisstopo:routepoint_id>1005785536</swisstopo:routepoint_id>
				</extensions>
			</trkpt>
			<trkpt lat="47.0024338122" lon="7.4629005671">
				<ele>559.1</ele>
				<time>2021-04-12T09:52:33+02:00</time>
				<extensions>
					<swisstopo:routepoint_id>1393718015</swisstopo:routepoint_id>
				</extensions>
			</trkpt>
			<trkpt lat="47.0024929655" lon="7.4629275522">
				<ele>558.9</ele>
				<time>2021-04-12T09:52:34+02:00</time>
				<extensions>
					<swisstopo:routepoint_id>1614540276</swisstopo:routepoint_id>
				</extensions>
			</trkpt>
			<trkpt lat="47.0025529565" lon="7.4629541626">
				<ele>558.8</ele>
				<time>2021-04-12T09:52:35+02:00</time>
				<extensions>
					<swisstopo:routepoint_id>2122538887</swisstopo:routepoint_id>
				</extensions>
			</trkpt>
			<trkpt lat="47.0026133686" lon="7.4629807798">
				<ele>558.7</ele>
				<time>2021-04-12T09:52:36+02:00</time>
				<extensions>
					<swisstopo:routepoint_id>1660213492</swisstopo:routepoint_id>
				</extensions>
			</trkpt>
			<trkpt lat="47.0026741893" lon="7.4630074451">
				<ele>558.6</ele>
				<time>2021-04-12T09:52:37+02:00</time>
				<extensions>
					<swisstopo:routepoint_id>953134573</swisstopo:routepoint_id>
				</extensions>
			</trkpt>
			<trkpt lat="47.0027358828" lon="7.4630338028">
				<ele>558.4</ele>
				<time>2021-04-12T09:52:38+02:00</time>
				<extensions>
					<swisstopo:routepoint_id>1252245438</swisstopo:routepoint_id>
				</extensions>
			</trkpt>
			<trkpt lat="47.0027987480" lon="7.4630590603">
				<ele>558.4</ele>
				<time>2021-04-12T09:52:39+02:00</time>
				<extensions>
					<swisstopo:routepoint_id>1149335866</swisstopo:routepoint_id>
				</extensions>
			</trkpt>
			<trkpt lat="47.0028633128" lon="7.4630830720">
				<ele>558.3</ele>
				<time>2021-04-12T09:52:40+02:00</time>
				<extensions>
					<swisstopo:routepoint_id>272495097</swisstopo:routepoint_id>
				</extensions>
			</trkpt>
			<trkpt lat="47.0029298753" lon="7.4631052786">
				<ele>558.2</ele>
				<time>2021-04-12T09:52:41+02:00</time>
				<extensions>
					<swisstopo:routepoint_id>1389959875</swisstopo:routepoint_id>
				</extensions>
			</trkpt>
			<trkpt lat="47.0029977907" lon="7.4631239568">
				<ele>558.1</ele>
				<time>2021-04-12T09:52:42+02:00</time>
				<extensions>
					<swisstopo:routepoint_id>728507059</swisstopo:routepoint_id>
				</extensions>
			</trkpt>
			<trkpt lat="47.0030663528" lon="7.4631378152">
				<ele>558.1</ele>
				<time>2021-04-12T09:52:43+02:00</time>
				<extensions>
					<swisstopo:routepoint_id>1213869066</swisstopo:routepoint_id>
				</extensions>
			</trkpt>
			<trkpt lat="47.0031355183" lon="7.4631459616">
				<ele>558.0</ele>
				<time>2021-04-12T09:52:44+02:00</time>
				<extensions>
					<swisstopo:routepoint_id>402745762</swisstopo:routepoint_id>
				</extensions>
			</trkpt>
			<trkpt lat="47.0032048901" lon="7.4631481937">
				<ele>557.9</ele>
				<time>2021-04-12T09:52:45+02:00</time>
				<extensions>
					<swisstopo:routepoint_id>79566590</swisstopo:routepoint_id>
				</extensions>
			</trkpt>
			<trkpt lat="47.0032743766" lon="7.4631447467">
				<ele>557.7</ele>
				<time>2021-04-12T09:52:46+02:00</time>
				<extensions>
					<swisstopo:routepoint_id>1540849696</swisstopo:routepoint_id>
				</extensions>
			</trkpt>
			<trkpt lat="47.0033439108" lon="7.4631354761">
				<ele>557.6</ele>
				<time>2021-04-12T09:52:47+02:00</time>
				<extensions>
					<swisstopo:routepoint_id>555541499</swisstopo:routepoint_id>
				</extensions>
			</trkpt>
			<trkpt lat="47.0034127593" lon="7.4631210424">
				<ele>557.5</ele>
				<time>2021-04-12T09:52:48+02:00</time>
				<extensions>
					<swisstopo:routepoint_id>1874560184</swisstopo:routepoint_id>
				</extensions>
			</trkpt>
			<trkpt lat="47.0034807914" lon="7.4631019452">
				<ele>557.4</ele>
				<time>2021-04-12T09:52:49+02:00</time>
				<extensions>
					<swisstopo:routepoint_id>427351</swisstopo:routepoint_id>
				</extensions>
			</trkpt>
			<trkpt lat="47.0035479827" lon="7.4630785717">
				<ele>557.4</ele>
				<time>2021-04-12T09:52:50+02:00</time>
				<extensions>
					<swisstopo:routepoint_id>740037316</swisstopo:routepoint_id>
				</extensions>
			</trkpt>
			<trkpt lat="47.0036146454" lon="7.4630512980">
				<ele>557.4</ele>
				<time>2021-04-12T09:52:51+02:00</time>
				<extensions>
					<swisstopo:routepoint_id>1729370235</swisstopo:routepoint_id>
				</extensions>
			</trkpt>
			<trkpt lat="47.0036812529" lon="7.4630213826">
				<ele>557.4</ele>
				<time>2021-04-12T09:52:52+02:00</time>
				<extensions>
					<swisstopo:routepoint_id>1481861147</swisstopo:routepoint_id>
				</extensions>
			</trkpt>
			<trkpt lat="47.0037478282" lon="7.4629895647">
				<ele>557.4</ele>
				<time>2021-04-12T09:52:53+02:00</time>
				<extensions>
					<swisstopo:routepoint_id>1272443370</swisstopo:routepoint_id>
				</extensions>
			</trkpt>
			<trkpt lat="47.0038142289" lon="7.4629563334">
				<ele>557.4</ele>
				<time>2021-04-12T09:52:54+02:00</time>
				<extensions>
					<swisstopo:routepoint_id>1313562764</swisstopo:routepoint_id>
				</extensions>
			</trkpt>
			<trkpt lat="47.0038806170" lon="7.4629227440">
				<ele>557.5</ele>
				<time>2021-04-12T09:52:55+02:00</time>
				<extensions>
					<swisstopo:routepoint_id>917483388</swisstopo:routepoint_id>
				</extensions>
			</trkpt>
			<trkpt lat="47.0039471981" lon="7.4628888924">
				<ele>557.6</ele>
				<time>2021-04-12T09:52:56+02:00</time>
				<extensions>
					<swisstopo:routepoint_id>1210716656</swisstopo:routepoint_id>
				</extensions>
			</trkpt>
			<trkpt lat="47.0040147752" lon="7.4628547692">
				<ele>557.7</ele>
				<time>2021-04-12T09:52:57+02:00</time>
				<extensions>
					<swisstopo:routepoint_id>1107282067</swisstopo:routepoint_id>
				</extensions>
			</trkpt>
			<trkpt lat="47.0040844758" lon="7.4628200832">
				<ele>557.8</ele>
				<time>2021-04-12T09:52:58+02:00</time>
				<extensions>
					<swisstopo:routepoint_id>2143898814</swisstopo:routepoint_id>
				</extensions>
			</trkpt>
			<trkpt lat="47.0041567317" lon="7.4627845527">
				<ele>557.9</ele>
				<time>2021-04-12T09:52:59+02:00</time>
				<extensions>
					<swisstopo:routepoint_id>2026737532</swisstopo:routepoint_id>
				</extensions>
			</trkpt>
			<trkpt lat="47.0042314975" lon="7.4627490732">
				<ele>558.0</ele>
				<time>2021-04-12T09:53:00+02:00</time>
				<extensions>
					<swisstopo:routepoint_id>2139575257</swisstopo:routepoint_id>
				</extensions>
			</trkpt>
			<trkpt lat="47.0043089553" lon="7.4627132884">
				<ele>558.1</ele>
				<time>2021-04-12T09:53:01+02:00</time>
				<extensions>
					<swisstopo:routepoint_id>227675384</swisstopo:routepoint_id>
				</extensions>
			</trkpt>
			<trkpt lat="47.0043885884" lon="7.4626774805">
				<ele>558.2</ele>
				<time>2021-04-12T09:53:02+02:00</time>
				<extensions>
					<swisstopo:routepoint_id>1871803581</swisstopo:routepoint_id>
				</extensions>
			</trkpt>
			<trkpt lat="47.0044698026" lon="7.4626423054">
				<ele>558.2</ele>
				<time>2021-04-12T09:53:03+02:00</time>
				<extensions>
					<swisstopo:routepoint_id>914840964</swisstopo:routepoint_id>
				</extensions>
			</trkpt>
			<trkpt lat="47.0045526176" lon="7.4626080116">
				<ele>558.3</ele>
				<time>2021-04-12T09:53:04+02:00</time>
				<extensions>
					<swisstopo:routepoint_id>1896653075</swisstopo:routepoint_id>
				</extensions>
			</trkpt>
			<trkpt lat="47.0046363896" lon="7.4625748282">
				<ele>558.3</ele>
				<time>2021-04-12T09:53:05+02:00</time>
				<extensions>
					<swisstopo:routepoint_id>1948459104</swisstopo:routepoint_id>
				</extensions>
			</trkpt>
			<trkpt lat="47.0047199808" lon="7.4625436838">
				<ele>558.3</ele>
				<time>2021-04-12T09:53:06+02:00</time>
				<extensions>
					<swisstopo:routepoint_id>774027825</swisstopo:routepoint_id>
				</extensions>
			</trkpt>
			<trkpt lat="47.0048021618" lon="7.4625174497">
				<ele>558.3</ele>
				<time>2021-04-12T09:53:07+02:00</time>
				<extensions>
					<swisstopo:routepoint_id>1777204896</swisstopo:routepoint_id>
				</extensions>
			</trkpt>
			<trkpt lat="47.0048812544" lon="7.4625010004">
				<ele>558.3</ele>
				<time>2021-04-12T09:53:08+02:00</time>
				<extensions>
					<swisstopo:routepoint_id>132640949</swisstopo:routepoint_id>
				</extensions>
			</trkpt>
			<trkpt lat="47.0049546198" lon="7.4624992270">
				<ele>558.3</ele>
				<time>2021-04-12T09:53:09+02:00</time>
				<extensions>
					<swisstopo:routepoint_id>208404257</swisstopo:routepoint_id>
				</extensions>
			</trkpt>
			<trkpt lat="47.0050202137" lon="7.4625138869">
				<ele>558.4</ele>
				<time>2021-04-12T09:53:10+02:00</time>
				<extensions>
					<swisstopo:routepoint_id>104519142</swisstopo:routepoint_id>
				</extensions>
			</trkpt>
			<trkpt lat="47.0050789227" lon="7.4625421513">
				<ele>558.4</ele>
				<time>2021-04-12T09:53:11+02:00</time>
				<extensions>
					<swisstopo:routepoint_id>11596348</swisstopo:routepoint_id>
				</extensions>
			</trkpt>
			<trkpt lat="47.0051337025" lon="7.4625757192">
				<ele>558.4</ele>
				<time>2021-04-12T09:53:12+02:00</time>
				<extensions>
					<swisstopo:routepoint_id>1626292606</swisstopo:routepoint_id>
				</extensions>
			</trkpt>
			<trkpt lat="47.0051855310" lon="7.4626031672">
				<ele>558.4</ele>
				<time>2021-04-12T09:53:13+02:00</time>
				<extensions>
					<swisstopo:routepoint_id>2075453673</swisstopo:routepoint_id>
				</extensions>
			</trkpt>
			<trkpt lat="47.0052309533" lon="7.4626157971">
				<ele>558.4</ele>
				<time>2021-04-12T09:53:14+02:00</time>
				<extensions>
					<swisstopo:routepoint_id>573003890</swisstopo:routepoint_id>
				</extensions>
			</trkpt>
			<trkpt lat="47.0052663440" lon="7.4626126767">
				<ele>558.3</ele>
				<time>2021-04-12T09:53:15+02:00</time>
				<extensions>
					<swisstopo:routepoint_id>1159706082</swisstopo:routepoint_id>
				</extensions>
			</trkpt>
			<trkpt lat="47.0052918621" lon="7.4625971802">
				<ele>558.3</ele>
				<time>2021-04-12T09:53:16+02:00</time>
				<extensions>
					<swisstopo:routepoint_id>618540002</swisstopo:routepoint_id>
				</extensions>
			</trkpt>
			<trkpt lat="47.0053092889" lon="7.4625713468">
				<ele>558.2</ele>
				<time>2021-04-12T09:53:17+02:00</time>
				<extensions>
					<swisstopo:routepoint_id>1980962134</swisstopo:routepoint_id>
				</extensions>
			</trkpt>
			<trkpt lat="47.0053219044" lon="7.4625358320">
				<ele>558.1</ele>
				<time>2021-04-12T09:53:18+02:00</time>
				<extensions>
					<swisstopo:routepoint_id>1591606697</swisstopo:routepoint_id>
				</extensions>
			</trkpt>
			<trkpt lat="47.0053341289" lon="7.4624899136">
				<ele>558.0</ele>
				<time>2021-04-12T09:53:19+02:00</time>
				<extensions>
					<swisstopo:routepoint_id>1077449447</swisstopo:routepoint_id>
				</extensions>
			</trkpt>
			<trkpt lat="47.0053503100" lon="7.4624350160">
				<ele>558.0</ele>
				<time>2021-04-12T09:53:20+02:00</time>
				<extensions>
					<swisstopo:routepoint_id>1110744225</swisstopo:routepoint_id>
				</extensions>
			</trkpt>
			<trkpt lat="47.0053738238" lon="7.4623758093">
				<ele>558.0</ele>
				<time>2021-04-12T09:53:21+02:00</time>
				<extensions>
					<swisstopo:routepoint_id>202846204</swisstopo:routepoint_id>
				</extensions>
			</trkpt>
			<trkpt lat="47.0054066124" lon="7.4623180983">
				<ele>558.0</ele>
				<time>2021-04-12T09:53:22+02:00</time>
				<extensions>
					<swisstopo:routepoint_id>1179602839</swisstopo:routepoint_id>
				</extensions>
			</trkpt>
			<trkpt lat="47.0054480503" lon="7.4622658638">
				<ele>558.1</ele>
				<time>2021-04-12T09:53:23+02:00</time>
				<extensions>
					<swisstopo:routepoint_id>15885969</swisstopo:routepoint_id>
				</extensions>
			</trkpt>
			<trkpt lat="47.0054957790" lon="7.4622199941">
				<ele>558.2</ele>
				<time>2021-04-12T09:53:24+02:00</time>
				<extensions>
					<swisstopo:routepoint_id>707508755</swisstopo:routepoint_id>
				</extensions>
			</trkpt>
			<trkpt lat="47.0055467722" lon="7.4621802674">
				<ele>558.3</ele>
				<time>2021-04-12T09:53:25+02:00</time>
				<extensions>
					<swisstopo:routepoint_id>482691846</swisstopo:routepoint_id>
				</extensions>
			</trkpt>
			<trkpt lat="47.0055986692" lon="7.4621458679">
				<ele>558.5</ele>
				<time>2021-04-12T09:53:26+02:00</time>
				<extensions>
					<swisstopo:routepoint_id>1556121003</swisstopo:routepoint_id>
				</extensions>
			</trkpt>
			<trkpt lat="47.0056494889" lon="7.4621165166">
				<ele>558.6</ele>
				<time>2021-04-12T09:53:27+02:00</time>
				<extensions>
					<swisstopo:routepoint_id>1669844255</swisstopo:routepoint_id>
				</extensions>
			</trkpt>
			<trkpt lat="47.0056977474" lon="7.4620922064">
				<ele>558.7</ele>
				<time>2021-04-12T09:53:28+02:00</time>
				<extensions>
					<swisstopo:routepoint_id>1756094789</swisstopo:routepoint_id>
				</extensions>
			</trkpt>
			<trkpt lat="47.0057424383" lon="7.4620723832">
				<ele>558.8</ele>
				<time>2021-04-12T09:53:29+02:00</time>
				<extensions>
					<swisstopo:routepoint_id>1817358002</swisstopo:routepoint_id>
				</extensions>
			</trkpt>
			<trkpt lat="47.0057829185" lon="7.4620566521">
				<ele>558.9</ele>
				<time>2021-04-12T09:53:30+02:00</time>
				<extensions>
					<swisstopo:routepoint_id>676028333</swisstopo:routepoint_id>
				</extensions>
			</trkpt>
			<trkpt lat="47.0058187221" lon="7.4620446078">
				<ele>559.0</ele>
				<time>2021-04-12T09:53:31+02:00</time>
				<extensions>
					<swisstopo:routepoint_id>1819700101</swisstopo:routepoint_id>
				</extensions>
			</trkpt>
			<trkpt lat="47.0058502279" lon="7.4620357182">
				<ele>559.1</ele>
				<time>2021-04-12T09:53:32+02:00</time>
				<extensions>
					<swisstopo:routepoint_id>1384980580</swisstopo:routepoint_id>
				</extensions>
			</trkpt>
			<trkpt lat="47.0058776159" lon="7.4620297648">
				<ele>559.2</ele>
				<time>2021-04-12T09:53:33+02:00</time>
				<extensions>
					<swisstopo:routepoint_id>793358227</swisstopo:routepoint_id>
				</extensions>
			</trkpt>
			<trkpt lat="47.0059013218" lon="7.4620261145">
				<ele>559.2</ele>
				<time>2021-04-12T09:53:34+02:00</time>
				<extensions>
					<swisstopo:routepoint_id>245756966</swisstopo:routepoint_id>
				</extensions>
			</trkpt>
			<trkpt lat="47.0059221587" lon="7.4620239133">
				<ele>559.3</ele>
				<time>2021-04-12T09:53:35+02:00</time>
				<extensions>
					<swisstopo:routepoint_id>826274381</swisstopo:routepoint_id>
				</extensions>
			</trkpt>
			<trkpt lat="47.0059418345" lon="7.4620222066">
				<ele>559.3</ele>
				<time>2021-04-12T09:53:36+02:00</time>
				<extensions>
					<swisstopo:routepoint_id>1564259965</swisstopo:routepoint_id>
				</extensions>
			</trkpt>
			<trkpt lat="47.0059630145" lon="7.4620199883">
				<ele>559.3</ele>
				<time>2021-04-12T09:53:37+02:00</time>
				<extensions>
					<swisstopo:routepoint_id>1022425181</swisstopo:routepoint_id>
				</extensions>
			</trkpt>
			<trkpt lat="47.0059885427" lon="7.4620162161">
				<ele>559.4</ele>
				<time>2021-04-12T09:53:38+02:00</time>
				<extensions>
					<swisstopo:routepoint_id>1883357420</swisstopo:routepoint_id>
				</extensions>
			</trkpt>
			<trkpt lat="47.0060207687" lon="7.4620101137">
				<ele>559.4</ele>
				<time>2021-04-12T09:53:39+02:00</time>
				<extensions>
					<swisstopo:routepoint_id>1826684807</swisstopo:routepoint_id>
				</extensions>
			</trkpt>
			<trkpt lat="47.0060616471" lon="7.4620015113">
				<ele>559.4</ele>
				<time>2021-04-12T09:53:40+02:00</time>
				<extensions>
					<swisstopo:routepoint_id>665333737</swisstopo:routepoint_id>
				</extensions>
			</trkpt>
			<trkpt lat="47.0061125949" lon="7.4619903347">
				<ele>559.5</ele>
				<time>2021-04-12T09:53:41+02:00</time>
				<extensions>
					<swisstopo:routepoint_id>316767830</swisstopo:routepoint_id>
				</extensions>
			</trkpt>
			<trkpt lat="47.0061746965" lon="7.4619756765">
				<ele>559.5</ele>
				<time>2021-04-12T09:53:42+02:00</time>
				<extensions>
					<swisstopo:routepoint_id>304957897</swisstopo:routepoint_id>
				</extensions>
			</trkpt>
			<trkpt lat="47.0062485325" lon="7.4619559851">
				<ele>559.5</ele>
				<time>2021-04-12T09:53:43+02:00</time>
				<extensions>
					<swisstopo:routepoint_id>1531393137</swisstopo:routepoint_id>
				</extensions>
			</trkpt>
			<trkpt lat="47.0063336964" lon="7.4619311391">
				<ele>559.6</ele>
				<time>2021-04-12T09:53:44+02:00</time>
				<extensions>
					<swisstopo:routepoint_id>532944264</swisstopo:routepoint_id>
				</extensions>
			</trkpt>
			<trkpt lat="47.0064291492" lon="7.4619012772">
				<ele>559.7</ele>
				<time>2021-04-12T09:53:45+02:00</time>
				<extensions>
					<swisstopo:routepoint_id>39953411</swisstopo:routepoint_id>
				</extensions>
			</trkpt>
			<trkpt lat="47.0065334608" lon="7.4618674342">
				<ele>559.7</ele>
				<time>2021-04-12T09:53:46+02:00</time>
				<extensions>
					<swisstopo:routepoint_id>1482080813</swisstopo:routepoint_id>
				</extensions>
			</trkpt>
			<trkpt lat="47.0066450428" lon="7.4618302332">
				<ele>559.8</ele>
				<time>2021-04-12T09:53:47+02:00</time>
				<extensions>
					<swisstopo:routepoint_id>669402538</swisstopo:routepoint_id>
				</extensions>
			</trkpt>
			<trkpt lat="47.0067621436" lon="7.4617900706">
				<ele>559.9</ele>
				<time>2021-04-12T09:53:48+02:00</time>
				<extensions>
					<swisstopo:routepoint_id>2129113180</swisstopo:routepoint_id>
				</extensions>
			</trkpt>
			<trkpt lat="47.0068826312" lon="7.4617475839">
				<ele>560.0</ele>
				<time>2021-04-12T09:53:49+02:00</time>
				<extensions>
					<swisstopo:routepoint_id>485206299</swisstopo:routepoint_id>
				</extensions>
			</trkpt>
			<trkpt lat="47.0070049504" lon="7.4617038042">
				<ele>560.2</ele>
				<time>2021-04-12T09:53:50+02:00</time>
				<extensions>
					<swisstopo:routepoint_id>866859634</swisstopo:routepoint_id>
				</extensions>
			</trkpt>
			<trkpt lat="47.0071278877" lon="7.4616595291">
				<ele>560.3</ele>
				<time>2021-04-12T09:53:51+02:00</time>
				<extensions>
					<swisstopo:routepoint_id>780807390</swisstopo:routepoint_id>
				</extensions>
			</trkpt>
			<trkpt lat="47.0072503930" lon="7.4616149463">
				<ele>560.5</ele>
				<time>2021-04-12T09:53:52+02:00</time>
				<extensions>
					<swisstopo:routepoint_id>1904720560</swisstopo:routepoint_id>
				</extensions>
			</trkpt>
			<trkpt lat="47.0073718755" lon="7.4615704195">
				<ele>560.7</ele>
				<time>2021-04-12T09:53:53+02:00</time>
				<extensions>
					<swisstopo:routepoint_id>99726091</swisstopo:routepoint_id>
				</extensions>
			</trkpt>
			<trkpt lat="47.0074920494" lon="7.4615260209">
				<ele>560.9</ele>
				<time>2021-04-12T09:53:54+02:00</time>
				<extensions>
					<swisstopo:routepoint_id>1059166777</swisstopo:routepoint_id>
				</extensions>
			</trkpt>
			<trkpt lat="47.0076114726" lon="7.4614819996">
				<ele>561.1</ele>
				<time>2021-04-12T09:53:55+02:00</time>
				<extensions>
					<swisstopo:routepoint_id>924071056</swisstopo:routepoint_id>
				</extensions>
			</trkpt>
			<trkpt lat="47.0077302638" lon="7.4614384308">
				<ele>561.3</ele>
				<time>2021-04-12T09:53:56+02:00</time>
				<extensions>
					<swisstopo:routepoint_id>260503088</swisstopo:routepoint_id>
				</extensions>
			</trkpt>
			<trkpt lat="47.0078485364" lon="7.4613949896">
				<ele>561.5</ele>
				<time>2021-04-12T09:53:57+02:00</time>
				<extensions>
					<swisstopo:routepoint_id>1703727430</swisstopo:routepoint_id>
				</extensions>
			</trkpt>
			<trkpt lat="47.0079664526" lon="7.4613516355">
				<ele>561.7</ele>
				<time>2021-04-12T09:53:58+02:00</time>
				<extensions>
					<swisstopo:routepoint_id>2147450559</swisstopo:routepoint_id>
				</extensions>
			</trkpt>
			<trkpt lat="47.0080836776" lon="7.4613082023">
				<ele>561.9</ele>
				<time>2021-04-12T09:53:59+02:00</time>
				<extensions>
					<swisstopo:routepoint_id>1591373631</swisstopo:routepoint_id>
				</extensions>
			</trkpt>
			<trkpt lat="47.0082000967" lon="7.4612652868">
				<ele>562.0</ele>
				<time>2021-04-12T09:54:00+02:00</time>
				<extensions>
					<swisstopo:routepoint_id>1455276479</swisstopo:routepoint_id>
				</extensions>
			</trkpt>
			<trkpt lat="47.0083154551" lon="7.4612229128">
				<ele>562.2</ele>
				<time>2021-04-12T09:54:01+02:00</time>
				<extensions>
					<swisstopo:routepoint_id>1140526870</swisstopo:routepoint_id>
				</extensions>
			</trkpt>
			<trkpt lat="47.0084300214" lon="7.4611806878">
				<ele>562.3</ele>
				<time>2021-04-12T09:54:02+02:00</time>
				<extensions>
					<swisstopo:routepoint_id>396070968</swisstopo:routepoint_id>
				</extensions>
			</trkpt>
			<trkpt lat="47.0085439464" lon="7.4611389650">
				<ele>562.4</ele>
				<time>2021-04-12T09:54:03+02:00</time>
				<extensions>
					<swisstopo:routepoint_id>1712937123</swisstopo:routepoint_id>
				</extensions>
			</trkpt>
			<trkpt lat="47.0086571299" lon="7.4610977617">
				<ele>562.5</ele>
				<time>2021-04-12T09:54:04+02:00</time>
				<extensions>
					<swisstopo:routepoint_id>168454579</swisstopo:routepoint_id>
				</extensions>
			</trkpt>
			<trkpt lat="47.0087691626" lon="7.4610576163">
				<ele>562.6</ele>
				<time>2021-04-12T09:54:05+02:00</time>
				<extensions>
					<swisstopo:routepoint_id>832662507</swisstopo:routepoint_id>
				</extensions>
			</trkpt>
			<trkpt lat="47.0088798659" lon="7.4610190045">
				<ele>562.6</ele>
				<time>2021-04-12T09:54:06+02:00</time>
				<extensions>
					<swisstopo:routepoint_id>1555311297</swisstopo:routepoint_id>
				</extensions>
			</trkpt>
			<trkpt lat="47.0089893188" lon="7.4609823308">
				<ele>562.6</ele>
				<time>2021-04-12T09:54:07+02:00</time>
				<extensions>
					<swisstopo:routepoint_id>946017395</swisstopo:routepoint_id>
				</extensions>
			</trkpt>
			<trkpt lat="47.0090971073" lon="7.4609482059">
				<ele>562.7</ele>
				<time>2021-04-12T09:54:08+02:00</time>
				<extensions>
					<swisstopo:routepoint_id>1892919024</swisstopo:routepoint_id>
				</extensions>
			</trkpt>
			<trkpt lat="47.0092028552" lon="7.4609165751">
				<ele>562.7</ele>
				<time>2021-04-12T09:54:09+02:00</time>
				<extensions>
					<swisstopo:routepoint_id>1467289710</swisstopo:routepoint_id>
				</extensions>
			</trkpt>
			<trkpt lat="47.0093061136" lon="7.4608862675">
				<ele>562.8</ele>
				<time>2021-04-12T09:54:10+02:00</time>
				<extensions>
					<swisstopo:routepoint_id>1183437469</swisstopo:routepoint_id>
				</extensions>
			</trkpt>
			<trkpt lat="47.0094065377" lon="7.4608565412">
				<ele>562.9</ele>
				<time>2021-04-12T09:54:11+02:00</time>
				<extensions>
					<swisstopo:routepoint_id>40002969</swisstopo:routepoint_id>
				</extensions>
			</trkpt>
			<trkpt lat="47.0095046593" lon="7.4608269297">
				<ele>563.0</ele>
				<time>2021-04-12T09:54:12+02:00</time>
				<extensions>
					<swisstopo:routepoint_id>167518472</swisstopo:routepoint_id>
				</extensions>
			</trkpt>
			<trkpt lat="47.0096009671" lon="7.4607971882">
				<ele>563.1</ele>
				<time>2021-04-12T09:54:13+02:00</time>
				<extensions>
					<swisstopo:routepoint_id>131897687</swisstopo:routepoint_id>
				</extensions>
			</trkpt>
			<trkpt lat="47.0096956907" lon="7.4607674782">
				<ele>563.3</ele>
				<time>2021-04-12T09:54:14+02:00</time>
				<extensions>
					<swisstopo:routepoint_id>601301705</swisstopo:routepoint_id>
				</extensions>
			</trkpt>
			<trkpt lat="47.0097890184" lon="7.4607376802">
				<ele>563.4</ele>
				<time>2021-04-12T09:54:15+02:00</time>
				<extensions>
					<swisstopo:routepoint_id>19713153</swisstopo:routepoint_id>
				</extensions>
			</trkpt>
			<trkpt lat="47.0098812665" lon="7.4607075625">
				<ele>563.6</ele>
				<time>2021-04-12T09:54:16+02:00</time>
				<extensions>
					<swisstopo:routepoint_id>606480833</swisstopo:routepoint_id>
				</extensions>
			</trkpt>
			<trkpt lat="47.0099725865" lon="7.4606768744">
				<ele>563.7</ele>
				<time>2021-04-12T09:54:17+02:00</time>
				<extensions>
					<swisstopo:routepoint_id>1165971569</swisstopo:routepoint_id>
				</extensions>
			</trkpt>
			<trkpt lat="47.0100621082" lon="7.4606432277">
				<ele>563.9</ele>
				<time>2021-04-12T09:54:18+02:00</time>
				<extensions>
					<swisstopo:routepoint_id>695881308</swisstopo:routepoint_id>
				</extensions>
			</trkpt>
			<trkpt lat="47.0101502160" lon="7.4606053607">
				<ele>564.1</ele>
				<time>2021-04-12T09:54:19+02:00</time>
				<extensions>
					<swisstopo:routepoint_id>481201994</swisstopo:routepoint_id>
				</extensions>
			</trkpt>
			<trkpt lat="47.0102377246" lon="7.4605634686">
				<ele>564.2</ele>
				<time>2021-04-12T09:54:20+02:00</time>
				<extensions>
					<swisstopo:routepoint_id>138498556</swisstopo:routepoint_id>
				</extensions>
			</trkpt>
			<trkpt lat="47.0103257099" lon="7.4605205039">
				<ele>564.3</ele>
				<time>2021-04-12T09:54:21+02:00</time>
				<extensions>
					<swisstopo:routepoint_id>2020440991</swisstopo:routepoint_id>
				</extensions>
			</trkpt>
			<trkpt lat="47.0104150380" lon="7.4604785839">
				<ele>564.4</ele>
				<time>2021-04-12T09:54:22+02:00</time>
				<extensions>
					<swisstopo:routepoint_id>1540309373</swisstopo:routepoint_id>
				</extensions>
			</trkpt>
			<trkpt lat="47.0105061237" lon="7.4604379847">
				<ele>564.5</ele>
				<time>2021-04-12T09:54:23+02:00</time>
				<extensions>
					<swisstopo:routepoint_id>64267426</swisstopo:routepoint_id>
				</extensions>
			</trkpt>
			<trkpt lat="47.0105988727" lon="7.4603984053">
				<ele>564.6</ele>
				<time>2021-04-12T09:54:24+02:00</time>
				<extensions>
					<swisstopo:routepoint_id>2105837988</swisstopo:routepoint_id>
				</extensions>
			</trkpt>
			<trkpt lat="47.0106936291" lon="7.4603598373">
				<ele>564.7</ele>
				<time>2021-04-12T09:54:25+02:00</time>
				<extensions>
					<swisstopo:routepoint_id>141078109</swisstopo:routepoint_id>
				</extensions>
			</trkpt>
			<trkpt lat="47.0107905054" lon="7.4603218121">
				<ele>564.7</ele>
				<time>2021-04-12T09:54:26+02:00</time>
				<extensions>
					<swisstopo:routepoint_id>277831675</swisstopo:routepoint_id>
				</extensions>
			</trkpt>
			<trkpt lat="47.0108897065" lon="7.4602838489">
				<ele>564.8</ele>
				<time>2021-04-12T09:54:27+02:00</time>
				<extensions>
					<swisstopo:routepoint_id>887513147</swisstopo:routepoint_id>
				</extensions>
			</trkpt>
			<trkpt lat="47.0109912498" lon="7.4602456668">
				<ele>564.9</ele>
				<time>2021-04-12T09:54:28+02:00</time>
				<extensions>
					<swisstopo:routepoint_id>12049567</swisstopo:routepoint_id>
				</extensions>
			</trkpt>
			<trkpt lat="47.0110949143" lon="7.4602071032">
				<ele>565.0</ele>
				<time>2021-04-12T09:54:29+02:00</time>
				<extensions>
					<swisstopo:routepoint_id>653609751</swisstopo:routepoint_id>
				</extensions>
			</trkpt>
			<trkpt lat="47.0112006864" lon="7.4601681617">
				<ele>565.1</ele>
				<time>2021-04-12T09:54:30+02:00</time>
				<extensions>
					<swisstopo:routepoint_id>840230652</swisstopo:routepoint_id>
				</extensions>
			</trkpt>
			<trkpt lat="47.0113083350" lon="7.4601288846">
				<ele>565.3</ele>
				<time>2021-04-12T09:54:31+02:00</time>
				<extensions>
					<swisstopo:routepoint_id>2051589139</swisstopo:routepoint_id>
				</extensions>
			</trkpt>
			<trkpt lat="47.0114174053" lon="7.4600889293">
				<ele>565.4</ele>
				<time>2021-04-12T09:54:32+02:00</time>
				<extensions>
					<swisstopo:routepoint_id>1061222941</swisstopo:routepoint_id>
				</extensions>
			</trkpt>
			<trkpt lat="47.0115273014" lon="7.4600485385">
				<ele>565.6</ele>
				<time>2021-04-12T09:54:33+02:00</time>
				<extensions>
					<swisstopo:routepoint_id>1122281052</swisstopo:routepoint_id>
				</extensions>
			</trkpt>
			<trkpt lat="47.0116378802" lon="7.4600078471">
				<ele>565.8</ele>
				<time>2021-04-12T09:54:34+02:00</time>
				<extensions>
					<swisstopo:routepoint_id>828769363</swisstopo:routepoint_id>
				</extensions>
			</trkpt>
			<trkpt lat="47.0117485559" lon="7.4599657764">
				<ele>566.0</ele>
				<time>2021-04-12T09:54:35+02:00</time>
				<extensions>
					<swisstopo:routepoint_id>547749499</swisstopo:routepoint_id>
				</extensions>
			</trkpt>
			<trkpt lat="47.0118588903" lon="7.4599214959">
				<ele>566.2</ele>
				<time>2021-04-12T09:54:36+02:00</time>
				<extensions>
					<swisstopo:routepoint_id>1910918651</swisstopo:routepoint_id>
				</extensions>
			</trkpt>
			<trkpt lat="47.0119684605" lon="7.4598747686">
				<ele>566.4</ele>
				<time>2021-04-12T09:54:37+02:00</time>
				<extensions>
					<swisstopo:routepoint_id>1191826472</swisstopo:routepoint_id>
				</extensions>
			</trkpt>
			<trkpt lat="47.0120768648" lon="7.4598253078">
				<ele>566.6</ele>
				<time>2021-04-12T09:54:38+02:00</time>
				<extensions>
					<swisstopo:routepoint_id>1447539335</swisstopo:routepoint_id>
				</extensions>
			</trkpt>
			<trkpt lat="47.0121835202" lon="7.4597727326">
				<ele>566.7</ele>
				<time>2021-04-12T09:54:39+02:00</time>
				<extensions>
					<swisstopo:routepoint_id>2098850129</swisstopo:routepoint_id>
				</extensions>
			</trkpt>
			<trkpt lat="47.0122875174" lon="7.4597168598">
				<ele>566.9</ele>
				<time>2021-04-12T09:54:40+02:00</time>
				<extensions>
					<swisstopo:routepoint_id>807732481</swisstopo:routepoint_id>
				</extensions>
			</trkpt>
			<trkpt lat="47.0123887491" lon="7.4596574866">
				<ele>567.1</ele>
				<time>2021-04-12T09:54:41+02:00</time>
				<extensions>
					<swisstopo:routepoint_id>1315675480</swisstopo:routepoint_id>
				</extensions>
			</trkpt>
			<trkpt lat="47.0124871650" lon="7.4595947663">
				<ele>567.3</ele>
				<time>2021-04-12T09:54:42+02:00</time>
				<extensions>
					<swisstopo:routepoint_id>2066162848</swisstopo:routepoint_id>
				</extensions>
			</trkpt>
			<trkpt lat="47.0125827055" lon="7.4595288625">
				<ele>567.4</ele>
				<time>2021-04-12T09:54:43+02:00</time>
				<extensions>
					<swisstopo:routepoint_id>1188414346</swisstopo:routepoint_id>
				</extensions>
			</trkpt>
			<trkpt lat="47.0126755454" lon="7.4594596406">
				<ele>567.6</ele>
				<time>2021-04-12T09:54:44+02:00</time>
				<extensions>
					<swisstopo:routepoint_id>2081996122</swisstopo:routepoint_id>
				</extensions>
			</trkpt>
			<trkpt lat="47.0127659553" lon="7.4593870770">
				<ele>567.7</ele>
				<time>2021-04-12T09:54:45+02:00</time>
				<extensions>
					<swisstopo:routepoint_id>1010278236</swisstopo:routepoint_id>
				</extensions>
			</trkpt>
			<trkpt lat="47.0128548738" lon="7.4593109321">
				<ele>567.8</ele>
				<time>2021-04-12T09:54:46+02:00</time>
				<extensions>
					<swisstopo:routepoint_id>1740599270</swisstopo:routepoint_id>
				</extensions>
			</trkpt>
			<trkpt lat="47.0129425950" lon="7.4592307879">
				<ele>567.9</ele>
				<time>2021-04-12T09:54:47+02:00</time>
				<extensions>
					<swisstopo:routepoint_id>1229691456</swisstopo:routepoint_id>
				</extensions>
			</trkpt>
			<trkpt lat="47.0130291571" lon="7.4591465521">
				<ele>567.9</ele>
				<time>2021-04-12T09:54:48+02:00</time>
				<extensions>
					<swisstopo:routepoint_id>41682264</swisstopo:routepoint_id>
				</extensions>
			</trkpt>
			<trkpt lat="47.0131150249" lon="7.4590587589">
				<ele>567.9</ele>
				<time>2021-04-12T09:54:49+02:00</time>
				<extensions>
					<swisstopo:routepoint_id>474142126</swisstopo:routepoint_id>
				</extensions>
			</trkpt>
			<trkpt lat="47.0132001747" lon="7.4589679704">
				<ele>567.9</ele>
				<time>2021-04-12T09:54:50+02:00</time>
				<extensions>
					<swisstopo:routepoint_id>1742381312</swisstopo:routepoint_id>
				</extensions>
			</trkpt>
			<trkpt lat="47.0132848718" lon="7.4588750493">
				<ele>567.8</ele>
				<time>2021-04-12T09:54:51+02:00</time>
				<extensions>
					<swisstopo:routepoint_id>1115700292</swisstopo:routepoint_id>
				</extensions>
			</trkpt>
			<trkpt lat="47.0133696125" lon="7.4587806049">
				<ele>567.7</ele>
				<time>2021-04-12T09:54:52+02:00</time>
				<extensions>
					<swisstopo:routepoint_id>1895085687</swisstopo:routepoint_id>
				</extensions>
			</trkpt>
			<trkpt lat="47.0134542121" lon="7.4586859428">
				<ele>567.5</ele>
				<time>2021-04-12T09:54:53+02:00</time>
				<extensions>
					<swisstopo:routepoint_id>1375172752</swisstopo:routepoint_id>
				</extensions>
			</trkpt>
			<trkpt lat="47.0135386755" lon="7.4585913286">
				<ele>567.4</ele>
				<time>2021-04-12T09:54:54+02:00</time>
				<extensions>
					<swisstopo:routepoint_id>1309433850</swisstopo:routepoint_id>
				</extensions>
			</trkpt>
			<trkpt lat="47.0136228603" lon="7.4584972267">
				<ele>567.2</ele>
				<time>2021-04-12T09:54:55+02:00</time>
				<extensions>
					<swisstopo:routepoint_id>242302494</swisstopo:routepoint_id>
				</extensions>
			</trkpt>
			<trkpt lat="47.0137069652" lon="7.4584041559">
				<ele>567.0</ele>
				<time>2021-04-12T09:54:56+02:00</time>
				<extensions>
					<swisstopo:routepoint_id>749021946</swisstopo:routepoint_id>
				</extensions>
			</trkpt>
			<trkpt lat="47.0137907088" lon="7.4583124199">
				<ele>566.8</ele>
				<time>2021-04-12T09:54:57+02:00</time>
				<extensions>
					<swisstopo:routepoint_id>262707708</swisstopo:routepoint_id>
				</extensions>
			</trkpt>
			<trkpt lat="47.0138742878" lon="7.4582222613">
				<ele>566.6</ele>
				<time>2021-04-12T09:54:58+02:00</time>
				<extensions>
					<swisstopo:routepoint_id>102070124</swisstopo:routepoint_id>
				</extensions>
			</trkpt>
			<trkpt lat="47.0139574613" lon="7.4581335361">
				<ele>566.4</ele>
				<time>2021-04-12T09:54:59+02:00</time>
				<extensions>
					<swisstopo:routepoint_id>1800623762</swisstopo:routepoint_id>
				</extensions>
			</trkpt>
			<trkpt lat="47.0140401444" lon="7.4580461014">
				<ele>566.2</ele>
				<time>2021-04-12T09:55:00+02:00</time>
				<extensions>
					<swisstopo:routepoint_id>744014410</swisstopo:routepoint_id>
				</extensions>
			</trkpt>
			<trkpt lat="47.0141223937" lon="7.4579596161">
				<ele>565.9</ele>
				<time>2021-04-12T09:55:01+02:00</time>
				<extensions>
					<swisstopo:routepoint_id>2000396036</swisstopo:routepoint_id>
				</extensions>
			</trkpt>
			<trkpt lat="47.0142046141" lon="7.4578737300">
				<ele>565.7</ele>
				<time>2021-04-12T09:55:02+02:00</time>
				<extensions>
					<swisstopo:routepoint_id>1799683267</swisstopo:routepoint_id>
				</extensions>
			</trkpt>
			<trkpt lat="47.0142871017" lon="7.4577884089">
				<ele>565.4</ele>
				<time>2021-04-12T09:55:03+02:00</time>
				<extensions>
					<swisstopo:routepoint_id>2116984121</swisstopo:routepoint_id>
				</extensions>
			</trkpt>
			<trkpt lat="47.0143696061" lon="7.4577033420">
				<ele>565.1</ele>
				<time>2021-04-12T09:55:04+02:00</time>
				<extensions>
					<swisstopo:routepoint_id>643058151</swisstopo:routepoint_id>
				</extensions>
			</trkpt>
			<trkpt lat="47.0144519724" lon="7.4576188734">
				<ele>564.9</ele>
				<time>2021-04-12T09:55:05+02:00</time>
				<extensions>
					<swisstopo:routepoint_id>1740632153</swisstopo:routepoint_id>
				</extensions>
			</trkpt>
			<trkpt lat="47.0145340279" lon="7.4575349587">
				<ele>564.7</ele>
				<time>2021-04-12T09:55:06+02:00</time>
				<extensions>
					<swisstopo:routepoint_id>1782356037</swisstopo:routepoint_id>
				</extensions>
			</trkpt>
			<trkpt lat="47.0146155911" lon="7.4574514107">
				<ele>564.4</ele>
				<time>2021-04-12T09:55:07+02:00</time>
				<extensions>
					<swisstopo:routepoint_id>808521856</swisstopo:routepoint_id>
				</extensions>
			</trkpt>
			<trkpt lat="47.0146966141" lon="7.4573681688">
				<ele>564.3</ele>
				<time>2021-04-12T09:55:08+02:00</time>
				<extensions>
					<swisstopo:routepoint_id>1697799223</swisstopo:routepoint_id>
				</extensions>
			</trkpt>
			<trkpt lat="47.0147773674" lon="7.4572855384">
				<ele>564.1</ele>
				<time>2021-04-12T09:55:09+02:00</time>
				<extensions>
					<swisstopo:routepoint_id>1296323272</swisstopo:routepoint_id>
				</extensions>
			</trkpt>
			<trkpt lat="47.0148578350" lon="7.4572034212">
				<ele>563.9</ele>
				<time>2021-04-12T09:55:10+02:00</time>
				<extensions>
					<swisstopo:routepoint_id>1083633689</swisstopo:routepoint_id>
				</extensions>
			</trkpt>
			<trkpt lat="47.0149377149" lon="7.4571220665">
				<ele>563.8</ele>
				<time>2021-04-12T09:55:11+02:00</time>
				<extensions>
					<swisstopo:routepoint_id>1970084463</swisstopo:routepoint_id>
				</extensions>
			</trkpt>
			<trkpt lat="47.0150167266" lon="7.4570417542">
				<ele>563.7</ele>
				<time>2021-04-12T09:55:12+02:00</time>
				<extensions>
					<swisstopo:routepoint_id>1306700195</swisstopo:routepoint_id>
				</extensions>
			</trkpt>
			<trkpt lat="47.0150944311" lon="7.4569629485">
				<ele>563.5</ele>
				<time>2021-04-12T09:55:13+02:00</time>
				<extensions>
					<swisstopo:routepoint_id>1542403143</swisstopo:routepoint_id>
				</extensions>
			</trkpt>
			<trkpt lat="47.0151703622" lon="7.4568861811">
				<ele>563.4</ele>
				<time>2021-04-12T09:55:14+02:00</time>
				<extensions>
					<swisstopo:routepoint_id>894521464</swisstopo:routepoint_id>
				</extensions>
			</trkpt>
			<trkpt lat="47.0152443525" lon="7.4568120208">
				<ele>563.4</ele>
				<time>2021-04-12T09:55:15+02:00</time>
				<extensions>
					<swisstopo:routepoint_id>1836716448</swisstopo:routepoint_id>
				</extensions>
			</trkpt>
			<trkpt lat="47.0153161798" lon="7.4567411927">
				<ele>563.3</ele>
				<time>2021-04-12T09:55:16+02:00</time>
				<extensions>
					<swisstopo:routepoint_id>1763399558</swisstopo:routepoint_id>
				</extensions>
			</trkpt>
			<trkpt lat="47.0153856157" lon="7.4566751497">
				<ele>563.3</ele>
				<time>2021-04-12T09:55:17+02:00</time>
				<extensions>
					<swisstopo:routepoint_id>34559059</swisstopo:routepoint_id>
				</extensions>
			</trkpt>
			<trkpt lat="47.0154516262" lon="7.4566153807">
				<ele>563.2</ele>
				<time>2021-04-12T09:55:18+02:00</time>
				<extensions>
					<swisstopo:routepoint_id>1013519923</swisstopo:routepoint_id>
				</extensions>
			</trkpt>
			<trkpt lat="47.0155128713" lon="7.4565642722">
				<ele>563.2</ele>
				<time>2021-04-12T09:55:19+02:00</time>
				<extensions>
					<swisstopo:routepoint_id>389057857</swisstopo:routepoint_id>
				</extensions>
			</trkpt>
			<trkpt lat="47.0155679749" lon="7.4565226183">
				<ele>563.2</ele>
				<time>2021-04-12T09:55:20+02:00</time>
				<extensions>
					<swisstopo:routepoint_id>1955181131</swisstopo:routepoint_id>
				</extensions>
			</trkpt>
			<trkpt lat="47.0156175386" lon="7.4564918253">
				<ele>563.3</ele>
				<time>2021-04-12T09:55:21+02:00</time>
				<extensions>
					<swisstopo:routepoint_id>2081985970</swisstopo:routepoint_id>
				</extensions>
			</trkpt>
			<trkpt lat="47.0156622161" lon="7.4564707489">
				<ele>563.3</ele>
				<time>2021-04-12T09:55:22+02:00</time>
				<extensions>
					<swisstopo:routepoint_id>839653572</swisstopo:routepoint_id>
				</extensions>
			</trkpt>
			<trkpt lat="47.0157007956" lon="7.4564578580">
				<ele>563.3</ele>
				<time>2021-04-12T09:55:23+02:00</time>
				<extensions>
					<swisstopo:routepoint_id>942540167</swisstopo:routepoint_id>
				</extensions>
			</trkpt>
			<trkpt lat="47.0157315545" lon="7.4564511538">
				<ele>563.4</ele>
				<time>2021-04-12T09:55:24+02:00</time>
				<extensions>
					<swisstopo:routepoint_id>1433206497</swisstopo:routepoint_id>
				</extensions>
			</trkpt>
			<trkpt lat="47.0157533453" lon="7.4564496639">
				<ele>563.5</ele>
				<time>2021-04-12T09:55:25+02:00</time>
				<extensions>
					<swisstopo:routepoint_id>1725010327</swisstopo:routepoint_id>
				</extensions>
			</trkpt>
			<trkpt lat="47.0157671814" lon="7.4564522364">
				<ele>563.5</ele>
				<time>2021-04-12T09:55:26+02:00</time>
				<extensions>
					<swisstopo:routepoint_id>1219331389</swisstopo:routepoint_id>
				</extensions>
			</trkpt>
			<trkpt lat="47.0157757292" lon="7.4564571572">
				<ele>563.6</ele>
				<time>2021-04-12T09:55:27+02:00</time>
				<extensions>
					<swisstopo:routepoint_id>2013695249</swisstopo:routepoint_id>
				</extensions>
			</trkpt>
			<trkpt lat="47.0157818437" lon="7.4564608908">
				<ele>563.6</ele>
				<time>2021-04-12T09:55:28+02:00</time>
				<extensions>
					<swisstopo:routepoint_id>1981256870</swisstopo:routepoint_id>
				</extensions>
			</trkpt>
			<trkpt lat="47.0157874782" lon="7.4564600274">
				<ele>563.6</ele>
				<time>2021-04-12T09:55:29+02:00</time>
				<extensions>
					<swisstopo:routepoint_id>102783708</swisstopo:routepoint_id>
				</extensions>
			</trkpt>
			<trkpt lat="47.0157941608" lon="7.4564521519">
				<ele>563.7</ele>
				<time>2021-04-12T09:55:30+02:00</time>
				<extensions>
					<swisstopo:routepoint_id>908928168</swisstopo:routepoint_id>
				</extensions>
			</trkpt>
			<trkpt lat="47.0158031620" lon="7.4564356747">
				<ele>563.7</ele>
				<time>2021-04-12T09:55:31+02:00</time>
				<extensions>
					<swisstopo:routepoint_id>1304538465</swisstopo:routepoint_id>
				</extensions>
			</trkpt>
			<trkpt lat="47.0158157460" lon="7.4564098521">
				<ele>563.7</ele>
				<time>2021-04-12T09:55:32+02:00</time>
				<extensions>
					<swisstopo:routepoint_id>1717429032</swisstopo:routepoint_id>
				</extensions>
			</trkpt>
			<trkpt lat="47.0158329685" lon="7.4563745312">
				<ele>563.7</ele>
				<time>2021-04-12T09:55:33+02:00</time>
				<extensions>
					<swisstopo:routepoint_id>502041497</swisstopo:routepoint_id>
				</extensions>
			</trkpt>
			<trkpt lat="47.0158559773" lon="7.4563302038">
				<ele>563.6</ele>
				<time>2021-04-12T09:55:34+02:00</time>
				<extensions>
					<swisstopo:routepoint_id>348191016</swisstopo:routepoint_id>
				</extensions>
			</trkpt>
			<trkpt lat="47.0158859450" lon="7.4562774597">
				<ele>563.6</ele>
				<time>2021-04-12T09:55:35+02:00</time>
				<extensions>
					<swisstopo:routepoint_id>153467837</swisstopo:routepoint_id>
				</extensions>
			</trkpt>
			<trkpt lat="47.0159231920" lon="7.4562177171">
				<ele>563.6</ele>
				<time>2021-04-12T09:55:36+02:00</time>
				<extensions>
					<swisstopo:routepoint_id>206076412</swisstopo:routepoint_id>
				</extensions>
			</trkpt>
			<trkpt lat="47.0159674725" lon="7.4561523032">
				<ele>563.6</ele>
				<time>2021-04-12T09:55:37+02:00</time>
				<extensions>
					<swisstopo:routepoint_id>1782617520</swisstopo:routepoint_id>
				</extensions>
			</trkpt>
			<trkpt lat="47.0160183801" lon="7.4560822544">
				<ele>563.5</ele>
				<time>2021-04-12T09:55:38+02:00</time>
				<extensions>
					<swisstopo:routepoint_id>908299343</swisstopo:routepoint_id>
				</extensions>
			</trkpt>
			<trkpt lat="47.0160752445" lon="7.4560083693">
				<ele>563.5</ele>
				<time>2021-04-12T09:55:39+02:00</time>
				<extensions>
					<swisstopo:routepoint_id>1473294925</swisstopo:routepoint_id>
				</extensions>
			</trkpt>
			<trkpt lat="47.0161373375" lon="7.4559314800">
				<ele>563.4</ele>
				<time>2021-04-12T09:55:40+02:00</time>
				<extensions>
					<swisstopo:routepoint_id>1181354565</swisstopo:routepoint_id>
				</extensions>
			</trkpt>
			<trkpt lat="47.0162037887" lon="7.4558521149">
				<ele>563.3</ele>
				<time>2021-04-12T09:55:41+02:00</time>
				<extensions>
					<swisstopo:routepoint_id>1539857440</swisstopo:routepoint_id>
				</extensions>
			</trkpt>
			<trkpt lat="47.0162740257" lon="7.4557709585">
				<ele>563.3</ele>
				<time>2021-04-12T09:55:42+02:00</time>
				<extensions>
					<swisstopo:routepoint_id>1058564083</swisstopo:routepoint_id>
				</extensions>
			</trkpt>
			<trkpt lat="47.0163473846" lon="7.4556889926">
				<ele>563.2</ele>
				<time>2021-04-12T09:55:43+02:00</time>
				<extensions>
					<swisstopo:routepoint_id>1532011233</swisstopo:routepoint_id>
				</extensions>
			</trkpt>
			<trkpt lat="47.0164235299" lon="7.4556064364">
				<ele>563.1</ele>
				<time>2021-04-12T09:55:44+02:00</time>
				<extensions>
					<swisstopo:routepoint_id>183865501</swisstopo:routepoint_id>
				</extensions>
			</trkpt>
			<trkpt lat="47.0165024566" lon="7.4555228942">
				<ele>563.0</ele>
				<time>2021-04-12T09:55:45+02:00</time>
				<extensions>
					<swisstopo:routepoint_id>2145990921</swisstopo:routepoint_id>
				</extensions>
			</trkpt>
			<trkpt lat="47.0165840753" lon="7.4554379395">
				<ele>562.9</ele>
				<time>2021-04-12T09:55:46+02:00</time>
				<extensions>
					<swisstopo:routepoint_id>681557882</swisstopo:routepoint_id>
				</extensions>
			</trkpt>
			<trkpt lat="47.0166682336" lon="7.4553511723">
				<ele>562.8</ele>
				<time>2021-04-12T09:55:47+02:00</time>
				<extensions>
					<swisstopo:routepoint_id>265549676</swisstopo:routepoint_id>
				</extensions>
			</trkpt>
			<trkpt lat="47.0167548691" lon="7.4552623541">
				<ele>562.7</ele>
				<time>2021-04-12T09:55:48+02:00</time>
				<extensions>
					<swisstopo:routepoint_id>622386066</swisstopo:routepoint_id>
				</extensions>
			</trkpt>
			<trkpt lat="47.0168439933" lon="7.4551716113">
				<ele>562.5</ele>
				<time>2021-04-12T09:55:49+02:00</time>
				<extensions>
					<swisstopo:routepoint_id>49766725</swisstopo:routepoint_id>
				</extensions>
			</trkpt>
			<trkpt lat="47.0169356209" lon="7.4550793692">
				<ele>562.3</ele>
				<time>2021-04-12T09:55:50+02:00</time>
				<extensions>
					<swisstopo:routepoint_id>1058208392</swisstopo:routepoint_id>
				</extensions>
			</trkpt>
			<trkpt lat="47.0170295527" lon="7.4549857802">
				<ele>562.1</ele>
				<time>2021-04-12T09:55:51+02:00</time>
				<extensions>
					<swisstopo:routepoint_id>1996363537</swisstopo:routepoint_id>
				</extensions>
			</trkpt>
			<trkpt lat="47.0171251287" lon="7.4548910821">
				<ele>561.9</ele>
				<time>2021-04-12T09:55:52+02:00</time>
				<extensions>
					<swisstopo:routepoint_id>597465631</swisstopo:routepoint_id>
				</extensions>
			</trkpt>
			<trkpt lat="47.0172220074" lon="7.4547960173">
				<ele>561.6</ele>
				<time>2021-04-12T09:55:53+02:00</time>
				<extensions>
					<swisstopo:routepoint_id>2118810492</swisstopo:routepoint_id>
				</extensions>
			</trkpt>
			<trkpt lat="47.0173196858" lon="7.4547004012">
				<ele>561.4</ele>
				<time>2021-04-12T09:55:54+02:00</time>
				<extensions>
					<swisstopo:routepoint_id>1274104490</swisstopo:routepoint_id>
				</extensions>
			</trkpt>
			<trkpt lat="47.0174176480" lon="7.4546043377">
				<ele>561.1</ele>
				<time>2021-04-12T09:55:55+02:00</time>
				<extensions>
					<swisstopo:routepoint_id>1314719193</swisstopo:routepoint_id>
				</extensions>
			</trkpt>
			<trkpt lat="47.0175153814" lon="7.4545081146">
				<ele>560.9</ele>
				<time>2021-04-12T09:55:56+02:00</time>
				<extensions>
					<swisstopo:routepoint_id>1026232768</swisstopo:routepoint_id>
				</extensions>
			</trkpt>
			<trkpt lat="47.0176126927" lon="7.4544120762">
				<ele>560.6</ele>
				<time>2021-04-12T09:55:57+02:00</time>
				<extensions>
					<swisstopo:routepoint_id>1452962719</swisstopo:routepoint_id>
				</extensions>
			</trkpt>
			<trkpt lat="47.0177093853" lon="7.4543157004">
				<ele>560.4</ele>
				<time>2021-04-12T09:55:58+02:00</time>
				<extensions>
					<swisstopo:routepoint_id>907868196</swisstopo:routepoint_id>
				</extensions>
			</trkpt>
			<trkpt lat="47.0178053638" lon="7.4542192562">
				<ele>560.1</ele>
				<time>2021-04-12T09:55:59+02:00</time>
				<extensions>
					<swisstopo:routepoint_id>669458237</swisstopo:routepoint_id>
				</extensions>
			</trkpt>
			<trkpt lat="47.0179008490" lon="7.4541229599">
				<ele>559.8</ele>
				<time>2021-04-12T09:56:00+02:00</time>
				<extensions>
					<swisstopo:routepoint_id>917762626</swisstopo:routepoint_id>
				</extensions>
			</trkpt>
			<trkpt lat="47.0179961058" lon="7.4540267853">
				<ele>559.6</ele>
				<time>2021-04-12T09:56:01+02:00</time>
				<extensions>
					<swisstopo:routepoint_id>1608902428</swisstopo:routepoint_id>
				</extensions>
			</trkpt>
			<trkpt lat="47.0180910241" lon="7.4539312269">
				<ele>559.4</ele>
				<time>2021-04-12T09:56:02+02:00</time>
				<extensions>
					<swisstopo:routepoint_id>1856508019</swisstopo:routepoint_id>
				</extensions>
			</trkpt>
			<trkpt lat="47.0181855654" lon="7.4538361724">
				<ele>559.1</ele>
				<time>2021-04-12T09:56:03+02:00</time>
				<extensions>
					<swisstopo:routepoint_id>1540368070</swisstopo:routepoint_id>
				</extensions>
			</trkpt>
			<trkpt lat="47.0182793076" lon="7.4537415126">
				<ele>558.9</ele>
				<time>2021-04-12T09:56:04+02:00</time>
				<extensions>
					<swisstopo:routepoint_id>1050787905</swisstopo:routepoint_id>
				</extensions>
			</trkpt>
			<trkpt lat="47.0183718651" lon="7.4536475946">
				<ele>558.7</ele>
				<time>2021-04-12T09:56:05+02:00</time>
				<extensions>
					<swisstopo:routepoint_id>1834290054</swisstopo:routepoint_id>
				</extensions>
			</trkpt>
			<trkpt lat="47.0184630031" lon="7.4535547991">
				<ele>558.4</ele>
				<time>2021-04-12T09:56:06+02:00</time>
				<extensions>
					<swisstopo:routepoint_id>1785184893</swisstopo:routepoint_id>
				</extensions>
			</trkpt>
			<trkpt lat="47.0185526753" lon="7.4534637028">
				<ele>558.2</ele>
				<time>2021-04-12T09:56:07+02:00</time>
				<extensions>
					<swisstopo:routepoint_id>1108464414</swisstopo:routepoint_id>
				</extensions>
			</trkpt>
			<trkpt lat="47.0186406204" lon="7.4533748392">
				<ele>558.0</ele>
				<time>2021-04-12T09:56:08+02:00</time>
				<extensions>
					<swisstopo:routepoint_id>540768373</swisstopo:routepoint_id>
				</extensions>
			</trkpt>
			<trkpt lat="47.0187262913" lon="7.4532889604">
				<ele>557.8</ele>
				<time>2021-04-12T09:56:09+02:00</time>
				<extensions>
					<swisstopo:routepoint_id>543250907</swisstopo:routepoint_id>
				</extensions>
			</trkpt>
			<trkpt lat="47.0188090747" lon="7.4532062047">
				<ele>557.6</ele>
				<time>2021-04-12T09:56:10+02:00</time>
				<extensions>
					<swisstopo:routepoint_id>1465010552</swisstopo:routepoint_id>
				</extensions>
			</trkpt>
			<trkpt lat="47.0188885944" lon="7.4531265989">
				<ele>557.4</ele>
				<time>2021-04-12T09:56:11+02:00</time>
				<extensions>
					<swisstopo:routepoint_id>1532334609</swisstopo:routepoint_id>
				</extensions>
			</trkpt>
			<trkpt lat="47.0189641196" lon="7.4530501117">
				<ele>557.2</ele>
				<time>2021-04-12T09:56:12+02:00</time>
				<extensions>
					<swisstopo:routepoint_id>1323878639</swisstopo:routepoint_id>
				</extensions>
			</trkpt>
			<trkpt lat="47.0190347941" lon="7.4529775210">
				<ele>557.1</ele>
				<time>2021-04-12T09:56:13+02:00</time>
				<extensions>
					<swisstopo:routepoint_id>350219106</swisstopo:routepoint_id>
				</extensions>
			</trkpt>
			<trkpt lat="47.0191011795" lon="7.4529096640">
				<ele>556.9</ele>
				<time>2021-04-12T09:56:14+02:00</time>
				<extensions>
					<swisstopo:routepoint_id>2027321762</swisstopo:routepoint_id>
				</extensions>
			</trkpt>
			<trkpt lat="47.0191636310" lon="7.4528468405">
				<ele>556.6</ele>
				<time>2021-04-12T09:56:15+02:00</time>
				<extensions>
					<swisstopo:routepoint_id>1221310632</swisstopo:routepoint_id>
				</extensions>
			</trkpt>
			<trkpt lat="47.0192222763" lon="7.4527893482">
				<ele>556.2</ele>
				<time>2021-04-12T09:56:16+02:00</time>
				<extensions>
					<swisstopo:routepoint_id>919093998</swisstopo:routepoint_id>
				</extensions>
			</trkpt>
			<trkpt lat="47.0192793290" lon="7.4527366501">
				<ele>555.9</ele>
				<time>2021-04-12T09:56:17+02:00</time>
				<extensions>
					<swisstopo:routepoint_id>362951515</swisstopo:routepoint_id>
				</extensions>
			</trkpt>
			<trkpt lat="47.0193351520" lon="7.4526873547">
				<ele>555.6</ele>
				<time>2021-04-12T09:56:18+02:00</time>
				<extensions>
					<swisstopo:routepoint_id>1272555125</swisstopo:routepoint_id>
				</extensions>
			</trkpt>
			<trkpt lat="47.0193906029" lon="7.4526399819">
				<ele>555.3</ele>
				<time>2021-04-12T09:56:19+02:00</time>
				<extensions>
					<swisstopo:routepoint_id>1044345402</swisstopo:routepoint_id>
				</extensions>
			</trkpt>
			<trkpt lat="47.0194457324" lon="7.4525926611">
				<ele>554.9</ele>
				<time>2021-04-12T09:56:20+02:00</time>
				<extensions>
					<swisstopo:routepoint_id>929324483</swisstopo:routepoint_id>
				</extensions>
			</trkpt>
			<trkpt lat="47.0195005455" lon="7.4525439153">
				<ele>554.6</ele>
				<time>2021-04-12T09:56:21+02:00</time>
				<extensions>
					<swisstopo:routepoint_id>508021150</swisstopo:routepoint_id>
				</extensions>
			</trkpt>
			<trkpt lat="47.0195554729" lon="7.4524929343">
				<ele>554.3</ele>
				<time>2021-04-12T09:56:22+02:00</time>
				<extensions>
					<swisstopo:routepoint_id>2063971225</swisstopo:routepoint_id>
				</extensions>
			</trkpt>
			<trkpt lat="47.0196106461" lon="7.4524396382">
				<ele>554.0</ele>
				<time>2021-04-12T09:56:23+02:00</time>
				<extensions>
					<swisstopo:routepoint_id>861028584</swisstopo:routepoint_id>
				</extensions>
			</trkpt>
			<trkpt lat="47.0196651791" lon="7.4523847204">
				<ele>553.8</ele>
				<time>2021-04-12T09:56:24+02:00</time>
				<extensions>
					<swisstopo:routepoint_id>1562597802</swisstopo:routepoint_id>
				</extensions>
			</trkpt>
			<trkpt lat="47.0197167606" lon="7.4523305143">
				<ele>553.6</ele>
				<time>2021-04-12T09:56:25+02:00</time>
				<extensions>
					<swisstopo:routepoint_id>1003739051</swisstopo:routepoint_id>
				</extensions>
			</trkpt>
			<trkpt lat="47.0197639326" lon="7.4522794150">
				<ele>553.4</ele>
				<time>2021-04-12T09:56:26+02:00</time>
				<extensions>
					<swisstopo:routepoint_id>1358182972</swisstopo:routepoint_id>
				</extensions>
			</trkpt>
			<trkpt lat="47.0198062622" lon="7.4522320559">
				<ele>553.3</ele>
				<time>2021-04-12T09:56:27+02:00</time>
				<extensions>
					<swisstopo:routepoint_id>1377526441</swisstopo:routepoint_id>
				</extensions>
			</trkpt>
			<trkpt lat="47.0198441341" lon="7.4521886195">
				<ele>553.2</ele>
				<time>2021-04-12T09:56:28+02:00</time>
				<extensions>
					<swisstopo:routepoint_id>65695580</swisstopo:routepoint_id>
				</extensions>
			</trkpt>
			<trkpt lat="47.0198787851" lon="7.4521484371">
				<ele>553.2</ele>
				<time>2021-04-12T09:56:29+02:00</time>
				<extensions>
					<swisstopo:routepoint_id>339018502</swisstopo:routepoint_id>
				</extensions>
			</trkpt>
			<trkpt lat="47.0199115195" lon="7.4521103764">
				<ele>553.2</ele>
				<time>2021-04-12T09:56:30+02:00</time>
				<extensions>
					<swisstopo:routepoint_id>609847623</swisstopo:routepoint_id>
				</extensions>
			</trkpt>
			<trkpt lat="47.0199446631" lon="7.4520731715">
				<ele>553.2</ele>
				<time>2021-04-12T09:56:31+02:00</time>
				<extensions>
					<swisstopo:routepoint_id>1917036277</swisstopo:routepoint_id>
				</extensions>
			</trkpt>
			<trkpt lat="47.0199796589" lon="7.4520347093">
				<ele>553.3</ele>
				<time>2021-04-12T09:56:32+02:00</time>
				<extensions>
					<swisstopo:routepoint_id>931551598</swisstopo:routepoint_id>
				</extensions>
			</trkpt>
			<trkpt lat="47.0200177041" lon="7.4519937145">
				<ele>553.4</ele>
				<time>2021-04-12T09:56:33+02:00</time>
				<extensions>
					<swisstopo:routepoint_id>1431920956</swisstopo:routepoint_id>
				</extensions>
			</trkpt>
			<trkpt lat="47.0200594359" lon="7.4519492061">
				<ele>553.5</ele>
				<time>2021-04-12T09:56:34+02:00</time>
				<extensions>
					<swisstopo:routepoint_id>1593759210</swisstopo:routepoint_id>
				</extensions>
			</trkpt>
			<trkpt lat="47.0201052749" lon="7.4519010537">
				<ele>553.6</ele>
				<time>2021-04-12T09:56:35+02:00</time>
				<extensions>
					<swisstopo:routepoint_id>747513439</swisstopo:routepoint_id>
				</extensions>
			</trkpt>
			<trkpt lat="47.0201552198" lon="7.4518493505">
				<ele>553.7</ele>
				<time>2021-04-12T09:56:36+02:00</time>
				<extensions>
					<swisstopo:routepoint_id>679034323</swisstopo:routepoint_id>
				</extensions>
			</trkpt>
			<trkpt lat="47.0202097897" lon="7.4517945945">
				<ele>553.8</ele>
				<time>2021-04-12T09:56:37+02:00</time>
				<extensions>
					<swisstopo:routepoint_id>801766503</swisstopo:routepoint_id>
				</extensions>
			</trkpt>
			<trkpt lat="47.0202689624" lon="7.4517364802">
				<ele>554.0</ele>
				<time>2021-04-12T09:56:38+02:00</time>
				<extensions>
					<swisstopo:routepoint_id>1977214643</swisstopo:routepoint_id>
				</extensions>
			</trkpt>
			<trkpt lat="47.0203317045" lon="7.4516748809">
				<ele>554.2</ele>
				<time>2021-04-12T09:56:39+02:00</time>
				<extensions>
					<swisstopo:routepoint_id>884551223</swisstopo:routepoint_id>
				</extensions>
			</trkpt>
			<trkpt lat="47.0203974427" lon="7.4516099405">
				<ele>554.4</ele>
				<time>2021-04-12T09:56:40+02:00</time>
				<extensions>
					<swisstopo:routepoint_id>1770600427</swisstopo:routepoint_id>
				</extensions>
			</trkpt>
			<trkpt lat="47.0204653500" lon="7.4515430581">
				<ele>554.7</ele>
				<time>2021-04-12T09:56:41+02:00</time>
				<extensions>
					<swisstopo:routepoint_id>800480110</swisstopo:routepoint_id>
				</extensions>
			</trkpt>
			<trkpt lat="47.0205345495" lon="7.4514753798">
				<ele>554.8</ele>
				<time>2021-04-12T09:56:42+02:00</time>
				<extensions>
					<swisstopo:routepoint_id>1831643962</swisstopo:routepoint_id>
				</extensions>
			</trkpt>
			<trkpt lat="47.0206040470" lon="7.4514069180">
				<ele>555.0</ele>
				<time>2021-04-12T09:56:43+02:00</time>
				<extensions>
					<swisstopo:routepoint_id>261989589</swisstopo:routepoint_id>
				</extensions>
			</trkpt>
			<trkpt lat="47.0206734470" lon="7.4513375073">
				<ele>555.1</ele>
				<time>2021-04-12T09:56:44+02:00</time>
				<extensions>
					<swisstopo:routepoint_id>917545973</swisstopo:routepoint_id>
				</extensions>
			</trkpt>
			<trkpt lat="47.0207426662" lon="7.4512661258">
				<ele>555.3</ele>
				<time>2021-04-12T09:56:45+02:00</time>
				<extensions>
					<swisstopo:routepoint_id>115099104</swisstopo:routepoint_id>
				</extensions>
			</trkpt>
			<trkpt lat="47.0208120572" lon="7.4511936206">
				<ele>555.4</ele>
				<time>2021-04-12T09:56:46+02:00</time>
				<extensions>
					<swisstopo:routepoint_id>1735358628</swisstopo:routepoint_id>
				</extensions>
			</trkpt>
			<trkpt lat="47.0208820262" lon="7.4511210745">
				<ele>555.6</ele>
				<time>2021-04-12T09:56:47+02:00</time>
				<extensions>
					<swisstopo:routepoint_id>1197050889</swisstopo:routepoint_id>
				</extensions>
			</trkpt>
			<trkpt lat="47.0209519421" lon="7.4510486077">
				<ele>555.8</ele>
				<time>2021-04-12T09:56:48+02:00</time>
				<extensions>
					<swisstopo:routepoint_id>1207486327</swisstopo:routepoint_id>
				</extensions>
			</trkpt>
			<trkpt lat="47.0210215793" lon="7.4509770996">
				<ele>555.9</ele>
				<time>2021-04-12T09:56:49+02:00</time>
				<extensions>
					<swisstopo:routepoint_id>502233739</swisstopo:routepoint_id>
				</extensions>
			</trkpt>
			<trkpt lat="47.0210908579" lon="7.4509072785">
				<ele>556.0</ele>
				<time>2021-04-12T09:56:50+02:00</time>
				<extensions>
					<swisstopo:routepoint_id>1431718663</swisstopo:routepoint_id>
				</extensions>
			</trkpt>
			<trkpt lat="47.0211593267" lon="7.4508404179">
				<ele>556.1</ele>
				<time>2021-04-12T09:56:51+02:00</time>
				<extensions>
					<swisstopo:routepoint_id>341304406</swisstopo:routepoint_id>
				</extensions>
			</trkpt>
			<trkpt lat="47.0212266520" lon="7.4507776259">
				<ele>556.2</ele>
				<time>2021-04-12T09:56:52+02:00</time>
				<extensions>
					<swisstopo:routepoint_id>374330505</swisstopo:routepoint_id>
				</extensions>
			</trkpt>
			<trkpt lat="47.0212925164" lon="7.4507185804">
				<ele>556.3</ele>
				<time>2021-04-12T09:56:53+02:00</time>
				<extensions>
					<swisstopo:routepoint_id>1393195472</swisstopo:routepoint_id>
				</extensions>
			</trkpt>
			<trkpt lat="47.0213564248" lon="7.4506626318">
				<ele>556.3</ele>
				<time>2021-04-12T09:56:54+02:00</time>
				<extensions>
					<swisstopo:routepoint_id>1422094663</swisstopo:routepoint_id>
				</extensions>
			</trkpt>
			<trkpt lat="47.0214173958" lon="7.4506077782">
				<ele>556.3</ele>
				<time>2021-04-12T09:56:55+02:00</time>
				<extensions>
					<swisstopo:routepoint_id>1799493578</swisstopo:routepoint_id>
				</extensions>
			</trkpt>
			<trkpt lat="47.0214745797" lon="7.4505528270">
				<ele>556.3</ele>
				<time>2021-04-12T09:56:56+02:00</time>
				<extensions>
					<swisstopo:routepoint_id>1076364745</swisstopo:routepoint_id>
				</extensions>
			</trkpt>
			<trkpt lat="47.0215273536" lon="7.4504981997">
				<ele>556.2</ele>
				<time>2021-04-12T09:56:57+02:00</time>
				<extensions>
					<swisstopo:routepoint_id>60026887</swisstopo:routepoint_id>
				</extensions>
			</trkpt>
			<trkpt lat="47.0215761307" lon="7.4504446312">
				<ele>556.2</ele>
				<time>2021-04-12T09:56:58+02:00</time>
				<extensions>
					<swisstopo:routepoint_id>1702059366</swisstopo:routepoint_id>
				</extensions>
			</trkpt>
			<trkpt lat="47.0216220468" lon="7.4503935128">
				<ele>556.1</ele>
				<time>2021-04-12T09:56:59+02:00</time>
				<extensions>
					<swisstopo:routepoint_id>2029586322</swisstopo:routepoint_id>
				</extensions>
			</trkpt>
			<trkpt lat="47.0216658629" lon="7.4503464667">
				<ele>556.1</ele>
				<time>2021-04-12T09:57:00+02:00</time>
				<extensions>
					<swisstopo:routepoint_id>627064906</swisstopo:routepoint_id>
				</extensions>
			</trkpt>
			<trkpt lat="47.0217087723" lon="7.4503037678">
				<ele>556.1</ele>
				<time>2021-04-12T09:57:01+02:00</time>
				<extensions>
					<swisstopo:routepoint_id>1377619313</swisstopo:routepoint_id>
				</extensions>
			</trkpt>
			<trkpt lat="47.0217516033" lon="7.4502633127">
				<ele>556.0</ele>
				<time>2021-04-12T09:57:02+02:00</time>
				<extensions>
					<swisstopo:routepoint_id>1626595284</swisstopo:routepoint_id>
				</extensions>
			</trkpt>
			<trkpt lat="47.0217944056" lon="7.4502226045">
				<ele>556.0</ele>
				<time>2021-04-12T09:57:03+02:00</time>
				<extensions>
					<swisstopo:routepoint_id>720111878</swisstopo:routepoint_id>
				</extensions>
			</trkpt>
			<trkpt lat="47.0218373073" lon="7.4501798444">
				<ele>555.9</ele>
				<time>2021-04-12T09:57:04+02:00</time>
				<extensions>
					<swisstopo:routepoint_id>1849982701</swisstopo:routepoint_id>
				</extensions>
			</trkpt>
			<trkpt lat="47.0218808623" lon="7.4501346234">
				<ele>555.8</ele>
				<time>2021-04-12T09:57:05+02:00</time>
				<extensions>
					<swisstopo:routepoint_id>1391014441</swisstopo:routepoint_id>
				</extensions>
			</trkpt>
			<trkpt lat="47.0219260619" lon="7.4500878905">
				<ele>555.7</ele>
				<time>2021-04-12T09:57:06+02:00</time>
				<extensions>
					<swisstopo:routepoint_id>1272728645</swisstopo:routepoint_id>
				</extensions>
			</trkpt>
			<trkpt lat="47.0219731885" lon="7.4500383178">
				<ele>555.6</ele>
				<time>2021-04-12T09:57:07+02:00</time>
				<extensions>
					<swisstopo:routepoint_id>1813212395</swisstopo:routepoint_id>
				</extensions>
			</trkpt>
			<trkpt lat="47.0220224066" lon="7.4499851966">
				<ele>555.5</ele>
				<time>2021-04-12T09:57:08+02:00</time>
				<extensions>
					<swisstopo:routepoint_id>1867771835</swisstopo:routepoint_id>
				</extensions>
			</trkpt>
			<trkpt lat="47.0220745073" lon="7.4499283585">
				<ele>555.4</ele>
				<time>2021-04-12T09:57:09+02:00</time>
				<extensions>
					<swisstopo:routepoint_id>1872762646</swisstopo:routepoint_id>
				</extensions>
			</trkpt>
			<trkpt lat="47.0221295021" lon="7.4498679725">
				<ele>555.3</ele>
				<time>2021-04-12T09:57:10+02:00</time>
				<extensions>
					<swisstopo:routepoint_id>2001460890</swisstopo:routepoint_id>
				</extensions>
			</trkpt>
			<trkpt lat="47.0221868255" lon="7.4498047694">
				<ele>555.1</ele>
				<time>2021-04-12T09:57:11+02:00</time>
				<extensions>
					<swisstopo:routepoint_id>369331622</swisstopo:routepoint_id>
				</extensions>
			</trkpt>
			<trkpt lat="47.0222455178" lon="7.4497403542">
				<ele>554.9</ele>
				<time>2021-04-12T09:57:12+02:00</time>
				<extensions>
					<swisstopo:routepoint_id>1128831124</swisstopo:routepoint_id>
				</extensions>
			</trkpt>
			<trkpt lat="47.0223039769" lon="7.4496771183">
				<ele>554.7</ele>
				<time>2021-04-12T09:57:13+02:00</time>
				<extensions>
					<swisstopo:routepoint_id>1394163470</swisstopo:routepoint_id>
				</extensions>
			</trkpt>
			<trkpt lat="47.0223594156" lon="7.4496165115">
				<ele>554.5</ele>
				<time>2021-04-12T09:57:14+02:00</time>
				<extensions>
					<swisstopo:routepoint_id>511367873</swisstopo:routepoint_id>
				</extensions>
			</trkpt>
			<trkpt lat="47.0224075572" lon="7.4495617879">
				<ele>554.4</ele>
				<time>2021-04-12T09:57:15+02:00</time>
				<extensions>
					<swisstopo:routepoint_id>330286217</swisstopo:routepoint_id>
				</extensions>
			</trkpt>
			<trkpt lat="47.0224477037" lon="7.4495137015">
				<ele>554.3</ele>
				<time>2021-04-12T09:57:16+02:00</time>
				<extensions>
					<swisstopo:routepoint_id>2022705271</swisstopo:routepoint_id>
				</extensions>
			</trkpt>
			<trkpt lat="47.0224797534" lon="7.4494739872">
				<ele>554.2</ele>
				<time>2021-04-12T09:57:17+02:00</time>
				<extensions>
					<swisstopo:routepoint_id>941357687</swisstopo:routepoint_id>
				</extensions>
			</trkpt>
			<trkpt lat="47.0225035817" lon="7.4494423175">
				<ele>554.2</ele>
				<time>2021-04-12T09:57:18+02:00</time>
				<extensions>
					<swisstopo:routepoint_id>886617960</swisstopo:routepoint_id>
				</extensions>
			</trkpt>
			<trkpt lat="47.0225198612" lon="7.4494196722">
				<ele>554.2</ele>
				<time>2021-04-12T09:57:19+02:00</time>
				<extensions>
					<swisstopo:routepoint_id>2146510834</swisstopo:routepoint_id>
				</extensions>
			</trkpt>
			<trkpt lat="47.0225295632" lon="7.4494048288">
				<ele>554.2</ele>
				<time>2021-04-12T09:57:20+02:00</time>
				<extensions>
					<swisstopo:routepoint_id>829801085</swisstopo:routepoint_id>
				</extensions>
			</trkpt>
			<trkpt lat="47.0225335142" lon="7.4493962692">
				<ele>554.2</ele>
				<time>2021-04-12T09:57:21+02:00</time>
				<extensions>
					<swisstopo:routepoint_id>708031977</swisstopo:routepoint_id>
				</extensions>
			</trkpt>
			<trkpt lat="47.0225332311" lon="7.4493929264">
				<ele>554.2</ele>
				<time>2021-04-12T09:57:22+02:00</time>
				<extensions>
					<swisstopo:routepoint_id>686549412</swisstopo:routepoint_id>
				</extensions>
			</trkpt>
			<trkpt lat="47.0225299241" lon="7.4493938431">
				<ele>554.2</ele>
				<time>2021-04-12T09:57:23+02:00</time>
				<extensions>
					<swisstopo:routepoint_id>406332153</swisstopo:routepoint_id>
				</extensions>
			</trkpt>
			<trkpt lat="47.0225245299" lon="7.4493980490">
				<ele>554.2</ele>
				<time>2021-04-12T09:57:24+02:00</time>
				<extensions>
					<swisstopo:routepoint_id>226498011</swisstopo:routepoint_id>
				</extensions>
			</trkpt>
			<trkpt lat="47.0225177692" lon="7.4494041797">
				<ele>554.3</ele>
				<time>2021-04-12T09:57:25+02:00</time>
				<extensions>
					<swisstopo:routepoint_id>1411048393</swisstopo:routepoint_id>
				</extensions>
			</trkpt>
			<trkpt lat="47.0225104388" lon="7.4494110009">
				<ele>554.3</ele>
				<time>2021-04-12T09:57:26+02:00</time>
				<extensions>
					<swisstopo:routepoint_id>828427330</swisstopo:routepoint_id>
				</extensions>
			</trkpt>
			<trkpt lat="47.0225026658" lon="7.4494178833">
				<ele>554.3</ele>
				<time>2021-04-12T09:57:27+02:00</time>
				<extensions>
					<swisstopo:routepoint_id>1241651809</swisstopo:routepoint_id>
				</extensions>
			</trkpt>
			<trkpt lat="47.0224945974" lon="7.4494247501">
				<ele>554.3</ele>
				<time>2021-04-12T09:57:28+02:00</time>
				<extensions>
					<swisstopo:routepoint_id>1343355964</swisstopo:routepoint_id>
				</extensions>
			</trkpt>
			<trkpt lat="47.0224865135" lon="7.4494312076">
				<ele>554.4</ele>
				<time>2021-04-12T09:57:29+02:00</time>
				<extensions>
					<swisstopo:routepoint_id>1288106037</swisstopo:routepoint_id>
				</extensions>
			</trkpt>
			<trkpt lat="47.0224785291" lon="7.4494370470">
				<ele>554.4</ele>
				<time>2021-04-12T09:57:30+02:00</time>
				<extensions>
					<swisstopo:routepoint_id>415518452</swisstopo:routepoint_id>
				</extensions>
			</trkpt>
			<trkpt lat="47.0224712544" lon="7.4494420828">
				<ele>554.4</ele>
				<time>2021-04-12T09:57:31+02:00</time>
				<extensions>
					<swisstopo:routepoint_id>1802720</swisstopo:routepoint_id>
				</extensions>
			</trkpt>
			<trkpt lat="47.0224656953" lon="7.4494448841">
				<ele>554.4</ele>
				<time>2021-04-12T09:57:32+02:00</time>
				<extensions>
					<swisstopo:routepoint_id>233543982</swisstopo:routepoint_id>
				</extensions>
			</trkpt>
			<trkpt lat="47.0224641899" lon="7.4494417284">
				<ele>554.4</ele>
				<time>2021-04-12T09:57:33+02:00</time>
				<extensions>
					<swisstopo:routepoint_id>1721082405</swisstopo:routepoint_id>
				</extensions>
			</trkpt>
			<trkpt lat="47.0224694813" lon="7.4494266937">
				<ele>554.4</ele>
				<time>2021-04-12T09:57:34+02:00</time>
				<extensions>
					<swisstopo:routepoint_id>1774739392</swisstopo:routepoint_id>
				</extensions>
			</trkpt>
			<trkpt lat="47.0224839385" lon="7.4493952697">
				<ele>554.3</ele>
				<time>2021-04-12T09:57:35+02:00</time>
				<extensions>
					<swisstopo:routepoint_id>1644588161</swisstopo:routepoint_id>
				</extensions>
			</trkpt>
			<trkpt lat="47.0225098002" lon="7.4493445027">
				<ele>554.1</ele>
				<time>2021-04-12T09:57:36+02:00</time>
				<extensions>
					<swisstopo:routepoint_id>331201390</swisstopo:routepoint_id>
				</extensions>
			</trkpt>
			<trkpt lat="47.0225484903" lon="7.4492725443">
				<ele>553.9</ele>
				<time>2021-04-12T09:57:37+02:00</time>
				<extensions>
					<swisstopo:routepoint_id>224148706</swisstopo:routepoint_id>
				</extensions>
			</trkpt>
			<trkpt lat="47.0225998186" lon="7.4491779667">
				<ele>553.6</ele>
				<time>2021-04-12T09:57:38+02:00</time>
				<extensions>
					<swisstopo:routepoint_id>580984904</swisstopo:routepoint_id>
				</extensions>
			</trkpt>
			<trkpt lat="47.0226623400" lon="7.4490615194">
				<ele>553.3</ele>
				<time>2021-04-12T09:57:39+02:00</time>
				<extensions>
					<swisstopo:routepoint_id>5138619</swisstopo:routepoint_id>
				</extensions>
			</trkpt>
			<trkpt lat="47.0227333324" lon="7.4489253999">
				<ele>552.9</ele>
				<time>2021-04-12T09:57:40+02:00</time>
				<extensions>
					<swisstopo:routepoint_id>465423653</swisstopo:routepoint_id>
				</extensions>
			</trkpt>
			<trkpt lat="47.0228103609" lon="7.4487732396">
				<ele>552.4</ele>
				<time>2021-04-12T09:57:41+02:00</time>
				<extensions>
					<swisstopo:routepoint_id>1239893597</swisstopo:routepoint_id>
				</extensions>
			</trkpt>
			<trkpt lat="47.0228913671" lon="7.4486084089">
				<ele>551.9</ele>
				<time>2021-04-12T09:57:42+02:00</time>
				<extensions>
					<swisstopo:routepoint_id>1857857938</swisstopo:routepoint_id>
				</extensions>
			</trkpt>
			<trkpt lat="47.0229752893" lon="7.4484350228">
				<ele>551.3</ele>
				<time>2021-04-12T09:57:43+02:00</time>
				<extensions>
					<swisstopo:routepoint_id>606136586</swisstopo:routepoint_id>
				</extensions>
			</trkpt>
			<trkpt lat="47.0230611491" lon="7.4482567746">
				<ele>550.7</ele>
				<time>2021-04-12T09:57:44+02:00</time>
				<extensions>
					<swisstopo:routepoint_id>1822663181</swisstopo:routepoint_id>
				</extensions>
			</trkpt>
			<trkpt lat="47.0231487788" lon="7.4480771895">
				<ele>550.0</ele>
				<time>2021-04-12T09:57:45+02:00</time>
				<extensions>
					<swisstopo:routepoint_id>1793342259</swisstopo:routepoint_id>
				</extensions>
			</trkpt>
			<trkpt lat="47.0232381565" lon="7.4478992147">
				<ele>549.3</ele>
				<time>2021-04-12T09:57:46+02:00</time>
				<extensions>
					<swisstopo:routepoint_id>770361368</swisstopo:routepoint_id>
				</extensions>
			</trkpt>
			<trkpt lat="47.0233297716" lon="7.4477257708">
				<ele>548.6</ele>
				<time>2021-04-12T09:57:47+02:00</time>
				<extensions>
					<swisstopo:routepoint_id>284604213</swisstopo:routepoint_id>
				</extensions>
			</trkpt>
			<trkpt lat="47.0234242036" lon="7.4475597051">
				<ele>547.8</ele>
				<time>2021-04-12T09:57:48+02:00</time>
				<extensions>
					<swisstopo:routepoint_id>896926022</swisstopo:routepoint_id>
				</extensions>
			</trkpt>
			<trkpt lat="47.0235220395" lon="7.4474041445">
				<ele>547.1</ele>
				<time>2021-04-12T09:57:49+02:00</time>
				<extensions>
					<swisstopo:routepoint_id>1447933461</swisstopo:routepoint_id>
				</extensions>
			</trkpt>
			<trkpt lat="47.0236236916" lon="7.4472620536">
				<ele>546.5</ele>
				<time>2021-04-12T09:57:50+02:00</time>
				<extensions>
					<swisstopo:routepoint_id>132991223</swisstopo:routepoint_id>
				</extensions>
			</trkpt>
			<trkpt lat="47.0237293799" lon="7.4471352839">
				<ele>545.9</ele>
				<time>2021-04-12T09:57:51+02:00</time>
				<extensions>
					<swisstopo:routepoint_id>1800492081</swisstopo:routepoint_id>
				</extensions>
			</trkpt>
			<trkpt lat="47.0238387204" lon="7.4470253745">
				<ele>545.4</ele>
				<time>2021-04-12T09:57:52+02:00</time>
				<extensions>
					<swisstopo:routepoint_id>678335490</swisstopo:routepoint_id>
				</extensions>
			</trkpt>
			<trkpt lat="47.0239516365" lon="7.4469317595">
				<ele>545.2</ele>
				<time>2021-04-12T09:57:53+02:00</time>
				<extensions>
					<swisstopo:routepoint_id>1941382154</swisstopo:routepoint_id>
				</extensions>
			</trkpt>
			<trkpt lat="47.0240677525" lon="7.4468563095">
				<ele>545.3</ele>
				<time>2021-04-12T09:57:54+02:00</time>
				<extensions>
					<swisstopo:routepoint_id>2090813407</swisstopo:routepoint_id>
				</extensions>
			</trkpt>
			<trkpt lat="47.0241877209" lon="7.4467997962">
				<ele>545.7</ele>
				<time>2021-04-12T09:57:55+02:00</time>
				<extensions>
					<swisstopo:routepoint_id>1026015588</swisstopo:routepoint_id>
				</extensions>
			</trkpt>
			<trkpt lat="47.0243096140" lon="7.4467566339">
				<ele>545.9</ele>
				<time>2021-04-12T09:57:56+02:00</time>
				<extensions>
					<swisstopo:routepoint_id>2097785753</swisstopo:routepoint_id>
				</extensions>
			</trkpt>
			<trkpt lat="47.0244320351" lon="7.4467221667">
				<ele>546.2</ele>
				<time>2021-04-12T09:57:57+02:00</time>
				<extensions>
					<swisstopo:routepoint_id>98634225</swisstopo:routepoint_id>
				</extensions>
			</trkpt>
			<trkpt lat="47.0245540187" lon="7.4466927102">
				<ele>546.4</ele>
				<time>2021-04-12T09:57:58+02:00</time>
				<extensions>
					<swisstopo:routepoint_id>2035527738</swisstopo:routepoint_id>
				</extensions>
			</trkpt>
			<trkpt lat="47.0246740798" lon="7.4466636249">
				<ele>546.5</ele>
				<time>2021-04-12T09:57:59+02:00</time>
				<extensions>
					<swisstopo:routepoint_id>1700195856</swisstopo:routepoint_id>
				</extensions>
			</trkpt>
			<trkpt lat="47.0247901336" lon="7.4466303549">
				<ele>546.6</ele>
				<time>2021-04-12T09:58:00+02:00</time>
				<extensions>
					<swisstopo:routepoint_id>774344810</swisstopo:routepoint_id>
				</extensions>
			</trkpt>
			<trkpt lat="47.0249013308" lon="7.4465895532">
				<ele>546.7</ele>
				<time>2021-04-12T09:58:01+02:00</time>
				<extensions>
					<swisstopo:routepoint_id>662320850</swisstopo:routepoint_id>
				</extensions>
			</trkpt>
			<trkpt lat="47.0250076716" lon="7.4465392382">
				<ele>546.7</ele>
				<time>2021-04-12T09:58:02+02:00</time>
				<extensions>
					<swisstopo:routepoint_id>1218783549</swisstopo:routepoint_id>
				</extensions>
			</trkpt>
			<trkpt lat="47.0251093039" lon="7.4464785192">
				<ele>546.6</ele>
				<time>2021-04-12T09:58:03+02:00</time>
				<extensions>
					<swisstopo:routepoint_id>1396082957</swisstopo:routepoint_id>
				</extensions>
			</trkpt>
			<trkpt lat="47.0252068343" lon="7.4464073310">
				<ele>546.5</ele>
				<time>2021-04-12T09:58:04+02:00</time>
				<extensions>
					<swisstopo:routepoint_id>559931177</swisstopo:routepoint_id>
				</extensions>
			</trkpt>
			<trkpt lat="47.0253011704" lon="7.4463266913">
				<ele>546.3</ele>
				<time>2021-04-12T09:58:05+02:00</time>
				<extensions>
					<swisstopo:routepoint_id>489950685</swisstopo:routepoint_id>
				</extensions>
			</trkpt>
			<trkpt lat="47.0253933203" lon="7.4462375116">
				<ele>546.1</ele>
				<time>2021-04-12T09:58:06+02:00</time>
				<extensions>
					<swisstopo:routepoint_id>1148860197</swisstopo:routepoint_id>
				</extensions>
			</trkpt>
			<trkpt lat="47.0254836886" lon="7.4461409320">
				<ele>545.8</ele>
				<time>2021-04-12T09:58:07+02:00</time>
				<extensions>
					<swisstopo:routepoint_id>867860802</swisstopo:routepoint_id>
				</extensions>
			</trkpt>
			<trkpt lat="47.0255727471" lon="7.4460383893">
				<ele>545.5</ele>
				<time>2021-04-12T09:58:08+02:00</time>
				<extensions>
					<swisstopo:routepoint_id>427568790</swisstopo:routepoint_id>
				</extensions>
			</trkpt>
			<trkpt lat="47.0256613993" lon="7.4459316342">
				<ele>545.1</ele>
				<time>2021-04-12T09:58:09+02:00</time>
				<extensions>
					<swisstopo:routepoint_id>668370668</swisstopo:routepoint_id>
				</extensions>
			</trkpt>
			<trkpt lat="47.0257493868" lon="7.4458217030">
				<ele>544.8</ele>
				<time>2021-04-12T09:58:10+02:00</time>
				<extensions>
					<swisstopo:routepoint_id>1966343266</swisstopo:routepoint_id>
				</extensions>
			</trkpt>
			<trkpt lat="47.0258364926" lon="7.4457097240">
				<ele>544.4</ele>
				<time>2021-04-12T09:58:11+02:00</time>
				<extensions>
					<swisstopo:routepoint_id>705427979</swisstopo:routepoint_id>
				</extensions>
			</trkpt>
			<trkpt lat="47.0259225164" lon="7.4455966840">
				<ele>544.0</ele>
				<time>2021-04-12T09:58:12+02:00</time>
				<extensions>
					<swisstopo:routepoint_id>2018311613</swisstopo:routepoint_id>
				</extensions>
			</trkpt>
			<trkpt lat="47.0260069301" lon="7.4454830755">
				<ele>543.6</ele>
				<time>2021-04-12T09:58:13+02:00</time>
				<extensions>
					<swisstopo:routepoint_id>111591679</swisstopo:routepoint_id>
				</extensions>
			</trkpt>
			<trkpt lat="47.0260895687" lon="7.4453687015">
				<ele>543.1</ele>
				<time>2021-04-12T09:58:14+02:00</time>
				<extensions>
					<swisstopo:routepoint_id>768125122</swisstopo:routepoint_id>
				</extensions>
			</trkpt>
			<trkpt lat="47.0261696302" lon="7.4452536461">
				<ele>542.7</ele>
				<time>2021-04-12T09:58:15+02:00</time>
				<extensions>
					<swisstopo:routepoint_id>1354723337</swisstopo:routepoint_id>
				</extensions>
			</trkpt>
			<trkpt lat="47.0262468062" lon="7.4451382120">
				<ele>542.2</ele>
				<time>2021-04-12T09:58:16+02:00</time>
				<extensions>
					<swisstopo:routepoint_id>1213499465</swisstopo:routepoint_id>
				</extensions>
			</trkpt>
			<trkpt lat="47.0263209927" lon="7.4450222898">
				<ele>541.7</ele>
				<time>2021-04-12T09:58:17+02:00</time>
				<extensions>
					<swisstopo:routepoint_id>633312696</swisstopo:routepoint_id>
				</extensions>
			</trkpt>
			<trkpt lat="47.0263920407" lon="7.4449059872">
				<ele>541.3</ele>
				<time>2021-04-12T09:58:18+02:00</time>
				<extensions>
					<swisstopo:routepoint_id>1157527140</swisstopo:routepoint_id>
				</extensions>
			</trkpt>
			<trkpt lat="47.0264600191" lon="7.4447888148">
				<ele>540.8</ele>
				<time>2021-04-12T09:58:19+02:00</time>
				<extensions>
					<swisstopo:routepoint_id>504283807</swisstopo:routepoint_id>
				</extensions>
			</trkpt>
			<trkpt lat="47.0265248913" lon="7.4446697743">
				<ele>540.3</ele>
				<time>2021-04-12T09:58:20+02:00</time>
				<extensions>
					<swisstopo:routepoint_id>1527473187</swisstopo:routepoint_id>
				</extensions>
			</trkpt>
			<trkpt lat="47.0265871761" lon="7.4445483271">
				<ele>539.9</ele>
				<time>2021-04-12T09:58:21+02:00</time>
				<extensions>
					<swisstopo:routepoint_id>1222337671</swisstopo:routepoint_id>
				</extensions>
			</trkpt>
			<trkpt lat="47.0266473893" lon="7.4444256109">
				<ele>539.5</ele>
				<time>2021-04-12T09:58:22+02:00</time>
				<extensions>
					<swisstopo:routepoint_id>1000669295</swisstopo:routepoint_id>
				</extensions>
			</trkpt>
			<trkpt lat="47.0267058524" lon="7.4443025513">
				<ele>539.1</ele>
				<time>2021-04-12T09:58:23+02:00</time>
				<extensions>
					<swisstopo:routepoint_id>1304401408</swisstopo:routepoint_id>
				</extensions>
			</trkpt>
			<trkpt lat="47.0267625860" lon="7.4441797948">
				<ele>538.6</ele>
				<time>2021-04-12T09:58:24+02:00</time>
				<extensions>
					<swisstopo:routepoint_id>1561395680</swisstopo:routepoint_id>
				</extensions>
			</trkpt>
			<trkpt lat="47.0268173476" lon="7.4440573629">
				<ele>538.2</ele>
				<time>2021-04-12T09:58:25+02:00</time>
				<extensions>
					<swisstopo:routepoint_id>127027420</swisstopo:routepoint_id>
				</extensions>
			</trkpt>
			<trkpt lat="47.0268704778" lon="7.4439356800">
				<ele>537.8</ele>
				<time>2021-04-12T09:58:26+02:00</time>
				<extensions>
					<swisstopo:routepoint_id>351102822</swisstopo:routepoint_id>
				</extensions>
			</trkpt>
			<trkpt lat="47.0269222452" lon="7.4438153042">
				<ele>537.4</ele>
				<time>2021-04-12T09:58:27+02:00</time>
				<extensions>
					<swisstopo:routepoint_id>1847551045</swisstopo:routepoint_id>
				</extensions>
			</trkpt>
			<trkpt lat="47.0269727501" lon="7.4436967114">
				<ele>537.1</ele>
				<time>2021-04-12T09:58:28+02:00</time>
				<extensions>
					<swisstopo:routepoint_id>1324361342</swisstopo:routepoint_id>
				</extensions>
			</trkpt>
			<trkpt lat="47.0270219673" lon="7.4435796155">
				<ele>536.7</ele>
				<time>2021-04-12T09:58:29+02:00</time>
				<extensions>
					<swisstopo:routepoint_id>2020557486</swisstopo:routepoint_id>
				</extensions>
			</trkpt>
			<trkpt lat="47.0270693708" lon="7.4434620307">
				<ele>536.4</ele>
				<time>2021-04-12T09:58:30+02:00</time>
				<extensions>
					<swisstopo:routepoint_id>1350757191</swisstopo:routepoint_id>
				</extensions>
			</trkpt>
			<trkpt lat="47.0271161725" lon="7.4433448329">
				<ele>536.1</ele>
				<time>2021-04-12T09:58:31+02:00</time>
				<extensions>
					<swisstopo:routepoint_id>1126476700</swisstopo:routepoint_id>
				</extensions>
			</trkpt>
			<trkpt lat="47.0271624511" lon="7.4432290285">
				<ele>535.8</ele>
				<time>2021-04-12T09:58:32+02:00</time>
				<extensions>
					<swisstopo:routepoint_id>478064948</swisstopo:routepoint_id>
				</extensions>
			</trkpt>
			<trkpt lat="47.0272081551" lon="7.4431121351">
				<ele>535.6</ele>
				<time>2021-04-12T09:58:33+02:00</time>
				<extensions>
					<swisstopo:routepoint_id>1101257609</swisstopo:routepoint_id>
				</extensions>
			</trkpt>
			<trkpt lat="47.0272550450" lon="7.4429959069">
				<ele>535.3</ele>
				<time>2021-04-12T09:58:34+02:00</time>
				<extensions>
					<swisstopo:routepoint_id>1822564617</swisstopo:routepoint_id>
				</extensions>
			</trkpt>
			<trkpt lat="47.0273046253" lon="7.4428800018">
				<ele>535.1</ele>
				<time>2021-04-12T09:58:35+02:00</time>
				<extensions>
					<swisstopo:routepoint_id>136777111</swisstopo:routepoint_id>
				</extensions>
			</trkpt>
			<trkpt lat="47.0273572906" lon="7.4427622393">
				<ele>534.8</ele>
				<time>2021-04-12T09:58:36+02:00</time>
				<extensions>
					<swisstopo:routepoint_id>1005402287</swisstopo:routepoint_id>
				</extensions>
			</trkpt>
			<trkpt lat="47.0274133117" lon="7.4426404252">
				<ele>534.5</ele>
				<time>2021-04-12T09:58:37+02:00</time>
				<extensions>
					<swisstopo:routepoint_id>1394903013</swisstopo:routepoint_id>
				</extensions>
			</trkpt>
			<trkpt lat="47.0274726266" lon="7.4425123126">
				<ele>534.1</ele>
				<time>2021-04-12T09:58:38+02:00</time>
				<extensions>
					<swisstopo:routepoint_id>55965192</swisstopo:routepoint_id>
				</extensions>
			</trkpt>
			<trkpt lat="47.0275356711" lon="7.4423770080">
				<ele>533.8</ele>
				<time>2021-04-12T09:58:39+02:00</time>
				<extensions>
					<swisstopo:routepoint_id>9144558</swisstopo:routepoint_id>
				</extensions>
			</trkpt>
			<trkpt lat="47.0276027509" lon="7.4422349777">
				<ele>533.5</ele>
				<time>2021-04-12T09:58:40+02:00</time>
				<extensions>
					<swisstopo:routepoint_id>1221247369</swisstopo:routepoint_id>
				</extensions>
			</trkpt>
			<trkpt lat="47.0276732004" lon="7.4420878025">
				<ele>533.2</ele>
				<time>2021-04-12T09:58:41+02:00</time>
				<extensions>
					<swisstopo:routepoint_id>2003316404</swisstopo:routepoint_id>
				</extensions>
			</trkpt>
			<trkpt lat="47.0277459768" lon="7.4419364604">
				<ele>532.9</ele>
				<time>2021-04-12T09:58:42+02:00</time>
				<extensions>
					<swisstopo:routepoint_id>1490184362</swisstopo:routepoint_id>
				</extensions>
			</trkpt>
			<trkpt lat="47.0278209806" lon="7.4417820533">
				<ele>532.5</ele>
				<time>2021-04-12T09:58:43+02:00</time>
				<extensions>
					<swisstopo:routepoint_id>1574280820</swisstopo:routepoint_id>
				</extensions>
			</trkpt>
			<trkpt lat="47.0278974257" lon="7.4416252556">
				<ele>532.2</ele>
				<time>2021-04-12T09:58:44+02:00</time>
				<extensions>
					<swisstopo:routepoint_id>1939210700</swisstopo:routepoint_id>
				</extensions>
			</trkpt>
			<trkpt lat="47.0279748052" lon="7.4414669800">
				<ele>531.8</ele>
				<time>2021-04-12T09:58:45+02:00</time>
				<extensions>
					<swisstopo:routepoint_id>2102408028</swisstopo:routepoint_id>
				</extensions>
			</trkpt>
			<trkpt lat="47.0280525578" lon="7.4413085039">
				<ele>531.4</ele>
				<time>2021-04-12T09:58:46+02:00</time>
				<extensions>
					<swisstopo:routepoint_id>475798858</swisstopo:routepoint_id>
				</extensions>
			</trkpt>
			<trkpt lat="47.0281303897" lon="7.4411501373">
				<ele>531.0</ele>
				<time>2021-04-12T09:58:47+02:00</time>
				<extensions>
					<swisstopo:routepoint_id>1669788625</swisstopo:routepoint_id>
				</extensions>
			</trkpt>
			<trkpt lat="47.0282080907" lon="7.4409929980">
				<ele>530.6</ele>
				<time>2021-04-12T09:58:48+02:00</time>
				<extensions>
					<swisstopo:routepoint_id>821121379</swisstopo:routepoint_id>
				</extensions>
			</trkpt>
			<trkpt lat="47.0282858958" lon="7.4408378367">
				<ele>530.1</ele>
				<time>2021-04-12T09:58:49+02:00</time>
				<extensions>
					<swisstopo:routepoint_id>857101231</swisstopo:routepoint_id>
				</extensions>
			</trkpt>
			<trkpt lat="47.0283641789" lon="7.4406841265">
				<ele>529.7</ele>
				<time>2021-04-12T09:58:50+02:00</time>
				<extensions>
					<swisstopo:routepoint_id>2127568988</swisstopo:routepoint_id>
				</extensions>
			</trkpt>
			<trkpt lat="47.0284431885" lon="7.4405320696">
				<ele>529.3</ele>
				<time>2021-04-12T09:58:51+02:00</time>
				<extensions>
					<swisstopo:routepoint_id>301775119</swisstopo:routepoint_id>
				</extensions>
			</trkpt>
			<trkpt lat="47.0285226293" lon="7.4403813570">
				<ele>529.0</ele>
				<time>2021-04-12T09:58:52+02:00</time>
				<extensions>
					<swisstopo:routepoint_id>1725534466</swisstopo:routepoint_id>
				</extensions>
			</trkpt>
			<trkpt lat="47.0286026142" lon="7.4402322948">
				<ele>528.6</ele>
				<time>2021-04-12T09:58:53+02:00</time>
				<extensions>
					<swisstopo:routepoint_id>1438600974</swisstopo:routepoint_id>
				</extensions>
			</trkpt>
			<trkpt lat="47.0286830819" lon="7.4400843949">
				<ele>528.3</ele>
				<time>2021-04-12T09:58:54+02:00</time>
				<extensions>
					<swisstopo:routepoint_id>48188445</swisstopo:routepoint_id>
				</extensions>
			</trkpt>
			<trkpt lat="47.0287641683" lon="7.4399371478">
				<ele>528.0</ele>
				<time>2021-04-12T09:58:55+02:00</time>
				<extensions>
					<swisstopo:routepoint_id>301860196</swisstopo:routepoint_id>
				</extensions>
			</trkpt>
			<trkpt lat="47.0288460903" lon="7.4397902403">
				<ele>527.7</ele>
				<time>2021-04-12T09:58:56+02:00</time>
				<extensions>
					<swisstopo:routepoint_id>1007939958</swisstopo:routepoint_id>
				</extensions>
			</trkpt>
			<trkpt lat="47.0289285920" lon="7.4396429404">
				<ele>527.5</ele>
				<time>2021-04-12T09:58:57+02:00</time>
				<extensions>
					<swisstopo:routepoint_id>1095866570</swisstopo:routepoint_id>
				</extensions>
			</trkpt>
			<trkpt lat="47.0290117117" lon="7.4394947412">
				<ele>527.4</ele>
				<time>2021-04-12T09:58:58+02:00</time>
				<extensions>
					<swisstopo:routepoint_id>1409685318</swisstopo:routepoint_id>
				</extensions>
			</trkpt>
			<trkpt lat="47.0290955300" lon="7.4393455014">
				<ele>527.3</ele>
				<time>2021-04-12T09:58:59+02:00</time>
				<extensions>
					<swisstopo:routepoint_id>1541545922</swisstopo:routepoint_id>
				</extensions>
			</trkpt>
			<trkpt lat="47.0291799291" lon="7.4391946128">
				<ele>527.2</ele>
				<time>2021-04-12T09:59:00+02:00</time>
				<extensions>
					<swisstopo:routepoint_id>1519593646</swisstopo:routepoint_id>
				</extensions>
			</trkpt>
			<trkpt lat="47.0292652866" lon="7.4390414736">
				<ele>527.1</ele>
				<time>2021-04-12T09:59:01+02:00</time>
				<extensions>
					<swisstopo:routepoint_id>1934878198</swisstopo:routepoint_id>
				</extensions>
			</trkpt>
			<trkpt lat="47.0293521912" lon="7.4388853030">
				<ele>527.1</ele>
				<time>2021-04-12T09:59:02+02:00</time>
				<extensions>
					<swisstopo:routepoint_id>153007265</swisstopo:routepoint_id>
				</extensions>
			</trkpt>
			<trkpt lat="47.0294413194" lon="7.4387252911">
				<ele>527.0</ele>
				<time>2021-04-12T09:59:03+02:00</time>
				<extensions>
					<swisstopo:routepoint_id>1055177396</swisstopo:routepoint_id>
				</extensions>
			</trkpt>
			<trkpt lat="47.0295329669" lon="7.4385604969">
				<ele>527.0</ele>
				<time>2021-04-12T09:59:04+02:00</time>
				<extensions>
					<swisstopo:routepoint_id>446537646</swisstopo:routepoint_id>
				</extensions>
			</trkpt>
			<trkpt lat="47.0296273592" lon="7.4383913273">
				<ele>526.9</ele>
				<time>2021-04-12T09:59:05+02:00</time>
				<extensions>
					<swisstopo:routepoint_id>1650353704</swisstopo:routepoint_id>
				</extensions>
			</trkpt>
			<trkpt lat="47.0297236363" lon="7.4382182972">
				<ele>526.8</ele>
				<time>2021-04-12T09:59:06+02:00</time>
				<extensions>
					<swisstopo:routepoint_id>595918476</swisstopo:routepoint_id>
				</extensions>
			</trkpt>
			<trkpt lat="47.0298210880" lon="7.4380421897">
				<ele>526.8</ele>
				<time>2021-04-12T09:59:07+02:00</time>
				<extensions>
					<swisstopo:routepoint_id>1885580171</swisstopo:routepoint_id>
				</extensions>
			</trkpt>
			<trkpt lat="47.0299191563" lon="7.4378631976">
				<ele>526.7</ele>
				<time>2021-04-12T09:59:08+02:00</time>
				<extensions>
					<swisstopo:routepoint_id>529755218</swisstopo:routepoint_id>
				</extensions>
			</trkpt>
			<trkpt lat="47.0300176868" lon="7.4376824968">
				<ele>526.7</ele>
				<time>2021-04-12T09:59:09+02:00</time>
				<extensions>
					<swisstopo:routepoint_id>128748464</swisstopo:routepoint_id>
				</extensions>
			</trkpt>
			<trkpt lat="47.0301164604" lon="7.4375010836">
				<ele>526.6</ele>
				<time>2021-04-12T09:59:10+02:00</time>
				<extensions>
					<swisstopo:routepoint_id>1359401919</swisstopo:routepoint_id>
				</extensions>
			</trkpt>
			<trkpt lat="47.0302151847" lon="7.4373195766">
				<ele>526.6</ele>
				<time>2021-04-12T09:59:11+02:00</time>
				<extensions>
					<swisstopo:routepoint_id>389532200</swisstopo:routepoint_id>
				</extensions>
			</trkpt>
			<trkpt lat="47.0303133943" lon="7.4371385780">
				<ele>526.5</ele>
				<time>2021-04-12T09:59:12+02:00</time>
				<extensions>
					<swisstopo:routepoint_id>1337529344</swisstopo:routepoint_id>
				</extensions>
			</trkpt>
			<trkpt lat="47.0304108176" lon="7.4369585648">
				<ele>526.5</ele>
				<time>2021-04-12T09:59:13+02:00</time>
				<extensions>
					<swisstopo:routepoint_id>2144351459</swisstopo:routepoint_id>
				</extensions>
			</trkpt>
			<trkpt lat="47.0305076675" lon="7.4367799959">
				<ele>526.5</ele>
				<time>2021-04-12T09:59:14+02:00</time>
				<extensions>
					<swisstopo:routepoint_id>1044407459</swisstopo:routepoint_id>
				</extensions>
			</trkpt>
			<trkpt lat="47.0306038651" lon="7.4366038093">
				<ele>526.5</ele>
				<time>2021-04-12T09:59:15+02:00</time>
				<extensions>
					<swisstopo:routepoint_id>1972316482</swisstopo:routepoint_id>
				</extensions>
			</trkpt>
			<trkpt lat="47.0306994502" lon="7.4364301513">
				<ele>526.5</ele>
				<time>2021-04-12T09:59:16+02:00</time>
				<extensions>
					<swisstopo:routepoint_id>165537882</swisstopo:routepoint_id>
				</extensions>
			</trkpt>
			<trkpt lat="47.0307944667" lon="7.4362581699">
				<ele>526.5</ele>
				<time>2021-04-12T09:59:17+02:00</time>
				<extensions>
					<swisstopo:routepoint_id>1203859909</swisstopo:routepoint_id>
				</extensions>
			</trkpt>
			<trkpt lat="47.0308889635" lon="7.4360873638">
				<ele>526.5</ele>
				<time>2021-04-12T09:59:18+02:00</time>
				<extensions>
					<swisstopo:routepoint_id>1830052176</swisstopo:routepoint_id>
				</extensions>
			</trkpt>
			<trkpt lat="47.0309834532" lon="7.4359169875">
				<ele>526.5</ele>
				<time>2021-04-12T09:59:19+02:00</time>
				<extensions>
					<swisstopo:routepoint_id>1426129698</swisstopo:routepoint_id>
				</extensions>
			</trkpt>
			<trkpt lat="47.0310780743" lon="7.4357459317">
				<ele>526.5</ele>
				<time>2021-04-12T09:59:20+02:00</time>
				<extensions>
					<swisstopo:routepoint_id>896850119</swisstopo:routepoint_id>
				</extensions>
			</trkpt>
			<trkpt lat="47.0311727953" lon="7.4355734511">
				<ele>526.5</ele>
				<time>2021-04-12T09:59:21+02:00</time>
				<extensions>
					<swisstopo:routepoint_id>172231740</swisstopo:routepoint_id>
				</extensions>
			</trkpt>
			<trkpt lat="47.0312676301" lon="7.4353989405">
				<ele>526.6</ele>
				<time>2021-04-12T09:59:22+02:00</time>
				<extensions>
					<swisstopo:routepoint_id>2038381671</swisstopo:routepoint_id>
				</extensions>
			</trkpt>
			<trkpt lat="47.0313627615" lon="7.4352230164">
				<ele>526.6</ele>
				<time>2021-04-12T09:59:23+02:00</time>
				<extensions>
					<swisstopo:routepoint_id>274123906</swisstopo:routepoint_id>
				</extensions>
			</trkpt>
			<trkpt lat="47.0314583888" lon="7.4350462900">
				<ele>526.6</ele>
				<time>2021-04-12T09:59:24+02:00</time>
				<extensions>
					<swisstopo:routepoint_id>848065327</swisstopo:routepoint_id>
				</extensions>
			</trkpt>
			<trkpt lat="47.0315545667" lon="7.4348689577">
				<ele>526.7</ele>
				<time>2021-04-12T09:59:25+02:00</time>
				<extensions>
					<swisstopo:routepoint_id>584985750</swisstopo:routepoint_id>
				</extensions>
			</trkpt>
			<trkpt lat="47.0316513476" lon="7.4346917793">
				<ele>526.7</ele>
				<time>2021-04-12T09:59:26+02:00</time>
				<extensions>
					<swisstopo:routepoint_id>675364284</swisstopo:routepoint_id>
				</extensions>
			</trkpt>
			<trkpt lat="47.0317490255" lon="7.4345145911">
				<ele>526.8</ele>
				<time>2021-04-12T09:59:27+02:00</time>
				<extensions>
					<swisstopo:routepoint_id>1396446793</swisstopo:routepoint_id>
				</extensions>
			</trkpt>
			<trkpt lat="47.0318474976" lon="7.4343370209">
				<ele>526.9</ele>
				<time>2021-04-12T09:59:28+02:00</time>
				<extensions>
					<swisstopo:routepoint_id>232471888</swisstopo:routepoint_id>
				</extensions>
			</trkpt>
			<trkpt lat="47.0319463646" lon="7.4341585283">
				<ele>527.0</ele>
				<time>2021-04-12T09:59:29+02:00</time>
				<extensions>
					<swisstopo:routepoint_id>882267723</swisstopo:routepoint_id>
				</extensions>
			</trkpt>
			<trkpt lat="47.0320451954" lon="7.4339797510">
				<ele>527.1</ele>
				<time>2021-04-12T09:59:30+02:00</time>
				<extensions>
					<swisstopo:routepoint_id>2046521573</swisstopo:routepoint_id>
				</extensions>
			</trkpt>
			<trkpt lat="47.0321439746" lon="7.4338008995">
				<ele>527.2</ele>
				<time>2021-04-12T09:59:31+02:00</time>
				<extensions>
					<swisstopo:routepoint_id>1789987059</swisstopo:routepoint_id>
				</extensions>
			</trkpt>
			<trkpt lat="47.0322428389" lon="7.4336216257">
				<ele>527.3</ele>
				<time>2021-04-12T09:59:32+02:00</time>
				<extensions>
					<swisstopo:routepoint_id>214089790</swisstopo:routepoint_id>
				</extensions>
			</trkpt>
			<trkpt lat="47.0323420257" lon="7.4334415814">
				<ele>527.4</ele>
				<time>2021-04-12T09:59:33+02:00</time>
				<extensions>
					<swisstopo:routepoint_id>1171991805</swisstopo:routepoint_id>
				</extensions>
			</trkpt>
			<trkpt lat="47.0324412583" lon="7.4332605711">
				<ele>527.5</ele>
				<time>2021-04-12T09:59:34+02:00</time>
				<extensions>
					<swisstopo:routepoint_id>946256351</swisstopo:routepoint_id>
				</extensions>
			</trkpt>
			<trkpt lat="47.0325406285" lon="7.4330790343">
				<ele>527.6</ele>
				<time>2021-04-12T09:59:35+02:00</time>
				<extensions>
					<swisstopo:routepoint_id>1614085222</swisstopo:routepoint_id>
				</extensions>
			</trkpt>
			<trkpt lat="47.0326397895" lon="7.4328978253">
				<ele>527.7</ele>
				<time>2021-04-12T09:59:36+02:00</time>
				<extensions>
					<swisstopo:routepoint_id>916897250</swisstopo:routepoint_id>
				</extensions>
			</trkpt>
			<trkpt lat="47.0327381257" lon="7.4327180451">
				<ele>527.7</ele>
				<time>2021-04-12T09:59:37+02:00</time>
				<extensions>
					<swisstopo:routepoint_id>2096913525</swisstopo:routepoint_id>
				</extensions>
			</trkpt>
			<trkpt lat="47.0328351896" lon="7.4325406121">
				<ele>527.8</ele>
				<time>2021-04-12T09:59:38+02:00</time>
				<extensions>
					<swisstopo:routepoint_id>471483758</swisstopo:routepoint_id>
				</extensions>
			</trkpt>
			<trkpt lat="47.0329302922" lon="7.4323661855">
				<ele>527.8</ele>
				<time>2021-04-12T09:59:39+02:00</time>
				<extensions>
					<swisstopo:routepoint_id>12863276</swisstopo:routepoint_id>
				</extensions>
			</trkpt>
			<trkpt lat="47.0330232593" lon="7.4321953060">
				<ele>527.9</ele>
				<time>2021-04-12T09:59:40+02:00</time>
				<extensions>
					<swisstopo:routepoint_id>1444715032</swisstopo:routepoint_id>
				</extensions>
			</trkpt>
			<trkpt lat="47.0331135455" lon="7.4320285425">
				<ele>527.9</ele>
				<time>2021-04-12T09:59:41+02:00</time>
				<extensions>
					<swisstopo:routepoint_id>1875429842</swisstopo:routepoint_id>
				</extensions>
			</trkpt>
			<trkpt lat="47.0332010152" lon="7.4318662638">
				<ele>527.9</ele>
				<time>2021-04-12T09:59:42+02:00</time>
				<extensions>
					<swisstopo:routepoint_id>1731867475</swisstopo:routepoint_id>
				</extensions>
			</trkpt>
			<trkpt lat="47.0332856229" lon="7.4317093677">
				<ele>528.0</ele>
				<time>2021-04-12T09:59:43+02:00</time>
				<extensions>
					<swisstopo:routepoint_id>503300887</swisstopo:routepoint_id>
				</extensions>
			</trkpt>
			<trkpt lat="47.0333668303" lon="7.4315595242">
				<ele>528.0</ele>
				<time>2021-04-12T09:59:44+02:00</time>
				<extensions>
					<swisstopo:routepoint_id>39922276</swisstopo:routepoint_id>
				</extensions>
			</trkpt>
			<trkpt lat="47.0334433289" lon="7.4314184029">
				<ele>528.0</ele>
				<time>2021-04-12T09:59:45+02:00</time>
				<extensions>
					<swisstopo:routepoint_id>958794868</swisstopo:routepoint_id>
				</extensions>
			</trkpt>
			<trkpt lat="47.0335135937" lon="7.4312888796">
				<ele>528.0</ele>
				<time>2021-04-12T09:59:46+02:00</time>
				<extensions>
					<swisstopo:routepoint_id>1895543035</swisstopo:routepoint_id>
				</extensions>
			</trkpt>
			<trkpt lat="47.0335771056" lon="7.4311731964">
				<ele>528.0</ele>
				<time>2021-04-12T09:59:47+02:00</time>
				<extensions>
					<swisstopo:routepoint_id>471886000</swisstopo:routepoint_id>
				</extensions>
			</trkpt>
			<trkpt lat="47.0336350376" lon="7.4310748535">
				<ele>528.0</ele>
				<time>2021-04-12T09:59:48+02:00</time>
				<extensions>
					<swisstopo:routepoint_id>330893629</swisstopo:routepoint_id>
				</extensions>
			</trkpt>
			<trkpt lat="47.0336905600" lon="7.4309987026">
				<ele>528.0</ele>
				<time>2021-04-12T09:59:49+02:00</time>
				<extensions>
					<swisstopo:routepoint_id>1494060520</swisstopo:routepoint_id>
				</extensions>
			</trkpt>
			<trkpt lat="47.0337453971" lon="7.4309495850">
				<ele>528.0</ele>
				<time>2021-04-12T09:59:50+02:00</time>
				<extensions>
					<swisstopo:routepoint_id>148875269</swisstopo:routepoint_id>
				</extensions>
			</trkpt>
			<trkpt lat="47.0337990821" lon="7.4309315436">
				<ele>527.9</ele>
				<time>2021-04-12T09:59:51+02:00</time>
				<extensions>
					<swisstopo:routepoint_id>328197328</swisstopo:routepoint_id>
				</extensions>
			</trkpt>
			<trkpt lat="47.0338521117" lon="7.4309467895">
				<ele>527.9</ele>
				<time>2021-04-12T09:59:52+02:00</time>
				<extensions>
					<swisstopo:routepoint_id>1274486200</swisstopo:routepoint_id>
				</extensions>
			</trkpt>
			<trkpt lat="47.0339049346" lon="7.4309963976">
				<ele>527.9</ele>
				<time>2021-04-12T09:59:53+02:00</time>
				<extensions>
					<swisstopo:routepoint_id>1287668222</swisstopo:routepoint_id>
				</extensions>
			</trkpt>
			<trkpt lat="47.0339587152" lon="7.4310768046">
				<ele>528.0</ele>
				<time>2021-04-12T09:59:54+02:00</time>
				<extensions>
					<swisstopo:routepoint_id>1647096335</swisstopo:routepoint_id>
				</extensions>
			</trkpt>
			<trkpt lat="47.0340142566" lon="7.4311824643">
				<ele>528.1</ele>
				<time>2021-04-12T09:59:55+02:00</time>
				<extensions>
					<swisstopo:routepoint_id>1683892515</swisstopo:routepoint_id>
				</extensions>
			</trkpt>
			<trkpt lat="47.0340716038" lon="7.4313065966">
				<ele>528.2</ele>
				<time>2021-04-12T09:59:56+02:00</time>
				<extensions>
					<swisstopo:routepoint_id>1641999439</swisstopo:routepoint_id>
				</extensions>
			</trkpt>
			<trkpt lat="47.0341298970" lon="7.4314440074">
				<ele>528.2</ele>
				<time>2021-04-12T09:59:57+02:00</time>
				<extensions>
					<swisstopo:routepoint_id>1919707323</swisstopo:routepoint_id>
				</extensions>
			</trkpt>
			<trkpt lat="47.0341867350" lon="7.4315910788">
				<ele>528.3</ele>
				<time>2021-04-12T09:59:58+02:00</time>
				<extensions>
					<swisstopo:routepoint_id>726665133</swisstopo:routepoint_id>
				</extensions>
			</trkpt>
			<trkpt lat="47.0342387803" lon="7.4317448512">
				<ele>528.3</ele>
				<time>2021-04-12T09:59:59+02:00</time>
				<extensions>
					<swisstopo:routepoint_id>321389842</swisstopo:routepoint_id>
				</extensions>
			</trkpt>
			<trkpt lat="47.0342824216" lon="7.4319020990">
				<ele>528.3</ele>
				<time>2021-04-12T10:00:00+02:00</time>
				<extensions>
					<swisstopo:routepoint_id>677702289</swisstopo:routepoint_id>
				</extensions>
			</trkpt>
			<trkpt lat="47.0343152209" lon="7.4320590455">
				<ele>528.2</ele>
				<time>2021-04-12T10:00:01+02:00</time>
				<extensions>
					<swisstopo:routepoint_id>2036591182</swisstopo:routepoint_id>
				</extensions>
			</trkpt>
			<trkpt lat="47.0343363518" lon="7.4322108125">
				<ele>528.2</ele>
				<time>2021-04-12T10:00:02+02:00</time>
				<extensions>
					<swisstopo:routepoint_id>246146341</swisstopo:routepoint_id>
				</extensions>
			</trkpt>
			<trkpt lat="47.0343458824" lon="7.4323535406">
				<ele>528.2</ele>
				<time>2021-04-12T10:00:03+02:00</time>
				<extensions>
					<swisstopo:routepoint_id>928049065</swisstopo:routepoint_id>
				</extensions>
			</trkpt>
			<trkpt lat="47.0343454539" lon="7.4324848955">
				<ele>528.1</ele>
				<time>2021-04-12T10:00:04+02:00</time>
				<extensions>
					<swisstopo:routepoint_id>546907294</swisstopo:routepoint_id>
				</extensions>
			</trkpt>
			<trkpt lat="47.0343372738" lon="7.4326034038">
				<ele>528.1</ele>
				<time>2021-04-12T10:00:05+02:00</time>
				<extensions>
					<swisstopo:routepoint_id>640881098</swisstopo:routepoint_id>
				</extensions>
			</trkpt>
			<trkpt lat="47.0343232911" lon="7.4327091148">
				<ele>528.0</ele>
				<time>2021-04-12T10:00:06+02:00</time>
				<extensions>
					<swisstopo:routepoint_id>1658124381</swisstopo:routepoint_id>
				</extensions>
			</trkpt>
			<trkpt lat="47.0343052585" lon="7.4328024190">
				<ele>528.0</ele>
				<time>2021-04-12T10:00:07+02:00</time>
				<extensions>
					<swisstopo:routepoint_id>201184348</swisstopo:routepoint_id>
				</extensions>
			</trkpt>
			<trkpt lat="47.0342844974" lon="7.4328850199">
				<ele>527.9</ele>
				<time>2021-04-12T10:00:08+02:00</time>
				<extensions>
					<swisstopo:routepoint_id>1166076458</swisstopo:routepoint_id>
				</extensions>
			</trkpt>
			<trkpt lat="47.0342620591" lon="7.4329595544">
				<ele>527.9</ele>
				<time>2021-04-12T10:00:09+02:00</time>
				<extensions>
					<swisstopo:routepoint_id>311267084</swisstopo:routepoint_id>
				</extensions>
			</trkpt>
			<trkpt lat="47.0342385533" lon="7.4330291158">
				<ele>527.8</ele>
				<time>2021-04-12T10:00:10+02:00</time>
				<extensions>
					<swisstopo:routepoint_id>195716696</swisstopo:routepoint_id>
				</extensions>
			</trkpt>
			<trkpt lat="47.0342144112" lon="7.4330962172">
				<ele>527.8</ele>
				<time>2021-04-12T10:00:11+02:00</time>
				<extensions>
					<swisstopo:routepoint_id>1613046115</swisstopo:routepoint_id>
				</extensions>
			</trkpt>
			<trkpt lat="47.0341900769" lon="7.4331640738">
				<ele>527.7</ele>
				<time>2021-04-12T10:00:12+02:00</time>
				<extensions>
					<swisstopo:routepoint_id>632495077</swisstopo:routepoint_id>
				</extensions>
			</trkpt>
			<trkpt lat="47.0341656990" lon="7.4332364013">
				<ele>527.7</ele>
				<time>2021-04-12T10:00:13+02:00</time>
				<extensions>
					<swisstopo:routepoint_id>300706489</swisstopo:routepoint_id>
				</extensions>
			</trkpt>
			<trkpt lat="47.0341408343" lon="7.4333172782">
				<ele>527.6</ele>
				<time>2021-04-12T10:00:14+02:00</time>
				<extensions>
					<swisstopo:routepoint_id>944939232</swisstopo:routepoint_id>
				</extensions>
			</trkpt>
			<trkpt lat="47.0341149944" lon="7.4334103036">
				<ele>527.6</ele>
				<time>2021-04-12T10:00:15+02:00</time>
				<extensions>
					<swisstopo:routepoint_id>952102659</swisstopo:routepoint_id>
				</extensions>
			</trkpt>
			<trkpt lat="47.0340878406" lon="7.4335181559">
				<ele>527.5</ele>
				<time>2021-04-12T10:00:16+02:00</time>
				<extensions>
					<swisstopo:routepoint_id>1088736016</swisstopo:routepoint_id>
				</extensions>
			</trkpt>
			<trkpt lat="47.0340591862" lon="7.4336418733">
				<ele>527.5</ele>
				<time>2021-04-12T10:00:17+02:00</time>
				<extensions>
					<swisstopo:routepoint_id>1825548472</swisstopo:routepoint_id>
				</extensions>
			</trkpt>
			<trkpt lat="47.0340290682" lon="7.4337812301">
				<ele>527.4</ele>
				<time>2021-04-12T10:00:18+02:00</time>
				<extensions>
					<swisstopo:routepoint_id>894304215</swisstopo:routepoint_id>
				</extensions>
			</trkpt>
			<trkpt lat="47.0339973629" lon="7.4339368035">
				<ele>527.4</ele>
				<time>2021-04-12T10:00:19+02:00</time>
				<extensions>
					<swisstopo:routepoint_id>332896152</swisstopo:routepoint_id>
				</extensions>
			</trkpt>
			<trkpt lat="47.0339638237" lon="7.4341088424">
				<ele>527.3</ele>
				<time>2021-04-12T10:00:20+02:00</time>
				<extensions>
					<swisstopo:routepoint_id>790726229</swisstopo:routepoint_id>
				</extensions>
			</trkpt>
			<trkpt lat="47.0339285738" lon="7.4342963384">
				<ele>527.3</ele>
				<time>2021-04-12T10:00:21+02:00</time>
				<extensions>
					<swisstopo:routepoint_id>1106923167</swisstopo:routepoint_id>
				</extensions>
			</trkpt>
			<trkpt lat="47.0338916841" lon="7.4344981156">
				<ele>527.3</ele>
				<time>2021-04-12T10:00:22+02:00</time>
				<extensions>
					<swisstopo:routepoint_id>406833808</swisstopo:routepoint_id>
				</extensions>
			</trkpt>
			<trkpt lat="47.0338530837" lon="7.4347126093">
				<ele>527.2</ele>
				<time>2021-04-12T10:00:23+02:00</time>
				<extensions>
					<swisstopo:routepoint_id>67879008</swisstopo:routepoint_id>
				</extensions>
			</trkpt>
			<trkpt lat="47.0338128567" lon="7.4349382827">
				<ele>527.2</ele>
				<time>2021-04-12T10:00:24+02:00</time>
				<extensions>
					<swisstopo:routepoint_id>528670899</swisstopo:routepoint_id>
				</extensions>
			</trkpt>
			<trkpt lat="47.0337712106" lon="7.4351740167">
				<ele>527.1</ele>
				<time>2021-04-12T10:00:25+02:00</time>
				<extensions>
					<swisstopo:routepoint_id>1231951854</swisstopo:routepoint_id>
				</extensions>
			</trkpt>
			<trkpt lat="47.0337281967" lon="7.4354182941">
				<ele>527.0</ele>
				<time>2021-04-12T10:00:26+02:00</time>
				<extensions>
					<swisstopo:routepoint_id>1524969451</swisstopo:routepoint_id>
				</extensions>
			</trkpt>
			<trkpt lat="47.0336838817" lon="7.4356702081">
				<ele>526.8</ele>
				<time>2021-04-12T10:00:27+02:00</time>
				<extensions>
					<swisstopo:routepoint_id>2091719659</swisstopo:routepoint_id>
				</extensions>
			</trkpt>
			<trkpt lat="47.0336387588" lon="7.4359285628">
				<ele>526.7</ele>
				<time>2021-04-12T10:00:28+02:00</time>
				<extensions>
					<swisstopo:routepoint_id>1225007423</swisstopo:routepoint_id>
				</extensions>
			</trkpt>
			<trkpt lat="47.0335928694" lon="7.4361920488">
				<ele>526.6</ele>
				<time>2021-04-12T10:00:29+02:00</time>
				<extensions>
					<swisstopo:routepoint_id>774034572</swisstopo:routepoint_id>
				</extensions>
			</trkpt>
			<trkpt lat="47.0335462372" lon="7.4364593683">
				<ele>526.5</ele>
				<time>2021-04-12T10:00:30+02:00</time>
				<extensions>
					<swisstopo:routepoint_id>1890601725</swisstopo:routepoint_id>
				</extensions>
			</trkpt>
			<trkpt lat="47.0334991417" lon="7.4367294966">
				<ele>526.3</ele>
				<time>2021-04-12T10:00:31+02:00</time>
				<extensions>
					<swisstopo:routepoint_id>1175151063</swisstopo:routepoint_id>
				</extensions>
			</trkpt>
			<trkpt lat="47.0334517329" lon="7.4370014908">
				<ele>526.2</ele>
				<time>2021-04-12T10:00:32+02:00</time>
				<extensions>
					<swisstopo:routepoint_id>356814382</swisstopo:routepoint_id>
				</extensions>
			</trkpt>
			<trkpt lat="47.0334042244" lon="7.4372749498">
				<ele>526.1</ele>
				<time>2021-04-12T10:00:33+02:00</time>
				<extensions>
					<swisstopo:routepoint_id>1204975850</swisstopo:routepoint_id>
				</extensions>
			</trkpt>
			<trkpt lat="47.0333568717" lon="7.4375481727">
				<ele>525.9</ele>
				<time>2021-04-12T10:00:34+02:00</time>
				<extensions>
					<swisstopo:routepoint_id>1258319740</swisstopo:routepoint_id>
				</extensions>
			</trkpt>
			<trkpt lat="47.0333095072" lon="7.4378212759">
				<ele>525.8</ele>
				<time>2021-04-12T10:00:35+02:00</time>
				<extensions>
					<swisstopo:routepoint_id>160914524</swisstopo:routepoint_id>
				</extensions>
			</trkpt>
			<trkpt lat="47.0332623622" lon="7.4380934739">
				<ele>525.7</ele>
				<time>2021-04-12T10:00:36+02:00</time>
				<extensions>
					<swisstopo:routepoint_id>808493295</swisstopo:routepoint_id>
				</extensions>
			</trkpt>
			<trkpt lat="47.0332157195" lon="7.4383646218">
				<ele>525.5</ele>
				<time>2021-04-12T10:00:37+02:00</time>
				<extensions>
					<swisstopo:routepoint_id>1217774496</swisstopo:routepoint_id>
				</extensions>
			</trkpt>
			<trkpt lat="47.0331694752" lon="7.4386345825">
				<ele>525.4</ele>
				<time>2021-04-12T10:00:38+02:00</time>
				<extensions>
					<swisstopo:routepoint_id>1616798362</swisstopo:routepoint_id>
				</extensions>
			</trkpt>
			<trkpt lat="47.0331233391" lon="7.4389034421">
				<ele>525.3</ele>
				<time>2021-04-12T10:00:39+02:00</time>
				<extensions>
					<swisstopo:routepoint_id>1419484643</swisstopo:routepoint_id>
				</extensions>
			</trkpt>
			<trkpt lat="47.0330770900" lon="7.4391716658">
				<ele>525.1</ele>
				<time>2021-04-12T10:00:40+02:00</time>
				<extensions>
					<swisstopo:routepoint_id>882560378</swisstopo:routepoint_id>
				</extensions>
			</trkpt>
			<trkpt lat="47.0330305442" lon="7.4394396873">
				<ele>525.0</ele>
				<time>2021-04-12T10:00:41+02:00</time>
				<extensions>
					<swisstopo:routepoint_id>522723217</swisstopo:routepoint_id>
				</extensions>
			</trkpt>
			<trkpt lat="47.0329839381" lon="7.4397079155">
				<ele>524.9</ele>
				<time>2021-04-12T10:00:42+02:00</time>
				<extensions>
					<swisstopo:routepoint_id>53508242</swisstopo:routepoint_id>
				</extensions>
			</trkpt>
			<trkpt lat="47.0329373019" lon="7.4399764903">
				<ele>524.8</ele>
				<time>2021-04-12T10:00:43+02:00</time>
				<extensions>
					<swisstopo:routepoint_id>1664858848</swisstopo:routepoint_id>
				</extensions>
			</trkpt>
			<trkpt lat="47.0328906139" lon="7.4402457269">
				<ele>524.7</ele>
				<time>2021-04-12T10:00:44+02:00</time>
				<extensions>
					<swisstopo:routepoint_id>1718221573</swisstopo:routepoint_id>
				</extensions>
			</trkpt>
			<trkpt lat="47.0328439512" lon="7.4405157568">
				<ele>524.7</ele>
				<time>2021-04-12T10:00:45+02:00</time>
				<extensions>
					<swisstopo:routepoint_id>937376202</swisstopo:routepoint_id>
				</extensions>
			</trkpt>
			<trkpt lat="47.0327973940" lon="7.4407867150">
				<ele>524.6</ele>
				<time>2021-04-12T10:00:46+02:00</time>
				<extensions>
					<swisstopo:routepoint_id>541792622</swisstopo:routepoint_id>
				</extensions>
			</trkpt>
			<trkpt lat="47.0327503933" lon="7.4410586475">
				<ele>524.5</ele>
				<time>2021-04-12T10:00:47+02:00</time>
				<extensions>
					<swisstopo:routepoint_id>577934674</swisstopo:routepoint_id>
				</extensions>
			</trkpt>
			<trkpt lat="47.0327030476" lon="7.4413314942">
				<ele>524.5</ele>
				<time>2021-04-12T10:00:48+02:00</time>
				<extensions>
					<swisstopo:routepoint_id>279530537</swisstopo:routepoint_id>
				</extensions>
			</trkpt>
			<trkpt lat="47.0326555744" lon="7.4416048374">
				<ele>524.4</ele>
				<time>2021-04-12T10:00:49+02:00</time>
				<extensions>
					<swisstopo:routepoint_id>1522999370</swisstopo:routepoint_id>
				</extensions>
			</trkpt>
			<trkpt lat="47.0326079093" lon="7.4418792412">
				<ele>524.4</ele>
				<time>2021-04-12T10:00:50+02:00</time>
				<extensions>
					<swisstopo:routepoint_id>1192822997</swisstopo:routepoint_id>
				</extensions>
			</trkpt>
			<trkpt lat="47.0325601102" lon="7.4421540924">
				<ele>524.3</ele>
				<time>2021-04-12T10:00:51+02:00</time>
				<extensions>
					<swisstopo:routepoint_id>1016265834</swisstopo:routepoint_id>
				</extensions>
			</trkpt>
			<trkpt lat="47.0325122063" lon="7.4424295500">
				<ele>524.3</ele>
				<time>2021-04-12T10:00:52+02:00</time>
				<extensions>
					<swisstopo:routepoint_id>1442427447</swisstopo:routepoint_id>
				</extensions>
			</trkpt>
			<trkpt lat="47.0324640804" lon="7.4427060188">
				<ele>524.3</ele>
				<time>2021-04-12T10:00:53+02:00</time>
				<extensions>
					<swisstopo:routepoint_id>2082694393</swisstopo:routepoint_id>
				</extensions>
			</trkpt>
			<trkpt lat="47.0324156669" lon="7.4429834238">
				<ele>524.3</ele>
				<time>2021-04-12T10:00:54+02:00</time>
				<extensions>
					<swisstopo:routepoint_id>2008700698</swisstopo:routepoint_id>
				</extensions>
			</trkpt>
			<trkpt lat="47.0323669248" lon="7.4432614826">
				<ele>524.3</ele>
				<time>2021-04-12T10:00:55+02:00</time>
				<extensions>
					<swisstopo:routepoint_id>1789700446</swisstopo:routepoint_id>
				</extensions>
			</trkpt>
			<trkpt lat="47.0323179976" lon="7.4435397187">
				<ele>524.3</ele>
				<time>2021-04-12T10:00:56+02:00</time>
				<extensions>
					<swisstopo:routepoint_id>1839436040</swisstopo:routepoint_id>
				</extensions>
			</trkpt>
			<trkpt lat="47.0322692163" lon="7.4438173453">
				<ele>524.3</ele>
				<time>2021-04-12T10:00:57+02:00</time>
				<extensions>
					<swisstopo:routepoint_id>226942068</swisstopo:routepoint_id>
				</extensions>
			</trkpt>
			<trkpt lat="47.0322206303" lon="7.4440937771">
				<ele>524.4</ele>
				<time>2021-04-12T10:00:58+02:00</time>
				<extensions>
					<swisstopo:routepoint_id>284379804</swisstopo:routepoint_id>
				</extensions>
			</trkpt>
			<trkpt lat="47.0321723389" lon="7.4443692103">
				<ele>524.4</ele>
				<time>2021-04-12T10:00:59+02:00</time>
				<extensions>
					<swisstopo:routepoint_id>1420251253</swisstopo:routepoint_id>
				</extensions>
			</trkpt>
			<trkpt lat="47.0321243244" lon="7.4446433949">
				<ele>524.4</ele>
				<time>2021-04-12T10:01:00+02:00</time>
				<extensions>
					<swisstopo:routepoint_id>882072766</swisstopo:routepoint_id>
				</extensions>
			</trkpt>
			<trkpt lat="47.0320767744" lon="7.4449155758">
				<ele>524.5</ele>
				<time>2021-04-12T10:01:01+02:00</time>
				<extensions>
					<swisstopo:routepoint_id>917362921</swisstopo:routepoint_id>
				</extensions>
			</trkpt>
			<trkpt lat="47.0320297011" lon="7.4451843845">
				<ele>524.5</ele>
				<time>2021-04-12T10:01:02+02:00</time>
				<extensions>
					<swisstopo:routepoint_id>1333511434</swisstopo:routepoint_id>
				</extensions>
			</trkpt>
			<trkpt lat="47.0319833040" lon="7.4454490104">
				<ele>524.5</ele>
				<time>2021-04-12T10:01:03+02:00</time>
				<extensions>
					<swisstopo:routepoint_id>1187331146</swisstopo:routepoint_id>
				</extensions>
			</trkpt>
			<trkpt lat="47.0319378243" lon="7.4457084562">
				<ele>524.5</ele>
				<time>2021-04-12T10:01:04+02:00</time>
				<extensions>
					<swisstopo:routepoint_id>1056522898</swisstopo:routepoint_id>
				</extensions>
			</trkpt>
			<trkpt lat="47.0318934268" lon="7.4459619319">
				<ele>524.5</ele>
				<time>2021-04-12T10:01:05+02:00</time>
				<extensions>
					<swisstopo:routepoint_id>1585553290</swisstopo:routepoint_id>
				</extensions>
			</trkpt>
			<trkpt lat="47.0318502242" lon="7.4462086938">
				<ele>524.5</ele>
				<time>2021-04-12T10:01:06+02:00</time>
				<extensions>
					<swisstopo:routepoint_id>269569407</swisstopo:routepoint_id>
				</extensions>
			</trkpt>
			<trkpt lat="47.0318082334" lon="7.4464488225">
				<ele>524.5</ele>
				<time>2021-04-12T10:01:07+02:00</time>
				<extensions>
					<swisstopo:routepoint_id>1610011926</swisstopo:routepoint_id>
				</extensions>
			</trkpt>
			<trkpt lat="47.0317674190" lon="7.4466824581">
				<ele>524.4</ele>
				<time>2021-04-12T10:01:08+02:00</time>
				<extensions>
					<swisstopo:routepoint_id>1176488082</swisstopo:routepoint_id>
				</extensions>
			</trkpt>
			<trkpt lat="47.0317274725" lon="7.4469103977">
				<ele>524.4</ele>
				<time>2021-04-12T10:01:09+02:00</time>
				<extensions>
					<swisstopo:routepoint_id>1353256245</swisstopo:routepoint_id>
				</extensions>
			</trkpt>
			<trkpt lat="47.0316881754" lon="7.4471332067">
				<ele>524.4</ele>
				<time>2021-04-12T10:01:10+02:00</time>
				<extensions>
					<swisstopo:routepoint_id>178404338</swisstopo:routepoint_id>
				</extensions>
			</trkpt>
			<trkpt lat="47.0316495093" lon="7.4473513916">
				<ele>524.5</ele>
				<time>2021-04-12T10:01:11+02:00</time>
				<extensions>
					<swisstopo:routepoint_id>554537554</swisstopo:routepoint_id>
				</extensions>
			</trkpt>
			<trkpt lat="47.0316115535" lon="7.4475660837">
				<ele>524.5</ele>
				<time>2021-04-12T10:01:12+02:00</time>
				<extensions>
					<swisstopo:routepoint_id>33642098</swisstopo:routepoint_id>
				</extensions>
			</trkpt>
			<trkpt lat="47.0315739843" lon="7.4477781018">
				<ele>524.5</ele>
				<time>2021-04-12T10:01:13+02:00</time>
				<extensions>
					<swisstopo:routepoint_id>634541925</swisstopo:routepoint_id>
				</extensions>
			</trkpt>
			<trkpt lat="47.0315366175" lon="7.4479881544">
				<ele>524.5</ele>
				<time>2021-04-12T10:01:14+02:00</time>
				<extensions>
					<swisstopo:routepoint_id>342342473</swisstopo:routepoint_id>
				</extensions>
			</trkpt>
			<trkpt lat="47.0314996461" lon="7.4481969836">
				<ele>524.6</ele>
				<time>2021-04-12T10:01:15+02:00</time>
				<extensions>
					<swisstopo:routepoint_id>641253398</swisstopo:routepoint_id>
				</extensions>
			</trkpt>
			<trkpt lat="47.0314633218" lon="7.4484050306">
				<ele>524.6</ele>
				<time>2021-04-12T10:01:16+02:00</time>
				<extensions>
					<swisstopo:routepoint_id>1472919540</swisstopo:routepoint_id>
				</extensions>
			</trkpt>
			<trkpt lat="47.0314273033" lon="7.4486126695">
				<ele>524.6</ele>
				<time>2021-04-12T10:01:17+02:00</time>
				<extensions>
					<swisstopo:routepoint_id>1314709811</swisstopo:routepoint_id>
				</extensions>
			</trkpt>
			<trkpt lat="47.0313914012" lon="7.4488212465">
				<ele>524.6</ele>
				<time>2021-04-12T10:01:18+02:00</time>
				<extensions>
					<swisstopo:routepoint_id>868549494</swisstopo:routepoint_id>
				</extensions>
			</trkpt>
			<trkpt lat="47.0313551023" lon="7.4490310272">
				<ele>524.6</ele>
				<time>2021-04-12T10:01:19+02:00</time>
				<extensions>
					<swisstopo:routepoint_id>1264996999</swisstopo:routepoint_id>
				</extensions>
			</trkpt>
			<trkpt lat="47.0313182797" lon="7.4492424262">
				<ele>524.6</ele>
				<time>2021-04-12T10:01:20+02:00</time>
				<extensions>
					<swisstopo:routepoint_id>716456893</swisstopo:routepoint_id>
				</extensions>
			</trkpt>
			<trkpt lat="47.0312811021" lon="7.4494554388">
				<ele>524.6</ele>
				<time>2021-04-12T10:01:21+02:00</time>
				<extensions>
					<swisstopo:routepoint_id>550191922</swisstopo:routepoint_id>
				</extensions>
			</trkpt>
			<trkpt lat="47.0312436904" lon="7.4496704356">
				<ele>524.6</ele>
				<time>2021-04-12T10:01:22+02:00</time>
				<extensions>
					<swisstopo:routepoint_id>11049072</swisstopo:routepoint_id>
				</extensions>
			</trkpt>
			<trkpt lat="47.0312063350" lon="7.4498874421">
				<ele>524.6</ele>
				<time>2021-04-12T10:01:23+02:00</time>
				<extensions>
					<swisstopo:routepoint_id>1018159462</swisstopo:routepoint_id>
				</extensions>
			</trkpt>
			<trkpt lat="47.0311689972" lon="7.4501063729">
				<ele>524.6</ele>
				<time>2021-04-12T10:01:24+02:00</time>
				<extensions>
					<swisstopo:routepoint_id>1056378538</swisstopo:routepoint_id>
				</extensions>
			</trkpt>
			<trkpt lat="47.0311316547" lon="7.4503275174">
				<ele>524.6</ele>
				<time>2021-04-12T10:01:25+02:00</time>
				<extensions>
					<swisstopo:routepoint_id>1306778417</swisstopo:routepoint_id>
				</extensions>
			</trkpt>
			<trkpt lat="47.0310941695" lon="7.4505503434">
				<ele>524.6</ele>
				<time>2021-04-12T10:01:26+02:00</time>
				<extensions>
					<swisstopo:routepoint_id>709596650</swisstopo:routepoint_id>
				</extensions>
			</trkpt>
			<trkpt lat="47.0310561576" lon="7.4507749626">
				<ele>524.7</ele>
				<time>2021-04-12T10:01:27+02:00</time>
				<extensions>
					<swisstopo:routepoint_id>1214204759</swisstopo:routepoint_id>
				</extensions>
			</trkpt>
			<trkpt lat="47.0310174913" lon="7.4510013946">
				<ele>524.7</ele>
				<time>2021-04-12T10:01:28+02:00</time>
				<extensions>
					<swisstopo:routepoint_id>1749770719</swisstopo:routepoint_id>
				</extensions>
			</trkpt>
			<trkpt lat="47.0309780751" lon="7.4512292283">
				<ele>524.8</ele>
				<time>2021-04-12T10:01:29+02:00</time>
				<extensions>
					<swisstopo:routepoint_id>755412215</swisstopo:routepoint_id>
				</extensions>
			</trkpt>
			<trkpt lat="47.0309382723" lon="7.4514581691">
				<ele>524.8</ele>
				<time>2021-04-12T10:01:30+02:00</time>
				<extensions>
					<swisstopo:routepoint_id>289776441</swisstopo:routepoint_id>
				</extensions>
			</trkpt>
			<trkpt lat="47.0308983899" lon="7.4516883892">
				<ele>524.8</ele>
				<time>2021-04-12T10:01:31+02:00</time>
				<extensions>
					<swisstopo:routepoint_id>1927216138</swisstopo:routepoint_id>
				</extensions>
			</trkpt>
			<trkpt lat="47.0308585745" lon="7.4519192992">
				<ele>524.8</ele>
				<time>2021-04-12T10:01:32+02:00</time>
				<extensions>
					<swisstopo:routepoint_id>225783665</swisstopo:routepoint_id>
				</extensions>
			</trkpt>
			<trkpt lat="47.0308186747" lon="7.4521503763">
				<ele>524.8</ele>
				<time>2021-04-12T10:01:33+02:00</time>
				<extensions>
					<swisstopo:routepoint_id>142453406</swisstopo:routepoint_id>
				</extensions>
			</trkpt>
			<trkpt lat="47.0307788018" lon="7.4523810816">
				<ele>524.8</ele>
				<time>2021-04-12T10:01:34+02:00</time>
				<extensions>
					<swisstopo:routepoint_id>1917611884</swisstopo:routepoint_id>
				</extensions>
			</trkpt>
			<trkpt lat="47.0307391856" lon="7.4526108531">
				<ele>524.8</ele>
				<time>2021-04-12T10:01:35+02:00</time>
				<extensions>
					<swisstopo:routepoint_id>2015843859</swisstopo:routepoint_id>
				</extensions>
			</trkpt>
			<trkpt lat="47.0306999047" lon="7.4528390399">
				<ele>524.8</ele>
				<time>2021-04-12T10:01:36+02:00</time>
				<extensions>
					<swisstopo:routepoint_id>1585723141</swisstopo:routepoint_id>
				</extensions>
			</trkpt>
			<trkpt lat="47.0306607652" lon="7.4530647104">
				<ele>524.8</ele>
				<time>2021-04-12T10:01:37+02:00</time>
				<extensions>
					<swisstopo:routepoint_id>976771517</swisstopo:routepoint_id>
				</extensions>
			</trkpt>
			<trkpt lat="47.0306219401" lon="7.4532872855">
				<ele>524.8</ele>
				<time>2021-04-12T10:01:38+02:00</time>
				<extensions>
					<swisstopo:routepoint_id>1233888551</swisstopo:routepoint_id>
				</extensions>
			</trkpt>
			<trkpt lat="47.0305836979" lon="7.4535068924">
				<ele>524.8</ele>
				<time>2021-04-12T10:01:39+02:00</time>
				<extensions>
					<swisstopo:routepoint_id>1862781225</swisstopo:routepoint_id>
				</extensions>
			</trkpt>
			<trkpt lat="47.0305460349" lon="7.4537233924">
				<ele>524.8</ele>
				<time>2021-04-12T10:01:40+02:00</time>
				<extensions>
					<swisstopo:routepoint_id>1747442609</swisstopo:routepoint_id>
				</extensions>
			</trkpt>
			<trkpt lat="47.0305089437" lon="7.4539370775">
				<ele>524.8</ele>
				<time>2021-04-12T10:01:41+02:00</time>
				<extensions>
					<swisstopo:routepoint_id>281573091</swisstopo:routepoint_id>
				</extensions>
			</trkpt>
			<trkpt lat="47.0304724309" lon="7.4541476584">
				<ele>524.8</ele>
				<time>2021-04-12T10:01:42+02:00</time>
				<extensions>
					<swisstopo:routepoint_id>1492466096</swisstopo:routepoint_id>
				</extensions>
			</trkpt>
			<trkpt lat="47.0304361774" lon="7.4543546907">
				<ele>524.8</ele>
				<time>2021-04-12T10:01:43+02:00</time>
				<extensions>
					<swisstopo:routepoint_id>1268678512</swisstopo:routepoint_id>
				</extensions>
			</trkpt>
			<trkpt lat="47.0304006387" lon="7.4545581975">
				<ele>524.8</ele>
				<time>2021-04-12T10:01:44+02:00</time>
				<extensions>
					<swisstopo:routepoint_id>314620121</swisstopo:routepoint_id>
				</extensions>
			</trkpt>
			<trkpt lat="47.0303660543" lon="7.4547575898">
				<ele>524.8</ele>
				<time>2021-04-12T10:01:45+02:00</time>
				<extensions>
					<swisstopo:routepoint_id>715634733</swisstopo:routepoint_id>
				</extensions>
			</trkpt>
			<trkpt lat="47.0303322559" lon="7.4549527160">
				<ele>524.8</ele>
				<time>2021-04-12T10:01:46+02:00</time>
				<extensions>
					<swisstopo:routepoint_id>1764534331</swisstopo:routepoint_id>
				</extensions>
			</trkpt>
			<trkpt lat="47.0302989068" lon="7.4551436419">
				<ele>524.8</ele>
				<time>2021-04-12T10:01:47+02:00</time>
				<extensions>
					<swisstopo:routepoint_id>1926819694</swisstopo:routepoint_id>
				</extensions>
			</trkpt>
			<trkpt lat="47.0302658932" lon="7.4553313453">
				<ele>524.8</ele>
				<time>2021-04-12T10:01:48+02:00</time>
				<extensions>
					<swisstopo:routepoint_id>5200298</swisstopo:routepoint_id>
				</extensions>
			</trkpt>
			<trkpt lat="47.0302337122" lon="7.4555150213">
				<ele>524.9</ele>
				<time>2021-04-12T10:01:49+02:00</time>
				<extensions>
					<swisstopo:routepoint_id>1502062606</swisstopo:routepoint_id>
				</extensions>
			</trkpt>
			<trkpt lat="47.0302023208" lon="7.4556941785">
				<ele>524.9</ele>
				<time>2021-04-12T10:01:50+02:00</time>
				<extensions>
					<swisstopo:routepoint_id>1495948557</swisstopo:routepoint_id>
				</extensions>
			</trkpt>
			<trkpt lat="47.0301715939" lon="7.4558683559">
				<ele>524.9</ele>
				<time>2021-04-12T10:01:51+02:00</time>
				<extensions>
					<swisstopo:routepoint_id>1816342070</swisstopo:routepoint_id>
				</extensions>
			</trkpt>
			<trkpt lat="47.0301414495" lon="7.4560382429">
				<ele>524.9</ele>
				<time>2021-04-12T10:01:52+02:00</time>
				<extensions>
					<swisstopo:routepoint_id>781128385</swisstopo:routepoint_id>
				</extensions>
			</trkpt>
			<trkpt lat="47.0301122061" lon="7.4562043988">
				<ele>524.9</ele>
				<time>2021-04-12T10:01:53+02:00</time>
				<extensions>
					<swisstopo:routepoint_id>857232584</swisstopo:routepoint_id>
				</extensions>
			</trkpt>
			<trkpt lat="47.0300837955" lon="7.4563683005">
				<ele>524.9</ele>
				<time>2021-04-12T10:01:54+02:00</time>
				<extensions>
					<swisstopo:routepoint_id>40251565</swisstopo:routepoint_id>
				</extensions>
			</trkpt>
			<trkpt lat="47.0300559593" lon="7.4565295311">
				<ele>524.9</ele>
				<time>2021-04-12T10:01:55+02:00</time>
				<extensions>
					<swisstopo:routepoint_id>50704150</swisstopo:routepoint_id>
				</extensions>
			</trkpt>
			<trkpt lat="47.0300285383" lon="7.4566877287">
				<ele>524.9</ele>
				<time>2021-04-12T10:01:56+02:00</time>
				<extensions>
					<swisstopo:routepoint_id>1781124838</swisstopo:routepoint_id>
				</extensions>
			</trkpt>
			<trkpt lat="47.0300014659" lon="7.4568422546">
				<ele>525.0</ele>
				<time>2021-04-12T10:01:57+02:00</time>
				<extensions>
					<swisstopo:routepoint_id>1590596733</swisstopo:routepoint_id>
				</extensions>
			</trkpt>
			<trkpt lat="47.0299747588" lon="7.4569926099">
				<ele>525.0</ele>
				<time>2021-04-12T10:01:58+02:00</time>
				<extensions>
					<swisstopo:routepoint_id>1282853675</swisstopo:routepoint_id>
				</extensions>
			</trkpt>
			<trkpt lat="47.0299486876" lon="7.4571381054">
				<ele>525.0</ele>
				<time>2021-04-12T10:01:59+02:00</time>
				<extensions>
					<swisstopo:routepoint_id>185899845</swisstopo:routepoint_id>
				</extensions>
			</trkpt>
			<trkpt lat="47.0299234177" lon="7.4572786582">
				<ele>525.0</ele>
				<time>2021-04-12T10:02:00+02:00</time>
				<extensions>
					<swisstopo:routepoint_id>1977472177</swisstopo:routepoint_id>
				</extensions>
			</trkpt>
			<trkpt lat="47.0298991615" lon="7.4574141962">
				<ele>525.0</ele>
				<time>2021-04-12T10:02:01+02:00</time>
				<extensions>
					<swisstopo:routepoint_id>917957867</swisstopo:routepoint_id>
				</extensions>
			</trkpt>
			<trkpt lat="47.0298760097" lon="7.4575446690">
				<ele>525.0</ele>
				<time>2021-04-12T10:02:02+02:00</time>
				<extensions>
					<swisstopo:routepoint_id>595350621</swisstopo:routepoint_id>
				</extensions>
			</trkpt>
			<trkpt lat="47.0298538184" lon="7.4576709559">
				<ele>524.9</ele>
				<time>2021-04-12T10:02:03+02:00</time>
				<extensions>
					<swisstopo:routepoint_id>931575774</swisstopo:routepoint_id>
				</extensions>
			</trkpt>
			<trkpt lat="47.0298319241" lon="7.4577950199">
				<ele>524.9</ele>
				<time>2021-04-12T10:02:04+02:00</time>
				<extensions>
					<swisstopo:routepoint_id>1838246988</swisstopo:routepoint_id>
				</extensions>
			</trkpt>
			<trkpt lat="47.0298099871" lon="7.4579185806">
				<ele>524.7</ele>
				<time>2021-04-12T10:02:05+02:00</time>
				<extensions>
					<swisstopo:routepoint_id>1717381574</swisstopo:routepoint_id>
				</extensions>
			</trkpt>
			<trkpt lat="47.0297879615" lon="7.4580431396">
				<ele>524.6</ele>
				<time>2021-04-12T10:02:06+02:00</time>
				<extensions>
					<swisstopo:routepoint_id>1851898538</swisstopo:routepoint_id>
				</extensions>
			</trkpt>
			<trkpt lat="47.0297660936" lon="7.4581694881">
				<ele>524.5</ele>
				<time>2021-04-12T10:02:07+02:00</time>
				<extensions>
					<swisstopo:routepoint_id>1378232195</swisstopo:routepoint_id>
				</extensions>
			</trkpt>
			<trkpt lat="47.0297444019" lon="7.4582972290">
				<ele>524.4</ele>
				<time>2021-04-12T10:02:08+02:00</time>
				<extensions>
					<swisstopo:routepoint_id>1189884823</swisstopo:routepoint_id>
				</extensions>
			</trkpt>
			<trkpt lat="47.0297230123" lon="7.4584248653">
				<ele>524.3</ele>
				<time>2021-04-12T10:02:09+02:00</time>
				<extensions>
					<swisstopo:routepoint_id>1026499297</swisstopo:routepoint_id>
				</extensions>
			</trkpt>
			<trkpt lat="47.0297022679" lon="7.4585505426">
				<ele>524.3</ele>
				<time>2021-04-12T10:02:10+02:00</time>
				<extensions>
					<swisstopo:routepoint_id>1637548328</swisstopo:routepoint_id>
				</extensions>
			</trkpt>
			<trkpt lat="47.0296829023" lon="7.4586718291">
				<ele>524.2</ele>
				<time>2021-04-12T10:02:11+02:00</time>
				<extensions>
					<swisstopo:routepoint_id>124328744</swisstopo:routepoint_id>
				</extensions>
			</trkpt>
			<trkpt lat="47.0296652179" lon="7.4587861326">
				<ele>524.2</ele>
				<time>2021-04-12T10:02:12+02:00</time>
				<extensions>
					<swisstopo:routepoint_id>91611877</swisstopo:routepoint_id>
				</extensions>
			</trkpt>
			<trkpt lat="47.0296494090" lon="7.4588913951">
				<ele>524.2</ele>
				<time>2021-04-12T10:02:13+02:00</time>
				<extensions>
					<swisstopo:routepoint_id>2122525487</swisstopo:routepoint_id>
				</extensions>
			</trkpt>
			<trkpt lat="47.0296357677" lon="7.4589852031">
				<ele>524.2</ele>
				<time>2021-04-12T10:02:14+02:00</time>
				<extensions>
					<swisstopo:routepoint_id>1434999692</swisstopo:routepoint_id>
				</extensions>
			</trkpt>
			<trkpt lat="47.0296245122" lon="7.4590658913">
				<ele>524.2</ele>
				<time>2021-04-12T10:02:15+02:00</time>
				<extensions>
					<swisstopo:routepoint_id>1798467634</swisstopo:routepoint_id>
				</extensions>
			</trkpt>
			<trkpt lat="47.0296154361" lon="7.4591321230">
				<ele>524.2</ele>
				<time>2021-04-12T10:02:16+02:00</time>
				<extensions>
					<swisstopo:routepoint_id>1013193113</swisstopo:routepoint_id>
				</extensions>
			</trkpt>
			<trkpt lat="47.0296086459" lon="7.4591836294">
				<ele>524.2</ele>
				<time>2021-04-12T10:02:17+02:00</time>
				<extensions>
					<swisstopo:routepoint_id>1338813128</swisstopo:routepoint_id>
				</extensions>
			</trkpt>
			<trkpt lat="47.0296039571" lon="7.4592213596">
				<ele>524.3</ele>
				<time>2021-04-12T10:02:18+02:00</time>
				<extensions>
					<swisstopo:routepoint_id>98589030</swisstopo:routepoint_id>
				</extensions>
			</trkpt>
			<trkpt lat="47.0296009493" lon="7.4592469031">
				<ele>524.3</ele>
				<time>2021-04-12T10:02:19+02:00</time>
				<extensions>
					<swisstopo:routepoint_id>1275935373</swisstopo:routepoint_id>
				</extensions>
			</trkpt>
			<trkpt lat="47.0295992939" lon="7.4592616840">
				<ele>524.3</ele>
				<time>2021-04-12T10:02:20+02:00</time>
				<extensions>
					<swisstopo:routepoint_id>2021598716</swisstopo:routepoint_id>
				</extensions>
			</trkpt>
			<trkpt lat="47.0295987966" lon="7.4592673515">
				<ele>524.4</ele>
				<time>2021-04-12T10:02:21+02:00</time>
				<extensions>
					<swisstopo:routepoint_id>1670840625</swisstopo:routepoint_id>
				</extensions>
			</trkpt>
			<trkpt lat="47.0295992941" lon="7.4592653057">
				<ele>524.4</ele>
				<time>2021-04-12T10:02:22+02:00</time>
				<extensions>
					<swisstopo:routepoint_id>1322216203</swisstopo:routepoint_id>
				</extensions>
			</trkpt>
			<trkpt lat="47.0296003187" lon="7.4592573028">
				<ele>524.4</ele>
				<time>2021-04-12T10:02:23+02:00</time>
				<extensions>
					<swisstopo:routepoint_id>326944665</swisstopo:routepoint_id>
				</extensions>
			</trkpt>
			<trkpt lat="47.0296016951" lon="7.4592450284">
				<ele>524.4</ele>
				<time>2021-04-12T10:02:24+02:00</time>
				<extensions>
					<swisstopo:routepoint_id>1695815629</swisstopo:routepoint_id>
				</extensions>
			</trkpt>
			<trkpt lat="47.0296033252" lon="7.4592301102">
				<ele>524.4</ele>
				<time>2021-04-12T10:02:25+02:00</time>
				<extensions>
					<swisstopo:routepoint_id>170313619</swisstopo:routepoint_id>
				</extensions>
			</trkpt>
			<trkpt lat="47.0296050446" lon="7.4592137343">
				<ele>524.4</ele>
				<time>2021-04-12T10:02:26+02:00</time>
				<extensions>
					<swisstopo:routepoint_id>2012776729</swisstopo:routepoint_id>
				</extensions>
			</trkpt>
			<trkpt lat="47.0296068055" lon="7.4591969625">
				<ele>524.4</ele>
				<time>2021-04-12T10:02:27+02:00</time>
				<extensions>
					<swisstopo:routepoint_id>1576076759</swisstopo:routepoint_id>
				</extensions>
			</trkpt>
			<trkpt lat="47.0296086110" lon="7.4591804667">
				<ele>524.4</ele>
				<time>2021-04-12T10:02:28+02:00</time>
				<extensions>
					<swisstopo:routepoint_id>2058786415</swisstopo:routepoint_id>
				</extensions>
			</trkpt>
			<trkpt lat="47.0296103579" lon="7.4591647683">
				<ele>524.4</ele>
				<time>2021-04-12T10:02:29+02:00</time>
				<extensions>
					<swisstopo:routepoint_id>1766756441</swisstopo:routepoint_id>
				</extensions>
			</trkpt>
			<trkpt lat="47.0296120268" lon="7.4591502950">
				<ele>524.4</ele>
				<time>2021-04-12T10:02:30+02:00</time>
				<extensions>
					<swisstopo:routepoint_id>619116818</swisstopo:routepoint_id>
				</extensions>
			</trkpt>
			<trkpt lat="47.0296135116" lon="7.4591372968">
				<ele>524.4</ele>
				<time>2021-04-12T10:02:31+02:00</time>
				<extensions>
					<swisstopo:routepoint_id>938090411</swisstopo:routepoint_id>
				</extensions>
			</trkpt>
			<trkpt lat="47.0296147941" lon="7.4591257863">
				<ele>524.4</ele>
				<time>2021-04-12T10:02:32+02:00</time>
				<extensions>
					<swisstopo:routepoint_id>1808085050</swisstopo:routepoint_id>
				</extensions>
			</trkpt>
			<trkpt lat="47.0296159839" lon="7.4591157475">
				<ele>524.4</ele>
				<time>2021-04-12T10:02:33+02:00</time>
				<extensions>
					<swisstopo:routepoint_id>1591830300</swisstopo:routepoint_id>
				</extensions>
			</trkpt>
			<trkpt lat="47.0296168798" lon="7.4591073463">
				<ele>524.4</ele>
				<time>2021-04-12T10:02:34+02:00</time>
				<extensions>
					<swisstopo:routepoint_id>540577774</swisstopo:routepoint_id>
				</extensions>
			</trkpt>
			<trkpt lat="47.0296176474" lon="7.4591003998">
				<ele>524.4</ele>
				<time>2021-04-12T10:02:35+02:00</time>
				<extensions>
					<swisstopo:routepoint_id>1634820808</swisstopo:routepoint_id>
				</extensions>
			</trkpt>
			<trkpt lat="47.0296183074" lon="7.4590947655">
				<ele>524.4</ele>
				<time>2021-04-12T10:02:36+02:00</time>
				<extensions>
					<swisstopo:routepoint_id>1527540338</swisstopo:routepoint_id>
				</extensions>
			</trkpt>
			<trkpt lat="47.0296188729" lon="7.4590902464">
				<ele>524.3</ele>
				<time>2021-04-12T10:02:37+02:00</time>
				<extensions>
					<swisstopo:routepoint_id>203460881</swisstopo:routepoint_id>
				</extensions>
			</trkpt>
			<trkpt lat="47.0296193273" lon="7.4590866928">
				<ele>524.3</ele>
				<time>2021-04-12T10:02:38+02:00</time>
				<extensions>
					<swisstopo:routepoint_id>773060943</swisstopo:routepoint_id>
				</extensions>
			</trkpt>
			<trkpt lat="47.0296197723" lon="7.4590840996">
				<ele>524.3</ele>
				<time>2021-04-12T10:02:39+02:00</time>
				<extensions>
					<swisstopo:routepoint_id>559204651</swisstopo:routepoint_id>
				</extensions>
			</trkpt>
			<trkpt lat="47.0296202344" lon="7.4590822596">
				<ele>524.3</ele>
				<time>2021-04-12T10:02:40+02:00</time>
				<extensions>
					<swisstopo:routepoint_id>1164130085</swisstopo:routepoint_id>
				</extensions>
			</trkpt>
			<trkpt lat="47.0296206363" lon="7.4590811594">
				<ele>524.3</ele>
				<time>2021-04-12T10:02:41+02:00</time>
				<extensions>
					<swisstopo:routepoint_id>1958314425</swisstopo:routepoint_id>
				</extensions>
			</trkpt>
			<trkpt lat="47.0296209023" lon="7.4590807638">
				<ele>524.3</ele>
				<time>2021-04-12T10:02:42+02:00</time>
				<extensions>
					<swisstopo:routepoint_id>1056167053</swisstopo:routepoint_id>
				</extensions>
			</trkpt>
			<trkpt lat="47.0296210379" lon="7.4590809134">
				<ele>524.3</ele>
				<time>2021-04-12T10:02:43+02:00</time>
				<extensions>
					<swisstopo:routepoint_id>2047317316</swisstopo:routepoint_id>
				</extensions>
			</trkpt>
			<trkpt lat="47.0296211211" lon="7.4590815229">
				<ele>524.3</ele>
				<time>2021-04-12T10:02:44+02:00</time>
				<extensions>
					<swisstopo:routepoint_id>131654131</swisstopo:routepoint_id>
				</extensions>
			</trkpt>
			<trkpt lat="47.0296211830" lon="7.4590824408">
				<ele>524.3</ele>
				<time>2021-04-12T10:02:45+02:00</time>
				<extensions>
					<swisstopo:routepoint_id>802823307</swisstopo:routepoint_id>
				</extensions>
			</trkpt>
			<trkpt lat="47.0296212537" lon="7.4590834957">
				<ele>524.3</ele>
				<time>2021-04-12T10:02:46+02:00</time>
				<extensions>
					<swisstopo:routepoint_id>411566648</swisstopo:routepoint_id>
				</extensions>
			</trkpt>
			<trkpt lat="47.0296213500" lon="7.4590845222">
				<ele>524.3</ele>
				<time>2021-04-12T10:02:47+02:00</time>
				<extensions>
					<swisstopo:routepoint_id>155825949</swisstopo:routepoint_id>
				</extensions>
			</trkpt>
			<trkpt lat="47.0296213937" lon="7.4590859136">
				<ele>524.4</ele>
				<time>2021-04-12T10:02:48+02:00</time>
				<extensions>
					<swisstopo:routepoint_id>1184159150</swisstopo:routepoint_id>
				</extensions>
			</trkpt>
			<trkpt lat="47.0296213137" lon="7.4590880815">
				<ele>524.4</ele>
				<time>2021-04-12T10:02:49+02:00</time>
				<extensions>
					<swisstopo:routepoint_id>1431877301</swisstopo:routepoint_id>
				</extensions>
			</trkpt>
			<trkpt lat="47.0296210077" lon="7.4590915464">
				<ele>524.4</ele>
				<time>2021-04-12T10:02:50+02:00</time>
				<extensions>
					<swisstopo:routepoint_id>860049625</swisstopo:routepoint_id>
				</extensions>
			</trkpt>
			<trkpt lat="47.0296203706" lon="7.4590970740">
				<ele>524.4</ele>
				<time>2021-04-12T10:02:51+02:00</time>
				<extensions>
					<swisstopo:routepoint_id>141619418</swisstopo:routepoint_id>
				</extensions>
			</trkpt>
			<trkpt lat="47.0296191819" lon="7.4591052904">
				<ele>524.4</ele>
				<time>2021-04-12T10:02:52+02:00</time>
				<extensions>
					<swisstopo:routepoint_id>785677450</swisstopo:routepoint_id>
				</extensions>
			</trkpt>
			<trkpt lat="47.0296173306" lon="7.4591166420">
				<ele>524.4</ele>
				<time>2021-04-12T10:02:53+02:00</time>
				<extensions>
					<swisstopo:routepoint_id>3956747</swisstopo:routepoint_id>
				</extensions>
			</trkpt>
			<trkpt lat="47.0296147519" lon="7.4591310649">
				<ele>524.4</ele>
				<time>2021-04-12T10:02:54+02:00</time>
				<extensions>
					<swisstopo:routepoint_id>2076537419</swisstopo:routepoint_id>
				</extensions>
			</trkpt>
			<trkpt lat="47.0296115331" lon="7.4591481811">
				<ele>524.4</ele>
				<time>2021-04-12T10:02:55+02:00</time>
				<extensions>
					<swisstopo:routepoint_id>1607653736</swisstopo:routepoint_id>
				</extensions>
			</trkpt>
			<trkpt lat="47.0296078227" lon="7.4591672995">
				<ele>524.4</ele>
				<time>2021-04-12T10:02:56+02:00</time>
				<extensions>
					<swisstopo:routepoint_id>197094398</swisstopo:routepoint_id>
				</extensions>
			</trkpt>
			<trkpt lat="47.0296037762" lon="7.4591877788">
				<ele>524.4</ele>
				<time>2021-04-12T10:02:57+02:00</time>
				<extensions>
					<swisstopo:routepoint_id>1145763512</swisstopo:routepoint_id>
				</extensions>
			</trkpt>
			<trkpt lat="47.0295994854" lon="7.4592090063">
				<ele>524.4</ele>
				<time>2021-04-12T10:02:58+02:00</time>
				<extensions>
					<swisstopo:routepoint_id>361483535</swisstopo:routepoint_id>
				</extensions>
			</trkpt>
			<trkpt lat="47.0295949272" lon="7.4592306331">
				<ele>524.4</ele>
				<time>2021-04-12T10:02:59+02:00</time>
				<extensions>
					<swisstopo:routepoint_id>222535382</swisstopo:routepoint_id>
				</extensions>
			</trkpt>
			<trkpt lat="47.0295901804" lon="7.4592522618">
				<ele>524.4</ele>
				<time>2021-04-12T10:03:00+02:00</time>
				<extensions>
					<swisstopo:routepoint_id>1383135847</swisstopo:routepoint_id>
				</extensions>
			</trkpt>
			<trkpt lat="47.0295853450" lon="7.4592735639">
				<ele>524.4</ele>
				<time>2021-04-12T10:03:01+02:00</time>
				<extensions>
					<swisstopo:routepoint_id>2001185401</swisstopo:routepoint_id>
				</extensions>
			</trkpt>
			<trkpt lat="47.0295806422" lon="7.4592937467">
				<ele>524.4</ele>
				<time>2021-04-12T10:03:02+02:00</time>
				<extensions>
					<swisstopo:routepoint_id>34155293</swisstopo:routepoint_id>
				</extensions>
			</trkpt>
			<trkpt lat="47.0295763856" lon="7.4593114698">
				<ele>524.4</ele>
				<time>2021-04-12T10:03:03+02:00</time>
				<extensions>
					<swisstopo:routepoint_id>669875702</swisstopo:routepoint_id>
				</extensions>
			</trkpt>
			<trkpt lat="47.0295729044" lon="7.4593256723">
				<ele>524.3</ele>
				<time>2021-04-12T10:03:04+02:00</time>
				<extensions>
					<swisstopo:routepoint_id>1491645940</swisstopo:routepoint_id>
				</extensions>
			</trkpt>
			<trkpt lat="47.0295702557" lon="7.4593361852">
				<ele>524.3</ele>
				<time>2021-04-12T10:03:05+02:00</time>
				<extensions>
					<swisstopo:routepoint_id>369218502</swisstopo:routepoint_id>
				</extensions>
			</trkpt>
			<trkpt lat="47.0295683247" lon="7.4593435525">
				<ele>524.3</ele>
				<time>2021-04-12T10:03:06+02:00</time>
				<extensions>
					<swisstopo:routepoint_id>1375106931</swisstopo:routepoint_id>
				</extensions>
			</trkpt>
			<trkpt lat="47.0295668629" lon="7.4593488461">
				<ele>524.3</ele>
				<time>2021-04-12T10:03:07+02:00</time>
				<extensions>
					<swisstopo:routepoint_id>203180303</swisstopo:routepoint_id>
				</extensions>
			</trkpt>
			<trkpt lat="47.0295653654" lon="7.4593539387">
				<ele>524.3</ele>
				<time>2021-04-12T10:03:08+02:00</time>
				<extensions>
					<swisstopo:routepoint_id>352353791</swisstopo:routepoint_id>
				</extensions>
			</trkpt>
			<trkpt lat="47.0295631320" lon="7.4593612551">
				<ele>524.4</ele>
				<time>2021-04-12T10:03:09+02:00</time>
				<extensions>
					<swisstopo:routepoint_id>1397750558</swisstopo:routepoint_id>
				</extensions>
			</trkpt>
			<trkpt lat="47.0295593455" lon="7.4593732060">
				<ele>524.4</ele>
				<time>2021-04-12T10:03:10+02:00</time>
				<extensions>
					<swisstopo:routepoint_id>670013773</swisstopo:routepoint_id>
				</extensions>
			</trkpt>
			<trkpt lat="47.0295529822" lon="7.4593915624">
				<ele>524.4</ele>
				<time>2021-04-12T10:03:11+02:00</time>
				<extensions>
					<swisstopo:routepoint_id>1664721590</swisstopo:routepoint_id>
				</extensions>
			</trkpt>
			<trkpt lat="47.0295427636" lon="7.4594174029">
				<ele>524.4</ele>
				<time>2021-04-12T10:03:12+02:00</time>
				<extensions>
					<swisstopo:routepoint_id>1558810014</swisstopo:routepoint_id>
				</extensions>
			</trkpt>
			<trkpt lat="47.0295280262" lon="7.4594513990">
				<ele>524.3</ele>
				<time>2021-04-12T10:03:13+02:00</time>
				<extensions>
					<swisstopo:routepoint_id>1766895545</swisstopo:routepoint_id>
				</extensions>
			</trkpt>
			<trkpt lat="47.0295100978" lon="7.4594942656">
				<ele>524.3</ele>
				<time>2021-04-12T10:03:14+02:00</time>
				<extensions>
					<swisstopo:routepoint_id>809554099</swisstopo:routepoint_id>
				</extensions>
			</trkpt>
			<trkpt lat="47.0294926182" lon="7.4595462928">
				<ele>524.2</ele>
				<time>2021-04-12T10:03:15+02:00</time>
				<extensions>
					<swisstopo:routepoint_id>1866838148</swisstopo:routepoint_id>
				</extensions>
			</trkpt>
			<trkpt lat="47.0294781351" lon="7.4596068854">
				<ele>524.2</ele>
				<time>2021-04-12T10:03:16+02:00</time>
				<extensions>
					<swisstopo:routepoint_id>1212670766</swisstopo:routepoint_id>
				</extensions>
			</trkpt>
			<trkpt lat="47.0294668019" lon="7.4596747137">
				<ele>524.2</ele>
				<time>2021-04-12T10:03:17+02:00</time>
				<extensions>
					<swisstopo:routepoint_id>1737754132</swisstopo:routepoint_id>
				</extensions>
			</trkpt>
			<trkpt lat="47.0294573696" lon="7.4597486689">
				<ele>524.3</ele>
				<time>2021-04-12T10:03:18+02:00</time>
				<extensions>
					<swisstopo:routepoint_id>656097324</swisstopo:routepoint_id>
				</extensions>
			</trkpt>
			<trkpt lat="47.0294484155" lon="7.4598285377">
				<ele>524.4</ele>
				<time>2021-04-12T10:03:19+02:00</time>
				<extensions>
					<swisstopo:routepoint_id>1846680770</swisstopo:routepoint_id>
				</extensions>
			</trkpt>
			<trkpt lat="47.0294386422" lon="7.4599138429">
				<ele>524.5</ele>
				<time>2021-04-12T10:03:20+02:00</time>
				<extensions>
					<swisstopo:routepoint_id>1730034946</swisstopo:routepoint_id>
				</extensions>
			</trkpt>
			<trkpt lat="47.0294275656" lon="7.4600043925">
				<ele>524.5</ele>
				<time>2021-04-12T10:03:21+02:00</time>
				<extensions>
					<swisstopo:routepoint_id>1916240689</swisstopo:routepoint_id>
				</extensions>
			</trkpt>
			<trkpt lat="47.0294148477" lon="7.4601008934">
				<ele>524.6</ele>
				<time>2021-04-12T10:03:22+02:00</time>
				<extensions>
					<swisstopo:routepoint_id>445005964</swisstopo:routepoint_id>
				</extensions>
			</trkpt>
			<trkpt lat="47.0294004801" lon="7.4602034714">
				<ele>524.7</ele>
				<time>2021-04-12T10:03:23+02:00</time>
				<extensions>
					<swisstopo:routepoint_id>1677178094</swisstopo:routepoint_id>
				</extensions>
			</trkpt>
			<trkpt lat="47.0293843651" lon="7.4603120304">
				<ele>524.7</ele>
				<time>2021-04-12T10:03:24+02:00</time>
				<extensions>
					<swisstopo:routepoint_id>461875336</swisstopo:routepoint_id>
				</extensions>
			</trkpt>
			<trkpt lat="47.0293665463" lon="7.4604267122">
				<ele>524.8</ele>
				<time>2021-04-12T10:03:25+02:00</time>
				<extensions>
					<swisstopo:routepoint_id>1732871894</swisstopo:routepoint_id>
				</extensions>
			</trkpt>
			<trkpt lat="47.0293474610" lon="7.4605476124">
				<ele>524.9</ele>
				<time>2021-04-12T10:03:26+02:00</time>
				<extensions>
					<swisstopo:routepoint_id>204701844</swisstopo:routepoint_id>
				</extensions>
			</trkpt>
			<trkpt lat="47.0293271195" lon="7.4606749039">
				<ele>525.0</ele>
				<time>2021-04-12T10:03:27+02:00</time>
				<extensions>
					<swisstopo:routepoint_id>155089614</swisstopo:routepoint_id>
				</extensions>
			</trkpt>
			<trkpt lat="47.0293051899" lon="7.4608089799">
				<ele>525.1</ele>
				<time>2021-04-12T10:03:28+02:00</time>
				<extensions>
					<swisstopo:routepoint_id>1693478687</swisstopo:routepoint_id>
				</extensions>
			</trkpt>
			<trkpt lat="47.0292817528" lon="7.4609492691">
				<ele>525.2</ele>
				<time>2021-04-12T10:03:29+02:00</time>
				<extensions>
					<swisstopo:routepoint_id>1695518718</swisstopo:routepoint_id>
				</extensions>
			</trkpt>
			<trkpt lat="47.0292576547" lon="7.4610924704">
				<ele>525.2</ele>
				<time>2021-04-12T10:03:30+02:00</time>
				<extensions>
					<swisstopo:routepoint_id>1622581383</swisstopo:routepoint_id>
				</extensions>
			</trkpt>
			<trkpt lat="47.0292336837" lon="7.4612327468">
				<ele>525.2</ele>
				<time>2021-04-12T10:03:31+02:00</time>
				<extensions>
					<swisstopo:routepoint_id>1977954475</swisstopo:routepoint_id>
				</extensions>
			</trkpt>
			<trkpt lat="47.0292108964" lon="7.4613642056">
				<ele>525.2</ele>
				<time>2021-04-12T10:03:32+02:00</time>
				<extensions>
					<swisstopo:routepoint_id>434005765</swisstopo:routepoint_id>
				</extensions>
			</trkpt>
			<trkpt lat="47.0291901627" lon="7.4614823062">
				<ele>525.2</ele>
				<time>2021-04-12T10:03:33+02:00</time>
				<extensions>
					<swisstopo:routepoint_id>1480427143</swisstopo:routepoint_id>
				</extensions>
			</trkpt>
			<trkpt lat="47.0291718183" lon="7.4615848875">
				<ele>525.1</ele>
				<time>2021-04-12T10:03:34+02:00</time>
				<extensions>
					<swisstopo:routepoint_id>793458259</swisstopo:routepoint_id>
				</extensions>
			</trkpt>
			<trkpt lat="47.0291557838" lon="7.4616733809">
				<ele>525.1</ele>
				<time>2021-04-12T10:03:35+02:00</time>
				<extensions>
					<swisstopo:routepoint_id>1926994790</swisstopo:routepoint_id>
				</extensions>
			</trkpt>
			<trkpt lat="47.0291416988" lon="7.4617518673">
				<ele>525.0</ele>
				<time>2021-04-12T10:03:36+02:00</time>
				<extensions>
					<swisstopo:routepoint_id>800555123</swisstopo:routepoint_id>
				</extensions>
			</trkpt>
			<trkpt lat="47.0291288581" lon="7.4618246502">
				<ele>525.0</ele>
				<time>2021-04-12T10:03:37+02:00</time>
				<extensions>
					<swisstopo:routepoint_id>944903806</swisstopo:routepoint_id>
				</extensions>
			</trkpt>
			<trkpt lat="47.0291165271" lon="7.4618965518">
				<ele>525.0</ele>
				<time>2021-04-12T10:03:38+02:00</time>
				<extensions>
					<swisstopo:routepoint_id>356697877</swisstopo:routepoint_id>
				</extensions>
			</trkpt>
			<trkpt lat="47.0291038617" lon="7.4619721730">
				<ele>524.9</ele>
				<time>2021-04-12T10:03:39+02:00</time>
				<extensions>
					<swisstopo:routepoint_id>1394359962</swisstopo:routepoint_id>
				</extensions>
			</trkpt>
			<trkpt lat="47.0290901160" lon="7.4620555147">
				<ele>524.9</ele>
				<time>2021-04-12T10:03:40+02:00</time>
				<extensions>
					<swisstopo:routepoint_id>1666325270</swisstopo:routepoint_id>
				</extensions>
			</trkpt>
			<trkpt lat="47.0290744362" lon="7.4621504430">
				<ele>524.8</ele>
				<time>2021-04-12T10:03:41+02:00</time>
				<extensions>
					<swisstopo:routepoint_id>594572363</swisstopo:routepoint_id>
				</extensions>
			</trkpt>
			<trkpt lat="47.0290559686" lon="7.4622612980">
				<ele>524.8</ele>
				<time>2021-04-12T10:03:42+02:00</time>
				<extensions>
					<swisstopo:routepoint_id>736295450</swisstopo:routepoint_id>
				</extensions>
			</trkpt>
			<trkpt lat="47.0290341994" lon="7.4623913314">
				<ele>524.7</ele>
				<time>2021-04-12T10:03:43+02:00</time>
				<extensions>
					<swisstopo:routepoint_id>1116854136</swisstopo:routepoint_id>
				</extensions>
			</trkpt>
			<trkpt lat="47.0290089283" lon="7.4625413308">
				<ele>524.7</ele>
				<time>2021-04-12T10:03:44+02:00</time>
				<extensions>
					<swisstopo:routepoint_id>1960388972</swisstopo:routepoint_id>
				</extensions>
			</trkpt>
			<trkpt lat="47.0289799711" lon="7.4627121602">
				<ele>524.6</ele>
				<time>2021-04-12T10:03:45+02:00</time>
				<extensions>
					<swisstopo:routepoint_id>1563340130</swisstopo:routepoint_id>
				</extensions>
			</trkpt>
			<trkpt lat="47.0289475021" lon="7.4629035548">
				<ele>524.5</ele>
				<time>2021-04-12T10:03:46+02:00</time>
				<extensions>
					<swisstopo:routepoint_id>595143865</swisstopo:routepoint_id>
				</extensions>
			</trkpt>
			<trkpt lat="47.0289117145" lon="7.4631137285">
				<ele>524.4</ele>
				<time>2021-04-12T10:03:47+02:00</time>
				<extensions>
					<swisstopo:routepoint_id>1751594976</swisstopo:routepoint_id>
				</extensions>
			</trkpt>
			<trkpt lat="47.0288727741" lon="7.4633398635">
				<ele>524.3</ele>
				<time>2021-04-12T10:03:48+02:00</time>
				<extensions>
					<swisstopo:routepoint_id>1350928556</swisstopo:routepoint_id>
				</extensions>
			</trkpt>
			<trkpt lat="47.0288313496" lon="7.4635796624">
				<ele>524.1</ele>
				<time>2021-04-12T10:03:49+02:00</time>
				<extensions>
					<swisstopo:routepoint_id>1859124608</swisstopo:routepoint_id>
				</extensions>
			</trkpt>
			<trkpt lat="47.0287880061" lon="7.4638308658">
				<ele>523.9</ele>
				<time>2021-04-12T10:03:50+02:00</time>
				<extensions>
					<swisstopo:routepoint_id>420222806</swisstopo:routepoint_id>
				</extensions>
			</trkpt>
			<trkpt lat="47.0287435787" lon="7.4640907186">
				<ele>523.8</ele>
				<time>2021-04-12T10:03:51+02:00</time>
				<extensions>
					<swisstopo:routepoint_id>1758469106</swisstopo:routepoint_id>
				</extensions>
			</trkpt>
			<trkpt lat="47.0286982707" lon="7.4643559175">
				<ele>523.7</ele>
				<time>2021-04-12T10:03:52+02:00</time>
				<extensions>
					<swisstopo:routepoint_id>920314528</swisstopo:routepoint_id>
				</extensions>
			</trkpt>
			<trkpt lat="47.0286524864" lon="7.4646228614">
				<ele>523.6</ele>
				<time>2021-04-12T10:03:53+02:00</time>
				<extensions>
					<swisstopo:routepoint_id>1549046402</swisstopo:routepoint_id>
				</extensions>
			</trkpt>
			<trkpt lat="47.0286069474" lon="7.4648885890">
				<ele>523.6</ele>
				<time>2021-04-12T10:03:54+02:00</time>
				<extensions>
					<swisstopo:routepoint_id>878625833</swisstopo:routepoint_id>
				</extensions>
			</trkpt>
			<trkpt lat="47.0285620547" lon="7.4651502459">
				<ele>523.6</ele>
				<time>2021-04-12T10:03:55+02:00</time>
				<extensions>
					<swisstopo:routepoint_id>966818459</swisstopo:routepoint_id>
				</extensions>
			</trkpt>
			<trkpt lat="47.0285181446" lon="7.4654053579">
				<ele>523.5</ele>
				<time>2021-04-12T10:03:56+02:00</time>
				<extensions>
					<swisstopo:routepoint_id>1456567211</swisstopo:routepoint_id>
				</extensions>
			</trkpt>
			<trkpt lat="47.0284756720" lon="7.4656514108">
				<ele>523.5</ele>
				<time>2021-04-12T10:03:57+02:00</time>
				<extensions>
					<swisstopo:routepoint_id>1359023124</swisstopo:routepoint_id>
				</extensions>
			</trkpt>
			<trkpt lat="47.0284354351" lon="7.4658843485">
				<ele>523.5</ele>
				<time>2021-04-12T10:03:58+02:00</time>
				<extensions>
					<swisstopo:routepoint_id>465575576</swisstopo:routepoint_id>
				</extensions>
			</trkpt>
			<trkpt lat="47.0283976993" lon="7.4661009832">
				<ele>523.5</ele>
				<time>2021-04-12T10:03:59+02:00</time>
				<extensions>
					<swisstopo:routepoint_id>1645779811</swisstopo:routepoint_id>
				</extensions>
			</trkpt>
			<trkpt lat="47.0283631869" lon="7.4662977178">
				<ele>523.4</ele>
				<time>2021-04-12T10:04:00+02:00</time>
				<extensions>
					<swisstopo:routepoint_id>1031910117</swisstopo:routepoint_id>
				</extensions>
			</trkpt>
			<trkpt lat="47.0283323767" lon="7.4664720126">
				<ele>523.4</ele>
				<time>2021-04-12T10:04:01+02:00</time>
				<extensions>
					<swisstopo:routepoint_id>235403247</swisstopo:routepoint_id>
				</extensions>
			</trkpt>
			<trkpt lat="47.0283055434" lon="7.4666222138">
				<ele>523.5</ele>
				<time>2021-04-12T10:04:02+02:00</time>
				<extensions>
					<swisstopo:routepoint_id>757494555</swisstopo:routepoint_id>
				</extensions>
			</trkpt>
			<trkpt lat="47.0282826276" lon="7.4667490839">
				<ele>523.5</ele>
				<time>2021-04-12T10:04:03+02:00</time>
				<extensions>
					<swisstopo:routepoint_id>927926469</swisstopo:routepoint_id>
				</extensions>
			</trkpt>
			<trkpt lat="47.0282631363" lon="7.4668558376">
				<ele>523.5</ele>
				<time>2021-04-12T10:04:04+02:00</time>
				<extensions>
					<swisstopo:routepoint_id>633919969</swisstopo:routepoint_id>
				</extensions>
			</trkpt>
			<trkpt lat="47.0282463968" lon="7.4669481568">
				<ele>523.5</ele>
				<time>2021-04-12T10:04:05+02:00</time>
				<extensions>
					<swisstopo:routepoint_id>626546216</swisstopo:routepoint_id>
				</extensions>
			</trkpt>
			<trkpt lat="47.0282314607" lon="7.4670325063">
				<ele>523.5</ele>
				<time>2021-04-12T10:04:06+02:00</time>
				<extensions>
					<swisstopo:routepoint_id>1249931071</swisstopo:routepoint_id>
				</extensions>
			</trkpt>
			<trkpt lat="47.0282176008" lon="7.4671139563">
				<ele>523.6</ele>
				<time>2021-04-12T10:04:07+02:00</time>
				<extensions>
					<swisstopo:routepoint_id>906475343</swisstopo:routepoint_id>
				</extensions>
			</trkpt>
			<trkpt lat="47.0282040089" lon="7.4671959233">
				<ele>523.6</ele>
				<time>2021-04-12T10:04:08+02:00</time>
				<extensions>
					<swisstopo:routepoint_id>882097983</swisstopo:routepoint_id>
				</extensions>
			</trkpt>
			<trkpt lat="47.0281900158" lon="7.4672806256">
				<ele>523.5</ele>
				<time>2021-04-12T10:04:09+02:00</time>
				<extensions>
					<swisstopo:routepoint_id>1341185040</swisstopo:routepoint_id>
				</extensions>
			</trkpt>
			<trkpt lat="47.0281749157" lon="7.4673696173">
				<ele>523.5</ele>
				<time>2021-04-12T10:04:10+02:00</time>
				<extensions>
					<swisstopo:routepoint_id>1308608368</swisstopo:routepoint_id>
				</extensions>
			</trkpt>
			<trkpt lat="47.0281581811" lon="7.4674651774">
				<ele>523.5</ele>
				<time>2021-04-12T10:04:11+02:00</time>
				<extensions>
					<swisstopo:routepoint_id>1400812049</swisstopo:routepoint_id>
				</extensions>
			</trkpt>
			<trkpt lat="47.0281397252" lon="7.4675681101">
				<ele>523.5</ele>
				<time>2021-04-12T10:04:12+02:00</time>
				<extensions>
					<swisstopo:routepoint_id>584885482</swisstopo:routepoint_id>
				</extensions>
			</trkpt>
			<trkpt lat="47.0281196756" lon="7.4676786094">
				<ele>523.5</ele>
				<time>2021-04-12T10:04:13+02:00</time>
				<extensions>
					<swisstopo:routepoint_id>1137643655</swisstopo:routepoint_id>
				</extensions>
			</trkpt>
			<trkpt lat="47.0280984181" lon="7.4677966085">
				<ele>523.5</ele>
				<time>2021-04-12T10:04:14+02:00</time>
				<extensions>
					<swisstopo:routepoint_id>1330000344</swisstopo:routepoint_id>
				</extensions>
			</trkpt>
			<trkpt lat="47.0280764176" lon="7.4679213072">
				<ele>523.4</ele>
				<time>2021-04-12T10:04:15+02:00</time>
				<extensions>
					<swisstopo:routepoint_id>158499985</swisstopo:routepoint_id>
				</extensions>
			</trkpt>
			<trkpt lat="47.0280539758" lon="7.4680510784">
				<ele>523.4</ele>
				<time>2021-04-12T10:04:16+02:00</time>
				<extensions>
					<swisstopo:routepoint_id>1029525615</swisstopo:routepoint_id>
				</extensions>
			</trkpt>
			<trkpt lat="47.0280308987" lon="7.4681847976">
				<ele>523.3</ele>
				<time>2021-04-12T10:04:17+02:00</time>
				<extensions>
					<swisstopo:routepoint_id>961267426</swisstopo:routepoint_id>
				</extensions>
			</trkpt>
			<trkpt lat="47.0280071988" lon="7.4683226805">
				<ele>523.3</ele>
				<time>2021-04-12T10:04:18+02:00</time>
				<extensions>
					<swisstopo:routepoint_id>502152401</swisstopo:routepoint_id>
				</extensions>
			</trkpt>
			<trkpt lat="47.0279822782" lon="7.4684660281">
				<ele>523.3</ele>
				<time>2021-04-12T10:04:19+02:00</time>
				<extensions>
					<swisstopo:routepoint_id>64670897</swisstopo:routepoint_id>
				</extensions>
			</trkpt>
			<trkpt lat="47.0279548140" lon="7.4686182836">
				<ele>523.2</ele>
				<time>2021-04-12T10:04:20+02:00</time>
				<extensions>
					<swisstopo:routepoint_id>297040497</swisstopo:routepoint_id>
				</extensions>
			</trkpt>
			<trkpt lat="47.0279241912" lon="7.4687792485">
				<ele>523.2</ele>
				<time>2021-04-12T10:04:21+02:00</time>
				<extensions>
					<swisstopo:routepoint_id>1607637451</swisstopo:routepoint_id>
				</extensions>
			</trkpt>
			<trkpt lat="47.0278897099" lon="7.4689506044">
				<ele>523.3</ele>
				<time>2021-04-12T10:04:22+02:00</time>
				<extensions>
					<swisstopo:routepoint_id>2070876050</swisstopo:routepoint_id>
				</extensions>
			</trkpt>
			<trkpt lat="47.0278511910" lon="7.4691313609">
				<ele>523.3</ele>
				<time>2021-04-12T10:04:23+02:00</time>
				<extensions>
					<swisstopo:routepoint_id>946305421</swisstopo:routepoint_id>
				</extensions>
			</trkpt>
			<trkpt lat="47.0278082480" lon="7.4693222647">
				<ele>523.4</ele>
				<time>2021-04-12T10:04:24+02:00</time>
				<extensions>
					<swisstopo:routepoint_id>291321065</swisstopo:routepoint_id>
				</extensions>
			</trkpt>
			<trkpt lat="47.0277600715" lon="7.4695235655">
				<ele>523.4</ele>
				<time>2021-04-12T10:04:25+02:00</time>
				<extensions>
					<swisstopo:routepoint_id>2117907942</swisstopo:routepoint_id>
				</extensions>
			</trkpt>
			<trkpt lat="47.0277060074" lon="7.4697348630">
				<ele>523.5</ele>
				<time>2021-04-12T10:04:26+02:00</time>
				<extensions>
					<swisstopo:routepoint_id>1137332169</swisstopo:routepoint_id>
				</extensions>
			</trkpt>
			<trkpt lat="47.0276456978" lon="7.4699557972">
				<ele>523.6</ele>
				<time>2021-04-12T10:04:27+02:00</time>
				<extensions>
					<swisstopo:routepoint_id>389822436</swisstopo:routepoint_id>
				</extensions>
			</trkpt>
			<trkpt lat="47.0275796312" lon="7.4701845990">
				<ele>523.7</ele>
				<time>2021-04-12T10:04:28+02:00</time>
				<extensions>
					<swisstopo:routepoint_id>1920558502</swisstopo:routepoint_id>
				</extensions>
			</trkpt>
			<trkpt lat="47.0275086782" lon="7.4704189988">
				<ele>523.9</ele>
				<time>2021-04-12T10:04:29+02:00</time>
				<extensions>
					<swisstopo:routepoint_id>45057</swisstopo:routepoint_id>
				</extensions>
			</trkpt>
			<trkpt lat="47.0274336796" lon="7.4706573050">
				<ele>524.1</ele>
				<time>2021-04-12T10:04:30+02:00</time>
				<extensions>
					<swisstopo:routepoint_id>757272999</swisstopo:routepoint_id>
				</extensions>
			</trkpt>
			<trkpt lat="47.0273556771" lon="7.4708976581">
				<ele>524.5</ele>
				<time>2021-04-12T10:04:31+02:00</time>
				<extensions>
					<swisstopo:routepoint_id>1499202071</swisstopo:routepoint_id>
				</extensions>
			</trkpt>
			<trkpt lat="47.0272757866" lon="7.4711386754">
				<ele>524.8</ele>
				<time>2021-04-12T10:04:32+02:00</time>
				<extensions>
					<swisstopo:routepoint_id>663577046</swisstopo:routepoint_id>
				</extensions>
			</trkpt>
			<trkpt lat="47.0271947451" lon="7.4713796120">
				<ele>525.2</ele>
				<time>2021-04-12T10:04:33+02:00</time>
				<extensions>
					<swisstopo:routepoint_id>856833251</swisstopo:routepoint_id>
				</extensions>
			</trkpt>
			<trkpt lat="47.0271127310" lon="7.4716198540">
				<ele>525.5</ele>
				<time>2021-04-12T10:04:34+02:00</time>
				<extensions>
					<swisstopo:routepoint_id>1918596422</swisstopo:routepoint_id>
				</extensions>
			</trkpt>
			<trkpt lat="47.0270300433" lon="7.4718590041">
				<ele>525.8</ele>
				<time>2021-04-12T10:04:35+02:00</time>
				<extensions>
					<swisstopo:routepoint_id>1383104849</swisstopo:routepoint_id>
				</extensions>
			</trkpt>
			<trkpt lat="47.0269468813" lon="7.4720966330">
				<ele>526.0</ele>
				<time>2021-04-12T10:04:36+02:00</time>
				<extensions>
					<swisstopo:routepoint_id>1480202015</swisstopo:routepoint_id>
				</extensions>
			</trkpt>
			<trkpt lat="47.0268638224" lon="7.4723323301">
				<ele>526.2</ele>
				<time>2021-04-12T10:04:37+02:00</time>
				<extensions>
					<swisstopo:routepoint_id>1304699257</swisstopo:routepoint_id>
				</extensions>
			</trkpt>
			<trkpt lat="47.0267812236" lon="7.4725653090">
				<ele>526.3</ele>
				<time>2021-04-12T10:04:38+02:00</time>
				<extensions>
					<swisstopo:routepoint_id>124892882</swisstopo:routepoint_id>
				</extensions>
			</trkpt>
			<trkpt lat="47.0266998408" lon="7.4727949902">
				<ele>526.4</ele>
				<time>2021-04-12T10:04:39+02:00</time>
				<extensions>
					<swisstopo:routepoint_id>983144655</swisstopo:routepoint_id>
				</extensions>
			</trkpt>
			<trkpt lat="47.0266200609" lon="7.4730209980">
				<ele>526.5</ele>
				<time>2021-04-12T10:04:40+02:00</time>
				<extensions>
					<swisstopo:routepoint_id>973036567</swisstopo:routepoint_id>
				</extensions>
			</trkpt>
			<trkpt lat="47.0265418132" lon="7.4732430800">
				<ele>526.5</ele>
				<time>2021-04-12T10:04:41+02:00</time>
				<extensions>
					<swisstopo:routepoint_id>737609664</swisstopo:routepoint_id>
				</extensions>
			</trkpt>
			<trkpt lat="47.0264650750" lon="7.4734615379">
				<ele>526.6</ele>
				<time>2021-04-12T10:04:42+02:00</time>
				<extensions>
					<swisstopo:routepoint_id>1730012364</swisstopo:routepoint_id>
				</extensions>
			</trkpt>
			<trkpt lat="47.0263898980" lon="7.4736768817">
				<ele>526.6</ele>
				<time>2021-04-12T10:04:43+02:00</time>
				<extensions>
					<swisstopo:routepoint_id>1536705015</swisstopo:routepoint_id>
				</extensions>
			</trkpt>
			<trkpt lat="47.0263162601" lon="7.4738896092">
				<ele>526.7</ele>
				<time>2021-04-12T10:04:44+02:00</time>
				<extensions>
					<swisstopo:routepoint_id>1762848283</swisstopo:routepoint_id>
				</extensions>
			</trkpt>
			<trkpt lat="47.0262442727" lon="7.4740995564">
				<ele>526.7</ele>
				<time>2021-04-12T10:04:45+02:00</time>
				<extensions>
					<swisstopo:routepoint_id>1506698369</swisstopo:routepoint_id>
				</extensions>
			</trkpt>
			<trkpt lat="47.0261737167" lon="7.4743064995">
				<ele>526.8</ele>
				<time>2021-04-12T10:04:46+02:00</time>
				<extensions>
					<swisstopo:routepoint_id>2099806006</swisstopo:routepoint_id>
				</extensions>
			</trkpt>
			<trkpt lat="47.0261044039" lon="7.4745108335">
				<ele>526.8</ele>
				<time>2021-04-12T10:04:47+02:00</time>
				<extensions>
					<swisstopo:routepoint_id>1840771691</swisstopo:routepoint_id>
				</extensions>
			</trkpt>
			<trkpt lat="47.0260365755" lon="7.4747131466">
				<ele>526.8</ele>
				<time>2021-04-12T10:04:48+02:00</time>
				<extensions>
					<swisstopo:routepoint_id>1200391955</swisstopo:routepoint_id>
				</extensions>
			</trkpt>
			<trkpt lat="47.0259709716" lon="7.4749144047">
				<ele>526.9</ele>
				<time>2021-04-12T10:04:49+02:00</time>
				<extensions>
					<swisstopo:routepoint_id>1526207767</swisstopo:routepoint_id>
				</extensions>
			</trkpt>
			<trkpt lat="47.0259088044" lon="7.4751147126">
				<ele>527.0</ele>
				<time>2021-04-12T10:04:50+02:00</time>
				<extensions>
					<swisstopo:routepoint_id>1429260201</swisstopo:routepoint_id>
				</extensions>
			</trkpt>
			<trkpt lat="47.0258510780" lon="7.4753144858">
				<ele>527.1</ele>
				<time>2021-04-12T10:04:51+02:00</time>
				<extensions>
					<swisstopo:routepoint_id>1971606512</swisstopo:routepoint_id>
				</extensions>
			</trkpt>
			<trkpt lat="47.0257988059" lon="7.4755143307">
				<ele>527.2</ele>
				<time>2021-04-12T10:04:52+02:00</time>
				<extensions>
					<swisstopo:routepoint_id>1117973974</swisstopo:routepoint_id>
				</extensions>
			</trkpt>
			<trkpt lat="47.0257525869" lon="7.4757143028">
				<ele>527.3</ele>
				<time>2021-04-12T10:04:53+02:00</time>
				<extensions>
					<swisstopo:routepoint_id>1454153415</swisstopo:routepoint_id>
				</extensions>
			</trkpt>
			<trkpt lat="47.0257125374" lon="7.4759140341">
				<ele>527.4</ele>
				<time>2021-04-12T10:04:54+02:00</time>
				<extensions>
					<swisstopo:routepoint_id>1592543045</swisstopo:routepoint_id>
				</extensions>
			</trkpt>
			<trkpt lat="47.0256773757" lon="7.4761131677">
				<ele>527.4</ele>
				<time>2021-04-12T10:04:55+02:00</time>
				<extensions>
					<swisstopo:routepoint_id>1782264754</swisstopo:routepoint_id>
				</extensions>
			</trkpt>
			<trkpt lat="47.0256452808" lon="7.4763112004">
				<ele>527.4</ele>
				<time>2021-04-12T10:04:56+02:00</time>
				<extensions>
					<swisstopo:routepoint_id>1421812122</swisstopo:routepoint_id>
				</extensions>
			</trkpt>
			<trkpt lat="47.0256143219" lon="7.4765079085">
				<ele>527.4</ele>
				<time>2021-04-12T10:04:57+02:00</time>
				<extensions>
					<swisstopo:routepoint_id>1345794285</swisstopo:routepoint_id>
				</extensions>
			</trkpt>
			<trkpt lat="47.0255827776" lon="7.4767021433">
				<ele>527.4</ele>
				<time>2021-04-12T10:04:58+02:00</time>
				<extensions>
					<swisstopo:routepoint_id>1466777791</swisstopo:routepoint_id>
				</extensions>
			</trkpt>
			<trkpt lat="47.0255481928" lon="7.4768929826">
				<ele>527.3</ele>
				<time>2021-04-12T10:04:59+02:00</time>
				<extensions>
					<swisstopo:routepoint_id>1169549424</swisstopo:routepoint_id>
				</extensions>
			</trkpt>
			<trkpt lat="47.0255079738" lon="7.4770814170">
				<ele>527.3</ele>
				<time>2021-04-12T10:05:00+02:00</time>
				<extensions>
					<swisstopo:routepoint_id>699348177</swisstopo:routepoint_id>
				</extensions>
			</trkpt>
			<trkpt lat="47.0254607664" lon="7.4772665793">
				<ele>527.3</ele>
				<time>2021-04-12T10:05:01+02:00</time>
				<extensions>
					<swisstopo:routepoint_id>766810808</swisstopo:routepoint_id>
				</extensions>
			</trkpt>
			<trkpt lat="47.0254060242" lon="7.4774482722">
				<ele>527.3</ele>
				<time>2021-04-12T10:05:02+02:00</time>
				<extensions>
					<swisstopo:routepoint_id>739884409</swisstopo:routepoint_id>
				</extensions>
			</trkpt>
			<trkpt lat="47.0253440064" lon="7.4776270804">
				<ele>527.2</ele>
				<time>2021-04-12T10:05:03+02:00</time>
				<extensions>
					<swisstopo:routepoint_id>1306945933</swisstopo:routepoint_id>
				</extensions>
			</trkpt>
			<trkpt lat="47.0252753023" lon="7.4778038794">
				<ele>527.0</ele>
				<time>2021-04-12T10:05:04+02:00</time>
				<extensions>
					<swisstopo:routepoint_id>1377554415</swisstopo:routepoint_id>
				</extensions>
			</trkpt>
			<trkpt lat="47.0252009033" lon="7.4779792722">
				<ele>526.8</ele>
				<time>2021-04-12T10:05:05+02:00</time>
				<extensions>
					<swisstopo:routepoint_id>535854598</swisstopo:routepoint_id>
				</extensions>
			</trkpt>
			<trkpt lat="47.0251222815" lon="7.4781541066">
				<ele>526.6</ele>
				<time>2021-04-12T10:05:06+02:00</time>
				<extensions>
					<swisstopo:routepoint_id>1709296715</swisstopo:routepoint_id>
				</extensions>
			</trkpt>
			<trkpt lat="47.0250409881" lon="7.4783296930">
				<ele>526.3</ele>
				<time>2021-04-12T10:05:07+02:00</time>
				<extensions>
					<swisstopo:routepoint_id>1261143086</swisstopo:routepoint_id>
				</extensions>
			</trkpt>
			<trkpt lat="47.0249585577" lon="7.4785068871">
				<ele>526.0</ele>
				<time>2021-04-12T10:05:08+02:00</time>
				<extensions>
					<swisstopo:routepoint_id>368250512</swisstopo:routepoint_id>
				</extensions>
			</trkpt>
			<trkpt lat="47.0248766075" lon="7.4786871086">
				<ele>525.7</ele>
				<time>2021-04-12T10:05:09+02:00</time>
				<extensions>
					<swisstopo:routepoint_id>138484530</swisstopo:routepoint_id>
				</extensions>
			</trkpt>
			<trkpt lat="47.0247968059" lon="7.4788716657">
				<ele>525.5</ele>
				<time>2021-04-12T10:05:10+02:00</time>
				<extensions>
					<swisstopo:routepoint_id>1784706009</swisstopo:routepoint_id>
				</extensions>
			</trkpt>
			<trkpt lat="47.0247208571" lon="7.4790612843">
				<ele>525.3</ele>
				<time>2021-04-12T10:05:11+02:00</time>
				<extensions>
					<swisstopo:routepoint_id>1649795614</swisstopo:routepoint_id>
				</extensions>
			</trkpt>
			<trkpt lat="47.0246497872" lon="7.4792562550">
				<ele>525.2</ele>
				<time>2021-04-12T10:05:12+02:00</time>
				<extensions>
					<swisstopo:routepoint_id>1953518081</swisstopo:routepoint_id>
				</extensions>
			</trkpt>
			<trkpt lat="47.0245837257" lon="7.4794565311">
				<ele>525.2</ele>
				<time>2021-04-12T10:05:13+02:00</time>
				<extensions>
					<swisstopo:routepoint_id>2048392031</swisstopo:routepoint_id>
				</extensions>
			</trkpt>
			<trkpt lat="47.0245220203" lon="7.4796613919">
				<ele>525.3</ele>
				<time>2021-04-12T10:05:14+02:00</time>
				<extensions>
					<swisstopo:routepoint_id>1014519960</swisstopo:routepoint_id>
				</extensions>
			</trkpt>
			<trkpt lat="47.0244640289" lon="7.4798699521">
				<ele>525.4</ele>
				<time>2021-04-12T10:05:15+02:00</time>
				<extensions>
					<swisstopo:routepoint_id>16810540</swisstopo:routepoint_id>
				</extensions>
			</trkpt>
			<trkpt lat="47.0244090548" lon="7.4800813868">
				<ele>525.6</ele>
				<time>2021-04-12T10:05:16+02:00</time>
				<extensions>
					<swisstopo:routepoint_id>1214388023</swisstopo:routepoint_id>
				</extensions>
			</trkpt>
			<trkpt lat="47.0243565468" lon="7.4802944066">
				<ele>525.8</ele>
				<time>2021-04-12T10:05:17+02:00</time>
				<extensions>
					<swisstopo:routepoint_id>534921473</swisstopo:routepoint_id>
				</extensions>
			</trkpt>
			<trkpt lat="47.0243058081" lon="7.4805082435">
				<ele>525.9</ele>
				<time>2021-04-12T10:05:18+02:00</time>
				<extensions>
					<swisstopo:routepoint_id>1058650369</swisstopo:routepoint_id>
				</extensions>
			</trkpt>
			<trkpt lat="47.0242563479" lon="7.4807214498">
				<ele>526.1</ele>
				<time>2021-04-12T10:05:19+02:00</time>
				<extensions>
					<swisstopo:routepoint_id>834736388</swisstopo:routepoint_id>
				</extensions>
			</trkpt>
			<trkpt lat="47.0242081582" lon="7.4809326004">
				<ele>526.2</ele>
				<time>2021-04-12T10:05:20+02:00</time>
				<extensions>
					<swisstopo:routepoint_id>2051290912</swisstopo:routepoint_id>
				</extensions>
			</trkpt>
			<trkpt lat="47.0241610918" lon="7.4811410285">
				<ele>526.3</ele>
				<time>2021-04-12T10:05:21+02:00</time>
				<extensions>
					<swisstopo:routepoint_id>343889046</swisstopo:routepoint_id>
				</extensions>
			</trkpt>
			<trkpt lat="47.0241148558" lon="7.4813465741">
				<ele>526.4</ele>
				<time>2021-04-12T10:05:22+02:00</time>
				<extensions>
					<swisstopo:routepoint_id>864702045</swisstopo:routepoint_id>
				</extensions>
			</trkpt>
			<trkpt lat="47.0240695060" lon="7.4815483383">
				<ele>526.5</ele>
				<time>2021-04-12T10:05:23+02:00</time>
				<extensions>
					<swisstopo:routepoint_id>1025431066</swisstopo:routepoint_id>
				</extensions>
			</trkpt>
			<trkpt lat="47.0240246857" lon="7.4817463024">
				<ele>526.5</ele>
				<time>2021-04-12T10:05:24+02:00</time>
				<extensions>
					<swisstopo:routepoint_id>863659087</swisstopo:routepoint_id>
				</extensions>
			</trkpt>
			<trkpt lat="47.0239803378" lon="7.4819406080">
				<ele>526.4</ele>
				<time>2021-04-12T10:05:25+02:00</time>
				<extensions>
					<swisstopo:routepoint_id>676305136</swisstopo:routepoint_id>
				</extensions>
			</trkpt>
			<trkpt lat="47.0239364564" lon="7.4821317663">
				<ele>526.4</ele>
				<time>2021-04-12T10:05:26+02:00</time>
				<extensions>
					<swisstopo:routepoint_id>29477181</swisstopo:routepoint_id>
				</extensions>
			</trkpt>
			<trkpt lat="47.0238930558" lon="7.4823197393">
				<ele>526.3</ele>
				<time>2021-04-12T10:05:27+02:00</time>
				<extensions>
					<swisstopo:routepoint_id>1501742257</swisstopo:routepoint_id>
				</extensions>
			</trkpt>
			<trkpt lat="47.0238504848" lon="7.4825052377">
				<ele>526.2</ele>
				<time>2021-04-12T10:05:28+02:00</time>
				<extensions>
					<swisstopo:routepoint_id>406810208</swisstopo:routepoint_id>
				</extensions>
			</trkpt>
			<trkpt lat="47.0238085176" lon="7.4826880603">
				<ele>526.1</ele>
				<time>2021-04-12T10:05:29+02:00</time>
				<extensions>
					<swisstopo:routepoint_id>1818717455</swisstopo:routepoint_id>
				</extensions>
			</trkpt>
			<trkpt lat="47.0237668322" lon="7.4828680130">
				<ele>526.0</ele>
				<time>2021-04-12T10:05:30+02:00</time>
				<extensions>
					<swisstopo:routepoint_id>2049518434</swisstopo:routepoint_id>
				</extensions>
			</trkpt>
			<trkpt lat="47.0237251657" lon="7.4830462139">
				<ele>525.9</ele>
				<time>2021-04-12T10:05:31+02:00</time>
				<extensions>
					<swisstopo:routepoint_id>618622358</swisstopo:routepoint_id>
				</extensions>
			</trkpt>
			<trkpt lat="47.0236833146" lon="7.4832237518">
				<ele>525.7</ele>
				<time>2021-04-12T10:05:32+02:00</time>
				<extensions>
					<swisstopo:routepoint_id>1217635779</swisstopo:routepoint_id>
				</extensions>
			</trkpt>
			<trkpt lat="47.0236419084" lon="7.4834015728">
				<ele>525.5</ele>
				<time>2021-04-12T10:05:33+02:00</time>
				<extensions>
					<swisstopo:routepoint_id>1432865390</swisstopo:routepoint_id>
				</extensions>
			</trkpt>
			<trkpt lat="47.0236020888" lon="7.4835808664">
				<ele>525.3</ele>
				<time>2021-04-12T10:05:34+02:00</time>
				<extensions>
					<swisstopo:routepoint_id>286992272</swisstopo:routepoint_id>
				</extensions>
			</trkpt>
			<trkpt lat="47.0235649303" lon="7.4837626676">
				<ele>525.1</ele>
				<time>2021-04-12T10:05:35+02:00</time>
				<extensions>
					<swisstopo:routepoint_id>230844342</swisstopo:routepoint_id>
				</extensions>
			</trkpt>
			<trkpt lat="47.0235310782" lon="7.4839477973">
				<ele>525.0</ele>
				<time>2021-04-12T10:05:36+02:00</time>
				<extensions>
					<swisstopo:routepoint_id>1445389512</swisstopo:routepoint_id>
				</extensions>
			</trkpt>
			<trkpt lat="47.0235007351" lon="7.4841367926">
				<ele>524.8</ele>
				<time>2021-04-12T10:05:37+02:00</time>
				<extensions>
					<swisstopo:routepoint_id>326513320</swisstopo:routepoint_id>
				</extensions>
			</trkpt>
			<trkpt lat="47.0234740249" lon="7.4843299841">
				<ele>524.6</ele>
				<time>2021-04-12T10:05:38+02:00</time>
				<extensions>
					<swisstopo:routepoint_id>888651155</swisstopo:routepoint_id>
				</extensions>
			</trkpt>
			<trkpt lat="47.0234510099" lon="7.4845281887">
				<ele>524.5</ele>
				<time>2021-04-12T10:05:39+02:00</time>
				<extensions>
					<swisstopo:routepoint_id>1958680847</swisstopo:routepoint_id>
				</extensions>
			</trkpt>
			<trkpt lat="47.0234311660" lon="7.4847317054">
				<ele>524.3</ele>
				<time>2021-04-12T10:05:40+02:00</time>
				<extensions>
					<swisstopo:routepoint_id>772170666</swisstopo:routepoint_id>
				</extensions>
			</trkpt>
			<trkpt lat="47.0234137380" lon="7.4849399703">
				<ele>524.2</ele>
				<time>2021-04-12T10:05:41+02:00</time>
				<extensions>
					<swisstopo:routepoint_id>628704641</swisstopo:routepoint_id>
				</extensions>
			</trkpt>
			<trkpt lat="47.0233979252" lon="7.4851523411">
				<ele>524.2</ele>
				<time>2021-04-12T10:05:42+02:00</time>
				<extensions>
					<swisstopo:routepoint_id>1019358047</swisstopo:routepoint_id>
				</extensions>
			</trkpt>
			<trkpt lat="47.0233825271" lon="7.4853673957">
				<ele>524.2</ele>
				<time>2021-04-12T10:05:43+02:00</time>
				<extensions>
					<swisstopo:routepoint_id>1873643810</swisstopo:routepoint_id>
				</extensions>
			</trkpt>
			<trkpt lat="47.0233662029" lon="7.4855836060">
				<ele>524.3</ele>
				<time>2021-04-12T10:05:44+02:00</time>
				<extensions>
					<swisstopo:routepoint_id>1778798709</swisstopo:routepoint_id>
				</extensions>
			</trkpt>
			<trkpt lat="47.0233481534" lon="7.4858003853">
				<ele>524.5</ele>
				<time>2021-04-12T10:05:45+02:00</time>
				<extensions>
					<swisstopo:routepoint_id>1150052276</swisstopo:routepoint_id>
				</extensions>
			</trkpt>
			<trkpt lat="47.0233275382" lon="7.4860172848">
				<ele>524.7</ele>
				<time>2021-04-12T10:05:46+02:00</time>
				<extensions>
					<swisstopo:routepoint_id>1575779732</swisstopo:routepoint_id>
				</extensions>
			</trkpt>
			<trkpt lat="47.0233037473" lon="7.4862345778">
				<ele>525.0</ele>
				<time>2021-04-12T10:05:47+02:00</time>
				<extensions>
					<swisstopo:routepoint_id>1361620920</swisstopo:routepoint_id>
				</extensions>
			</trkpt>
			<trkpt lat="47.0232762786" lon="7.4864512315">
				<ele>525.3</ele>
				<time>2021-04-12T10:05:48+02:00</time>
				<extensions>
					<swisstopo:routepoint_id>1177060008</swisstopo:routepoint_id>
				</extensions>
			</trkpt>
			<trkpt lat="47.0232437997" lon="7.4866673506">
				<ele>525.8</ele>
				<time>2021-04-12T10:05:49+02:00</time>
				<extensions>
					<swisstopo:routepoint_id>228198292</swisstopo:routepoint_id>
				</extensions>
			</trkpt>
			<trkpt lat="47.0232042017" lon="7.4868865857">
				<ele>526.3</ele>
				<time>2021-04-12T10:05:50+02:00</time>
				<extensions>
					<swisstopo:routepoint_id>2070383749</swisstopo:routepoint_id>
				</extensions>
			</trkpt>
			<trkpt lat="47.0231549717" lon="7.4871073051">
				<ele>526.8</ele>
				<time>2021-04-12T10:05:51+02:00</time>
				<extensions>
					<swisstopo:routepoint_id>1262137102</swisstopo:routepoint_id>
				</extensions>
			</trkpt>
			<trkpt lat="47.0230968082" lon="7.4873264506">
				<ele>527.1</ele>
				<time>2021-04-12T10:05:52+02:00</time>
				<extensions>
					<swisstopo:routepoint_id>2042291895</swisstopo:routepoint_id>
				</extensions>
			</trkpt>
			<trkpt lat="47.0230324370" lon="7.4875413636">
				<ele>527.4</ele>
				<time>2021-04-12T10:05:53+02:00</time>
				<extensions>
					<swisstopo:routepoint_id>1568749264</swisstopo:routepoint_id>
				</extensions>
			</trkpt>
			<trkpt lat="47.0229627275" lon="7.4877502666">
				<ele>527.6</ele>
				<time>2021-04-12T10:05:54+02:00</time>
				<extensions>
					<swisstopo:routepoint_id>1312145829</swisstopo:routepoint_id>
				</extensions>
			</trkpt>
			<trkpt lat="47.0228878428" lon="7.4879524762">
				<ele>527.7</ele>
				<time>2021-04-12T10:05:55+02:00</time>
				<extensions>
					<swisstopo:routepoint_id>725376960</swisstopo:routepoint_id>
				</extensions>
			</trkpt>
			<trkpt lat="47.0228083739" lon="7.4881474492">
				<ele>527.8</ele>
				<time>2021-04-12T10:05:56+02:00</time>
				<extensions>
					<swisstopo:routepoint_id>145902701</swisstopo:routepoint_id>
				</extensions>
			</trkpt>
			<trkpt lat="47.0227256901" lon="7.4883362420">
				<ele>527.7</ele>
				<time>2021-04-12T10:05:57+02:00</time>
				<extensions>
					<swisstopo:routepoint_id>1907854480</swisstopo:routepoint_id>
				</extensions>
			</trkpt>
			<trkpt lat="47.0226411895" lon="7.4885194871">
				<ele>527.7</ele>
				<time>2021-04-12T10:05:58+02:00</time>
				<extensions>
					<swisstopo:routepoint_id>1231912003</swisstopo:routepoint_id>
				</extensions>
			</trkpt>
			<trkpt lat="47.0225560693" lon="7.4886974981">
				<ele>527.6</ele>
				<time>2021-04-12T10:05:59+02:00</time>
				<extensions>
					<swisstopo:routepoint_id>855193694</swisstopo:routepoint_id>
				</extensions>
			</trkpt>
			<trkpt lat="47.0224714587" lon="7.4888703597">
				<ele>527.5</ele>
				<time>2021-04-12T10:06:00+02:00</time>
				<extensions>
					<swisstopo:routepoint_id>132365687</swisstopo:routepoint_id>
				</extensions>
			</trkpt>
			<trkpt lat="47.0223883525" lon="7.4890381462">
				<ele>527.4</ele>
				<time>2021-04-12T10:06:01+02:00</time>
				<extensions>
					<swisstopo:routepoint_id>2024526764</swisstopo:routepoint_id>
				</extensions>
			</trkpt>
			<trkpt lat="47.0223077912" lon="7.4892019457">
				<ele>527.2</ele>
				<time>2021-04-12T10:06:02+02:00</time>
				<extensions>
					<swisstopo:routepoint_id>1490419480</swisstopo:routepoint_id>
				</extensions>
			</trkpt>
			<trkpt lat="47.0222305223" lon="7.4893624087">
				<ele>527.1</ele>
				<time>2021-04-12T10:06:03+02:00</time>
				<extensions>
					<swisstopo:routepoint_id>1230941752</swisstopo:routepoint_id>
				</extensions>
			</trkpt>
			<trkpt lat="47.0221573897" lon="7.4895198451">
				<ele>526.9</ele>
				<time>2021-04-12T10:06:04+02:00</time>
				<extensions>
					<swisstopo:routepoint_id>1728054313</swisstopo:routepoint_id>
				</extensions>
			</trkpt>
			<trkpt lat="47.0220890246" lon="7.4896756077">
				<ele>526.8</ele>
				<time>2021-04-12T10:06:05+02:00</time>
				<extensions>
					<swisstopo:routepoint_id>839996563</swisstopo:routepoint_id>
				</extensions>
			</trkpt>
			<trkpt lat="47.0220255875" lon="7.4898302024">
				<ele>526.7</ele>
				<time>2021-04-12T10:06:06+02:00</time>
				<extensions>
					<swisstopo:routepoint_id>264738963</swisstopo:routepoint_id>
				</extensions>
			</trkpt>
			<trkpt lat="47.0219667833" lon="7.4899843659">
				<ele>526.5</ele>
				<time>2021-04-12T10:06:07+02:00</time>
				<extensions>
					<swisstopo:routepoint_id>2029118204</swisstopo:routepoint_id>
				</extensions>
			</trkpt>
			<trkpt lat="47.0219123350" lon="7.4901385966">
				<ele>526.4</ele>
				<time>2021-04-12T10:06:08+02:00</time>
				<extensions>
					<swisstopo:routepoint_id>1349340268</swisstopo:routepoint_id>
				</extensions>
			</trkpt>
			<trkpt lat="47.0218618024" lon="7.4902931334">
				<ele>526.4</ele>
				<time>2021-04-12T10:06:09+02:00</time>
				<extensions>
					<swisstopo:routepoint_id>934571956</swisstopo:routepoint_id>
				</extensions>
			</trkpt>
			<trkpt lat="47.0218146810" lon="7.4904480774">
				<ele>526.4</ele>
				<time>2021-04-12T10:06:10+02:00</time>
				<extensions>
					<swisstopo:routepoint_id>655470334</swisstopo:routepoint_id>
				</extensions>
			</trkpt>
			<trkpt lat="47.0217703292" lon="7.4906030984">
				<ele>526.4</ele>
				<time>2021-04-12T10:06:11+02:00</time>
				<extensions>
					<swisstopo:routepoint_id>2046278075</swisstopo:routepoint_id>
				</extensions>
			</trkpt>
			<trkpt lat="47.0217283262" lon="7.4907581816">
				<ele>526.4</ele>
				<time>2021-04-12T10:06:12+02:00</time>
				<extensions>
					<swisstopo:routepoint_id>1992483467</swisstopo:routepoint_id>
				</extensions>
			</trkpt>
			<trkpt lat="47.0216884323" lon="7.4909130777">
				<ele>526.4</ele>
				<time>2021-04-12T10:06:13+02:00</time>
				<extensions>
					<swisstopo:routepoint_id>1957122198</swisstopo:routepoint_id>
				</extensions>
			</trkpt>
			<trkpt lat="47.0216505778" lon="7.4910672146">
				<ele>526.4</ele>
				<time>2021-04-12T10:06:14+02:00</time>
				<extensions>
					<swisstopo:routepoint_id>345760687</swisstopo:routepoint_id>
				</extensions>
			</trkpt>
			<trkpt lat="47.0216145776" lon="7.4912198656">
				<ele>526.4</ele>
				<time>2021-04-12T10:06:15+02:00</time>
				<extensions>
					<swisstopo:routepoint_id>109117627</swisstopo:routepoint_id>
				</extensions>
			</trkpt>
			<trkpt lat="47.0215803383" lon="7.4913699960">
				<ele>526.4</ele>
				<time>2021-04-12T10:06:16+02:00</time>
				<extensions>
					<swisstopo:routepoint_id>2136406098</swisstopo:routepoint_id>
				</extensions>
			</trkpt>
			<trkpt lat="47.0215475948" lon="7.4915165381">
				<ele>526.4</ele>
				<time>2021-04-12T10:06:17+02:00</time>
				<extensions>
					<swisstopo:routepoint_id>650711246</swisstopo:routepoint_id>
				</extensions>
			</trkpt>
			<trkpt lat="47.0215163698" lon="7.4916590189">
				<ele>526.4</ele>
				<time>2021-04-12T10:06:18+02:00</time>
				<extensions>
					<swisstopo:routepoint_id>1517180998</swisstopo:routepoint_id>
				</extensions>
			</trkpt>
			<trkpt lat="47.0214864669" lon="7.4917967154">
				<ele>526.4</ele>
				<time>2021-04-12T10:06:19+02:00</time>
				<extensions>
					<swisstopo:routepoint_id>40208908</swisstopo:routepoint_id>
				</extensions>
			</trkpt>
			<trkpt lat="47.0214574528" lon="7.4919289166">
				<ele>526.4</ele>
				<time>2021-04-12T10:06:20+02:00</time>
				<extensions>
					<swisstopo:routepoint_id>1481251598</swisstopo:routepoint_id>
				</extensions>
			</trkpt>
			<trkpt lat="47.0214291846" lon="7.4920555033">
				<ele>526.4</ele>
				<time>2021-04-12T10:06:21+02:00</time>
				<extensions>
					<swisstopo:routepoint_id>1765171562</swisstopo:routepoint_id>
				</extensions>
			</trkpt>
			<trkpt lat="47.0214016721" lon="7.4921766280">
				<ele>526.3</ele>
				<time>2021-04-12T10:06:22+02:00</time>
				<extensions>
					<swisstopo:routepoint_id>1899342876</swisstopo:routepoint_id>
				</extensions>
			</trkpt>
			<trkpt lat="47.0213746659" lon="7.4922939292">
				<ele>526.3</ele>
				<time>2021-04-12T10:06:23+02:00</time>
				<extensions>
					<swisstopo:routepoint_id>2058787924</swisstopo:routepoint_id>
				</extensions>
			</trkpt>
			<trkpt lat="47.0213479816" lon="7.4924094059">
				<ele>526.3</ele>
				<time>2021-04-12T10:06:24+02:00</time>
				<extensions>
					<swisstopo:routepoint_id>1792118204</swisstopo:routepoint_id>
				</extensions>
			</trkpt>
			<trkpt lat="47.0213210932" lon="7.4925251041">
				<ele>526.2</ele>
				<time>2021-04-12T10:06:25+02:00</time>
				<extensions>
					<swisstopo:routepoint_id>1672505453</swisstopo:routepoint_id>
				</extensions>
			</trkpt>
			<trkpt lat="47.0212937954" lon="7.4926420708">
				<ele>526.2</ele>
				<time>2021-04-12T10:06:26+02:00</time>
				<extensions>
					<swisstopo:routepoint_id>1385692988</swisstopo:routepoint_id>
				</extensions>
			</trkpt>
			<trkpt lat="47.0212657271" lon="7.4927606817">
				<ele>526.1</ele>
				<time>2021-04-12T10:06:27+02:00</time>
				<extensions>
					<swisstopo:routepoint_id>2029381248</swisstopo:routepoint_id>
				</extensions>
			</trkpt>
			<trkpt lat="47.0212366293" lon="7.4928814535">
				<ele>526.0</ele>
				<time>2021-04-12T10:06:28+02:00</time>
				<extensions>
					<swisstopo:routepoint_id>1475353482</swisstopo:routepoint_id>
				</extensions>
			</trkpt>
			<trkpt lat="47.0212061352" lon="7.4930054643">
				<ele>525.9</ele>
				<time>2021-04-12T10:06:29+02:00</time>
				<extensions>
					<swisstopo:routepoint_id>1419783712</swisstopo:routepoint_id>
				</extensions>
			</trkpt>
			<trkpt lat="47.0211744018" lon="7.4931334245">
				<ele>525.8</ele>
				<time>2021-04-12T10:06:30+02:00</time>
				<extensions>
					<swisstopo:routepoint_id>1614045767</swisstopo:routepoint_id>
				</extensions>
			</trkpt>
			<trkpt lat="47.0211415609" lon="7.4932650466">
				<ele>525.6</ele>
				<time>2021-04-12T10:06:31+02:00</time>
				<extensions>
					<swisstopo:routepoint_id>253777065</swisstopo:routepoint_id>
				</extensions>
			</trkpt>
			<trkpt lat="47.0211079197" lon="7.4933991967">
				<ele>525.5</ele>
				<time>2021-04-12T10:06:32+02:00</time>
				<extensions>
					<swisstopo:routepoint_id>328608513</swisstopo:routepoint_id>
				</extensions>
			</trkpt>
			<trkpt lat="47.0210735874" lon="7.4935341598">
				<ele>525.4</ele>
				<time>2021-04-12T10:06:33+02:00</time>
				<extensions>
					<swisstopo:routepoint_id>1742821554</swisstopo:routepoint_id>
				</extensions>
			</trkpt>
			<trkpt lat="47.0210392654" lon="7.4936674464">
				<ele>525.3</ele>
				<time>2021-04-12T10:06:34+02:00</time>
				<extensions>
					<swisstopo:routepoint_id>2072396645</swisstopo:routepoint_id>
				</extensions>
			</trkpt>
			<trkpt lat="47.0210059351" lon="7.4937962056">
				<ele>525.2</ele>
				<time>2021-04-12T10:06:35+02:00</time>
				<extensions>
					<swisstopo:routepoint_id>733141822</swisstopo:routepoint_id>
				</extensions>
			</trkpt>
			<trkpt lat="47.0209745088" lon="7.4939177973">
				<ele>525.1</ele>
				<time>2021-04-12T10:06:36+02:00</time>
				<extensions>
					<swisstopo:routepoint_id>1800919515</swisstopo:routepoint_id>
				</extensions>
			</trkpt>
			<trkpt lat="47.0209451317" lon="7.4940306426">
				<ele>525.0</ele>
				<time>2021-04-12T10:06:37+02:00</time>
				<extensions>
					<swisstopo:routepoint_id>1419767787</swisstopo:routepoint_id>
				</extensions>
			</trkpt>
			<trkpt lat="47.0209180950" lon="7.4941340388">
				<ele>524.9</ele>
				<time>2021-04-12T10:06:38+02:00</time>
				<extensions>
					<swisstopo:routepoint_id>1346394292</swisstopo:routepoint_id>
				</extensions>
			</trkpt>
			<trkpt lat="47.0208944704" lon="7.4942272871">
				<ele>524.8</ele>
				<time>2021-04-12T10:06:39+02:00</time>
				<extensions>
					<swisstopo:routepoint_id>813677205</swisstopo:routepoint_id>
				</extensions>
			</trkpt>
			<trkpt lat="47.0208750377" lon="7.4943098307">
				<ele>524.8</ele>
				<time>2021-04-12T10:06:40+02:00</time>
				<extensions>
					<swisstopo:routepoint_id>296920339</swisstopo:routepoint_id>
				</extensions>
			</trkpt>
			<trkpt lat="47.0208597466" lon="7.4943810841">
				<ele>524.7</ele>
				<time>2021-04-12T10:06:41+02:00</time>
				<extensions>
					<swisstopo:routepoint_id>1735625592</swisstopo:routepoint_id>
				</extensions>
			</trkpt>
			<trkpt lat="47.0208477360" lon="7.4944405717">
				<ele>524.7</ele>
				<time>2021-04-12T10:06:42+02:00</time>
				<extensions>
					<swisstopo:routepoint_id>1388947543</swisstopo:routepoint_id>
				</extensions>
			</trkpt>
			<trkpt lat="47.0208384120" lon="7.4944892751">
				<ele>524.7</ele>
				<time>2021-04-12T10:06:43+02:00</time>
				<extensions>
					<swisstopo:routepoint_id>894112311</swisstopo:routepoint_id>
				</extensions>
			</trkpt>
			<trkpt lat="47.0208311503" lon="7.4945286509">
				<ele>524.7</ele>
				<time>2021-04-12T10:06:44+02:00</time>
				<extensions>
					<swisstopo:routepoint_id>1402532918</swisstopo:routepoint_id>
				</extensions>
			</trkpt>
			<trkpt lat="47.0208255011" lon="7.4945597006">
				<ele>524.8</ele>
				<time>2021-04-12T10:06:45+02:00</time>
				<extensions>
					<swisstopo:routepoint_id>1590243354</swisstopo:routepoint_id>
				</extensions>
			</trkpt>
			<trkpt lat="47.0208211688" lon="7.4945832080">
				<ele>524.9</ele>
				<time>2021-04-12T10:06:46+02:00</time>
				<extensions>
					<swisstopo:routepoint_id>1786063763</swisstopo:routepoint_id>
				</extensions>
			</trkpt>
			<trkpt lat="47.0208178348" lon="7.4946006386">
				<ele>525.0</ele>
				<time>2021-04-12T10:06:47+02:00</time>
				<extensions>
					<swisstopo:routepoint_id>847246975</swisstopo:routepoint_id>
				</extensions>
			</trkpt>
			<trkpt lat="47.0208151724" lon="7.4946131966">
				<ele>525.1</ele>
				<time>2021-04-12T10:06:48+02:00</time>
				<extensions>
					<swisstopo:routepoint_id>1863329215</swisstopo:routepoint_id>
				</extensions>
			</trkpt>
			<trkpt lat="47.0208128101" lon="7.4946226580">
				<ele>525.1</ele>
				<time>2021-04-12T10:06:49+02:00</time>
				<extensions>
					<swisstopo:routepoint_id>220092304</swisstopo:routepoint_id>
				</extensions>
			</trkpt>
			<trkpt lat="47.0208105646" lon="7.4946310588">
				<ele>525.2</ele>
				<time>2021-04-12T10:06:50+02:00</time>
				<extensions>
					<swisstopo:routepoint_id>1124513194</swisstopo:routepoint_id>
				</extensions>
			</trkpt>
			<trkpt lat="47.0208079103" lon="7.4946408564">
				<ele>525.2</ele>
				<time>2021-04-12T10:06:51+02:00</time>
				<extensions>
					<swisstopo:routepoint_id>1837157958</swisstopo:routepoint_id>
				</extensions>
			</trkpt>
			<trkpt lat="47.0208039434" lon="7.4946548804">
				<ele>525.3</ele>
				<time>2021-04-12T10:06:52+02:00</time>
				<extensions>
					<swisstopo:routepoint_id>593923540</swisstopo:routepoint_id>
				</extensions>
			</trkpt>
			<trkpt lat="47.0207978882" lon="7.4946747612">
				<ele>525.3</ele>
				<time>2021-04-12T10:06:53+02:00</time>
				<extensions>
					<swisstopo:routepoint_id>568945524</swisstopo:routepoint_id>
				</extensions>
			</trkpt>
			<trkpt lat="47.0207896443" lon="7.4947006466">
				<ele>525.3</ele>
				<time>2021-04-12T10:06:54+02:00</time>
				<extensions>
					<swisstopo:routepoint_id>1670225424</swisstopo:routepoint_id>
				</extensions>
			</trkpt>
			<trkpt lat="47.0207794475" lon="7.4947323212">
				<ele>525.3</ele>
				<time>2021-04-12T10:06:55+02:00</time>
				<extensions>
					<swisstopo:routepoint_id>1719951231</swisstopo:routepoint_id>
				</extensions>
			</trkpt>
			<trkpt lat="47.0207674829" lon="7.4947691730">
				<ele>525.3</ele>
				<time>2021-04-12T10:06:56+02:00</time>
				<extensions>
					<swisstopo:routepoint_id>2090450797</swisstopo:routepoint_id>
				</extensions>
			</trkpt>
			<trkpt lat="47.0207543280" lon="7.4948106381">
				<ele>525.3</ele>
				<time>2021-04-12T10:06:57+02:00</time>
				<extensions>
					<swisstopo:routepoint_id>1374080259</swisstopo:routepoint_id>
				</extensions>
			</trkpt>
			<trkpt lat="47.0207402038" lon="7.4948560484">
				<ele>525.3</ele>
				<time>2021-04-12T10:06:58+02:00</time>
				<extensions>
					<swisstopo:routepoint_id>127773175</swisstopo:routepoint_id>
				</extensions>
			</trkpt>
			<trkpt lat="47.0207251796" lon="7.4949047252">
				<ele>525.3</ele>
				<time>2021-04-12T10:06:59+02:00</time>
				<extensions>
					<swisstopo:routepoint_id>105225</swisstopo:routepoint_id>
				</extensions>
			</trkpt>
			<trkpt lat="47.0207094048" lon="7.4949566832">
				<ele>525.4</ele>
				<time>2021-04-12T10:07:00+02:00</time>
				<extensions>
					<swisstopo:routepoint_id>1768516575</swisstopo:routepoint_id>
				</extensions>
			</trkpt>
			<trkpt lat="47.0206928396" lon="7.4950119782">
				<ele>525.4</ele>
				<time>2021-04-12T10:07:01+02:00</time>
				<extensions>
					<swisstopo:routepoint_id>136917898</swisstopo:routepoint_id>
				</extensions>
			</trkpt>
			<trkpt lat="47.0206755725" lon="7.4950712761">
				<ele>525.4</ele>
				<time>2021-04-12T10:07:02+02:00</time>
				<extensions>
					<swisstopo:routepoint_id>1224125749</swisstopo:routepoint_id>
				</extensions>
			</trkpt>
			<trkpt lat="47.0206578378" lon="7.4951345538">
				<ele>525.4</ele>
				<time>2021-04-12T10:07:03+02:00</time>
				<extensions>
					<swisstopo:routepoint_id>988125183</swisstopo:routepoint_id>
				</extensions>
			</trkpt>
			<trkpt lat="47.0206402286" lon="7.4952017917">
				<ele>525.4</ele>
				<time>2021-04-12T10:07:04+02:00</time>
				<extensions>
					<swisstopo:routepoint_id>928908430</swisstopo:routepoint_id>
				</extensions>
			</trkpt>
			<trkpt lat="47.0206229060" lon="7.4952742408">
				<ele>525.4</ele>
				<time>2021-04-12T10:07:05+02:00</time>
				<extensions>
					<swisstopo:routepoint_id>2105352967</swisstopo:routepoint_id>
				</extensions>
			</trkpt>
			<trkpt lat="47.0206048838" lon="7.4953529880">
				<ele>525.5</ele>
				<time>2021-04-12T10:07:06+02:00</time>
				<extensions>
					<swisstopo:routepoint_id>579264750</swisstopo:routepoint_id>
				</extensions>
			</trkpt>
			<trkpt lat="47.0205859552" lon="7.4954376869">
				<ele>525.6</ele>
				<time>2021-04-12T10:07:07+02:00</time>
				<extensions>
					<swisstopo:routepoint_id>1159281399</swisstopo:routepoint_id>
				</extensions>
			</trkpt>
			<trkpt lat="47.0205657527" lon="7.4955290754">
				<ele>525.7</ele>
				<time>2021-04-12T10:07:08+02:00</time>
				<extensions>
					<swisstopo:routepoint_id>2070827409</swisstopo:routepoint_id>
				</extensions>
			</trkpt>
			<trkpt lat="47.0205441494" lon="7.4956280690">
				<ele>525.7</ele>
				<time>2021-04-12T10:07:09+02:00</time>
				<extensions>
					<swisstopo:routepoint_id>128796134</swisstopo:routepoint_id>
				</extensions>
			</trkpt>
			<trkpt lat="47.0205204411" lon="7.4957352063">
				<ele>525.8</ele>
				<time>2021-04-12T10:07:10+02:00</time>
				<extensions>
					<swisstopo:routepoint_id>13107962</swisstopo:routepoint_id>
				</extensions>
			</trkpt>
			<trkpt lat="47.0204946981" lon="7.4958507999">
				<ele>525.9</ele>
				<time>2021-04-12T10:07:11+02:00</time>
				<extensions>
					<swisstopo:routepoint_id>1262185340</swisstopo:routepoint_id>
				</extensions>
			</trkpt>
			<trkpt lat="47.0204674648" lon="7.4959730904">
				<ele>525.9</ele>
				<time>2021-04-12T10:07:12+02:00</time>
				<extensions>
					<swisstopo:routepoint_id>705544314</swisstopo:routepoint_id>
				</extensions>
			</trkpt>
			<trkpt lat="47.0204382890" lon="7.4961022931">
				<ele>525.8</ele>
				<time>2021-04-12T10:07:13+02:00</time>
				<extensions>
					<swisstopo:routepoint_id>1826070311</swisstopo:routepoint_id>
				</extensions>
			</trkpt>
			<trkpt lat="47.0204066858" lon="7.4962390260">
				<ele>525.8</ele>
				<time>2021-04-12T10:07:14+02:00</time>
				<extensions>
					<swisstopo:routepoint_id>1074917700</swisstopo:routepoint_id>
				</extensions>
			</trkpt>
			<trkpt lat="47.0203726844" lon="7.4963834943">
				<ele>525.7</ele>
				<time>2021-04-12T10:07:15+02:00</time>
				<extensions>
					<swisstopo:routepoint_id>1509345336</swisstopo:routepoint_id>
				</extensions>
			</trkpt>
			<trkpt lat="47.0203369835" lon="7.4965340545">
				<ele>525.7</ele>
				<time>2021-04-12T10:07:16+02:00</time>
				<extensions>
					<swisstopo:routepoint_id>1490223788</swisstopo:routepoint_id>
				</extensions>
			</trkpt>
			<trkpt lat="47.0202998654" lon="7.4966880127">
				<ele>525.7</ele>
				<time>2021-04-12T10:07:17+02:00</time>
				<extensions>
					<swisstopo:routepoint_id>89429955</swisstopo:routepoint_id>
				</extensions>
			</trkpt>
			<trkpt lat="47.0202622764" lon="7.4968425489">
				<ele>525.7</ele>
				<time>2021-04-12T10:07:18+02:00</time>
				<extensions>
					<swisstopo:routepoint_id>1958184432</swisstopo:routepoint_id>
				</extensions>
			</trkpt>
			<trkpt lat="47.0202247676" lon="7.4969953188">
				<ele>525.7</ele>
				<time>2021-04-12T10:07:19+02:00</time>
				<extensions>
					<swisstopo:routepoint_id>1018858349</swisstopo:routepoint_id>
				</extensions>
			</trkpt>
			<trkpt lat="47.0201879383" lon="7.4971441508">
				<ele>525.7</ele>
				<time>2021-04-12T10:07:20+02:00</time>
				<extensions>
					<swisstopo:routepoint_id>2065154112</swisstopo:routepoint_id>
				</extensions>
			</trkpt>
			<trkpt lat="47.0201522945" lon="7.4972872802">
				<ele>525.8</ele>
				<time>2021-04-12T10:07:21+02:00</time>
				<extensions>
					<swisstopo:routepoint_id>1414457570</swisstopo:routepoint_id>
				</extensions>
			</trkpt>
			<trkpt lat="47.0201182206" lon="7.4974227124">
				<ele>525.9</ele>
				<time>2021-04-12T10:07:22+02:00</time>
				<extensions>
					<swisstopo:routepoint_id>144406700</swisstopo:routepoint_id>
				</extensions>
			</trkpt>
			<trkpt lat="47.0200860085" lon="7.4975487704">
				<ele>526.0</ele>
				<time>2021-04-12T10:07:23+02:00</time>
				<extensions>
					<swisstopo:routepoint_id>386885790</swisstopo:routepoint_id>
				</extensions>
			</trkpt>
			<trkpt lat="47.0200566820" lon="7.4976646149">
				<ele>526.1</ele>
				<time>2021-04-12T10:07:24+02:00</time>
				<extensions>
					<swisstopo:routepoint_id>1956473061</swisstopo:routepoint_id>
				</extensions>
			</trkpt>
			<trkpt lat="47.0200300190" lon="7.4977714818">
				<ele>526.3</ele>
				<time>2021-04-12T10:07:25+02:00</time>
				<extensions>
					<swisstopo:routepoint_id>173133363</swisstopo:routepoint_id>
				</extensions>
			</trkpt>
			<trkpt lat="47.0200045355" lon="7.4978722176">
				<ele>526.4</ele>
				<time>2021-04-12T10:07:26+02:00</time>
				<extensions>
					<swisstopo:routepoint_id>12090256</swisstopo:routepoint_id>
				</extensions>
			</trkpt>
			<trkpt lat="47.0199800407" lon="7.4979683343">
				<ele>526.5</ele>
				<time>2021-04-12T10:07:27+02:00</time>
				<extensions>
					<swisstopo:routepoint_id>1337469774</swisstopo:routepoint_id>
				</extensions>
			</trkpt>
			<trkpt lat="47.0199564808" lon="7.4980614164">
				<ele>526.5</ele>
				<time>2021-04-12T10:07:28+02:00</time>
				<extensions>
					<swisstopo:routepoint_id>1143158469</swisstopo:routepoint_id>
				</extensions>
			</trkpt>
			<trkpt lat="47.0199328182" lon="7.4981514982">
				<ele>526.5</ele>
				<time>2021-04-12T10:07:29+02:00</time>
				<extensions>
					<swisstopo:routepoint_id>1675682421</swisstopo:routepoint_id>
				</extensions>
			</trkpt>
			<trkpt lat="47.0199084054" lon="7.4982394526">
				<ele>526.5</ele>
				<time>2021-04-12T10:07:30+02:00</time>
				<extensions>
					<swisstopo:routepoint_id>1093902989</swisstopo:routepoint_id>
				</extensions>
			</trkpt>
			<trkpt lat="47.0198840624" lon="7.4983264644">
				<ele>526.6</ele>
				<time>2021-04-12T10:07:31+02:00</time>
				<extensions>
					<swisstopo:routepoint_id>620034156</swisstopo:routepoint_id>
				</extensions>
			</trkpt>
			<trkpt lat="47.0198632133" lon="7.4984141649">
				<ele>526.6</ele>
				<time>2021-04-12T10:07:32+02:00</time>
				<extensions>
					<swisstopo:routepoint_id>1323404648</swisstopo:routepoint_id>
				</extensions>
			</trkpt>
			<trkpt lat="47.0198495001" lon="7.4985034604">
				<ele>526.7</ele>
				<time>2021-04-12T10:07:33+02:00</time>
				<extensions>
					<swisstopo:routepoint_id>973786957</swisstopo:routepoint_id>
				</extensions>
			</trkpt>
			<trkpt lat="47.0198455894" lon="7.4985930444">
				<ele>526.7</ele>
				<time>2021-04-12T10:07:34+02:00</time>
				<extensions>
					<swisstopo:routepoint_id>464512512</swisstopo:routepoint_id>
				</extensions>
			</trkpt>
			<trkpt lat="47.0198524909" lon="7.4986825017">
				<ele>526.7</ele>
				<time>2021-04-12T10:07:35+02:00</time>
				<extensions>
					<swisstopo:routepoint_id>958732339</swisstopo:routepoint_id>
				</extensions>
			</trkpt>
			<trkpt lat="47.0198700502" lon="7.4987716052">
				<ele>526.7</ele>
				<time>2021-04-12T10:07:36+02:00</time>
				<extensions>
					<swisstopo:routepoint_id>844618132</swisstopo:routepoint_id>
				</extensions>
			</trkpt>
			<trkpt lat="47.0198967601" lon="7.4988576693">
				<ele>526.6</ele>
				<time>2021-04-12T10:07:37+02:00</time>
				<extensions>
					<swisstopo:routepoint_id>630037854</swisstopo:routepoint_id>
				</extensions>
			</trkpt>
			<trkpt lat="47.0199301539" lon="7.4989384093">
				<ele>526.6</ele>
				<time>2021-04-12T10:07:38+02:00</time>
				<extensions>
					<swisstopo:routepoint_id>1951832468</swisstopo:routepoint_id>
				</extensions>
			</trkpt>
			<trkpt lat="47.0199685217" lon="7.4990119391">
				<ele>526.5</ele>
				<time>2021-04-12T10:07:39+02:00</time>
				<extensions>
					<swisstopo:routepoint_id>1635581751</swisstopo:routepoint_id>
				</extensions>
			</trkpt>
			<trkpt lat="47.0200095375" lon="7.4990780017">
				<ele>526.4</ele>
				<time>2021-04-12T10:07:40+02:00</time>
				<extensions>
					<swisstopo:routepoint_id>1431807457</swisstopo:routepoint_id>
				</extensions>
			</trkpt>
			<trkpt lat="47.0200514468" lon="7.4991361102">
				<ele>526.3</ele>
				<time>2021-04-12T10:07:41+02:00</time>
				<extensions>
					<swisstopo:routepoint_id>1833665164</swisstopo:routepoint_id>
				</extensions>
			</trkpt>
			<trkpt lat="47.0200916247" lon="7.4991857003">
				<ele>526.1</ele>
				<time>2021-04-12T10:07:42+02:00</time>
				<extensions>
					<swisstopo:routepoint_id>2020076898</swisstopo:routepoint_id>
				</extensions>
			</trkpt>
			<trkpt lat="47.0201273241" lon="7.4992249784">
				<ele>526.1</ele>
				<time>2021-04-12T10:07:43+02:00</time>
				<extensions>
					<swisstopo:routepoint_id>1863449263</swisstopo:routepoint_id>
				</extensions>
			</trkpt>
			<trkpt lat="47.0201569620" lon="7.4992527100">
				<ele>526.0</ele>
				<time>2021-04-12T10:07:44+02:00</time>
				<extensions>
					<swisstopo:routepoint_id>90255393</swisstopo:routepoint_id>
				</extensions>
			</trkpt>
			<trkpt lat="47.0201801873" lon="7.4992698442">
				<ele>525.9</ele>
				<time>2021-04-12T10:07:45+02:00</time>
				<extensions>
					<swisstopo:routepoint_id>798935369</swisstopo:routepoint_id>
				</extensions>
			</trkpt>
			<trkpt lat="47.0201970418" lon="7.4992779772">
				<ele>525.9</ele>
				<time>2021-04-12T10:07:46+02:00</time>
				<extensions>
					<swisstopo:routepoint_id>1638985739</swisstopo:routepoint_id>
				</extensions>
			</trkpt>
			<trkpt lat="47.0202085833" lon="7.4992794629">
				<ele>525.9</ele>
				<time>2021-04-12T10:07:47+02:00</time>
				<extensions>
					<swisstopo:routepoint_id>660575304</swisstopo:routepoint_id>
				</extensions>
			</trkpt>
			<trkpt lat="47.0202158632" lon="7.4992758983">
				<ele>525.9</ele>
				<time>2021-04-12T10:07:48+02:00</time>
				<extensions>
					<swisstopo:routepoint_id>1946162985</swisstopo:routepoint_id>
				</extensions>
			</trkpt>
			<trkpt lat="47.0202198950" lon="7.4992689014">
				<ele>525.9</ele>
				<time>2021-04-12T10:07:49+02:00</time>
				<extensions>
					<swisstopo:routepoint_id>837861438</swisstopo:routepoint_id>
				</extensions>
			</trkpt>
			<trkpt lat="47.0202215234" lon="7.4992596005">
				<ele>525.9</ele>
				<time>2021-04-12T10:07:50+02:00</time>
				<extensions>
					<swisstopo:routepoint_id>886915087</swisstopo:routepoint_id>
				</extensions>
			</trkpt>
			<trkpt lat="47.0202212172" lon="7.4992491363">
				<ele>525.9</ele>
				<time>2021-04-12T10:07:51+02:00</time>
				<extensions>
					<swisstopo:routepoint_id>697873382</swisstopo:routepoint_id>
				</extensions>
			</trkpt>
			<trkpt lat="47.0202196407" lon="7.4992379747">
				<ele>525.9</ele>
				<time>2021-04-12T10:07:52+02:00</time>
				<extensions>
					<swisstopo:routepoint_id>1749735007</swisstopo:routepoint_id>
				</extensions>
			</trkpt>
			<trkpt lat="47.0202171493" lon="7.4992271608">
				<ele>526.0</ele>
				<time>2021-04-12T10:07:53+02:00</time>
				<extensions>
					<swisstopo:routepoint_id>155200631</swisstopo:routepoint_id>
				</extensions>
			</trkpt>
			<trkpt lat="47.0202146279" lon="7.4992176753">
				<ele>526.0</ele>
				<time>2021-04-12T10:07:54+02:00</time>
				<extensions>
					<swisstopo:routepoint_id>1411857759</swisstopo:routepoint_id>
				</extensions>
			</trkpt>
			<trkpt lat="47.0202132608" lon="7.4992117035">
				<ele>526.0</ele>
				<time>2021-04-12T10:07:55+02:00</time>
				<extensions>
					<swisstopo:routepoint_id>1546539810</swisstopo:routepoint_id>
				</extensions>
			</trkpt>
			<trkpt lat="47.0202155463" lon="7.4992126094">
				<ele>526.0</ele>
				<time>2021-04-12T10:07:56+02:00</time>
				<extensions>
					<swisstopo:routepoint_id>1700007029</swisstopo:routepoint_id>
				</extensions>
			</trkpt>
			<trkpt lat="47.0202234370" lon="7.4992229099">
				<ele>526.0</ele>
				<time>2021-04-12T10:07:57+02:00</time>
				<extensions>
					<swisstopo:routepoint_id>1895696715</swisstopo:routepoint_id>
				</extensions>
			</trkpt>
			<trkpt lat="47.0202375137" lon="7.4992416108">
				<ele>526.0</ele>
				<time>2021-04-12T10:07:58+02:00</time>
				<extensions>
					<swisstopo:routepoint_id>907302113</swisstopo:routepoint_id>
				</extensions>
			</trkpt>
			<trkpt lat="47.0202567171" lon="7.4992654102">
				<ele>526.0</ele>
				<time>2021-04-12T10:07:59+02:00</time>
				<extensions>
					<swisstopo:routepoint_id>1892719491</swisstopo:routepoint_id>
				</extensions>
			</trkpt>
			<trkpt lat="47.0202782853" lon="7.4992911908">
				<ele>525.9</ele>
				<time>2021-04-12T10:08:00+02:00</time>
				<extensions>
					<swisstopo:routepoint_id>261222226</swisstopo:routepoint_id>
				</extensions>
			</trkpt>
			<trkpt lat="47.0202989654" lon="7.4993164134">
				<ele>525.9</ele>
				<time>2021-04-12T10:08:01+02:00</time>
				<extensions>
					<swisstopo:routepoint_id>905377914</swisstopo:routepoint_id>
				</extensions>
			</trkpt>
			<trkpt lat="47.0203164433" lon="7.4993390795">
				<ele>525.8</ele>
				<time>2021-04-12T10:08:02+02:00</time>
				<extensions>
					<swisstopo:routepoint_id>1764961603</swisstopo:routepoint_id>
				</extensions>
			</trkpt>
			<trkpt lat="47.0203302749" lon="7.4993580232">
				<ele>525.8</ele>
				<time>2021-04-12T10:08:03+02:00</time>
				<extensions>
					<swisstopo:routepoint_id>518045610</swisstopo:routepoint_id>
				</extensions>
			</trkpt>
			<trkpt lat="47.0203407951" lon="7.4993729564">
				<ele>525.8</ele>
				<time>2021-04-12T10:08:04+02:00</time>
				<extensions>
					<swisstopo:routepoint_id>893862332</swisstopo:routepoint_id>
				</extensions>
			</trkpt>
			<trkpt lat="47.0203487409" lon="7.4993840344">
				<ele>525.8</ele>
				<time>2021-04-12T10:08:05+02:00</time>
				<extensions>
					<swisstopo:routepoint_id>1496103159</swisstopo:routepoint_id>
				</extensions>
			</trkpt>
			<trkpt lat="47.0203550103" lon="7.4993924493">
				<ele>525.7</ele>
				<time>2021-04-12T10:08:06+02:00</time>
				<extensions>
					<swisstopo:routepoint_id>119770590</swisstopo:routepoint_id>
				</extensions>
			</trkpt>
			<trkpt lat="47.0203605627" lon="7.4993997872">
				<ele>525.7</ele>
				<time>2021-04-12T10:08:07+02:00</time>
				<extensions>
					<swisstopo:routepoint_id>792128891</swisstopo:routepoint_id>
				</extensions>
			</trkpt>
			<trkpt lat="47.0203668410" lon="7.4994090306">
				<ele>525.7</ele>
				<time>2021-04-12T10:08:08+02:00</time>
				<extensions>
					<swisstopo:routepoint_id>1059143284</swisstopo:routepoint_id>
				</extensions>
			</trkpt>
			<trkpt lat="47.0203755745" lon="7.4994243019">
				<ele>525.7</ele>
				<time>2021-04-12T10:08:09+02:00</time>
				<extensions>
					<swisstopo:routepoint_id>529224205</swisstopo:routepoint_id>
				</extensions>
			</trkpt>
			<trkpt lat="47.0203880053" lon="7.4994482072">
				<ele>525.6</ele>
				<time>2021-04-12T10:08:10+02:00</time>
				<extensions>
					<swisstopo:routepoint_id>1941431208</swisstopo:routepoint_id>
				</extensions>
			</trkpt>
			<trkpt lat="47.0204046069" lon="7.4994816378">
				<ele>525.6</ele>
				<time>2021-04-12T10:08:11+02:00</time>
				<extensions>
					<swisstopo:routepoint_id>767780338</swisstopo:routepoint_id>
				</extensions>
			</trkpt>
			<trkpt lat="47.0204258312" lon="7.4995237714">
				<ele>525.6</ele>
				<time>2021-04-12T10:08:12+02:00</time>
				<extensions>
					<swisstopo:routepoint_id>2002389590</swisstopo:routepoint_id>
				</extensions>
			</trkpt>
			<trkpt lat="47.0204511753" lon="7.4995735651">
				<ele>525.6</ele>
				<time>2021-04-12T10:08:13+02:00</time>
				<extensions>
					<swisstopo:routepoint_id>945606993</swisstopo:routepoint_id>
				</extensions>
			</trkpt>
			<trkpt lat="47.0204799979" lon="7.4996303451">
				<ele>525.5</ele>
				<time>2021-04-12T10:08:14+02:00</time>
				<extensions>
					<swisstopo:routepoint_id>1437743551</swisstopo:routepoint_id>
				</extensions>
			</trkpt>
			<trkpt lat="47.0205120209" lon="7.4996912572">
				<ele>525.4</ele>
				<time>2021-04-12T10:08:15+02:00</time>
				<extensions>
					<swisstopo:routepoint_id>669865613</swisstopo:routepoint_id>
				</extensions>
			</trkpt>
			<trkpt lat="47.0205467569" lon="7.4997549266">
				<ele>525.4</ele>
				<time>2021-04-12T10:08:16+02:00</time>
				<extensions>
					<swisstopo:routepoint_id>1322080117</swisstopo:routepoint_id>
				</extensions>
			</trkpt>
			<trkpt lat="47.0205835767" lon="7.4998203966">
				<ele>525.4</ele>
				<time>2021-04-12T10:08:17+02:00</time>
				<extensions>
					<swisstopo:routepoint_id>187230910</swisstopo:routepoint_id>
				</extensions>
			</trkpt>
			<trkpt lat="47.0206220551" lon="7.4998868070">
				<ele>525.4</ele>
				<time>2021-04-12T10:08:18+02:00</time>
				<extensions>
					<swisstopo:routepoint_id>726361515</swisstopo:routepoint_id>
				</extensions>
			</trkpt>
			<trkpt lat="47.0206629516" lon="7.4999548919">
				<ele>525.4</ele>
				<time>2021-04-12T10:08:19+02:00</time>
				<extensions>
					<swisstopo:routepoint_id>1660933057</swisstopo:routepoint_id>
				</extensions>
			</trkpt>
			<trkpt lat="47.0207067289" lon="7.5000258053">
				<ele>525.5</ele>
				<time>2021-04-12T10:08:20+02:00</time>
				<extensions>
					<swisstopo:routepoint_id>161961646</swisstopo:routepoint_id>
				</extensions>
			</trkpt>
			<trkpt lat="47.0207527397" lon="7.5000985623">
				<ele>525.6</ele>
				<time>2021-04-12T10:08:21+02:00</time>
				<extensions>
					<swisstopo:routepoint_id>1227603573</swisstopo:routepoint_id>
				</extensions>
			</trkpt>
			<trkpt lat="47.0207993226" lon="7.5001716993">
				<ele>525.7</ele>
				<time>2021-04-12T10:08:22+02:00</time>
				<extensions>
					<swisstopo:routepoint_id>1457854682</swisstopo:routepoint_id>
				</extensions>
			</trkpt>
			<trkpt lat="47.0208449143" lon="7.5002428653">
				<ele>525.8</ele>
				<time>2021-04-12T10:08:23+02:00</time>
				<extensions>
					<swisstopo:routepoint_id>1522711751</swisstopo:routepoint_id>
				</extensions>
			</trkpt>
			<trkpt lat="47.0208878737" lon="7.5003098009">
				<ele>526.0</ele>
				<time>2021-04-12T10:08:24+02:00</time>
				<extensions>
					<swisstopo:routepoint_id>653777758</swisstopo:routepoint_id>
				</extensions>
			</trkpt>
			<trkpt lat="47.0209266316" lon="7.5003725344">
				<ele>526.2</ele>
				<time>2021-04-12T10:08:25+02:00</time>
				<extensions>
					<swisstopo:routepoint_id>1516440654</swisstopo:routepoint_id>
				</extensions>
			</trkpt>
			<trkpt lat="47.0209604284" lon="7.5004305789">
				<ele>526.4</ele>
				<time>2021-04-12T10:08:26+02:00</time>
				<extensions>
					<swisstopo:routepoint_id>482149182</swisstopo:routepoint_id>
				</extensions>
			</trkpt>
			<trkpt lat="47.0209888881" lon="7.5004850935">
				<ele>526.5</ele>
				<time>2021-04-12T10:08:27+02:00</time>
				<extensions>
					<swisstopo:routepoint_id>1025501743</swisstopo:routepoint_id>
				</extensions>
			</trkpt>
			<trkpt lat="47.0210094233" lon="7.5005396886">
				<ele>526.7</ele>
				<time>2021-04-12T10:08:28+02:00</time>
				<extensions>
					<swisstopo:routepoint_id>2051527426</swisstopo:routepoint_id>
				</extensions>
			</trkpt>
			<trkpt lat="47.0210212800" lon="7.5005982037">
				<ele>526.8</ele>
				<time>2021-04-12T10:08:29+02:00</time>
				<extensions>
					<swisstopo:routepoint_id>24012550</swisstopo:routepoint_id>
				</extensions>
			</trkpt>
			<trkpt lat="47.0210290923" lon="7.5006608912">
				<ele>526.9</ele>
				<time>2021-04-12T10:08:30+02:00</time>
				<extensions>
					<swisstopo:routepoint_id>1999485861</swisstopo:routepoint_id>
				</extensions>
			</trkpt>
			<trkpt lat="47.0210401166" lon="7.5007233764">
				<ele>527.0</ele>
				<time>2021-04-12T10:08:31+02:00</time>
				<extensions>
					<swisstopo:routepoint_id>1534757571</swisstopo:routepoint_id>
				</extensions>
			</trkpt>
			<trkpt lat="47.0210583768" lon="7.5007779610">
				<ele>527.0</ele>
				<time>2021-04-12T10:08:32+02:00</time>
				<extensions>
					<swisstopo:routepoint_id>1244411680</swisstopo:routepoint_id>
				</extensions>
			</trkpt>
			<trkpt lat="47.0210866194" lon="7.5008199296">
				<ele>527.0</ele>
				<time>2021-04-12T10:08:33+02:00</time>
				<extensions>
					<swisstopo:routepoint_id>483867627</swisstopo:routepoint_id>
				</extensions>
			</trkpt>
			<trkpt lat="47.0211282053" lon="7.5008486768">
				<ele>527.2</ele>
				<time>2021-04-12T10:08:34+02:00</time>
				<extensions>
					<swisstopo:routepoint_id>1990119447</swisstopo:routepoint_id>
				</extensions>
			</trkpt>
			<trkpt lat="47.0211826350" lon="7.5008666593">
				<ele>527.3</ele>
				<time>2021-04-12T10:08:35+02:00</time>
				<extensions>
					<swisstopo:routepoint_id>879743704</swisstopo:routepoint_id>
				</extensions>
			</trkpt>
			<trkpt lat="47.0212498679" lon="7.5008783538">
				<ele>527.4</ele>
				<time>2021-04-12T10:08:36+02:00</time>
				<extensions>
					<swisstopo:routepoint_id>427523533</swisstopo:routepoint_id>
				</extensions>
			</trkpt>
			<trkpt lat="47.0213271392" lon="7.5008865250">
				<ele>527.6</ele>
				<time>2021-04-12T10:08:37+02:00</time>
				<extensions>
					<swisstopo:routepoint_id>2055219916</swisstopo:routepoint_id>
				</extensions>
			</trkpt>
			<trkpt lat="47.0214108196" lon="7.5008943307">
				<ele>527.8</ele>
				<time>2021-04-12T10:08:38+02:00</time>
				<extensions>
					<swisstopo:routepoint_id>1954149864</swisstopo:routepoint_id>
				</extensions>
			</trkpt>
			<trkpt lat="47.0214972549" lon="7.5009029901">
				<ele>528.0</ele>
				<time>2021-04-12T10:08:39+02:00</time>
				<extensions>
					<swisstopo:routepoint_id>1929350677</swisstopo:routepoint_id>
				</extensions>
			</trkpt>
			<trkpt lat="47.0215812686" lon="7.5009128052">
				<ele>528.2</ele>
				<time>2021-04-12T10:08:40+02:00</time>
				<extensions>
					<swisstopo:routepoint_id>1741242286</swisstopo:routepoint_id>
				</extensions>
			</trkpt>
			<trkpt lat="47.0216585164" lon="7.5009226994">
				<ele>528.5</ele>
				<time>2021-04-12T10:08:41+02:00</time>
				<extensions>
					<swisstopo:routepoint_id>1299443133</swisstopo:routepoint_id>
				</extensions>
			</trkpt>
			<trkpt lat="47.0217259552" lon="7.5009315553">
				<ele>528.8</ele>
				<time>2021-04-12T10:08:42+02:00</time>
				<extensions>
					<swisstopo:routepoint_id>1979529988</swisstopo:routepoint_id>
				</extensions>
			</trkpt>
			<trkpt lat="47.0217821140" lon="7.5009387450">
				<ele>529.1</ele>
				<time>2021-04-12T10:08:43+02:00</time>
				<extensions>
					<swisstopo:routepoint_id>1143848992</swisstopo:routepoint_id>
				</extensions>
			</trkpt>
			<trkpt lat="47.0218265906" lon="7.5009438931">
				<ele>529.3</ele>
				<time>2021-04-12T10:08:44+02:00</time>
				<extensions>
					<swisstopo:routepoint_id>396400600</swisstopo:routepoint_id>
				</extensions>
			</trkpt>
			<trkpt lat="47.0218598668" lon="7.5009467508">
				<ele>529.5</ele>
				<time>2021-04-12T10:08:45+02:00</time>
				<extensions>
					<swisstopo:routepoint_id>810611206</swisstopo:routepoint_id>
				</extensions>
			</trkpt>
			<trkpt lat="47.0218827686" lon="7.5009476432">
				<ele>529.7</ele>
				<time>2021-04-12T10:08:46+02:00</time>
				<extensions>
					<swisstopo:routepoint_id>306282674</swisstopo:routepoint_id>
				</extensions>
			</trkpt>
			<trkpt lat="47.0218968200" lon="7.5009469309">
				<ele>529.8</ele>
				<time>2021-04-12T10:08:47+02:00</time>
				<extensions>
					<swisstopo:routepoint_id>174600059</swisstopo:routepoint_id>
				</extensions>
			</trkpt>
			<trkpt lat="47.0219039462" lon="7.5009450985">
				<ele>530.0</ele>
				<time>2021-04-12T10:08:48+02:00</time>
				<extensions>
					<swisstopo:routepoint_id>1040529811</swisstopo:routepoint_id>
				</extensions>
			</trkpt>
			<trkpt lat="47.0219055578" lon="7.5009424203">
				<ele>530.1</ele>
				<time>2021-04-12T10:08:49+02:00</time>
				<extensions>
					<swisstopo:routepoint_id>1225195956</swisstopo:routepoint_id>
				</extensions>
			</trkpt>
			<trkpt lat="47.0219032618" lon="7.5009395600">
				<ele>530.1</ele>
				<time>2021-04-12T10:08:50+02:00</time>
				<extensions>
					<swisstopo:routepoint_id>1795225056</swisstopo:routepoint_id>
				</extensions>
			</trkpt>
			<trkpt lat="47.0218989713" lon="7.5009369212">
				<ele>530.2</ele>
				<time>2021-04-12T10:08:51+02:00</time>
				<extensions>
					<swisstopo:routepoint_id>202275842</swisstopo:routepoint_id>
				</extensions>
			</trkpt>
			<trkpt lat="47.0218947062" lon="7.5009350172">
				<ele>530.2</ele>
				<time>2021-04-12T10:08:52+02:00</time>
				<extensions>
					<swisstopo:routepoint_id>183463293</swisstopo:routepoint_id>
				</extensions>
			</trkpt>
			<trkpt lat="47.0218932116" lon="7.5009351411">
				<ele>530.2</ele>
				<time>2021-04-12T10:08:53+02:00</time>
				<extensions>
					<swisstopo:routepoint_id>1828532006</swisstopo:routepoint_id>
				</extensions>
			</trkpt>
			<trkpt lat="47.0218976754" lon="7.5009391816">
				<ele>530.3</ele>
				<time>2021-04-12T10:08:54+02:00</time>
				<extensions>
					<swisstopo:routepoint_id>1646436272</swisstopo:routepoint_id>
				</extensions>
			</trkpt>
			<trkpt lat="47.0219112462" lon="7.5009490071">
				<ele>530.4</ele>
				<time>2021-04-12T10:08:55+02:00</time>
				<extensions>
					<swisstopo:routepoint_id>1327631909</swisstopo:routepoint_id>
				</extensions>
			</trkpt>
			<trkpt lat="47.0219369439" lon="7.5009655127">
				<ele>530.4</ele>
				<time>2021-04-12T10:08:56+02:00</time>
				<extensions>
					<swisstopo:routepoint_id>1154402233</swisstopo:routepoint_id>
				</extensions>
			</trkpt>
			<trkpt lat="47.0219766618" lon="7.5009875470">
				<ele>530.5</ele>
				<time>2021-04-12T10:08:57+02:00</time>
				<extensions>
					<swisstopo:routepoint_id>1671063033</swisstopo:routepoint_id>
				</extensions>
			</trkpt>
			<trkpt lat="47.0220305630" lon="7.5010126624">
				<ele>530.4</ele>
				<time>2021-04-12T10:08:58+02:00</time>
				<extensions>
					<swisstopo:routepoint_id>765260165</swisstopo:routepoint_id>
				</extensions>
			</trkpt>
			<trkpt lat="47.0220982749" lon="7.5010386107">
				<ele>530.5</ele>
				<time>2021-04-12T10:08:59+02:00</time>
				<extensions>
					<swisstopo:routepoint_id>448031272</swisstopo:routepoint_id>
				</extensions>
			</trkpt>
			<trkpt lat="47.0221774303" lon="7.5010659013">
				<ele>530.6</ele>
				<time>2021-04-12T10:09:00+02:00</time>
				<extensions>
					<swisstopo:routepoint_id>983922122</swisstopo:routepoint_id>
				</extensions>
			</trkpt>
			<trkpt lat="47.0222653345" lon="7.5010939028">
				<ele>530.7</ele>
				<time>2021-04-12T10:09:01+02:00</time>
				<extensions>
					<swisstopo:routepoint_id>1155022554</swisstopo:routepoint_id>
				</extensions>
			</trkpt>
			<trkpt lat="47.0223591120" lon="7.5011217896">
				<ele>530.8</ele>
				<time>2021-04-12T10:09:02+02:00</time>
				<extensions>
					<swisstopo:routepoint_id>1359379845</swisstopo:routepoint_id>
				</extensions>
			</trkpt>
			<trkpt lat="47.0224567277" lon="7.5011487832">
				<ele>531.0</ele>
				<time>2021-04-12T10:09:03+02:00</time>
				<extensions>
					<swisstopo:routepoint_id>18534482</swisstopo:routepoint_id>
				</extensions>
			</trkpt>
			<trkpt lat="47.0225572053" lon="7.5011750553">
				<ele>531.0</ele>
				<time>2021-04-12T10:09:04+02:00</time>
				<extensions>
					<swisstopo:routepoint_id>123910159</swisstopo:routepoint_id>
				</extensions>
			</trkpt>
			<trkpt lat="47.0226590823" lon="7.5012001959">
				<ele>531.1</ele>
				<time>2021-04-12T10:09:05+02:00</time>
				<extensions>
					<swisstopo:routepoint_id>1646388370</swisstopo:routepoint_id>
				</extensions>
			</trkpt>
			<trkpt lat="47.0227612010" lon="7.5012238778">
				<ele>531.1</ele>
				<time>2021-04-12T10:09:06+02:00</time>
				<extensions>
					<swisstopo:routepoint_id>522542995</swisstopo:routepoint_id>
				</extensions>
			</trkpt>
			<trkpt lat="47.0228632014" lon="7.5012458064">
				<ele>531.1</ele>
				<time>2021-04-12T10:09:07+02:00</time>
				<extensions>
					<swisstopo:routepoint_id>1319484382</swisstopo:routepoint_id>
				</extensions>
			</trkpt>
			<trkpt lat="47.0229649639" lon="7.5012656146">
				<ele>531.0</ele>
				<time>2021-04-12T10:09:08+02:00</time>
				<extensions>
					<swisstopo:routepoint_id>1657869352</swisstopo:routepoint_id>
				</extensions>
			</trkpt>
			<trkpt lat="47.0230663638" lon="7.5012835328">
				<ele>531.0</ele>
				<time>2021-04-12T10:09:09+02:00</time>
				<extensions>
					<swisstopo:routepoint_id>209879239</swisstopo:routepoint_id>
				</extensions>
			</trkpt>
			<trkpt lat="47.0231674751" lon="7.5012995819">
				<ele>530.9</ele>
				<time>2021-04-12T10:09:10+02:00</time>
				<extensions>
					<swisstopo:routepoint_id>1272221499</swisstopo:routepoint_id>
				</extensions>
			</trkpt>
			<trkpt lat="47.0232692640" lon="7.5013138767">
				<ele>530.8</ele>
				<time>2021-04-12T10:09:11+02:00</time>
				<extensions>
					<swisstopo:routepoint_id>1879544161</swisstopo:routepoint_id>
				</extensions>
			</trkpt>
			<trkpt lat="47.0233716567" lon="7.5013259206">
				<ele>530.8</ele>
				<time>2021-04-12T10:09:12+02:00</time>
				<extensions>
					<swisstopo:routepoint_id>14266557</swisstopo:routepoint_id>
				</extensions>
			</trkpt>
			<trkpt lat="47.0234742840" lon="7.5013360757">
				<ele>530.7</ele>
				<time>2021-04-12T10:09:13+02:00</time>
				<extensions>
					<swisstopo:routepoint_id>1407338682</swisstopo:routepoint_id>
				</extensions>
			</trkpt>
			<trkpt lat="47.0235762981" lon="7.5013450044">
				<ele>530.6</ele>
				<time>2021-04-12T10:09:14+02:00</time>
				<extensions>
					<swisstopo:routepoint_id>756340316</swisstopo:routepoint_id>
				</extensions>
			</trkpt>
			<trkpt lat="47.0236776987" lon="7.5013531075">
				<ele>530.5</ele>
				<time>2021-04-12T10:09:15+02:00</time>
				<extensions>
					<swisstopo:routepoint_id>855984419</swisstopo:routepoint_id>
				</extensions>
			</trkpt>
			<trkpt lat="47.0237787412" lon="7.5013609241">
				<ele>530.5</ele>
				<time>2021-04-12T10:09:16+02:00</time>
				<extensions>
					<swisstopo:routepoint_id>537178880</swisstopo:routepoint_id>
				</extensions>
			</trkpt>
			<trkpt lat="47.0238787132" lon="7.5013680481">
				<ele>530.4</ele>
				<time>2021-04-12T10:09:17+02:00</time>
				<extensions>
					<swisstopo:routepoint_id>344184172</swisstopo:routepoint_id>
				</extensions>
			</trkpt>
			<trkpt lat="47.0239772992" lon="7.5013747687">
				<ele>530.4</ele>
				<time>2021-04-12T10:09:18+02:00</time>
				<extensions>
					<swisstopo:routepoint_id>1529917433</swisstopo:routepoint_id>
				</extensions>
			</trkpt>
			<trkpt lat="47.0240739617" lon="7.5013812501">
				<ele>530.4</ele>
				<time>2021-04-12T10:09:19+02:00</time>
				<extensions>
					<swisstopo:routepoint_id>1500590900</swisstopo:routepoint_id>
				</extensions>
			</trkpt>
			<trkpt lat="47.0241684242" lon="7.5013874931">
				<ele>530.4</ele>
				<time>2021-04-12T10:09:20+02:00</time>
				<extensions>
					<swisstopo:routepoint_id>383305932</swisstopo:routepoint_id>
				</extensions>
			</trkpt>
			<trkpt lat="47.0242612131" lon="7.5013946657">
				<ele>530.4</ele>
				<time>2021-04-12T10:09:21+02:00</time>
				<extensions>
					<swisstopo:routepoint_id>1919341771</swisstopo:routepoint_id>
				</extensions>
			</trkpt>
			<trkpt lat="47.0243526798" lon="7.5014020328">
				<ele>530.4</ele>
				<time>2021-04-12T10:09:22+02:00</time>
				<extensions>
					<swisstopo:routepoint_id>1025283610</swisstopo:routepoint_id>
				</extensions>
			</trkpt>
			<trkpt lat="47.0244432978" lon="7.5014090083">
				<ele>530.4</ele>
				<time>2021-04-12T10:09:23+02:00</time>
				<extensions>
					<swisstopo:routepoint_id>532849742</swisstopo:routepoint_id>
				</extensions>
			</trkpt>
			<trkpt lat="47.0245332602" lon="7.5014156725">
				<ele>530.5</ele>
				<time>2021-04-12T10:09:24+02:00</time>
				<extensions>
					<swisstopo:routepoint_id>598805804</swisstopo:routepoint_id>
				</extensions>
			</trkpt>
			<trkpt lat="47.0246234673" lon="7.5014224298">
				<ele>530.5</ele>
				<time>2021-04-12T10:09:25+02:00</time>
				<extensions>
					<swisstopo:routepoint_id>1020777986</swisstopo:routepoint_id>
				</extensions>
			</trkpt>
			<trkpt lat="47.0247140805" lon="7.5014291828">
				<ele>530.5</ele>
				<time>2021-04-12T10:09:26+02:00</time>
				<extensions>
					<swisstopo:routepoint_id>2116238466</swisstopo:routepoint_id>
				</extensions>
			</trkpt>
			<trkpt lat="47.0248048933" lon="7.5014361613">
				<ele>530.4</ele>
				<time>2021-04-12T10:09:27+02:00</time>
				<extensions>
					<swisstopo:routepoint_id>995736448</swisstopo:routepoint_id>
				</extensions>
			</trkpt>
			<trkpt lat="47.0248956998" lon="7.5014426975">
				<ele>530.3</ele>
				<time>2021-04-12T10:09:28+02:00</time>
				<extensions>
					<swisstopo:routepoint_id>2420465</swisstopo:routepoint_id>
				</extensions>
			</trkpt>
			<trkpt lat="47.0249872386" lon="7.5014494542">
				<ele>530.1</ele>
				<time>2021-04-12T10:09:29+02:00</time>
				<extensions>
					<swisstopo:routepoint_id>2026049609</swisstopo:routepoint_id>
				</extensions>
			</trkpt>
			<trkpt lat="47.0250803527" lon="7.5014562101">
				<ele>530.0</ele>
				<time>2021-04-12T10:09:30+02:00</time>
				<extensions>
					<swisstopo:routepoint_id>1315071631</swisstopo:routepoint_id>
				</extensions>
			</trkpt>
			<trkpt lat="47.0251757436" lon="7.5014627449">
				<ele>529.7</ele>
				<time>2021-04-12T10:09:31+02:00</time>
				<extensions>
					<swisstopo:routepoint_id>507207293</swisstopo:routepoint_id>
				</extensions>
			</trkpt>
			<trkpt lat="47.0252737917" lon="7.5014687231">
				<ele>529.4</ele>
				<time>2021-04-12T10:09:32+02:00</time>
				<extensions>
					<swisstopo:routepoint_id>1270378508</swisstopo:routepoint_id>
				</extensions>
			</trkpt>
			<trkpt lat="47.0253745990" lon="7.5014749505">
				<ele>529.1</ele>
				<time>2021-04-12T10:09:33+02:00</time>
				<extensions>
					<swisstopo:routepoint_id>969165482</swisstopo:routepoint_id>
				</extensions>
			</trkpt>
			<trkpt lat="47.0254775765" lon="7.5014812944">
				<ele>528.7</ele>
				<time>2021-04-12T10:09:34+02:00</time>
				<extensions>
					<swisstopo:routepoint_id>100793479</swisstopo:routepoint_id>
				</extensions>
			</trkpt>
			<trkpt lat="47.0255822022" lon="7.5014886201">
				<ele>528.3</ele>
				<time>2021-04-12T10:09:35+02:00</time>
				<extensions>
					<swisstopo:routepoint_id>1818887717</swisstopo:routepoint_id>
				</extensions>
			</trkpt>
			<trkpt lat="47.0256887826" lon="7.5014972409">
				<ele>528.0</ele>
				<time>2021-04-12T10:09:36+02:00</time>
				<extensions>
					<swisstopo:routepoint_id>616144574</swisstopo:routepoint_id>
				</extensions>
			</trkpt>
			<trkpt lat="47.0257975284" lon="7.5015071857">
				<ele>527.6</ele>
				<time>2021-04-12T10:09:37+02:00</time>
				<extensions>
					<swisstopo:routepoint_id>375709384</swisstopo:routepoint_id>
				</extensions>
			</trkpt>
			<trkpt lat="47.0259082816" lon="7.5015184128">
				<ele>527.2</ele>
				<time>2021-04-12T10:09:38+02:00</time>
				<extensions>
					<swisstopo:routepoint_id>945694708</swisstopo:routepoint_id>
				</extensions>
			</trkpt>
			<trkpt lat="47.0260203012" lon="7.5015307768">
				<ele>526.8</ele>
				<time>2021-04-12T10:09:39+02:00</time>
				<extensions>
					<swisstopo:routepoint_id>764485909</swisstopo:routepoint_id>
				</extensions>
			</trkpt>
			<trkpt lat="47.0261326781" lon="7.5015443724">
				<ele>526.5</ele>
				<time>2021-04-12T10:09:40+02:00</time>
				<extensions>
					<swisstopo:routepoint_id>320012562</swisstopo:routepoint_id>
				</extensions>
			</trkpt>
			<trkpt lat="47.0262452649" lon="7.5015589649">
				<ele>526.1</ele>
				<time>2021-04-12T10:09:41+02:00</time>
				<extensions>
					<swisstopo:routepoint_id>1152077446</swisstopo:routepoint_id>
				</extensions>
			</trkpt>
			<trkpt lat="47.0263577507" lon="7.5015744332">
				<ele>525.8</ele>
				<time>2021-04-12T10:09:42+02:00</time>
				<extensions>
					<swisstopo:routepoint_id>1253073570</swisstopo:routepoint_id>
				</extensions>
			</trkpt>
			<trkpt lat="47.0264695583" lon="7.5015906736">
				<ele>525.6</ele>
				<time>2021-04-12T10:09:43+02:00</time>
				<extensions>
					<swisstopo:routepoint_id>35364861</swisstopo:routepoint_id>
				</extensions>
			</trkpt>
			<trkpt lat="47.0265798850" lon="7.5016075321">
				<ele>525.5</ele>
				<time>2021-04-12T10:09:44+02:00</time>
				<extensions>
					<swisstopo:routepoint_id>1671732255</swisstopo:routepoint_id>
				</extensions>
			</trkpt>
			<trkpt lat="47.0266880439" lon="7.5016248951">
				<ele>525.4</ele>
				<time>2021-04-12T10:09:45+02:00</time>
				<extensions>
					<swisstopo:routepoint_id>1275456084</swisstopo:routepoint_id>
				</extensions>
			</trkpt>
			<trkpt lat="47.0267942333" lon="7.5016432447">
				<ele>525.3</ele>
				<time>2021-04-12T10:09:46+02:00</time>
				<extensions>
					<swisstopo:routepoint_id>408639434</swisstopo:routepoint_id>
				</extensions>
			</trkpt>
			<trkpt lat="47.0268991472" lon="7.5016629962">
				<ele>525.2</ele>
				<time>2021-04-12T10:09:47+02:00</time>
				<extensions>
					<swisstopo:routepoint_id>350264132</swisstopo:routepoint_id>
				</extensions>
			</trkpt>
			<trkpt lat="47.0270027556" lon="7.5016833941">
				<ele>525.2</ele>
				<time>2021-04-12T10:09:48+02:00</time>
				<extensions>
					<swisstopo:routepoint_id>636590097</swisstopo:routepoint_id>
				</extensions>
			</trkpt>
			<trkpt lat="47.0271051914" lon="7.5017039222">
				<ele>525.3</ele>
				<time>2021-04-12T10:09:49+02:00</time>
				<extensions>
					<swisstopo:routepoint_id>406230925</swisstopo:routepoint_id>
				</extensions>
			</trkpt>
			<trkpt lat="47.0272063818" lon="7.5017240919">
				<ele>525.4</ele>
				<time>2021-04-12T10:09:50+02:00</time>
				<extensions>
					<swisstopo:routepoint_id>672642662</swisstopo:routepoint_id>
				</extensions>
			</trkpt>
			<trkpt lat="47.0273072218" lon="7.5017439857">
				<ele>525.6</ele>
				<time>2021-04-12T10:09:51+02:00</time>
				<extensions>
					<swisstopo:routepoint_id>751302426</swisstopo:routepoint_id>
				</extensions>
			</trkpt>
			<trkpt lat="47.0274072204" lon="7.5017627162">
				<ele>525.9</ele>
				<time>2021-04-12T10:09:52+02:00</time>
				<extensions>
					<swisstopo:routepoint_id>2083513069</swisstopo:routepoint_id>
				</extensions>
			</trkpt>
			<trkpt lat="47.0275062638" lon="7.5017797139">
				<ele>526.4</ele>
				<time>2021-04-12T10:09:53+02:00</time>
				<extensions>
					<swisstopo:routepoint_id>735802701</swisstopo:routepoint_id>
				</extensions>
			</trkpt>
			<trkpt lat="47.0276045125" lon="7.5017951714">
				<ele>526.9</ele>
				<time>2021-04-12T10:09:54+02:00</time>
				<extensions>
					<swisstopo:routepoint_id>1425156281</swisstopo:routepoint_id>
				</extensions>
			</trkpt>
			<trkpt lat="47.0277022742" lon="7.5018099747">
				<ele>527.5</ele>
				<time>2021-04-12T10:09:55+02:00</time>
				<extensions>
					<swisstopo:routepoint_id>1716499776</swisstopo:routepoint_id>
				</extensions>
			</trkpt>
			<trkpt lat="47.0277997153" lon="7.5018250544">
				<ele>528.2</ele>
				<time>2021-04-12T10:09:56+02:00</time>
				<extensions>
					<swisstopo:routepoint_id>2063905081</swisstopo:routepoint_id>
				</extensions>
			</trkpt>
			<trkpt lat="47.0278970034" lon="7.5018411185">
				<ele>528.8</ele>
				<time>2021-04-12T10:09:57+02:00</time>
				<extensions>
					<swisstopo:routepoint_id>1896830023</swisstopo:routepoint_id>
				</extensions>
			</trkpt>
			<trkpt lat="47.0279950356" lon="7.5018575776">
				<ele>529.4</ele>
				<time>2021-04-12T10:09:58+02:00</time>
				<extensions>
					<swisstopo:routepoint_id>627456846</swisstopo:routepoint_id>
				</extensions>
			</trkpt>
			<trkpt lat="47.0280941370" lon="7.5018736006">
				<ele>530.0</ele>
				<time>2021-04-12T10:09:59+02:00</time>
				<extensions>
					<swisstopo:routepoint_id>1522503952</swisstopo:routepoint_id>
				</extensions>
			</trkpt>
			<trkpt lat="47.0281944129" lon="7.5018883731">
				<ele>530.4</ele>
				<time>2021-04-12T10:10:00+02:00</time>
				<extensions>
					<swisstopo:routepoint_id>1456267259</swisstopo:routepoint_id>
				</extensions>
			</trkpt>
			<trkpt lat="47.0282957790" lon="7.5019018653">
				<ele>530.8</ele>
				<time>2021-04-12T10:10:01+02:00</time>
				<extensions>
					<swisstopo:routepoint_id>612697154</swisstopo:routepoint_id>
				</extensions>
			</trkpt>
			<trkpt lat="47.0283983099" lon="7.5019141954">
				<ele>531.2</ele>
				<time>2021-04-12T10:10:02+02:00</time>
				<extensions>
					<swisstopo:routepoint_id>416979913</swisstopo:routepoint_id>
				</extensions>
			</trkpt>
			<trkpt lat="47.0285023755" lon="7.5019252727">
				<ele>531.4</ele>
				<time>2021-04-12T10:10:03+02:00</time>
				<extensions>
					<swisstopo:routepoint_id>942257630</swisstopo:routepoint_id>
				</extensions>
			</trkpt>
			<trkpt lat="47.0286082106" lon="7.5019350441">
				<ele>531.5</ele>
				<time>2021-04-12T10:10:04+02:00</time>
				<extensions>
					<swisstopo:routepoint_id>979574432</swisstopo:routepoint_id>
				</extensions>
			</trkpt>
			<trkpt lat="47.0287152526" lon="7.5019437524">
				<ele>531.7</ele>
				<time>2021-04-12T10:10:05+02:00</time>
				<extensions>
					<swisstopo:routepoint_id>1097840722</swisstopo:routepoint_id>
				</extensions>
			</trkpt>
			<trkpt lat="47.0288235035" lon="7.5019512922">
				<ele>531.7</ele>
				<time>2021-04-12T10:10:06+02:00</time>
				<extensions>
					<swisstopo:routepoint_id>229519630</swisstopo:routepoint_id>
				</extensions>
			</trkpt>
			<trkpt lat="47.0289332301" lon="7.5019577815">
				<ele>531.6</ele>
				<time>2021-04-12T10:10:07+02:00</time>
				<extensions>
					<swisstopo:routepoint_id>655791398</swisstopo:routepoint_id>
				</extensions>
			</trkpt>
			<trkpt lat="47.0290450332" lon="7.5019635472">
				<ele>531.4</ele>
				<time>2021-04-12T10:10:08+02:00</time>
				<extensions>
					<swisstopo:routepoint_id>999949782</swisstopo:routepoint_id>
				</extensions>
			</trkpt>
			<trkpt lat="47.0291591401" lon="7.5019688157">
				<ele>531.2</ele>
				<time>2021-04-12T10:10:09+02:00</time>
				<extensions>
					<swisstopo:routepoint_id>2096448299</swisstopo:routepoint_id>
				</extensions>
			</trkpt>
			<trkpt lat="47.0292755423" lon="7.5019741286">
				<ele>531.0</ele>
				<time>2021-04-12T10:10:10+02:00</time>
				<extensions>
					<swisstopo:routepoint_id>1242364964</swisstopo:routepoint_id>
				</extensions>
			</trkpt>
			<trkpt lat="47.0293948469" lon="7.5019794077">
				<ele>530.8</ele>
				<time>2021-04-12T10:10:11+02:00</time>
				<extensions>
					<swisstopo:routepoint_id>444450167</swisstopo:routepoint_id>
				</extensions>
			</trkpt>
			<trkpt lat="47.0295175850" lon="7.5019847493">
				<ele>530.7</ele>
				<time>2021-04-12T10:10:12+02:00</time>
				<extensions>
					<swisstopo:routepoint_id>925832503</swisstopo:routepoint_id>
				</extensions>
			</trkpt>
			<trkpt lat="47.0296434823" lon="7.5019896874">
				<ele>530.5</ele>
				<time>2021-04-12T10:10:13+02:00</time>
				<extensions>
					<swisstopo:routepoint_id>1947855406</swisstopo:routepoint_id>
				</extensions>
			</trkpt>
			<trkpt lat="47.0297724448" lon="7.5019940947">
				<ele>530.3</ele>
				<time>2021-04-12T10:10:14+02:00</time>
				<extensions>
					<swisstopo:routepoint_id>1365093774</swisstopo:routepoint_id>
				</extensions>
			</trkpt>
			<trkpt lat="47.0299045428" lon="7.5019979762">
				<ele>530.0</ele>
				<time>2021-04-12T10:10:15+02:00</time>
				<extensions>
					<swisstopo:routepoint_id>1563258717</swisstopo:routepoint_id>
				</extensions>
			</trkpt>
			<trkpt lat="47.0300397814" lon="7.5020017750">
				<ele>529.8</ele>
				<time>2021-04-12T10:10:16+02:00</time>
				<extensions>
					<swisstopo:routepoint_id>1374319221</swisstopo:routepoint_id>
				</extensions>
			</trkpt>
			<trkpt lat="47.0301785066" lon="7.5020058606">
				<ele>529.5</ele>
				<time>2021-04-12T10:10:17+02:00</time>
				<extensions>
					<swisstopo:routepoint_id>1996523862</swisstopo:routepoint_id>
				</extensions>
			</trkpt>
			<trkpt lat="47.0303201116" lon="7.5020105854">
				<ele>529.2</ele>
				<time>2021-04-12T10:10:18+02:00</time>
				<extensions>
					<swisstopo:routepoint_id>1144564259</swisstopo:routepoint_id>
				</extensions>
			</trkpt>
			<trkpt lat="47.0304637360" lon="7.5020158717">
				<ele>528.9</ele>
				<time>2021-04-12T10:10:19+02:00</time>
				<extensions>
					<swisstopo:routepoint_id>1680474834</swisstopo:routepoint_id>
				</extensions>
			</trkpt>
			<trkpt lat="47.0306087267" lon="7.5020212749">
				<ele>528.6</ele>
				<time>2021-04-12T10:10:20+02:00</time>
				<extensions>
					<swisstopo:routepoint_id>35609694</swisstopo:routepoint_id>
				</extensions>
			</trkpt>
			<trkpt lat="47.0307537799" lon="7.5020268670">
				<ele>528.2</ele>
				<time>2021-04-12T10:10:21+02:00</time>
				<extensions>
					<swisstopo:routepoint_id>1491673192</swisstopo:routepoint_id>
				</extensions>
			</trkpt>
			<trkpt lat="47.0308986017" lon="7.5020330717">
				<ele>527.9</ele>
				<time>2021-04-12T10:10:22+02:00</time>
				<extensions>
					<swisstopo:routepoint_id>827242866</swisstopo:routepoint_id>
				</extensions>
			</trkpt>
			<trkpt lat="47.0310433290" lon="7.5020398606">
				<ele>527.6</ele>
				<time>2021-04-12T10:10:23+02:00</time>
				<extensions>
					<swisstopo:routepoint_id>661718184</swisstopo:routepoint_id>
				</extensions>
			</trkpt>
			<trkpt lat="47.0311890080" lon="7.5020472842">
				<ele>527.2</ele>
				<time>2021-04-12T10:10:24+02:00</time>
				<extensions>
					<swisstopo:routepoint_id>1827194322</swisstopo:routepoint_id>
				</extensions>
			</trkpt>
			<trkpt lat="47.0313358701" lon="7.5020551010">
				<ele>526.9</ele>
				<time>2021-04-12T10:10:25+02:00</time>
				<extensions>
					<swisstopo:routepoint_id>638817754</swisstopo:routepoint_id>
				</extensions>
			</trkpt>
			<trkpt lat="47.0314843349" lon="7.5020634298">
				<ele>526.6</ele>
				<time>2021-04-12T10:10:26+02:00</time>
				<extensions>
					<swisstopo:routepoint_id>1339240125</swisstopo:routepoint_id>
				</extensions>
			</trkpt>
			<trkpt lat="47.0316346022" lon="7.5020720414">
				<ele>526.3</ele>
				<time>2021-04-12T10:10:27+02:00</time>
				<extensions>
					<swisstopo:routepoint_id>832676668</swisstopo:routepoint_id>
				</extensions>
			</trkpt>
			<trkpt lat="47.0317869744" lon="7.5020808373">
				<ele>526.1</ele>
				<time>2021-04-12T10:10:28+02:00</time>
				<extensions>
					<swisstopo:routepoint_id>1793315224</swisstopo:routepoint_id>
				</extensions>
			</trkpt>
			<trkpt lat="47.0319416491" lon="7.5020897116">
				<ele>525.9</ele>
				<time>2021-04-12T10:10:29+02:00</time>
				<extensions>
					<swisstopo:routepoint_id>315984123</swisstopo:routepoint_id>
				</extensions>
			</trkpt>
			<trkpt lat="47.0320986466" lon="7.5020984878">
				<ele>525.7</ele>
				<time>2021-04-12T10:10:30+02:00</time>
				<extensions>
					<swisstopo:routepoint_id>18096230</swisstopo:routepoint_id>
				</extensions>
			</trkpt>
			<trkpt lat="47.0322579233" lon="7.5021074451">
				<ele>525.5</ele>
				<time>2021-04-12T10:10:31+02:00</time>
				<extensions>
					<swisstopo:routepoint_id>1348143383</swisstopo:routepoint_id>
				</extensions>
			</trkpt>
			<trkpt lat="47.0324195473" lon="7.5021161329">
				<ele>525.4</ele>
				<time>2021-04-12T10:10:32+02:00</time>
				<extensions>
					<swisstopo:routepoint_id>145878584</swisstopo:routepoint_id>
				</extensions>
			</trkpt>
			<trkpt lat="47.0325834150" lon="7.5021247132">
				<ele>525.2</ele>
				<time>2021-04-12T10:10:33+02:00</time>
				<extensions>
					<swisstopo:routepoint_id>1502520061</swisstopo:routepoint_id>
				</extensions>
			</trkpt>
			<trkpt lat="47.0327491793" lon="7.5021332877">
				<ele>525.1</ele>
				<time>2021-04-12T10:10:34+02:00</time>
				<extensions>
					<swisstopo:routepoint_id>594460154</swisstopo:routepoint_id>
				</extensions>
			</trkpt>
			<trkpt lat="47.0329165003" lon="7.5021422224">
				<ele>525.0</ele>
				<time>2021-04-12T10:10:35+02:00</time>
				<extensions>
					<swisstopo:routepoint_id>997882434</swisstopo:routepoint_id>
				</extensions>
			</trkpt>
			<trkpt lat="47.0330848995" lon="7.5021513927">
				<ele>525.0</ele>
				<time>2021-04-12T10:10:36+02:00</time>
				<extensions>
					<swisstopo:routepoint_id>1710268815</swisstopo:routepoint_id>
				</extensions>
			</trkpt>
			<trkpt lat="47.0332535999" lon="7.5021602103">
				<ele>525.0</ele>
				<time>2021-04-12T10:10:37+02:00</time>
				<extensions>
					<swisstopo:routepoint_id>419358610</swisstopo:routepoint_id>
				</extensions>
			</trkpt>
			<trkpt lat="47.0334223213" lon="7.5021688249">
				<ele>525.0</ele>
				<time>2021-04-12T10:10:38+02:00</time>
				<extensions>
					<swisstopo:routepoint_id>118828816</swisstopo:routepoint_id>
				</extensions>
			</trkpt>
			<trkpt lat="47.0335904698" lon="7.5021774870">
				<ele>525.1</ele>
				<time>2021-04-12T10:10:39+02:00</time>
				<extensions>
					<swisstopo:routepoint_id>2143602449</swisstopo:routepoint_id>
				</extensions>
			</trkpt>
			<trkpt lat="47.0337579245" lon="7.5021862488">
				<ele>525.2</ele>
				<time>2021-04-12T10:10:40+02:00</time>
				<extensions>
					<swisstopo:routepoint_id>1340698271</swisstopo:routepoint_id>
				</extensions>
			</trkpt>
			<trkpt lat="47.0339244626" lon="7.5021950490">
				<ele>525.4</ele>
				<time>2021-04-12T10:10:41+02:00</time>
				<extensions>
					<swisstopo:routepoint_id>1717416373</swisstopo:routepoint_id>
				</extensions>
			</trkpt>
			<trkpt lat="47.0340897478" lon="7.5022037572">
				<ele>525.5</ele>
				<time>2021-04-12T10:10:42+02:00</time>
				<extensions>
					<swisstopo:routepoint_id>289281684</swisstopo:routepoint_id>
				</extensions>
			</trkpt>
			<trkpt lat="47.0342537999" lon="7.5022125282">
				<ele>525.7</ele>
				<time>2021-04-12T10:10:43+02:00</time>
				<extensions>
					<swisstopo:routepoint_id>54286180</swisstopo:routepoint_id>
				</extensions>
			</trkpt>
			<trkpt lat="47.0344167486" lon="7.5022212623">
				<ele>525.8</ele>
				<time>2021-04-12T10:10:44+02:00</time>
				<extensions>
					<swisstopo:routepoint_id>1854760932</swisstopo:routepoint_id>
				</extensions>
			</trkpt>
			<trkpt lat="47.0345786760" lon="7.5022298522">
				<ele>525.9</ele>
				<time>2021-04-12T10:10:45+02:00</time>
				<extensions>
					<swisstopo:routepoint_id>94364272</swisstopo:routepoint_id>
				</extensions>
			</trkpt>
			<trkpt lat="47.0347399247" lon="7.5022384494">
				<ele>526.0</ele>
				<time>2021-04-12T10:10:46+02:00</time>
				<extensions>
					<swisstopo:routepoint_id>1137388018</swisstopo:routepoint_id>
				</extensions>
			</trkpt>
			<trkpt lat="47.0349005954" lon="7.5022470620">
				<ele>526.0</ele>
				<time>2021-04-12T10:10:47+02:00</time>
				<extensions>
					<swisstopo:routepoint_id>1328476579</swisstopo:routepoint_id>
				</extensions>
			</trkpt>
			<trkpt lat="47.0350607642" lon="7.5022554179">
				<ele>526.1</ele>
				<time>2021-04-12T10:10:48+02:00</time>
				<extensions>
					<swisstopo:routepoint_id>318385394</swisstopo:routepoint_id>
				</extensions>
			</trkpt>
			<trkpt lat="47.0352205804" lon="7.5022637680">
				<ele>526.1</ele>
				<time>2021-04-12T10:10:49+02:00</time>
				<extensions>
					<swisstopo:routepoint_id>1721552281</swisstopo:routepoint_id>
				</extensions>
			</trkpt>
			<trkpt lat="47.0353800671" lon="7.5022724562">
				<ele>526.1</ele>
				<time>2021-04-12T10:10:50+02:00</time>
				<extensions>
					<swisstopo:routepoint_id>1082010736</swisstopo:routepoint_id>
				</extensions>
			</trkpt>
			<trkpt lat="47.0355393893" lon="7.5022812315">
				<ele>526.1</ele>
				<time>2021-04-12T10:10:51+02:00</time>
				<extensions>
					<swisstopo:routepoint_id>462917156</swisstopo:routepoint_id>
				</extensions>
			</trkpt>
			<trkpt lat="47.0356984929" lon="7.5022898344">
				<ele>526.2</ele>
				<time>2021-04-12T10:10:52+02:00</time>
				<extensions>
					<swisstopo:routepoint_id>2062871458</swisstopo:routepoint_id>
				</extensions>
			</trkpt>
			<trkpt lat="47.0358571259" lon="7.5022980630">
				<ele>526.3</ele>
				<time>2021-04-12T10:10:53+02:00</time>
				<extensions>
					<swisstopo:routepoint_id>1704597438</swisstopo:routepoint_id>
				</extensions>
			</trkpt>
			<trkpt lat="47.0360151683" lon="7.5023058348">
				<ele>526.5</ele>
				<time>2021-04-12T10:10:54+02:00</time>
				<extensions>
					<swisstopo:routepoint_id>1737289486</swisstopo:routepoint_id>
				</extensions>
			</trkpt>
			<trkpt lat="47.0361726789" lon="7.5023131402">
				<ele>526.6</ele>
				<time>2021-04-12T10:10:55+02:00</time>
				<extensions>
					<swisstopo:routepoint_id>1436726590</swisstopo:routepoint_id>
				</extensions>
			</trkpt>
			<trkpt lat="47.0363297236" lon="7.5023200962">
				<ele>526.8</ele>
				<time>2021-04-12T10:10:56+02:00</time>
				<extensions>
					<swisstopo:routepoint_id>757671262</swisstopo:routepoint_id>
				</extensions>
			</trkpt>
			<trkpt lat="47.0364862903" lon="7.5023271583">
				<ele>527.0</ele>
				<time>2021-04-12T10:10:57+02:00</time>
				<extensions>
					<swisstopo:routepoint_id>1750357371</swisstopo:routepoint_id>
				</extensions>
			</trkpt>
			<trkpt lat="47.0366426513" lon="7.5023349466">
				<ele>527.1</ele>
				<time>2021-04-12T10:10:58+02:00</time>
				<extensions>
					<swisstopo:routepoint_id>2025337791</swisstopo:routepoint_id>
				</extensions>
			</trkpt>
			<trkpt lat="47.0367985103" lon="7.5023441752">
				<ele>527.3</ele>
				<time>2021-04-12T10:10:59+02:00</time>
				<extensions>
					<swisstopo:routepoint_id>88964740</swisstopo:routepoint_id>
				</extensions>
			</trkpt>
			<trkpt lat="47.0369535717" lon="7.5023559113">
				<ele>527.4</ele>
				<time>2021-04-12T10:11:00+02:00</time>
				<extensions>
					<swisstopo:routepoint_id>581766868</swisstopo:routepoint_id>
				</extensions>
			</trkpt>
			<trkpt lat="47.0371075468" lon="7.5023705325">
				<ele>527.4</ele>
				<time>2021-04-12T10:11:01+02:00</time>
				<extensions>
					<swisstopo:routepoint_id>262705685</swisstopo:routepoint_id>
				</extensions>
			</trkpt>
			<trkpt lat="47.0372599620" lon="7.5023879950">
				<ele>527.4</ele>
				<time>2021-04-12T10:11:02+02:00</time>
				<extensions>
					<swisstopo:routepoint_id>68069563</swisstopo:routepoint_id>
				</extensions>
			</trkpt>
			<trkpt lat="47.0374106499" lon="7.5024090235">
				<ele>527.3</ele>
				<time>2021-04-12T10:11:03+02:00</time>
				<extensions>
					<swisstopo:routepoint_id>1583845137</swisstopo:routepoint_id>
				</extensions>
			</trkpt>
			<trkpt lat="47.0375596530" lon="7.5024337076">
				<ele>527.2</ele>
				<time>2021-04-12T10:11:04+02:00</time>
				<extensions>
					<swisstopo:routepoint_id>1625412994</swisstopo:routepoint_id>
				</extensions>
			</trkpt>
			<trkpt lat="47.0377071080" lon="7.5024624107">
				<ele>527.0</ele>
				<time>2021-04-12T10:11:05+02:00</time>
				<extensions>
					<swisstopo:routepoint_id>176716671</swisstopo:routepoint_id>
				</extensions>
			</trkpt>
			<trkpt lat="47.0378535962" lon="7.5024947028">
				<ele>526.8</ele>
				<time>2021-04-12T10:11:06+02:00</time>
				<extensions>
					<swisstopo:routepoint_id>107205696</swisstopo:routepoint_id>
				</extensions>
			</trkpt>
			<trkpt lat="47.0379992825" lon="7.5025305646">
				<ele>526.6</ele>
				<time>2021-04-12T10:11:07+02:00</time>
				<extensions>
					<swisstopo:routepoint_id>67352839</swisstopo:routepoint_id>
				</extensions>
			</trkpt>
			<trkpt lat="47.0381439869" lon="7.5025694179">
				<ele>526.4</ele>
				<time>2021-04-12T10:11:08+02:00</time>
				<extensions>
					<swisstopo:routepoint_id>275283104</swisstopo:routepoint_id>
				</extensions>
			</trkpt>
			<trkpt lat="47.0382877346" lon="7.5026108201">
				<ele>526.2</ele>
				<time>2021-04-12T10:11:09+02:00</time>
				<extensions>
					<swisstopo:routepoint_id>1003353290</swisstopo:routepoint_id>
				</extensions>
			</trkpt>
			<trkpt lat="47.0384305159" lon="7.5026542237">
				<ele>526.1</ele>
				<time>2021-04-12T10:11:10+02:00</time>
				<extensions>
					<swisstopo:routepoint_id>1317148786</swisstopo:routepoint_id>
				</extensions>
			</trkpt>
			<trkpt lat="47.0385716652" lon="7.5026985921">
				<ele>526.0</ele>
				<time>2021-04-12T10:11:11+02:00</time>
				<extensions>
					<swisstopo:routepoint_id>1058213026</swisstopo:routepoint_id>
				</extensions>
			</trkpt>
			<trkpt lat="47.0387102252" lon="7.5027429998">
				<ele>525.9</ele>
				<time>2021-04-12T10:11:12+02:00</time>
				<extensions>
					<swisstopo:routepoint_id>2074247175</swisstopo:routepoint_id>
				</extensions>
			</trkpt>
			<trkpt lat="47.0388458191" lon="7.5027870007">
				<ele>525.8</ele>
				<time>2021-04-12T10:11:13+02:00</time>
				<extensions>
					<swisstopo:routepoint_id>1770228474</swisstopo:routepoint_id>
				</extensions>
			</trkpt>
			<trkpt lat="47.0389775045" lon="7.5028301005">
				<ele>525.8</ele>
				<time>2021-04-12T10:11:14+02:00</time>
				<extensions>
					<swisstopo:routepoint_id>991516980</swisstopo:routepoint_id>
				</extensions>
			</trkpt>
			<trkpt lat="47.0391048971" lon="7.5028722843">
				<ele>525.8</ele>
				<time>2021-04-12T10:11:15+02:00</time>
				<extensions>
					<swisstopo:routepoint_id>2100265787</swisstopo:routepoint_id>
				</extensions>
			</trkpt>
			<trkpt lat="47.0392276142" lon="7.5029128476">
				<ele>525.8</ele>
				<time>2021-04-12T10:11:16+02:00</time>
				<extensions>
					<swisstopo:routepoint_id>978376370</swisstopo:routepoint_id>
				</extensions>
			</trkpt>
			<trkpt lat="47.0393453616" lon="7.5029511741">
				<ele>525.9</ele>
				<time>2021-04-12T10:11:17+02:00</time>
				<extensions>
					<swisstopo:routepoint_id>289365511</swisstopo:routepoint_id>
				</extensions>
			</trkpt>
			<trkpt lat="47.0394580051" lon="7.5029870234">
				<ele>526.0</ele>
				<time>2021-04-12T10:11:18+02:00</time>
				<extensions>
					<swisstopo:routepoint_id>1463166569</swisstopo:routepoint_id>
				</extensions>
			</trkpt>
			<trkpt lat="47.0395654583" lon="7.5030201887">
				<ele>526.1</ele>
				<time>2021-04-12T10:11:19+02:00</time>
				<extensions>
					<swisstopo:routepoint_id>605283386</swisstopo:routepoint_id>
				</extensions>
			</trkpt>
			<trkpt lat="47.0396670474" lon="7.5030504880">
				<ele>526.2</ele>
				<time>2021-04-12T10:11:20+02:00</time>
				<extensions>
					<swisstopo:routepoint_id>367832663</swisstopo:routepoint_id>
				</extensions>
			</trkpt>
			<trkpt lat="47.0397621682" lon="7.5030793290">
				<ele>526.2</ele>
				<time>2021-04-12T10:11:21+02:00</time>
				<extensions>
					<swisstopo:routepoint_id>1705630975</swisstopo:routepoint_id>
				</extensions>
			</trkpt>
			<trkpt lat="47.0398498485" lon="7.5031090132">
				<ele>526.3</ele>
				<time>2021-04-12T10:11:22+02:00</time>
				<extensions>
					<swisstopo:routepoint_id>1928076669</swisstopo:routepoint_id>
				</extensions>
			</trkpt>
			<trkpt lat="47.0399299330" lon="7.5031407535">
				<ele>526.3</ele>
				<time>2021-04-12T10:11:23+02:00</time>
				<extensions>
					<swisstopo:routepoint_id>1803826300</swisstopo:routepoint_id>
				</extensions>
			</trkpt>
			<trkpt lat="47.0400025202" lon="7.5031737125">
				<ele>526.3</ele>
				<time>2021-04-12T10:11:24+02:00</time>
				<extensions>
					<swisstopo:routepoint_id>881979401</swisstopo:routepoint_id>
				</extensions>
			</trkpt>
			<trkpt lat="47.0400699824" lon="7.5032056444">
				<ele>526.3</ele>
				<time>2021-04-12T10:11:25+02:00</time>
				<extensions>
					<swisstopo:routepoint_id>1495661013</swisstopo:routepoint_id>
				</extensions>
			</trkpt>
			<trkpt lat="47.0401322948" lon="7.5032330835">
				<ele>526.3</ele>
				<time>2021-04-12T10:11:26+02:00</time>
				<extensions>
					<swisstopo:routepoint_id>1278557356</swisstopo:routepoint_id>
				</extensions>
			</trkpt>
			<trkpt lat="47.0401926466" lon="7.5032545171">
				<ele>526.3</ele>
				<time>2021-04-12T10:11:27+02:00</time>
				<extensions>
					<swisstopo:routepoint_id>992110410</swisstopo:routepoint_id>
				</extensions>
			</trkpt>
			<trkpt lat="47.0402526343" lon="7.5032700184">
				<ele>526.3</ele>
				<time>2021-04-12T10:11:28+02:00</time>
				<extensions>
					<swisstopo:routepoint_id>1336625562</swisstopo:routepoint_id>
				</extensions>
			</trkpt>
			<trkpt lat="47.0403131289" lon="7.5032814473">
				<ele>526.3</ele>
				<time>2021-04-12T10:11:29+02:00</time>
				<extensions>
					<swisstopo:routepoint_id>1986872914</swisstopo:routepoint_id>
				</extensions>
			</trkpt>
			<trkpt lat="47.0403751364" lon="7.5032910759">
				<ele>526.3</ele>
				<time>2021-04-12T10:11:30+02:00</time>
				<extensions>
					<swisstopo:routepoint_id>2354748</swisstopo:routepoint_id>
				</extensions>
			</trkpt>
			<trkpt lat="47.0404385487" lon="7.5033007623">
				<ele>526.2</ele>
				<time>2021-04-12T10:11:31+02:00</time>
				<extensions>
					<swisstopo:routepoint_id>921543990</swisstopo:routepoint_id>
				</extensions>
			</trkpt>
			<trkpt lat="47.0405034501" lon="7.5033125412">
				<ele>526.1</ele>
				<time>2021-04-12T10:11:32+02:00</time>
				<extensions>
					<swisstopo:routepoint_id>737777766</swisstopo:routepoint_id>
				</extensions>
			</trkpt>
			<trkpt lat="47.0405693742" lon="7.5033266090">
				<ele>526.0</ele>
				<time>2021-04-12T10:11:33+02:00</time>
				<extensions>
					<swisstopo:routepoint_id>260335384</swisstopo:routepoint_id>
				</extensions>
			</trkpt>
			<trkpt lat="47.0406353721" lon="7.5033424590">
				<ele>525.9</ele>
				<time>2021-04-12T10:11:34+02:00</time>
				<extensions>
					<swisstopo:routepoint_id>1032609949</swisstopo:routepoint_id>
				</extensions>
			</trkpt>
			<trkpt lat="47.0407015209" lon="7.5033599191">
				<ele>525.8</ele>
				<time>2021-04-12T10:11:35+02:00</time>
				<extensions>
					<swisstopo:routepoint_id>1260061436</swisstopo:routepoint_id>
				</extensions>
			</trkpt>
			<trkpt lat="47.0407671444" lon="7.5033778293">
				<ele>525.7</ele>
				<time>2021-04-12T10:11:36+02:00</time>
				<extensions>
					<swisstopo:routepoint_id>1516311785</swisstopo:routepoint_id>
				</extensions>
			</trkpt>
			<trkpt lat="47.0408316459" lon="7.5033955607">
				<ele>525.7</ele>
				<time>2021-04-12T10:11:37+02:00</time>
				<extensions>
					<swisstopo:routepoint_id>463731546</swisstopo:routepoint_id>
				</extensions>
			</trkpt>
			<trkpt lat="47.0408949680" lon="7.5034140083">
				<ele>525.6</ele>
				<time>2021-04-12T10:11:38+02:00</time>
				<extensions>
					<swisstopo:routepoint_id>717938659</swisstopo:routepoint_id>
				</extensions>
			</trkpt>
			<trkpt lat="47.0409582489" lon="7.5034333671">
				<ele>525.5</ele>
				<time>2021-04-12T10:11:39+02:00</time>
				<extensions>
					<swisstopo:routepoint_id>1831912967</swisstopo:routepoint_id>
				</extensions>
			</trkpt>
			<trkpt lat="47.0410214284" lon="7.5034522449">
				<ele>525.5</ele>
				<time>2021-04-12T10:11:40+02:00</time>
				<extensions>
					<swisstopo:routepoint_id>488189330</swisstopo:routepoint_id>
				</extensions>
			</trkpt>
			<trkpt lat="47.0410850370" lon="7.5034702902">
				<ele>525.4</ele>
				<time>2021-04-12T10:11:42+02:00</time>
				<extensions>
					<swisstopo:routepoint_id>1610537770</swisstopo:routepoint_id>
				</extensions>
			</trkpt>
			<trkpt lat="47.0411491165" lon="7.5034878056">
				<ele>525.4</ele>
				<time>2021-04-12T10:11:42+02:00</time>
				<extensions>
					<swisstopo:routepoint_id>1424413602</swisstopo:routepoint_id>
				</extensions>
			</trkpt>
			<trkpt lat="47.0412139441" lon="7.5035050382">
				<ele>525.4</ele>
				<time>2021-04-12T10:11:44+02:00</time>
				<extensions>
					<swisstopo:routepoint_id>2119195705</swisstopo:routepoint_id>
				</extensions>
			</trkpt>
			<trkpt lat="47.0412792167" lon="7.5035220834">
				<ele>525.4</ele>
				<time>2021-04-12T10:11:45+02:00</time>
				<extensions>
					<swisstopo:routepoint_id>1305928440</swisstopo:routepoint_id>
				</extensions>
			</trkpt>
			<trkpt lat="47.0413443892" lon="7.5035394180">
				<ele>525.4</ele>
				<time>2021-04-12T10:11:45+02:00</time>
				<extensions>
					<swisstopo:routepoint_id>1456418740</swisstopo:routepoint_id>
				</extensions>
			</trkpt>
			<trkpt lat="47.0414102272" lon="7.5035576388">
				<ele>525.4</ele>
				<time>2021-04-12T10:11:46+02:00</time>
				<extensions>
					<swisstopo:routepoint_id>1011154674</swisstopo:routepoint_id>
				</extensions>
			</trkpt>
			<trkpt lat="47.0414770895" lon="7.5035764649">
				<ele>525.4</ele>
				<time>2021-04-12T10:11:47+02:00</time>
				<extensions>
					<swisstopo:routepoint_id>1438507207</swisstopo:routepoint_id>
				</extensions>
			</trkpt>
			<trkpt lat="47.0415451693" lon="7.5035952816">
				<ele>525.4</ele>
				<time>2021-04-12T10:11:48+02:00</time>
				<extensions>
					<swisstopo:routepoint_id>619730123</swisstopo:routepoint_id>
				</extensions>
			</trkpt>
			<trkpt lat="47.0416150148" lon="7.5036146781">
				<ele>525.4</ele>
				<time>2021-04-12T10:11:49+02:00</time>
				<extensions>
					<swisstopo:routepoint_id>508489311</swisstopo:routepoint_id>
				</extensions>
			</trkpt>
			<trkpt lat="47.0416876758" lon="7.5036350286">
				<ele>525.4</ele>
				<time>2021-04-12T10:11:50+02:00</time>
				<extensions>
					<swisstopo:routepoint_id>1342418564</swisstopo:routepoint_id>
				</extensions>
			</trkpt>
			<trkpt lat="47.0417636086" lon="7.5036561626">
				<ele>525.4</ele>
				<time>2021-04-12T10:11:51+02:00</time>
				<extensions>
					<swisstopo:routepoint_id>565609766</swisstopo:routepoint_id>
				</extensions>
			</trkpt>
			<trkpt lat="47.0418431340" lon="7.5036787511">
				<ele>525.5</ele>
				<time>2021-04-12T10:11:52+02:00</time>
				<extensions>
					<swisstopo:routepoint_id>1440715540</swisstopo:routepoint_id>
				</extensions>
			</trkpt>
			<trkpt lat="47.0419265739" lon="7.5037014210">
				<ele>525.6</ele>
				<time>2021-04-12T10:11:53+02:00</time>
				<extensions>
					<swisstopo:routepoint_id>1227960855</swisstopo:routepoint_id>
				</extensions>
			</trkpt>
			<trkpt lat="47.0420125306" lon="7.5037243088">
				<ele>525.8</ele>
				<time>2021-04-12T10:11:54+02:00</time>
				<extensions>
					<swisstopo:routepoint_id>1020242315</swisstopo:routepoint_id>
				</extensions>
			</trkpt>
			<trkpt lat="47.0421017715" lon="7.5037472237">
				<ele>525.9</ele>
				<time>2021-04-12T10:11:55+02:00</time>
				<extensions>
					<swisstopo:routepoint_id>1703150557</swisstopo:routepoint_id>
				</extensions>
			</trkpt>
			<trkpt lat="47.0421934554" lon="7.5037707150">
				<ele>526.0</ele>
				<time>2021-04-12T10:11:56+02:00</time>
				<extensions>
					<swisstopo:routepoint_id>1041880636</swisstopo:routepoint_id>
				</extensions>
			</trkpt>
			<trkpt lat="47.0422870156" lon="7.5037949554">
				<ele>526.1</ele>
				<time>2021-04-12T10:11:57+02:00</time>
				<extensions>
					<swisstopo:routepoint_id>306191614</swisstopo:routepoint_id>
				</extensions>
			</trkpt>
			<trkpt lat="47.0423824247" lon="7.5038201717">
				<ele>526.1</ele>
				<time>2021-04-12T10:11:58+02:00</time>
				<extensions>
					<swisstopo:routepoint_id>791638286</swisstopo:routepoint_id>
				</extensions>
			</trkpt>
			<trkpt lat="47.0424789101" lon="7.5038465520">
				<ele>526.2</ele>
				<time>2021-04-12T10:11:59+02:00</time>
				<extensions>
					<swisstopo:routepoint_id>1403479637</swisstopo:routepoint_id>
				</extensions>
			</trkpt>
			<trkpt lat="47.0425764113" lon="7.5038739579">
				<ele>526.2</ele>
				<time>2021-04-12T10:12:00+02:00</time>
				<extensions>
					<swisstopo:routepoint_id>321880411</swisstopo:routepoint_id>
				</extensions>
			</trkpt>
			<trkpt lat="47.0426744778" lon="7.5039040053">
				<ele>526.2</ele>
				<time>2021-04-12T10:12:01+02:00</time>
				<extensions>
					<swisstopo:routepoint_id>332760884</swisstopo:routepoint_id>
				</extensions>
			</trkpt>
			<trkpt lat="47.0427732516" lon="7.5039379330">
				<ele>526.1</ele>
				<time>2021-04-12T10:12:02+02:00</time>
				<extensions>
					<swisstopo:routepoint_id>664760600</swisstopo:routepoint_id>
				</extensions>
			</trkpt>
			<trkpt lat="47.0428729376" lon="7.5039774439">
				<ele>526.1</ele>
				<time>2021-04-12T10:12:03+02:00</time>
				<extensions>
					<swisstopo:routepoint_id>1421472506</swisstopo:routepoint_id>
				</extensions>
			</trkpt>
			<trkpt lat="47.0429733627" lon="7.5040231712">
				<ele>526.0</ele>
				<time>2021-04-12T10:12:04+02:00</time>
				<extensions>
					<swisstopo:routepoint_id>2080319114</swisstopo:routepoint_id>
				</extensions>
			</trkpt>
			<trkpt lat="47.0430748749" lon="7.5040748855">
				<ele>525.9</ele>
				<time>2021-04-12T10:12:05+02:00</time>
				<extensions>
					<swisstopo:routepoint_id>742092191</swisstopo:routepoint_id>
				</extensions>
			</trkpt>
			<trkpt lat="47.0431772823" lon="7.5041316609">
				<ele>525.9</ele>
				<time>2021-04-12T10:12:06+02:00</time>
				<extensions>
					<swisstopo:routepoint_id>1905916008</swisstopo:routepoint_id>
				</extensions>
			</trkpt>
			<trkpt lat="47.0432797760" lon="7.5041920415">
				<ele>525.8</ele>
				<time>2021-04-12T10:12:07+02:00</time>
				<extensions>
					<swisstopo:routepoint_id>864267804</swisstopo:routepoint_id>
				</extensions>
			</trkpt>
			<trkpt lat="47.0433818125" lon="7.5042549093">
				<ele>525.8</ele>
				<time>2021-04-12T10:12:08+02:00</time>
				<extensions>
					<swisstopo:routepoint_id>169593520</swisstopo:routepoint_id>
				</extensions>
			</trkpt>
			<trkpt lat="47.0434838643" lon="7.5043198901">
				<ele>525.8</ele>
				<time>2021-04-12T10:12:09+02:00</time>
				<extensions>
					<swisstopo:routepoint_id>647491071</swisstopo:routepoint_id>
				</extensions>
			</trkpt>
			<trkpt lat="47.0435860565" lon="7.5043866089">
				<ele>525.7</ele>
				<time>2021-04-12T10:12:10+02:00</time>
				<extensions>
					<swisstopo:routepoint_id>1082790948</swisstopo:routepoint_id>
				</extensions>
			</trkpt>
			<trkpt lat="47.0436884068" lon="7.5044541488">
				<ele>525.6</ele>
				<time>2021-04-12T10:12:11+02:00</time>
				<extensions>
					<swisstopo:routepoint_id>691038358</swisstopo:routepoint_id>
				</extensions>
			</trkpt>
			<trkpt lat="47.0437904422" lon="7.5045221604">
				<ele>525.5</ele>
				<time>2021-04-12T10:12:12+02:00</time>
				<extensions>
					<swisstopo:routepoint_id>690119930</swisstopo:routepoint_id>
				</extensions>
			</trkpt>
			<trkpt lat="47.0438917687" lon="7.5045898357">
				<ele>525.3</ele>
				<time>2021-04-12T10:12:13+02:00</time>
				<extensions>
					<swisstopo:routepoint_id>286486063</swisstopo:routepoint_id>
				</extensions>
			</trkpt>
			<trkpt lat="47.0439923396" lon="7.5046566208">
				<ele>525.2</ele>
				<time>2021-04-12T10:12:14+02:00</time>
				<extensions>
					<swisstopo:routepoint_id>312924267</swisstopo:routepoint_id>
				</extensions>
			</trkpt>
			<trkpt lat="47.0440922245" lon="7.5047227945">
				<ele>525.0</ele>
				<time>2021-04-12T10:12:15+02:00</time>
				<extensions>
					<swisstopo:routepoint_id>130703966</swisstopo:routepoint_id>
				</extensions>
			</trkpt>
			<trkpt lat="47.0441912951" lon="7.5047876468">
				<ele>524.8</ele>
				<time>2021-04-12T10:12:16+02:00</time>
				<extensions>
					<swisstopo:routepoint_id>2013269328</swisstopo:routepoint_id>
				</extensions>
			</trkpt>
			<trkpt lat="47.0442903146" lon="7.5048512246">
				<ele>524.7</ele>
				<time>2021-04-12T10:12:17+02:00</time>
				<extensions>
					<swisstopo:routepoint_id>1265253564</swisstopo:routepoint_id>
				</extensions>
			</trkpt>
			<trkpt lat="47.0443896910" lon="7.5049132503">
				<ele>524.6</ele>
				<time>2021-04-12T10:12:18+02:00</time>
				<extensions>
					<swisstopo:routepoint_id>733577554</swisstopo:routepoint_id>
				</extensions>
			</trkpt>
			<trkpt lat="47.0444902862" lon="7.5049714748">
				<ele>524.4</ele>
				<time>2021-04-12T10:12:19+02:00</time>
				<extensions>
					<swisstopo:routepoint_id>534332651</swisstopo:routepoint_id>
				</extensions>
			</trkpt>
			<trkpt lat="47.0445926370" lon="7.5050243840">
				<ele>524.4</ele>
				<time>2021-04-12T10:12:20+02:00</time>
				<extensions>
					<swisstopo:routepoint_id>1899737250</swisstopo:routepoint_id>
				</extensions>
			</trkpt>
			<trkpt lat="47.0446970292" lon="7.5050722113">
				<ele>524.3</ele>
				<time>2021-04-12T10:12:21+02:00</time>
				<extensions>
					<swisstopo:routepoint_id>97097154</swisstopo:routepoint_id>
				</extensions>
			</trkpt>
			<trkpt lat="47.0448033565" lon="7.5051149141">
				<ele>524.2</ele>
				<time>2021-04-12T10:12:22+02:00</time>
				<extensions>
					<swisstopo:routepoint_id>1971779205</swisstopo:routepoint_id>
				</extensions>
			</trkpt>
			<trkpt lat="47.0449115457" lon="7.5051526285">
				<ele>524.2</ele>
				<time>2021-04-12T10:12:23+02:00</time>
				<extensions>
					<swisstopo:routepoint_id>1872941578</swisstopo:routepoint_id>
				</extensions>
			</trkpt>
			<trkpt lat="47.0450215492" lon="7.5051847500">
				<ele>524.3</ele>
				<time>2021-04-12T10:12:24+02:00</time>
				<extensions>
					<swisstopo:routepoint_id>713803720</swisstopo:routepoint_id>
				</extensions>
			</trkpt>
			<trkpt lat="47.0451334991" lon="7.5052107940">
				<ele>524.3</ele>
				<time>2021-04-12T10:12:25+02:00</time>
				<extensions>
					<swisstopo:routepoint_id>1055469898</swisstopo:routepoint_id>
				</extensions>
			</trkpt>
			<trkpt lat="47.0452466145" lon="7.5052318793">
				<ele>524.4</ele>
				<time>2021-04-12T10:12:26+02:00</time>
				<extensions>
					<swisstopo:routepoint_id>1067651466</swisstopo:routepoint_id>
				</extensions>
			</trkpt>
			<trkpt lat="47.0453611242" lon="7.5052480083">
				<ele>524.5</ele>
				<time>2021-04-12T10:12:27+02:00</time>
				<extensions>
					<swisstopo:routepoint_id>1792318377</swisstopo:routepoint_id>
				</extensions>
			</trkpt>
			<trkpt lat="47.0454765612" lon="7.5052602285">
				<ele>524.6</ele>
				<time>2021-04-12T10:12:28+02:00</time>
				<extensions>
					<swisstopo:routepoint_id>741845770</swisstopo:routepoint_id>
				</extensions>
			</trkpt>
			<trkpt lat="47.0455926972" lon="7.5052698506">
				<ele>524.7</ele>
				<time>2021-04-12T10:12:29+02:00</time>
				<extensions>
					<swisstopo:routepoint_id>2059285555</swisstopo:routepoint_id>
				</extensions>
			</trkpt>
			<trkpt lat="47.0457093263" lon="7.5052779606">
				<ele>524.8</ele>
				<time>2021-04-12T10:12:30+02:00</time>
				<extensions>
					<swisstopo:routepoint_id>1565867833</swisstopo:routepoint_id>
				</extensions>
			</trkpt>
			<trkpt lat="47.0458258923" lon="7.5052858032">
				<ele>525.0</ele>
				<time>2021-04-12T10:12:31+02:00</time>
				<extensions>
					<swisstopo:routepoint_id>128575246</swisstopo:routepoint_id>
				</extensions>
			</trkpt>
			<trkpt lat="47.0459417992" lon="7.5052941134">
				<ele>525.2</ele>
				<time>2021-04-12T10:12:32+02:00</time>
				<extensions>
					<swisstopo:routepoint_id>595610640</swisstopo:routepoint_id>
				</extensions>
			</trkpt>
			<trkpt lat="47.0460563663" lon="7.5053032608">
				<ele>525.5</ele>
				<time>2021-04-12T10:12:33+02:00</time>
				<extensions>
					<swisstopo:routepoint_id>1006747813</swisstopo:routepoint_id>
				</extensions>
			</trkpt>
			<trkpt lat="47.0461696539" lon="7.5053131808">
				<ele>525.7</ele>
				<time>2021-04-12T10:12:34+02:00</time>
				<extensions>
					<swisstopo:routepoint_id>386838378</swisstopo:routepoint_id>
				</extensions>
			</trkpt>
			<trkpt lat="47.0462821649" lon="7.5053230633">
				<ele>526.0</ele>
				<time>2021-04-12T10:12:35+02:00</time>
				<extensions>
					<swisstopo:routepoint_id>1159619577</swisstopo:routepoint_id>
				</extensions>
			</trkpt>
			<trkpt lat="47.0463941875" lon="7.5053328481">
				<ele>526.3</ele>
				<time>2021-04-12T10:12:36+02:00</time>
				<extensions>
					<swisstopo:routepoint_id>1312134114</swisstopo:routepoint_id>
				</extensions>
			</trkpt>
			<trkpt lat="47.0465066630" lon="7.5053426475">
				<ele>526.6</ele>
				<time>2021-04-12T10:12:37+02:00</time>
				<extensions>
					<swisstopo:routepoint_id>528482955</swisstopo:routepoint_id>
				</extensions>
			</trkpt>
			<trkpt lat="47.0466199868" lon="7.5053528687">
				<ele>526.8</ele>
				<time>2021-04-12T10:12:38+02:00</time>
				<extensions>
					<swisstopo:routepoint_id>220660693</swisstopo:routepoint_id>
				</extensions>
			</trkpt>
			<trkpt lat="47.0467343270" lon="7.5053637804">
				<ele>527.0</ele>
				<time>2021-04-12T10:12:39+02:00</time>
				<extensions>
					<swisstopo:routepoint_id>2087492529</swisstopo:routepoint_id>
				</extensions>
			</trkpt>
			<trkpt lat="47.0468498628" lon="7.5053756262">
				<ele>527.1</ele>
				<time>2021-04-12T10:12:40+02:00</time>
				<extensions>
					<swisstopo:routepoint_id>1046593864</swisstopo:routepoint_id>
				</extensions>
			</trkpt>
			<trkpt lat="47.0469667426" lon="7.5053882935">
				<ele>527.2</ele>
				<time>2021-04-12T10:12:41+02:00</time>
				<extensions>
					<swisstopo:routepoint_id>64519671</swisstopo:routepoint_id>
				</extensions>
			</trkpt>
			<trkpt lat="47.0470844220" lon="7.5054005449">
				<ele>527.2</ele>
				<time>2021-04-12T10:12:42+02:00</time>
				<extensions>
					<swisstopo:routepoint_id>2050352409</swisstopo:routepoint_id>
				</extensions>
			</trkpt>
			<trkpt lat="47.0472029259" lon="7.5054127257">
				<ele>527.2</ele>
				<time>2021-04-12T10:12:43+02:00</time>
				<extensions>
					<swisstopo:routepoint_id>1750338301</swisstopo:routepoint_id>
				</extensions>
			</trkpt>
			<trkpt lat="47.0473221194" lon="7.5054234758">
				<ele>527.1</ele>
				<time>2021-04-12T10:12:44+02:00</time>
				<extensions>
					<swisstopo:routepoint_id>1704828301</swisstopo:routepoint_id>
				</extensions>
			</trkpt>
			<trkpt lat="47.0474418697" lon="7.5054334021">
				<ele>527.1</ele>
				<time>2021-04-12T10:12:45+02:00</time>
				<extensions>
					<swisstopo:routepoint_id>1322436633</swisstopo:routepoint_id>
				</extensions>
			</trkpt>
			<trkpt lat="47.0475613455" lon="7.5054417052">
				<ele>526.9</ele>
				<time>2021-04-12T10:12:46+02:00</time>
				<extensions>
					<swisstopo:routepoint_id>1884228028</swisstopo:routepoint_id>
				</extensions>
			</trkpt>
			<trkpt lat="47.0476791838" lon="7.5054487211">
				<ele>526.8</ele>
				<time>2021-04-12T10:12:47+02:00</time>
				<extensions>
					<swisstopo:routepoint_id>1426607934</swisstopo:routepoint_id>
				</extensions>
			</trkpt>
			<trkpt lat="47.0477919266" lon="7.5054558402">
				<ele>526.5</ele>
				<time>2021-04-12T10:12:48+02:00</time>
				<extensions>
					<swisstopo:routepoint_id>344627983</swisstopo:routepoint_id>
				</extensions>
			</trkpt>
			<trkpt lat="47.0478956898" lon="7.5054645802">
				<ele>526.3</ele>
				<time>2021-04-12T10:12:49+02:00</time>
				<extensions>
					<swisstopo:routepoint_id>399114322</swisstopo:routepoint_id>
				</extensions>
			</trkpt>
			<trkpt lat="47.0479874218" lon="7.5054756125">
				<ele>526.0</ele>
				<time>2021-04-12T10:12:50+02:00</time>
				<extensions>
					<swisstopo:routepoint_id>1322980273</swisstopo:routepoint_id>
				</extensions>
			</trkpt>
			<trkpt lat="47.0480649853" lon="7.5054886433">
				<ele>525.7</ele>
				<time>2021-04-12T10:12:51+02:00</time>
				<extensions>
					<swisstopo:routepoint_id>283767273</swisstopo:routepoint_id>
				</extensions>
			</trkpt>
			<trkpt lat="47.0481269969" lon="7.5055029971">
				<ele>525.5</ele>
				<time>2021-04-12T10:12:52+02:00</time>
				<extensions>
					<swisstopo:routepoint_id>1862860971</swisstopo:routepoint_id>
				</extensions>
			</trkpt>
			<trkpt lat="47.0481729341" lon="7.5055164496">
				<ele>525.3</ele>
				<time>2021-04-12T10:12:53+02:00</time>
				<extensions>
					<swisstopo:routepoint_id>940249984</swisstopo:routepoint_id>
				</extensions>
			</trkpt>
			<trkpt lat="47.0482031940" lon="7.5055276091">
				<ele>525.2</ele>
				<time>2021-04-12T10:12:54+02:00</time>
				<extensions>
					<swisstopo:routepoint_id>1596806462</swisstopo:routepoint_id>
				</extensions>
			</trkpt>
			<trkpt lat="47.0482194119" lon="7.5055368705">
				<ele>525.1</ele>
				<time>2021-04-12T10:12:55+02:00</time>
				<extensions>
					<swisstopo:routepoint_id>423070275</swisstopo:routepoint_id>
				</extensions>
			</trkpt>
			<trkpt lat="47.0482244880" lon="7.5055443027">
				<ele>525.0</ele>
				<time>2021-04-12T10:12:56+02:00</time>
				<extensions>
					<swisstopo:routepoint_id>223756708</swisstopo:routepoint_id>
				</extensions>
			</trkpt>
			<trkpt lat="47.0482213804" lon="7.5055497453">
				<ele>525.0</ele>
				<time>2021-04-12T10:12:57+02:00</time>
				<extensions>
					<swisstopo:routepoint_id>435125459</swisstopo:routepoint_id>
				</extensions>
			</trkpt>
			<trkpt lat="47.0482123642" lon="7.5055535621">
				<ele>525.0</ele>
				<time>2021-04-12T10:12:58+02:00</time>
				<extensions>
					<swisstopo:routepoint_id>971771378</swisstopo:routepoint_id>
				</extensions>
			</trkpt>
			<trkpt lat="47.0481991776" lon="7.5055562063">
				<ele>525.0</ele>
				<time>2021-04-12T10:12:59+02:00</time>
				<extensions>
					<swisstopo:routepoint_id>948414611</swisstopo:routepoint_id>
				</extensions>
			</trkpt>
			<trkpt lat="47.0481833151" lon="7.5055580200">
				<ele>525.0</ele>
				<time>2021-04-12T10:13:00+02:00</time>
				<extensions>
					<swisstopo:routepoint_id>1380739043</swisstopo:routepoint_id>
				</extensions>
			</trkpt>
			<trkpt lat="47.0481659717" lon="7.5055594354">
				<ele>525.0</ele>
				<time>2021-04-12T10:13:01+02:00</time>
				<extensions>
					<swisstopo:routepoint_id>372806219</swisstopo:routepoint_id>
				</extensions>
			</trkpt>
			<trkpt lat="47.0481482954" lon="7.5055604404">
				<ele>525.0</ele>
				<time>2021-04-12T10:13:02+02:00</time>
				<extensions>
					<swisstopo:routepoint_id>1544324434</swisstopo:routepoint_id>
				</extensions>
			</trkpt>
			<trkpt lat="47.0481307816" lon="7.5055614900">
				<ele>525.1</ele>
				<time>2021-04-12T10:13:03+02:00</time>
				<extensions>
					<swisstopo:routepoint_id>973404596</swisstopo:routepoint_id>
				</extensions>
			</trkpt>
			<trkpt lat="47.0481141744" lon="7.5055623383">
				<ele>525.1</ele>
				<time>2021-04-12T10:13:04+02:00</time>
				<extensions>
					<swisstopo:routepoint_id>480622126</swisstopo:routepoint_id>
				</extensions>
			</trkpt>
			<trkpt lat="47.0480987634" lon="7.5055631735">
				<ele>525.1</ele>
				<time>2021-04-12T10:13:05+02:00</time>
				<extensions>
					<swisstopo:routepoint_id>1130075315</swisstopo:routepoint_id>
				</extensions>
			</trkpt>
			<trkpt lat="47.0480848011" lon="7.5055640176">
				<ele>525.1</ele>
				<time>2021-04-12T10:13:06+02:00</time>
				<extensions>
					<swisstopo:routepoint_id>830445137</swisstopo:routepoint_id>
				</extensions>
			</trkpt>
			<trkpt lat="47.0480723859" lon="7.5055647958">
				<ele>525.2</ele>
				<time>2021-04-12T10:13:07+02:00</time>
				<extensions>
					<swisstopo:routepoint_id>795195706</swisstopo:routepoint_id>
				</extensions>
			</trkpt>
			<trkpt lat="47.0480614683" lon="7.5055653756">
				<ele>525.2</ele>
				<time>2021-04-12T10:13:08+02:00</time>
				<extensions>
					<swisstopo:routepoint_id>1063495461</swisstopo:routepoint_id>
				</extensions>
			</trkpt>
			<trkpt lat="47.0480520715" lon="7.5055657388">
				<ele>525.2</ele>
				<time>2021-04-12T10:13:09+02:00</time>
				<extensions>
					<swisstopo:routepoint_id>661819046</swisstopo:routepoint_id>
				</extensions>
			</trkpt>
			<trkpt lat="47.0480439974" lon="7.5055660590">
				<ele>525.2</ele>
				<time>2021-04-12T10:13:10+02:00</time>
				<extensions>
					<swisstopo:routepoint_id>1374898309</swisstopo:routepoint_id>
				</extensions>
			</trkpt>
			<trkpt lat="47.0480371926" lon="7.5055663237">
				<ele>525.2</ele>
				<time>2021-04-12T10:13:11+02:00</time>
				<extensions>
					<swisstopo:routepoint_id>991837643</swisstopo:routepoint_id>
				</extensions>
			</trkpt>
			<trkpt lat="47.0480314470" lon="7.5055665140">
				<ele>525.2</ele>
				<time>2021-04-12T10:13:12+02:00</time>
				<extensions>
					<swisstopo:routepoint_id>1047197887</swisstopo:routepoint_id>
				</extensions>
			</trkpt>
			<trkpt lat="47.0480266727" lon="7.5055666075">
				<ele>525.3</ele>
				<time>2021-04-12T10:13:13+02:00</time>
				<extensions>
					<swisstopo:routepoint_id>1626399644</swisstopo:routepoint_id>
				</extensions>
			</trkpt>
			<trkpt lat="47.0480228161" lon="7.5055665280">
				<ele>525.3</ele>
				<time>2021-04-12T10:13:14+02:00</time>
				<extensions>
					<swisstopo:routepoint_id>1726957692</swisstopo:routepoint_id>
				</extensions>
			</trkpt>
			<trkpt lat="47.0480195612" lon="7.5055663767">
				<ele>525.3</ele>
				<time>2021-04-12T10:13:15+02:00</time>
				<extensions>
					<swisstopo:routepoint_id>1736440239</swisstopo:routepoint_id>
				</extensions>
			</trkpt>
			<trkpt lat="47.0480170151" lon="7.5055661906">
				<ele>525.3</ele>
				<time>2021-04-12T10:13:16+02:00</time>
				<extensions>
					<swisstopo:routepoint_id>48334143</swisstopo:routepoint_id>
				</extensions>
			</trkpt>
			<trkpt lat="47.0480150192" lon="7.5055660137">
				<ele>525.3</ele>
				<time>2021-04-12T10:13:17+02:00</time>
				<extensions>
					<swisstopo:routepoint_id>603122835</swisstopo:routepoint_id>
				</extensions>
			</trkpt>
			<trkpt lat="47.0480134898" lon="7.5055658424">
				<ele>525.3</ele>
				<time>2021-04-12T10:13:18+02:00</time>
				<extensions>
					<swisstopo:routepoint_id>562674005</swisstopo:routepoint_id>
				</extensions>
			</trkpt>
			<trkpt lat="47.0480123316" lon="7.5055656806">
				<ele>525.3</ele>
				<time>2021-04-12T10:13:19+02:00</time>
				<extensions>
					<swisstopo:routepoint_id>1491504294</swisstopo:routepoint_id>
				</extensions>
			</trkpt>
			<trkpt lat="47.0480114018" lon="7.5055655912">
				<ele>525.3</ele>
				<time>2021-04-12T10:13:20+02:00</time>
				<extensions>
					<swisstopo:routepoint_id>136057827</swisstopo:routepoint_id>
				</extensions>
			</trkpt>
			<trkpt lat="47.0480107201" lon="7.5055654878">
				<ele>525.3</ele>
				<time>2021-04-12T10:13:21+02:00</time>
				<extensions>
					<swisstopo:routepoint_id>1801297981</swisstopo:routepoint_id>
				</extensions>
			</trkpt>
			<trkpt lat="47.0480101220" lon="7.5055655400">
				<ele>525.3</ele>
				<time>2021-04-12T10:13:22+02:00</time>
				<extensions>
					<swisstopo:routepoint_id>1338194908</swisstopo:routepoint_id>
				</extensions>
			</trkpt>
			<trkpt lat="47.0480093805" lon="7.5055654434">
				<ele>525.3</ele>
				<time>2021-04-12T10:13:23+02:00</time>
				<extensions>
					<swisstopo:routepoint_id>445583725</swisstopo:routepoint_id>
				</extensions>
			</trkpt>
			<trkpt lat="47.0480082132" lon="7.5055650963">
				<ele>525.3</ele>
				<time>2021-04-12T10:13:24+02:00</time>
				<extensions>
					<swisstopo:routepoint_id>650188986</swisstopo:routepoint_id>
				</extensions>
			</trkpt>
			<trkpt lat="47.0480064982" lon="7.5055643958">
				<ele>525.2</ele>
				<time>2021-04-12T10:13:25+02:00</time>
				<extensions>
					<swisstopo:routepoint_id>1329491766</swisstopo:routepoint_id>
				</extensions>
			</trkpt>
			<trkpt lat="47.0480043678" lon="7.5055633630">
				<ele>525.2</ele>
				<time>2021-04-12T10:13:26+02:00</time>
				<extensions>
					<swisstopo:routepoint_id>200764127</swisstopo:routepoint_id>
				</extensions>
			</trkpt>
			<trkpt lat="47.0480022716" lon="7.5055621293">
				<ele>525.2</ele>
				<time>2021-04-12T10:13:27+02:00</time>
				<extensions>
					<swisstopo:routepoint_id>545873052</swisstopo:routepoint_id>
				</extensions>
			</trkpt>
			<trkpt lat="47.0480004514" lon="7.5055608000">
				<ele>525.2</ele>
				<time>2021-04-12T10:13:28+02:00</time>
				<extensions>
					<swisstopo:routepoint_id>438244980</swisstopo:routepoint_id>
				</extensions>
			</trkpt>
			<trkpt lat="47.0479991272" lon="7.5055596926">
				<ele>525.2</ele>
				<time>2021-04-12T10:13:29+02:00</time>
				<extensions>
					<swisstopo:routepoint_id>1861953297</swisstopo:routepoint_id>
				</extensions>
			</trkpt>
			<trkpt lat="47.0479982339" lon="7.5055587379">
				<ele>525.2</ele>
				<time>2021-04-12T10:13:30+02:00</time>
				<extensions>
					<swisstopo:routepoint_id>717358595</swisstopo:routepoint_id>
				</extensions>
			</trkpt>
			<trkpt lat="47.0479977635" lon="7.5055582064">
				<ele>525.2</ele>
				<time>2021-04-12T10:13:31+02:00</time>
				<extensions>
					<swisstopo:routepoint_id>672711907</swisstopo:routepoint_id>
				</extensions>
			</trkpt>
			<trkpt lat="47.0479977546" lon="7.5055580513">
				<ele>525.2</ele>
				<time>2021-04-12T10:13:32+02:00</time>
				<extensions>
					<swisstopo:routepoint_id>1915103141</swisstopo:routepoint_id>
				</extensions>
			</trkpt>
			<trkpt lat="47.0479979375" lon="7.5055581927">
				<ele>525.3</ele>
				<time>2021-04-12T10:13:33+02:00</time>
				<extensions>
					<swisstopo:routepoint_id>653589551</swisstopo:routepoint_id>
				</extensions>
			</trkpt>
			<trkpt lat="47.0479982842" lon="7.5055585321">
				<ele>525.3</ele>
				<time>2021-04-12T10:13:34+02:00</time>
				<extensions>
					<swisstopo:routepoint_id>500729252</swisstopo:routepoint_id>
				</extensions>
			</trkpt>
			<trkpt lat="47.0479993844" lon="7.5055591218">
				<ele>525.3</ele>
				<time>2021-04-12T10:13:35+02:00</time>
				<extensions>
					<swisstopo:routepoint_id>1915609418</swisstopo:routepoint_id>
				</extensions>
			</trkpt>
			<trkpt lat="47.0480032492" lon="7.5055612378">
				<ele>525.3</ele>
				<time>2021-04-12T10:13:36+02:00</time>
				<extensions>
					<swisstopo:routepoint_id>572652502</swisstopo:routepoint_id>
				</extensions>
			</trkpt>
			<trkpt lat="47.0480141062" lon="7.5055665433">
				<ele>525.2</ele>
				<time>2021-04-12T10:13:37+02:00</time>
				<extensions>
					<swisstopo:routepoint_id>1696378907</swisstopo:routepoint_id>
				</extensions>
			</trkpt>
			<trkpt lat="47.0480360599" lon="7.5055762087">
				<ele>525.1</ele>
				<time>2021-04-12T10:13:38+02:00</time>
				<extensions>
					<swisstopo:routepoint_id>1047392377</swisstopo:routepoint_id>
				</extensions>
			</trkpt>
			<trkpt lat="47.0480723978" lon="7.5055947857">
				<ele>525.0</ele>
				<time>2021-04-12T10:13:39+02:00</time>
				<extensions>
					<swisstopo:routepoint_id>600225780</swisstopo:routepoint_id>
				</extensions>
			</trkpt>
			<trkpt lat="47.0481257244" lon="7.5056261473">
				<ele>524.9</ele>
				<time>2021-04-12T10:13:40+02:00</time>
				<extensions>
					<swisstopo:routepoint_id>1263994501</swisstopo:routepoint_id>
				</extensions>
			</trkpt>
			<trkpt lat="47.0481968903" lon="7.5056697284">
				<ele>524.7</ele>
				<time>2021-04-12T10:13:41+02:00</time>
				<extensions>
					<swisstopo:routepoint_id>1047342183</swisstopo:routepoint_id>
				</extensions>
			</trkpt>
			<trkpt lat="47.0482847845" lon="7.5057235330">
				<ele>524.5</ele>
				<time>2021-04-12T10:13:42+02:00</time>
				<extensions>
					<swisstopo:routepoint_id>1904098869</swisstopo:routepoint_id>
				</extensions>
			</trkpt>
			<trkpt lat="47.0483875353" lon="7.5057844855">
				<ele>524.2</ele>
				<time>2021-04-12T10:13:43+02:00</time>
				<extensions>
					<swisstopo:routepoint_id>388383689</swisstopo:routepoint_id>
				</extensions>
			</trkpt>
			<trkpt lat="47.0485012766" lon="7.5058490140">
				<ele>524.1</ele>
				<time>2021-04-12T10:13:44+02:00</time>
				<extensions>
					<swisstopo:routepoint_id>1361857790</swisstopo:routepoint_id>
				</extensions>
			</trkpt>
			<trkpt lat="47.0486203538" lon="7.5059173789">
				<ele>524.1</ele>
				<time>2021-04-12T10:13:45+02:00</time>
				<extensions>
					<swisstopo:routepoint_id>863166804</swisstopo:routepoint_id>
				</extensions>
			</trkpt>
			<trkpt lat="47.0487407354" lon="7.5059900785">
				<ele>524.2</ele>
				<time>2021-04-12T10:13:46+02:00</time>
				<extensions>
					<swisstopo:routepoint_id>992439343</swisstopo:routepoint_id>
				</extensions>
			</trkpt>
			<trkpt lat="47.0488597862" lon="7.5060634107">
				<ele>524.7</ele>
				<time>2021-04-12T10:13:47+02:00</time>
				<extensions>
					<swisstopo:routepoint_id>422551552</swisstopo:routepoint_id>
				</extensions>
			</trkpt>
			<trkpt lat="47.0489714277" lon="7.5061340647">
				<ele>525.0</ele>
				<time>2021-04-12T10:13:48+02:00</time>
				<extensions>
					<swisstopo:routepoint_id>95513835</swisstopo:routepoint_id>
				</extensions>
			</trkpt>
			<trkpt lat="47.0490708996" lon="7.5062000669">
				<ele>525.3</ele>
				<time>2021-04-12T10:13:49+02:00</time>
				<extensions>
					<swisstopo:routepoint_id>1130740536</swisstopo:routepoint_id>
				</extensions>
			</trkpt>
			<trkpt lat="47.0491568529" lon="7.5062585115">
				<ele>525.6</ele>
				<time>2021-04-12T10:13:50+02:00</time>
				<extensions>
					<swisstopo:routepoint_id>1273396249</swisstopo:routepoint_id>
				</extensions>
			</trkpt>
			<trkpt lat="47.0492281048" lon="7.5063074905">
				<ele>525.9</ele>
				<time>2021-04-12T10:13:51+02:00</time>
				<extensions>
					<swisstopo:routepoint_id>148730941</swisstopo:routepoint_id>
				</extensions>
			</trkpt>
			<trkpt lat="47.0492836968" lon="7.5063460614">
				<ele>526.1</ele>
				<time>2021-04-12T10:13:52+02:00</time>
				<extensions>
					<swisstopo:routepoint_id>49960279</swisstopo:routepoint_id>
				</extensions>
			</trkpt>
			<trkpt lat="47.0493235991" lon="7.5063741559">
				<ele>526.2</ele>
				<time>2021-04-12T10:13:53+02:00</time>
				<extensions>
					<swisstopo:routepoint_id>16303176</swisstopo:routepoint_id>
				</extensions>
			</trkpt>
			<trkpt lat="47.0493499952" lon="7.5063927727">
				<ele>526.4</ele>
				<time>2021-04-12T10:13:54+02:00</time>
				<extensions>
					<swisstopo:routepoint_id>1277055863</swisstopo:routepoint_id>
				</extensions>
			</trkpt>
			<trkpt lat="47.0493651746" lon="7.5064037040">
				<ele>526.6</ele>
				<time>2021-04-12T10:13:55+02:00</time>
				<extensions>
					<swisstopo:routepoint_id>1526321323</swisstopo:routepoint_id>
				</extensions>
			</trkpt>
			<trkpt lat="47.0493715054" lon="7.5064084093">
				<ele>526.7</ele>
				<time>2021-04-12T10:13:56+02:00</time>
				<extensions>
					<swisstopo:routepoint_id>1190312246</swisstopo:routepoint_id>
				</extensions>
			</trkpt>
			<trkpt lat="47.0493711417" lon="7.5064084754">
				<ele>526.8</ele>
				<time>2021-04-12T10:13:57+02:00</time>
				<extensions>
					<swisstopo:routepoint_id>1767746717</swisstopo:routepoint_id>
				</extensions>
			</trkpt>
			<trkpt lat="47.0493657211" lon="7.5064053485">
				<ele>526.8</ele>
				<time>2021-04-12T10:13:58+02:00</time>
				<extensions>
					<swisstopo:routepoint_id>82816374</swisstopo:routepoint_id>
				</extensions>
			</trkpt>
			<trkpt lat="47.0493569035" lon="7.5064002020">
				<ele>526.9</ele>
				<time>2021-04-12T10:13:59+02:00</time>
				<extensions>
					<swisstopo:routepoint_id>325394562</swisstopo:routepoint_id>
				</extensions>
			</trkpt>
			<trkpt lat="47.0493458329" lon="7.5063938427">
				<ele>527.0</ele>
				<time>2021-04-12T10:14:00+02:00</time>
				<extensions>
					<swisstopo:routepoint_id>1413038272</swisstopo:routepoint_id>
				</extensions>
			</trkpt>
			<trkpt lat="47.0493335843" lon="7.5063870657">
				<ele>527.1</ele>
				<time>2021-04-12T10:14:01+02:00</time>
				<extensions>
					<swisstopo:routepoint_id>2060068978</swisstopo:routepoint_id>
				</extensions>
			</trkpt>
			<trkpt lat="47.0493212000" lon="7.5063808964">
				<ele>527.2</ele>
				<time>2021-04-12T10:14:02+02:00</time>
				<extensions>
					<swisstopo:routepoint_id>1847956312</swisstopo:routepoint_id>
				</extensions>
			</trkpt>
			<trkpt lat="47.0493088707" lon="7.5063750827">
				<ele>527.2</ele>
				<time>2021-04-12T10:14:03+02:00</time>
				<extensions>
					<swisstopo:routepoint_id>1693232870</swisstopo:routepoint_id>
				</extensions>
			</trkpt>
			<trkpt lat="47.0492972185" lon="7.5063698159">
				<ele>527.3</ele>
				<time>2021-04-12T10:14:04+02:00</time>
				<extensions>
					<swisstopo:routepoint_id>1859039693</swisstopo:routepoint_id>
				</extensions>
			</trkpt>
			<trkpt lat="47.0492865535" lon="7.5063651436">
				<ele>527.3</ele>
				<time>2021-04-12T10:14:05+02:00</time>
				<extensions>
					<swisstopo:routepoint_id>1140540048</swisstopo:routepoint_id>
				</extensions>
			</trkpt>
			<trkpt lat="47.0492772415" lon="7.5063611746">
				<ele>527.4</ele>
				<time>2021-04-12T10:14:06+02:00</time>
				<extensions>
					<swisstopo:routepoint_id>617553614</swisstopo:routepoint_id>
				</extensions>
			</trkpt>
			<trkpt lat="47.0492692520" lon="7.5063575126">
				<ele>527.4</ele>
				<time>2021-04-12T10:14:07+02:00</time>
				<extensions>
					<swisstopo:routepoint_id>435124547</swisstopo:routepoint_id>
				</extensions>
			</trkpt>
			<trkpt lat="47.0492625299" lon="7.5063547423">
				<ele>527.5</ele>
				<time>2021-04-12T10:14:08+02:00</time>
				<extensions>
					<swisstopo:routepoint_id>956443394</swisstopo:routepoint_id>
				</extensions>
			</trkpt>
			<trkpt lat="47.0492570840" lon="7.5063529021">
				<ele>527.5</ele>
				<time>2021-04-12T10:14:09+02:00</time>
				<extensions>
					<swisstopo:routepoint_id>1029025163</swisstopo:routepoint_id>
				</extensions>
			</trkpt>
			<trkpt lat="47.0492528062" lon="7.5063519395">
				<ele>527.5</ele>
				<time>2021-04-12T10:14:10+02:00</time>
				<extensions>
					<swisstopo:routepoint_id>1140105250</swisstopo:routepoint_id>
				</extensions>
			</trkpt>
			<trkpt lat="47.0492495693" lon="7.5063513238">
				<ele>527.5</ele>
				<time>2021-04-12T10:14:11+02:00</time>
				<extensions>
					<swisstopo:routepoint_id>1899838216</swisstopo:routepoint_id>
				</extensions>
			</trkpt>
			<trkpt lat="47.0492472236" lon="7.5063508678">
				<ele>527.6</ele>
				<time>2021-04-12T10:14:12+02:00</time>
				<extensions>
					<swisstopo:routepoint_id>1794032716</swisstopo:routepoint_id>
				</extensions>
			</trkpt>
			<trkpt lat="47.0492456318" lon="7.5063505241">
				<ele>527.6</ele>
				<time>2021-04-12T10:14:13+02:00</time>
				<extensions>
					<swisstopo:routepoint_id>1637453932</swisstopo:routepoint_id>
				</extensions>
			</trkpt>
			<trkpt lat="47.0492446896" lon="7.5063503399">
				<ele>527.6</ele>
				<time>2021-04-12T10:14:14+02:00</time>
				<extensions>
					<swisstopo:routepoint_id>685298819</swisstopo:routepoint_id>
				</extensions>
			</trkpt>
			<trkpt lat="47.0492442667" lon="7.5063502538">
				<ele>527.6</ele>
				<time>2021-04-12T10:14:15+02:00</time>
				<extensions>
					<swisstopo:routepoint_id>862452072</swisstopo:routepoint_id>
				</extensions>
			</trkpt>
			<trkpt lat="47.0492443553" lon="7.5063503058">
				<ele>527.6</ele>
				<time>2021-04-12T10:14:16+02:00</time>
				<extensions>
					<swisstopo:routepoint_id>1864840501</swisstopo:routepoint_id>
				</extensions>
			</trkpt>
			<trkpt lat="47.0492449303" lon="7.5063504127">
				<ele>527.6</ele>
				<time>2021-04-12T10:14:17+02:00</time>
				<extensions>
					<swisstopo:routepoint_id>1997955989</swisstopo:routepoint_id>
				</extensions>
			</trkpt>
			<trkpt lat="47.0492457874" lon="7.5063506104">
				<ele>527.6</ele>
				<time>2021-04-12T10:14:18+02:00</time>
				<extensions>
					<swisstopo:routepoint_id>1592002631</swisstopo:routepoint_id>
				</extensions>
			</trkpt>
			<trkpt lat="47.0492469666" lon="7.5063508493">
				<ele>527.6</ele>
				<time>2021-04-12T10:14:19+02:00</time>
				<extensions>
					<swisstopo:routepoint_id>1289461244</swisstopo:routepoint_id>
				</extensions>
			</trkpt>
			<trkpt lat="47.0492483869" lon="7.5063510431">
				<ele>527.6</ele>
				<time>2021-04-12T10:14:20+02:00</time>
				<extensions>
					<swisstopo:routepoint_id>1717646031</swisstopo:routepoint_id>
				</extensions>
			</trkpt>
			<trkpt lat="47.0492498075" lon="7.5063510399">
				<ele>527.6</ele>
				<time>2021-04-12T10:14:21+02:00</time>
				<extensions>
					<swisstopo:routepoint_id>2001660043</swisstopo:routepoint_id>
				</extensions>
			</trkpt>
			<trkpt lat="47.0492512105" lon="7.5063508889">
				<ele>527.6</ele>
				<time>2021-04-12T10:14:22+02:00</time>
				<extensions>
					<swisstopo:routepoint_id>1569012446</swisstopo:routepoint_id>
				</extensions>
			</trkpt>
			<trkpt lat="47.0492525637" lon="7.5063506754">
				<ele>527.6</ele>
				<time>2021-04-12T10:14:23+02:00</time>
				<extensions>
					<swisstopo:routepoint_id>1440478409</swisstopo:routepoint_id>
				</extensions>
			</trkpt>
			<trkpt lat="47.0492538116" lon="7.5063503376">
				<ele>527.6</ele>
				<time>2021-04-12T10:14:24+02:00</time>
				<extensions>
					<swisstopo:routepoint_id>1537467432</swisstopo:routepoint_id>
				</extensions>
			</trkpt>
			<trkpt lat="47.0492549441" lon="7.5063499498">
				<ele>527.6</ele>
				<time>2021-04-12T10:14:25+02:00</time>
				<extensions>
					<swisstopo:routepoint_id>1691888920</swisstopo:routepoint_id>
				</extensions>
			</trkpt>
			<trkpt lat="47.0492558642" lon="7.5063495952">
				<ele>527.6</ele>
				<time>2021-04-12T10:14:26+02:00</time>
				<extensions>
					<swisstopo:routepoint_id>746108513</swisstopo:routepoint_id>
				</extensions>
			</trkpt>
			<trkpt lat="47.0492565770" lon="7.5063492469">
				<ele>527.6</ele>
				<time>2021-04-12T10:14:27+02:00</time>
				<extensions>
					<swisstopo:routepoint_id>688763158</swisstopo:routepoint_id>
				</extensions>
			</trkpt>
			<trkpt lat="47.0492570569" lon="7.5063489077">
				<ele>527.6</ele>
				<time>2021-04-12T10:14:28+02:00</time>
				<extensions>
					<swisstopo:routepoint_id>1105539176</swisstopo:routepoint_id>
				</extensions>
			</trkpt>
			<trkpt lat="47.0492574050" lon="7.5063485346">
				<ele>527.6</ele>
				<time>2021-04-12T10:14:29+02:00</time>
				<extensions>
					<swisstopo:routepoint_id>768417188</swisstopo:routepoint_id>
				</extensions>
			</trkpt>
			<trkpt lat="47.0492576701" lon="7.5063481087">
				<ele>527.6</ele>
				<time>2021-04-12T10:14:30+02:00</time>
				<extensions>
					<swisstopo:routepoint_id>1968509305</swisstopo:routepoint_id>
				</extensions>
			</trkpt>
			<trkpt lat="47.0492577694" lon="7.5063476666">
				<ele>527.6</ele>
				<time>2021-04-12T10:14:31+02:00</time>
				<extensions>
					<swisstopo:routepoint_id>602823453</swisstopo:routepoint_id>
				</extensions>
			</trkpt>
			<trkpt lat="47.0492576629" lon="7.5063471372">
				<ele>527.6</ele>
				<time>2021-04-12T10:14:32+02:00</time>
				<extensions>
					<swisstopo:routepoint_id>1973411672</swisstopo:routepoint_id>
				</extensions>
			</trkpt>
			<trkpt lat="47.0492573400" lon="7.5063465282">
				<ele>527.7</ele>
				<time>2021-04-12T10:14:33+02:00</time>
				<extensions>
					<swisstopo:routepoint_id>1392527036</swisstopo:routepoint_id>
				</extensions>
			</trkpt>
			<trkpt lat="47.0492568264" lon="7.5063458809">
				<ele>527.7</ele>
				<time>2021-04-12T10:14:34+02:00</time>
				<extensions>
					<swisstopo:routepoint_id>925109046</swisstopo:routepoint_id>
				</extensions>
			</trkpt>
			<trkpt lat="47.0492562577" lon="7.5063452677">
				<ele>527.7</ele>
				<time>2021-04-12T10:14:35+02:00</time>
				<extensions>
					<swisstopo:routepoint_id>526131842</swisstopo:routepoint_id>
				</extensions>
			</trkpt>
			<trkpt lat="47.0492556513" lon="7.5063446614">
				<ele>527.7</ele>
				<time>2021-04-12T10:14:36+02:00</time>
				<extensions>
					<swisstopo:routepoint_id>1507693795</swisstopo:routepoint_id>
				</extensions>
			</trkpt>
			<trkpt lat="47.0492549546" lon="7.5063440138">
				<ele>527.7</ele>
				<time>2021-04-12T10:14:37+02:00</time>
				<extensions>
					<swisstopo:routepoint_id>1650061612</swisstopo:routepoint_id>
				</extensions>
			</trkpt>
			<trkpt lat="47.0492541790" lon="7.5063433100">
				<ele>527.7</ele>
				<time>2021-04-12T10:14:38+02:00</time>
				<extensions>
					<swisstopo:routepoint_id>2129179173</swisstopo:routepoint_id>
				</extensions>
			</trkpt>
			<trkpt lat="47.0492533921" lon="7.5063425876">
				<ele>527.7</ele>
				<time>2021-04-12T10:14:39+02:00</time>
				<extensions>
					<swisstopo:routepoint_id>1594350650</swisstopo:routepoint_id>
				</extensions>
			</trkpt>
			<trkpt lat="47.0492526286" lon="7.5063418551">
				<ele>527.7</ele>
				<time>2021-04-12T10:14:40+02:00</time>
				<extensions>
					<swisstopo:routepoint_id>2097910931</swisstopo:routepoint_id>
				</extensions>
			</trkpt>
			<trkpt lat="47.0492518777" lon="7.5063410704">
				<ele>527.7</ele>
				<time>2021-04-12T10:14:41+02:00</time>
				<extensions>
					<swisstopo:routepoint_id>55017224</swisstopo:routepoint_id>
				</extensions>
			</trkpt>
			<trkpt lat="47.0492511462" lon="7.5063402257">
				<ele>527.7</ele>
				<time>2021-04-12T10:14:42+02:00</time>
				<extensions>
					<swisstopo:routepoint_id>1256515558</swisstopo:routepoint_id>
				</extensions>
			</trkpt>
			<trkpt lat="47.0492505054" lon="7.5063394013">
				<ele>527.7</ele>
				<time>2021-04-12T10:14:43+02:00</time>
				<extensions>
					<swisstopo:routepoint_id>2050282355</swisstopo:routepoint_id>
				</extensions>
			</trkpt>
			<trkpt lat="47.0492499695" lon="7.5063386356">
				<ele>527.7</ele>
				<time>2021-04-12T10:14:44+02:00</time>
				<extensions>
					<swisstopo:routepoint_id>572940723</swisstopo:routepoint_id>
				</extensions>
			</trkpt>
			<trkpt lat="47.0492494632" lon="7.5063378588">
				<ele>527.7</ele>
				<time>2021-04-12T10:14:45+02:00</time>
				<extensions>
					<swisstopo:routepoint_id>98058313</swisstopo:routepoint_id>
				</extensions>
			</trkpt>
			<trkpt lat="47.0492490206" lon="7.5063371259">
				<ele>527.7</ele>
				<time>2021-04-12T10:14:46+02:00</time>
				<extensions>
					<swisstopo:routepoint_id>946109342</swisstopo:routepoint_id>
				</extensions>
			</trkpt>
			<trkpt lat="47.0492486832" lon="7.5063364600">
				<ele>527.7</ele>
				<time>2021-04-12T10:14:47+02:00</time>
				<extensions>
					<swisstopo:routepoint_id>1290788606</swisstopo:routepoint_id>
				</extensions>
			</trkpt>
			<trkpt lat="47.0492484349" lon="7.5063358583">
				<ele>527.7</ele>
				<time>2021-04-12T10:14:48+02:00</time>
				<extensions>
					<swisstopo:routepoint_id>404299048</swisstopo:routepoint_id>
				</extensions>
			</trkpt>
			<trkpt lat="47.0492482052" lon="7.5063353695">
				<ele>527.7</ele>
				<time>2021-04-12T10:14:49+02:00</time>
				<extensions>
					<swisstopo:routepoint_id>415840628</swisstopo:routepoint_id>
				</extensions>
			</trkpt>
			<trkpt lat="47.0492480389" lon="7.5063349692">
				<ele>527.7</ele>
				<time>2021-04-12T10:14:50+02:00</time>
				<extensions>
					<swisstopo:routepoint_id>1121647458</swisstopo:routepoint_id>
				</extensions>
			</trkpt>
			<trkpt lat="47.0492479634" lon="7.5063346395">
				<ele>527.7</ele>
				<time>2021-04-12T10:14:51+02:00</time>
				<extensions>
					<swisstopo:routepoint_id>917373240</swisstopo:routepoint_id>
				</extensions>
			</trkpt>
			<trkpt lat="47.0492479418" lon="7.5063343701">
				<ele>527.7</ele>
				<time>2021-04-12T10:14:52+02:00</time>
				<extensions>
					<swisstopo:routepoint_id>1506942867</swisstopo:routepoint_id>
				</extensions>
			</trkpt>
			<trkpt lat="47.0492479223" lon="7.5063341282">
				<ele>527.7</ele>
				<time>2021-04-12T10:14:53+02:00</time>
				<extensions>
					<swisstopo:routepoint_id>1914116598</swisstopo:routepoint_id>
				</extensions>
			</trkpt>
			<trkpt lat="47.0492478921" lon="7.5063339434">
				<ele>527.7</ele>
				<time>2021-04-12T10:14:54+02:00</time>
				<extensions>
					<swisstopo:routepoint_id>1252630526</swisstopo:routepoint_id>
				</extensions>
			</trkpt>
			<trkpt lat="47.0492478653" lon="7.5063337837">
				<ele>527.7</ele>
				<time>2021-04-12T10:14:55+02:00</time>
				<extensions>
					<swisstopo:routepoint_id>1179058941</swisstopo:routepoint_id>
				</extensions>
			</trkpt>
			<trkpt lat="47.0492478502" lon="7.5063336173">
				<ele>527.7</ele>
				<time>2021-04-12T10:14:56+02:00</time>
				<extensions>
					<swisstopo:routepoint_id>1612010518</swisstopo:routepoint_id>
				</extensions>
			</trkpt>
			<trkpt lat="47.0492478667" lon="7.5063333968">
				<ele>527.7</ele>
				<time>2021-04-12T10:14:57+02:00</time>
				<extensions>
					<swisstopo:routepoint_id>407085474</swisstopo:routepoint_id>
				</extensions>
			</trkpt>
			<trkpt lat="47.0492479357" lon="7.5063331353">
				<ele>527.7</ele>
				<time>2021-04-12T10:14:58+02:00</time>
				<extensions>
					<swisstopo:routepoint_id>2662176</swisstopo:routepoint_id>
				</extensions>
			</trkpt>
			<trkpt lat="47.0492480807" lon="7.5063328724">
				<ele>527.7</ele>
				<time>2021-04-12T10:14:59+02:00</time>
				<extensions>
					<swisstopo:routepoint_id>1793519092</swisstopo:routepoint_id>
				</extensions>
			</trkpt>
			<trkpt lat="47.0492482388" lon="7.5063325854">
				<ele>527.7</ele>
				<time>2021-04-12T10:15:00+02:00</time>
				<extensions>
					<swisstopo:routepoint_id>1594909952</swisstopo:routepoint_id>
				</extensions>
			</trkpt>
			<trkpt lat="47.0492484037" lon="7.5063322860">
				<ele>527.7</ele>
				<time>2021-04-12T10:15:01+02:00</time>
				<extensions>
					<swisstopo:routepoint_id>760681410</swisstopo:routepoint_id>
				</extensions>
			</trkpt>
			<trkpt lat="47.0492485639" lon="7.5063320254">
				<ele>527.7</ele>
				<time>2021-04-12T10:15:02+02:00</time>
				<extensions>
					<swisstopo:routepoint_id>802307279</swisstopo:routepoint_id>
				</extensions>
			</trkpt>
			<trkpt lat="47.0492487384" lon="7.5063317961">
				<ele>527.7</ele>
				<time>2021-04-12T10:15:03+02:00</time>
				<extensions>
					<swisstopo:routepoint_id>328618640</swisstopo:routepoint_id>
				</extensions>
			</trkpt>
			<trkpt lat="47.0492488770" lon="7.5063316193">
				<ele>527.6</ele>
				<time>2021-04-12T10:15:04+02:00</time>
				<extensions>
					<swisstopo:routepoint_id>1913026043</swisstopo:routepoint_id>
				</extensions>
			</trkpt>
			<trkpt lat="47.0492490018" lon="7.5063314519">
				<ele>527.6</ele>
				<time>2021-04-12T10:15:05+02:00</time>
				<extensions>
					<swisstopo:routepoint_id>103541817</swisstopo:routepoint_id>
				</extensions>
			</trkpt>
			<trkpt lat="47.0492491387" lon="7.5063312861">
				<ele>527.6</ele>
				<time>2021-04-12T10:15:06+02:00</time>
				<extensions>
					<swisstopo:routepoint_id>765564249</swisstopo:routepoint_id>
				</extensions>
			</trkpt>
			<trkpt lat="47.0492493886" lon="7.5063310513">
				<ele>527.6</ele>
				<time>2021-04-12T10:15:07+02:00</time>
				<extensions>
					<swisstopo:routepoint_id>1263803766</swisstopo:routepoint_id>
				</extensions>
			</trkpt>
			<trkpt lat="47.0492496646" lon="7.5063307892">
				<ele>527.6</ele>
				<time>2021-04-12T10:15:08+02:00</time>
				<extensions>
					<swisstopo:routepoint_id>2136626332</swisstopo:routepoint_id>
				</extensions>
			</trkpt>
			<trkpt lat="47.0492499418" lon="7.5063305403">
				<ele>527.6</ele>
				<time>2021-04-12T10:15:09+02:00</time>
				<extensions>
					<swisstopo:routepoint_id>57216790</swisstopo:routepoint_id>
				</extensions>
			</trkpt>
			<trkpt lat="47.0492502244" lon="7.5063302775">
				<ele>527.6</ele>
				<time>2021-04-12T10:15:10+02:00</time>
				<extensions>
					<swisstopo:routepoint_id>1717399321</swisstopo:routepoint_id>
				</extensions>
			</trkpt>
			<trkpt lat="47.0492504990" lon="7.5063299925">
				<ele>527.6</ele>
				<time>2021-04-12T10:15:11+02:00</time>
				<extensions>
					<swisstopo:routepoint_id>2688720</swisstopo:routepoint_id>
				</extensions>
			</trkpt>
			<trkpt lat="47.0492507432" lon="7.5063296783">
				<ele>527.5</ele>
				<time>2021-04-12T10:15:12+02:00</time>
				<extensions>
					<swisstopo:routepoint_id>92160453</swisstopo:routepoint_id>
				</extensions>
			</trkpt>
			<trkpt lat="47.0492510083" lon="7.5063293639">
				<ele>527.5</ele>
				<time>2021-04-12T10:15:13+02:00</time>
				<extensions>
					<swisstopo:routepoint_id>605024084</swisstopo:routepoint_id>
				</extensions>
			</trkpt>
			<trkpt lat="47.0492511916" lon="7.5063290804">
				<ele>527.5</ele>
				<time>2021-04-12T10:15:14+02:00</time>
				<extensions>
					<swisstopo:routepoint_id>304711243</swisstopo:routepoint_id>
				</extensions>
			</trkpt>
			<trkpt lat="47.0492513251" lon="7.5063288389">
				<ele>527.5</ele>
				<time>2021-04-12T10:15:15+02:00</time>
				<extensions>
					<swisstopo:routepoint_id>1680846653</swisstopo:routepoint_id>
				</extensions>
			</trkpt>
			<trkpt lat="47.0492514177" lon="7.5063286766">
				<ele>527.5</ele>
				<time>2021-04-12T10:15:16+02:00</time>
				<extensions>
					<swisstopo:routepoint_id>1989804333</swisstopo:routepoint_id>
				</extensions>
			</trkpt>
			<trkpt lat="47.0492514655" lon="7.5063285782">
				<ele>527.5</ele>
				<time>2021-04-12T10:15:17+02:00</time>
				<extensions>
					<swisstopo:routepoint_id>2026073647</swisstopo:routepoint_id>
				</extensions>
			</trkpt>
			<trkpt lat="47.0492514956" lon="7.5063285194">
				<ele>527.5</ele>
				<time>2021-04-12T10:15:18+02:00</time>
				<extensions>
					<swisstopo:routepoint_id>1719078297</swisstopo:routepoint_id>
				</extensions>
			</trkpt>
			<trkpt lat="47.0492514911" lon="7.5063285093">
				<ele>527.5</ele>
				<time>2021-04-12T10:15:19+02:00</time>
				<extensions>
					<swisstopo:routepoint_id>303950941</swisstopo:routepoint_id>
				</extensions>
			</trkpt>
			<trkpt lat="47.0492514432" lon="7.5063285138">
				<ele>527.5</ele>
				<time>2021-04-12T10:15:20+02:00</time>
				<extensions>
					<swisstopo:routepoint_id>1787352821</swisstopo:routepoint_id>
				</extensions>
			</trkpt>
			<trkpt lat="47.0492513776" lon="7.5063285802">
				<ele>527.5</ele>
				<time>2021-04-12T10:15:21+02:00</time>
				<extensions>
					<swisstopo:routepoint_id>1037608311</swisstopo:routepoint_id>
				</extensions>
			</trkpt>
			<trkpt lat="47.0492512921" lon="7.5063287551">
				<ele>527.5</ele>
				<time>2021-04-12T10:15:22+02:00</time>
				<extensions>
					<swisstopo:routepoint_id>1515669337</swisstopo:routepoint_id>
				</extensions>
			</trkpt>
			<trkpt lat="47.0492511081" lon="7.5063290320">
				<ele>527.5</ele>
				<time>2021-04-12T10:15:23+02:00</time>
				<extensions>
					<swisstopo:routepoint_id>403526245</swisstopo:routepoint_id>
				</extensions>
			</trkpt>
			<trkpt lat="47.0492508668" lon="7.5063294085">
				<ele>527.5</ele>
				<time>2021-04-12T10:15:24+02:00</time>
				<extensions>
					<swisstopo:routepoint_id>312242489</swisstopo:routepoint_id>
				</extensions>
			</trkpt>
			<trkpt lat="47.0492505616" lon="7.5063298430">
				<ele>527.5</ele>
				<time>2021-04-12T10:15:25+02:00</time>
				<extensions>
					<swisstopo:routepoint_id>1556963002</swisstopo:routepoint_id>
				</extensions>
			</trkpt>
			<trkpt lat="47.0492502559" lon="7.5063302510">
				<ele>527.5</ele>
				<time>2021-04-12T10:15:26+02:00</time>
				<extensions>
					<swisstopo:routepoint_id>788935919</swisstopo:routepoint_id>
				</extensions>
			</trkpt>
			<trkpt lat="47.0492499417" lon="7.5063306295">
				<ele>527.5</ele>
				<time>2021-04-12T10:15:27+02:00</time>
				<extensions>
					<swisstopo:routepoint_id>1081954055</swisstopo:routepoint_id>
				</extensions>
			</trkpt>
			<trkpt lat="47.0492495666" lon="7.5063310181">
				<ele>527.5</ele>
				<time>2021-04-12T10:15:28+02:00</time>
				<extensions>
					<swisstopo:routepoint_id>1657763236</swisstopo:routepoint_id>
				</extensions>
			</trkpt>
			<trkpt lat="47.0492492154" lon="7.5063314019">
				<ele>527.5</ele>
				<time>2021-04-12T10:15:29+02:00</time>
				<extensions>
					<swisstopo:routepoint_id>573871274</swisstopo:routepoint_id>
				</extensions>
			</trkpt>
			<trkpt lat="47.0492489014" lon="7.5063318277">
				<ele>527.5</ele>
				<time>2021-04-12T10:15:30+02:00</time>
				<extensions>
					<swisstopo:routepoint_id>705443441</swisstopo:routepoint_id>
				</extensions>
			</trkpt>
			<trkpt lat="47.0492486657" lon="7.5063322179">
				<ele>527.5</ele>
				<time>2021-04-12T10:15:31+02:00</time>
				<extensions>
					<swisstopo:routepoint_id>130697800</swisstopo:routepoint_id>
				</extensions>
			</trkpt>
			<trkpt lat="47.0492485151" lon="7.5063325345">
				<ele>527.5</ele>
				<time>2021-04-12T10:15:32+02:00</time>
				<extensions>
					<swisstopo:routepoint_id>1909637366</swisstopo:routepoint_id>
				</extensions>
			</trkpt>
			<trkpt lat="47.0492484896" lon="7.5063328289">
				<ele>527.5</ele>
				<time>2021-04-12T10:15:33+02:00</time>
				<extensions>
					<swisstopo:routepoint_id>1132105947</swisstopo:routepoint_id>
				</extensions>
			</trkpt>
			<trkpt lat="47.0492490335" lon="7.5063336111">
				<ele>527.5</ele>
				<time>2021-04-12T10:15:34+02:00</time>
				<extensions>
					<swisstopo:routepoint_id>599538809</swisstopo:routepoint_id>
				</extensions>
			</trkpt>
			<trkpt lat="47.0492520971" lon="7.5063365995">
				<ele>527.5</ele>
				<time>2021-04-12T10:15:35+02:00</time>
				<extensions>
					<swisstopo:routepoint_id>455491139</swisstopo:routepoint_id>
				</extensions>
			</trkpt>
			<trkpt lat="47.0492599108" lon="7.5063446544">
				<ele>527.5</ele>
				<time>2021-04-12T10:15:36+02:00</time>
				<extensions>
					<swisstopo:routepoint_id>1807855265</swisstopo:routepoint_id>
				</extensions>
			</trkpt>
			<trkpt lat="47.0492735061" lon="7.5063594418">
				<ele>527.5</ele>
				<time>2021-04-12T10:15:37+02:00</time>
				<extensions>
					<swisstopo:routepoint_id>2024801099</swisstopo:routepoint_id>
				</extensions>
			</trkpt>
			<trkpt lat="47.0492936837" lon="7.5063817500">
				<ele>527.6</ele>
				<time>2021-04-12T10:15:38+02:00</time>
				<extensions>
					<swisstopo:routepoint_id>1806200531</swisstopo:routepoint_id>
				</extensions>
			</trkpt>
			<trkpt lat="47.0493213443" lon="7.5064113951">
				<ele>527.7</ele>
				<time>2021-04-12T10:15:39+02:00</time>
				<extensions>
					<swisstopo:routepoint_id>2130974172</swisstopo:routepoint_id>
				</extensions>
			</trkpt>
			<trkpt lat="47.0493571678" lon="7.5064470034">
				<ele>527.8</ele>
				<time>2021-04-12T10:15:40+02:00</time>
				<extensions>
					<swisstopo:routepoint_id>1698127785</swisstopo:routepoint_id>
				</extensions>
			</trkpt>
			<trkpt lat="47.0494015720" lon="7.5064874683">
				<ele>527.9</ele>
				<time>2021-04-12T10:15:41+02:00</time>
				<extensions>
					<swisstopo:routepoint_id>376013865</swisstopo:routepoint_id>
				</extensions>
			</trkpt>
			<trkpt lat="47.0494539495" lon="7.5065324286">
				<ele>528.0</ele>
				<time>2021-04-12T10:15:42+02:00</time>
				<extensions>
					<swisstopo:routepoint_id>1768139581</swisstopo:routepoint_id>
				</extensions>
			</trkpt>
			<trkpt lat="47.0495129902" lon="7.5065817952">
				<ele>528.2</ele>
				<time>2021-04-12T10:15:43+02:00</time>
				<extensions>
					<swisstopo:routepoint_id>243230681</swisstopo:routepoint_id>
				</extensions>
			</trkpt>
			<trkpt lat="47.0495761667" lon="7.5066343814">
				<ele>528.3</ele>
				<time>2021-04-12T10:15:44+02:00</time>
				<extensions>
					<swisstopo:routepoint_id>1316675326</swisstopo:routepoint_id>
				</extensions>
			</trkpt>
			<trkpt lat="47.0496397330" lon="7.5066886081">
				<ele>528.4</ele>
				<time>2021-04-12T10:15:45+02:00</time>
				<extensions>
					<swisstopo:routepoint_id>1690705394</swisstopo:routepoint_id>
				</extensions>
			</trkpt>
			<trkpt lat="47.0497003899" lon="7.5067419661">
				<ele>528.5</ele>
				<time>2021-04-12T10:15:46+02:00</time>
				<extensions>
					<swisstopo:routepoint_id>181939854</swisstopo:routepoint_id>
				</extensions>
			</trkpt>
			<trkpt lat="47.0497560396" lon="7.5067925511">
				<ele>528.6</ele>
				<time>2021-04-12T10:15:47+02:00</time>
				<extensions>
					<swisstopo:routepoint_id>1993896497</swisstopo:routepoint_id>
				</extensions>
			</trkpt>
			<trkpt lat="47.0498052658" lon="7.5068375671">
				<ele>528.6</ele>
				<time>2021-04-12T10:15:48+02:00</time>
				<extensions>
					<swisstopo:routepoint_id>2083597291</swisstopo:routepoint_id>
				</extensions>
			</trkpt>
			<trkpt lat="47.0498472933" lon="7.5068758782">
				<ele>528.5</ele>
				<time>2021-04-12T10:15:49+02:00</time>
				<extensions>
					<swisstopo:routepoint_id>3838208</swisstopo:routepoint_id>
				</extensions>
			</trkpt>
			<trkpt lat="47.0498818632" lon="7.5069077647">
				<ele>528.5</ele>
				<time>2021-04-12T10:15:50+02:00</time>
				<extensions>
					<swisstopo:routepoint_id>84252446</swisstopo:routepoint_id>
				</extensions>
			</trkpt>
			<trkpt lat="47.0499103547" lon="7.5069356505">
				<ele>528.4</ele>
				<time>2021-04-12T10:15:51+02:00</time>
				<extensions>
					<swisstopo:routepoint_id>839136549</swisstopo:routepoint_id>
				</extensions>
			</trkpt>
			<trkpt lat="47.0499350629" lon="7.5069625375">
				<ele>528.3</ele>
				<time>2021-04-12T10:15:52+02:00</time>
				<extensions>
					<swisstopo:routepoint_id>842869194</swisstopo:routepoint_id>
				</extensions>
			</trkpt>
			<trkpt lat="47.0499578959" lon="7.5069900319">
				<ele>528.2</ele>
				<time>2021-04-12T10:15:53+02:00</time>
				<extensions>
					<swisstopo:routepoint_id>1300407946</swisstopo:routepoint_id>
				</extensions>
			</trkpt>
			<trkpt lat="47.0499801489" lon="7.5070204107">
				<ele>528.2</ele>
				<time>2021-04-12T10:15:54+02:00</time>
				<extensions>
					<swisstopo:routepoint_id>1015272903</swisstopo:routepoint_id>
				</extensions>
			</trkpt>
			<trkpt lat="47.0500027384" lon="7.5070561843">
				<ele>528.1</ele>
				<time>2021-04-12T10:15:55+02:00</time>
				<extensions>
					<swisstopo:routepoint_id>1934105306</swisstopo:routepoint_id>
				</extensions>
			</trkpt>
			<trkpt lat="47.0500263240" lon="7.5070991392">
				<ele>528.1</ele>
				<time>2021-04-12T10:15:56+02:00</time>
				<extensions>
					<swisstopo:routepoint_id>47913303</swisstopo:routepoint_id>
				</extensions>
			</trkpt>
			<trkpt lat="47.0500503755" lon="7.5071496039">
				<ele>528.0</ele>
				<time>2021-04-12T10:15:57+02:00</time>
				<extensions>
					<swisstopo:routepoint_id>2119999543</swisstopo:routepoint_id>
				</extensions>
			</trkpt>
			<trkpt lat="47.0500744596" lon="7.5072065620">
				<ele>528.0</ele>
				<time>2021-04-12T10:15:58+02:00</time>
				<extensions>
					<swisstopo:routepoint_id>1931131824</swisstopo:routepoint_id>
				</extensions>
			</trkpt>
			<trkpt lat="47.0500986457" lon="7.5072680036">
				<ele>527.9</ele>
				<time>2021-04-12T10:15:59+02:00</time>
				<extensions>
					<swisstopo:routepoint_id>1612208857</swisstopo:routepoint_id>
				</extensions>
			</trkpt>
			<trkpt lat="47.0501228821" lon="7.5073316587">
				<ele>527.8</ele>
				<time>2021-04-12T10:16:00+02:00</time>
				<extensions>
					<swisstopo:routepoint_id>1593085400</swisstopo:routepoint_id>
				</extensions>
			</trkpt>
			<trkpt lat="47.0501474725" lon="7.5073968366">
				<ele>527.8</ele>
				<time>2021-04-12T10:16:01+02:00</time>
				<extensions>
					<swisstopo:routepoint_id>160207004</swisstopo:routepoint_id>
				</extensions>
			</trkpt>
			<trkpt lat="47.0501734815" lon="7.5074627322">
				<ele>527.7</ele>
				<time>2021-04-12T10:16:02+02:00</time>
				<extensions>
					<swisstopo:routepoint_id>1802106537</swisstopo:routepoint_id>
				</extensions>
			</trkpt>
			<trkpt lat="47.0502027211" lon="7.5075296681">
				<ele>527.6</ele>
				<time>2021-04-12T10:16:03+02:00</time>
				<extensions>
					<swisstopo:routepoint_id>2042693718</swisstopo:routepoint_id>
				</extensions>
			</trkpt>
			<trkpt lat="47.0502361829" lon="7.5075987934">
				<ele>527.6</ele>
				<time>2021-04-12T10:16:04+02:00</time>
				<extensions>
					<swisstopo:routepoint_id>1879737484</swisstopo:routepoint_id>
				</extensions>
			</trkpt>
			<trkpt lat="47.0502744401" lon="7.5076704535">
				<ele>527.5</ele>
				<time>2021-04-12T10:16:05+02:00</time>
				<extensions>
					<swisstopo:routepoint_id>1115962571</swisstopo:routepoint_id>
				</extensions>
			</trkpt>
			<trkpt lat="47.0503170109" lon="7.5077446141">
				<ele>527.5</ele>
				<time>2021-04-12T10:16:06+02:00</time>
				<extensions>
					<swisstopo:routepoint_id>2008241546</swisstopo:routepoint_id>
				</extensions>
			</trkpt>
			<trkpt lat="47.0503635064" lon="7.5078214899">
				<ele>527.5</ele>
				<time>2021-04-12T10:16:07+02:00</time>
				<extensions>
					<swisstopo:routepoint_id>515183723</swisstopo:routepoint_id>
				</extensions>
			</trkpt>
			<trkpt lat="47.0504132944" lon="7.5079006745">
				<ele>527.4</ele>
				<time>2021-04-12T10:16:08+02:00</time>
				<extensions>
					<swisstopo:routepoint_id>38767757</swisstopo:routepoint_id>
				</extensions>
			</trkpt>
			<trkpt lat="47.0504656758" lon="7.5079827325">
				<ele>527.3</ele>
				<time>2021-04-12T10:16:09+02:00</time>
				<extensions>
					<swisstopo:routepoint_id>882146858</swisstopo:routepoint_id>
				</extensions>
			</trkpt>
			<trkpt lat="47.0505202744" lon="7.5080673093">
				<ele>527.2</ele>
				<time>2021-04-12T10:16:10+02:00</time>
				<extensions>
					<swisstopo:routepoint_id>15143518</swisstopo:routepoint_id>
				</extensions>
			</trkpt>
			<trkpt lat="47.0505767427" lon="7.5081540003">
				<ele>527.0</ele>
				<time>2021-04-12T10:16:11+02:00</time>
				<extensions>
					<swisstopo:routepoint_id>1114036680</swisstopo:routepoint_id>
				</extensions>
			</trkpt>
			<trkpt lat="47.0506346544" lon="7.5082418458">
				<ele>526.9</ele>
				<time>2021-04-12T10:16:12+02:00</time>
				<extensions>
					<swisstopo:routepoint_id>1852046214</swisstopo:routepoint_id>
				</extensions>
			</trkpt>
			<trkpt lat="47.0506938863" lon="7.5083302240">
				<ele>526.7</ele>
				<time>2021-04-12T10:16:13+02:00</time>
				<extensions>
					<swisstopo:routepoint_id>1712739080</swisstopo:routepoint_id>
				</extensions>
			</trkpt>
			<trkpt lat="47.0507542666" lon="7.5084192749">
				<ele>526.5</ele>
				<time>2021-04-12T10:16:14+02:00</time>
				<extensions>
					<swisstopo:routepoint_id>1134913172</swisstopo:routepoint_id>
				</extensions>
			</trkpt>
			<trkpt lat="47.0508155131" lon="7.5085090181">
				<ele>526.3</ele>
				<time>2021-04-12T10:16:15+02:00</time>
				<extensions>
					<swisstopo:routepoint_id>535929150</swisstopo:routepoint_id>
				</extensions>
			</trkpt>
			<trkpt lat="47.0508770904" lon="7.5085994257">
				<ele>526.1</ele>
				<time>2021-04-12T10:16:16+02:00</time>
				<extensions>
					<swisstopo:routepoint_id>814808532</swisstopo:routepoint_id>
				</extensions>
			</trkpt>
			<trkpt lat="47.0509390263" lon="7.5086905618">
				<ele>525.9</ele>
				<time>2021-04-12T10:16:17+02:00</time>
				<extensions>
					<swisstopo:routepoint_id>2131264052</swisstopo:routepoint_id>
				</extensions>
			</trkpt>
			<trkpt lat="47.0510010669" lon="7.5087826577">
				<ele>525.6</ele>
				<time>2021-04-12T10:16:18+02:00</time>
				<extensions>
					<swisstopo:routepoint_id>127690004</swisstopo:routepoint_id>
				</extensions>
			</trkpt>
			<trkpt lat="47.0510633550" lon="7.5088759594">
				<ele>525.4</ele>
				<time>2021-04-12T10:16:19+02:00</time>
				<extensions>
					<swisstopo:routepoint_id>749733875</swisstopo:routepoint_id>
				</extensions>
			</trkpt>
			<trkpt lat="47.0511255561" lon="7.5089704138">
				<ele>525.2</ele>
				<time>2021-04-12T10:16:20+02:00</time>
				<extensions>
					<swisstopo:routepoint_id>1490680176</swisstopo:routepoint_id>
				</extensions>
			</trkpt>
			<trkpt lat="47.0511868409" lon="7.5090653432">
				<ele>525.0</ele>
				<time>2021-04-12T10:16:21+02:00</time>
				<extensions>
					<swisstopo:routepoint_id>1317492130</swisstopo:routepoint_id>
				</extensions>
			</trkpt>
			<trkpt lat="47.0512476000" lon="7.5091598587">
				<ele>524.8</ele>
				<time>2021-04-12T10:16:22+02:00</time>
				<extensions>
					<swisstopo:routepoint_id>386344693</swisstopo:routepoint_id>
				</extensions>
			</trkpt>
			<trkpt lat="47.0513071511" lon="7.5092546572">
				<ele>524.7</ele>
				<time>2021-04-12T10:16:23+02:00</time>
				<extensions>
					<swisstopo:routepoint_id>1452190370</swisstopo:routepoint_id>
				</extensions>
			</trkpt>
			<trkpt lat="47.0513654520" lon="7.5093507596">
				<ele>524.5</ele>
				<time>2021-04-12T10:16:24+02:00</time>
				<extensions>
					<swisstopo:routepoint_id>811900435</swisstopo:routepoint_id>
				</extensions>
			</trkpt>
			<trkpt lat="47.0514226431" lon="7.5094486351">
				<ele>524.4</ele>
				<time>2021-04-12T10:16:25+02:00</time>
				<extensions>
					<swisstopo:routepoint_id>499518007</swisstopo:routepoint_id>
				</extensions>
			</trkpt>
			<trkpt lat="47.0514792729" lon="7.5095477649">
				<ele>524.2</ele>
				<time>2021-04-12T10:16:26+02:00</time>
				<extensions>
					<swisstopo:routepoint_id>885567526</swisstopo:routepoint_id>
				</extensions>
			</trkpt>
			<trkpt lat="47.0515354514" lon="7.5096474686">
				<ele>524.1</ele>
				<time>2021-04-12T10:16:27+02:00</time>
				<extensions>
					<swisstopo:routepoint_id>1671735772</swisstopo:routepoint_id>
				</extensions>
			</trkpt>
			<trkpt lat="47.0515915967" lon="7.5097455313">
				<ele>523.9</ele>
				<time>2021-04-12T10:16:28+02:00</time>
				<extensions>
					<swisstopo:routepoint_id>1334566303</swisstopo:routepoint_id>
				</extensions>
			</trkpt>
			<trkpt lat="47.0516467668" lon="7.5098398111">
				<ele>523.8</ele>
				<time>2021-04-12T10:16:29+02:00</time>
				<extensions>
					<swisstopo:routepoint_id>1736645253</swisstopo:routepoint_id>
				</extensions>
			</trkpt>
			<trkpt lat="47.0516990367" lon="7.5099272599">
				<ele>523.6</ele>
				<time>2021-04-12T10:16:30+02:00</time>
				<extensions>
					<swisstopo:routepoint_id>1346520794</swisstopo:routepoint_id>
				</extensions>
			</trkpt>
			<trkpt lat="47.0517464811" lon="7.5100045304">
				<ele>523.5</ele>
				<time>2021-04-12T10:16:31+02:00</time>
				<extensions>
					<swisstopo:routepoint_id>792312672</swisstopo:routepoint_id>
				</extensions>
			</trkpt>
			<trkpt lat="47.0517876097" lon="7.5100697132">
				<ele>523.5</ele>
				<time>2021-04-12T10:16:32+02:00</time>
				<extensions>
					<swisstopo:routepoint_id>2000466904</swisstopo:routepoint_id>
				</extensions>
			</trkpt>
			<trkpt lat="47.0518215745" lon="7.5101224785">
				<ele>523.4</ele>
				<time>2021-04-12T10:16:33+02:00</time>
				<extensions>
					<swisstopo:routepoint_id>843278096</swisstopo:routepoint_id>
				</extensions>
			</trkpt>
			<trkpt lat="47.0518476637" lon="7.5101622291">
				<ele>523.4</ele>
				<time>2021-04-12T10:16:34+02:00</time>
				<extensions>
					<swisstopo:routepoint_id>1730372919</swisstopo:routepoint_id>
				</extensions>
			</trkpt>
			<trkpt lat="47.0518653314" lon="7.5101891368">
				<ele>523.4</ele>
				<time>2021-04-12T10:16:35+02:00</time>
				<extensions>
					<swisstopo:routepoint_id>1154101959</swisstopo:routepoint_id>
				</extensions>
			</trkpt>
			<trkpt lat="47.0518753228" lon="7.5102042750">
				<ele>523.4</ele>
				<time>2021-04-12T10:16:36+02:00</time>
				<extensions>
					<swisstopo:routepoint_id>919325209</swisstopo:routepoint_id>
				</extensions>
			</trkpt>
			<trkpt lat="47.0518790035" lon="7.5102100487">
				<ele>523.4</ele>
				<time>2021-04-12T10:16:37+02:00</time>
				<extensions>
					<swisstopo:routepoint_id>2101431145</swisstopo:routepoint_id>
				</extensions>
			</trkpt>
			<trkpt lat="47.0518779743" lon="7.5102090134">
				<ele>523.4</ele>
				<time>2021-04-12T10:16:38+02:00</time>
				<extensions>
					<swisstopo:routepoint_id>1237195453</swisstopo:routepoint_id>
				</extensions>
			</trkpt>
			<trkpt lat="47.0518750690" lon="7.5102045982">
				<ele>523.4</ele>
				<time>2021-04-12T10:16:39+02:00</time>
				<extensions>
					<swisstopo:routepoint_id>1607308317</swisstopo:routepoint_id>
				</extensions>
			</trkpt>
			<trkpt lat="47.0518753995" lon="7.5102030574">
				<ele>523.4</ele>
				<time>2021-04-12T10:16:40+02:00</time>
				<extensions>
					<swisstopo:routepoint_id>834088206</swisstopo:routepoint_id>
				</extensions>
			</trkpt>
			<trkpt lat="47.0518838396" lon="7.5102104843">
				<ele>523.5</ele>
				<time>2021-04-12T10:16:41+02:00</time>
				<extensions>
					<swisstopo:routepoint_id>1894714273</swisstopo:routepoint_id>
				</extensions>
			</trkpt>
			<trkpt lat="47.0519032847" lon="7.5102302499">
				<ele>523.5</ele>
				<time>2021-04-12T10:16:42+02:00</time>
				<extensions>
					<swisstopo:routepoint_id>1575268595</swisstopo:routepoint_id>
				</extensions>
			</trkpt>
			<trkpt lat="47.0519358096" lon="7.5102642525">
				<ele>523.6</ele>
				<time>2021-04-12T10:16:43+02:00</time>
				<extensions>
					<swisstopo:routepoint_id>1360875949</swisstopo:routepoint_id>
				</extensions>
			</trkpt>
			<trkpt lat="47.0519829785" lon="7.5103119688">
				<ele>523.7</ele>
				<time>2021-04-12T10:16:44+02:00</time>
				<extensions>
					<swisstopo:routepoint_id>1541234293</swisstopo:routepoint_id>
				</extensions>
			</trkpt>
			<trkpt lat="47.0520452943" lon="7.5103713778">
				<ele>523.7</ele>
				<time>2021-04-12T10:16:45+02:00</time>
				<extensions>
					<swisstopo:routepoint_id>577012337</swisstopo:routepoint_id>
				</extensions>
			</trkpt>
			<trkpt lat="47.0521222274" lon="7.5104404891">
				<ele>523.8</ele>
				<time>2021-04-12T10:16:46+02:00</time>
				<extensions>
					<swisstopo:routepoint_id>1957681754</swisstopo:routepoint_id>
				</extensions>
			</trkpt>
			<trkpt lat="47.0522120028" lon="7.5105167352">
				<ele>523.9</ele>
				<time>2021-04-12T10:16:47+02:00</time>
				<extensions>
					<swisstopo:routepoint_id>1160283791</swisstopo:routepoint_id>
				</extensions>
			</trkpt>
			<trkpt lat="47.0523122597" lon="7.5105981382">
				<ele>524.1</ele>
				<time>2021-04-12T10:16:48+02:00</time>
				<extensions>
					<swisstopo:routepoint_id>1738160577</swisstopo:routepoint_id>
				</extensions>
			</trkpt>
			<trkpt lat="47.0524204904" lon="7.5106829485">
				<ele>524.3</ele>
				<time>2021-04-12T10:16:49+02:00</time>
				<extensions>
					<swisstopo:routepoint_id>1044767498</swisstopo:routepoint_id>
				</extensions>
			</trkpt>
			<trkpt lat="47.0525336733" lon="7.5107694527">
				<ele>524.5</ele>
				<time>2021-04-12T10:16:50+02:00</time>
				<extensions>
					<swisstopo:routepoint_id>1581041014</swisstopo:routepoint_id>
				</extensions>
			</trkpt>
			<trkpt lat="47.0526486915" lon="7.5108560696">
				<ele>524.7</ele>
				<time>2021-04-12T10:16:51+02:00</time>
				<extensions>
					<swisstopo:routepoint_id>1741157967</swisstopo:routepoint_id>
				</extensions>
			</trkpt>
			<trkpt lat="47.0527624591" lon="7.5109418274">
				<ele>525.1</ele>
				<time>2021-04-12T10:16:52+02:00</time>
				<extensions>
					<swisstopo:routepoint_id>2029777347</swisstopo:routepoint_id>
				</extensions>
			</trkpt>
			<trkpt lat="47.0528728422" lon="7.5110255931">
				<ele>525.4</ele>
				<time>2021-04-12T10:16:53+02:00</time>
				<extensions>
					<swisstopo:routepoint_id>1690138434</swisstopo:routepoint_id>
				</extensions>
			</trkpt>
			<trkpt lat="47.0529776411" lon="7.5111058623">
				<ele>525.8</ele>
				<time>2021-04-12T10:16:54+02:00</time>
				<extensions>
					<swisstopo:routepoint_id>1390461369</swisstopo:routepoint_id>
				</extensions>
			</trkpt>
			<trkpt lat="47.0530754253" lon="7.5111816065">
				<ele>526.1</ele>
				<time>2021-04-12T10:16:55+02:00</time>
				<extensions>
					<swisstopo:routepoint_id>567182129</swisstopo:routepoint_id>
				</extensions>
			</trkpt>
			<trkpt lat="47.0531651606" lon="7.5112523856">
				<ele>526.4</ele>
				<time>2021-04-12T10:16:56+02:00</time>
				<extensions>
					<swisstopo:routepoint_id>2097616717</swisstopo:routepoint_id>
				</extensions>
			</trkpt>
			<trkpt lat="47.0532463896" lon="7.5113165839">
				<ele>526.7</ele>
				<time>2021-04-12T10:16:57+02:00</time>
				<extensions>
					<swisstopo:routepoint_id>1552613467</swisstopo:routepoint_id>
				</extensions>
			</trkpt>
			<trkpt lat="47.0533189118" lon="7.5113727561">
				<ele>526.9</ele>
				<time>2021-04-12T10:16:58+02:00</time>
				<extensions>
					<swisstopo:routepoint_id>700745172</swisstopo:routepoint_id>
				</extensions>
			</trkpt>
			<trkpt lat="47.0533828546" lon="7.5114214186">
				<ele>527.2</ele>
				<time>2021-04-12T10:16:59+02:00</time>
				<extensions>
					<swisstopo:routepoint_id>623785656</swisstopo:routepoint_id>
				</extensions>
			</trkpt>
			<trkpt lat="47.0534400311" lon="7.5114626599">
				<ele>527.5</ele>
				<time>2021-04-12T10:17:00+02:00</time>
				<extensions>
					<swisstopo:routepoint_id>2097839385</swisstopo:routepoint_id>
				</extensions>
			</trkpt>
			<trkpt lat="47.0534921505" lon="7.5114970673">
				<ele>527.7</ele>
				<time>2021-04-12T10:17:01+02:00</time>
				<extensions>
					<swisstopo:routepoint_id>1000027249</swisstopo:routepoint_id>
				</extensions>
			</trkpt>
			<trkpt lat="47.0535405971" lon="7.5115253917">
				<ele>527.9</ele>
				<time>2021-04-12T10:17:02+02:00</time>
				<extensions>
					<swisstopo:routepoint_id>1250952521</swisstopo:routepoint_id>
				</extensions>
			</trkpt>
			<trkpt lat="47.0535856573" lon="7.5115491365">
				<ele>528.1</ele>
				<time>2021-04-12T10:17:03+02:00</time>
				<extensions>
					<swisstopo:routepoint_id>894116317</swisstopo:routepoint_id>
				</extensions>
			</trkpt>
			<trkpt lat="47.0536263116" lon="7.5115699259">
				<ele>528.3</ele>
				<time>2021-04-12T10:17:04+02:00</time>
				<extensions>
					<swisstopo:routepoint_id>1469861760</swisstopo:routepoint_id>
				</extensions>
			</trkpt>
			<trkpt lat="47.0536607798" lon="7.5115878863">
				<ele>528.4</ele>
				<time>2021-04-12T10:17:05+02:00</time>
				<extensions>
					<swisstopo:routepoint_id>1462208879</swisstopo:routepoint_id>
				</extensions>
			</trkpt>
			<trkpt lat="47.0536885193" lon="7.5116023935">
				<ele>528.5</ele>
				<time>2021-04-12T10:17:06+02:00</time>
				<extensions>
					<swisstopo:routepoint_id>1689256732</swisstopo:routepoint_id>
				</extensions>
			</trkpt>
			<trkpt lat="47.0537094533" lon="7.5116128639">
				<ele>528.6</ele>
				<time>2021-04-12T10:17:07+02:00</time>
				<extensions>
					<swisstopo:routepoint_id>1604081384</swisstopo:routepoint_id>
				</extensions>
			</trkpt>
			<trkpt lat="47.0537233914" lon="7.5116192629">
				<ele>528.6</ele>
				<time>2021-04-12T10:17:08+02:00</time>
				<extensions>
					<swisstopo:routepoint_id>286116450</swisstopo:routepoint_id>
				</extensions>
			</trkpt>
			<trkpt lat="47.0537314197" lon="7.5116216773">
				<ele>528.7</ele>
				<time>2021-04-12T10:17:09+02:00</time>
				<extensions>
					<swisstopo:routepoint_id>543289517</swisstopo:routepoint_id>
				</extensions>
			</trkpt>
			<trkpt lat="47.0537345114" lon="7.5116207340">
				<ele>528.7</ele>
				<time>2021-04-12T10:17:10+02:00</time>
				<extensions>
					<swisstopo:routepoint_id>2113928822</swisstopo:routepoint_id>
				</extensions>
			</trkpt>
			<trkpt lat="47.0537337171" lon="7.5116171015">
				<ele>528.7</ele>
				<time>2021-04-12T10:17:11+02:00</time>
				<extensions>
					<swisstopo:routepoint_id>832255386</swisstopo:routepoint_id>
				</extensions>
			</trkpt>
			<trkpt lat="47.0537298837" lon="7.5116115795">
				<ele>528.7</ele>
				<time>2021-04-12T10:17:12+02:00</time>
				<extensions>
					<swisstopo:routepoint_id>1155279591</swisstopo:routepoint_id>
				</extensions>
			</trkpt>
			<trkpt lat="47.0537240770" lon="7.5116048616">
				<ele>528.7</ele>
				<time>2021-04-12T10:17:13+02:00</time>
				<extensions>
					<swisstopo:routepoint_id>1384433410</swisstopo:routepoint_id>
				</extensions>
			</trkpt>
			<trkpt lat="47.0537170392" lon="7.5115975884">
				<ele>528.7</ele>
				<time>2021-04-12T10:17:14+02:00</time>
				<extensions>
					<swisstopo:routepoint_id>187006625</swisstopo:routepoint_id>
				</extensions>
			</trkpt>
			<trkpt lat="47.0537094977" lon="7.5115908154">
				<ele>528.7</ele>
				<time>2021-04-12T10:17:15+02:00</time>
				<extensions>
					<swisstopo:routepoint_id>1251770814</swisstopo:routepoint_id>
				</extensions>
			</trkpt>
			<trkpt lat="47.0537023609" lon="7.5115849290">
				<ele>528.7</ele>
				<time>2021-04-12T10:17:16+02:00</time>
				<extensions>
					<swisstopo:routepoint_id>1762264886</swisstopo:routepoint_id>
				</extensions>
			</trkpt>
			<trkpt lat="47.0536967958" lon="7.5115804018">
				<ele>528.7</ele>
				<time>2021-04-12T10:17:17+02:00</time>
				<extensions>
					<swisstopo:routepoint_id>291479578</swisstopo:routepoint_id>
				</extensions>
			</trkpt>
			<trkpt lat="47.0536933148" lon="7.5115779149">
				<ele>528.6</ele>
				<time>2021-04-12T10:17:18+02:00</time>
				<extensions>
					<swisstopo:routepoint_id>487068639</swisstopo:routepoint_id>
				</extensions>
			</trkpt>
			<trkpt lat="47.0536922192" lon="7.5115779961">
				<ele>528.6</ele>
				<time>2021-04-12T10:17:19+02:00</time>
				<extensions>
					<swisstopo:routepoint_id>2102436956</swisstopo:routepoint_id>
				</extensions>
			</trkpt>
			<trkpt lat="47.0536941604" lon="7.5115809305">
				<ele>528.6</ele>
				<time>2021-04-12T10:17:20+02:00</time>
				<extensions>
					<swisstopo:routepoint_id>961991754</swisstopo:routepoint_id>
				</extensions>
			</trkpt>
			<trkpt lat="47.0536995022" lon="7.5115869334">
				<ele>528.6</ele>
				<time>2021-04-12T10:17:21+02:00</time>
				<extensions>
					<swisstopo:routepoint_id>1938514862</swisstopo:routepoint_id>
				</extensions>
			</trkpt>
			<trkpt lat="47.0537081396" lon="7.5115956377">
				<ele>528.7</ele>
				<time>2021-04-12T10:17:22+02:00</time>
				<extensions>
					<swisstopo:routepoint_id>1144876997</swisstopo:routepoint_id>
				</extensions>
			</trkpt>
			<trkpt lat="47.0537198432" lon="7.5116068758">
				<ele>528.7</ele>
				<time>2021-04-12T10:17:23+02:00</time>
				<extensions>
					<swisstopo:routepoint_id>494211459</swisstopo:routepoint_id>
				</extensions>
			</trkpt>
			<trkpt lat="47.0537344334" lon="7.5116200353">
				<ele>528.7</ele>
				<time>2021-04-12T10:17:24+02:00</time>
				<extensions>
					<swisstopo:routepoint_id>1892728464</swisstopo:routepoint_id>
				</extensions>
			</trkpt>
			<trkpt lat="47.0537513683" lon="7.5116348174">
				<ele>528.7</ele>
				<time>2021-04-12T10:17:25+02:00</time>
				<extensions>
					<swisstopo:routepoint_id>412031437</swisstopo:routepoint_id>
				</extensions>
			</trkpt>
			<trkpt lat="47.0537702323" lon="7.5116509215">
				<ele>528.8</ele>
				<time>2021-04-12T10:17:26+02:00</time>
				<extensions>
					<swisstopo:routepoint_id>1525083731</swisstopo:routepoint_id>
				</extensions>
			</trkpt>
			<trkpt lat="47.0537911594" lon="7.5116686744">
				<ele>528.8</ele>
				<time>2021-04-12T10:17:27+02:00</time>
				<extensions>
					<swisstopo:routepoint_id>1864939972</swisstopo:routepoint_id>
				</extensions>
			</trkpt>
			<trkpt lat="47.0538153452" lon="7.5116890114">
				<ele>528.8</ele>
				<time>2021-04-12T10:17:28+02:00</time>
				<extensions>
					<swisstopo:routepoint_id>1522281439</swisstopo:routepoint_id>
				</extensions>
			</trkpt>
			<trkpt lat="47.0538444404" lon="7.5117132985">
				<ele>528.9</ele>
				<time>2021-04-12T10:17:29+02:00</time>
				<extensions>
					<swisstopo:routepoint_id>2011458562</swisstopo:routepoint_id>
				</extensions>
			</trkpt>
			<trkpt lat="47.0538798931" lon="7.5117424134">
				<ele>529.0</ele>
				<time>2021-04-12T10:17:30+02:00</time>
				<extensions>
					<swisstopo:routepoint_id>896480460</swisstopo:routepoint_id>
				</extensions>
			</trkpt>
			<trkpt lat="47.0539223921" lon="7.5117774771">
				<ele>529.0</ele>
				<time>2021-04-12T10:17:31+02:00</time>
				<extensions>
					<swisstopo:routepoint_id>401823868</swisstopo:routepoint_id>
				</extensions>
			</trkpt>
			<trkpt lat="47.0539720298" lon="7.5118184630">
				<ele>529.1</ele>
				<time>2021-04-12T10:17:32+02:00</time>
				<extensions>
					<swisstopo:routepoint_id>1765163308</swisstopo:routepoint_id>
				</extensions>
			</trkpt>
			<trkpt lat="47.0540289065" lon="7.5118645087">
				<ele>529.2</ele>
				<time>2021-04-12T10:17:33+02:00</time>
				<extensions>
					<swisstopo:routepoint_id>1760617898</swisstopo:routepoint_id>
				</extensions>
			</trkpt>
			<trkpt lat="47.0540925217" lon="7.5119139242">
				<ele>529.3</ele>
				<time>2021-04-12T10:17:34+02:00</time>
				<extensions>
					<swisstopo:routepoint_id>527839673</swisstopo:routepoint_id>
				</extensions>
			</trkpt>
			<trkpt lat="47.0541621130" lon="7.5119647523">
				<ele>529.3</ele>
				<time>2021-04-12T10:17:35+02:00</time>
				<extensions>
					<swisstopo:routepoint_id>146438354</swisstopo:routepoint_id>
				</extensions>
			</trkpt>
			<trkpt lat="47.0542369107" lon="7.5120149274">
				<ele>529.4</ele>
				<time>2021-04-12T10:17:36+02:00</time>
				<extensions>
					<swisstopo:routepoint_id>173156216</swisstopo:routepoint_id>
				</extensions>
			</trkpt>
			<trkpt lat="47.0543165720" lon="7.5120627011">
				<ele>529.4</ele>
				<time>2021-04-12T10:17:37+02:00</time>
				<extensions>
					<swisstopo:routepoint_id>396180627</swisstopo:routepoint_id>
				</extensions>
			</trkpt>
			<trkpt lat="47.0544008418" lon="7.5121064707">
				<ele>529.5</ele>
				<time>2021-04-12T10:17:38+02:00</time>
				<extensions>
					<swisstopo:routepoint_id>1408492289</swisstopo:routepoint_id>
				</extensions>
			</trkpt>
			<trkpt lat="47.0544896114" lon="7.5121456936">
				<ele>529.5</ele>
				<time>2021-04-12T10:17:39+02:00</time>
				<extensions>
					<swisstopo:routepoint_id>817660342</swisstopo:routepoint_id>
				</extensions>
			</trkpt>
			<trkpt lat="47.0545828144" lon="7.5121792221">
				<ele>529.6</ele>
				<time>2021-04-12T10:17:40+02:00</time>
				<extensions>
					<swisstopo:routepoint_id>669510841</swisstopo:routepoint_id>
				</extensions>
			</trkpt>
			<trkpt lat="47.0546803061" lon="7.5122058454">
				<ele>529.6</ele>
				<time>2021-04-12T10:17:41+02:00</time>
				<extensions>
					<swisstopo:routepoint_id>1801878054</swisstopo:routepoint_id>
				</extensions>
			</trkpt>
			<trkpt lat="47.0547815882" lon="7.5122250924">
				<ele>529.7</ele>
				<time>2021-04-12T10:17:42+02:00</time>
				<extensions>
					<swisstopo:routepoint_id>350063584</swisstopo:routepoint_id>
				</extensions>
			</trkpt>
			<trkpt lat="47.0548859970" lon="7.5122357241">
				<ele>529.7</ele>
				<time>2021-04-12T10:17:43+02:00</time>
				<extensions>
					<swisstopo:routepoint_id>1560947155</swisstopo:routepoint_id>
				</extensions>
			</trkpt>
			<trkpt lat="47.0549936202" lon="7.5122389039">
				<ele>529.7</ele>
				<time>2021-04-12T10:17:44+02:00</time>
				<extensions>
					<swisstopo:routepoint_id>1178602333</swisstopo:routepoint_id>
				</extensions>
			</trkpt>
			<trkpt lat="47.0551041909" lon="7.5122360906">
				<ele>529.8</ele>
				<time>2021-04-12T10:17:45+02:00</time>
				<extensions>
					<swisstopo:routepoint_id>380250803</swisstopo:routepoint_id>
				</extensions>
			</trkpt>
			<trkpt lat="47.0552173519" lon="7.5122284896">
				<ele>529.8</ele>
				<time>2021-04-12T10:17:46+02:00</time>
				<extensions>
					<swisstopo:routepoint_id>2111396196</swisstopo:routepoint_id>
				</extensions>
			</trkpt>
			<trkpt lat="47.0553326998" lon="7.5122169923">
				<ele>529.9</ele>
				<time>2021-04-12T10:17:47+02:00</time>
				<extensions>
					<swisstopo:routepoint_id>1216083144</swisstopo:routepoint_id>
				</extensions>
			</trkpt>
			<trkpt lat="47.0554502707" lon="7.5122019925">
				<ele>530.0</ele>
				<time>2021-04-12T10:17:48+02:00</time>
				<extensions>
					<swisstopo:routepoint_id>1107532709</swisstopo:routepoint_id>
				</extensions>
			</trkpt>
			<trkpt lat="47.0555699119" lon="7.5121847327">
				<ele>530.1</ele>
				<time>2021-04-12T10:17:49+02:00</time>
				<extensions>
					<swisstopo:routepoint_id>2061471614</swisstopo:routepoint_id>
				</extensions>
			</trkpt>
			<trkpt lat="47.0556909093" lon="7.5121666576">
				<ele>530.3</ele>
				<time>2021-04-12T10:17:50+02:00</time>
				<extensions>
					<swisstopo:routepoint_id>1799739447</swisstopo:routepoint_id>
				</extensions>
			</trkpt>
			<trkpt lat="47.0558128071" lon="7.5121478599">
				<ele>530.5</ele>
				<time>2021-04-12T10:17:51+02:00</time>
				<extensions>
					<swisstopo:routepoint_id>913717734</swisstopo:routepoint_id>
				</extensions>
			</trkpt>
			<trkpt lat="47.0559354325" lon="7.5121275856">
				<ele>530.7</ele>
				<time>2021-04-12T10:17:52+02:00</time>
				<extensions>
					<swisstopo:routepoint_id>198395641</swisstopo:routepoint_id>
				</extensions>
			</trkpt>
			<trkpt lat="47.0560585143" lon="7.5121035321">
				<ele>530.9</ele>
				<time>2021-04-12T10:17:53+02:00</time>
				<extensions>
					<swisstopo:routepoint_id>1540918143</swisstopo:routepoint_id>
				</extensions>
			</trkpt>
			<trkpt lat="47.0561822664" lon="7.5120726696">
				<ele>531.1</ele>
				<time>2021-04-12T10:17:54+02:00</time>
				<extensions>
					<swisstopo:routepoint_id>1705930228</swisstopo:routepoint_id>
				</extensions>
			</trkpt>
			<trkpt lat="47.0563061579" lon="7.5120326052">
				<ele>531.3</ele>
				<time>2021-04-12T10:17:55+02:00</time>
				<extensions>
					<swisstopo:routepoint_id>515170899</swisstopo:routepoint_id>
				</extensions>
			</trkpt>
			<trkpt lat="47.0564290224" lon="7.5119821533">
				<ele>531.6</ele>
				<time>2021-04-12T10:17:56+02:00</time>
				<extensions>
					<swisstopo:routepoint_id>1970718436</swisstopo:routepoint_id>
				</extensions>
			</trkpt>
			<trkpt lat="47.0565499404" lon="7.5119222420">
				<ele>531.9</ele>
				<time>2021-04-12T10:17:57+02:00</time>
				<extensions>
					<swisstopo:routepoint_id>1224466171</swisstopo:routepoint_id>
				</extensions>
			</trkpt>
			<trkpt lat="47.0566682075" lon="7.5118537784">
				<ele>532.3</ele>
				<time>2021-04-12T10:17:58+02:00</time>
				<extensions>
					<swisstopo:routepoint_id>267146796</swisstopo:routepoint_id>
				</extensions>
			</trkpt>
			<trkpt lat="47.0567835123" lon="7.5117785313">
				<ele>532.8</ele>
				<time>2021-04-12T10:17:59+02:00</time>
				<extensions>
					<swisstopo:routepoint_id>1695378142</swisstopo:routepoint_id>
				</extensions>
			</trkpt>
			<trkpt lat="47.0568956668" lon="7.5116988745">
				<ele>533.3</ele>
				<time>2021-04-12T10:18:00+02:00</time>
				<extensions>
					<swisstopo:routepoint_id>1407404198</swisstopo:routepoint_id>
				</extensions>
			</trkpt>
			<trkpt lat="47.0570046549" lon="7.5116160876">
				<ele>533.9</ele>
				<time>2021-04-12T10:18:01+02:00</time>
				<extensions>
					<swisstopo:routepoint_id>1857467728</swisstopo:routepoint_id>
				</extensions>
			</trkpt>
			<trkpt lat="47.0571105014" lon="7.5115306582">
				<ele>534.5</ele>
				<time>2021-04-12T10:18:02+02:00</time>
				<extensions>
					<swisstopo:routepoint_id>490328057</swisstopo:routepoint_id>
				</extensions>
			</trkpt>
			<trkpt lat="47.0572132673" lon="7.5114432041">
				<ele>535.2</ele>
				<time>2021-04-12T10:18:03+02:00</time>
				<extensions>
					<swisstopo:routepoint_id>1048900460</swisstopo:routepoint_id>
				</extensions>
			</trkpt>
			<trkpt lat="47.0573132660" lon="7.5113543986">
				<ele>535.9</ele>
				<time>2021-04-12T10:18:04+02:00</time>
				<extensions>
					<swisstopo:routepoint_id>176772997</swisstopo:routepoint_id>
				</extensions>
			</trkpt>
			<trkpt lat="47.0574107461" lon="7.5112653824">
				<ele>536.6</ele>
				<time>2021-04-12T10:18:05+02:00</time>
				<extensions>
					<swisstopo:routepoint_id>1053876778</swisstopo:routepoint_id>
				</extensions>
			</trkpt>
			<trkpt lat="47.0575062133" lon="7.5111768452">
				<ele>537.2</ele>
				<time>2021-04-12T10:18:06+02:00</time>
				<extensions>
					<swisstopo:routepoint_id>61887390</swisstopo:routepoint_id>
				</extensions>
			</trkpt>
			<trkpt lat="47.0576002034" lon="7.5110895367">
				<ele>537.8</ele>
				<time>2021-04-12T10:18:07+02:00</time>
				<extensions>
					<swisstopo:routepoint_id>759278582</swisstopo:routepoint_id>
				</extensions>
			</trkpt>
			<trkpt lat="47.0576931833" lon="7.5110043469">
				<ele>538.4</ele>
				<time>2021-04-12T10:18:08+02:00</time>
				<extensions>
					<swisstopo:routepoint_id>847297200</swisstopo:routepoint_id>
				</extensions>
			</trkpt>
			<trkpt lat="47.0577854056" lon="7.5109217749">
				<ele>538.9</ele>
				<time>2021-04-12T10:18:09+02:00</time>
				<extensions>
					<swisstopo:routepoint_id>559977143</swisstopo:routepoint_id>
				</extensions>
			</trkpt>
			<trkpt lat="47.0578771588" lon="7.5108427493">
				<ele>539.3</ele>
				<time>2021-04-12T10:18:10+02:00</time>
				<extensions>
					<swisstopo:routepoint_id>1262501247</swisstopo:routepoint_id>
				</extensions>
			</trkpt>
			<trkpt lat="47.0579686143" lon="7.5107677928">
				<ele>539.7</ele>
				<time>2021-04-12T10:18:11+02:00</time>
				<extensions>
					<swisstopo:routepoint_id>1720025969</swisstopo:routepoint_id>
				</extensions>
			</trkpt>
			<trkpt lat="47.0580600922" lon="7.5106968404">
				<ele>540.1</ele>
				<time>2021-04-12T10:18:12+02:00</time>
				<extensions>
					<swisstopo:routepoint_id>1199088716</swisstopo:routepoint_id>
				</extensions>
			</trkpt>
			<trkpt lat="47.0581520094" lon="7.5106303817">
				<ele>540.5</ele>
				<time>2021-04-12T10:18:13+02:00</time>
				<extensions>
					<swisstopo:routepoint_id>1097506364</swisstopo:routepoint_id>
				</extensions>
			</trkpt>
			<trkpt lat="47.0582449839" lon="7.5105690507">
				<ele>540.9</ele>
				<time>2021-04-12T10:18:14+02:00</time>
				<extensions>
					<swisstopo:routepoint_id>1052415665</swisstopo:routepoint_id>
				</extensions>
			</trkpt>
			<trkpt lat="47.0583395952" lon="7.5105143619">
				<ele>541.2</ele>
				<time>2021-04-12T10:18:15+02:00</time>
				<extensions>
					<swisstopo:routepoint_id>1274764963</swisstopo:routepoint_id>
				</extensions>
			</trkpt>
			<trkpt lat="47.0584367216" lon="7.5104669373">
				<ele>541.6</ele>
				<time>2021-04-12T10:18:16+02:00</time>
				<extensions>
					<swisstopo:routepoint_id>1677870669</swisstopo:routepoint_id>
				</extensions>
			</trkpt>
			<trkpt lat="47.0585370123" lon="7.5104264040">
				<ele>541.9</ele>
				<time>2021-04-12T10:18:17+02:00</time>
				<extensions>
					<swisstopo:routepoint_id>1364565126</swisstopo:routepoint_id>
				</extensions>
			</trkpt>
			<trkpt lat="47.0586411848" lon="7.5103922785">
				<ele>542.2</ele>
				<time>2021-04-12T10:18:18+02:00</time>
				<extensions>
					<swisstopo:routepoint_id>1268206369</swisstopo:routepoint_id>
				</extensions>
			</trkpt>
			<trkpt lat="47.0587497484" lon="7.5103625899">
				<ele>542.6</ele>
				<time>2021-04-12T10:18:19+02:00</time>
				<extensions>
					<swisstopo:routepoint_id>969247308</swisstopo:routepoint_id>
				</extensions>
			</trkpt>
			<trkpt lat="47.0588630676" lon="7.5103355425">
				<ele>542.9</ele>
				<time>2021-04-12T10:18:20+02:00</time>
				<extensions>
					<swisstopo:routepoint_id>1476043061</swisstopo:routepoint_id>
				</extensions>
			</trkpt>
			<trkpt lat="47.0589813208" lon="7.5103098476">
				<ele>543.2</ele>
				<time>2021-04-12T10:18:21+02:00</time>
				<extensions>
					<swisstopo:routepoint_id>124636083</swisstopo:routepoint_id>
				</extensions>
			</trkpt>
			<trkpt lat="47.0591042649" lon="7.5102848713">
				<ele>543.6</ele>
				<time>2021-04-12T10:18:22+02:00</time>
				<extensions>
					<swisstopo:routepoint_id>962091156</swisstopo:routepoint_id>
				</extensions>
			</trkpt>
			<trkpt lat="47.0592315794" lon="7.5102601858">
				<ele>544.0</ele>
				<time>2021-04-12T10:18:23+02:00</time>
				<extensions>
					<swisstopo:routepoint_id>1461680629</swisstopo:routepoint_id>
				</extensions>
			</trkpt>
			<trkpt lat="47.0593630705" lon="7.5102355087">
				<ele>544.4</ele>
				<time>2021-04-12T10:18:24+02:00</time>
				<extensions>
					<swisstopo:routepoint_id>1400893570</swisstopo:routepoint_id>
				</extensions>
			</trkpt>
			<trkpt lat="47.0594982673" lon="7.5102109032">
				<ele>544.9</ele>
				<time>2021-04-12T10:18:25+02:00</time>
				<extensions>
					<swisstopo:routepoint_id>1955008929</swisstopo:routepoint_id>
				</extensions>
			</trkpt>
			<trkpt lat="47.0596365521" lon="7.5101861986">
				<ele>545.4</ele>
				<time>2021-04-12T10:18:26+02:00</time>
				<extensions>
					<swisstopo:routepoint_id>1335270603</swisstopo:routepoint_id>
				</extensions>
			</trkpt>
			<trkpt lat="47.0597772512" lon="7.5101616737">
				<ele>545.8</ele>
				<time>2021-04-12T10:18:27+02:00</time>
				<extensions>
					<swisstopo:routepoint_id>688913471</swisstopo:routepoint_id>
				</extensions>
			</trkpt>
			<trkpt lat="47.0599196599" lon="7.5101380601">
				<ele>546.2</ele>
				<time>2021-04-12T10:18:28+02:00</time>
				<extensions>
					<swisstopo:routepoint_id>1484366120</swisstopo:routepoint_id>
				</extensions>
			</trkpt>
			<trkpt lat="47.0600634291" lon="7.5101153256">
				<ele>546.6</ele>
				<time>2021-04-12T10:18:29+02:00</time>
				<extensions>
					<swisstopo:routepoint_id>423851641</swisstopo:routepoint_id>
				</extensions>
			</trkpt>
			<trkpt lat="47.0602101027" lon="7.5100918459">
				<ele>546.9</ele>
				<time>2021-04-12T10:18:31+02:00</time>
				<extensions>
					<swisstopo:routepoint_id>471273188</swisstopo:routepoint_id>
				</extensions>
			</trkpt>
			<trkpt lat="47.0603566891" lon="7.5100674230">
				<ele>547.1</ele>
				<time>2021-04-12T10:18:32+02:00</time>
				<extensions>
					<swisstopo:routepoint_id>768780580</swisstopo:routepoint_id>
				</extensions>
			</trkpt>
			<trkpt lat="47.0605067091" lon="7.5100412125">
				<ele>547.2</ele>
				<time>2021-04-12T10:18:33+02:00</time>
				<extensions>
					<swisstopo:routepoint_id>1633587708</swisstopo:routepoint_id>
				</extensions>
			</trkpt>
			<trkpt lat="47.0606617150" lon="7.5100137982">
				<ele>547.2</ele>
				<time>2021-04-12T10:18:34+02:00</time>
				<extensions>
					<swisstopo:routepoint_id>130181461</swisstopo:routepoint_id>
				</extensions>
			</trkpt>
			<trkpt lat="47.0608225852" lon="7.5099858559">
				<ele>547.2</ele>
				<time>2021-04-12T10:18:35+02:00</time>
				<extensions>
					<swisstopo:routepoint_id>1821462381</swisstopo:routepoint_id>
				</extensions>
			</trkpt>
			<trkpt lat="47.0609894857" lon="7.5099588913">
				<ele>547.1</ele>
				<time>2021-04-12T10:18:36+02:00</time>
				<extensions>
					<swisstopo:routepoint_id>938849482</swisstopo:routepoint_id>
				</extensions>
			</trkpt>
			<trkpt lat="47.0611619000" lon="7.5099348945">
				<ele>547.0</ele>
				<time>2021-04-12T10:18:37+02:00</time>
				<extensions>
					<swisstopo:routepoint_id>1680889465</swisstopo:routepoint_id>
				</extensions>
			</trkpt>
			<trkpt lat="47.0613389752" lon="7.5099167598">
				<ele>546.9</ele>
				<time>2021-04-12T10:18:38+02:00</time>
				<extensions>
					<swisstopo:routepoint_id>561861970</swisstopo:routepoint_id>
				</extensions>
			</trkpt>
			<trkpt lat="47.0615199281" lon="7.5099069498">
				<ele>546.9</ele>
				<time>2021-04-12T10:18:39+02:00</time>
				<extensions>
					<swisstopo:routepoint_id>728533931</swisstopo:routepoint_id>
				</extensions>
			</trkpt>
			<trkpt lat="47.0617042654" lon="7.5099066967">
				<ele>546.8</ele>
				<time>2021-04-12T10:18:40+02:00</time>
				<extensions>
					<swisstopo:routepoint_id>1665506770</swisstopo:routepoint_id>
				</extensions>
			</trkpt>
			<trkpt lat="47.0618913185" lon="7.5099146076">
				<ele>546.7</ele>
				<time>2021-04-12T10:18:41+02:00</time>
				<extensions>
					<swisstopo:routepoint_id>1870428392</swisstopo:routepoint_id>
				</extensions>
			</trkpt>
			<trkpt lat="47.0620806012" lon="7.5099293873">
				<ele>546.6</ele>
				<time>2021-04-12T10:18:42+02:00</time>
				<extensions>
					<swisstopo:routepoint_id>1424359558</swisstopo:routepoint_id>
				</extensions>
			</trkpt>
			<trkpt lat="47.0622715930" lon="7.5099497355">
				<ele>546.4</ele>
				<time>2021-04-12T10:18:43+02:00</time>
				<extensions>
					<swisstopo:routepoint_id>1210878197</swisstopo:routepoint_id>
				</extensions>
			</trkpt>
			<trkpt lat="47.0624636961" lon="7.5099750859">
				<ele>546.1</ele>
				<time>2021-04-12T10:18:44+02:00</time>
				<extensions>
					<swisstopo:routepoint_id>1674818007</swisstopo:routepoint_id>
				</extensions>
			</trkpt>
			<trkpt lat="47.0626566243" lon="7.5100048094">
				<ele>545.8</ele>
				<time>2021-04-12T10:18:45+02:00</time>
				<extensions>
					<swisstopo:routepoint_id>1598082420</swisstopo:routepoint_id>
				</extensions>
			</trkpt>
			<trkpt lat="47.0628498672" lon="7.5100389617">
				<ele>545.5</ele>
				<time>2021-04-12T10:18:46+02:00</time>
				<extensions>
					<swisstopo:routepoint_id>393259911</swisstopo:routepoint_id>
				</extensions>
			</trkpt>
			<trkpt lat="47.0630431575" lon="7.5100774902">
				<ele>545.1</ele>
				<time>2021-04-12T10:18:47+02:00</time>
				<extensions>
					<swisstopo:routepoint_id>1712142358</swisstopo:routepoint_id>
				</extensions>
			</trkpt>
			<trkpt lat="47.0632364663" lon="7.5101201217">
				<ele>544.7</ele>
				<time>2021-04-12T10:18:48+02:00</time>
				<extensions>
					<swisstopo:routepoint_id>1843224753</swisstopo:routepoint_id>
				</extensions>
			</trkpt>
			<trkpt lat="47.0634297935" lon="7.5101665241">
				<ele>544.2</ele>
				<time>2021-04-12T10:18:49+02:00</time>
				<extensions>
					<swisstopo:routepoint_id>1626815696</swisstopo:routepoint_id>
				</extensions>
			</trkpt>
			<trkpt lat="47.0636233752" lon="7.5102161874">
				<ele>543.7</ele>
				<time>2021-04-12T10:18:50+02:00</time>
				<extensions>
					<swisstopo:routepoint_id>129609068</swisstopo:routepoint_id>
				</extensions>
			</trkpt>
			<trkpt lat="47.0638174852" lon="7.5102681562">
				<ele>543.2</ele>
				<time>2021-04-12T10:18:51+02:00</time>
				<extensions>
					<swisstopo:routepoint_id>791187818</swisstopo:routepoint_id>
				</extensions>
			</trkpt>
			<trkpt lat="47.0640123400" lon="7.5103220288">
				<ele>542.7</ele>
				<time>2021-04-12T10:18:52+02:00</time>
				<extensions>
					<swisstopo:routepoint_id>274914902</swisstopo:routepoint_id>
				</extensions>
			</trkpt>
			<trkpt lat="47.0642081277" lon="7.5103773015">
				<ele>542.1</ele>
				<time>2021-04-12T10:18:53+02:00</time>
				<extensions>
					<swisstopo:routepoint_id>1257433217</swisstopo:routepoint_id>
				</extensions>
			</trkpt>
			<trkpt lat="47.0644047606" lon="7.5104338671">
				<ele>541.4</ele>
				<time>2021-04-12T10:18:54+02:00</time>
				<extensions>
					<swisstopo:routepoint_id>293507992</swisstopo:routepoint_id>
				</extensions>
			</trkpt>
			<trkpt lat="47.0646023486" lon="7.5104914076">
				<ele>540.8</ele>
				<time>2021-04-12T10:18:55+02:00</time>
				<extensions>
					<swisstopo:routepoint_id>218884385</swisstopo:routepoint_id>
				</extensions>
			</trkpt>
			<trkpt lat="47.0648002449" lon="7.5105495907">
				<ele>540.2</ele>
				<time>2021-04-12T10:18:55+02:00</time>
				<extensions>
					<swisstopo:routepoint_id>150371384</swisstopo:routepoint_id>
				</extensions>
			</trkpt>
			<trkpt lat="47.0649981128" lon="7.5106084306">
				<ele>539.5</ele>
				<time>2021-04-12T10:18:56+02:00</time>
				<extensions>
					<swisstopo:routepoint_id>1851082016</swisstopo:routepoint_id>
				</extensions>
			</trkpt>
			<trkpt lat="47.0651956520" lon="7.5106677973">
				<ele>538.9</ele>
				<time>2021-04-12T10:18:57+02:00</time>
				<extensions>
					<swisstopo:routepoint_id>539848823</swisstopo:routepoint_id>
				</extensions>
			</trkpt>
			<trkpt lat="47.0653930751" lon="7.5107274921">
				<ele>538.3</ele>
				<time>2021-04-12T10:18:58+02:00</time>
				<extensions>
					<swisstopo:routepoint_id>120759586</swisstopo:routepoint_id>
				</extensions>
			</trkpt>
			<trkpt lat="47.0655900607" lon="7.5107869973">
				<ele>537.8</ele>
				<time>2021-04-12T10:18:59+02:00</time>
				<extensions>
					<swisstopo:routepoint_id>234315487</swisstopo:routepoint_id>
				</extensions>
			</trkpt>
			<trkpt lat="47.0657862070" lon="7.5108462652">
				<ele>537.4</ele>
				<time>2021-04-12T10:19:00+02:00</time>
				<extensions>
					<swisstopo:routepoint_id>1802865058</swisstopo:routepoint_id>
				</extensions>
			</trkpt>
			<trkpt lat="47.0659813737" lon="7.5109051873">
				<ele>537.2</ele>
				<time>2021-04-12T10:19:01+02:00</time>
				<extensions>
					<swisstopo:routepoint_id>1906254283</swisstopo:routepoint_id>
				</extensions>
			</trkpt>
			<trkpt lat="47.0661755978" lon="7.5109632254">
				<ele>537.1</ele>
				<time>2021-04-12T10:19:02+02:00</time>
				<extensions>
					<swisstopo:routepoint_id>107204788</swisstopo:routepoint_id>
				</extensions>
			</trkpt>
			<trkpt lat="47.0663678236" lon="7.5110207981">
				<ele>537.1</ele>
				<time>2021-04-12T10:19:03+02:00</time>
				<extensions>
					<swisstopo:routepoint_id>52092083</swisstopo:routepoint_id>
				</extensions>
			</trkpt>
			<trkpt lat="47.0665580824" lon="7.5110774998">
				<ele>537.2</ele>
				<time>2021-04-12T10:19:04+02:00</time>
				<extensions>
					<swisstopo:routepoint_id>1485794652</swisstopo:routepoint_id>
				</extensions>
			</trkpt>
			<trkpt lat="47.0667468359" lon="7.5111324020">
				<ele>537.5</ele>
				<time>2021-04-12T10:19:05+02:00</time>
				<extensions>
					<swisstopo:routepoint_id>810868848</swisstopo:routepoint_id>
				</extensions>
			</trkpt>
			<trkpt lat="47.0669344047" lon="7.5111845415">
				<ele>537.9</ele>
				<time>2021-04-12T10:19:06+02:00</time>
				<extensions>
					<swisstopo:routepoint_id>341504474</swisstopo:routepoint_id>
				</extensions>
			</trkpt>
			<trkpt lat="47.0671199317" lon="7.5112329263">
				<ele>538.6</ele>
				<time>2021-04-12T10:19:07+02:00</time>
				<extensions>
					<swisstopo:routepoint_id>1589389734</swisstopo:routepoint_id>
				</extensions>
			</trkpt>
			<trkpt lat="47.0673036227" lon="7.5112770946">
				<ele>539.5</ele>
				<time>2021-04-12T10:19:08+02:00</time>
				<extensions>
					<swisstopo:routepoint_id>324174305</swisstopo:routepoint_id>
				</extensions>
			</trkpt>
			<trkpt lat="47.0674871398" lon="7.5113153774">
				<ele>540.5</ele>
				<time>2021-04-12T10:19:09+02:00</time>
				<extensions>
					<swisstopo:routepoint_id>231531696</swisstopo:routepoint_id>
				</extensions>
			</trkpt>
			<trkpt lat="47.0676686173" lon="7.5113482628">
				<ele>541.7</ele>
				<time>2021-04-12T10:19:10+02:00</time>
				<extensions>
					<swisstopo:routepoint_id>112846308</swisstopo:routepoint_id>
				</extensions>
			</trkpt>
			<trkpt lat="47.0678461378" lon="7.5113768652">
				<ele>542.9</ele>
				<time>2021-04-12T10:19:11+02:00</time>
				<extensions>
					<swisstopo:routepoint_id>379838255</swisstopo:routepoint_id>
				</extensions>
			</trkpt>
			<trkpt lat="47.0680215414" lon="7.5114008579">
				<ele>544.2</ele>
				<time>2021-04-12T10:19:12+02:00</time>
				<extensions>
					<swisstopo:routepoint_id>1620152901</swisstopo:routepoint_id>
				</extensions>
			</trkpt>
			<trkpt lat="47.0681946284" lon="7.5114205273">
				<ele>545.3</ele>
				<time>2021-04-12T10:19:13+02:00</time>
				<extensions>
					<swisstopo:routepoint_id>1964646794</swisstopo:routepoint_id>
				</extensions>
			</trkpt>
			<trkpt lat="47.0683661984" lon="7.5114358893">
				<ele>546.3</ele>
				<time>2021-04-12T10:19:14+02:00</time>
				<extensions>
					<swisstopo:routepoint_id>110110486</swisstopo:routepoint_id>
				</extensions>
			</trkpt>
			<trkpt lat="47.0685377794" lon="7.5114464973">
				<ele>547.1</ele>
				<time>2021-04-12T10:19:15+02:00</time>
				<extensions>
					<swisstopo:routepoint_id>1643518135</swisstopo:routepoint_id>
				</extensions>
			</trkpt>
			<trkpt lat="47.0687094096" lon="7.5114531592">
				<ele>547.6</ele>
				<time>2021-04-12T10:19:16+02:00</time>
				<extensions>
					<swisstopo:routepoint_id>1674627231</swisstopo:routepoint_id>
				</extensions>
			</trkpt>
			<trkpt lat="47.0688841869" lon="7.5114573185">
				<ele>548.0</ele>
				<time>2021-04-12T10:19:17+02:00</time>
				<extensions>
					<swisstopo:routepoint_id>539193835</swisstopo:routepoint_id>
				</extensions>
			</trkpt>
			<trkpt lat="47.0690624197" lon="7.5114604710">
				<ele>548.2</ele>
				<time>2021-04-12T10:19:18+02:00</time>
				<extensions>
					<swisstopo:routepoint_id>1997278152</swisstopo:routepoint_id>
				</extensions>
			</trkpt>
			<trkpt lat="47.0692433438" lon="7.5114630590">
				<ele>548.2</ele>
				<time>2021-04-12T10:19:19+02:00</time>
				<extensions>
					<swisstopo:routepoint_id>937014407</swisstopo:routepoint_id>
				</extensions>
			</trkpt>
			<trkpt lat="47.0694288929" lon="7.5114661165">
				<ele>547.9</ele>
				<time>2021-04-12T10:19:20+02:00</time>
				<extensions>
					<swisstopo:routepoint_id>903554998</swisstopo:routepoint_id>
				</extensions>
			</trkpt>
			<trkpt lat="47.0696188295" lon="7.5114709072">
				<ele>547.6</ele>
				<time>2021-04-12T10:19:21+02:00</time>
				<extensions>
					<swisstopo:routepoint_id>1191983449</swisstopo:routepoint_id>
				</extensions>
			</trkpt>
			<trkpt lat="47.0698105800" lon="7.5114799272">
				<ele>547.2</ele>
				<time>2021-04-12T10:19:22+02:00</time>
				<extensions>
					<swisstopo:routepoint_id>1938368127</swisstopo:routepoint_id>
				</extensions>
			</trkpt>
			<trkpt lat="47.0700027119" lon="7.5114947839">
				<ele>546.8</ele>
				<time>2021-04-12T10:19:23+02:00</time>
				<extensions>
					<swisstopo:routepoint_id>826185499</swisstopo:routepoint_id>
				</extensions>
			</trkpt>
			<trkpt lat="47.0701938125" lon="7.5115157511">
				<ele>546.3</ele>
				<time>2021-04-12T10:19:24+02:00</time>
				<extensions>
					<swisstopo:routepoint_id>70420191</swisstopo:routepoint_id>
				</extensions>
			</trkpt>
			<trkpt lat="47.0703838349" lon="7.5115419995">
				<ele>545.9</ele>
				<time>2021-04-12T10:19:25+02:00</time>
				<extensions>
					<swisstopo:routepoint_id>288660640</swisstopo:routepoint_id>
				</extensions>
			</trkpt>
			<trkpt lat="47.0705723760" lon="7.5115727985">
				<ele>545.5</ele>
				<time>2021-04-12T10:19:26+02:00</time>
				<extensions>
					<swisstopo:routepoint_id>353817907</swisstopo:routepoint_id>
				</extensions>
			</trkpt>
			<trkpt lat="47.0707587788" lon="7.5116070788">
				<ele>545.1</ele>
				<time>2021-04-12T10:19:27+02:00</time>
				<extensions>
					<swisstopo:routepoint_id>235344406</swisstopo:routepoint_id>
				</extensions>
			</trkpt>
			<trkpt lat="47.0709430574" lon="7.5116440879">
				<ele>544.8</ele>
				<time>2021-04-12T10:19:28+02:00</time>
				<extensions>
					<swisstopo:routepoint_id>1916037515</swisstopo:routepoint_id>
				</extensions>
			</trkpt>
			<trkpt lat="47.0711248284" lon="7.5116829608">
				<ele>544.5</ele>
				<time>2021-04-12T10:19:29+02:00</time>
				<extensions>
					<swisstopo:routepoint_id>1325227840</swisstopo:routepoint_id>
				</extensions>
			</trkpt>
			<trkpt lat="47.0713039426" lon="7.5117228284">
				<ele>544.3</ele>
				<time>2021-04-12T10:19:30+02:00</time>
				<extensions>
					<swisstopo:routepoint_id>1551403843</swisstopo:routepoint_id>
				</extensions>
			</trkpt>
			<trkpt lat="47.0714799982" lon="7.5117628729">
				<ele>544.1</ele>
				<time>2021-04-12T10:19:31+02:00</time>
				<extensions>
					<swisstopo:routepoint_id>1845431074</swisstopo:routepoint_id>
				</extensions>
			</trkpt>
			<trkpt lat="47.0716527444" lon="7.5118027642">
				<ele>544.0</ele>
				<time>2021-04-12T10:19:32+02:00</time>
				<extensions>
					<swisstopo:routepoint_id>53747097</swisstopo:routepoint_id>
				</extensions>
			</trkpt>
			<trkpt lat="47.0718224052" lon="7.5118425055">
				<ele>543.9</ele>
				<time>2021-04-12T10:19:33+02:00</time>
				<extensions>
					<swisstopo:routepoint_id>1384327539</swisstopo:routepoint_id>
				</extensions>
			</trkpt>
			<trkpt lat="47.0719889517" lon="7.5118822087">
				<ele>543.7</ele>
				<time>2021-04-12T10:19:34+02:00</time>
				<extensions>
					<swisstopo:routepoint_id>555116375</swisstopo:routepoint_id>
				</extensions>
			</trkpt>
			<trkpt lat="47.0721521939" lon="7.5119217782">
				<ele>543.6</ele>
				<time>2021-04-12T10:19:35+02:00</time>
				<extensions>
					<swisstopo:routepoint_id>1171952057</swisstopo:routepoint_id>
				</extensions>
			</trkpt>
			<trkpt lat="47.0723116703" lon="7.5119604126">
				<ele>543.5</ele>
				<time>2021-04-12T10:19:36+02:00</time>
				<extensions>
					<swisstopo:routepoint_id>278211715</swisstopo:routepoint_id>
				</extensions>
			</trkpt>
			<trkpt lat="47.0724668258" lon="7.5119978483">
				<ele>543.4</ele>
				<time>2021-04-12T10:19:37+02:00</time>
				<extensions>
					<swisstopo:routepoint_id>832394486</swisstopo:routepoint_id>
				</extensions>
			</trkpt>
			<trkpt lat="47.0726170858" lon="7.5120340290">
				<ele>543.3</ele>
				<time>2021-04-12T10:19:38+02:00</time>
				<extensions>
					<swisstopo:routepoint_id>1345649644</swisstopo:routepoint_id>
				</extensions>
			</trkpt>
			<trkpt lat="47.0727617559" lon="7.5120690854">
				<ele>543.2</ele>
				<time>2021-04-12T10:19:39+02:00</time>
				<extensions>
					<swisstopo:routepoint_id>1183280151</swisstopo:routepoint_id>
				</extensions>
			</trkpt>
			<trkpt lat="47.0729003281" lon="7.5121023350">
				<ele>543.1</ele>
				<time>2021-04-12T10:19:40+02:00</time>
				<extensions>
					<swisstopo:routepoint_id>1690926637</swisstopo:routepoint_id>
				</extensions>
			</trkpt>
			<trkpt lat="47.0730331601" lon="7.5121329643">
				<ele>543.0</ele>
				<time>2021-04-12T10:19:41+02:00</time>
				<extensions>
					<swisstopo:routepoint_id>1752887308</swisstopo:routepoint_id>
				</extensions>
			</trkpt>
			<trkpt lat="47.0731602152" lon="7.5121605882">
				<ele>542.8</ele>
				<time>2021-04-12T10:19:42+02:00</time>
				<extensions>
					<swisstopo:routepoint_id>1596316010</swisstopo:routepoint_id>
				</extensions>
			</trkpt>
			<trkpt lat="47.0732823140" lon="7.5121839636">
				<ele>542.7</ele>
				<time>2021-04-12T10:19:43+02:00</time>
				<extensions>
					<swisstopo:routepoint_id>769978099</swisstopo:routepoint_id>
				</extensions>
			</trkpt>
			<trkpt lat="47.0734003287" lon="7.5122013102">
				<ele>542.5</ele>
				<time>2021-04-12T10:19:44+02:00</time>
				<extensions>
					<swisstopo:routepoint_id>285453071</swisstopo:routepoint_id>
				</extensions>
			</trkpt>
			<trkpt lat="47.0735148478" lon="7.5122115589">
				<ele>542.3</ele>
				<time>2021-04-12T10:19:45+02:00</time>
				<extensions>
					<swisstopo:routepoint_id>131296899</swisstopo:routepoint_id>
				</extensions>
			</trkpt>
			<trkpt lat="47.0736271860" lon="7.5122155294">
				<ele>542.1</ele>
				<time>2021-04-12T10:19:46+02:00</time>
				<extensions>
					<swisstopo:routepoint_id>1241276024</swisstopo:routepoint_id>
				</extensions>
			</trkpt>
			<trkpt lat="47.0737383062" lon="7.5122133824">
				<ele>541.8</ele>
				<time>2021-04-12T10:19:47+02:00</time>
				<extensions>
					<swisstopo:routepoint_id>1469988410</swisstopo:routepoint_id>
				</extensions>
			</trkpt>
			<trkpt lat="47.0738490021" lon="7.5122052721">
				<ele>541.5</ele>
				<time>2021-04-12T10:19:48+02:00</time>
				<extensions>
					<swisstopo:routepoint_id>1443331782</swisstopo:routepoint_id>
				</extensions>
			</trkpt>
			<trkpt lat="47.0739599608" lon="7.5121912808">
				<ele>541.2</ele>
				<time>2021-04-12T10:19:49+02:00</time>
				<extensions>
					<swisstopo:routepoint_id>101983562</swisstopo:routepoint_id>
				</extensions>
			</trkpt>
			<trkpt lat="47.0740715697" lon="7.5121708447">
				<ele>540.7</ele>
				<time>2021-04-12T10:19:50+02:00</time>
				<extensions>
					<swisstopo:routepoint_id>345776228</swisstopo:routepoint_id>
				</extensions>
			</trkpt>
			<trkpt lat="47.0741845326" lon="7.5121446885">
				<ele>540.2</ele>
				<time>2021-04-12T10:19:51+02:00</time>
				<extensions>
					<swisstopo:routepoint_id>370315214</swisstopo:routepoint_id>
				</extensions>
			</trkpt>
			<trkpt lat="47.0742992269" lon="7.5121136108">
				<ele>539.6</ele>
				<time>2021-04-12T10:19:52+02:00</time>
				<extensions>
					<swisstopo:routepoint_id>480192692</swisstopo:routepoint_id>
				</extensions>
			</trkpt>
			<trkpt lat="47.0744155307" lon="7.5120786734">
				<ele>539.0</ele>
				<time>2021-04-12T10:19:53+02:00</time>
				<extensions>
					<swisstopo:routepoint_id>355029018</swisstopo:routepoint_id>
				</extensions>
			</trkpt>
			<trkpt lat="47.0745334206" lon="7.5120411728">
				<ele>538.3</ele>
				<time>2021-04-12T10:19:54+02:00</time>
				<extensions>
					<swisstopo:routepoint_id>1263134160</swisstopo:routepoint_id>
				</extensions>
			</trkpt>
			<trkpt lat="47.0746532007" lon="7.5120020033">
				<ele>537.6</ele>
				<time>2021-04-12T10:19:55+02:00</time>
				<extensions>
					<swisstopo:routepoint_id>1619976525</swisstopo:routepoint_id>
				</extensions>
			</trkpt>
			<trkpt lat="47.0747743397" lon="7.5119617676">
				<ele>536.9</ele>
				<time>2021-04-12T10:19:56+02:00</time>
				<extensions>
					<swisstopo:routepoint_id>1147779009</swisstopo:routepoint_id>
				</extensions>
			</trkpt>
			<trkpt lat="47.0748963237" lon="7.5119208348">
				<ele>536.3</ele>
				<time>2021-04-12T10:19:57+02:00</time>
				<extensions>
					<swisstopo:routepoint_id>2023686909</swisstopo:routepoint_id>
				</extensions>
			</trkpt>
			<trkpt lat="47.0750184250" lon="7.5118797083">
				<ele>535.6</ele>
				<time>2021-04-12T10:19:58+02:00</time>
				<extensions>
					<swisstopo:routepoint_id>259878377</swisstopo:routepoint_id>
				</extensions>
			</trkpt>
			<trkpt lat="47.0751402923" lon="7.5118387922">
				<ele>534.9</ele>
				<time>2021-04-12T10:19:59+02:00</time>
				<extensions>
					<swisstopo:routepoint_id>1941627888</swisstopo:routepoint_id>
				</extensions>
			</trkpt>
			<trkpt lat="47.0752623894" lon="7.5117982522">
				<ele>534.2</ele>
				<time>2021-04-12T10:20:00+02:00</time>
				<extensions>
					<swisstopo:routepoint_id>1925897451</swisstopo:routepoint_id>
				</extensions>
			</trkpt>
			<trkpt lat="47.0753845214" lon="7.5117582060">
				<ele>533.6</ele>
				<time>2021-04-12T10:20:01+02:00</time>
				<extensions>
					<swisstopo:routepoint_id>1684931373</swisstopo:routepoint_id>
				</extensions>
			</trkpt>
			<trkpt lat="47.0755062869" lon="7.5117186681">
				<ele>533.0</ele>
				<time>2021-04-12T10:20:02+02:00</time>
				<extensions>
					<swisstopo:routepoint_id>1922216669</swisstopo:routepoint_id>
				</extensions>
			</trkpt>
			<trkpt lat="47.0756271035" lon="7.5116797372">
				<ele>532.4</ele>
				<time>2021-04-12T10:20:03+02:00</time>
				<extensions>
					<swisstopo:routepoint_id>2099054062</swisstopo:routepoint_id>
				</extensions>
			</trkpt>
			<trkpt lat="47.0757462371" lon="7.5116412922">
				<ele>531.9</ele>
				<time>2021-04-12T10:20:04+02:00</time>
				<extensions>
					<swisstopo:routepoint_id>2087750765</swisstopo:routepoint_id>
				</extensions>
			</trkpt>
			<trkpt lat="47.0758632153" lon="7.5116026335">
				<ele>531.5</ele>
				<time>2021-04-12T10:20:05+02:00</time>
				<extensions>
					<swisstopo:routepoint_id>1091799022</swisstopo:routepoint_id>
				</extensions>
			</trkpt>
			<trkpt lat="47.0759779459" lon="7.5115633522">
				<ele>531.1</ele>
				<time>2021-04-12T10:20:06+02:00</time>
				<extensions>
					<swisstopo:routepoint_id>1765882786</swisstopo:routepoint_id>
				</extensions>
			</trkpt>
			<trkpt lat="47.0760896271" lon="7.5115231856">
				<ele>530.7</ele>
				<time>2021-04-12T10:20:07+02:00</time>
				<extensions>
					<swisstopo:routepoint_id>967982762</swisstopo:routepoint_id>
				</extensions>
			</trkpt>
			<trkpt lat="47.0761974297" lon="7.5114823368">
				<ele>530.4</ele>
				<time>2021-04-12T10:20:08+02:00</time>
				<extensions>
					<swisstopo:routepoint_id>1697654909</swisstopo:routepoint_id>
				</extensions>
			</trkpt>
			<trkpt lat="47.0762999924" lon="7.5114417949">
				<ele>530.1</ele>
				<time>2021-04-12T10:20:09+02:00</time>
				<extensions>
					<swisstopo:routepoint_id>1018321521</swisstopo:routepoint_id>
				</extensions>
			</trkpt>
			<trkpt lat="47.0763957344" lon="7.5114013881">
				<ele>529.9</ele>
				<time>2021-04-12T10:20:10+02:00</time>
				<extensions>
					<swisstopo:routepoint_id>1632620504</swisstopo:routepoint_id>
				</extensions>
			</trkpt>
			<trkpt lat="47.0764824290" lon="7.5113604056">
				<ele>529.7</ele>
				<time>2021-04-12T10:20:11+02:00</time>
				<extensions>
					<swisstopo:routepoint_id>1054253009</swisstopo:routepoint_id>
				</extensions>
			</trkpt>
			<trkpt lat="47.0765586557" lon="7.5113199259">
				<ele>529.6</ele>
				<time>2021-04-12T10:20:12+02:00</time>
				<extensions>
					<swisstopo:routepoint_id>2090234513</swisstopo:routepoint_id>
				</extensions>
			</trkpt>
			<trkpt lat="47.0766236595" lon="7.5112815212">
				<ele>529.5</ele>
				<time>2021-04-12T10:20:13+02:00</time>
				<extensions>
					<swisstopo:routepoint_id>2033962365</swisstopo:routepoint_id>
				</extensions>
			</trkpt>
			<trkpt lat="47.0766774268" lon="7.5112463135">
				<ele>529.4</ele>
				<time>2021-04-12T10:20:14+02:00</time>
				<extensions>
					<swisstopo:routepoint_id>1160775609</swisstopo:routepoint_id>
				</extensions>
			</trkpt>
			<trkpt lat="47.0767206934" lon="7.5112154328">
				<ele>529.3</ele>
				<time>2021-04-12T10:20:15+02:00</time>
				<extensions>
					<swisstopo:routepoint_id>1414211115</swisstopo:routepoint_id>
				</extensions>
			</trkpt>
			<trkpt lat="47.0767547682" lon="7.5111899186">
				<ele>529.2</ele>
				<time>2021-04-12T10:20:16+02:00</time>
				<extensions>
					<swisstopo:routepoint_id>297204809</swisstopo:routepoint_id>
				</extensions>
			</trkpt>
			<trkpt lat="47.0767808367" lon="7.5111697700">
				<ele>529.1</ele>
				<time>2021-04-12T10:20:17+02:00</time>
				<extensions>
					<swisstopo:routepoint_id>74261941</swisstopo:routepoint_id>
				</extensions>
			</trkpt>
			<trkpt lat="47.0768003288" lon="7.5111542449">
				<ele>529.0</ele>
				<time>2021-04-12T10:20:18+02:00</time>
				<extensions>
					<swisstopo:routepoint_id>432443480</swisstopo:routepoint_id>
				</extensions>
			</trkpt>
			<trkpt lat="47.0768145728" lon="7.5111427921">
				<ele>529.0</ele>
				<time>2021-04-12T10:20:19+02:00</time>
				<extensions>
					<swisstopo:routepoint_id>992906912</swisstopo:routepoint_id>
				</extensions>
			</trkpt>
			<trkpt lat="47.0768248530" lon="7.5111347476">
				<ele>528.9</ele>
				<time>2021-04-12T10:20:20+02:00</time>
				<extensions>
					<swisstopo:routepoint_id>1838532794</swisstopo:routepoint_id>
				</extensions>
			</trkpt>
			<trkpt lat="47.0768323049" lon="7.5111294960">
				<ele>528.8</ele>
				<time>2021-04-12T10:20:21+02:00</time>
				<extensions>
					<swisstopo:routepoint_id>78472075</swisstopo:routepoint_id>
				</extensions>
			</trkpt>
			<trkpt lat="47.0768376584" lon="7.5111263444">
				<ele>528.8</ele>
				<time>2021-04-12T10:20:22+02:00</time>
				<extensions>
					<swisstopo:routepoint_id>325205267</swisstopo:routepoint_id>
				</extensions>
			</trkpt>
			<trkpt lat="47.0768417598" lon="7.5111248202">
				<ele>528.7</ele>
				<time>2021-04-12T10:20:23+02:00</time>
				<extensions>
					<swisstopo:routepoint_id>379040854</swisstopo:routepoint_id>
				</extensions>
			</trkpt>
			<trkpt lat="47.0768452978" lon="7.5111244047">
				<ele>528.7</ele>
				<time>2021-04-12T10:20:24+02:00</time>
				<extensions>
					<swisstopo:routepoint_id>1103136176</swisstopo:routepoint_id>
				</extensions>
			</trkpt>
			<trkpt lat="47.0768486591" lon="7.5111247636">
				<ele>528.6</ele>
				<time>2021-04-12T10:20:25+02:00</time>
				<extensions>
					<swisstopo:routepoint_id>1183385481</swisstopo:routepoint_id>
				</extensions>
			</trkpt>
			<trkpt lat="47.0768524031" lon="7.5111255716">
				<ele>528.6</ele>
				<time>2021-04-12T10:20:26+02:00</time>
				<extensions>
					<swisstopo:routepoint_id>1313724300</swisstopo:routepoint_id>
				</extensions>
			</trkpt>
			<trkpt lat="47.0768573261" lon="7.5111265136">
				<ele>528.6</ele>
				<time>2021-04-12T10:20:27+02:00</time>
				<extensions>
					<swisstopo:routepoint_id>1484935293</swisstopo:routepoint_id>
				</extensions>
			</trkpt>
			<trkpt lat="47.0768645117" lon="7.5111273543">
				<ele>528.5</ele>
				<time>2021-04-12T10:20:28+02:00</time>
				<extensions>
					<swisstopo:routepoint_id>1400007664</swisstopo:routepoint_id>
				</extensions>
			</trkpt>
			<trkpt lat="47.0768755582" lon="7.5111278395">
				<ele>528.5</ele>
				<time>2021-04-12T10:20:29+02:00</time>
				<extensions>
					<swisstopo:routepoint_id>2097972316</swisstopo:routepoint_id>
				</extensions>
			</trkpt>
			<trkpt lat="47.0768922409" lon="7.5111287427">
				<ele>528.4</ele>
				<time>2021-04-12T10:20:30+02:00</time>
				<extensions>
					<swisstopo:routepoint_id>1086714919</swisstopo:routepoint_id>
				</extensions>
			</trkpt>
			<trkpt lat="47.0769160638" lon="7.5111311264">
				<ele>528.3</ele>
				<time>2021-04-12T10:20:31+02:00</time>
				<extensions>
					<swisstopo:routepoint_id>69225898</swisstopo:routepoint_id>
				</extensions>
			</trkpt>
			<trkpt lat="47.0769472425" lon="7.5111368916">
				<ele>528.2</ele>
				<time>2021-04-12T10:20:32+02:00</time>
				<extensions>
					<swisstopo:routepoint_id>1691014659</swisstopo:routepoint_id>
				</extensions>
			</trkpt>
			<trkpt lat="47.0769843441" lon="7.5111486576">
				<ele>528.0</ele>
				<time>2021-04-12T10:20:33+02:00</time>
				<extensions>
					<swisstopo:routepoint_id>1084789415</swisstopo:routepoint_id>
				</extensions>
			</trkpt>
			<trkpt lat="47.0770261133" lon="7.5111672173">
				<ele>527.8</ele>
				<time>2021-04-12T10:20:34+02:00</time>
				<extensions>
					<swisstopo:routepoint_id>2067018522</swisstopo:routepoint_id>
				</extensions>
			</trkpt>
			<trkpt lat="47.0770706472" lon="7.5111908072">
				<ele>527.7</ele>
				<time>2021-04-12T10:20:35+02:00</time>
				<extensions>
					<swisstopo:routepoint_id>537341735</swisstopo:routepoint_id>
				</extensions>
			</trkpt>
			<trkpt lat="47.0771156216" lon="7.5112165003">
				<ele>527.5</ele>
				<time>2021-04-12T10:20:36+02:00</time>
				<extensions>
					<swisstopo:routepoint_id>933804510</swisstopo:routepoint_id>
				</extensions>
			</trkpt>
			<trkpt lat="47.0771589115" lon="7.5112426372">
				<ele>527.4</ele>
				<time>2021-04-12T10:20:37+02:00</time>
				<extensions>
					<swisstopo:routepoint_id>641907294</swisstopo:routepoint_id>
				</extensions>
			</trkpt>
			<trkpt lat="47.0771996237" lon="7.5112683127">
				<ele>527.4</ele>
				<time>2021-04-12T10:20:38+02:00</time>
				<extensions>
					<swisstopo:routepoint_id>1725531377</swisstopo:routepoint_id>
				</extensions>
			</trkpt>
			<trkpt lat="47.0772379084" lon="7.5112930941">
				<ele>527.3</ele>
				<time>2021-04-12T10:20:39+02:00</time>
				<extensions>
					<swisstopo:routepoint_id>1386684151</swisstopo:routepoint_id>
				</extensions>
			</trkpt>
			<trkpt lat="47.0772740364" lon="7.5113171750">
				<ele>527.3</ele>
				<time>2021-04-12T10:20:40+02:00</time>
				<extensions>
					<swisstopo:routepoint_id>1507988613</swisstopo:routepoint_id>
				</extensions>
			</trkpt>
			<trkpt lat="47.0773083075" lon="7.5113403359">
				<ele>527.3</ele>
				<time>2021-04-12T10:20:41+02:00</time>
				<extensions>
					<swisstopo:routepoint_id>162616797</swisstopo:routepoint_id>
				</extensions>
			</trkpt>
			<trkpt lat="47.0773410104" lon="7.5113628368">
				<ele>527.3</ele>
				<time>2021-04-12T10:20:42+02:00</time>
				<extensions>
					<swisstopo:routepoint_id>1501308195</swisstopo:routepoint_id>
				</extensions>
			</trkpt>
			<trkpt lat="47.0773721561" lon="7.5113846059">
				<ele>527.4</ele>
				<time>2021-04-12T10:20:43+02:00</time>
				<extensions>
					<swisstopo:routepoint_id>1701464762</swisstopo:routepoint_id>
				</extensions>
			</trkpt>
			<trkpt lat="47.0774016854" lon="7.5114054763">
				<ele>527.4</ele>
				<time>2021-04-12T10:20:44+02:00</time>
				<extensions>
					<swisstopo:routepoint_id>626011482</swisstopo:routepoint_id>
				</extensions>
			</trkpt>
			<trkpt lat="47.0774295165" lon="7.5114253071">
				<ele>527.5</ele>
				<time>2021-04-12T10:20:45+02:00</time>
				<extensions>
					<swisstopo:routepoint_id>852591321</swisstopo:routepoint_id>
				</extensions>
			</trkpt>
			<trkpt lat="47.0774557762" lon="7.5114442175">
				<ele>527.5</ele>
				<time>2021-04-12T10:20:46+02:00</time>
				<extensions>
					<swisstopo:routepoint_id>1491439263</swisstopo:routepoint_id>
				</extensions>
			</trkpt>
			<trkpt lat="47.0774807095" lon="7.5114625603">
				<ele>527.5</ele>
				<time>2021-04-12T10:20:47+02:00</time>
				<extensions>
					<swisstopo:routepoint_id>1190565457</swisstopo:routepoint_id>
				</extensions>
			</trkpt>
			<trkpt lat="47.0775051352" lon="7.5114804339">
				<ele>527.5</ele>
				<time>2021-04-12T10:20:48+02:00</time>
				<extensions>
					<swisstopo:routepoint_id>1728496700</swisstopo:routepoint_id>
				</extensions>
			</trkpt>
			<trkpt lat="47.0775302217" lon="7.5114985963">
				<ele>527.5</ele>
				<time>2021-04-12T10:20:49+02:00</time>
				<extensions>
					<swisstopo:routepoint_id>1832743931</swisstopo:routepoint_id>
				</extensions>
			</trkpt>
			<trkpt lat="47.0775574160" lon="7.5115180949">
				<ele>527.5</ele>
				<time>2021-04-12T10:20:50+02:00</time>
				<extensions>
					<swisstopo:routepoint_id>1569299396</swisstopo:routepoint_id>
				</extensions>
			</trkpt>
			<trkpt lat="47.0775876088" lon="7.5115397799">
				<ele>527.5</ele>
				<time>2021-04-12T10:20:51+02:00</time>
				<extensions>
					<swisstopo:routepoint_id>1968279765</swisstopo:routepoint_id>
				</extensions>
			</trkpt>
			<trkpt lat="47.0776209917" lon="7.5115641780">
				<ele>527.5</ele>
				<time>2021-04-12T10:20:52+02:00</time>
				<extensions>
					<swisstopo:routepoint_id>1039911967</swisstopo:routepoint_id>
				</extensions>
			</trkpt>
			<trkpt lat="47.0776574828" lon="7.5115918618">
				<ele>527.6</ele>
				<time>2021-04-12T10:20:53+02:00</time>
				<extensions>
					<swisstopo:routepoint_id>1578510083</swisstopo:routepoint_id>
				</extensions>
			</trkpt>
			<trkpt lat="47.0776974228" lon="7.5116234369">
				<ele>527.6</ele>
				<time>2021-04-12T10:20:54+02:00</time>
				<extensions>
					<swisstopo:routepoint_id>5989943</swisstopo:routepoint_id>
				</extensions>
			</trkpt>
			<trkpt lat="47.0777409670" lon="7.5116593864">
				<ele>527.7</ele>
				<time>2021-04-12T10:20:55+02:00</time>
				<extensions>
					<swisstopo:routepoint_id>1888724239</swisstopo:routepoint_id>
				</extensions>
			</trkpt>
			<trkpt lat="47.0777877360" lon="7.5116999557">
				<ele>527.8</ele>
				<time>2021-04-12T10:20:56+02:00</time>
				<extensions>
					<swisstopo:routepoint_id>1832498566</swisstopo:routepoint_id>
				</extensions>
			</trkpt>
			<trkpt lat="47.0778369273" lon="7.5117447747">
				<ele>527.9</ele>
				<time>2021-04-12T10:20:57+02:00</time>
				<extensions>
					<swisstopo:routepoint_id>1740417135</swisstopo:routepoint_id>
				</extensions>
			</trkpt>
			<trkpt lat="47.0778880924" lon="7.5117929207">
				<ele>527.9</ele>
				<time>2021-04-12T10:20:58+02:00</time>
				<extensions>
					<swisstopo:routepoint_id>316032158</swisstopo:routepoint_id>
				</extensions>
			</trkpt>
			<trkpt lat="47.0779408483" lon="7.5118431815">
				<ele>528.0</ele>
				<time>2021-04-12T10:20:59+02:00</time>
				<extensions>
					<swisstopo:routepoint_id>825420475</swisstopo:routepoint_id>
				</extensions>
			</trkpt>
			<trkpt lat="47.0779949938" lon="7.5118951904">
				<ele>528.1</ele>
				<time>2021-04-12T10:21:00+02:00</time>
				<extensions>
					<swisstopo:routepoint_id>97563705</swisstopo:routepoint_id>
				</extensions>
			</trkpt>
			<trkpt lat="47.0780506237" lon="7.5119488150">
				<ele>528.1</ele>
				<time>2021-04-12T10:21:01+02:00</time>
				<extensions>
					<swisstopo:routepoint_id>1223167274</swisstopo:routepoint_id>
				</extensions>
			</trkpt>
			<trkpt lat="47.0781081729" lon="7.5120041676">
				<ele>528.2</ele>
				<time>2021-04-12T10:21:02+02:00</time>
				<extensions>
					<swisstopo:routepoint_id>2058905034</swisstopo:routepoint_id>
				</extensions>
			</trkpt>
			<trkpt lat="47.0781681846" lon="7.5120614581">
				<ele>528.2</ele>
				<time>2021-04-12T10:21:03+02:00</time>
				<extensions>
					<swisstopo:routepoint_id>1612902327</swisstopo:routepoint_id>
				</extensions>
			</trkpt>
			<trkpt lat="47.0782309976" lon="7.5121211347">
				<ele>528.2</ele>
				<time>2021-04-12T10:21:04+02:00</time>
				<extensions>
					<swisstopo:routepoint_id>363333808</swisstopo:routepoint_id>
				</extensions>
			</trkpt>
			<trkpt lat="47.0782973191" lon="7.5121837973">
				<ele>528.2</ele>
				<time>2021-04-12T10:21:05+02:00</time>
				<extensions>
					<swisstopo:routepoint_id>1255302635</swisstopo:routepoint_id>
				</extensions>
			</trkpt>
			<trkpt lat="47.0783681176" lon="7.5122500929">
				<ele>528.1</ele>
				<time>2021-04-12T10:21:06+02:00</time>
				<extensions>
					<swisstopo:routepoint_id>992038317</swisstopo:routepoint_id>
				</extensions>
			</trkpt>
			<trkpt lat="47.0784440917" lon="7.5123211335">
				<ele>528.1</ele>
				<time>2021-04-12T10:21:07+02:00</time>
				<extensions>
					<swisstopo:routepoint_id>124958511</swisstopo:routepoint_id>
				</extensions>
			</trkpt>
			<trkpt lat="47.0785258641" lon="7.5123992824">
				<ele>528.1</ele>
				<time>2021-04-12T10:21:08+02:00</time>
				<extensions>
					<swisstopo:routepoint_id>2086171258</swisstopo:routepoint_id>
				</extensions>
			</trkpt>
			<trkpt lat="47.0786129699" lon="7.5124872918">
				<ele>528.1</ele>
				<time>2021-04-12T10:21:09+02:00</time>
				<extensions>
					<swisstopo:routepoint_id>314828637</swisstopo:routepoint_id>
				</extensions>
			</trkpt>
			<trkpt lat="47.0787040251" lon="7.5125884764">
				<ele>528.2</ele>
				<time>2021-04-12T10:21:10+02:00</time>
				<extensions>
					<swisstopo:routepoint_id>2072679498</swisstopo:routepoint_id>
				</extensions>
			</trkpt>
			<trkpt lat="47.0787971270" lon="7.5127023859">
				<ele>528.5</ele>
				<time>2021-04-12T10:21:11+02:00</time>
				<extensions>
					<swisstopo:routepoint_id>1192084899</swisstopo:routepoint_id>
				</extensions>
			</trkpt>
			<trkpt lat="47.0788909585" lon="7.5128276860">
				<ele>528.8</ele>
				<time>2021-04-12T10:21:12+02:00</time>
				<extensions>
					<swisstopo:routepoint_id>1495954630</swisstopo:routepoint_id>
				</extensions>
			</trkpt>
			<trkpt lat="47.0789849328" lon="7.5129622433">
				<ele>529.2</ele>
				<time>2021-04-12T10:21:13+02:00</time>
				<extensions>
					<swisstopo:routepoint_id>1918410981</swisstopo:routepoint_id>
				</extensions>
			</trkpt>
			<trkpt lat="47.0790786481" lon="7.5131034726">
				<ele>529.7</ele>
				<time>2021-04-12T10:21:14+02:00</time>
				<extensions>
					<swisstopo:routepoint_id>413881609</swisstopo:routepoint_id>
				</extensions>
			</trkpt>
			<trkpt lat="47.0791720767" lon="7.5132490567">
				<ele>530.2</ele>
				<time>2021-04-12T10:21:15+02:00</time>
				<extensions>
					<swisstopo:routepoint_id>408669830</swisstopo:routepoint_id>
				</extensions>
			</trkpt>
			<trkpt lat="47.0792652648" lon="7.5133969194">
				<ele>530.7</ele>
				<time>2021-04-12T10:21:16+02:00</time>
				<extensions>
					<swisstopo:routepoint_id>861129704</swisstopo:routepoint_id>
				</extensions>
			</trkpt>
			<trkpt lat="47.0793581213" lon="7.5135453763">
				<ele>531.3</ele>
				<time>2021-04-12T10:21:17+02:00</time>
				<extensions>
					<swisstopo:routepoint_id>1114637995</swisstopo:routepoint_id>
				</extensions>
			</trkpt>
			<trkpt lat="47.0794498711" lon="7.5136931324">
				<ele>531.8</ele>
				<time>2021-04-12T10:21:18+02:00</time>
				<extensions>
					<swisstopo:routepoint_id>1220929184</swisstopo:routepoint_id>
				</extensions>
			</trkpt>
			<trkpt lat="47.0795403024" lon="7.5138393562">
				<ele>532.2</ele>
				<time>2021-04-12T10:21:19+02:00</time>
				<extensions>
					<swisstopo:routepoint_id>950548403</swisstopo:routepoint_id>
				</extensions>
			</trkpt>
			<trkpt lat="47.0796294918" lon="7.5139832029">
				<ele>532.6</ele>
				<time>2021-04-12T10:21:20+02:00</time>
				<extensions>
					<swisstopo:routepoint_id>736159188</swisstopo:routepoint_id>
				</extensions>
			</trkpt>
			<trkpt lat="47.0797178725" lon="7.5141241244">
				<ele>532.8</ele>
				<time>2021-04-12T10:21:21+02:00</time>
				<extensions>
					<swisstopo:routepoint_id>974182349</swisstopo:routepoint_id>
				</extensions>
			</trkpt>
			<trkpt lat="47.0798062324" lon="7.5142617948">
				<ele>532.9</ele>
				<time>2021-04-12T10:21:22+02:00</time>
				<extensions>
					<swisstopo:routepoint_id>667414915</swisstopo:routepoint_id>
				</extensions>
			</trkpt>
			<trkpt lat="47.0798946866" lon="7.5143967650">
				<ele>533.0</ele>
				<time>2021-04-12T10:21:23+02:00</time>
				<extensions>
					<swisstopo:routepoint_id>935388124</swisstopo:routepoint_id>
				</extensions>
			</trkpt>
			<trkpt lat="47.0799827289" lon="7.5145290379">
				<ele>532.9</ele>
				<time>2021-04-12T10:21:24+02:00</time>
				<extensions>
					<swisstopo:routepoint_id>1487904028</swisstopo:routepoint_id>
				</extensions>
			</trkpt>
			<trkpt lat="47.0800701280" lon="7.5146597276">
				<ele>532.7</ele>
				<time>2021-04-12T10:21:25+02:00</time>
				<extensions>
					<swisstopo:routepoint_id>1903412928</swisstopo:routepoint_id>
				</extensions>
			</trkpt>
			<trkpt lat="47.0801564300" lon="7.5147901148">
				<ele>532.5</ele>
				<time>2021-04-12T10:21:26+02:00</time>
				<extensions>
					<swisstopo:routepoint_id>1744675184</swisstopo:routepoint_id>
				</extensions>
			</trkpt>
			<trkpt lat="47.0802414894" lon="7.5149212338">
				<ele>532.2</ele>
				<time>2021-04-12T10:21:27+02:00</time>
				<extensions>
					<swisstopo:routepoint_id>1014101350</swisstopo:routepoint_id>
				</extensions>
			</trkpt>
			<trkpt lat="47.0803247614" lon="7.5150531253">
				<ele>532.0</ele>
				<time>2021-04-12T10:21:28+02:00</time>
				<extensions>
					<swisstopo:routepoint_id>1571166858</swisstopo:routepoint_id>
				</extensions>
			</trkpt>
			<trkpt lat="47.0804065747" lon="7.5151860109">
				<ele>531.7</ele>
				<time>2021-04-12T10:21:29+02:00</time>
				<extensions>
					<swisstopo:routepoint_id>1142458894</swisstopo:routepoint_id>
				</extensions>
			</trkpt>
			<trkpt lat="47.0804871091" lon="7.5153201160">
				<ele>531.4</ele>
				<time>2021-04-12T10:21:30+02:00</time>
				<extensions>
					<swisstopo:routepoint_id>655343631</swisstopo:routepoint_id>
				</extensions>
			</trkpt>
			<trkpt lat="47.0805662423" lon="7.5154564008">
				<ele>531.1</ele>
				<time>2021-04-12T10:21:31+02:00</time>
				<extensions>
					<swisstopo:routepoint_id>2064264401</swisstopo:routepoint_id>
				</extensions>
			</trkpt>
			<trkpt lat="47.0806444870" lon="7.5155945997">
				<ele>530.8</ele>
				<time>2021-04-12T10:21:32+02:00</time>
				<extensions>
					<swisstopo:routepoint_id>1493470322</swisstopo:routepoint_id>
				</extensions>
			</trkpt>
			<trkpt lat="47.0807219539" lon="7.5157354656">
				<ele>530.5</ele>
				<time>2021-04-12T10:21:33+02:00</time>
				<extensions>
					<swisstopo:routepoint_id>966835718</swisstopo:routepoint_id>
				</extensions>
			</trkpt>
			<trkpt lat="47.0807977308" lon="7.5158814001">
				<ele>530.2</ele>
				<time>2021-04-12T10:21:34+02:00</time>
				<extensions>
					<swisstopo:routepoint_id>1746639224</swisstopo:routepoint_id>
				</extensions>
			</trkpt>
			<trkpt lat="47.0808705187" lon="7.5160344428">
				<ele>529.9</ele>
				<time>2021-04-12T10:21:35+02:00</time>
				<extensions>
					<swisstopo:routepoint_id>1811466925</swisstopo:routepoint_id>
				</extensions>
			</trkpt>
			<trkpt lat="47.0809398257" lon="7.5161964114">
				<ele>529.6</ele>
				<time>2021-04-12T10:21:36+02:00</time>
				<extensions>
					<swisstopo:routepoint_id>448944956</swisstopo:routepoint_id>
				</extensions>
			</trkpt>
			<trkpt lat="47.0810053785" lon="7.5163672569">
				<ele>529.3</ele>
				<time>2021-04-12T10:21:37+02:00</time>
				<extensions>
					<swisstopo:routepoint_id>1307823581</swisstopo:routepoint_id>
				</extensions>
			</trkpt>
			<trkpt lat="47.0810671469" lon="7.5165458383">
				<ele>529.0</ele>
				<time>2021-04-12T10:21:38+02:00</time>
				<extensions>
					<swisstopo:routepoint_id>1095798822</swisstopo:routepoint_id>
				</extensions>
			</trkpt>
			<trkpt lat="47.0811255443" lon="7.5167301520">
				<ele>528.8</ele>
				<time>2021-04-12T10:21:39+02:00</time>
				<extensions>
					<swisstopo:routepoint_id>271044682</swisstopo:routepoint_id>
				</extensions>
			</trkpt>
			<trkpt lat="47.0811811485" lon="7.5169185237">
				<ele>528.6</ele>
				<time>2021-04-12T10:21:40+02:00</time>
				<extensions>
					<swisstopo:routepoint_id>635155087</swisstopo:routepoint_id>
				</extensions>
			</trkpt>
			<trkpt lat="47.0812345481" lon="7.5171094964">
				<ele>528.4</ele>
				<time>2021-04-12T10:21:41+02:00</time>
				<extensions>
					<swisstopo:routepoint_id>2057821619</swisstopo:routepoint_id>
				</extensions>
			</trkpt>
			<trkpt lat="47.0812861697" lon="7.5173017779">
				<ele>528.3</ele>
				<time>2021-04-12T10:21:42+02:00</time>
				<extensions>
					<swisstopo:routepoint_id>583815598</swisstopo:routepoint_id>
				</extensions>
			</trkpt>
			<trkpt lat="47.0813364528" lon="7.5174939957">
				<ele>528.1</ele>
				<time>2021-04-12T10:21:43+02:00</time>
				<extensions>
					<swisstopo:routepoint_id>335972443</swisstopo:routepoint_id>
				</extensions>
			</trkpt>
			<trkpt lat="47.0813854922" lon="7.5176845874">
				<ele>528.0</ele>
				<time>2021-04-12T10:21:44+02:00</time>
				<extensions>
					<swisstopo:routepoint_id>954341538</swisstopo:routepoint_id>
				</extensions>
			</trkpt>
			<trkpt lat="47.0814331239" lon="7.5178723663">
				<ele>527.9</ele>
				<time>2021-04-12T10:21:45+02:00</time>
				<extensions>
					<swisstopo:routepoint_id>62869723</swisstopo:routepoint_id>
				</extensions>
			</trkpt>
			<trkpt lat="47.0814789550" lon="7.5180568672">
				<ele>527.8</ele>
				<time>2021-04-12T10:21:46+02:00</time>
				<extensions>
					<swisstopo:routepoint_id>89480137</swisstopo:routepoint_id>
				</extensions>
			</trkpt>
			<trkpt lat="47.0815215391" lon="7.5182375851">
				<ele>527.8</ele>
				<time>2021-04-12T10:21:47+02:00</time>
				<extensions>
					<swisstopo:routepoint_id>654109659</swisstopo:routepoint_id>
				</extensions>
			</trkpt>
			<trkpt lat="47.0815600400" lon="7.5184149792">
				<ele>527.7</ele>
				<time>2021-04-12T10:21:48+02:00</time>
				<extensions>
					<swisstopo:routepoint_id>652249820</swisstopo:routepoint_id>
				</extensions>
			</trkpt>
			<trkpt lat="47.0815969547" lon="7.5185875655">
				<ele>527.7</ele>
				<time>2021-04-12T10:21:49+02:00</time>
				<extensions>
					<swisstopo:routepoint_id>1606190452</swisstopo:routepoint_id>
				</extensions>
			</trkpt>
			<trkpt lat="47.0816364713" lon="7.5187528062">
				<ele>527.6</ele>
				<time>2021-04-12T10:21:50+02:00</time>
				<extensions>
					<swisstopo:routepoint_id>1373483974</swisstopo:routepoint_id>
				</extensions>
			</trkpt>
			<trkpt lat="47.0816804391" lon="7.5189084982">
				<ele>527.6</ele>
				<time>2021-04-12T10:21:51+02:00</time>
				<extensions>
					<swisstopo:routepoint_id>843429415</swisstopo:routepoint_id>
				</extensions>
			</trkpt>
			<trkpt lat="47.0817296725" lon="7.5190524876">
				<ele>527.5</ele>
				<time>2021-04-12T10:21:52+02:00</time>
				<extensions>
					<swisstopo:routepoint_id>2126107705</swisstopo:routepoint_id>
				</extensions>
			</trkpt>
			<trkpt lat="47.0817840071" lon="7.5191836743">
				<ele>527.4</ele>
				<time>2021-04-12T10:21:53+02:00</time>
				<extensions>
					<swisstopo:routepoint_id>1511795502</swisstopo:routepoint_id>
				</extensions>
			</trkpt>
			<trkpt lat="47.0818422319" lon="7.5193027554">
				<ele>527.3</ele>
				<time>2021-04-12T10:21:54+02:00</time>
				<extensions>
					<swisstopo:routepoint_id>1867974457</swisstopo:routepoint_id>
				</extensions>
			</trkpt>
			<trkpt lat="47.0819024382" lon="7.5194111256">
				<ele>527.2</ele>
				<time>2021-04-12T10:21:55+02:00</time>
				<extensions>
					<swisstopo:routepoint_id>983263306</swisstopo:routepoint_id>
				</extensions>
			</trkpt>
			<trkpt lat="47.0819626108" lon="7.5195095822">
				<ele>527.1</ele>
				<time>2021-04-12T10:21:56+02:00</time>
				<extensions>
					<swisstopo:routepoint_id>819720277</swisstopo:routepoint_id>
				</extensions>
			</trkpt>
			<trkpt lat="47.0820202495" lon="7.5195972044">
				<ele>526.9</ele>
				<time>2021-04-12T10:21:57+02:00</time>
				<extensions>
					<swisstopo:routepoint_id>931100034</swisstopo:routepoint_id>
				</extensions>
			</trkpt>
			<trkpt lat="47.0820731036" lon="7.5196727043">
				<ele>526.8</ele>
				<time>2021-04-12T10:21:58+02:00</time>
				<extensions>
					<swisstopo:routepoint_id>284935749</swisstopo:routepoint_id>
				</extensions>
			</trkpt>
			<trkpt lat="47.0821195221" lon="7.5197350768">
				<ele>526.7</ele>
				<time>2021-04-12T10:21:59+02:00</time>
				<extensions>
					<swisstopo:routepoint_id>26600633</swisstopo:routepoint_id>
				</extensions>
			</trkpt>
			<trkpt lat="47.0821585760" lon="7.5197841478">
				<ele>526.5</ele>
				<time>2021-04-12T10:22:00+02:00</time>
				<extensions>
					<swisstopo:routepoint_id>400240255</swisstopo:routepoint_id>
				</extensions>
			</trkpt>
			<trkpt lat="47.0821897232" lon="7.5198203125">
				<ele>526.4</ele>
				<time>2021-04-12T10:22:01+02:00</time>
				<extensions>
					<swisstopo:routepoint_id>919183381</swisstopo:routepoint_id>
				</extensions>
			</trkpt>
			<trkpt lat="47.0822136138" lon="7.5198447549">
				<ele>526.3</ele>
				<time>2021-04-12T10:22:02+02:00</time>
				<extensions>
					<swisstopo:routepoint_id>1865211596</swisstopo:routepoint_id>
				</extensions>
			</trkpt>
			<trkpt lat="47.0822312752" lon="7.5198589647">
				<ele>526.3</ele>
				<time>2021-04-12T10:22:03+02:00</time>
				<extensions>
					<swisstopo:routepoint_id>1792498713</swisstopo:routepoint_id>
				</extensions>
			</trkpt>
			<trkpt lat="47.0822433324" lon="7.5198647013">
				<ele>526.2</ele>
				<time>2021-04-12T10:22:04+02:00</time>
				<extensions>
					<swisstopo:routepoint_id>1625269275</swisstopo:routepoint_id>
				</extensions>
			</trkpt>
			<trkpt lat="47.0822505617" lon="7.5198641199">
				<ele>526.2</ele>
				<time>2021-04-12T10:22:05+02:00</time>
				<extensions>
					<swisstopo:routepoint_id>2056198732</swisstopo:routepoint_id>
				</extensions>
			</trkpt>
			<trkpt lat="47.0822549370" lon="7.5198617489">
				<ele>526.2</ele>
				<time>2021-04-12T10:22:06+02:00</time>
				<extensions>
					<swisstopo:routepoint_id>1225241200</swisstopo:routepoint_id>
				</extensions>
			</trkpt>
			<trkpt lat="47.0822599505" lon="7.5198647277">
				<ele>526.1</ele>
				<time>2021-04-12T10:22:07+02:00</time>
				<extensions>
					<swisstopo:routepoint_id>408157317</swisstopo:routepoint_id>
				</extensions>
			</trkpt>
			<trkpt lat="47.0822703433" lon="7.5198804189">
				<ele>526.0</ele>
				<time>2021-04-12T10:22:08+02:00</time>
				<extensions>
					<swisstopo:routepoint_id>837258301</swisstopo:routepoint_id>
				</extensions>
			</trkpt>
			<trkpt lat="47.0822900486" lon="7.5199137093">
				<ele>525.9</ele>
				<time>2021-04-12T10:22:09+02:00</time>
				<extensions>
					<swisstopo:routepoint_id>1487409763</swisstopo:routepoint_id>
				</extensions>
			</trkpt>
			<trkpt lat="47.0823212460" lon="7.5199674783">
				<ele>525.7</ele>
				<time>2021-04-12T10:22:10+02:00</time>
				<extensions>
					<swisstopo:routepoint_id>38752014</swisstopo:routepoint_id>
				</extensions>
			</trkpt>
			<trkpt lat="47.0823644085" lon="7.5200435083">
				<ele>525.5</ele>
				<time>2021-04-12T10:22:11+02:00</time>
				<extensions>
					<swisstopo:routepoint_id>617554257</swisstopo:routepoint_id>
				</extensions>
			</trkpt>
			<trkpt lat="47.0824187337" lon="7.5201423498">
				<ele>525.2</ele>
				<time>2021-04-12T10:22:12+02:00</time>
				<extensions>
					<swisstopo:routepoint_id>445931448</swisstopo:routepoint_id>
				</extensions>
			</trkpt>
			<trkpt lat="47.0824823762" lon="7.5202626815">
				<ele>524.8</ele>
				<time>2021-04-12T10:22:13+02:00</time>
				<extensions>
					<swisstopo:routepoint_id>51918506</swisstopo:routepoint_id>
				</extensions>
			</trkpt>
			<trkpt lat="47.0825529880" lon="7.5204016187">
				<ele>524.3</ele>
				<time>2021-04-12T10:22:14+02:00</time>
				<extensions>
					<swisstopo:routepoint_id>715969660</swisstopo:routepoint_id>
				</extensions>
			</trkpt>
			<trkpt lat="47.0826283832" lon="7.5205558859">
				<ele>523.8</ele>
				<time>2021-04-12T10:22:15+02:00</time>
				<extensions>
					<swisstopo:routepoint_id>951201479</swisstopo:routepoint_id>
				</extensions>
			</trkpt>
			<trkpt lat="47.0827065052" lon="7.5207221994">
				<ele>523.2</ele>
				<time>2021-04-12T10:22:16+02:00</time>
				<extensions>
					<swisstopo:routepoint_id>974989285</swisstopo:routepoint_id>
				</extensions>
			</trkpt>
			<trkpt lat="47.0827855236" lon="7.5208977893">
				<ele>522.6</ele>
				<time>2021-04-12T10:22:17+02:00</time>
				<extensions>
					<swisstopo:routepoint_id>1344686385</swisstopo:routepoint_id>
				</extensions>
			</trkpt>
			<trkpt lat="47.0828640274" lon="7.5210802657">
				<ele>521.8</ele>
				<time>2021-04-12T10:22:18+02:00</time>
				<extensions>
					<swisstopo:routepoint_id>26171667</swisstopo:routepoint_id>
				</extensions>
			</trkpt>
			<trkpt lat="47.0829408438" lon="7.5212669921">
				<ele>521.1</ele>
				<time>2021-04-12T10:22:19+02:00</time>
				<extensions>
					<swisstopo:routepoint_id>1780543281</swisstopo:routepoint_id>
				</extensions>
			</trkpt>
			<trkpt lat="47.0830159133" lon="7.5214557115">
				<ele>520.2</ele>
				<time>2021-04-12T10:22:20+02:00</time>
				<extensions>
					<swisstopo:routepoint_id>406302822</swisstopo:routepoint_id>
				</extensions>
			</trkpt>
			<trkpt lat="47.0830901019" lon="7.5216433249">
				<ele>519.4</ele>
				<time>2021-04-12T10:22:21+02:00</time>
				<extensions>
					<swisstopo:routepoint_id>1881015541</swisstopo:routepoint_id>
				</extensions>
			</trkpt>
			<trkpt lat="47.0831647765" lon="7.5218284205">
				<ele>518.5</ele>
				<time>2021-04-12T10:22:22+02:00</time>
				<extensions>
					<swisstopo:routepoint_id>1121430100</swisstopo:routepoint_id>
				</extensions>
			</trkpt>
			<trkpt lat="47.0832409638" lon="7.5220093525">
				<ele>517.4</ele>
				<time>2021-04-12T10:22:23+02:00</time>
				<extensions>
					<swisstopo:routepoint_id>1559204628</swisstopo:routepoint_id>
				</extensions>
			</trkpt>
			<trkpt lat="47.0833183999" lon="7.5221847674">
				<ele>516.4</ele>
				<time>2021-04-12T10:22:24+02:00</time>
				<extensions>
					<swisstopo:routepoint_id>1956722102</swisstopo:routepoint_id>
				</extensions>
			</trkpt>
			<trkpt lat="47.0833966704" lon="7.5223548869">
				<ele>515.2</ele>
				<time>2021-04-12T10:22:25+02:00</time>
				<extensions>
					<swisstopo:routepoint_id>63798156</swisstopo:routepoint_id>
				</extensions>
			</trkpt>
			<trkpt lat="47.0834754914" lon="7.5225198829">
				<ele>514.1</ele>
				<time>2021-04-12T10:22:26+02:00</time>
				<extensions>
					<swisstopo:routepoint_id>661268039</swisstopo:routepoint_id>
				</extensions>
			</trkpt>
			<trkpt lat="47.0835546074" lon="7.5226801379">
				<ele>512.9</ele>
				<time>2021-04-12T10:22:27+02:00</time>
				<extensions>
					<swisstopo:routepoint_id>704058248</swisstopo:routepoint_id>
				</extensions>
			</trkpt>
			<trkpt lat="47.0836335661" lon="7.5228353562">
				<ele>511.8</ele>
				<time>2021-04-12T10:22:28+02:00</time>
				<extensions>
					<swisstopo:routepoint_id>472079166</swisstopo:routepoint_id>
				</extensions>
			</trkpt>
			<trkpt lat="47.0837120097" lon="7.5229855458">
				<ele>510.6</ele>
				<time>2021-04-12T10:22:29+02:00</time>
				<extensions>
					<swisstopo:routepoint_id>1429950944</swisstopo:routepoint_id>
				</extensions>
			</trkpt>
			<trkpt lat="47.0837895523" lon="7.5231310792">
				<ele>509.4</ele>
				<time>2021-04-12T10:22:30+02:00</time>
				<extensions>
					<swisstopo:routepoint_id>696022231</swisstopo:routepoint_id>
				</extensions>
			</trkpt>
			<trkpt lat="47.0838656336" lon="7.5232719660">
				<ele>508.2</ele>
				<time>2021-04-12T10:22:31+02:00</time>
				<extensions>
					<swisstopo:routepoint_id>702211208</swisstopo:routepoint_id>
				</extensions>
			</trkpt>
			<trkpt lat="47.0839399448" lon="7.5234085771">
				<ele>507.0</ele>
				<time>2021-04-12T10:22:32+02:00</time>
				<extensions>
					<swisstopo:routepoint_id>1641132591</swisstopo:routepoint_id>
				</extensions>
			</trkpt>
			<trkpt lat="47.0840125694" lon="7.5235407070">
				<ele>505.8</ele>
				<time>2021-04-12T10:22:33+02:00</time>
				<extensions>
					<swisstopo:routepoint_id>235494869</swisstopo:routepoint_id>
				</extensions>
			</trkpt>
			<trkpt lat="47.0840839845" lon="7.5236679865">
				<ele>504.7</ele>
				<time>2021-04-12T10:22:34+02:00</time>
				<extensions>
					<swisstopo:routepoint_id>149901862</swisstopo:routepoint_id>
				</extensions>
			</trkpt>
			<trkpt lat="47.0841546499" lon="7.5237899637">
				<ele>503.5</ele>
				<time>2021-04-12T10:22:35+02:00</time>
				<extensions>
					<swisstopo:routepoint_id>402276703</swisstopo:routepoint_id>
				</extensions>
			</trkpt>
			<trkpt lat="47.0842247964" lon="7.5239068797">
				<ele>502.3</ele>
				<time>2021-04-12T10:22:36+02:00</time>
				<extensions>
					<swisstopo:routepoint_id>786026565</swisstopo:routepoint_id>
				</extensions>
			</trkpt>
			<trkpt lat="47.0842946596" lon="7.5240200080">
				<ele>501.2</ele>
				<time>2021-04-12T10:22:37+02:00</time>
				<extensions>
					<swisstopo:routepoint_id>1576565258</swisstopo:routepoint_id>
				</extensions>
			</trkpt>
			<trkpt lat="47.0843649381" lon="7.5241306871">
				<ele>500.1</ele>
				<time>2021-04-12T10:22:38+02:00</time>
				<extensions>
					<swisstopo:routepoint_id>1679054520</swisstopo:routepoint_id>
				</extensions>
			</trkpt>
			<trkpt lat="47.0844373772" lon="7.5242393930">
				<ele>499.1</ele>
				<time>2021-04-12T10:22:39+02:00</time>
				<extensions>
					<swisstopo:routepoint_id>1934196060</swisstopo:routepoint_id>
				</extensions>
			</trkpt>
			<trkpt lat="47.0845126432" lon="7.5243463233">
				<ele>498.2</ele>
				<time>2021-04-12T10:22:40+02:00</time>
				<extensions>
					<swisstopo:routepoint_id>1573215781</swisstopo:routepoint_id>
				</extensions>
			</trkpt>
			<trkpt lat="47.0845895497" lon="7.5244534374">
				<ele>497.4</ele>
				<time>2021-04-12T10:22:41+02:00</time>
				<extensions>
					<swisstopo:routepoint_id>1218969403</swisstopo:routepoint_id>
				</extensions>
			</trkpt>
			<trkpt lat="47.0846662868" lon="7.5245622203">
				<ele>496.7</ele>
				<time>2021-04-12T10:22:42+02:00</time>
				<extensions>
					<swisstopo:routepoint_id>224763841</swisstopo:routepoint_id>
				</extensions>
			</trkpt>
			<trkpt lat="47.0847418167" lon="7.5246725476">
				<ele>496.2</ele>
				<time>2021-04-12T10:22:43+02:00</time>
				<extensions>
					<swisstopo:routepoint_id>182140614</swisstopo:routepoint_id>
				</extensions>
			</trkpt>
			<trkpt lat="47.0848151726" lon="7.5247836010">
				<ele>495.8</ele>
				<time>2021-04-12T10:22:44+02:00</time>
				<extensions>
					<swisstopo:routepoint_id>1073102523</swisstopo:routepoint_id>
				</extensions>
			</trkpt>
			<trkpt lat="47.0848851463" lon="7.5248956701">
				<ele>495.6</ele>
				<time>2021-04-12T10:22:45+02:00</time>
				<extensions>
					<swisstopo:routepoint_id>1066436555</swisstopo:routepoint_id>
				</extensions>
			</trkpt>
			<trkpt lat="47.0849499508" lon="7.5250087890">
				<ele>495.4</ele>
				<time>2021-04-12T10:22:46+02:00</time>
				<extensions>
					<swisstopo:routepoint_id>700662023</swisstopo:routepoint_id>
				</extensions>
			</trkpt>
			<trkpt lat="47.0850074309" lon="7.5251218406">
				<ele>495.4</ele>
				<time>2021-04-12T10:22:47+02:00</time>
				<extensions>
					<swisstopo:routepoint_id>1373784060</swisstopo:routepoint_id>
				</extensions>
			</trkpt>
			<trkpt lat="47.0850574144" lon="7.5252338438">
				<ele>495.4</ele>
				<time>2021-04-12T10:22:48+02:00</time>
				<extensions>
					<swisstopo:routepoint_id>1592007523</swisstopo:routepoint_id>
				</extensions>
			</trkpt>
			<trkpt lat="47.0850994211" lon="7.5253447293">
				<ele>495.5</ele>
				<time>2021-04-12T10:22:49+02:00</time>
				<extensions>
					<swisstopo:routepoint_id>1371681088</swisstopo:routepoint_id>
				</extensions>
			</trkpt>
			<trkpt lat="47.0851345695" lon="7.5254566688">
				<ele>495.5</ele>
				<time>2021-04-12T10:22:50+02:00</time>
				<extensions>
					<swisstopo:routepoint_id>607095471</swisstopo:routepoint_id>
				</extensions>
			</trkpt>
			<trkpt lat="47.0851645449" lon="7.5255715469">
				<ele>495.6</ele>
				<time>2021-04-12T10:22:51+02:00</time>
				<extensions>
					<swisstopo:routepoint_id>758774200</swisstopo:routepoint_id>
				</extensions>
			</trkpt>
			<trkpt lat="47.0851909827" lon="7.5256915279">
				<ele>495.7</ele>
				<time>2021-04-12T10:22:52+02:00</time>
				<extensions>
					<swisstopo:routepoint_id>960083514</swisstopo:routepoint_id>
				</extensions>
			</trkpt>
			<trkpt lat="47.0852158095" lon="7.5258176903">
				<ele>495.8</ele>
				<time>2021-04-12T10:22:53+02:00</time>
				<extensions>
					<swisstopo:routepoint_id>2078979887</swisstopo:routepoint_id>
				</extensions>
			</trkpt>
			<trkpt lat="47.0852406725" lon="7.5259506396">
				<ele>495.8</ele>
				<time>2021-04-12T10:22:54+02:00</time>
				<extensions>
					<swisstopo:routepoint_id>1856024119</swisstopo:routepoint_id>
				</extensions>
			</trkpt>
			<trkpt lat="47.0852667148" lon="7.5260902098">
				<ele>495.9</ele>
				<time>2021-04-12T10:22:55+02:00</time>
				<extensions>
					<swisstopo:routepoint_id>1997395358</swisstopo:routepoint_id>
				</extensions>
			</trkpt>
			<trkpt lat="47.0852945123" lon="7.5262348033">
				<ele>495.9</ele>
				<time>2021-04-12T10:22:56+02:00</time>
				<extensions>
					<swisstopo:routepoint_id>759412002</swisstopo:routepoint_id>
				</extensions>
			</trkpt>
			<trkpt lat="47.0853241362" lon="7.5263825830">
				<ele>495.9</ele>
				<time>2021-04-12T10:22:57+02:00</time>
				<extensions>
					<swisstopo:routepoint_id>942203493</swisstopo:routepoint_id>
				</extensions>
			</trkpt>
			<trkpt lat="47.0853557290" lon="7.5265315679">
				<ele>495.9</ele>
				<time>2021-04-12T10:22:58+02:00</time>
				<extensions>
					<swisstopo:routepoint_id>69693873</swisstopo:routepoint_id>
				</extensions>
			</trkpt>
			<trkpt lat="47.0853896850" lon="7.5266797944">
				<ele>495.9</ele>
				<time>2021-04-12T10:22:59+02:00</time>
				<extensions>
					<swisstopo:routepoint_id>966335896</swisstopo:routepoint_id>
				</extensions>
			</trkpt>
			<trkpt lat="47.0854264665" lon="7.5268244256">
				<ele>495.9</ele>
				<time>2021-04-12T10:23:00+02:00</time>
				<extensions>
					<swisstopo:routepoint_id>1936065458</swisstopo:routepoint_id>
				</extensions>
			</trkpt>
			<trkpt lat="47.0854674842" lon="7.5269598657">
				<ele>495.8</ele>
				<time>2021-04-12T10:23:01+02:00</time>
				<extensions>
					<swisstopo:routepoint_id>779933262</swisstopo:routepoint_id>
				</extensions>
			</trkpt>
			<trkpt lat="47.0855146832" lon="7.5270790288">
				<ele>495.7</ele>
				<time>2021-04-12T10:23:02+02:00</time>
				<extensions>
					<swisstopo:routepoint_id>98153146</swisstopo:routepoint_id>
				</extensions>
			</trkpt>
			<trkpt lat="47.0855693912" lon="7.5271737808">
				<ele>495.7</ele>
				<time>2021-04-12T10:23:03+02:00</time>
				<extensions>
					<swisstopo:routepoint_id>392483926</swisstopo:routepoint_id>
				</extensions>
			</trkpt>
			<trkpt lat="47.0856308485" lon="7.5272392481">
				<ele>495.5</ele>
				<time>2021-04-12T10:23:04+02:00</time>
				<extensions>
					<swisstopo:routepoint_id>1555064345</swisstopo:routepoint_id>
				</extensions>
			</trkpt>
			<trkpt lat="47.0856976000" lon="7.5272737629">
				<ele>495.4</ele>
				<time>2021-04-12T10:23:05+02:00</time>
				<extensions>
					<swisstopo:routepoint_id>1090462425</swisstopo:routepoint_id>
				</extensions>
			</trkpt>
			<trkpt lat="47.0857684179" lon="7.5272816785">
				<ele>495.2</ele>
				<time>2021-04-12T10:23:06+02:00</time>
				<extensions>
					<swisstopo:routepoint_id>776533477</swisstopo:routepoint_id>
				</extensions>
			</trkpt>
			<trkpt lat="47.0858410027" lon="7.5272697290">
				<ele>495.0</ele>
				<time>2021-04-12T10:23:07+02:00</time>
				<extensions>
					<swisstopo:routepoint_id>940025120</swisstopo:routepoint_id>
				</extensions>
			</trkpt>
			<trkpt lat="47.0859125361" lon="7.5272442905">
				<ele>494.9</ele>
				<time>2021-04-12T10:23:08+02:00</time>
				<extensions>
					<swisstopo:routepoint_id>2112484508</swisstopo:routepoint_id>
				</extensions>
			</trkpt>
			<trkpt lat="47.0859799503" lon="7.5272106207">
				<ele>494.8</ele>
				<time>2021-04-12T10:23:09+02:00</time>
				<extensions>
					<swisstopo:routepoint_id>179990105</swisstopo:routepoint_id>
				</extensions>
			</trkpt>
			<trkpt lat="47.0860412455" lon="7.5271730540">
				<ele>494.7</ele>
				<time>2021-04-12T10:23:10+02:00</time>
				<extensions>
					<swisstopo:routepoint_id>1436719759</swisstopo:routepoint_id>
				</extensions>
			</trkpt>
			<trkpt lat="47.0860954593" lon="7.5271341987">
				<ele>494.6</ele>
				<time>2021-04-12T10:23:11+02:00</time>
				<extensions>
					<swisstopo:routepoint_id>642862645</swisstopo:routepoint_id>
				</extensions>
			</trkpt>
			<trkpt lat="47.0861417698" lon="7.5270961031">
				<ele>494.5</ele>
				<time>2021-04-12T10:23:12+02:00</time>
				<extensions>
					<swisstopo:routepoint_id>602246458</swisstopo:routepoint_id>
				</extensions>
			</trkpt>
			<trkpt lat="47.0861794143" lon="7.5270601950">
				<ele>494.4</ele>
				<time>2021-04-12T10:23:13+02:00</time>
				<extensions>
					<swisstopo:routepoint_id>865791295</swisstopo:routepoint_id>
				</extensions>
			</trkpt>
			<trkpt lat="47.0862081614" lon="7.5270275955">
				<ele>494.3</ele>
				<time>2021-04-12T10:23:14+02:00</time>
				<extensions>
					<swisstopo:routepoint_id>5102993</swisstopo:routepoint_id>
				</extensions>
			</trkpt>
			<trkpt lat="47.0862282206" lon="7.5269991019">
				<ele>494.3</ele>
				<time>2021-04-12T10:23:15+02:00</time>
				<extensions>
					<swisstopo:routepoint_id>2014141118</swisstopo:routepoint_id>
				</extensions>
			</trkpt>
			<trkpt lat="47.0862408366" lon="7.5269744799">
				<ele>494.3</ele>
				<time>2021-04-12T10:23:16+02:00</time>
				<extensions>
					<swisstopo:routepoint_id>885042565</swisstopo:routepoint_id>
				</extensions>
			</trkpt>
			<trkpt lat="47.0862474275" lon="7.5269536859">
				<ele>494.2</ele>
				<time>2021-04-12T10:23:17+02:00</time>
				<extensions>
					<swisstopo:routepoint_id>1438650833</swisstopo:routepoint_id>
				</extensions>
			</trkpt>
			<trkpt lat="47.0862494604" lon="7.5269366394">
				<ele>494.2</ele>
				<time>2021-04-12T10:23:18+02:00</time>
				<extensions>
					<swisstopo:routepoint_id>886168658</swisstopo:routepoint_id>
				</extensions>
			</trkpt>
			<trkpt lat="47.0862482920" lon="7.5269227597">
				<ele>494.2</ele>
				<time>2021-04-12T10:23:19+02:00</time>
				<extensions>
					<swisstopo:routepoint_id>1037543061</swisstopo:routepoint_id>
				</extensions>
			</trkpt>
			<trkpt lat="47.0862459831" lon="7.5269118958">
				<ele>494.1</ele>
				<time>2021-04-12T10:23:20+02:00</time>
				<extensions>
					<swisstopo:routepoint_id>419012587</swisstopo:routepoint_id>
				</extensions>
			</trkpt>
			<trkpt lat="47.0862439155" lon="7.5269032868">
				<ele>494.1</ele>
				<time>2021-04-12T10:23:21+02:00</time>
				<extensions>
					<swisstopo:routepoint_id>745671196</swisstopo:routepoint_id>
				</extensions>
			</trkpt>
			<trkpt lat="47.0862431808" lon="7.5268961823">
				<ele>494.1</ele>
				<time>2021-04-12T10:23:22+02:00</time>
				<extensions>
					<swisstopo:routepoint_id>1928710927</swisstopo:routepoint_id>
				</extensions>
			</trkpt>
			<trkpt lat="47.0862438963" lon="7.5268903483">
				<ele>494.1</ele>
				<time>2021-04-12T10:23:23+02:00</time>
				<extensions>
					<swisstopo:routepoint_id>1726382271</swisstopo:routepoint_id>
				</extensions>
			</trkpt>
			<trkpt lat="47.0862459051" lon="7.5268857378">
				<ele>494.1</ele>
				<time>2021-04-12T10:23:24+02:00</time>
				<extensions>
					<swisstopo:routepoint_id>655274080</swisstopo:routepoint_id>
				</extensions>
			</trkpt>
			<trkpt lat="47.0862489084" lon="7.5268821354">
				<ele>494.1</ele>
				<time>2021-04-12T10:23:25+02:00</time>
				<extensions>
					<swisstopo:routepoint_id>895320744</swisstopo:routepoint_id>
				</extensions>
			</trkpt>
			<trkpt lat="47.0862530467" lon="7.5268792570">
				<ele>494.1</ele>
				<time>2021-04-12T10:23:26+02:00</time>
				<extensions>
					<swisstopo:routepoint_id>237829879</swisstopo:routepoint_id>
				</extensions>
			</trkpt>
			<trkpt lat="47.0862590964" lon="7.5268768784">
				<ele>494.0</ele>
				<time>2021-04-12T10:23:27+02:00</time>
				<extensions>
					<swisstopo:routepoint_id>739709286</swisstopo:routepoint_id>
				</extensions>
			</trkpt>
			<trkpt lat="47.0862690262" lon="7.5268746521">
				<ele>494.0</ele>
				<time>2021-04-12T10:23:28+02:00</time>
				<extensions>
					<swisstopo:routepoint_id>511137319</swisstopo:routepoint_id>
				</extensions>
			</trkpt>
			<trkpt lat="47.0862859248" lon="7.5268722912">
				<ele>494.0</ele>
				<time>2021-04-12T10:23:29+02:00</time>
				<extensions>
					<swisstopo:routepoint_id>750332433</swisstopo:routepoint_id>
				</extensions>
			</trkpt>
			<trkpt lat="47.0863127455" lon="7.5268690941">
				<ele>493.9</ele>
				<time>2021-04-12T10:23:30+02:00</time>
				<extensions>
					<swisstopo:routepoint_id>813226247</swisstopo:routepoint_id>
				</extensions>
			</trkpt>
			<trkpt lat="47.0863520231" lon="7.5268639270">
				<ele>493.9</ele>
				<time>2021-04-12T10:23:31+02:00</time>
				<extensions>
					<swisstopo:routepoint_id>1307603821</swisstopo:routepoint_id>
				</extensions>
			</trkpt>
			<trkpt lat="47.0864050609" lon="7.5268552344">
				<ele>493.8</ele>
				<time>2021-04-12T10:23:32+02:00</time>
				<extensions>
					<swisstopo:routepoint_id>1697259796</swisstopo:routepoint_id>
				</extensions>
			</trkpt>
			<trkpt lat="47.0864725034" lon="7.5268420357">
				<ele>493.8</ele>
				<time>2021-04-12T10:23:33+02:00</time>
				<extensions>
					<swisstopo:routepoint_id>820108271</swisstopo:routepoint_id>
				</extensions>
			</trkpt>
			<trkpt lat="47.0865539519" lon="7.5268245414">
				<ele>493.8</ele>
				<time>2021-04-12T10:23:34+02:00</time>
				<extensions>
					<swisstopo:routepoint_id>1009664251</swisstopo:routepoint_id>
				</extensions>
			</trkpt>
			<trkpt lat="47.0866483418" lon="7.5268028104">
				<ele>493.7</ele>
				<time>2021-04-12T10:23:35+02:00</time>
				<extensions>
					<swisstopo:routepoint_id>11287963</swisstopo:routepoint_id>
				</extensions>
			</trkpt>
			<trkpt lat="47.0867545824" lon="7.5267771914">
				<ele>493.7</ele>
				<time>2021-04-12T10:23:36+02:00</time>
				<extensions>
					<swisstopo:routepoint_id>738233205</swisstopo:routepoint_id>
				</extensions>
			</trkpt>
			<trkpt lat="47.0868710636" lon="7.5267483967">
				<ele>493.6</ele>
				<time>2021-04-12T10:23:37+02:00</time>
				<extensions>
					<swisstopo:routepoint_id>1472447716</swisstopo:routepoint_id>
				</extensions>
			</trkpt>
			<trkpt lat="47.0869957039" lon="7.5267170141">
				<ele>493.5</ele>
				<time>2021-04-12T10:23:38+02:00</time>
				<extensions>
					<swisstopo:routepoint_id>1974698431</swisstopo:routepoint_id>
				</extensions>
			</trkpt>
			<trkpt lat="47.0871263934" lon="7.5266835550">
				<ele>493.5</ele>
				<time>2021-04-12T10:23:39+02:00</time>
				<extensions>
					<swisstopo:routepoint_id>1544249079</swisstopo:routepoint_id>
				</extensions>
			</trkpt>
			<trkpt lat="47.0872611463" lon="7.5266488558">
				<ele>493.5</ele>
				<time>2021-04-12T10:23:40+02:00</time>
				<extensions>
					<swisstopo:routepoint_id>1854396758</swisstopo:routepoint_id>
				</extensions>
			</trkpt>
			<trkpt lat="47.0873981502" lon="7.5266135234">
				<ele>493.5</ele>
				<time>2021-04-12T10:23:41+02:00</time>
				<extensions>
					<swisstopo:routepoint_id>416142795</swisstopo:routepoint_id>
				</extensions>
			</trkpt>
			<trkpt lat="47.0875361236" lon="7.5265784773">
				<ele>493.6</ele>
				<time>2021-04-12T10:23:42+02:00</time>
				<extensions>
					<swisstopo:routepoint_id>1905200933</swisstopo:routepoint_id>
				</extensions>
			</trkpt>
			<trkpt lat="47.0876738872" lon="7.5265443066">
				<ele>493.7</ele>
				<time>2021-04-12T10:23:43+02:00</time>
				<extensions>
					<swisstopo:routepoint_id>1730904161</swisstopo:routepoint_id>
				</extensions>
			</trkpt>
			<trkpt lat="47.0878108120" lon="7.5265113331">
				<ele>493.9</ele>
				<time>2021-04-12T10:23:44+02:00</time>
				<extensions>
					<swisstopo:routepoint_id>1492751665</swisstopo:routepoint_id>
				</extensions>
			</trkpt>
			<trkpt lat="47.0879467572" lon="7.5264805697">
				<ele>494.1</ele>
				<time>2021-04-12T10:23:45+02:00</time>
				<extensions>
					<swisstopo:routepoint_id>1773269401</swisstopo:routepoint_id>
				</extensions>
			</trkpt>
			<trkpt lat="47.0880819930" lon="7.5264525215">
				<ele>494.4</ele>
				<time>2021-04-12T10:23:46+02:00</time>
				<extensions>
					<swisstopo:routepoint_id>560769541</swisstopo:routepoint_id>
				</extensions>
			</trkpt>
			<trkpt lat="47.0882179575" lon="7.5264278220">
				<ele>494.6</ele>
				<time>2021-04-12T10:23:47+02:00</time>
				<extensions>
					<swisstopo:routepoint_id>1695432551</swisstopo:routepoint_id>
				</extensions>
			</trkpt>
			<trkpt lat="47.0883547594" lon="7.5264066536">
				<ele>494.9</ele>
				<time>2021-04-12T10:23:48+02:00</time>
				<extensions>
					<swisstopo:routepoint_id>174372614</swisstopo:routepoint_id>
				</extensions>
			</trkpt>
			<trkpt lat="47.0884918357" lon="7.5263901414">
				<ele>495.4</ele>
				<time>2021-04-12T10:23:49+02:00</time>
				<extensions>
					<swisstopo:routepoint_id>1512828990</swisstopo:routepoint_id>
				</extensions>
			</trkpt>
			<trkpt lat="47.0886304951" lon="7.5263774776">
				<ele>495.9</ele>
				<time>2021-04-12T10:23:50+02:00</time>
				<extensions>
					<swisstopo:routepoint_id>2057938097</swisstopo:routepoint_id>
				</extensions>
			</trkpt>
			<trkpt lat="47.0887725988" lon="7.5263681450">
				<ele>496.6</ele>
				<time>2021-04-12T10:23:51+02:00</time>
				<extensions>
					<swisstopo:routepoint_id>393977697</swisstopo:routepoint_id>
				</extensions>
			</trkpt>
			<trkpt lat="47.0889198660" lon="7.5263624008">
				<ele>497.3</ele>
				<time>2021-04-12T10:23:52+02:00</time>
				<extensions>
					<swisstopo:routepoint_id>891069778</swisstopo:routepoint_id>
				</extensions>
			</trkpt>
			<trkpt lat="47.0890739363" lon="7.5263603073">
				<ele>498.2</ele>
				<time>2021-04-12T10:23:53+02:00</time>
				<extensions>
					<swisstopo:routepoint_id>1806288315</swisstopo:routepoint_id>
				</extensions>
			</trkpt>
			<trkpt lat="47.0892357451" lon="7.5263624683">
				<ele>499.1</ele>
				<time>2021-04-12T10:23:54+02:00</time>
				<extensions>
					<swisstopo:routepoint_id>1458876213</swisstopo:routepoint_id>
				</extensions>
			</trkpt>
			<trkpt lat="47.0894058217" lon="7.5263690049">
				<ele>500.1</ele>
				<time>2021-04-12T10:23:55+02:00</time>
				<extensions>
					<swisstopo:routepoint_id>1511714092</swisstopo:routepoint_id>
				</extensions>
			</trkpt>
			<trkpt lat="47.0895838437" lon="7.5263791261">
				<ele>501.0</ele>
				<time>2021-04-12T10:23:56+02:00</time>
				<extensions>
					<swisstopo:routepoint_id>499716587</swisstopo:routepoint_id>
				</extensions>
			</trkpt>
			<trkpt lat="47.0897689512" lon="7.5263911756">
				<ele>502.0</ele>
				<time>2021-04-12T10:23:57+02:00</time>
				<extensions>
					<swisstopo:routepoint_id>2075617939</swisstopo:routepoint_id>
				</extensions>
			</trkpt>
			<trkpt lat="47.0899605345" lon="7.5264037349">
				<ele>502.9</ele>
				<time>2021-04-12T10:23:58+02:00</time>
				<extensions>
					<swisstopo:routepoint_id>1186338905</swisstopo:routepoint_id>
				</extensions>
			</trkpt>
			<trkpt lat="47.0901572414" lon="7.5264153222">
				<ele>503.7</ele>
				<time>2021-04-12T10:23:59+02:00</time>
				<extensions>
					<swisstopo:routepoint_id>1559797587</swisstopo:routepoint_id>
				</extensions>
			</trkpt>
			<trkpt lat="47.0903574746" lon="7.5264234583">
				<ele>504.5</ele>
				<time>2021-04-12T10:24:00+02:00</time>
				<extensions>
					<swisstopo:routepoint_id>1185165780</swisstopo:routepoint_id>
				</extensions>
			</trkpt>
			<trkpt lat="47.0905595310" lon="7.5264259320">
				<ele>505.2</ele>
				<time>2021-04-12T10:24:01+02:00</time>
				<extensions>
					<swisstopo:routepoint_id>1170438535</swisstopo:routepoint_id>
				</extensions>
			</trkpt>
			<trkpt lat="47.0907620053" lon="7.5264209628">
				<ele>505.8</ele>
				<time>2021-04-12T10:24:02+02:00</time>
				<extensions>
					<swisstopo:routepoint_id>610251225</swisstopo:routepoint_id>
				</extensions>
			</trkpt>
			<trkpt lat="47.0909639714" lon="7.5264087077">
				<ele>506.2</ele>
				<time>2021-04-12T10:24:03+02:00</time>
				<extensions>
					<swisstopo:routepoint_id>110440503</swisstopo:routepoint_id>
				</extensions>
			</trkpt>
			<trkpt lat="47.0911650161" lon="7.5263892094">
				<ele>506.4</ele>
				<time>2021-04-12T10:24:04+02:00</time>
				<extensions>
					<swisstopo:routepoint_id>747662913</swisstopo:routepoint_id>
				</extensions>
			</trkpt>
			<trkpt lat="47.0913646432" lon="7.5263623408">
				<ele>506.3</ele>
				<time>2021-04-12T10:24:05+02:00</time>
				<extensions>
					<swisstopo:routepoint_id>1043760194</swisstopo:routepoint_id>
				</extensions>
			</trkpt>
			<trkpt lat="47.0915622857" lon="7.5263273182">
				<ele>505.9</ele>
				<time>2021-04-12T10:24:06+02:00</time>
				<extensions>
					<swisstopo:routepoint_id>1831151862</swisstopo:routepoint_id>
				</extensions>
			</trkpt>
			<trkpt lat="47.0917571518" lon="7.5262826680">
				<ele>505.3</ele>
				<time>2021-04-12T10:24:07+02:00</time>
				<extensions>
					<swisstopo:routepoint_id>581199477</swisstopo:routepoint_id>
				</extensions>
			</trkpt>
			<trkpt lat="47.0919494829" lon="7.5262275904">
				<ele>504.6</ele>
				<time>2021-04-12T10:24:08+02:00</time>
				<extensions>
					<swisstopo:routepoint_id>1463983383</swisstopo:routepoint_id>
				</extensions>
			</trkpt>
			<trkpt lat="47.0921399539" lon="7.5261633836">
				<ele>503.9</ele>
				<time>2021-04-12T10:24:09+02:00</time>
				<extensions>
					<swisstopo:routepoint_id>1448574402</swisstopo:routepoint_id>
				</extensions>
			</trkpt>
			<trkpt lat="47.0923286409" lon="7.5260927365">
				<ele>503.1</ele>
				<time>2021-04-12T10:24:10+02:00</time>
				<extensions>
					<swisstopo:routepoint_id>167868375</swisstopo:routepoint_id>
				</extensions>
			</trkpt>
			<trkpt lat="47.0925149783" lon="7.5260170937">
				<ele>502.4</ele>
				<time>2021-04-12T10:24:11+02:00</time>
				<extensions>
					<swisstopo:routepoint_id>1717750114</swisstopo:routepoint_id>
				</extensions>
			</trkpt>
			<trkpt lat="47.0926983515" lon="7.5259378034">
				<ele>501.7</ele>
				<time>2021-04-12T10:24:12+02:00</time>
				<extensions>
					<swisstopo:routepoint_id>1603499377</swisstopo:routepoint_id>
				</extensions>
			</trkpt>
			<trkpt lat="47.0928785382" lon="7.5258561956">
				<ele>501.2</ele>
				<time>2021-04-12T10:24:13+02:00</time>
				<extensions>
					<swisstopo:routepoint_id>1241743036</swisstopo:routepoint_id>
				</extensions>
			</trkpt>
			<trkpt lat="47.0930550939" lon="7.5257744644">
				<ele>500.7</ele>
				<time>2021-04-12T10:24:14+02:00</time>
				<extensions>
					<swisstopo:routepoint_id>729124506</swisstopo:routepoint_id>
				</extensions>
			</trkpt>
			<trkpt lat="47.0932283332" lon="7.5256944539">
				<ele>500.3</ele>
				<time>2021-04-12T10:24:15+02:00</time>
				<extensions>
					<swisstopo:routepoint_id>853882560</swisstopo:routepoint_id>
				</extensions>
			</trkpt>
			<trkpt lat="47.0933986645" lon="7.5256184425">
				<ele>499.9</ele>
				<time>2021-04-12T10:24:16+02:00</time>
				<extensions>
					<swisstopo:routepoint_id>1718456666</swisstopo:routepoint_id>
				</extensions>
			</trkpt>
			<trkpt lat="47.0935668985" lon="7.5255491057">
				<ele>499.6</ele>
				<time>2021-04-12T10:24:17+02:00</time>
				<extensions>
					<swisstopo:routepoint_id>593616959</swisstopo:routepoint_id>
				</extensions>
			</trkpt>
			<trkpt lat="47.0937340336" lon="7.5254899275">
				<ele>499.3</ele>
				<time>2021-04-12T10:24:18+02:00</time>
				<extensions>
					<swisstopo:routepoint_id>1858689598</swisstopo:routepoint_id>
				</extensions>
			</trkpt>
			<trkpt lat="47.0939009425" lon="7.5254451694">
				<ele>499.2</ele>
				<time>2021-04-12T10:24:19+02:00</time>
				<extensions>
					<swisstopo:routepoint_id>1698944324</swisstopo:routepoint_id>
				</extensions>
			</trkpt>
			<trkpt lat="47.0940678780" lon="7.5254187358">
				<ele>499.1</ele>
				<time>2021-04-12T10:24:20+02:00</time>
				<extensions>
					<swisstopo:routepoint_id>1214682956</swisstopo:routepoint_id>
				</extensions>
			</trkpt>
			<trkpt lat="47.0942351254" lon="7.5254110809">
				<ele>499.1</ele>
				<time>2021-04-12T10:24:21+02:00</time>
				<extensions>
					<swisstopo:routepoint_id>1196893110</swisstopo:routepoint_id>
				</extensions>
			</trkpt>
			<trkpt lat="47.0944025258" lon="7.5254183504">
				<ele>499.1</ele>
				<time>2021-04-12T10:24:22+02:00</time>
				<extensions>
					<swisstopo:routepoint_id>703178321</swisstopo:routepoint_id>
				</extensions>
			</trkpt>
			<trkpt lat="47.0945700810" lon="7.5254364810">
				<ele>499.0</ele>
				<time>2021-04-12T10:24:23+02:00</time>
				<extensions>
					<swisstopo:routepoint_id>715531606</swisstopo:routepoint_id>
				</extensions>
			</trkpt>
			<trkpt lat="47.0947378198" lon="7.5254606326">
				<ele>498.9</ele>
				<time>2021-04-12T10:24:24+02:00</time>
				<extensions>
					<swisstopo:routepoint_id>31278842</swisstopo:routepoint_id>
				</extensions>
			</trkpt>
			<trkpt lat="47.0949056787" lon="7.5254854054">
				<ele>498.8</ele>
				<time>2021-04-12T10:24:25+02:00</time>
				<extensions>
					<swisstopo:routepoint_id>1717487626</swisstopo:routepoint_id>
				</extensions>
			</trkpt>
			<trkpt lat="47.0950736577" lon="7.5255061666">
				<ele>498.6</ele>
				<time>2021-04-12T10:24:26+02:00</time>
				<extensions>
					<swisstopo:routepoint_id>1486830855</swisstopo:routepoint_id>
				</extensions>
			</trkpt>
			<trkpt lat="47.0952420404" lon="7.5255202255">
				<ele>498.3</ele>
				<time>2021-04-12T10:24:27+02:00</time>
				<extensions>
					<swisstopo:routepoint_id>1046463493</swisstopo:routepoint_id>
				</extensions>
			</trkpt>
			<trkpt lat="47.0954105758" lon="7.5255255053">
				<ele>498.0</ele>
				<time>2021-04-12T10:24:28+02:00</time>
				<extensions>
					<swisstopo:routepoint_id>20857921</swisstopo:routepoint_id>
				</extensions>
			</trkpt>
			<trkpt lat="47.0955792554" lon="7.5255214701">
				<ele>497.6</ele>
				<time>2021-04-12T10:24:29+02:00</time>
				<extensions>
					<swisstopo:routepoint_id>519243786</swisstopo:routepoint_id>
				</extensions>
			</trkpt>
			<trkpt lat="47.0957484584" lon="7.5255087235">
				<ele>497.1</ele>
				<time>2021-04-12T10:24:30+02:00</time>
				<extensions>
					<swisstopo:routepoint_id>1704253541</swisstopo:routepoint_id>
				</extensions>
			</trkpt>
			<trkpt lat="47.0959183250" lon="7.5254884068">
				<ele>496.6</ele>
				<time>2021-04-12T10:24:31+02:00</time>
				<extensions>
					<swisstopo:routepoint_id>252379901</swisstopo:routepoint_id>
				</extensions>
			</trkpt>
			<trkpt lat="47.0960887175" lon="7.5254619194">
				<ele>496.0</ele>
				<time>2021-04-12T10:24:32+02:00</time>
				<extensions>
					<swisstopo:routepoint_id>468793282</swisstopo:routepoint_id>
				</extensions>
			</trkpt>
			<trkpt lat="47.0962599392" lon="7.5254309206">
				<ele>495.5</ele>
				<time>2021-04-12T10:24:33+02:00</time>
				<extensions>
					<swisstopo:routepoint_id>2038673378</swisstopo:routepoint_id>
				</extensions>
			</trkpt>
			<trkpt lat="47.0964317191" lon="7.5253966657">
				<ele>495.0</ele>
				<time>2021-04-12T10:24:34+02:00</time>
				<extensions>
					<swisstopo:routepoint_id>881876161</swisstopo:routepoint_id>
				</extensions>
			</trkpt>
			<trkpt lat="47.0966040283" lon="7.5253594083">
				<ele>494.6</ele>
				<time>2021-04-12T10:24:35+02:00</time>
				<extensions>
					<swisstopo:routepoint_id>1907989980</swisstopo:routepoint_id>
				</extensions>
			</trkpt>
			<trkpt lat="47.0967761795" lon="7.5253195914">
				<ele>494.4</ele>
				<time>2021-04-12T10:24:36+02:00</time>
				<extensions>
					<swisstopo:routepoint_id>1361776856</swisstopo:routepoint_id>
				</extensions>
			</trkpt>
			<trkpt lat="47.0969476816" lon="7.5252782913">
				<ele>494.4</ele>
				<time>2021-04-12T10:24:37+02:00</time>
				<extensions>
					<swisstopo:routepoint_id>1650392713</swisstopo:routepoint_id>
				</extensions>
			</trkpt>
			<trkpt lat="47.0971181900" lon="7.5252363634">
				<ele>494.5</ele>
				<time>2021-04-12T10:24:38+02:00</time>
				<extensions>
					<swisstopo:routepoint_id>1251542739</swisstopo:routepoint_id>
				</extensions>
			</trkpt>
			<trkpt lat="47.0972877508" lon="7.5251944704">
				<ele>494.8</ele>
				<time>2021-04-12T10:24:39+02:00</time>
				<extensions>
					<swisstopo:routepoint_id>76492008</swisstopo:routepoint_id>
				</extensions>
			</trkpt>
			<trkpt lat="47.0974559746" lon="7.5251527522">
				<ele>495.3</ele>
				<time>2021-04-12T10:24:40+02:00</time>
				<extensions>
					<swisstopo:routepoint_id>1405957550</swisstopo:routepoint_id>
				</extensions>
			</trkpt>
			<trkpt lat="47.0976231419" lon="7.5251116723">
				<ele>495.8</ele>
				<time>2021-04-12T10:24:41+02:00</time>
				<extensions>
					<swisstopo:routepoint_id>1165974909</swisstopo:routepoint_id>
				</extensions>
			</trkpt>
			<trkpt lat="47.0977891229" lon="7.5250713872">
				<ele>496.4</ele>
				<time>2021-04-12T10:24:42+02:00</time>
				<extensions>
					<swisstopo:routepoint_id>752016688</swisstopo:routepoint_id>
				</extensions>
			</trkpt>
			<trkpt lat="47.0979542620" lon="7.5250317289">
				<ele>497.0</ele>
				<time>2021-04-12T10:24:43+02:00</time>
				<extensions>
					<swisstopo:routepoint_id>1203212621</swisstopo:routepoint_id>
				</extensions>
			</trkpt>
			<trkpt lat="47.0981187699" lon="7.5249928776">
				<ele>497.6</ele>
				<time>2021-04-12T10:24:44+02:00</time>
				<extensions>
					<swisstopo:routepoint_id>1688500995</swisstopo:routepoint_id>
				</extensions>
			</trkpt>
			<trkpt lat="47.0982831986" lon="7.5249549848">
				<ele>498.2</ele>
				<time>2021-04-12T10:24:45+02:00</time>
				<extensions>
					<swisstopo:routepoint_id>1787311507</swisstopo:routepoint_id>
				</extensions>
			</trkpt>
			<trkpt lat="47.0984477560" lon="7.5249180232">
				<ele>498.7</ele>
				<time>2021-04-12T10:24:46+02:00</time>
				<extensions>
					<swisstopo:routepoint_id>343243913</swisstopo:routepoint_id>
				</extensions>
			</trkpt>
			<trkpt lat="47.0986127316" lon="7.5248814533">
				<ele>499.2</ele>
				<time>2021-04-12T10:24:47+02:00</time>
				<extensions>
					<swisstopo:routepoint_id>759369949</swisstopo:routepoint_id>
				</extensions>
			</trkpt>
			<trkpt lat="47.0987782938" lon="7.5248447561">
				<ele>499.7</ele>
				<time>2021-04-12T10:24:48+02:00</time>
				<extensions>
					<swisstopo:routepoint_id>235418722</swisstopo:routepoint_id>
				</extensions>
			</trkpt>
			<trkpt lat="47.0989447406" lon="7.5248077976">
				<ele>500.2</ele>
				<time>2021-04-12T10:24:49+02:00</time>
				<extensions>
					<swisstopo:routepoint_id>1017582880</swisstopo:routepoint_id>
				</extensions>
			</trkpt>
			<trkpt lat="47.0991124113" lon="7.5247705741">
				<ele>500.7</ele>
				<time>2021-04-12T10:24:50+02:00</time>
				<extensions>
					<swisstopo:routepoint_id>2103183099</swisstopo:routepoint_id>
				</extensions>
			</trkpt>
			<trkpt lat="47.0992813159" lon="7.5247333143">
				<ele>501.2</ele>
				<time>2021-04-12T10:24:51+02:00</time>
				<extensions>
					<swisstopo:routepoint_id>617515273</swisstopo:routepoint_id>
				</extensions>
			</trkpt>
			<trkpt lat="47.0994512784" lon="7.5246962277">
				<ele>501.7</ele>
				<time>2021-04-12T10:24:52+02:00</time>
				<extensions>
					<swisstopo:routepoint_id>1938211007</swisstopo:routepoint_id>
				</extensions>
			</trkpt>
			<trkpt lat="47.0996222009" lon="7.5246601064">
				<ele>502.2</ele>
				<time>2021-04-12T10:24:53+02:00</time>
				<extensions>
					<swisstopo:routepoint_id>332953306</swisstopo:routepoint_id>
				</extensions>
			</trkpt>
			<trkpt lat="47.0997941302" lon="7.5246249677">
				<ele>502.8</ele>
				<time>2021-04-12T10:24:54+02:00</time>
				<extensions>
					<swisstopo:routepoint_id>1751313507</swisstopo:routepoint_id>
				</extensions>
			</trkpt>
			<trkpt lat="47.0999665692" lon="7.5245905918">
				<ele>503.3</ele>
				<time>2021-04-12T10:24:55+02:00</time>
				<extensions>
					<swisstopo:routepoint_id>915246367</swisstopo:routepoint_id>
				</extensions>
			</trkpt>
			<trkpt lat="47.1001392703" lon="7.5245569154">
				<ele>503.9</ele>
				<time>2021-04-12T10:24:56+02:00</time>
				<extensions>
					<swisstopo:routepoint_id>120326708</swisstopo:routepoint_id>
				</extensions>
			</trkpt>
			<trkpt lat="47.1003122363" lon="7.5245247326">
				<ele>504.5</ele>
				<time>2021-04-12T10:24:57+02:00</time>
				<extensions>
					<swisstopo:routepoint_id>1548869529</swisstopo:routepoint_id>
				</extensions>
			</trkpt>
			<trkpt lat="47.1004846581" lon="7.5244957249">
				<ele>505.1</ele>
				<time>2021-04-12T10:24:58+02:00</time>
				<extensions>
					<swisstopo:routepoint_id>53404969</swisstopo:routepoint_id>
				</extensions>
			</trkpt>
			<trkpt lat="47.1006554032" lon="7.5244719707">
				<ele>505.8</ele>
				<time>2021-04-12T10:24:59+02:00</time>
				<extensions>
					<swisstopo:routepoint_id>2076633184</swisstopo:routepoint_id>
				</extensions>
			</trkpt>
			<trkpt lat="47.1008239975" lon="7.5244540879">
				<ele>506.6</ele>
				<time>2021-04-12T10:25:00+02:00</time>
				<extensions>
					<swisstopo:routepoint_id>1069692444</swisstopo:routepoint_id>
				</extensions>
			</trkpt>
			<trkpt lat="47.1009903073" lon="7.5244415124">
				<ele>507.2</ele>
				<time>2021-04-12T10:25:01+02:00</time>
				<extensions>
					<swisstopo:routepoint_id>1735297271</swisstopo:routepoint_id>
				</extensions>
			</trkpt>
			<trkpt lat="47.1011547152" lon="7.5244335027">
				<ele>507.9</ele>
				<time>2021-04-12T10:25:02+02:00</time>
				<extensions>
					<swisstopo:routepoint_id>165823790</swisstopo:routepoint_id>
				</extensions>
			</trkpt>
			<trkpt lat="47.1013173144" lon="7.5244282426">
				<ele>508.4</ele>
				<time>2021-04-12T10:25:03+02:00</time>
				<extensions>
					<swisstopo:routepoint_id>1714148371</swisstopo:routepoint_id>
				</extensions>
			</trkpt>
			<trkpt lat="47.1014783580" lon="7.5244239232">
				<ele>508.9</ele>
				<time>2021-04-12T10:25:04+02:00</time>
				<extensions>
					<swisstopo:routepoint_id>1198546892</swisstopo:routepoint_id>
				</extensions>
			</trkpt>
			<trkpt lat="47.1016383123" lon="7.5244193232">
				<ele>509.3</ele>
				<time>2021-04-12T10:25:05+02:00</time>
				<extensions>
					<swisstopo:routepoint_id>581004984</swisstopo:routepoint_id>
				</extensions>
			</trkpt>
			<trkpt lat="47.1017977663" lon="7.5244130111">
				<ele>509.7</ele>
				<time>2021-04-12T10:25:06+02:00</time>
				<extensions>
					<swisstopo:routepoint_id>342623179</swisstopo:routepoint_id>
				</extensions>
			</trkpt>
			<trkpt lat="47.1019567835" lon="7.5244043364">
				<ele>510.0</ele>
				<time>2021-04-12T10:25:07+02:00</time>
				<extensions>
					<swisstopo:routepoint_id>1064111846</swisstopo:routepoint_id>
				</extensions>
			</trkpt>
			<trkpt lat="47.1021155603" lon="7.5243933445">
				<ele>510.4</ele>
				<time>2021-04-12T10:25:08+02:00</time>
				<extensions>
					<swisstopo:routepoint_id>283983506</swisstopo:routepoint_id>
				</extensions>
			</trkpt>
			<trkpt lat="47.1022738446" lon="7.5243799866">
				<ele>510.7</ele>
				<time>2021-04-12T10:25:09+02:00</time>
				<extensions>
					<swisstopo:routepoint_id>1202121708</swisstopo:routepoint_id>
				</extensions>
			</trkpt>
			<trkpt lat="47.1024312537" lon="7.5243645699">
				<ele>511.1</ele>
				<time>2021-04-12T10:25:10+02:00</time>
				<extensions>
					<swisstopo:routepoint_id>533395380</swisstopo:routepoint_id>
				</extensions>
			</trkpt>
			<trkpt lat="47.1025871851" lon="7.5243471989">
				<ele>511.6</ele>
				<time>2021-04-12T10:25:11+02:00</time>
				<extensions>
					<swisstopo:routepoint_id>1179409082</swisstopo:routepoint_id>
				</extensions>
			</trkpt>
			<trkpt lat="47.1027412003" lon="7.5243275423">
				<ele>512.0</ele>
				<time>2021-04-12T10:25:12+02:00</time>
				<extensions>
					<swisstopo:routepoint_id>1054379364</swisstopo:routepoint_id>
				</extensions>
			</trkpt>
			<trkpt lat="47.1028930319" lon="7.5243052340">
				<ele>512.3</ele>
				<time>2021-04-12T10:25:13+02:00</time>
				<extensions>
					<swisstopo:routepoint_id>2066399351</swisstopo:routepoint_id>
				</extensions>
			</trkpt>
			<trkpt lat="47.1030426031" lon="7.5242800189">
				<ele>512.5</ele>
				<time>2021-04-12T10:25:14+02:00</time>
				<extensions>
					<swisstopo:routepoint_id>868352973</swisstopo:routepoint_id>
				</extensions>
			</trkpt>
			<trkpt lat="47.1031899345" lon="7.5242511615">
				<ele>512.6</ele>
				<time>2021-04-12T10:25:15+02:00</time>
				<extensions>
					<swisstopo:routepoint_id>109552199</swisstopo:routepoint_id>
				</extensions>
			</trkpt>
			<trkpt lat="47.1033351998" lon="7.5242186816">
				<ele>512.6</ele>
				<time>2021-04-12T10:25:16+02:00</time>
				<extensions>
					<swisstopo:routepoint_id>850323114</swisstopo:routepoint_id>
				</extensions>
			</trkpt>
			<trkpt lat="47.1034786937" lon="7.5241833903">
				<ele>512.5</ele>
				<time>2021-04-12T10:25:17+02:00</time>
				<extensions>
					<swisstopo:routepoint_id>2024389860</swisstopo:routepoint_id>
				</extensions>
			</trkpt>
			<trkpt lat="47.1036204358" lon="7.5241463214">
				<ele>512.2</ele>
				<time>2021-04-12T10:25:18+02:00</time>
				<extensions>
					<swisstopo:routepoint_id>1336957599</swisstopo:routepoint_id>
				</extensions>
			</trkpt>
			<trkpt lat="47.1037604699" lon="7.5241075781">
				<ele>511.9</ele>
				<time>2021-04-12T10:25:19+02:00</time>
				<extensions>
					<swisstopo:routepoint_id>1124967832</swisstopo:routepoint_id>
				</extensions>
			</trkpt>
			<trkpt lat="47.1038989322" lon="7.5240675104">
				<ele>511.4</ele>
				<time>2021-04-12T10:25:20+02:00</time>
				<extensions>
					<swisstopo:routepoint_id>888324236</swisstopo:routepoint_id>
				</extensions>
			</trkpt>
			<trkpt lat="47.1040359669" lon="7.5240266073">
				<ele>511.0</ele>
				<time>2021-04-12T10:25:21+02:00</time>
				<extensions>
					<swisstopo:routepoint_id>759120508</swisstopo:routepoint_id>
				</extensions>
			</trkpt>
			<trkpt lat="47.1041719981" lon="7.5239862554">
				<ele>510.5</ele>
				<time>2021-04-12T10:25:22+02:00</time>
				<extensions>
					<swisstopo:routepoint_id>338031129</swisstopo:routepoint_id>
				</extensions>
			</trkpt>
			<trkpt lat="47.1043069370" lon="7.5239480965">
				<ele>510.0</ele>
				<time>2021-04-12T10:25:23+02:00</time>
				<extensions>
					<swisstopo:routepoint_id>1194938788</swisstopo:routepoint_id>
				</extensions>
			</trkpt>
			<trkpt lat="47.1044408836" lon="7.5239141017">
				<ele>509.5</ele>
				<time>2021-04-12T10:25:24+02:00</time>
				<extensions>
					<swisstopo:routepoint_id>69143172</swisstopo:routepoint_id>
				</extensions>
			</trkpt>
			<trkpt lat="47.1045740027" lon="7.5238860199">
				<ele>509.1</ele>
				<time>2021-04-12T10:25:25+02:00</time>
				<extensions>
					<swisstopo:routepoint_id>300638777</swisstopo:routepoint_id>
				</extensions>
			</trkpt>
			<trkpt lat="47.1047060432" lon="7.5238650685">
				<ele>508.7</ele>
				<time>2021-04-12T10:25:26+02:00</time>
				<extensions>
					<swisstopo:routepoint_id>1954387295</swisstopo:routepoint_id>
				</extensions>
			</trkpt>
			<trkpt lat="47.1048366086" lon="7.5238532041">
				<ele>508.4</ele>
				<time>2021-04-12T10:25:27+02:00</time>
				<extensions>
					<swisstopo:routepoint_id>1624886200</swisstopo:routepoint_id>
				</extensions>
			</trkpt>
			<trkpt lat="47.1049656494" lon="7.5238528434">
				<ele>508.1</ele>
				<time>2021-04-12T10:25:28+02:00</time>
				<extensions>
					<swisstopo:routepoint_id>2060308148</swisstopo:routepoint_id>
				</extensions>
			</trkpt>
			<trkpt lat="47.1050925399" lon="7.5238655581">
				<ele>507.9</ele>
				<time>2021-04-12T10:25:29+02:00</time>
				<extensions>
					<swisstopo:routepoint_id>1572719208</swisstopo:routepoint_id>
				</extensions>
			</trkpt>
			<trkpt lat="47.1052169352" lon="7.5238909052">
				<ele>507.7</ele>
				<time>2021-04-12T10:25:30+02:00</time>
				<extensions>
					<swisstopo:routepoint_id>1463001580</swisstopo:routepoint_id>
				</extensions>
			</trkpt>
			<trkpt lat="47.1053388780" lon="7.5239264387">
				<ele>507.6</ele>
				<time>2021-04-12T10:25:31+02:00</time>
				<extensions>
					<swisstopo:routepoint_id>2127280557</swisstopo:routepoint_id>
				</extensions>
			</trkpt>
			<trkpt lat="47.1054588665" lon="7.5239683618">
				<ele>507.4</ele>
				<time>2021-04-12T10:25:32+02:00</time>
				<extensions>
					<swisstopo:routepoint_id>1896566243</swisstopo:routepoint_id>
				</extensions>
			</trkpt>
			<trkpt lat="47.1055775057" lon="7.5240129426">
				<ele>507.3</ele>
				<time>2021-04-12T10:25:33+02:00</time>
				<extensions>
					<swisstopo:routepoint_id>489073680</swisstopo:routepoint_id>
				</extensions>
			</trkpt>
			<trkpt lat="47.1056955600" lon="7.5240570685">
				<ele>507.1</ele>
				<time>2021-04-12T10:25:34+02:00</time>
				<extensions>
					<swisstopo:routepoint_id>1441422691</swisstopo:routepoint_id>
				</extensions>
			</trkpt>
			<trkpt lat="47.1058134741" lon="7.5240986282">
				<ele>507.0</ele>
				<time>2021-04-12T10:25:35+02:00</time>
				<extensions>
					<swisstopo:routepoint_id>228145830</swisstopo:routepoint_id>
				</extensions>
			</trkpt>
			<trkpt lat="47.1059328090" lon="7.5241372105">
				<ele>506.9</ele>
				<time>2021-04-12T10:25:37+02:00</time>
				<extensions>
					<swisstopo:routepoint_id>1188654915</swisstopo:routepoint_id>
				</extensions>
			</trkpt>
			<trkpt lat="47.1060501958" lon="7.5241721640">
				<ele>506.7</ele>
				<time>2021-04-12T10:25:38+02:00</time>
				<extensions>
					<swisstopo:routepoint_id>1830272011</swisstopo:routepoint_id>
				</extensions>
			</trkpt>
			<trkpt lat="47.1061670740" lon="7.5242044559">
				<ele>506.6</ele>
				<time>2021-04-12T10:25:39+02:00</time>
				<extensions>
					<swisstopo:routepoint_id>825929249</swisstopo:routepoint_id>
				</extensions>
			</trkpt>
			<trkpt lat="47.1062828880" lon="7.5242363807">
				<ele>506.4</ele>
				<time>2021-04-12T10:25:39+02:00</time>
				<extensions>
					<swisstopo:routepoint_id>58593735</swisstopo:routepoint_id>
				</extensions>
			</trkpt>
			<trkpt lat="47.1063975243" lon="7.5242717635">
				<ele>506.3</ele>
				<time>2021-04-12T10:25:41+02:00</time>
				<extensions>
					<swisstopo:routepoint_id>1237393819</swisstopo:routepoint_id>
				</extensions>
			</trkpt>
			<trkpt lat="47.1065102128" lon="7.5243140167">
				<ele>506.2</ele>
				<time>2021-04-12T10:25:41+02:00</time>
				<extensions>
					<swisstopo:routepoint_id>646278385</swisstopo:routepoint_id>
				</extensions>
			</trkpt>
			<trkpt lat="47.1066214295" lon="7.5243653765">
				<ele>506.1</ele>
				<time>2021-04-12T10:25:42+02:00</time>
				<extensions>
					<swisstopo:routepoint_id>28530169</swisstopo:routepoint_id>
				</extensions>
			</trkpt>
			<trkpt lat="47.1067311929" lon="7.5244263525">
				<ele>506.0</ele>
				<time>2021-04-12T10:25:43+02:00</time>
				<extensions>
					<swisstopo:routepoint_id>617697102</swisstopo:routepoint_id>
				</extensions>
			</trkpt>
			<trkpt lat="47.1068400079" lon="7.5244963438">
				<ele>505.9</ele>
				<time>2021-04-12T10:25:44+02:00</time>
				<extensions>
					<swisstopo:routepoint_id>699243716</swisstopo:routepoint_id>
				</extensions>
			</trkpt>
			<trkpt lat="47.1069484157" lon="7.5245738924">
				<ele>505.7</ele>
				<time>2021-04-12T10:25:45+02:00</time>
				<extensions>
					<swisstopo:routepoint_id>1158618428</swisstopo:routepoint_id>
				</extensions>
			</trkpt>
			<trkpt lat="47.1070566987" lon="7.5246577886">
				<ele>505.6</ele>
				<time>2021-04-12T10:25:46+02:00</time>
				<extensions>
					<swisstopo:routepoint_id>1665692047</swisstopo:routepoint_id>
				</extensions>
			</trkpt>
			<trkpt lat="47.1071649610" lon="7.5247461291">
				<ele>505.4</ele>
				<time>2021-04-12T10:25:47+02:00</time>
				<extensions>
					<swisstopo:routepoint_id>689411637</swisstopo:routepoint_id>
				</extensions>
			</trkpt>
			<trkpt lat="47.1072734098" lon="7.5248374840">
				<ele>505.2</ele>
				<time>2021-04-12T10:25:48+02:00</time>
				<extensions>
					<swisstopo:routepoint_id>1267107494</swisstopo:routepoint_id>
				</extensions>
			</trkpt>
			<trkpt lat="47.1073823109" lon="7.5249302340">
				<ele>504.9</ele>
				<time>2021-04-12T10:25:49+02:00</time>
				<extensions>
					<swisstopo:routepoint_id>1827808006</swisstopo:routepoint_id>
				</extensions>
			</trkpt>
			<trkpt lat="47.1074917238" lon="7.5250237631">
				<ele>504.6</ele>
				<time>2021-04-12T10:25:50+02:00</time>
				<extensions>
					<swisstopo:routepoint_id>215586507</swisstopo:routepoint_id>
				</extensions>
			</trkpt>
			<trkpt lat="47.1076014608" lon="7.5251174092">
				<ele>504.3</ele>
				<time>2021-04-12T10:25:51+02:00</time>
				<extensions>
					<swisstopo:routepoint_id>557510660</swisstopo:routepoint_id>
				</extensions>
			</trkpt>
			<trkpt lat="47.1077112469" lon="7.5252108282">
				<ele>504.0</ele>
				<time>2021-04-12T10:25:52+02:00</time>
				<extensions>
					<swisstopo:routepoint_id>610510759</swisstopo:routepoint_id>
				</extensions>
			</trkpt>
			<trkpt lat="47.1078205848" lon="7.5253036680">
				<ele>503.7</ele>
				<time>2021-04-12T10:25:53+02:00</time>
				<extensions>
					<swisstopo:routepoint_id>177461147</swisstopo:routepoint_id>
				</extensions>
			</trkpt>
			<trkpt lat="47.1079295285" lon="7.5253952304">
				<ele>503.3</ele>
				<time>2021-04-12T10:25:54+02:00</time>
				<extensions>
					<swisstopo:routepoint_id>1882195593</swisstopo:routepoint_id>
				</extensions>
			</trkpt>
			<trkpt lat="47.1080377823" lon="7.5254848829">
				<ele>503.0</ele>
				<time>2021-04-12T10:25:55+02:00</time>
				<extensions>
					<swisstopo:routepoint_id>1627211241</swisstopo:routepoint_id>
				</extensions>
			</trkpt>
			<trkpt lat="47.1081454735" lon="7.5255715913">
				<ele>502.6</ele>
				<time>2021-04-12T10:25:56+02:00</time>
				<extensions>
					<swisstopo:routepoint_id>335082942</swisstopo:routepoint_id>
				</extensions>
			</trkpt>
			<trkpt lat="47.1082524721" lon="7.5256545566">
				<ele>502.3</ele>
				<time>2021-04-12T10:25:57+02:00</time>
				<extensions>
					<swisstopo:routepoint_id>1036883760</swisstopo:routepoint_id>
				</extensions>
			</trkpt>
			<trkpt lat="47.1083585864" lon="7.5257328608">
				<ele>502.0</ele>
				<time>2021-04-12T10:25:58+02:00</time>
				<extensions>
					<swisstopo:routepoint_id>75558915</swisstopo:routepoint_id>
				</extensions>
			</trkpt>
			<trkpt lat="47.1084636614" lon="7.5258060751">
				<ele>501.8</ele>
				<time>2021-04-12T10:25:59+02:00</time>
				<extensions>
					<swisstopo:routepoint_id>755849028</swisstopo:routepoint_id>
				</extensions>
			</trkpt>
			<trkpt lat="47.1085679942" lon="7.5258739172">
				<ele>501.5</ele>
				<time>2021-04-12T10:26:00+02:00</time>
				<extensions>
					<swisstopo:routepoint_id>1188841591</swisstopo:routepoint_id>
				</extensions>
			</trkpt>
			<trkpt lat="47.1086718065" lon="7.5259364630">
				<ele>501.3</ele>
				<time>2021-04-12T10:26:01+02:00</time>
				<extensions>
					<swisstopo:routepoint_id>672768249</swisstopo:routepoint_id>
				</extensions>
			</trkpt>
			<trkpt lat="47.1087746005" lon="7.5259938483">
				<ele>501.2</ele>
				<time>2021-04-12T10:26:02+02:00</time>
				<extensions>
					<swisstopo:routepoint_id>714559488</swisstopo:routepoint_id>
				</extensions>
			</trkpt>
			<trkpt lat="47.1088760241" lon="7.5260460937">
				<ele>501.0</ele>
				<time>2021-04-12T10:26:03+02:00</time>
				<extensions>
					<swisstopo:routepoint_id>872760792</swisstopo:routepoint_id>
				</extensions>
			</trkpt>
			<trkpt lat="47.1089771135" lon="7.5260946928">
				<ele>500.9</ele>
				<time>2021-04-12T10:26:04+02:00</time>
				<extensions>
					<swisstopo:routepoint_id>1177322134</swisstopo:routepoint_id>
				</extensions>
			</trkpt>
			<trkpt lat="47.1090783580" lon="7.5261412613">
				<ele>500.9</ele>
				<time>2021-04-12T10:26:05+02:00</time>
				<extensions>
					<swisstopo:routepoint_id>338782680</swisstopo:routepoint_id>
				</extensions>
			</trkpt>
			<trkpt lat="47.1091794008" lon="7.5261871974">
				<ele>500.9</ele>
				<time>2021-04-12T10:26:06+02:00</time>
				<extensions>
					<swisstopo:routepoint_id>941354563</swisstopo:routepoint_id>
				</extensions>
			</trkpt>
			<trkpt lat="47.1092800163" lon="7.5262348196">
				<ele>501.1</ele>
				<time>2021-04-12T10:26:07+02:00</time>
				<extensions>
					<swisstopo:routepoint_id>834112892</swisstopo:routepoint_id>
				</extensions>
			</trkpt>
			<trkpt lat="47.1093798137" lon="7.5262857446">
				<ele>501.2</ele>
				<time>2021-04-12T10:26:08+02:00</time>
				<extensions>
					<swisstopo:routepoint_id>162128228</swisstopo:routepoint_id>
				</extensions>
			</trkpt>
			<trkpt lat="47.1094783598" lon="7.5263405036">
				<ele>501.5</ele>
				<time>2021-04-12T10:26:09+02:00</time>
				<extensions>
					<swisstopo:routepoint_id>1879863600</swisstopo:routepoint_id>
				</extensions>
			</trkpt>
			<trkpt lat="47.1095762860" lon="7.5263985738">
				<ele>501.7</ele>
				<time>2021-04-12T10:26:10+02:00</time>
				<extensions>
					<swisstopo:routepoint_id>1088110536</swisstopo:routepoint_id>
				</extensions>
			</trkpt>
			<trkpt lat="47.1096736464" lon="7.5264593734">
				<ele>502.1</ele>
				<time>2021-04-12T10:26:11+02:00</time>
				<extensions>
					<swisstopo:routepoint_id>2050524347</swisstopo:routepoint_id>
				</extensions>
			</trkpt>
			<trkpt lat="47.1097703655" lon="7.5265226242">
				<ele>502.4</ele>
				<time>2021-04-12T10:26:12+02:00</time>
				<extensions>
					<swisstopo:routepoint_id>345132973</swisstopo:routepoint_id>
				</extensions>
			</trkpt>
			<trkpt lat="47.1098664497" lon="7.5265874707">
				<ele>502.8</ele>
				<time>2021-04-12T10:26:13+02:00</time>
				<extensions>
					<swisstopo:routepoint_id>296546664</swisstopo:routepoint_id>
				</extensions>
			</trkpt>
			<trkpt lat="47.1099616669" lon="7.5266526865">
				<ele>503.2</ele>
				<time>2021-04-12T10:26:14+02:00</time>
				<extensions>
					<swisstopo:routepoint_id>1897720808</swisstopo:routepoint_id>
				</extensions>
			</trkpt>
			<trkpt lat="47.1100559134" lon="7.5267174315">
				<ele>503.6</ele>
				<time>2021-04-12T10:26:15+02:00</time>
				<extensions>
					<swisstopo:routepoint_id>566494812</swisstopo:routepoint_id>
				</extensions>
			</trkpt>
			<trkpt lat="47.1101489129" lon="7.5267813249">
				<ele>504.0</ele>
				<time>2021-04-12T10:26:16+02:00</time>
				<extensions>
					<swisstopo:routepoint_id>1283298133</swisstopo:routepoint_id>
				</extensions>
			</trkpt>
			<trkpt lat="47.1102411691" lon="7.5268439398">
				<ele>504.4</ele>
				<time>2021-04-12T10:26:17+02:00</time>
				<extensions>
					<swisstopo:routepoint_id>1213454510</swisstopo:routepoint_id>
				</extensions>
			</trkpt>
			<trkpt lat="47.1103330498" lon="7.5269054074">
				<ele>504.7</ele>
				<time>2021-04-12T10:26:18+02:00</time>
				<extensions>
					<swisstopo:routepoint_id>2025237658</swisstopo:routepoint_id>
				</extensions>
			</trkpt>
			<trkpt lat="47.1104242948" lon="7.5269656059">
				<ele>505.0</ele>
				<time>2021-04-12T10:26:19+02:00</time>
				<extensions>
					<swisstopo:routepoint_id>553513056</swisstopo:routepoint_id>
				</extensions>
			</trkpt>
			<trkpt lat="47.1105149035" lon="7.5270240378">
				<ele>505.2</ele>
				<time>2021-04-12T10:26:20+02:00</time>
				<extensions>
					<swisstopo:routepoint_id>2142257035</swisstopo:routepoint_id>
				</extensions>
			</trkpt>
			<trkpt lat="47.1106051688" lon="7.5270790361">
				<ele>505.4</ele>
				<time>2021-04-12T10:26:21+02:00</time>
				<extensions>
					<swisstopo:routepoint_id>203161643</swisstopo:routepoint_id>
				</extensions>
			</trkpt>
			<trkpt lat="47.1106941703" lon="7.5271284871">
				<ele>505.5</ele>
				<time>2021-04-12T10:26:22+02:00</time>
				<extensions>
					<swisstopo:routepoint_id>38735171</swisstopo:routepoint_id>
				</extensions>
			</trkpt>
			<trkpt lat="47.1107813099" lon="7.5271705663">
				<ele>505.6</ele>
				<time>2021-04-12T10:26:23+02:00</time>
				<extensions>
					<swisstopo:routepoint_id>334473956</swisstopo:routepoint_id>
				</extensions>
			</trkpt>
			<trkpt lat="47.1108654564" lon="7.5272050995">
				<ele>505.6</ele>
				<time>2021-04-12T10:26:24+02:00</time>
				<extensions>
					<swisstopo:routepoint_id>1539074293</swisstopo:routepoint_id>
				</extensions>
			</trkpt>
			<trkpt lat="47.1109446744" lon="7.5272320156">
				<ele>505.5</ele>
				<time>2021-04-12T10:26:25+02:00</time>
				<extensions>
					<swisstopo:routepoint_id>781114336</swisstopo:routepoint_id>
				</extensions>
			</trkpt>
			<trkpt lat="47.1110168879" lon="7.5272522003">
				<ele>505.5</ele>
				<time>2021-04-12T10:26:26+02:00</time>
				<extensions>
					<swisstopo:routepoint_id>621111041</swisstopo:routepoint_id>
				</extensions>
			</trkpt>
			<trkpt lat="47.1110807611" lon="7.5272664251">
				<ele>505.4</ele>
				<time>2021-04-12T10:26:27+02:00</time>
				<extensions>
					<swisstopo:routepoint_id>95258020</swisstopo:routepoint_id>
				</extensions>
			</trkpt>
			<trkpt lat="47.1111355913" lon="7.5272747360">
				<ele>505.3</ele>
				<time>2021-04-12T10:26:28+02:00</time>
				<extensions>
					<swisstopo:routepoint_id>1126225125</swisstopo:routepoint_id>
				</extensions>
			</trkpt>
			<trkpt lat="47.1111818290" lon="7.5272788349">
				<ele>505.3</ele>
				<time>2021-04-12T10:26:29+02:00</time>
				<extensions>
					<swisstopo:routepoint_id>544811217</swisstopo:routepoint_id>
				</extensions>
			</trkpt>
			<trkpt lat="47.1112201522" lon="7.5272796199">
				<ele>505.2</ele>
				<time>2021-04-12T10:26:30+02:00</time>
				<extensions>
					<swisstopo:routepoint_id>1919336958</swisstopo:routepoint_id>
				</extensions>
			</trkpt>
			<trkpt lat="47.1112516767" lon="7.5272784200">
				<ele>505.1</ele>
				<time>2021-04-12T10:26:31+02:00</time>
				<extensions>
					<swisstopo:routepoint_id>944391519</swisstopo:routepoint_id>
				</extensions>
			</trkpt>
			<trkpt lat="47.1112776350" lon="7.5272761379">
				<ele>505.0</ele>
				<time>2021-04-12T10:26:32+02:00</time>
				<extensions>
					<swisstopo:routepoint_id>336624856</swisstopo:routepoint_id>
				</extensions>
			</trkpt>
			<trkpt lat="47.1113001714" lon="7.5272733614">
				<ele>504.9</ele>
				<time>2021-04-12T10:26:33+02:00</time>
				<extensions>
					<swisstopo:routepoint_id>1182028594</swisstopo:routepoint_id>
				</extensions>
			</trkpt>
			<trkpt lat="47.1113215604" lon="7.5272703552">
				<ele>504.8</ele>
				<time>2021-04-12T10:26:34+02:00</time>
				<extensions>
					<swisstopo:routepoint_id>2130844608</swisstopo:routepoint_id>
				</extensions>
			</trkpt>
			<trkpt lat="47.1113435021" lon="7.5272678843">
				<ele>504.8</ele>
				<time>2021-04-12T10:26:35+02:00</time>
				<extensions>
					<swisstopo:routepoint_id>1668029284</swisstopo:routepoint_id>
				</extensions>
			</trkpt>
			<trkpt lat="47.1113669164" lon="7.5272663508">
				<ele>504.7</ele>
				<time>2021-04-12T10:26:36+02:00</time>
				<extensions>
					<swisstopo:routepoint_id>1316648250</swisstopo:routepoint_id>
				</extensions>
			</trkpt>
			<trkpt lat="47.1113927091" lon="7.5272660881">
				<ele>504.7</ele>
				<time>2021-04-12T10:26:37+02:00</time>
				<extensions>
					<swisstopo:routepoint_id>1235639062</swisstopo:routepoint_id>
				</extensions>
			</trkpt>
			<trkpt lat="47.1114214583" lon="7.5272670598">
				<ele>504.7</ele>
				<time>2021-04-12T10:26:38+02:00</time>
				<extensions>
					<swisstopo:routepoint_id>1218848544</swisstopo:routepoint_id>
				</extensions>
			</trkpt>
			<trkpt lat="47.1114537179" lon="7.5272698663">
				<ele>504.6</ele>
				<time>2021-04-12T10:26:39+02:00</time>
				<extensions>
					<swisstopo:routepoint_id>340970275</swisstopo:routepoint_id>
				</extensions>
			</trkpt>
			<trkpt lat="47.1114898690" lon="7.5272744882">
				<ele>504.6</ele>
				<time>2021-04-12T10:26:40+02:00</time>
				<extensions>
					<swisstopo:routepoint_id>1201041729</swisstopo:routepoint_id>
				</extensions>
			</trkpt>
			<trkpt lat="47.1115301145" lon="7.5272804796">
				<ele>504.6</ele>
				<time>2021-04-12T10:26:41+02:00</time>
				<extensions>
					<swisstopo:routepoint_id>1709541150</swisstopo:routepoint_id>
				</extensions>
			</trkpt>
			<trkpt lat="47.1115734106" lon="7.5272855491">
				<ele>504.6</ele>
				<time>2021-04-12T10:26:42+02:00</time>
				<extensions>
					<swisstopo:routepoint_id>1074394837</swisstopo:routepoint_id>
				</extensions>
			</trkpt>
			<trkpt lat="47.1116184579" lon="7.5272892071">
				<ele>504.6</ele>
				<time>2021-04-12T10:26:43+02:00</time>
				<extensions>
					<swisstopo:routepoint_id>1311521483</swisstopo:routepoint_id>
				</extensions>
			</trkpt>
			<trkpt lat="47.1116634857" lon="7.5272923063">
				<ele>504.5</ele>
				<time>2021-04-12T10:26:44+02:00</time>
				<extensions>
					<swisstopo:routepoint_id>969411973</swisstopo:routepoint_id>
				</extensions>
			</trkpt>
			<trkpt lat="47.1117067161" lon="7.5272955729">
				<ele>504.5</ele>
				<time>2021-04-12T10:26:45+02:00</time>
				<extensions>
					<swisstopo:routepoint_id>2096084069</swisstopo:routepoint_id>
				</extensions>
			</trkpt>
			<trkpt lat="47.1117467815" lon="7.5272999405">
				<ele>504.5</ele>
				<time>2021-04-12T10:26:46+02:00</time>
				<extensions>
					<swisstopo:routepoint_id>1563202295</swisstopo:routepoint_id>
				</extensions>
			</trkpt>
			<trkpt lat="47.1117839080" lon="7.5273047963">
				<ele>504.4</ele>
				<time>2021-04-12T10:26:47+02:00</time>
				<extensions>
					<swisstopo:routepoint_id>426034667</swisstopo:routepoint_id>
				</extensions>
			</trkpt>
			<trkpt lat="47.1118182326" lon="7.5273102583">
				<ele>504.4</ele>
				<time>2021-04-12T10:26:48+02:00</time>
				<extensions>
					<swisstopo:routepoint_id>654169171</swisstopo:routepoint_id>
				</extensions>
			</trkpt>
			<trkpt lat="47.1118501955" lon="7.5273160220">
				<ele>504.4</ele>
				<time>2021-04-12T10:26:49+02:00</time>
				<extensions>
					<swisstopo:routepoint_id>1652468004</swisstopo:routepoint_id>
				</extensions>
			</trkpt>
			<trkpt lat="47.1118809979" lon="7.5273224394">
				<ele>504.3</ele>
				<time>2021-04-12T10:26:50+02:00</time>
				<extensions>
					<swisstopo:routepoint_id>1771220224</swisstopo:routepoint_id>
				</extensions>
			</trkpt>
			<trkpt lat="47.1119129526" lon="7.5273306713">
				<ele>504.3</ele>
				<time>2021-04-12T10:26:51+02:00</time>
				<extensions>
					<swisstopo:routepoint_id>479990054</swisstopo:routepoint_id>
				</extensions>
			</trkpt>
			<trkpt lat="47.1119487155" lon="7.5273421068">
				<ele>504.3</ele>
				<time>2021-04-12T10:26:52+02:00</time>
				<extensions>
					<swisstopo:routepoint_id>1244259446</swisstopo:routepoint_id>
				</extensions>
			</trkpt>
			<trkpt lat="47.1119905152" lon="7.5273563710">
				<ele>504.3</ele>
				<time>2021-04-12T10:26:53+02:00</time>
				<extensions>
					<swisstopo:routepoint_id>72754436</swisstopo:routepoint_id>
				</extensions>
			</trkpt>
			<trkpt lat="47.1120393008" lon="7.5273729640">
				<ele>504.3</ele>
				<time>2021-04-12T10:26:54+02:00</time>
				<extensions>
					<swisstopo:routepoint_id>865610709</swisstopo:routepoint_id>
				</extensions>
			</trkpt>
			<trkpt lat="47.1120950802" lon="7.5273912901">
				<ele>504.3</ele>
				<time>2021-04-12T10:26:55+02:00</time>
				<extensions>
					<swisstopo:routepoint_id>1264961385</swisstopo:routepoint_id>
				</extensions>
			</trkpt>
			<trkpt lat="47.1121574719" lon="7.5274105849">
				<ele>504.4</ele>
				<time>2021-04-12T10:26:56+02:00</time>
				<extensions>
					<swisstopo:routepoint_id>117892395</swisstopo:routepoint_id>
				</extensions>
			</trkpt>
			<trkpt lat="47.1122267697" lon="7.5274301625">
				<ele>504.4</ele>
				<time>2021-04-12T10:26:57+02:00</time>
				<extensions>
					<swisstopo:routepoint_id>1437560231</swisstopo:routepoint_id>
				</extensions>
			</trkpt>
			<trkpt lat="47.1123036448" lon="7.5274495939">
				<ele>504.4</ele>
				<time>2021-04-12T10:26:58+02:00</time>
				<extensions>
					<swisstopo:routepoint_id>1883773667</swisstopo:routepoint_id>
				</extensions>
			</trkpt>
			<trkpt lat="47.1123884728" lon="7.5274689897">
				<ele>504.3</ele>
				<time>2021-04-12T10:26:59+02:00</time>
				<extensions>
					<swisstopo:routepoint_id>232613548</swisstopo:routepoint_id>
				</extensions>
			</trkpt>
			<trkpt lat="47.1124813330" lon="7.5274892373">
				<ele>504.3</ele>
				<time>2021-04-12T10:27:00+02:00</time>
				<extensions>
					<swisstopo:routepoint_id>1115663696</swisstopo:routepoint_id>
				</extensions>
			</trkpt>
			<trkpt lat="47.1125814043" lon="7.5275103562">
				<ele>504.2</ele>
				<time>2021-04-12T10:27:01+02:00</time>
				<extensions>
					<swisstopo:routepoint_id>1280016715</swisstopo:routepoint_id>
				</extensions>
			</trkpt>
			<trkpt lat="47.1126875584" lon="7.5275326158">
				<ele>504.1</ele>
				<time>2021-04-12T10:27:02+02:00</time>
				<extensions>
					<swisstopo:routepoint_id>1897237006</swisstopo:routepoint_id>
				</extensions>
			</trkpt>
			<trkpt lat="47.1127986383" lon="7.5275561075">
				<ele>504.0</ele>
				<time>2021-04-12T10:27:03+02:00</time>
				<extensions>
					<swisstopo:routepoint_id>1025169186</swisstopo:routepoint_id>
				</extensions>
			</trkpt>
			<trkpt lat="47.1129131868" lon="7.5275804605">
				<ele>504.0</ele>
				<time>2021-04-12T10:27:04+02:00</time>
				<extensions>
					<swisstopo:routepoint_id>757209221</swisstopo:routepoint_id>
				</extensions>
			</trkpt>
			<trkpt lat="47.1130300165" lon="7.5276056800">
				<ele>503.9</ele>
				<time>2021-04-12T10:27:05+02:00</time>
				<extensions>
					<swisstopo:routepoint_id>427285225</swisstopo:routepoint_id>
				</extensions>
			</trkpt>
			<trkpt lat="47.1131478004" lon="7.5276316124">
				<ele>503.8</ele>
				<time>2021-04-12T10:27:06+02:00</time>
				<extensions>
					<swisstopo:routepoint_id>197461007</swisstopo:routepoint_id>
				</extensions>
			</trkpt>
			<trkpt lat="47.1132652528" lon="7.5276580348">
				<ele>503.8</ele>
				<time>2021-04-12T10:27:07+02:00</time>
				<extensions>
					<swisstopo:routepoint_id>864910034</swisstopo:routepoint_id>
				</extensions>
			</trkpt>
			<trkpt lat="47.1133812364" lon="7.5276850014">
				<ele>503.7</ele>
				<time>2021-04-12T10:27:08+02:00</time>
				<extensions>
					<swisstopo:routepoint_id>226134895</swisstopo:routepoint_id>
				</extensions>
			</trkpt>
			<trkpt lat="47.1134956520" lon="7.5277123860">
				<ele>503.7</ele>
				<time>2021-04-12T10:27:09+02:00</time>
				<extensions>
					<swisstopo:routepoint_id>1750608722</swisstopo:routepoint_id>
				</extensions>
			</trkpt>
			<trkpt lat="47.1136094952" lon="7.5277403804">
				<ele>503.7</ele>
				<time>2021-04-12T10:27:10+02:00</time>
				<extensions>
					<swisstopo:routepoint_id>1954826754</swisstopo:routepoint_id>
				</extensions>
			</trkpt>
			<trkpt lat="47.1137244337" lon="7.5277695407">
				<ele>503.6</ele>
				<time>2021-04-12T10:27:11+02:00</time>
				<extensions>
					<swisstopo:routepoint_id>420939025</swisstopo:routepoint_id>
				</extensions>
			</trkpt>
			<trkpt lat="47.1138422949" lon="7.5278007225">
				<ele>503.6</ele>
				<time>2021-04-12T10:27:12+02:00</time>
				<extensions>
					<swisstopo:routepoint_id>911059957</swisstopo:routepoint_id>
				</extensions>
			</trkpt>
			<trkpt lat="47.1139641252" lon="7.5278349891">
				<ele>503.5</ele>
				<time>2021-04-12T10:27:13+02:00</time>
				<extensions>
					<swisstopo:routepoint_id>626294189</swisstopo:routepoint_id>
				</extensions>
			</trkpt>
			<trkpt lat="47.1140905931" lon="7.5278736310">
				<ele>503.3</ele>
				<time>2021-04-12T10:27:14+02:00</time>
				<extensions>
					<swisstopo:routepoint_id>1309080576</swisstopo:routepoint_id>
				</extensions>
			</trkpt>
			<trkpt lat="47.1142211483" lon="7.5279182258">
				<ele>502.9</ele>
				<time>2021-04-12T10:27:15+02:00</time>
				<extensions>
					<swisstopo:routepoint_id>747277317</swisstopo:routepoint_id>
				</extensions>
			</trkpt>
			<trkpt lat="47.1143549154" lon="7.5279710240">
				<ele>502.5</ele>
				<time>2021-04-12T10:27:16+02:00</time>
				<extensions>
					<swisstopo:routepoint_id>1005499163</swisstopo:routepoint_id>
				</extensions>
			</trkpt>
			<trkpt lat="47.1144906076" lon="7.5280337773">
				<ele>502.0</ele>
				<time>2021-04-12T10:27:17+02:00</time>
				<extensions>
					<swisstopo:routepoint_id>875614298</swisstopo:routepoint_id>
				</extensions>
			</trkpt>
			<trkpt lat="47.1146268570" lon="7.5281080648">
				<ele>501.4</ele>
				<time>2021-04-12T10:27:18+02:00</time>
				<extensions>
					<swisstopo:routepoint_id>1891557242</swisstopo:routepoint_id>
				</extensions>
			</trkpt>
			<trkpt lat="47.1147619442" lon="7.5281951777">
				<ele>500.7</ele>
				<time>2021-04-12T10:27:19+02:00</time>
				<extensions>
					<swisstopo:routepoint_id>54656106</swisstopo:routepoint_id>
				</extensions>
			</trkpt>
			<trkpt lat="47.1148945805" lon="7.5282956934">
				<ele>500.1</ele>
				<time>2021-04-12T10:27:20+02:00</time>
				<extensions>
					<swisstopo:routepoint_id>1629656273</swisstopo:routepoint_id>
				</extensions>
			</trkpt>
			<trkpt lat="47.1150234467" lon="7.5284097631">
				<ele>499.4</ele>
				<time>2021-04-12T10:27:21+02:00</time>
				<extensions>
					<swisstopo:routepoint_id>626546473</swisstopo:routepoint_id>
				</extensions>
			</trkpt>
			<trkpt lat="47.1151478385" lon="7.5285379953">
				<ele>498.6</ele>
				<time>2021-04-12T10:27:22+02:00</time>
				<extensions>
					<swisstopo:routepoint_id>1254250470</swisstopo:routepoint_id>
				</extensions>
			</trkpt>
			<trkpt lat="47.1152668534" lon="7.5286806303">
				<ele>497.9</ele>
				<time>2021-04-12T10:27:23+02:00</time>
				<extensions>
					<swisstopo:routepoint_id>488170338</swisstopo:routepoint_id>
				</extensions>
			</trkpt>
			<trkpt lat="47.1153797368" lon="7.5288370698">
				<ele>497.1</ele>
				<time>2021-04-12T10:27:24+02:00</time>
				<extensions>
					<swisstopo:routepoint_id>1291339226</swisstopo:routepoint_id>
				</extensions>
			</trkpt>
			<trkpt lat="47.1154864220" lon="7.5290065760">
				<ele>496.3</ele>
				<time>2021-04-12T10:27:25+02:00</time>
				<extensions>
					<swisstopo:routepoint_id>1068634800</swisstopo:routepoint_id>
				</extensions>
			</trkpt>
			<trkpt lat="47.1155873373" lon="7.5291870369">
				<ele>495.6</ele>
				<time>2021-04-12T10:27:26+02:00</time>
				<extensions>
					<swisstopo:routepoint_id>1139343739</swisstopo:routepoint_id>
				</extensions>
			</trkpt>
			<trkpt lat="47.1156836816" lon="7.5293752746">
				<ele>494.9</ele>
				<time>2021-04-12T10:27:27+02:00</time>
				<extensions>
					<swisstopo:routepoint_id>1986024721</swisstopo:routepoint_id>
				</extensions>
			</trkpt>
			<trkpt lat="47.1157759217" lon="7.5295686617">
				<ele>494.3</ele>
				<time>2021-04-12T10:27:28+02:00</time>
				<extensions>
					<swisstopo:routepoint_id>779160526</swisstopo:routepoint_id>
				</extensions>
			</trkpt>
			<trkpt lat="47.1158656541" lon="7.5297658918">
				<ele>493.7</ele>
				<time>2021-04-12T10:27:29+02:00</time>
				<extensions>
					<swisstopo:routepoint_id>2143164723</swisstopo:routepoint_id>
				</extensions>
			</trkpt>
			<trkpt lat="47.1159544958" lon="7.5299640194">
				<ele>493.1</ele>
				<time>2021-04-12T10:27:30+02:00</time>
				<extensions>
					<swisstopo:routepoint_id>426288330</swisstopo:routepoint_id>
				</extensions>
			</trkpt>
			<trkpt lat="47.1160448501" lon="7.5301598798">
				<ele>492.6</ele>
				<time>2021-04-12T10:27:31+02:00</time>
				<extensions>
					<swisstopo:routepoint_id>622515918</swisstopo:routepoint_id>
				</extensions>
			</trkpt>
			<trkpt lat="47.1161384382" lon="7.5303506013">
				<ele>492.2</ele>
				<time>2021-04-12T10:27:32+02:00</time>
				<extensions>
					<swisstopo:routepoint_id>84705642</swisstopo:routepoint_id>
				</extensions>
			</trkpt>
			<trkpt lat="47.1162377989" lon="7.5305336650">
				<ele>491.8</ele>
				<time>2021-04-12T10:27:33+02:00</time>
				<extensions>
					<swisstopo:routepoint_id>2013550780</swisstopo:routepoint_id>
				</extensions>
			</trkpt>
			<trkpt lat="47.1163444023" lon="7.5307071525">
				<ele>491.5</ele>
				<time>2021-04-12T10:27:34+02:00</time>
				<extensions>
					<swisstopo:routepoint_id>1700650034</swisstopo:routepoint_id>
				</extensions>
			</trkpt>
			<trkpt lat="47.1164575804" lon="7.5308725217">
				<ele>491.3</ele>
				<time>2021-04-12T10:27:35+02:00</time>
				<extensions>
					<swisstopo:routepoint_id>1965263515</swisstopo:routepoint_id>
				</extensions>
			</trkpt>
			<trkpt lat="47.1165762850" lon="7.5310310280">
				<ele>491.1</ele>
				<time>2021-04-12T10:27:36+02:00</time>
				<extensions>
					<swisstopo:routepoint_id>1885405745</swisstopo:routepoint_id>
				</extensions>
			</trkpt>
			<trkpt lat="47.1166998772" lon="7.5311832532">
				<ele>491.1</ele>
				<time>2021-04-12T10:27:37+02:00</time>
				<extensions>
					<swisstopo:routepoint_id>1893144730</swisstopo:routepoint_id>
				</extensions>
			</trkpt>
			<trkpt lat="47.1168274884" lon="7.5313305527">
				<ele>491.2</ele>
				<time>2021-04-12T10:27:38+02:00</time>
				<extensions>
					<swisstopo:routepoint_id>965763158</swisstopo:routepoint_id>
				</extensions>
			</trkpt>
			<trkpt lat="47.1169578390" lon="7.5314736127">
				<ele>491.4</ele>
				<time>2021-04-12T10:27:39+02:00</time>
				<extensions>
					<swisstopo:routepoint_id>899992480</swisstopo:routepoint_id>
				</extensions>
			</trkpt>
			<trkpt lat="47.1170901234" lon="7.5316132929">
				<ele>491.6</ele>
				<time>2021-04-12T10:27:40+02:00</time>
				<extensions>
					<swisstopo:routepoint_id>1446285539</swisstopo:routepoint_id>
				</extensions>
			</trkpt>
			<trkpt lat="47.1172235715" lon="7.5317508096">
				<ele>491.9</ele>
				<time>2021-04-12T10:27:41+02:00</time>
				<extensions>
					<swisstopo:routepoint_id>353653580</swisstopo:routepoint_id>
				</extensions>
			</trkpt>
			<trkpt lat="47.1173578930" lon="7.5318868434">
				<ele>492.2</ele>
				<time>2021-04-12T10:27:42+02:00</time>
				<extensions>
					<swisstopo:routepoint_id>1768467811</swisstopo:routepoint_id>
				</extensions>
			</trkpt>
			<trkpt lat="47.1174929861" lon="7.5320213073">
				<ele>492.5</ele>
				<time>2021-04-12T10:27:43+02:00</time>
				<extensions>
					<swisstopo:routepoint_id>1464824997</swisstopo:routepoint_id>
				</extensions>
			</trkpt>
			<trkpt lat="47.1176288623" lon="7.5321547859">
				<ele>492.7</ele>
				<time>2021-04-12T10:27:44+02:00</time>
				<extensions>
					<swisstopo:routepoint_id>561195371</swisstopo:routepoint_id>
				</extensions>
			</trkpt>
			<trkpt lat="47.1177657359" lon="7.5322883876">
				<ele>492.8</ele>
				<time>2021-04-12T10:27:45+02:00</time>
				<extensions>
					<swisstopo:routepoint_id>262422773</swisstopo:routepoint_id>
				</extensions>
			</trkpt>
			<trkpt lat="47.1179039387" lon="7.5324229343">
				<ele>492.9</ele>
				<time>2021-04-12T10:27:46+02:00</time>
				<extensions>
					<swisstopo:routepoint_id>1755618520</swisstopo:routepoint_id>
				</extensions>
			</trkpt>
			<trkpt lat="47.1180434806" lon="7.5325590213">
				<ele>493.0</ele>
				<time>2021-04-12T10:27:47+02:00</time>
				<extensions>
					<swisstopo:routepoint_id>255155860</swisstopo:routepoint_id>
				</extensions>
			</trkpt>
			<trkpt lat="47.1181843253" lon="7.5326976367">
				<ele>492.9</ele>
				<time>2021-04-12T10:27:48+02:00</time>
				<extensions>
					<swisstopo:routepoint_id>2027179608</swisstopo:routepoint_id>
				</extensions>
			</trkpt>
			<trkpt lat="47.1183265317" lon="7.5328389507">
				<ele>492.8</ele>
				<time>2021-04-12T10:27:49+02:00</time>
				<extensions>
					<swisstopo:routepoint_id>979612001</swisstopo:routepoint_id>
				</extensions>
			</trkpt>
			<trkpt lat="47.1184702888" lon="7.5329823010">
				<ele>492.7</ele>
				<time>2021-04-12T10:27:50+02:00</time>
				<extensions>
					<swisstopo:routepoint_id>1729262905</swisstopo:routepoint_id>
				</extensions>
			</trkpt>
			<trkpt lat="47.1186158777" lon="7.5331277398">
				<ele>492.4</ele>
				<time>2021-04-12T10:27:51+02:00</time>
				<extensions>
					<swisstopo:routepoint_id>1825449484</swisstopo:routepoint_id>
				</extensions>
			</trkpt>
			<trkpt lat="47.1187628859" lon="7.5332753349">
				<ele>492.2</ele>
				<time>2021-04-12T10:27:52+02:00</time>
				<extensions>
					<swisstopo:routepoint_id>1378096546</swisstopo:routepoint_id>
				</extensions>
			</trkpt>
			<trkpt lat="47.1189107701" lon="7.5334254419">
				<ele>491.8</ele>
				<time>2021-04-12T10:27:53+02:00</time>
				<extensions>
					<swisstopo:routepoint_id>1057515727</swisstopo:routepoint_id>
				</extensions>
			</trkpt>
			<trkpt lat="47.1190586605" lon="7.5335773219">
				<ele>491.5</ele>
				<time>2021-04-12T10:27:54+02:00</time>
				<extensions>
					<swisstopo:routepoint_id>1092161117</swisstopo:routepoint_id>
				</extensions>
			</trkpt>
			<trkpt lat="47.1192061990" lon="7.5337300592">
				<ele>491.0</ele>
				<time>2021-04-12T10:27:55+02:00</time>
				<extensions>
					<swisstopo:routepoint_id>1409162510</swisstopo:routepoint_id>
				</extensions>
			</trkpt>
			<trkpt lat="47.1193535147" lon="7.5338819128">
				<ele>490.6</ele>
				<time>2021-04-12T10:27:56+02:00</time>
				<extensions>
					<swisstopo:routepoint_id>1344646454</swisstopo:routepoint_id>
				</extensions>
			</trkpt>
			<trkpt lat="47.1195003895" lon="7.5340308930">
				<ele>490.1</ele>
				<time>2021-04-12T10:27:57+02:00</time>
				<extensions>
					<swisstopo:routepoint_id>1502534997</swisstopo:routepoint_id>
				</extensions>
			</trkpt>
			<trkpt lat="47.1196473339" lon="7.5341738450">
				<ele>489.6</ele>
				<time>2021-04-12T10:27:58+02:00</time>
				<extensions>
					<swisstopo:routepoint_id>845489506</swisstopo:routepoint_id>
				</extensions>
			</trkpt>
			<trkpt lat="47.1197956882" lon="7.5343059780">
				<ele>489.1</ele>
				<time>2021-04-12T10:27:59+02:00</time>
				<extensions>
					<swisstopo:routepoint_id>242835143</swisstopo:routepoint_id>
				</extensions>
			</trkpt>
			<trkpt lat="47.1199460463" lon="7.5344227134">
				<ele>488.6</ele>
				<time>2021-04-12T10:28:00+02:00</time>
				<extensions>
					<swisstopo:routepoint_id>1111319101</swisstopo:routepoint_id>
				</extensions>
			</trkpt>
			<trkpt lat="47.1200987893" lon="7.5345208894">
				<ele>488.1</ele>
				<time>2021-04-12T10:28:01+02:00</time>
				<extensions>
					<swisstopo:routepoint_id>1274852548</swisstopo:routepoint_id>
				</extensions>
			</trkpt>
			<trkpt lat="47.1202532141" lon="7.5346002897">
				<ele>487.7</ele>
				<time>2021-04-12T10:28:02+02:00</time>
				<extensions>
					<swisstopo:routepoint_id>1002428117</swisstopo:routepoint_id>
				</extensions>
			</trkpt>
			<trkpt lat="47.1204086690" lon="7.5346629896">
				<ele>487.3</ele>
				<time>2021-04-12T10:28:03+02:00</time>
				<extensions>
					<swisstopo:routepoint_id>800151704</swisstopo:routepoint_id>
				</extensions>
			</trkpt>
			<trkpt lat="47.1205640921" lon="7.5347132588">
				<ele>486.9</ele>
				<time>2021-04-12T10:28:04+02:00</time>
				<extensions>
					<swisstopo:routepoint_id>607091614</swisstopo:routepoint_id>
				</extensions>
			</trkpt>
			<trkpt lat="47.1207179489" lon="7.5347576261">
				<ele>486.8</ele>
				<time>2021-04-12T10:28:05+02:00</time>
				<extensions>
					<swisstopo:routepoint_id>693949601</swisstopo:routepoint_id>
				</extensions>
			</trkpt>
			<trkpt lat="47.1208685921" lon="7.5348014974">
				<ele>486.8</ele>
				<time>2021-04-12T10:28:06+02:00</time>
				<extensions>
					<swisstopo:routepoint_id>227257150</swisstopo:routepoint_id>
				</extensions>
			</trkpt>
			<trkpt lat="47.1210153829" lon="7.5348483827">
				<ele>486.9</ele>
				<time>2021-04-12T10:28:07+02:00</time>
				<extensions>
					<swisstopo:routepoint_id>1284995684</swisstopo:routepoint_id>
				</extensions>
			</trkpt>
			<trkpt lat="47.1211584875" lon="7.5348994721">
				<ele>487.1</ele>
				<time>2021-04-12T10:28:08+02:00</time>
				<extensions>
					<swisstopo:routepoint_id>1826906756</swisstopo:routepoint_id>
				</extensions>
			</trkpt>
			<trkpt lat="47.1212982936" lon="7.5349553613">
				<ele>487.5</ele>
				<time>2021-04-12T10:28:09+02:00</time>
				<extensions>
					<swisstopo:routepoint_id>100663286</swisstopo:routepoint_id>
				</extensions>
			</trkpt>
			<trkpt lat="47.1214354042" lon="7.5350158521">
				<ele>487.8</ele>
				<time>2021-04-12T10:28:10+02:00</time>
				<extensions>
					<swisstopo:routepoint_id>1778217613</swisstopo:routepoint_id>
				</extensions>
			</trkpt>
			<trkpt lat="47.1215705077" lon="7.5350805983">
				<ele>488.1</ele>
				<time>2021-04-12T10:28:11+02:00</time>
				<extensions>
					<swisstopo:routepoint_id>2120990039</swisstopo:routepoint_id>
				</extensions>
			</trkpt>
			<trkpt lat="47.1217046370" lon="7.5351490746">
				<ele>488.4</ele>
				<time>2021-04-12T10:28:12+02:00</time>
				<extensions>
					<swisstopo:routepoint_id>1398528920</swisstopo:routepoint_id>
				</extensions>
			</trkpt>
			<trkpt lat="47.1218389405" lon="7.5352210394">
				<ele>488.6</ele>
				<time>2021-04-12T10:28:13+02:00</time>
				<extensions>
					<swisstopo:routepoint_id>867042025</swisstopo:routepoint_id>
				</extensions>
			</trkpt>
			<trkpt lat="47.1219738334" lon="7.5352964568">
				<ele>488.8</ele>
				<time>2021-04-12T10:28:14+02:00</time>
				<extensions>
					<swisstopo:routepoint_id>1698769280</swisstopo:routepoint_id>
				</extensions>
			</trkpt>
			<trkpt lat="47.1221095720" lon="7.5353748111">
				<ele>489.0</ele>
				<time>2021-04-12T10:28:15+02:00</time>
				<extensions>
					<swisstopo:routepoint_id>420202095</swisstopo:routepoint_id>
				</extensions>
			</trkpt>
			<trkpt lat="47.1222462009" lon="7.5354554087">
				<ele>489.2</ele>
				<time>2021-04-12T10:28:16+02:00</time>
				<extensions>
					<swisstopo:routepoint_id>1410379329</swisstopo:routepoint_id>
				</extensions>
			</trkpt>
			<trkpt lat="47.1223835933" lon="7.5355377588">
				<ele>489.3</ele>
				<time>2021-04-12T10:28:17+02:00</time>
				<extensions>
					<swisstopo:routepoint_id>320886917</swisstopo:routepoint_id>
				</extensions>
			</trkpt>
			<trkpt lat="47.1225218568" lon="7.5356214953">
				<ele>489.3</ele>
				<time>2021-04-12T10:28:18+02:00</time>
				<extensions>
					<swisstopo:routepoint_id>814976402</swisstopo:routepoint_id>
				</extensions>
			</trkpt>
			<trkpt lat="47.1226606474" lon="7.5357057368">
				<ele>489.4</ele>
				<time>2021-04-12T10:28:19+02:00</time>
				<extensions>
					<swisstopo:routepoint_id>657687848</swisstopo:routepoint_id>
				</extensions>
			</trkpt>
			<trkpt lat="47.1227998188" lon="7.5357904496">
				<ele>489.4</ele>
				<time>2021-04-12T10:28:20+02:00</time>
				<extensions>
					<swisstopo:routepoint_id>661330227</swisstopo:routepoint_id>
				</extensions>
			</trkpt>
			<trkpt lat="47.1229390481" lon="7.5358751842">
				<ele>489.4</ele>
				<time>2021-04-12T10:28:21+02:00</time>
				<extensions>
					<swisstopo:routepoint_id>1749251964</swisstopo:routepoint_id>
				</extensions>
			</trkpt>
			<trkpt lat="47.1230777825" lon="7.5359594739">
				<ele>489.4</ele>
				<time>2021-04-12T10:28:22+02:00</time>
				<extensions>
					<swisstopo:routepoint_id>626631518</swisstopo:routepoint_id>
				</extensions>
			</trkpt>
			<trkpt lat="47.1232155428" lon="7.5360431017">
				<ele>489.4</ele>
				<time>2021-04-12T10:28:23+02:00</time>
				<extensions>
					<swisstopo:routepoint_id>536118138</swisstopo:routepoint_id>
				</extensions>
			</trkpt>
			<trkpt lat="47.1233523116" lon="7.5361260144">
				<ele>489.3</ele>
				<time>2021-04-12T10:28:24+02:00</time>
				<extensions>
					<swisstopo:routepoint_id>1843646201</swisstopo:routepoint_id>
				</extensions>
			</trkpt>
			<trkpt lat="47.1234878037" lon="7.5362078234">
				<ele>489.3</ele>
				<time>2021-04-12T10:28:25+02:00</time>
				<extensions>
					<swisstopo:routepoint_id>120157644</swisstopo:routepoint_id>
				</extensions>
			</trkpt>
			<trkpt lat="47.1236218221" lon="7.5362882141">
				<ele>489.2</ele>
				<time>2021-04-12T10:28:26+02:00</time>
				<extensions>
					<swisstopo:routepoint_id>854894528</swisstopo:routepoint_id>
				</extensions>
			</trkpt>
			<trkpt lat="47.1237542446" lon="7.5363668225">
				<ele>489.2</ele>
				<time>2021-04-12T10:28:27+02:00</time>
				<extensions>
					<swisstopo:routepoint_id>1546733666</swisstopo:routepoint_id>
				</extensions>
			</trkpt>
			<trkpt lat="47.1238844562" lon="7.5364436996">
				<ele>489.1</ele>
				<time>2021-04-12T10:28:28+02:00</time>
				<extensions>
					<swisstopo:routepoint_id>663177527</swisstopo:routepoint_id>
				</extensions>
			</trkpt>
			<trkpt lat="47.1240122692" lon="7.5365187489">
				<ele>489.1</ele>
				<time>2021-04-12T10:28:29+02:00</time>
				<extensions>
					<swisstopo:routepoint_id>584568359</swisstopo:routepoint_id>
				</extensions>
			</trkpt>
			<trkpt lat="47.1241378231" lon="7.5365920960">
				<ele>489.1</ele>
				<time>2021-04-12T10:28:30+02:00</time>
				<extensions>
					<swisstopo:routepoint_id>102724688</swisstopo:routepoint_id>
				</extensions>
			</trkpt>
			<trkpt lat="47.1242612519" lon="7.5366635759">
				<ele>489.1</ele>
				<time>2021-04-12T10:28:31+02:00</time>
				<extensions>
					<swisstopo:routepoint_id>2064462675</swisstopo:routepoint_id>
				</extensions>
			</trkpt>
			<trkpt lat="47.1243825990" lon="7.5367335948">
				<ele>489.1</ele>
				<time>2021-04-12T10:28:32+02:00</time>
				<extensions>
					<swisstopo:routepoint_id>530894146</swisstopo:routepoint_id>
				</extensions>
			</trkpt>
			<trkpt lat="47.1245023510" lon="7.5368022998">
				<ele>489.2</ele>
				<time>2021-04-12T10:28:33+02:00</time>
				<extensions>
					<swisstopo:routepoint_id>2090842184</swisstopo:routepoint_id>
				</extensions>
			</trkpt>
			<trkpt lat="47.1246206807" lon="7.5368702449">
				<ele>489.2</ele>
				<time>2021-04-12T10:28:34+02:00</time>
				<extensions>
					<swisstopo:routepoint_id>1509670627</swisstopo:routepoint_id>
				</extensions>
			</trkpt>
			<trkpt lat="47.1247376975" lon="7.5369384142">
				<ele>489.2</ele>
				<time>2021-04-12T10:28:35+02:00</time>
				<extensions>
					<swisstopo:routepoint_id>514938684</swisstopo:routepoint_id>
				</extensions>
			</trkpt>
			<trkpt lat="47.1248532441" lon="7.5370077946">
				<ele>489.3</ele>
				<time>2021-04-12T10:28:36+02:00</time>
				<extensions>
					<swisstopo:routepoint_id>215364578</swisstopo:routepoint_id>
				</extensions>
			</trkpt>
			<trkpt lat="47.1249669703" lon="7.5370803911">
				<ele>489.3</ele>
				<time>2021-04-12T10:28:37+02:00</time>
				<extensions>
					<swisstopo:routepoint_id>1122517251</swisstopo:routepoint_id>
				</extensions>
			</trkpt>
			<trkpt lat="47.1250779748" lon="7.5371589002">
				<ele>489.4</ele>
				<time>2021-04-12T10:28:38+02:00</time>
				<extensions>
					<swisstopo:routepoint_id>503598662</swisstopo:routepoint_id>
				</extensions>
			</trkpt>
			<trkpt lat="47.1251859136" lon="7.5372457825">
				<ele>489.5</ele>
				<time>2021-04-12T10:28:39+02:00</time>
				<extensions>
					<swisstopo:routepoint_id>749659407</swisstopo:routepoint_id>
				</extensions>
			</trkpt>
			<trkpt lat="47.1252903719" lon="7.5373423955">
				<ele>489.6</ele>
				<time>2021-04-12T10:28:40+02:00</time>
				<extensions>
					<swisstopo:routepoint_id>239096500</swisstopo:routepoint_id>
				</extensions>
			</trkpt>
			<trkpt lat="47.1253910634" lon="7.5374488585">
				<ele>489.7</ele>
				<time>2021-04-12T10:28:41+02:00</time>
				<extensions>
					<swisstopo:routepoint_id>552971963</swisstopo:routepoint_id>
				</extensions>
			</trkpt>
			<trkpt lat="47.1254881290" lon="7.5375646822">
				<ele>489.7</ele>
				<time>2021-04-12T10:28:42+02:00</time>
				<extensions>
					<swisstopo:routepoint_id>1638041572</swisstopo:routepoint_id>
				</extensions>
			</trkpt>
			<trkpt lat="47.1255820154" lon="7.5376888601">
				<ele>489.6</ele>
				<time>2021-04-12T10:28:43+02:00</time>
				<extensions>
					<swisstopo:routepoint_id>1971829711</swisstopo:routepoint_id>
				</extensions>
			</trkpt>
			<trkpt lat="47.1256731236" lon="7.5378204784">
				<ele>489.6</ele>
				<time>2021-04-12T10:28:44+02:00</time>
				<extensions>
					<swisstopo:routepoint_id>574312273</swisstopo:routepoint_id>
				</extensions>
			</trkpt>
			<trkpt lat="47.1257610736" lon="7.5379579573">
				<ele>489.5</ele>
				<time>2021-04-12T10:28:45+02:00</time>
				<extensions>
					<swisstopo:routepoint_id>1674862693</swisstopo:routepoint_id>
				</extensions>
			</trkpt>
			<trkpt lat="47.1258459271" lon="7.5380996615">
				<ele>489.4</ele>
				<time>2021-04-12T10:28:46+02:00</time>
				<extensions>
					<swisstopo:routepoint_id>201636375</swisstopo:routepoint_id>
				</extensions>
			</trkpt>
			<trkpt lat="47.1259281808" lon="7.5382442552">
				<ele>489.3</ele>
				<time>2021-04-12T10:28:47+02:00</time>
				<extensions>
					<swisstopo:routepoint_id>173359659</swisstopo:routepoint_id>
				</extensions>
			</trkpt>
			<trkpt lat="47.1260082665" lon="7.5383904930">
				<ele>489.2</ele>
				<time>2021-04-12T10:28:48+02:00</time>
				<extensions>
					<swisstopo:routepoint_id>1667963481</swisstopo:routepoint_id>
				</extensions>
			</trkpt>
			<trkpt lat="47.1260865670" lon="7.5385370874">
				<ele>489.1</ele>
				<time>2021-04-12T10:28:49+02:00</time>
				<extensions>
					<swisstopo:routepoint_id>210697229</swisstopo:routepoint_id>
				</extensions>
			</trkpt>
			<trkpt lat="47.1261629588" lon="7.5386827464">
				<ele>489.0</ele>
				<time>2021-04-12T10:28:50+02:00</time>
				<extensions>
					<swisstopo:routepoint_id>2135277547</swisstopo:routepoint_id>
				</extensions>
			</trkpt>
			<trkpt lat="47.1262376843" lon="7.5388260513">
				<ele>488.8</ele>
				<time>2021-04-12T10:28:51+02:00</time>
				<extensions>
					<swisstopo:routepoint_id>1010507412</swisstopo:routepoint_id>
				</extensions>
			</trkpt>
			<trkpt lat="47.1263109195" lon="7.5389653112">
				<ele>488.7</ele>
				<time>2021-04-12T10:28:52+02:00</time>
				<extensions>
					<swisstopo:routepoint_id>1297393008</swisstopo:routepoint_id>
				</extensions>
			</trkpt>
			<trkpt lat="47.1263840096" lon="7.5390997562">
				<ele>488.6</ele>
				<time>2021-04-12T10:28:53+02:00</time>
				<extensions>
					<swisstopo:routepoint_id>1882817465</swisstopo:routepoint_id>
				</extensions>
			</trkpt>
			<trkpt lat="47.1264582261" lon="7.5392281037">
				<ele>488.5</ele>
				<time>2021-04-12T10:28:54+02:00</time>
				<extensions>
					<swisstopo:routepoint_id>1341595710</swisstopo:routepoint_id>
				</extensions>
			</trkpt>
			<trkpt lat="47.1265347105" lon="7.5393486594">
				<ele>488.4</ele>
				<time>2021-04-12T10:28:55+02:00</time>
				<extensions>
					<swisstopo:routepoint_id>1768288117</swisstopo:routepoint_id>
				</extensions>
			</trkpt>
			<trkpt lat="47.1266144564" lon="7.5394607223">
				<ele>488.3</ele>
				<time>2021-04-12T10:28:56+02:00</time>
				<extensions>
					<swisstopo:routepoint_id>592191586</swisstopo:routepoint_id>
				</extensions>
			</trkpt>
			<trkpt lat="47.1266976771" lon="7.5395644507">
				<ele>488.2</ele>
				<time>2021-04-12T10:28:57+02:00</time>
				<extensions>
					<swisstopo:routepoint_id>1524765704</swisstopo:routepoint_id>
				</extensions>
			</trkpt>
			<trkpt lat="47.1267842851" lon="7.5396609307">
				<ele>488.1</ele>
				<time>2021-04-12T10:28:58+02:00</time>
				<extensions>
					<swisstopo:routepoint_id>814827477</swisstopo:routepoint_id>
				</extensions>
			</trkpt>
			<trkpt lat="47.1268740534" lon="7.5397507260">
				<ele>488.0</ele>
				<time>2021-04-12T10:28:59+02:00</time>
				<extensions>
					<swisstopo:routepoint_id>302189020</swisstopo:routepoint_id>
				</extensions>
			</trkpt>
			<trkpt lat="47.1269667362" lon="7.5398342670">
				<ele>488.0</ele>
				<time>2021-04-12T10:29:00+02:00</time>
				<extensions>
					<swisstopo:routepoint_id>92033985</swisstopo:routepoint_id>
				</extensions>
			</trkpt>
			<trkpt lat="47.1270618317" lon="7.5399116359">
				<ele>487.9</ele>
				<time>2021-04-12T10:29:01+02:00</time>
				<extensions>
					<swisstopo:routepoint_id>626960055</swisstopo:routepoint_id>
				</extensions>
			</trkpt>
			<trkpt lat="47.1271590815" lon="7.5399822834">
				<ele>487.9</ele>
				<time>2021-04-12T10:29:02+02:00</time>
				<extensions>
					<swisstopo:routepoint_id>1762872203</swisstopo:routepoint_id>
				</extensions>
			</trkpt>
			<trkpt lat="47.1272588417" lon="7.5400444537">
				<ele>487.8</ele>
				<time>2021-04-12T10:29:03+02:00</time>
				<extensions>
					<swisstopo:routepoint_id>1908721809</swisstopo:routepoint_id>
				</extensions>
			</trkpt>
			<trkpt lat="47.1273607120" lon="7.5400964870">
				<ele>487.7</ele>
				<time>2021-04-12T10:29:04+02:00</time>
				<extensions>
					<swisstopo:routepoint_id>776724977</swisstopo:routepoint_id>
				</extensions>
			</trkpt>
			<trkpt lat="47.1274644250" lon="7.5401385978">
				<ele>487.6</ele>
				<time>2021-04-12T10:29:05+02:00</time>
				<extensions>
					<swisstopo:routepoint_id>2011081973</swisstopo:routepoint_id>
				</extensions>
			</trkpt>
			<trkpt lat="47.1275695869" lon="7.5401722265">
				<ele>487.4</ele>
				<time>2021-04-12T10:29:06+02:00</time>
				<extensions>
					<swisstopo:routepoint_id>1009600078</swisstopo:routepoint_id>
				</extensions>
			</trkpt>
			<trkpt lat="47.1276757207" lon="7.5401986346">
				<ele>487.2</ele>
				<time>2021-04-12T10:29:07+02:00</time>
				<extensions>
					<swisstopo:routepoint_id>1080215999</swisstopo:routepoint_id>
				</extensions>
			</trkpt>
			<trkpt lat="47.1277821964" lon="7.5402184108">
				<ele>487.1</ele>
				<time>2021-04-12T10:29:08+02:00</time>
				<extensions>
					<swisstopo:routepoint_id>363543455</swisstopo:routepoint_id>
				</extensions>
			</trkpt>
			<trkpt lat="47.1278883070" lon="7.5402316749">
				<ele>486.8</ele>
				<time>2021-04-12T10:29:09+02:00</time>
				<extensions>
					<swisstopo:routepoint_id>483872470</swisstopo:routepoint_id>
				</extensions>
			</trkpt>
			<trkpt lat="47.1279935243" lon="7.5402381778">
				<ele>486.6</ele>
				<time>2021-04-12T10:29:10+02:00</time>
				<extensions>
					<swisstopo:routepoint_id>2071515748</swisstopo:routepoint_id>
				</extensions>
			</trkpt>
			<trkpt lat="47.1280977478" lon="7.5402374789">
				<ele>486.3</ele>
				<time>2021-04-12T10:29:11+02:00</time>
				<extensions>
					<swisstopo:routepoint_id>960291472</swisstopo:routepoint_id>
				</extensions>
			</trkpt>
			<trkpt lat="47.1282009256" lon="7.5402292988">
				<ele>486.1</ele>
				<time>2021-04-12T10:29:12+02:00</time>
				<extensions>
					<swisstopo:routepoint_id>1279162699</swisstopo:routepoint_id>
				</extensions>
			</trkpt>
			<trkpt lat="47.1283032857" lon="7.5402136898">
				<ele>485.8</ele>
				<time>2021-04-12T10:29:13+02:00</time>
				<extensions>
					<swisstopo:routepoint_id>428691976</swisstopo:routepoint_id>
				</extensions>
			</trkpt>
			<trkpt lat="47.1284046977" lon="7.5401911297">
				<ele>485.5</ele>
				<time>2021-04-12T10:29:14+02:00</time>
				<extensions>
					<swisstopo:routepoint_id>218404947</swisstopo:routepoint_id>
				</extensions>
			</trkpt>
			<trkpt lat="47.1285048606" lon="7.5401623779">
				<ele>485.3</ele>
				<time>2021-04-12T10:29:15+02:00</time>
				<extensions>
					<swisstopo:routepoint_id>682391506</swisstopo:routepoint_id>
				</extensions>
			</trkpt>
			<trkpt lat="47.1286037741" lon="7.5401279888">
				<ele>485.1</ele>
				<time>2021-04-12T10:29:16+02:00</time>
				<extensions>
					<swisstopo:routepoint_id>1391366362</swisstopo:routepoint_id>
				</extensions>
			</trkpt>
			<trkpt lat="47.1287016654" lon="7.5400884423">
				<ele>484.8</ele>
				<time>2021-04-12T10:29:17+02:00</time>
				<extensions>
					<swisstopo:routepoint_id>745013951</swisstopo:routepoint_id>
				</extensions>
			</trkpt>
			<trkpt lat="47.1287989572" lon="7.5400450673">
				<ele>484.5</ele>
				<time>2021-04-12T10:29:18+02:00</time>
				<extensions>
					<swisstopo:routepoint_id>1619812447</swisstopo:routepoint_id>
				</extensions>
			</trkpt>
			<trkpt lat="47.1288962186" lon="7.5399990130">
				<ele>484.1</ele>
				<time>2021-04-12T10:29:19+02:00</time>
				<extensions>
					<swisstopo:routepoint_id>537603710</swisstopo:routepoint_id>
				</extensions>
			</trkpt>
			<trkpt lat="47.1289939173" lon="7.5399510387">
				<ele>483.7</ele>
				<time>2021-04-12T10:29:20+02:00</time>
				<extensions>
					<swisstopo:routepoint_id>1041851041</swisstopo:routepoint_id>
				</extensions>
			</trkpt>
			<trkpt lat="47.1290925032" lon="7.5399028243">
				<ele>483.2</ele>
				<time>2021-04-12T10:29:21+02:00</time>
				<extensions>
					<swisstopo:routepoint_id>1956272096</swisstopo:routepoint_id>
				</extensions>
			</trkpt>
			<trkpt lat="47.1291923735" lon="7.5398562958">
				<ele>482.6</ele>
				<time>2021-04-12T10:29:22+02:00</time>
				<extensions>
					<swisstopo:routepoint_id>1090481902</swisstopo:routepoint_id>
				</extensions>
			</trkpt>
			<trkpt lat="47.1292933919" lon="7.5398132922">
				<ele>482.0</ele>
				<time>2021-04-12T10:29:23+02:00</time>
				<extensions>
					<swisstopo:routepoint_id>1103883416</swisstopo:routepoint_id>
				</extensions>
			</trkpt>
			<trkpt lat="47.1293952440" lon="7.5397753010">
				<ele>481.4</ele>
				<time>2021-04-12T10:29:24+02:00</time>
				<extensions>
					<swisstopo:routepoint_id>857346279</swisstopo:routepoint_id>
				</extensions>
			</trkpt>
			<trkpt lat="47.1294978079" lon="7.5397432953">
				<ele>480.7</ele>
				<time>2021-04-12T10:29:25+02:00</time>
				<extensions>
					<swisstopo:routepoint_id>1951123430</swisstopo:routepoint_id>
				</extensions>
			</trkpt>
			<trkpt lat="47.1296014888" lon="7.5397176920">
				<ele>480.0</ele>
				<time>2021-04-12T10:29:26+02:00</time>
				<extensions>
					<swisstopo:routepoint_id>456198320</swisstopo:routepoint_id>
				</extensions>
			</trkpt>
			<trkpt lat="47.1297057963" lon="7.5396973583">
				<ele>479.3</ele>
				<time>2021-04-12T10:29:27+02:00</time>
				<extensions>
					<swisstopo:routepoint_id>808544450</swisstopo:routepoint_id>
				</extensions>
			</trkpt>
			<trkpt lat="47.1298100539" lon="7.5396812115">
				<ele>478.5</ele>
				<time>2021-04-12T10:29:28+02:00</time>
				<extensions>
					<swisstopo:routepoint_id>2077536581</swisstopo:routepoint_id>
				</extensions>
			</trkpt>
			<trkpt lat="47.1299131157" lon="7.5396688432">
				<ele>477.8</ele>
				<time>2021-04-12T10:29:29+02:00</time>
				<extensions>
					<swisstopo:routepoint_id>1220700294</swisstopo:routepoint_id>
				</extensions>
			</trkpt>
			<trkpt lat="47.1300137626" lon="7.5396591649">
				<ele>477.1</ele>
				<time>2021-04-12T10:29:30+02:00</time>
				<extensions>
					<swisstopo:routepoint_id>1398561467</swisstopo:routepoint_id>
				</extensions>
			</trkpt>
			<trkpt lat="47.1301105502" lon="7.5396515949">
				<ele>476.5</ele>
				<time>2021-04-12T10:29:31+02:00</time>
				<extensions>
					<swisstopo:routepoint_id>1414059454</swisstopo:routepoint_id>
				</extensions>
			</trkpt>
			<trkpt lat="47.1302021032" lon="7.5396454236">
				<ele>475.9</ele>
				<time>2021-04-12T10:29:32+02:00</time>
				<extensions>
					<swisstopo:routepoint_id>2043205676</swisstopo:routepoint_id>
				</extensions>
			</trkpt>
			<trkpt lat="47.1302873635" lon="7.5396402755">
				<ele>475.4</ele>
				<time>2021-04-12T10:29:33+02:00</time>
				<extensions>
					<swisstopo:routepoint_id>1894281002</swisstopo:routepoint_id>
				</extensions>
			</trkpt>
			<trkpt lat="47.1303658056" lon="7.5396359159">
				<ele>475.0</ele>
				<time>2021-04-12T10:29:34+02:00</time>
				<extensions>
					<swisstopo:routepoint_id>735733839</swisstopo:routepoint_id>
				</extensions>
			</trkpt>
			<trkpt lat="47.1304380392" lon="7.5396355373">
				<ele>474.7</ele>
				<time>2021-04-12T10:29:35+02:00</time>
				<extensions>
					<swisstopo:routepoint_id>267792647</swisstopo:routepoint_id>
				</extensions>
			</trkpt>
			<trkpt lat="47.1305038676" lon="7.5396409181">
				<ele>474.5</ele>
				<time>2021-04-12T10:29:36+02:00</time>
				<extensions>
					<swisstopo:routepoint_id>1812777664</swisstopo:routepoint_id>
				</extensions>
			</trkpt>
			<trkpt lat="47.1305640322" lon="7.5396494423">
				<ele>474.3</ele>
				<time>2021-04-12T10:29:37+02:00</time>
				<extensions>
					<swisstopo:routepoint_id>1003698859</swisstopo:routepoint_id>
				</extensions>
			</trkpt>
			<trkpt lat="47.1306182450" lon="7.5396547818">
				<ele>474.1</ele>
				<time>2021-04-12T10:29:38+02:00</time>
				<extensions>
					<swisstopo:routepoint_id>682676028</swisstopo:routepoint_id>
				</extensions>
			</trkpt>
			<trkpt lat="47.1306652246" lon="7.5396491014">
				<ele>474.0</ele>
				<time>2021-04-12T10:29:39+02:00</time>
				<extensions>
					<swisstopo:routepoint_id>1878360322</swisstopo:routepoint_id>
				</extensions>
			</trkpt>
			<trkpt lat="47.1307008542" lon="7.5396281681">
				<ele>473.8</ele>
				<time>2021-04-12T10:29:40+02:00</time>
				<extensions>
					<swisstopo:routepoint_id>1592320954</swisstopo:routepoint_id>
				</extensions>
			</trkpt>
			<trkpt lat="47.1307242165" lon="7.5395915567">
				<ele>473.7</ele>
				<time>2021-04-12T10:29:41+02:00</time>
				<extensions>
					<swisstopo:routepoint_id>197064964</swisstopo:routepoint_id>
				</extensions>
			</trkpt>
			<trkpt lat="47.1307379704" lon="7.5395419982">
				<ele>473.6</ele>
				<time>2021-04-12T10:29:42+02:00</time>
				<extensions>
					<swisstopo:routepoint_id>651066274</swisstopo:routepoint_id>
				</extensions>
			</trkpt>
			<trkpt lat="47.1307455291" lon="7.5394846502">
				<ele>473.6</ele>
				<time>2021-04-12T10:29:43+02:00</time>
				<extensions>
					<swisstopo:routepoint_id>1041685653</swisstopo:routepoint_id>
				</extensions>
			</trkpt>
			<trkpt lat="47.1307486512" lon="7.5394256476">
				<ele>473.6</ele>
				<time>2021-04-12T10:29:44+02:00</time>
				<extensions>
					<swisstopo:routepoint_id>1324079627</swisstopo:routepoint_id>
				</extensions>
			</trkpt>
			<trkpt lat="47.1307477333" lon="7.5393704940">
				<ele>473.6</ele>
				<time>2021-04-12T10:29:45+02:00</time>
				<extensions>
					<swisstopo:routepoint_id>1580740775</swisstopo:routepoint_id>
				</extensions>
			</trkpt>
			<trkpt lat="47.1307425716" lon="7.5393233873">
				<ele>473.7</ele>
				<time>2021-04-12T10:29:46+02:00</time>
				<extensions>
					<swisstopo:routepoint_id>990008388</swisstopo:routepoint_id>
				</extensions>
			</trkpt>
			<trkpt lat="47.1307341037" lon="7.5392850617">
				<ele>473.7</ele>
				<time>2021-04-12T10:29:47+02:00</time>
				<extensions>
					<swisstopo:routepoint_id>367680160</swisstopo:routepoint_id>
				</extensions>
			</trkpt>
			<trkpt lat="47.1307239948" lon="7.5392527079">
				<ele>473.8</ele>
				<time>2021-04-12T10:29:48+02:00</time>
				<extensions>
					<swisstopo:routepoint_id>1289996701</swisstopo:routepoint_id>
				</extensions>
			</trkpt>
			<trkpt lat="47.1307133531" lon="7.5392230337">
				<ele>473.9</ele>
				<time>2021-04-12T10:29:49+02:00</time>
				<extensions>
					<swisstopo:routepoint_id>2127137242</swisstopo:routepoint_id>
				</extensions>
			</trkpt>
			<trkpt lat="47.1307033358" lon="7.5391937984">
				<ele>473.9</ele>
				<time>2021-04-12T10:29:50+02:00</time>
				<extensions>
					<swisstopo:routepoint_id>1635354685</swisstopo:routepoint_id>
				</extensions>
			</trkpt>
			<trkpt lat="47.1306951287" lon="7.5391647552">
				<ele>474.0</ele>
				<time>2021-04-12T10:29:51+02:00</time>
				<extensions>
					<swisstopo:routepoint_id>1910476489</swisstopo:routepoint_id>
				</extensions>
			</trkpt>
			<trkpt lat="47.1306893898" lon="7.5391374971">
				<ele>474.1</ele>
				<time>2021-04-12T10:29:52+02:00</time>
				<extensions>
					<swisstopo:routepoint_id>202860679</swisstopo:routepoint_id>
				</extensions>
			</trkpt>
			<trkpt lat="47.1306862096" lon="7.5391132457">
				<ele>474.2</ele>
				<time>2021-04-12T10:29:53+02:00</time>
				<extensions>
					<swisstopo:routepoint_id>1422884164</swisstopo:routepoint_id>
				</extensions>
			</trkpt>
			<trkpt lat="47.1306849240" lon="7.5390931130">
				<ele>474.3</ele>
				<time>2021-04-12T10:29:54+02:00</time>
				<extensions>
					<swisstopo:routepoint_id>36251356</swisstopo:routepoint_id>
				</extensions>
			</trkpt>
			<trkpt lat="47.1306851397" lon="7.5390769501">
				<ele>474.3</ele>
				<time>2021-04-12T10:29:55+02:00</time>
				<extensions>
					<swisstopo:routepoint_id>1538668191</swisstopo:routepoint_id>
				</extensions>
			</trkpt>
			<trkpt lat="47.1306862669" lon="7.5390649469">
				<ele>474.4</ele>
				<time>2021-04-12T10:29:56+02:00</time>
				<extensions>
					<swisstopo:routepoint_id>398208963</swisstopo:routepoint_id>
				</extensions>
			</trkpt>
			<trkpt lat="47.1306877790" lon="7.5390569780">
				<ele>474.4</ele>
				<time>2021-04-12T10:29:57+02:00</time>
				<extensions>
					<swisstopo:routepoint_id>1138997089</swisstopo:routepoint_id>
				</extensions>
			</trkpt>
			<trkpt lat="47.1306893500" lon="7.5390528479">
				<ele>474.4</ele>
				<time>2021-04-12T10:29:58+02:00</time>
				<extensions>
					<swisstopo:routepoint_id>454845465</swisstopo:routepoint_id>
				</extensions>
			</trkpt>
			<trkpt lat="47.1306911105" lon="7.5390516827">
				<ele>474.4</ele>
				<time>2021-04-12T10:29:59+02:00</time>
				<extensions>
					<swisstopo:routepoint_id>1693430582</swisstopo:routepoint_id>
				</extensions>
			</trkpt>
			<trkpt lat="47.1306929135" lon="7.5390528062">
				<ele>474.5</ele>
				<time>2021-04-12T10:30:00+02:00</time>
				<extensions>
					<swisstopo:routepoint_id>887017983</swisstopo:routepoint_id>
				</extensions>
			</trkpt>
			<trkpt lat="47.1306948073" lon="7.5390554173">
				<ele>474.5</ele>
				<time>2021-04-12T10:30:01+02:00</time>
				<extensions>
					<swisstopo:routepoint_id>279762807</swisstopo:routepoint_id>
				</extensions>
			</trkpt>
			<trkpt lat="47.1306966056" lon="7.5390591308">
				<ele>474.5</ele>
				<time>2021-04-12T10:30:02+02:00</time>
				<extensions>
					<swisstopo:routepoint_id>1131793966</swisstopo:routepoint_id>
				</extensions>
			</trkpt>
			<trkpt lat="47.1306981682" lon="7.5390635310">
				<ele>474.5</ele>
				<time>2021-04-12T10:30:03+02:00</time>
				<extensions>
					<swisstopo:routepoint_id>1798525083</swisstopo:routepoint_id>
				</extensions>
			</trkpt>
			<trkpt lat="47.1306995041" lon="7.5390681814">
				<ele>474.6</ele>
				<time>2021-04-12T10:30:04+02:00</time>
				<extensions>
					<swisstopo:routepoint_id>1978738456</swisstopo:routepoint_id>
				</extensions>
			</trkpt>
			<trkpt lat="47.1307007041" lon="7.5390728281">
				<ele>474.6</ele>
				<time>2021-04-12T10:30:05+02:00</time>
				<extensions>
					<swisstopo:routepoint_id>725472550</swisstopo:routepoint_id>
				</extensions>
			</trkpt>
			<trkpt lat="47.1307018682" lon="7.5390773874">
				<ele>474.6</ele>
				<time>2021-04-12T10:30:06+02:00</time>
				<extensions>
					<swisstopo:routepoint_id>1752483831</swisstopo:routepoint_id>
				</extensions>
			</trkpt>
			<trkpt lat="47.1307028904" lon="7.5390817032">
				<ele>474.6</ele>
				<time>2021-04-12T10:30:07+02:00</time>
				<extensions>
					<swisstopo:routepoint_id>1257529012</swisstopo:routepoint_id>
				</extensions>
			</trkpt>
			<trkpt lat="47.1307036225" lon="7.5390857664">
				<ele>474.6</ele>
				<time>2021-04-12T10:30:08+02:00</time>
				<extensions>
					<swisstopo:routepoint_id>1903534557</swisstopo:routepoint_id>
				</extensions>
			</trkpt>
			<trkpt lat="47.1307041796" lon="7.5390890585">
				<ele>474.6</ele>
				<time>2021-04-12T10:30:09+02:00</time>
				<extensions>
					<swisstopo:routepoint_id>1641410140</swisstopo:routepoint_id>
				</extensions>
			</trkpt>
			<trkpt lat="47.1307050085" lon="7.5390915628">
				<ele>474.6</ele>
				<time>2021-04-12T10:30:10+02:00</time>
				<extensions>
					<swisstopo:routepoint_id>605293618</swisstopo:routepoint_id>
				</extensions>
			</trkpt>
			<trkpt lat="47.1307062175" lon="7.5390938352">
				<ele>474.6</ele>
				<time>2021-04-12T10:30:11+02:00</time>
				<extensions>
					<swisstopo:routepoint_id>539801887</swisstopo:routepoint_id>
				</extensions>
			</trkpt>
			<trkpt lat="47.1307076502" lon="7.5390959218">
				<ele>474.6</ele>
				<time>2021-04-12T10:30:12+02:00</time>
				<extensions>
					<swisstopo:routepoint_id>1479389881</swisstopo:routepoint_id>
				</extensions>
			</trkpt>
			<trkpt lat="47.1307088710" lon="7.5390977362">
				<ele>474.6</ele>
				<time>2021-04-12T10:30:13+02:00</time>
				<extensions>
					<swisstopo:routepoint_id>540065001</swisstopo:routepoint_id>
				</extensions>
			</trkpt>
			<trkpt lat="47.1307095849" lon="7.5390993297">
				<ele>474.6</ele>
				<time>2021-04-12T10:30:14+02:00</time>
				<extensions>
					<swisstopo:routepoint_id>1606579585</swisstopo:routepoint_id>
				</extensions>
			</trkpt>
			<trkpt lat="47.1307098589" lon="7.5391007075">
				<ele>474.5</ele>
				<time>2021-04-12T10:30:15+02:00</time>
				<extensions>
					<swisstopo:routepoint_id>1471191364</swisstopo:routepoint_id>
				</extensions>
			</trkpt>
			<trkpt lat="47.1307098399" lon="7.5391018568">
				<ele>474.5</ele>
				<time>2021-04-12T10:30:16+02:00</time>
				<extensions>
					<swisstopo:routepoint_id>186543190</swisstopo:routepoint_id>
				</extensions>
			</trkpt>
			<trkpt lat="47.1307096502" lon="7.5391026063">
				<ele>474.5</ele>
				<time>2021-04-12T10:30:17+02:00</time>
				<extensions>
					<swisstopo:routepoint_id>2052753357</swisstopo:routepoint_id>
				</extensions>
			</trkpt>
			<trkpt lat="47.1307091922" lon="7.5391031783">
				<ele>474.5</ele>
				<time>2021-04-12T10:30:18+02:00</time>
				<extensions>
					<swisstopo:routepoint_id>1300882044</swisstopo:routepoint_id>
				</extensions>
			</trkpt>
			<trkpt lat="47.1307090462" lon="7.5391037055">
				<ele>474.5</ele>
				<time>2021-04-12T10:30:19+02:00</time>
				<extensions>
					<swisstopo:routepoint_id>393503401</swisstopo:routepoint_id>
				</extensions>
			</trkpt>
			<trkpt lat="47.1307101738" lon="7.5391033564">
				<ele>474.5</ele>
				<time>2021-04-12T10:30:20+02:00</time>
				<extensions>
					<swisstopo:routepoint_id>1509511494</swisstopo:routepoint_id>
				</extensions>
			</trkpt>
			<trkpt lat="47.1307143800" lon="7.5391011905">
				<ele>474.5</ele>
				<time>2021-04-12T10:30:21+02:00</time>
				<extensions>
					<swisstopo:routepoint_id>2135357647</swisstopo:routepoint_id>
				</extensions>
			</trkpt>
			<trkpt lat="47.1307245620" lon="7.5390961216">
				<ele>474.6</ele>
				<time>2021-04-12T10:30:22+02:00</time>
				<extensions>
					<swisstopo:routepoint_id>209264465</swisstopo:routepoint_id>
				</extensions>
			</trkpt>
			<trkpt lat="47.1307436206" lon="7.5390887850">
				<ele>474.6</ele>
				<time>2021-04-12T10:30:23+02:00</time>
				<extensions>
					<swisstopo:routepoint_id>1677133116</swisstopo:routepoint_id>
				</extensions>
			</trkpt>
			<trkpt lat="47.1307741232" lon="7.5390798303">
				<ele>474.5</ele>
				<time>2021-04-12T10:30:24+02:00</time>
				<extensions>
					<swisstopo:routepoint_id>1853413737</swisstopo:routepoint_id>
				</extensions>
			</trkpt>
			<trkpt lat="47.1308179356" lon="7.5390689622">
				<ele>474.5</ele>
				<time>2021-04-12T10:30:25+02:00</time>
				<extensions>
					<swisstopo:routepoint_id>1074378024</swisstopo:routepoint_id>
				</extensions>
			</trkpt>
			<trkpt lat="47.1308753008" lon="7.5390560271">
				<ele>474.4</ele>
				<time>2021-04-12T10:30:26+02:00</time>
				<extensions>
					<swisstopo:routepoint_id>1028945392</swisstopo:routepoint_id>
				</extensions>
			</trkpt>
			<trkpt lat="47.1309464159" lon="7.5390414164">
				<ele>474.4</ele>
				<time>2021-04-12T10:30:27+02:00</time>
				<extensions>
					<swisstopo:routepoint_id>1946877700</swisstopo:routepoint_id>
				</extensions>
			</trkpt>
			<trkpt lat="47.1310307769" lon="7.5390252406">
				<ele>474.3</ele>
				<time>2021-04-12T10:30:28+02:00</time>
				<extensions>
					<swisstopo:routepoint_id>2112658208</swisstopo:routepoint_id>
				</extensions>
			</trkpt>
			<trkpt lat="47.1311272767" lon="7.5390082504">
				<ele>474.2</ele>
				<time>2021-04-12T10:30:29+02:00</time>
				<extensions>
					<swisstopo:routepoint_id>951882358</swisstopo:routepoint_id>
				</extensions>
			</trkpt>
			<trkpt lat="47.1312344750" lon="7.5389927205">
				<ele>474.1</ele>
				<time>2021-04-12T10:30:30+02:00</time>
				<extensions>
					<swisstopo:routepoint_id>1681104403</swisstopo:routepoint_id>
				</extensions>
			</trkpt>
			<trkpt lat="47.1313502237" lon="7.5389798422">
				<ele>474.0</ele>
				<time>2021-04-12T10:30:31+02:00</time>
				<extensions>
					<swisstopo:routepoint_id>2026841289</swisstopo:routepoint_id>
				</extensions>
			</trkpt>
			<trkpt lat="47.1314713433" lon="7.5389688088">
				<ele>473.9</ele>
				<time>2021-04-12T10:30:32+02:00</time>
				<extensions>
					<swisstopo:routepoint_id>1735935509</swisstopo:routepoint_id>
				</extensions>
			</trkpt>
			<trkpt lat="47.1315962330" lon="7.5389566318">
				<ele>473.8</ele>
				<time>2021-04-12T10:30:33+02:00</time>
				<extensions>
					<swisstopo:routepoint_id>155271621</swisstopo:routepoint_id>
				</extensions>
			</trkpt>
			<trkpt lat="47.1317235572" lon="7.5389378924">
				<ele>473.7</ele>
				<time>2021-04-12T10:30:34+02:00</time>
				<extensions>
					<swisstopo:routepoint_id>457503042</swisstopo:routepoint_id>
				</extensions>
			</trkpt>
			<trkpt lat="47.1318521031" lon="7.5389080083">
				<ele>473.5</ele>
				<time>2021-04-12T10:30:35+02:00</time>
				<extensions>
					<swisstopo:routepoint_id>1262170634</swisstopo:routepoint_id>
				</extensions>
			</trkpt>
			<trkpt lat="47.1319818366" lon="7.5388648959">
				<ele>473.4</ele>
				<time>2021-04-12T10:30:36+02:00</time>
				<extensions>
					<swisstopo:routepoint_id>458380572</swisstopo:routepoint_id>
				</extensions>
			</trkpt>
			<trkpt lat="47.1321120364" lon="7.5388089344">
				<ele>473.3</ele>
				<time>2021-04-12T10:30:37+02:00</time>
				<extensions>
					<swisstopo:routepoint_id>978431815</swisstopo:routepoint_id>
				</extensions>
			</trkpt>
			<trkpt lat="47.1322414231" lon="7.5387417269">
				<ele>473.1</ele>
				<time>2021-04-12T10:30:38+02:00</time>
				<extensions>
					<swisstopo:routepoint_id>1221229626</swisstopo:routepoint_id>
				</extensions>
			</trkpt>
			<trkpt lat="47.1323693817" lon="7.5386670917">
				<ele>473.0</ele>
				<time>2021-04-12T10:30:39+02:00</time>
				<extensions>
					<swisstopo:routepoint_id>1705109803</swisstopo:routepoint_id>
				</extensions>
			</trkpt>
			<trkpt lat="47.1324954677" lon="7.5385894677">
				<ele>472.8</ele>
				<time>2021-04-12T10:30:40+02:00</time>
				<extensions>
					<swisstopo:routepoint_id>1758673453</swisstopo:routepoint_id>
				</extensions>
			</trkpt>
			<trkpt lat="47.1326202107" lon="7.5385128440">
				<ele>472.7</ele>
				<time>2021-04-12T10:30:41+02:00</time>
				<extensions>
					<swisstopo:routepoint_id>59807263</swisstopo:routepoint_id>
				</extensions>
			</trkpt>
			<trkpt lat="47.1327435938" lon="7.5384409716">
				<ele>472.6</ele>
				<time>2021-04-12T10:30:42+02:00</time>
				<extensions>
					<swisstopo:routepoint_id>158322445</swisstopo:routepoint_id>
				</extensions>
			</trkpt>
			<trkpt lat="47.1328664089" lon="7.5383757881">
				<ele>472.6</ele>
				<time>2021-04-12T10:30:43+02:00</time>
				<extensions>
					<swisstopo:routepoint_id>193094482</swisstopo:routepoint_id>
				</extensions>
			</trkpt>
			<trkpt lat="47.1329888949" lon="7.5383181851">
				<ele>472.5</ele>
				<time>2021-04-12T10:30:44+02:00</time>
				<extensions>
					<swisstopo:routepoint_id>491168357</swisstopo:routepoint_id>
				</extensions>
			</trkpt>
			<trkpt lat="47.1331110394" lon="7.5382675272">
				<ele>472.5</ele>
				<time>2021-04-12T10:30:45+02:00</time>
				<extensions>
					<swisstopo:routepoint_id>139437031</swisstopo:routepoint_id>
				</extensions>
			</trkpt>
			<trkpt lat="47.1332325740" lon="7.5382229098">
				<ele>472.4</ele>
				<time>2021-04-12T10:30:46+02:00</time>
				<extensions>
					<swisstopo:routepoint_id>613521140</swisstopo:routepoint_id>
				</extensions>
			</trkpt>
			<trkpt lat="47.1333541574" lon="7.5381843385">
				<ele>472.4</ele>
				<time>2021-04-12T10:30:47+02:00</time>
				<extensions>
					<swisstopo:routepoint_id>1380810733</swisstopo:routepoint_id>
				</extensions>
			</trkpt>
			<trkpt lat="47.1334748629" lon="7.5381503608">
				<ele>472.3</ele>
				<time>2021-04-12T10:30:48+02:00</time>
				<extensions>
					<swisstopo:routepoint_id>1577700049</swisstopo:routepoint_id>
				</extensions>
			</trkpt>
			<trkpt lat="47.1335947233" lon="7.5381195367">
				<ele>472.3</ele>
				<time>2021-04-12T10:30:49+02:00</time>
				<extensions>
					<swisstopo:routepoint_id>1424134034</swisstopo:routepoint_id>
				</extensions>
			</trkpt>
			<trkpt lat="47.1337139925" lon="7.5380909901">
				<ele>472.2</ele>
				<time>2021-04-12T10:30:50+02:00</time>
				<extensions>
					<swisstopo:routepoint_id>1715463623</swisstopo:routepoint_id>
				</extensions>
			</trkpt>
			<trkpt lat="47.1338331573" lon="7.5380639715">
				<ele>472.1</ele>
				<time>2021-04-12T10:30:51+02:00</time>
				<extensions>
					<swisstopo:routepoint_id>1829150786</swisstopo:routepoint_id>
				</extensions>
			</trkpt>
			<trkpt lat="47.1339520960" lon="7.5380384395">
				<ele>472.1</ele>
				<time>2021-04-12T10:30:52+02:00</time>
				<extensions>
					<swisstopo:routepoint_id>1308853497</swisstopo:routepoint_id>
				</extensions>
			</trkpt>
			<trkpt lat="47.1340712480" lon="7.5380131656">
				<ele>472.0</ele>
				<time>2021-04-12T10:30:53+02:00</time>
				<extensions>
					<swisstopo:routepoint_id>1225727858</swisstopo:routepoint_id>
				</extensions>
			</trkpt>
			<trkpt lat="47.1341906468" lon="7.5379885105">
				<ele>471.9</ele>
				<time>2021-04-12T10:30:54+02:00</time>
				<extensions>
					<swisstopo:routepoint_id>2144967382</swisstopo:routepoint_id>
				</extensions>
			</trkpt>
			<trkpt lat="47.1343100704" lon="7.5379648128">
				<ele>471.9</ele>
				<time>2021-04-12T10:30:55+02:00</time>
				<extensions>
					<swisstopo:routepoint_id>658807085</swisstopo:routepoint_id>
				</extensions>
			</trkpt>
			<trkpt lat="47.1344292012" lon="7.5379423391">
				<ele>471.8</ele>
				<time>2021-04-12T10:30:56+02:00</time>
				<extensions>
					<swisstopo:routepoint_id>144993663</swisstopo:routepoint_id>
				</extensions>
			</trkpt>
			<trkpt lat="47.1345480546" lon="7.5379212755">
				<ele>471.8</ele>
				<time>2021-04-12T10:30:57+02:00</time>
				<extensions>
					<swisstopo:routepoint_id>1662038343</swisstopo:routepoint_id>
				</extensions>
			</trkpt>
			<trkpt lat="47.1346664091" lon="7.5379023118">
				<ele>471.8</ele>
				<time>2021-04-12T10:30:58+02:00</time>
				<extensions>
					<swisstopo:routepoint_id>1558634272</swisstopo:routepoint_id>
				</extensions>
			</trkpt>
			<trkpt lat="47.1347846518" lon="7.5378865299">
				<ele>471.8</ele>
				<time>2021-04-12T10:30:59+02:00</time>
				<extensions>
					<swisstopo:routepoint_id>960683398</swisstopo:routepoint_id>
				</extensions>
			</trkpt>
			<trkpt lat="47.1349023764" lon="7.5378730918">
				<ele>471.8</ele>
				<time>2021-04-12T10:31:00+02:00</time>
				<extensions>
					<swisstopo:routepoint_id>1423812040</swisstopo:routepoint_id>
				</extensions>
			</trkpt>
			<trkpt lat="47.1350195189" lon="7.5378612260">
				<ele>471.7</ele>
				<time>2021-04-12T10:31:01+02:00</time>
				<extensions>
					<swisstopo:routepoint_id>598677759</swisstopo:routepoint_id>
				</extensions>
			</trkpt>
			<trkpt lat="47.1351359407" lon="7.5378503837">
				<ele>471.7</ele>
				<time>2021-04-12T10:31:02+02:00</time>
				<extensions>
					<swisstopo:routepoint_id>1016209318</swisstopo:routepoint_id>
				</extensions>
			</trkpt>
			<trkpt lat="47.1352523974" lon="7.5378403434">
				<ele>471.7</ele>
				<time>2021-04-12T10:31:03+02:00</time>
				<extensions>
					<swisstopo:routepoint_id>492563035</swisstopo:routepoint_id>
				</extensions>
			</trkpt>
			<trkpt lat="47.1353686022" lon="7.5378309064">
				<ele>471.7</ele>
				<time>2021-04-12T10:31:04+02:00</time>
				<extensions>
					<swisstopo:routepoint_id>2104953707</swisstopo:routepoint_id>
				</extensions>
			</trkpt>
			<trkpt lat="47.1354843508" lon="7.5378226731">
				<ele>471.7</ele>
				<time>2021-04-12T10:31:05+02:00</time>
				<extensions>
					<swisstopo:routepoint_id>311352871</swisstopo:routepoint_id>
				</extensions>
			</trkpt>
			<trkpt lat="47.1355995192" lon="7.5378154462">
				<ele>471.6</ele>
				<time>2021-04-12T10:31:06+02:00</time>
				<extensions>
					<swisstopo:routepoint_id>1637538805</swisstopo:routepoint_id>
				</extensions>
			</trkpt>
			<trkpt lat="47.1357138244" lon="7.5378094683">
				<ele>471.6</ele>
				<time>2021-04-12T10:31:07+02:00</time>
				<extensions>
					<swisstopo:routepoint_id>2111759330</swisstopo:routepoint_id>
				</extensions>
			</trkpt>
			<trkpt lat="47.1358269129" lon="7.5378043764">
				<ele>471.6</ele>
				<time>2021-04-12T10:31:08+02:00</time>
				<extensions>
					<swisstopo:routepoint_id>876825341</swisstopo:routepoint_id>
				</extensions>
			</trkpt>
			<trkpt lat="47.1359380298" lon="7.5377997670">
				<ele>471.6</ele>
				<time>2021-04-12T10:31:09+02:00</time>
				<extensions>
					<swisstopo:routepoint_id>770720473</swisstopo:routepoint_id>
				</extensions>
			</trkpt>
			<trkpt lat="47.1360463206" lon="7.5377950873">
				<ele>471.6</ele>
				<time>2021-04-12T10:31:10+02:00</time>
				<extensions>
					<swisstopo:routepoint_id>2025114654</swisstopo:routepoint_id>
				</extensions>
			</trkpt>
			<trkpt lat="47.1361514286" lon="7.5377898772">
				<ele>471.6</ele>
				<time>2021-04-12T10:31:11+02:00</time>
				<extensions>
					<swisstopo:routepoint_id>633668475</swisstopo:routepoint_id>
				</extensions>
			</trkpt>
			<trkpt lat="47.1362535237" lon="7.5377827987">
				<ele>471.6</ele>
				<time>2021-04-12T10:31:12+02:00</time>
				<extensions>
					<swisstopo:routepoint_id>694653852</swisstopo:routepoint_id>
				</extensions>
			</trkpt>
			<trkpt lat="47.1363536979" lon="7.5377723158">
				<ele>471.6</ele>
				<time>2021-04-12T10:31:13+02:00</time>
				<extensions>
					<swisstopo:routepoint_id>1326185472</swisstopo:routepoint_id>
				</extensions>
			</trkpt>
			<trkpt lat="47.1364527548" lon="7.5377563864">
				<ele>471.5</ele>
				<time>2021-04-12T10:31:14+02:00</time>
				<extensions>
					<swisstopo:routepoint_id>466455691</swisstopo:routepoint_id>
				</extensions>
			</trkpt>
			<trkpt lat="47.1365520625" lon="7.5377336024">
				<ele>471.5</ele>
				<time>2021-04-12T10:31:15+02:00</time>
				<extensions>
					<swisstopo:routepoint_id>1405487087</swisstopo:routepoint_id>
				</extensions>
			</trkpt>
			<trkpt lat="47.1366517308" lon="7.5377026851">
				<ele>471.5</ele>
				<time>2021-04-12T10:31:16+02:00</time>
				<extensions>
					<swisstopo:routepoint_id>1848837856</swisstopo:routepoint_id>
				</extensions>
			</trkpt>
			<trkpt lat="47.1367516459" lon="7.5376633788">
				<ele>471.4</ele>
				<time>2021-04-12T10:31:17+02:00</time>
				<extensions>
					<swisstopo:routepoint_id>1476957349</swisstopo:routepoint_id>
				</extensions>
			</trkpt>
			<trkpt lat="47.1368516957" lon="7.5376161883">
				<ele>471.4</ele>
				<time>2021-04-12T10:31:18+02:00</time>
				<extensions>
					<swisstopo:routepoint_id>458688970</swisstopo:routepoint_id>
				</extensions>
			</trkpt>
			<trkpt lat="47.1369522482" lon="7.5375626807">
				<ele>471.3</ele>
				<time>2021-04-12T10:31:19+02:00</time>
				<extensions>
					<swisstopo:routepoint_id>1866709707</swisstopo:routepoint_id>
				</extensions>
			</trkpt>
			<trkpt lat="47.1370535799" lon="7.5375037978">
				<ele>471.2</ele>
				<time>2021-04-12T10:31:20+02:00</time>
				<extensions>
					<swisstopo:routepoint_id>1201446526</swisstopo:routepoint_id>
				</extensions>
			</trkpt>
			<trkpt lat="47.1371560332" lon="7.5374408428">
				<ele>471.2</ele>
				<time>2021-04-12T10:31:21+02:00</time>
				<extensions>
					<swisstopo:routepoint_id>2070513388</swisstopo:routepoint_id>
				</extensions>
			</trkpt>
			<trkpt lat="47.1372595869" lon="7.5373758303">
				<ele>471.1</ele>
				<time>2021-04-12T10:31:22+02:00</time>
				<extensions>
					<swisstopo:routepoint_id>1293496128</swisstopo:routepoint_id>
				</extensions>
			</trkpt>
			<trkpt lat="47.1373642468" lon="7.5373107835">
				<ele>471.0</ele>
				<time>2021-04-12T10:31:23+02:00</time>
				<extensions>
					<swisstopo:routepoint_id>812464715</swisstopo:routepoint_id>
				</extensions>
			</trkpt>
			<trkpt lat="47.1374700668" lon="7.5372475637">
				<ele>470.9</ele>
				<time>2021-04-12T10:31:24+02:00</time>
				<extensions>
					<swisstopo:routepoint_id>1393437379</swisstopo:routepoint_id>
				</extensions>
			</trkpt>
			<trkpt lat="47.1375773081" lon="7.5371871727">
				<ele>470.8</ele>
				<time>2021-04-12T10:31:25+02:00</time>
				<extensions>
					<swisstopo:routepoint_id>1192858318</swisstopo:routepoint_id>
				</extensions>
			</trkpt>
			<trkpt lat="47.1376855686" lon="7.5371302380">
				<ele>470.7</ele>
				<time>2021-04-12T10:31:26+02:00</time>
				<extensions>
					<swisstopo:routepoint_id>1609905881</swisstopo:routepoint_id>
				</extensions>
			</trkpt>
			<trkpt lat="47.1377946601" lon="7.5370771540">
				<ele>470.6</ele>
				<time>2021-04-12T10:31:27+02:00</time>
				<extensions>
					<swisstopo:routepoint_id>1541673414</swisstopo:routepoint_id>
				</extensions>
			</trkpt>
			<trkpt lat="47.1379048797" lon="7.5370282650">
				<ele>470.5</ele>
				<time>2021-04-12T10:31:28+02:00</time>
				<extensions>
					<swisstopo:routepoint_id>1514868043</swisstopo:routepoint_id>
				</extensions>
			</trkpt>
			<trkpt lat="47.1380162938" lon="7.5369840308">
				<ele>470.4</ele>
				<time>2021-04-12T10:31:29+02:00</time>
				<extensions>
					<swisstopo:routepoint_id>1968563516</swisstopo:routepoint_id>
				</extensions>
			</trkpt>
			<trkpt lat="47.1381286771" lon="7.5369443014">
				<ele>470.3</ele>
				<time>2021-04-12T10:31:30+02:00</time>
				<extensions>
					<swisstopo:routepoint_id>1513947730</swisstopo:routepoint_id>
				</extensions>
			</trkpt>
			<trkpt lat="47.1382417634" lon="7.5369083536">
				<ele>470.2</ele>
				<time>2021-04-12T10:31:31+02:00</time>
				<extensions>
					<swisstopo:routepoint_id>1533248454</swisstopo:routepoint_id>
				</extensions>
			</trkpt>
			<trkpt lat="47.1383555043" lon="7.5368759289">
				<ele>470.0</ele>
				<time>2021-04-12T10:31:32+02:00</time>
				<extensions>
					<swisstopo:routepoint_id>1650486025</swisstopo:routepoint_id>
				</extensions>
			</trkpt>
			<trkpt lat="47.1384690756" lon="7.5368468435">
				<ele>469.9</ele>
				<time>2021-04-12T10:31:33+02:00</time>
				<extensions>
					<swisstopo:routepoint_id>672353876</swisstopo:routepoint_id>
				</extensions>
			</trkpt>
			<trkpt lat="47.1385819768" lon="7.5368206923">
				<ele>469.8</ele>
				<time>2021-04-12T10:31:34+02:00</time>
				<extensions>
					<swisstopo:routepoint_id>192643418</swisstopo:routepoint_id>
				</extensions>
			</trkpt>
			<trkpt lat="47.1386935569" lon="7.5367976183">
				<ele>469.7</ele>
				<time>2021-04-12T10:31:35+02:00</time>
				<extensions>
					<swisstopo:routepoint_id>1500070297</swisstopo:routepoint_id>
				</extensions>
			</trkpt>
			<trkpt lat="47.1388042117" lon="7.5367774092">
				<ele>469.6</ele>
				<time>2021-04-12T10:31:36+02:00</time>
				<extensions>
					<swisstopo:routepoint_id>223465899</swisstopo:routepoint_id>
				</extensions>
			</trkpt>
			<trkpt lat="47.1389144894" lon="7.5367609950">
				<ele>469.5</ele>
				<time>2021-04-12T10:31:37+02:00</time>
				<extensions>
					<swisstopo:routepoint_id>1989949537</swisstopo:routepoint_id>
				</extensions>
			</trkpt>
			<trkpt lat="47.1390246599" lon="7.5367459704">
				<ele>469.4</ele>
				<time>2021-04-12T10:31:38+02:00</time>
				<extensions>
					<swisstopo:routepoint_id>171549981</swisstopo:routepoint_id>
				</extensions>
			</trkpt>
			<trkpt lat="47.1391344008" lon="7.5367284492">
				<ele>469.4</ele>
				<time>2021-04-12T10:31:39+02:00</time>
				<extensions>
					<swisstopo:routepoint_id>1317476393</swisstopo:routepoint_id>
				</extensions>
			</trkpt>
			<trkpt lat="47.1392439853" lon="7.5367063186">
				<ele>469.3</ele>
				<time>2021-04-12T10:31:40+02:00</time>
				<extensions>
					<swisstopo:routepoint_id>121852934</swisstopo:routepoint_id>
				</extensions>
			</trkpt>
			<trkpt lat="47.1393540324" lon="7.5366793888">
				<ele>469.2</ele>
				<time>2021-04-12T10:31:41+02:00</time>
				<extensions>
					<swisstopo:routepoint_id>1430346147</swisstopo:routepoint_id>
				</extensions>
			</trkpt>
			<trkpt lat="47.1394644526" lon="7.5366490684">
				<ele>469.2</ele>
				<time>2021-04-12T10:31:42+02:00</time>
				<extensions>
					<swisstopo:routepoint_id>895748111</swisstopo:routepoint_id>
				</extensions>
			</trkpt>
			<trkpt lat="47.1395747900" lon="7.5366163994">
				<ele>469.2</ele>
				<time>2021-04-12T10:31:43+02:00</time>
				<extensions>
					<swisstopo:routepoint_id>978136107</swisstopo:routepoint_id>
				</extensions>
			</trkpt>
			<trkpt lat="47.1396846570" lon="7.5365815459">
				<ele>469.1</ele>
				<time>2021-04-12T10:31:44+02:00</time>
				<extensions>
					<swisstopo:routepoint_id>546232564</swisstopo:routepoint_id>
				</extensions>
			</trkpt>
			<trkpt lat="47.1397933314" lon="7.5365431695">
				<ele>469.1</ele>
				<time>2021-04-12T10:31:45+02:00</time>
				<extensions>
					<swisstopo:routepoint_id>38112223</swisstopo:routepoint_id>
				</extensions>
			</trkpt>
			<trkpt lat="47.1398999934" lon="7.5365000120">
				<ele>469.1</ele>
				<time>2021-04-12T10:31:46+02:00</time>
				<extensions>
					<swisstopo:routepoint_id>602005155</swisstopo:routepoint_id>
				</extensions>
			</trkpt>
			<trkpt lat="47.1400044494" lon="7.5364518142">
				<ele>469.1</ele>
				<time>2021-04-12T10:31:47+02:00</time>
				<extensions>
					<swisstopo:routepoint_id>1105179068</swisstopo:routepoint_id>
				</extensions>
			</trkpt>
			<trkpt lat="47.1401059585" lon="7.5363990298">
				<ele>469.1</ele>
				<time>2021-04-12T10:31:48+02:00</time>
				<extensions>
					<swisstopo:routepoint_id>1158532973</swisstopo:routepoint_id>
				</extensions>
			</trkpt>
			<trkpt lat="47.1402047685" lon="7.5363425167">
				<ele>469.1</ele>
				<time>2021-04-12T10:31:49+02:00</time>
				<extensions>
					<swisstopo:routepoint_id>229449862</swisstopo:routepoint_id>
				</extensions>
			</trkpt>
			<trkpt lat="47.1403009906" lon="7.5362827930">
				<ele>469.1</ele>
				<time>2021-04-12T10:31:50+02:00</time>
				<extensions>
					<swisstopo:routepoint_id>1630684269</swisstopo:routepoint_id>
				</extensions>
			</trkpt>
			<trkpt lat="47.1403949420" lon="7.5362204353">
				<ele>469.0</ele>
				<time>2021-04-12T10:31:51+02:00</time>
				<extensions>
					<swisstopo:routepoint_id>724206069</swisstopo:routepoint_id>
				</extensions>
			</trkpt>
			<trkpt lat="47.1404868875" lon="7.5361564018">
				<ele>469.0</ele>
				<time>2021-04-12T10:31:52+02:00</time>
				<extensions>
					<swisstopo:routepoint_id>1941574134</swisstopo:routepoint_id>
				</extensions>
			</trkpt>
			<trkpt lat="47.1405768550" lon="7.5360913783">
				<ele>468.9</ele>
				<time>2021-04-12T10:31:53+02:00</time>
				<extensions>
					<swisstopo:routepoint_id>1022453973</swisstopo:routepoint_id>
				</extensions>
			</trkpt>
			<trkpt lat="47.1406652413" lon="7.5360253920">
				<ele>468.9</ele>
				<time>2021-04-12T10:31:54+02:00</time>
				<extensions>
					<swisstopo:routepoint_id>219780917</swisstopo:routepoint_id>
				</extensions>
			</trkpt>
			<trkpt lat="47.1407522709" lon="7.5359581911">
				<ele>468.8</ele>
				<time>2021-04-12T10:31:55+02:00</time>
				<extensions>
					<swisstopo:routepoint_id>185999179</swisstopo:routepoint_id>
				</extensions>
			</trkpt>
			<trkpt lat="47.1408383244" lon="7.5358901561">
				<ele>468.7</ele>
				<time>2021-04-12T10:31:56+02:00</time>
				<extensions>
					<swisstopo:routepoint_id>1499495068</swisstopo:routepoint_id>
				</extensions>
			</trkpt>
			<trkpt lat="47.1409236788" lon="7.5358210781">
				<ele>468.6</ele>
				<time>2021-04-12T10:31:57+02:00</time>
				<extensions>
					<swisstopo:routepoint_id>1293010331</swisstopo:routepoint_id>
				</extensions>
			</trkpt>
			<trkpt lat="47.1410085686" lon="7.5357504198">
				<ele>468.4</ele>
				<time>2021-04-12T10:31:58+02:00</time>
				<extensions>
					<swisstopo:routepoint_id>1237609124</swisstopo:routepoint_id>
				</extensions>
			</trkpt>
			<trkpt lat="47.1410930092" lon="7.5356786737">
				<ele>468.3</ele>
				<time>2021-04-12T10:31:59+02:00</time>
				<extensions>
					<swisstopo:routepoint_id>2117425873</swisstopo:routepoint_id>
				</extensions>
			</trkpt>
			<trkpt lat="47.1411774929" lon="7.5356062052">
				<ele>468.2</ele>
				<time>2021-04-12T10:32:00+02:00</time>
				<extensions>
					<swisstopo:routepoint_id>1625133074</swisstopo:routepoint_id>
				</extensions>
			</trkpt>
			<trkpt lat="47.1412623463" lon="7.5355333206">
				<ele>468.1</ele>
				<time>2021-04-12T10:32:01+02:00</time>
				<extensions>
					<swisstopo:routepoint_id>1914552172</swisstopo:routepoint_id>
				</extensions>
			</trkpt>
			<trkpt lat="47.1413476413" lon="7.5354606700">
				<ele>468.0</ele>
				<time>2021-04-12T10:32:02+02:00</time>
				<extensions>
					<swisstopo:routepoint_id>2130871803</swisstopo:routepoint_id>
				</extensions>
			</trkpt>
			<trkpt lat="47.1414329594" lon="7.5353898155">
				<ele>467.9</ele>
				<time>2021-04-12T10:32:03+02:00</time>
				<extensions>
					<swisstopo:routepoint_id>2125095649</swisstopo:routepoint_id>
				</extensions>
			</trkpt>
			<trkpt lat="47.1415174379" lon="7.5353219275">
				<ele>467.8</ele>
				<time>2021-04-12T10:32:04+02:00</time>
				<extensions>
					<swisstopo:routepoint_id>1682039486</swisstopo:routepoint_id>
				</extensions>
			</trkpt>
			<trkpt lat="47.1415997941" lon="7.5352582249">
				<ele>467.7</ele>
				<time>2021-04-12T10:32:05+02:00</time>
				<extensions>
					<swisstopo:routepoint_id>562912094</swisstopo:routepoint_id>
				</extensions>
			</trkpt>
			<trkpt lat="47.1416783121" lon="7.5351996244">
				<ele>467.7</ele>
				<time>2021-04-12T10:32:06+02:00</time>
				<extensions>
					<swisstopo:routepoint_id>1198098823</swisstopo:routepoint_id>
				</extensions>
			</trkpt>
			<trkpt lat="47.1417506572" lon="7.5351466263">
				<ele>467.6</ele>
				<time>2021-04-12T10:32:07+02:00</time>
				<extensions>
					<swisstopo:routepoint_id>1640243889</swisstopo:routepoint_id>
				</extensions>
			</trkpt>
			<trkpt lat="47.1418151853" lon="7.5350996472">
				<ele>467.6</ele>
				<time>2021-04-12T10:32:08+02:00</time>
				<extensions>
					<swisstopo:routepoint_id>331465884</swisstopo:routepoint_id>
				</extensions>
			</trkpt>
			<trkpt lat="47.1418706530" lon="7.5350589105">
				<ele>467.6</ele>
				<time>2021-04-12T10:32:09+02:00</time>
				<extensions>
					<swisstopo:routepoint_id>374532070</swisstopo:routepoint_id>
				</extensions>
			</trkpt>
			<trkpt lat="47.1419164170" lon="7.5350242825">
				<ele>467.5</ele>
				<time>2021-04-12T10:32:10+02:00</time>
				<extensions>
					<swisstopo:routepoint_id>485931133</swisstopo:routepoint_id>
				</extensions>
			</trkpt>
			<trkpt lat="47.1419526809" lon="7.5349958518">
				<ele>467.5</ele>
				<time>2021-04-12T10:32:11+02:00</time>
				<extensions>
					<swisstopo:routepoint_id>164242790</swisstopo:routepoint_id>
				</extensions>
			</trkpt>
			<trkpt lat="47.1419802336" lon="7.5349737452">
				<ele>467.5</ele>
				<time>2021-04-12T10:32:12+02:00</time>
				<extensions>
					<swisstopo:routepoint_id>912085135</swisstopo:routepoint_id>
				</extensions>
			</trkpt>
			<trkpt lat="47.1419996703" lon="7.5349576309">
				<ele>467.5</ele>
				<time>2021-04-12T10:32:13+02:00</time>
				<extensions>
					<swisstopo:routepoint_id>676591659</swisstopo:routepoint_id>
				</extensions>
			</trkpt>
			<trkpt lat="47.1420117537" lon="7.5349468682">
				<ele>467.5</ele>
				<time>2021-04-12T10:32:14+02:00</time>
				<extensions>
					<swisstopo:routepoint_id>550101948</swisstopo:routepoint_id>
				</extensions>
			</trkpt>
			<trkpt lat="47.1420176437" lon="7.5349407164">
				<ele>467.5</ele>
				<time>2021-04-12T10:32:15+02:00</time>
				<extensions>
					<swisstopo:routepoint_id>646339701</swisstopo:routepoint_id>
				</extensions>
			</trkpt>
			<trkpt lat="47.1420188082" lon="7.5349385572">
				<ele>467.5</ele>
				<time>2021-04-12T10:32:16+02:00</time>
				<extensions>
					<swisstopo:routepoint_id>1059068181</swisstopo:routepoint_id>
				</extensions>
			</trkpt>
			<trkpt lat="47.1420166239" lon="7.5349393274">
				<ele>467.6</ele>
				<time>2021-04-12T10:32:17+02:00</time>
				<extensions>
					<swisstopo:routepoint_id>1414451731</swisstopo:routepoint_id>
				</extensions>
			</trkpt>
			<trkpt lat="47.1420122835" lon="7.5349422174">
				<ele>467.6</ele>
				<time>2021-04-12T10:32:18+02:00</time>
				<extensions>
					<swisstopo:routepoint_id>46270627</swisstopo:routepoint_id>
				</extensions>
			</trkpt>
			<trkpt lat="47.1420068703" lon="7.5349459366">
				<ele>467.6</ele>
				<time>2021-04-12T10:32:19+02:00</time>
				<extensions>
					<swisstopo:routepoint_id>281347775</swisstopo:routepoint_id>
				</extensions>
			</trkpt>
			<trkpt lat="47.1420019008" lon="7.5349491110">
				<ele>467.6</ele>
				<time>2021-04-12T10:32:20+02:00</time>
				<extensions>
					<swisstopo:routepoint_id>2000547378</swisstopo:routepoint_id>
				</extensions>
			</trkpt>
			<trkpt lat="47.1419995569" lon="7.5349498860">
				<ele>467.6</ele>
				<time>2021-04-12T10:32:21+02:00</time>
				<extensions>
					<swisstopo:routepoint_id>48320967</swisstopo:routepoint_id>
				</extensions>
			</trkpt>
			<trkpt lat="47.1420019380" lon="7.5349461414">
				<ele>467.6</ele>
				<time>2021-04-12T10:32:22+02:00</time>
				<extensions>
					<swisstopo:routepoint_id>381673803</swisstopo:routepoint_id>
				</extensions>
			</trkpt>
			<trkpt lat="47.1420114489" lon="7.5349346963">
				<ele>467.6</ele>
				<time>2021-04-12T10:32:23+02:00</time>
				<extensions>
					<swisstopo:routepoint_id>257953432</swisstopo:routepoint_id>
				</extensions>
			</trkpt>
			<trkpt lat="47.1420300727" lon="7.5349131205">
				<ele>467.6</ele>
				<time>2021-04-12T10:32:24+02:00</time>
				<extensions>
					<swisstopo:routepoint_id>1801331978</swisstopo:routepoint_id>
				</extensions>
			</trkpt>
			<trkpt lat="47.1420595935" lon="7.5348800309">
				<ele>467.5</ele>
				<time>2021-04-12T10:32:25+02:00</time>
				<extensions>
					<swisstopo:routepoint_id>1909582487</swisstopo:routepoint_id>
				</extensions>
			</trkpt>
			<trkpt lat="47.1421014719" lon="7.5348341952">
				<ele>467.5</ele>
				<time>2021-04-12T10:32:26+02:00</time>
				<extensions>
					<swisstopo:routepoint_id>209754594</swisstopo:routepoint_id>
				</extensions>
			</trkpt>
			<trkpt lat="47.1421566788" lon="7.5347749140">
				<ele>467.4</ele>
				<time>2021-04-12T10:32:27+02:00</time>
				<extensions>
					<swisstopo:routepoint_id>1324796631</swisstopo:routepoint_id>
				</extensions>
			</trkpt>
			<trkpt lat="47.1422250059" lon="7.5347025598">
				<ele>467.4</ele>
				<time>2021-04-12T10:32:28+02:00</time>
				<extensions>
					<swisstopo:routepoint_id>746525121</swisstopo:routepoint_id>
				</extensions>
			</trkpt>
			<trkpt lat="47.1423058774" lon="7.5346180883">
				<ele>467.3</ele>
				<time>2021-04-12T10:32:29+02:00</time>
				<extensions>
					<swisstopo:routepoint_id>1248242873</swisstopo:routepoint_id>
				</extensions>
			</trkpt>
			<trkpt lat="47.1423973994" lon="7.5345224042">
				<ele>467.3</ele>
				<time>2021-04-12T10:32:30+02:00</time>
				<extensions>
					<swisstopo:routepoint_id>450218968</swisstopo:routepoint_id>
				</extensions>
			</trkpt>
			<trkpt lat="47.1424972515" lon="7.5344163139">
				<ele>467.3</ele>
				<time>2021-04-12T10:32:31+02:00</time>
				<extensions>
					<swisstopo:routepoint_id>1245306795</swisstopo:routepoint_id>
				</extensions>
			</trkpt>
			<trkpt lat="47.1426027642" lon="7.5343016753">
				<ele>467.3</ele>
				<time>2021-04-12T10:32:32+02:00</time>
				<extensions>
					<swisstopo:routepoint_id>495679903</swisstopo:routepoint_id>
				</extensions>
			</trkpt>
			<trkpt lat="47.1427114045" lon="7.5341800540">
				<ele>467.2</ele>
				<time>2021-04-12T10:32:33+02:00</time>
				<extensions>
					<swisstopo:routepoint_id>803063008</swisstopo:routepoint_id>
				</extensions>
			</trkpt>
			<trkpt lat="47.1428208359" lon="7.5340522821">
				<ele>467.3</ele>
				<time>2021-04-12T10:32:34+02:00</time>
				<extensions>
					<swisstopo:routepoint_id>145254061</swisstopo:routepoint_id>
				</extensions>
			</trkpt>
			<trkpt lat="47.1429290158" lon="7.5339193015">
				<ele>467.3</ele>
				<time>2021-04-12T10:32:35+02:00</time>
				<extensions>
					<swisstopo:routepoint_id>1743580235</swisstopo:routepoint_id>
				</extensions>
			</trkpt>
			<trkpt lat="47.1430343508" lon="7.5337829084">
				<ele>467.3</ele>
				<time>2021-04-12T10:32:36+02:00</time>
				<extensions>
					<swisstopo:routepoint_id>1938646330</swisstopo:routepoint_id>
				</extensions>
			</trkpt>
			<trkpt lat="47.1431359815" lon="7.5336452644">
				<ele>467.2</ele>
				<time>2021-04-12T10:32:37+02:00</time>
				<extensions>
					<swisstopo:routepoint_id>1206976026</swisstopo:routepoint_id>
				</extensions>
			</trkpt>
			<trkpt lat="47.1432335637" lon="7.5335082632">
				<ele>467.2</ele>
				<time>2021-04-12T10:32:38+02:00</time>
				<extensions>
					<swisstopo:routepoint_id>515539420</swisstopo:routepoint_id>
				</extensions>
			</trkpt>
			<trkpt lat="47.1433272916" lon="7.5333738156">
				<ele>467.1</ele>
				<time>2021-04-12T10:32:39+02:00</time>
				<extensions>
					<swisstopo:routepoint_id>1721999942</swisstopo:routepoint_id>
				</extensions>
			</trkpt>
			<trkpt lat="47.1434183059" lon="7.5332422163">
				<ele>467.1</ele>
				<time>2021-04-12T10:32:40+02:00</time>
				<extensions>
					<swisstopo:routepoint_id>15914575</swisstopo:routepoint_id>
				</extensions>
			</trkpt>
			<trkpt lat="47.1435093552" lon="7.5331115331">
				<ele>467.0</ele>
				<time>2021-04-12T10:32:41+02:00</time>
				<extensions>
					<swisstopo:routepoint_id>1188289797</swisstopo:routepoint_id>
				</extensions>
			</trkpt>
			<trkpt lat="47.1436001926" lon="7.5329862006">
				<ele>466.9</ele>
				<time>2021-04-12T10:32:42+02:00</time>
				<extensions>
					<swisstopo:routepoint_id>2136184726</swisstopo:routepoint_id>
				</extensions>
			</trkpt>
			<trkpt lat="47.1436941428" lon="7.5328675409">
				<ele>466.8</ele>
				<time>2021-04-12T10:32:43+02:00</time>
				<extensions>
					<swisstopo:routepoint_id>1225079336</swisstopo:routepoint_id>
				</extensions>
			</trkpt>
			<trkpt lat="47.1437928711" lon="7.5327593971">
				<ele>466.7</ele>
				<time>2021-04-12T10:32:44+02:00</time>
				<extensions>
					<swisstopo:routepoint_id>1982676363</swisstopo:routepoint_id>
				</extensions>
			</trkpt>
			<trkpt lat="47.1438972429" lon="7.5326656947">
				<ele>466.6</ele>
				<time>2021-04-12T10:32:45+02:00</time>
				<extensions>
					<swisstopo:routepoint_id>337882442</swisstopo:routepoint_id>
				</extensions>
			</trkpt>
			<trkpt lat="47.1440071135" lon="7.5325882942">
				<ele>466.6</ele>
				<time>2021-04-12T10:32:46+02:00</time>
				<extensions>
					<swisstopo:routepoint_id>843440026</swisstopo:routepoint_id>
				</extensions>
			</trkpt>
			<trkpt lat="47.1441220236" lon="7.5325279592">
				<ele>466.5</ele>
				<time>2021-04-12T10:32:48+02:00</time>
				<extensions>
					<swisstopo:routepoint_id>156963135</swisstopo:routepoint_id>
				</extensions>
			</trkpt>
			<trkpt lat="47.1442408904" lon="7.5324832417">
				<ele>466.4</ele>
				<time>2021-04-12T10:32:48+02:00</time>
				<extensions>
					<swisstopo:routepoint_id>969491429</swisstopo:routepoint_id>
				</extensions>
			</trkpt>
			<trkpt lat="47.1443630993" lon="7.5324510979">
				<ele>466.3</ele>
				<time>2021-04-12T10:32:50+02:00</time>
				<extensions>
					<swisstopo:routepoint_id>1284017414</swisstopo:routepoint_id>
				</extensions>
			</trkpt>
			<trkpt lat="47.1444873702" lon="7.5324294098">
				<ele>466.3</ele>
				<time>2021-04-12T10:32:51+02:00</time>
				<extensions>
					<swisstopo:routepoint_id>417508395</swisstopo:routepoint_id>
				</extensions>
			</trkpt>
			<trkpt lat="47.1446132509" lon="7.5324157098">
				<ele>466.2</ele>
				<time>2021-04-12T10:32:52+02:00</time>
				<extensions>
					<swisstopo:routepoint_id>1234520016</swisstopo:routepoint_id>
				</extensions>
			</trkpt>
			<trkpt lat="47.1447398639" lon="7.5324076190">
				<ele>466.1</ele>
				<time>2021-04-12T10:32:53+02:00</time>
				<extensions>
					<swisstopo:routepoint_id>1738395245</swisstopo:routepoint_id>
				</extensions>
			</trkpt>
			<trkpt lat="47.1448664686" lon="7.5324041243">
				<ele>466.1</ele>
				<time>2021-04-12T10:32:54+02:00</time>
				<extensions>
					<swisstopo:routepoint_id>693865280</swisstopo:routepoint_id>
				</extensions>
			</trkpt>
			<trkpt lat="47.1449923286" lon="7.5324054238">
				<ele>466.0</ele>
				<time>2021-04-12T10:32:55+02:00</time>
				<extensions>
					<swisstopo:routepoint_id>957557750</swisstopo:routepoint_id>
				</extensions>
			</trkpt>
			<trkpt lat="47.1451170659" lon="7.5324126037">
				<ele>465.9</ele>
				<time>2021-04-12T10:32:56+02:00</time>
				<extensions>
					<swisstopo:routepoint_id>430653632</swisstopo:routepoint_id>
				</extensions>
			</trkpt>
			<trkpt lat="47.1452404245" lon="7.5324281481">
				<ele>465.8</ele>
				<time>2021-04-12T10:32:57+02:00</time>
				<extensions>
					<swisstopo:routepoint_id>975702634</swisstopo:routepoint_id>
				</extensions>
			</trkpt>
			<trkpt lat="47.1453622238" lon="7.5324547302">
				<ele>465.7</ele>
				<time>2021-04-12T10:32:58+02:00</time>
				<extensions>
					<swisstopo:routepoint_id>449041146</swisstopo:routepoint_id>
				</extensions>
			</trkpt>
			<trkpt lat="47.1454823193" lon="7.5324931209">
				<ele>465.7</ele>
				<time>2021-04-12T10:32:59+02:00</time>
				<extensions>
					<swisstopo:routepoint_id>777005264</swisstopo:routepoint_id>
				</extensions>
			</trkpt>
			<trkpt lat="47.1456008642" lon="7.5325431566">
				<ele>465.6</ele>
				<time>2021-04-12T10:33:00+02:00</time>
				<extensions>
					<swisstopo:routepoint_id>279414641</swisstopo:routepoint_id>
				</extensions>
			</trkpt>
			<trkpt lat="47.1457175364" lon="7.5326029026">
				<ele>465.5</ele>
				<time>2021-04-12T10:33:01+02:00</time>
				<extensions>
					<swisstopo:routepoint_id>1722618945</swisstopo:routepoint_id>
				</extensions>
			</trkpt>
			<trkpt lat="47.1458318239" lon="7.5326710914">
				<ele>465.5</ele>
				<time>2021-04-12T10:33:02+02:00</time>
				<extensions>
					<swisstopo:routepoint_id>1829563408</swisstopo:routepoint_id>
				</extensions>
			</trkpt>
			<trkpt lat="47.1459435032" lon="7.5327476443">
				<ele>465.4</ele>
				<time>2021-04-12T10:33:03+02:00</time>
				<extensions>
					<swisstopo:routepoint_id>1801340510</swisstopo:routepoint_id>
				</extensions>
			</trkpt>
			<trkpt lat="47.1460522964" lon="7.5328318803">
				<ele>465.4</ele>
				<time>2021-04-12T10:33:04+02:00</time>
				<extensions>
					<swisstopo:routepoint_id>2052979811</swisstopo:routepoint_id>
				</extensions>
			</trkpt>
			<trkpt lat="47.1461574895" lon="7.5329226488">
				<ele>465.5</ele>
				<time>2021-04-12T10:33:04+02:00</time>
				<extensions>
					<swisstopo:routepoint_id>811927128</swisstopo:routepoint_id>
				</extensions>
			</trkpt>
			<trkpt lat="47.1462590206" lon="7.5330189837">
				<ele>465.5</ele>
				<time>2021-04-12T10:33:05+02:00</time>
				<extensions>
					<swisstopo:routepoint_id>948147258</swisstopo:routepoint_id>
				</extensions>
			</trkpt>
			<trkpt lat="47.1463568050" lon="7.5331192601">
				<ele>465.5</ele>
				<time>2021-04-12T10:33:06+02:00</time>
				<extensions>
					<swisstopo:routepoint_id>1182304466</swisstopo:routepoint_id>
				</extensions>
			</trkpt>
			<trkpt lat="47.1464506833" lon="7.5332215437">
				<ele>465.5</ele>
				<time>2021-04-12T10:33:07+02:00</time>
				<extensions>
					<swisstopo:routepoint_id>324974371</swisstopo:routepoint_id>
				</extensions>
			</trkpt>
			<trkpt lat="47.1465404921" lon="7.5333241329">
				<ele>465.5</ele>
				<time>2021-04-12T10:33:08+02:00</time>
				<extensions>
					<swisstopo:routepoint_id>793339076</swisstopo:routepoint_id>
				</extensions>
			</trkpt>
			<trkpt lat="47.1466267489" lon="7.5334255709">
				<ele>465.5</ele>
				<time>2021-04-12T10:33:09+02:00</time>
				<extensions>
					<swisstopo:routepoint_id>2071369756</swisstopo:routepoint_id>
				</extensions>
			</trkpt>
			<trkpt lat="47.1467094175" lon="7.5335244704">
				<ele>465.4</ele>
				<time>2021-04-12T10:33:10+02:00</time>
				<extensions>
					<swisstopo:routepoint_id>654087575</swisstopo:routepoint_id>
				</extensions>
			</trkpt>
			<trkpt lat="47.1467892513" lon="7.5336201027">
				<ele>465.3</ele>
				<time>2021-04-12T10:33:11+02:00</time>
				<extensions>
					<swisstopo:routepoint_id>281084032</swisstopo:routepoint_id>
				</extensions>
			</trkpt>
			<trkpt lat="47.1468675293" lon="7.5337105490">
				<ele>465.3</ele>
				<time>2021-04-12T10:33:12+02:00</time>
				<extensions>
					<swisstopo:routepoint_id>1862786071</swisstopo:routepoint_id>
				</extensions>
			</trkpt>
			<trkpt lat="47.1469461115" lon="7.5337883949">
				<ele>465.3</ele>
				<time>2021-04-12T10:33:13+02:00</time>
				<extensions>
					<swisstopo:routepoint_id>1828889331</swisstopo:routepoint_id>
				</extensions>
			</trkpt>
			<trkpt lat="47.1470271556" lon="7.5338466333">
				<ele>465.2</ele>
				<time>2021-04-12T10:33:14+02:00</time>
				<extensions>
					<swisstopo:routepoint_id>1209546606</swisstopo:routepoint_id>
				</extensions>
			</trkpt>
			<trkpt lat="47.1471116874" lon="7.5338820277">
				<ele>465.1</ele>
				<time>2021-04-12T10:33:15+02:00</time>
				<extensions>
					<swisstopo:routepoint_id>769604540</swisstopo:routepoint_id>
				</extensions>
			</trkpt>
			<trkpt lat="47.1471997048" lon="7.5338934171">
				<ele>465.0</ele>
				<time>2021-04-12T10:33:16+02:00</time>
				<extensions>
					<swisstopo:routepoint_id>449497899</swisstopo:routepoint_id>
				</extensions>
			</trkpt>
			<trkpt lat="47.1472913940" lon="7.5338843146">
				<ele>464.9</ele>
				<time>2021-04-12T10:33:17+02:00</time>
				<extensions>
					<swisstopo:routepoint_id>2011201994</swisstopo:routepoint_id>
				</extensions>
			</trkpt>
			<trkpt lat="47.1473856213" lon="7.5338593208">
				<ele>464.9</ele>
				<time>2021-04-12T10:33:18+02:00</time>
				<extensions>
					<swisstopo:routepoint_id>879309378</swisstopo:routepoint_id>
				</extensions>
			</trkpt>
			<trkpt lat="47.1474807738" lon="7.5338234870">
				<ele>464.9</ele>
				<time>2021-04-12T10:33:19+02:00</time>
				<extensions>
					<swisstopo:routepoint_id>1717741039</swisstopo:routepoint_id>
				</extensions>
			</trkpt>
			<trkpt lat="47.1475741530" lon="7.5337808821">
				<ele>464.9</ele>
				<time>2021-04-12T10:33:20+02:00</time>
				<extensions>
					<swisstopo:routepoint_id>1450975852</swisstopo:routepoint_id>
				</extensions>
			</trkpt>
			<trkpt lat="47.1476624121" lon="7.5337355879">
				<ele>464.9</ele>
				<time>2021-04-12T10:33:21+02:00</time>
				<extensions>
					<swisstopo:routepoint_id>1874332879</swisstopo:routepoint_id>
				</extensions>
			</trkpt>
			<trkpt lat="47.1477428060" lon="7.5336908331">
				<ele>464.8</ele>
				<time>2021-04-12T10:33:22+02:00</time>
				<extensions>
					<swisstopo:routepoint_id>475079510</swisstopo:routepoint_id>
				</extensions>
			</trkpt>
			<trkpt lat="47.1478144645" lon="7.5336491407">
				<ele>464.8</ele>
				<time>2021-04-12T10:33:23+02:00</time>
				<extensions>
					<swisstopo:routepoint_id>317125024</swisstopo:routepoint_id>
				</extensions>
			</trkpt>
			<trkpt lat="47.1478769775" lon="7.5336118363">
				<ele>464.7</ele>
				<time>2021-04-12T10:33:24+02:00</time>
				<extensions>
					<swisstopo:routepoint_id>2013350161</swisstopo:routepoint_id>
				</extensions>
			</trkpt>
			<trkpt lat="47.1479297974" lon="7.5335797996">
				<ele>464.7</ele>
				<time>2021-04-12T10:33:25+02:00</time>
				<extensions>
					<swisstopo:routepoint_id>476330148</swisstopo:routepoint_id>
				</extensions>
			</trkpt>
			<trkpt lat="47.1479725704" lon="7.5335530395">
				<ele>464.7</ele>
				<time>2021-04-12T10:33:26+02:00</time>
				<extensions>
					<swisstopo:routepoint_id>2009245067</swisstopo:routepoint_id>
				</extensions>
			</trkpt>
			<trkpt lat="47.1480067675" lon="7.5335312880">
				<ele>464.6</ele>
				<time>2021-04-12T10:33:27+02:00</time>
				<extensions>
					<swisstopo:routepoint_id>201491994</swisstopo:routepoint_id>
				</extensions>
			</trkpt>
			<trkpt lat="47.1480361005" lon="7.5335141891">
				<ele>464.6</ele>
				<time>2021-04-12T10:33:28+02:00</time>
				<extensions>
					<swisstopo:routepoint_id>2041715486</swisstopo:routepoint_id>
				</extensions>
			</trkpt>
			<trkpt lat="47.1480663673" lon="7.5335004233">
				<ele>464.6</ele>
				<time>2021-04-12T10:33:29+02:00</time>
				<extensions>
					<swisstopo:routepoint_id>470977789</swisstopo:routepoint_id>
				</extensions>
			</trkpt>
			<trkpt lat="47.1481030831" lon="7.5334882944">
				<ele>464.6</ele>
				<time>2021-04-12T10:33:30+02:00</time>
				<extensions>
					<swisstopo:routepoint_id>98976881</swisstopo:routepoint_id>
				</extensions>
			</trkpt>
			<trkpt lat="47.1481499416" lon="7.5334764462">
				<ele>464.5</ele>
				<time>2021-04-12T10:33:31+02:00</time>
				<extensions>
					<swisstopo:routepoint_id>1352096189</swisstopo:routepoint_id>
				</extensions>
			</trkpt>
			<trkpt lat="47.1482095068" lon="7.5334633484">
				<ele>464.5</ele>
				<time>2021-04-12T10:33:32+02:00</time>
				<extensions>
					<swisstopo:routepoint_id>8695969</swisstopo:routepoint_id>
				</extensions>
			</trkpt>
			<trkpt lat="47.1482837817" lon="7.5334480127">
				<ele>464.5</ele>
				<time>2021-04-12T10:33:33+02:00</time>
				<extensions>
					<swisstopo:routepoint_id>124262987</swisstopo:routepoint_id>
				</extensions>
			</trkpt>
			<trkpt lat="47.1483735518" lon="7.5334301979">
				<ele>464.5</ele>
				<time>2021-04-12T10:33:34+02:00</time>
				<extensions>
					<swisstopo:routepoint_id>1133917625</swisstopo:routepoint_id>
				</extensions>
			</trkpt>
			<trkpt lat="47.1484783749" lon="7.5334098663">
				<ele>464.4</ele>
				<time>2021-04-12T10:33:35+02:00</time>
				<extensions>
					<swisstopo:routepoint_id>983639897</swisstopo:routepoint_id>
				</extensions>
			</trkpt>
			<trkpt lat="47.1485968361" lon="7.5333877940">
				<ele>464.4</ele>
				<time>2021-04-12T10:33:36+02:00</time>
				<extensions>
					<swisstopo:routepoint_id>706634273</swisstopo:routepoint_id>
				</extensions>
			</trkpt>
			<trkpt lat="47.1487261161" lon="7.5333648297">
				<ele>464.3</ele>
				<time>2021-04-12T10:33:37+02:00</time>
				<extensions>
					<swisstopo:routepoint_id>817658401</swisstopo:routepoint_id>
				</extensions>
			</trkpt>
			<trkpt lat="47.1488629333" lon="7.5333419299">
				<ele>464.3</ele>
				<time>2021-04-12T10:33:38+02:00</time>
				<extensions>
					<swisstopo:routepoint_id>636888454</swisstopo:routepoint_id>
				</extensions>
			</trkpt>
			<trkpt lat="47.1490040254" lon="7.5333192527">
				<ele>464.2</ele>
				<time>2021-04-12T10:33:39+02:00</time>
				<extensions>
					<swisstopo:routepoint_id>1125749730</swisstopo:routepoint_id>
				</extensions>
			</trkpt>
			<trkpt lat="47.1491469597" lon="7.5332962118">
				<ele>464.2</ele>
				<time>2021-04-12T10:33:40+02:00</time>
				<extensions>
					<swisstopo:routepoint_id>1144782040</swisstopo:routepoint_id>
				</extensions>
			</trkpt>
			<trkpt lat="47.1492899225" lon="7.5332712249">
				<ele>464.3</ele>
				<time>2021-04-12T10:33:41+02:00</time>
				<extensions>
					<swisstopo:routepoint_id>1045752807</swisstopo:routepoint_id>
				</extensions>
			</trkpt>
			<trkpt lat="47.1494315275" lon="7.5332429786">
				<ele>464.5</ele>
				<time>2021-04-12T10:33:42+02:00</time>
				<extensions>
					<swisstopo:routepoint_id>961260201</swisstopo:routepoint_id>
				</extensions>
			</trkpt>
			<trkpt lat="47.1495709490" lon="7.5332111717">
				<ele>464.7</ele>
				<time>2021-04-12T10:33:43+02:00</time>
				<extensions>
					<swisstopo:routepoint_id>380721826</swisstopo:routepoint_id>
				</extensions>
			</trkpt>
			<trkpt lat="47.1497077077" lon="7.5331770113">
				<ele>465.0</ele>
				<time>2021-04-12T10:33:44+02:00</time>
				<extensions>
					<swisstopo:routepoint_id>1437945169</swisstopo:routepoint_id>
				</extensions>
			</trkpt>
			<trkpt lat="47.1498413340" lon="7.5331422163">
				<ele>465.3</ele>
				<time>2021-04-12T10:33:45+02:00</time>
				<extensions>
					<swisstopo:routepoint_id>1910975692</swisstopo:routepoint_id>
				</extensions>
			</trkpt>
			<trkpt lat="47.1499705012" lon="7.5331088350">
				<ele>465.6</ele>
				<time>2021-04-12T10:33:46+02:00</time>
				<extensions>
					<swisstopo:routepoint_id>3030912</swisstopo:routepoint_id>
				</extensions>
			</trkpt>
			<trkpt lat="47.1500934473" lon="7.5330785307">
				<ele>465.9</ele>
				<time>2021-04-12T10:33:47+02:00</time>
				<extensions>
					<swisstopo:routepoint_id>1548414103</swisstopo:routepoint_id>
				</extensions>
			</trkpt>
			<trkpt lat="47.1502089430" lon="7.5330525291">
				<ele>466.2</ele>
				<time>2021-04-12T10:33:48+02:00</time>
				<extensions>
					<swisstopo:routepoint_id>988994775</swisstopo:routepoint_id>
				</extensions>
			</trkpt>
			<trkpt lat="47.1503168045" lon="7.5330316182">
				<ele>466.6</ele>
				<time>2021-04-12T10:33:49+02:00</time>
				<extensions>
					<swisstopo:routepoint_id>511755645</swisstopo:routepoint_id>
				</extensions>
			</trkpt>
			<trkpt lat="47.1504190386" lon="7.5330164434">
				<ele>467.1</ele>
				<time>2021-04-12T10:33:50+02:00</time>
				<extensions>
					<swisstopo:routepoint_id>405119280</swisstopo:routepoint_id>
				</extensions>
			</trkpt>
			<trkpt lat="47.1505186134" lon="7.5330072837">
				<ele>467.7</ele>
				<time>2021-04-12T10:33:51+02:00</time>
				<extensions>
					<swisstopo:routepoint_id>1316577970</swisstopo:routepoint_id>
				</extensions>
			</trkpt>
			<trkpt lat="47.1506185385" lon="7.5330033962">
				<ele>468.3</ele>
				<time>2021-04-12T10:33:52+02:00</time>
				<extensions>
					<swisstopo:routepoint_id>54443102</swisstopo:routepoint_id>
				</extensions>
			</trkpt>
			<trkpt lat="47.1507216813" lon="7.5330034851">
				<ele>469.2</ele>
				<time>2021-04-12T10:33:53+02:00</time>
				<extensions>
					<swisstopo:routepoint_id>197181692</swisstopo:routepoint_id>
				</extensions>
			</trkpt>
			<trkpt lat="47.1508304800" lon="7.5330059105">
				<ele>470.1</ele>
				<time>2021-04-12T10:33:54+02:00</time>
				<extensions>
					<swisstopo:routepoint_id>465430123</swisstopo:routepoint_id>
				</extensions>
			</trkpt>
			<trkpt lat="47.1509466758" lon="7.5330098591">
				<ele>471.1</ele>
				<time>2021-04-12T10:33:55+02:00</time>
				<extensions>
					<swisstopo:routepoint_id>1348634887</swisstopo:routepoint_id>
				</extensions>
			</trkpt>
			<trkpt lat="47.1510705536" lon="7.5330141787">
				<ele>472.2</ele>
				<time>2021-04-12T10:33:56+02:00</time>
				<extensions>
					<swisstopo:routepoint_id>1964135371</swisstopo:routepoint_id>
				</extensions>
			</trkpt>
			<trkpt lat="47.1512014053" lon="7.5330175463">
				<ele>473.3</ele>
				<time>2021-04-12T10:33:57+02:00</time>
				<extensions>
					<swisstopo:routepoint_id>104558713</swisstopo:routepoint_id>
				</extensions>
			</trkpt>
			<trkpt lat="47.1513377875" lon="7.5330187978">
				<ele>474.5</ele>
				<time>2021-04-12T10:33:58+02:00</time>
				<extensions>
					<swisstopo:routepoint_id>676666145</swisstopo:routepoint_id>
				</extensions>
			</trkpt>
			<trkpt lat="47.1514787397" lon="7.5330166101">
				<ele>475.7</ele>
				<time>2021-04-12T10:33:59+02:00</time>
				<extensions>
					<swisstopo:routepoint_id>1801988150</swisstopo:routepoint_id>
				</extensions>
			</trkpt>
			<trkpt lat="47.1516228506" lon="7.5330091462">
				<ele>476.7</ele>
				<time>2021-04-12T10:34:00+02:00</time>
				<extensions>
					<swisstopo:routepoint_id>52963409</swisstopo:routepoint_id>
				</extensions>
			</trkpt>
			<trkpt lat="47.1517693485" lon="7.5329939789">
				<ele>477.7</ele>
				<time>2021-04-12T10:34:01+02:00</time>
				<extensions>
					<swisstopo:routepoint_id>1097785205</swisstopo:routepoint_id>
				</extensions>
			</trkpt>
			<trkpt lat="47.1519183962" lon="7.5329700215">
				<ele>478.5</ele>
				<time>2021-04-12T10:34:02+02:00</time>
				<extensions>
					<swisstopo:routepoint_id>1443929058</swisstopo:routepoint_id>
				</extensions>
			</trkpt>
			<trkpt lat="47.1520703473" lon="7.5329357632">
				<ele>479.2</ele>
				<time>2021-04-12T10:34:03+02:00</time>
				<extensions>
					<swisstopo:routepoint_id>1550466706</swisstopo:routepoint_id>
				</extensions>
			</trkpt>
			<trkpt lat="47.1522257539" lon="7.5328897447">
				<ele>479.7</ele>
				<time>2021-04-12T10:34:04+02:00</time>
				<extensions>
					<swisstopo:routepoint_id>1127355044</swisstopo:routepoint_id>
				</extensions>
			</trkpt>
			<trkpt lat="47.1523849428" lon="7.5328331671">
				<ele>480.0</ele>
				<time>2021-04-12T10:34:05+02:00</time>
				<extensions>
					<swisstopo:routepoint_id>208007027</swisstopo:routepoint_id>
				</extensions>
			</trkpt>
			<trkpt lat="47.1525484930" lon="7.5327677242">
				<ele>480.2</ele>
				<time>2021-04-12T10:34:06+02:00</time>
				<extensions>
					<swisstopo:routepoint_id>2018209120</swisstopo:routepoint_id>
				</extensions>
			</trkpt>
			<trkpt lat="47.1527165319" lon="7.5326952013">
				<ele>480.3</ele>
				<time>2021-04-12T10:34:07+02:00</time>
				<extensions>
					<swisstopo:routepoint_id>536475475</swisstopo:routepoint_id>
				</extensions>
			</trkpt>
			<trkpt lat="47.1528885786" lon="7.5326172823">
				<ele>480.4</ele>
				<time>2021-04-12T10:34:08+02:00</time>
				<extensions>
					<swisstopo:routepoint_id>1406958219</swisstopo:routepoint_id>
				</extensions>
			</trkpt>
			<trkpt lat="47.1530642497" lon="7.5325357011">
				<ele>480.3</ele>
				<time>2021-04-12T10:34:09+02:00</time>
				<extensions>
					<swisstopo:routepoint_id>804349616</swisstopo:routepoint_id>
				</extensions>
			</trkpt>
			<trkpt lat="47.1532430508" lon="7.5324516399">
				<ele>480.3</ele>
				<time>2021-04-12T10:34:10+02:00</time>
				<extensions>
					<swisstopo:routepoint_id>294438247</swisstopo:routepoint_id>
				</extensions>
			</trkpt>
			<trkpt lat="47.1534237335" lon="7.5323657009">
				<ele>480.3</ele>
				<time>2021-04-12T10:34:11+02:00</time>
				<extensions>
					<swisstopo:routepoint_id>821294641</swisstopo:routepoint_id>
				</extensions>
			</trkpt>
			<trkpt lat="47.1536049042" lon="7.5322790656">
				<ele>480.3</ele>
				<time>2021-04-12T10:34:12+02:00</time>
				<extensions>
					<swisstopo:routepoint_id>1621632018</swisstopo:routepoint_id>
				</extensions>
			</trkpt>
			<trkpt lat="47.1537853401" lon="7.5321924850">
				<ele>480.3</ele>
				<time>2021-04-12T10:34:13+02:00</time>
				<extensions>
					<swisstopo:routepoint_id>1054362449</swisstopo:routepoint_id>
				</extensions>
			</trkpt>
			<trkpt lat="47.1539636033" lon="7.5321040164">
				<ele>480.3</ele>
				<time>2021-04-12T10:34:14+02:00</time>
				<extensions>
					<swisstopo:routepoint_id>1782108946</swisstopo:routepoint_id>
				</extensions>
			</trkpt>
			<trkpt lat="47.1541376607" lon="7.5320107867">
				<ele>480.4</ele>
				<time>2021-04-12T10:34:15+02:00</time>
				<extensions>
					<swisstopo:routepoint_id>950630713</swisstopo:routepoint_id>
				</extensions>
			</trkpt>
			<trkpt lat="47.1543069903" lon="7.5319120126">
				<ele>480.6</ele>
				<time>2021-04-12T10:34:16+02:00</time>
				<extensions>
					<swisstopo:routepoint_id>2119543358</swisstopo:routepoint_id>
				</extensions>
			</trkpt>
			<trkpt lat="47.1544724377" lon="7.5318079043">
				<ele>480.7</ele>
				<time>2021-04-12T10:34:17+02:00</time>
				<extensions>
					<swisstopo:routepoint_id>706481470</swisstopo:routepoint_id>
				</extensions>
			</trkpt>
			<trkpt lat="47.1546343693" lon="7.5316979552">
				<ele>480.9</ele>
				<time>2021-04-12T10:34:18+02:00</time>
				<extensions>
					<swisstopo:routepoint_id>396982027</swisstopo:routepoint_id>
				</extensions>
			</trkpt>
			<trkpt lat="47.1547925265" lon="7.5315830084">
				<ele>481.2</ele>
				<time>2021-04-12T10:34:19+02:00</time>
				<extensions>
					<swisstopo:routepoint_id>1992720207</swisstopo:routepoint_id>
				</extensions>
			</trkpt>
			<trkpt lat="47.1549471148" lon="7.5314647403">
				<ele>481.4</ele>
				<time>2021-04-12T10:34:20+02:00</time>
				<extensions>
					<swisstopo:routepoint_id>1641044084</swisstopo:routepoint_id>
				</extensions>
			</trkpt>
			<trkpt lat="47.1550992301" lon="7.5313434468">
				<ele>481.5</ele>
				<time>2021-04-12T10:34:21+02:00</time>
				<extensions>
					<swisstopo:routepoint_id>895441367</swisstopo:routepoint_id>
				</extensions>
			</trkpt>
			<trkpt lat="47.1552487987" lon="7.5312206179">
				<ele>481.5</ele>
				<time>2021-04-12T10:34:22+02:00</time>
				<extensions>
					<swisstopo:routepoint_id>117656993</swisstopo:routepoint_id>
				</extensions>
			</trkpt>
			<trkpt lat="47.1553936676" lon="7.5310982271">
				<ele>481.6</ele>
				<time>2021-04-12T10:34:23+02:00</time>
				<extensions>
					<swisstopo:routepoint_id>1776126111</swisstopo:routepoint_id>
				</extensions>
			</trkpt>
			<trkpt lat="47.1555345235" lon="7.5309772699">
				<ele>481.6</ele>
				<time>2021-04-12T10:34:24+02:00</time>
				<extensions>
					<swisstopo:routepoint_id>1328854277</swisstopo:routepoint_id>
				</extensions>
			</trkpt>
			<trkpt lat="47.1556738359" lon="7.5308578046">
				<ele>481.5</ele>
				<time>2021-04-12T10:34:25+02:00</time>
				<extensions>
					<swisstopo:routepoint_id>223904739</swisstopo:routepoint_id>
				</extensions>
			</trkpt>
			<trkpt lat="47.1558138792" lon="7.5307393821">
				<ele>481.3</ele>
				<time>2021-04-12T10:34:26+02:00</time>
				<extensions>
					<swisstopo:routepoint_id>775598829</swisstopo:routepoint_id>
				</extensions>
			</trkpt>
			<trkpt lat="47.1559553156" lon="7.5306214349">
				<ele>481.0</ele>
				<time>2021-04-12T10:34:27+02:00</time>
				<extensions>
					<swisstopo:routepoint_id>263781713</swisstopo:routepoint_id>
				</extensions>
			</trkpt>
			<trkpt lat="47.1560977649" lon="7.5305028982">
				<ele>480.7</ele>
				<time>2021-04-12T10:34:28+02:00</time>
				<extensions>
					<swisstopo:routepoint_id>973002983</swisstopo:routepoint_id>
				</extensions>
			</trkpt>
			<trkpt lat="47.1562413839" lon="7.5303847236">
				<ele>480.3</ele>
				<time>2021-04-12T10:34:29+02:00</time>
				<extensions>
					<swisstopo:routepoint_id>173163376</swisstopo:routepoint_id>
				</extensions>
			</trkpt>
			<trkpt lat="47.1563865593" lon="7.5302673915">
				<ele>479.9</ele>
				<time>2021-04-12T10:34:30+02:00</time>
				<extensions>
					<swisstopo:routepoint_id>516518747</swisstopo:routepoint_id>
				</extensions>
			</trkpt>
			<trkpt lat="47.1565322116" lon="7.5301512843">
				<ele>479.3</ele>
				<time>2021-04-12T10:34:31+02:00</time>
				<extensions>
					<swisstopo:routepoint_id>1001679655</swisstopo:routepoint_id>
				</extensions>
			</trkpt>
			<trkpt lat="47.1566783240" lon="7.5300372735">
				<ele>478.7</ele>
				<time>2021-04-12T10:34:32+02:00</time>
				<extensions>
					<swisstopo:routepoint_id>1105652752</swisstopo:routepoint_id>
				</extensions>
			</trkpt>
			<trkpt lat="47.1568239862" lon="7.5299264125">
				<ele>478.1</ele>
				<time>2021-04-12T10:34:33+02:00</time>
				<extensions>
					<swisstopo:routepoint_id>529805373</swisstopo:routepoint_id>
				</extensions>
			</trkpt>
			<trkpt lat="47.1569690202" lon="7.5298204073">
				<ele>477.4</ele>
				<time>2021-04-12T10:34:34+02:00</time>
				<extensions>
					<swisstopo:routepoint_id>971703549</swisstopo:routepoint_id>
				</extensions>
			</trkpt>
			<trkpt lat="47.1571139202" lon="7.5297193824">
				<ele>476.6</ele>
				<time>2021-04-12T10:34:35+02:00</time>
				<extensions>
					<swisstopo:routepoint_id>1955896255</swisstopo:routepoint_id>
				</extensions>
			</trkpt>
			<trkpt lat="47.1572582376" lon="7.5296222898">
				<ele>475.8</ele>
				<time>2021-04-12T10:34:36+02:00</time>
				<extensions>
					<swisstopo:routepoint_id>1216173156</swisstopo:routepoint_id>
				</extensions>
			</trkpt>
			<trkpt lat="47.1574013602" lon="7.5295263280">
				<ele>474.8</ele>
				<time>2021-04-12T10:34:37+02:00</time>
				<extensions>
					<swisstopo:routepoint_id>472880746</swisstopo:routepoint_id>
				</extensions>
			</trkpt>
			<trkpt lat="47.1575444904" lon="7.5294302461">
				<ele>473.9</ele>
				<time>2021-04-12T10:34:38+02:00</time>
				<extensions>
					<swisstopo:routepoint_id>2017204122</swisstopo:routepoint_id>
				</extensions>
			</trkpt>
			<trkpt lat="47.1576886761" lon="7.5293327195">
				<ele>472.9</ele>
				<time>2021-04-12T10:34:39+02:00</time>
				<extensions>
					<swisstopo:routepoint_id>825343265</swisstopo:routepoint_id>
				</extensions>
			</trkpt>
			<trkpt lat="47.1578320511" lon="7.5292319204">
				<ele>471.8</ele>
				<time>2021-04-12T10:34:40+02:00</time>
				<extensions>
					<swisstopo:routepoint_id>947378882</swisstopo:routepoint_id>
				</extensions>
			</trkpt>
			<trkpt lat="47.1579720363" lon="7.5291262091">
				<ele>470.8</ele>
				<time>2021-04-12T10:34:41+02:00</time>
				<extensions>
					<swisstopo:routepoint_id>1153110916</swisstopo:routepoint_id>
				</extensions>
			</trkpt>
			<trkpt lat="47.1581064073" lon="7.5290136503">
				<ele>469.8</ele>
				<time>2021-04-12T10:34:42+02:00</time>
				<extensions>
					<swisstopo:routepoint_id>1442734684</swisstopo:routepoint_id>
				</extensions>
			</trkpt>
			<trkpt lat="47.1582337827" lon="7.5288927978">
				<ele>468.9</ele>
				<time>2021-04-12T10:34:43+02:00</time>
				<extensions>
					<swisstopo:routepoint_id>803975711</swisstopo:routepoint_id>
				</extensions>
			</trkpt>
			<trkpt lat="47.1583525745" lon="7.5287629615">
				<ele>468.1</ele>
				<time>2021-04-12T10:34:44+02:00</time>
				<extensions>
					<swisstopo:routepoint_id>452667853</swisstopo:routepoint_id>
				</extensions>
			</trkpt>
			<trkpt lat="47.1584619894" lon="7.5286245033">
				<ele>467.4</ele>
				<time>2021-04-12T10:34:45+02:00</time>
				<extensions>
					<swisstopo:routepoint_id>1601527697</swisstopo:routepoint_id>
				</extensions>
			</trkpt>
			<trkpt lat="47.1585618628" lon="7.5284793306">
				<ele>466.8</ele>
				<time>2021-04-12T10:34:46+02:00</time>
				<extensions>
					<swisstopo:routepoint_id>315971981</swisstopo:routepoint_id>
				</extensions>
			</trkpt>
			<trkpt lat="47.1586518349" lon="7.5283295108">
				<ele>466.3</ele>
				<time>2021-04-12T10:34:47+02:00</time>
				<extensions>
					<swisstopo:routepoint_id>1961509283</swisstopo:routepoint_id>
				</extensions>
			</trkpt>
			<trkpt lat="47.1587321138" lon="7.5281775556">
				<ele>465.9</ele>
				<time>2021-04-12T10:34:48+02:00</time>
				<extensions>
					<swisstopo:routepoint_id>1065054284</swisstopo:routepoint_id>
				</extensions>
			</trkpt>
			<trkpt lat="47.1588034011" lon="7.5280264348">
				<ele>465.6</ele>
				<time>2021-04-12T10:34:49+02:00</time>
				<extensions>
					<swisstopo:routepoint_id>1091153443</swisstopo:routepoint_id>
				</extensions>
			</trkpt>
			<trkpt lat="47.1588665341" lon="7.5278784515">
				<ele>465.4</ele>
				<time>2021-04-12T10:34:50+02:00</time>
				<extensions>
					<swisstopo:routepoint_id>1653054768</swisstopo:routepoint_id>
				</extensions>
			</trkpt>
			<trkpt lat="47.1589223692" lon="7.5277353522">
				<ele>465.3</ele>
				<time>2021-04-12T10:34:51+02:00</time>
				<extensions>
					<swisstopo:routepoint_id>895544537</swisstopo:routepoint_id>
				</extensions>
			</trkpt>
			<trkpt lat="47.1589723489" lon="7.5275977593">
				<ele>465.2</ele>
				<time>2021-04-12T10:34:52+02:00</time>
				<extensions>
					<swisstopo:routepoint_id>1851635183</swisstopo:routepoint_id>
				</extensions>
			</trkpt>
			<trkpt lat="47.1590177842" lon="7.5274661044">
				<ele>465.3</ele>
				<time>2021-04-12T10:34:53+02:00</time>
				<extensions>
					<swisstopo:routepoint_id>1246992004</swisstopo:routepoint_id>
				</extensions>
			</trkpt>
			<trkpt lat="47.1590603608" lon="7.5273402756">
				<ele>465.3</ele>
				<time>2021-04-12T10:34:54+02:00</time>
				<extensions>
					<swisstopo:routepoint_id>901700155</swisstopo:routepoint_id>
				</extensions>
			</trkpt>
			<trkpt lat="47.1591016394" lon="7.5272198705">
				<ele>465.4</ele>
				<time>2021-04-12T10:34:55+02:00</time>
				<extensions>
					<swisstopo:routepoint_id>82408206</swisstopo:routepoint_id>
				</extensions>
			</trkpt>
			<trkpt lat="47.1591429185" lon="7.5271049018">
				<ele>465.5</ele>
				<time>2021-04-12T10:34:56+02:00</time>
				<extensions>
					<swisstopo:routepoint_id>2055249574</swisstopo:routepoint_id>
				</extensions>
			</trkpt>
			<trkpt lat="47.1591854021" lon="7.5269954813">
				<ele>465.6</ele>
				<time>2021-04-12T10:34:57+02:00</time>
				<extensions>
					<swisstopo:routepoint_id>305128223</swisstopo:routepoint_id>
				</extensions>
			</trkpt>
			<trkpt lat="47.1592301274" lon="7.5268921874">
				<ele>465.7</ele>
				<time>2021-04-12T10:34:58+02:00</time>
				<extensions>
					<swisstopo:routepoint_id>99094925</swisstopo:routepoint_id>
				</extensions>
			</trkpt>
			<trkpt lat="47.1592775957" lon="7.5267963670">
				<ele>465.8</ele>
				<time>2021-04-12T10:34:59+02:00</time>
				<extensions>
					<swisstopo:routepoint_id>1188578050</swisstopo:routepoint_id>
				</extensions>
			</trkpt>
			<trkpt lat="47.1593275224" lon="7.5267097714">
				<ele>465.9</ele>
				<time>2021-04-12T10:35:00+02:00</time>
				<extensions>
					<swisstopo:routepoint_id>538401956</swisstopo:routepoint_id>
				</extensions>
			</trkpt>
			<trkpt lat="47.1593785159" lon="7.5266336166">
				<ele>466.0</ele>
				<time>2021-04-12T10:35:01+02:00</time>
				<extensions>
					<swisstopo:routepoint_id>1573069681</swisstopo:routepoint_id>
				</extensions>
			</trkpt>
			<trkpt lat="47.1594289874" lon="7.5265678578">
				<ele>466.1</ele>
				<time>2021-04-12T10:35:02+02:00</time>
				<extensions>
					<swisstopo:routepoint_id>910950350</swisstopo:routepoint_id>
				</extensions>
			</trkpt>
			<trkpt lat="47.1594779152" lon="7.5265118057">
				<ele>466.1</ele>
				<time>2021-04-12T10:35:03+02:00</time>
				<extensions>
					<swisstopo:routepoint_id>931612987</swisstopo:routepoint_id>
				</extensions>
			</trkpt>
			<trkpt lat="47.1595248659" lon="7.5264649006">
				<ele>466.2</ele>
				<time>2021-04-12T10:35:04+02:00</time>
				<extensions>
					<swisstopo:routepoint_id>316202232</swisstopo:routepoint_id>
				</extensions>
			</trkpt>
			<trkpt lat="47.1595699191" lon="7.5264259616">
				<ele>466.2</ele>
				<time>2021-04-12T10:35:05+02:00</time>
				<extensions>
					<swisstopo:routepoint_id>1536370546</swisstopo:routepoint_id>
				</extensions>
			</trkpt>
			<trkpt lat="47.1596138793" lon="7.5263936745">
				<ele>466.3</ele>
				<time>2021-04-12T10:35:06+02:00</time>
				<extensions>
					<swisstopo:routepoint_id>436395094</swisstopo:routepoint_id>
				</extensions>
			</trkpt>
			<trkpt lat="47.1596577765" lon="7.5263665860">
				<ele>466.3</ele>
				<time>2021-04-12T10:35:07+02:00</time>
				<extensions>
					<swisstopo:routepoint_id>835690353</swisstopo:routepoint_id>
				</extensions>
			</trkpt>
			<trkpt lat="47.1597021272" lon="7.5263435368">
				<ele>466.4</ele>
				<time>2021-04-12T10:35:08+02:00</time>
				<extensions>
					<swisstopo:routepoint_id>904711491</swisstopo:routepoint_id>
				</extensions>
			</trkpt>
			<trkpt lat="47.1597476074" lon="7.5263237144">
				<ele>466.4</ele>
				<time>2021-04-12T10:35:09+02:00</time>
				<extensions>
					<swisstopo:routepoint_id>1301808477</swisstopo:routepoint_id>
				</extensions>
			</trkpt>
			<trkpt lat="47.1597950703" lon="7.5263069180">
				<ele>466.4</ele>
				<time>2021-04-12T10:35:10+02:00</time>
				<extensions>
					<swisstopo:routepoint_id>931677303</swisstopo:routepoint_id>
				</extensions>
			</trkpt>
			<trkpt lat="47.1598450431" lon="7.5262925871">
				<ele>466.4</ele>
				<time>2021-04-12T10:35:11+02:00</time>
				<extensions>
					<swisstopo:routepoint_id>1397161244</swisstopo:routepoint_id>
				</extensions>
			</trkpt>
			<trkpt lat="47.1598980769" lon="7.5262802648">
				<ele>466.4</ele>
				<time>2021-04-12T10:35:12+02:00</time>
				<extensions>
					<swisstopo:routepoint_id>1502831610</swisstopo:routepoint_id>
				</extensions>
			</trkpt>
			<trkpt lat="47.1599552604" lon="7.5262692155">
				<ele>466.4</ele>
				<time>2021-04-12T10:35:13+02:00</time>
				<extensions>
					<swisstopo:routepoint_id>1535696903</swisstopo:routepoint_id>
				</extensions>
			</trkpt>
			<trkpt lat="47.1600173050" lon="7.5262588580">
				<ele>466.3</ele>
				<time>2021-04-12T10:35:14+02:00</time>
				<extensions>
					<swisstopo:routepoint_id>1999379075</swisstopo:routepoint_id>
				</extensions>
			</trkpt>
			<trkpt lat="47.1600845809" lon="7.5262489396">
				<ele>466.3</ele>
				<time>2021-04-12T10:35:15+02:00</time>
				<extensions>
					<swisstopo:routepoint_id>1887488916</swisstopo:routepoint_id>
				</extensions>
			</trkpt>
			<trkpt lat="47.1601567731" lon="7.5262391763">
				<ele>466.2</ele>
				<time>2021-04-12T10:35:16+02:00</time>
				<extensions>
					<swisstopo:routepoint_id>397777728</swisstopo:routepoint_id>
				</extensions>
			</trkpt>
			<trkpt lat="47.1602330152" lon="7.5262298178">
				<ele>466.1</ele>
				<time>2021-04-12T10:35:17+02:00</time>
				<extensions>
					<swisstopo:routepoint_id>333681385</swisstopo:routepoint_id>
				</extensions>
			</trkpt>
			<trkpt lat="47.1603123972" lon="7.5262207602">
				<ele>466.0</ele>
				<time>2021-04-12T10:35:18+02:00</time>
				<extensions>
					<swisstopo:routepoint_id>1103235378</swisstopo:routepoint_id>
				</extensions>
			</trkpt>
			<trkpt lat="47.1603941440" lon="7.5262114618">
				<ele>465.9</ele>
				<time>2021-04-12T10:35:19+02:00</time>
				<extensions>
					<swisstopo:routepoint_id>703189848</swisstopo:routepoint_id>
				</extensions>
			</trkpt>
			<trkpt lat="47.1604769614" lon="7.5262019994">
				<ele>465.9</ele>
				<time>2021-04-12T10:35:20+02:00</time>
				<extensions>
					<swisstopo:routepoint_id>909265895</swisstopo:routepoint_id>
				</extensions>
			</trkpt>
			<trkpt lat="47.1605592613" lon="7.5261923898">
				<ele>465.8</ele>
				<time>2021-04-12T10:35:21+02:00</time>
				<extensions>
					<swisstopo:routepoint_id>538265213</swisstopo:routepoint_id>
				</extensions>
			</trkpt>
			<trkpt lat="47.1606398494" lon="7.5261828870">
				<ele>465.8</ele>
				<time>2021-04-12T10:35:22+02:00</time>
				<extensions>
					<swisstopo:routepoint_id>1422313727</swisstopo:routepoint_id>
				</extensions>
			</trkpt>
			<trkpt lat="47.1607177078" lon="7.5261727727">
				<ele>465.7</ele>
				<time>2021-04-12T10:35:23+02:00</time>
				<extensions>
					<swisstopo:routepoint_id>1186334932</swisstopo:routepoint_id>
				</extensions>
			</trkpt>
			<trkpt lat="47.1607920560" lon="7.5261623720">
				<ele>465.7</ele>
				<time>2021-04-12T10:35:24+02:00</time>
				<extensions>
					<swisstopo:routepoint_id>1493023376</swisstopo:routepoint_id>
				</extensions>
			</trkpt>
			<trkpt lat="47.1608623035" lon="7.5261526945">
				<ele>465.7</ele>
				<time>2021-04-12T10:35:25+02:00</time>
				<extensions>
					<swisstopo:routepoint_id>2044948884</swisstopo:routepoint_id>
				</extensions>
			</trkpt>
			<trkpt lat="47.1609282152" lon="7.5261433598">
				<ele>465.7</ele>
				<time>2021-04-12T10:35:26+02:00</time>
				<extensions>
					<swisstopo:routepoint_id>1127606800</swisstopo:routepoint_id>
				</extensions>
			</trkpt>
			<trkpt lat="47.1609906892" lon="7.5261344172">
				<ele>465.7</ele>
				<time>2021-04-12T10:35:27+02:00</time>
				<extensions>
					<swisstopo:routepoint_id>144302825</swisstopo:routepoint_id>
				</extensions>
			</trkpt>
			<trkpt lat="47.1610510858" lon="7.5261256780">
				<ele>465.7</ele>
				<time>2021-04-12T10:35:28+02:00</time>
				<extensions>
					<swisstopo:routepoint_id>788542312</swisstopo:routepoint_id>
				</extensions>
			</trkpt>
			<trkpt lat="47.1611101512" lon="7.5261164954">
				<ele>465.7</ele>
				<time>2021-04-12T10:35:29+02:00</time>
				<extensions>
					<swisstopo:routepoint_id>909052147</swisstopo:routepoint_id>
				</extensions>
			</trkpt>
			<trkpt lat="47.1611685052" lon="7.5261069951">
				<ele>465.7</ele>
				<time>2021-04-12T10:35:30+02:00</time>
				<extensions>
					<swisstopo:routepoint_id>1240769871</swisstopo:routepoint_id>
				</extensions>
			</trkpt>
			<trkpt lat="47.1612268400" lon="7.5260975226">
				<ele>465.7</ele>
				<time>2021-04-12T10:35:31+02:00</time>
				<extensions>
					<swisstopo:routepoint_id>1553009527</swisstopo:routepoint_id>
				</extensions>
			</trkpt>
			<trkpt lat="47.1612855328" lon="7.5260878980">
				<ele>465.7</ele>
				<time>2021-04-12T10:35:32+02:00</time>
				<extensions>
					<swisstopo:routepoint_id>914874651</swisstopo:routepoint_id>
				</extensions>
			</trkpt>
			<trkpt lat="47.1613448737" lon="7.5260779464">
				<ele>465.7</ele>
				<time>2021-04-12T10:35:33+02:00</time>
				<extensions>
					<swisstopo:routepoint_id>315346837</swisstopo:routepoint_id>
				</extensions>
			</trkpt>
			<trkpt lat="47.1614057418" lon="7.5260674608">
				<ele>465.7</ele>
				<time>2021-04-12T10:35:34+02:00</time>
				<extensions>
					<swisstopo:routepoint_id>44648663</swisstopo:routepoint_id>
				</extensions>
			</trkpt>
			<trkpt lat="47.1614696633" lon="7.5260562678">
				<ele>465.7</ele>
				<time>2021-04-12T10:35:35+02:00</time>
				<extensions>
					<swisstopo:routepoint_id>938286238</swisstopo:routepoint_id>
				</extensions>
			</trkpt>
			<trkpt lat="47.1615381277" lon="7.5260444158">
				<ele>465.7</ele>
				<time>2021-04-12T10:35:36+02:00</time>
				<extensions>
					<swisstopo:routepoint_id>804382145</swisstopo:routepoint_id>
				</extensions>
			</trkpt>
			<trkpt lat="47.1616119774" lon="7.5260316686">
				<ele>465.7</ele>
				<time>2021-04-12T10:35:37+02:00</time>
				<extensions>
					<swisstopo:routepoint_id>841153150</swisstopo:routepoint_id>
				</extensions>
			</trkpt>
			<trkpt lat="47.1616917444" lon="7.5260179053">
				<ele>465.7</ele>
				<time>2021-04-12T10:35:38+02:00</time>
				<extensions>
					<swisstopo:routepoint_id>376143849</swisstopo:routepoint_id>
				</extensions>
			</trkpt>
			<trkpt lat="47.1617768887" lon="7.5260031059">
				<ele>465.7</ele>
				<time>2021-04-12T10:35:39+02:00</time>
				<extensions>
					<swisstopo:routepoint_id>1805297022</swisstopo:routepoint_id>
				</extensions>
			</trkpt>
			<trkpt lat="47.1618663369" lon="7.5259876377">
				<ele>465.6</ele>
				<time>2021-04-12T10:35:40+02:00</time>
				<extensions>
					<swisstopo:routepoint_id>1978083938</swisstopo:routepoint_id>
				</extensions>
			</trkpt>
			<trkpt lat="47.1619579688" lon="7.5259720660">
				<ele>465.6</ele>
				<time>2021-04-12T10:35:41+02:00</time>
				<extensions>
					<swisstopo:routepoint_id>462406759</swisstopo:routepoint_id>
				</extensions>
			</trkpt>
			<trkpt lat="47.1620490389" lon="7.5259571185">
				<ele>465.5</ele>
				<time>2021-04-12T10:35:42+02:00</time>
				<extensions>
					<swisstopo:routepoint_id>2074563667</swisstopo:routepoint_id>
				</extensions>
			</trkpt>
			<trkpt lat="47.1621368242" lon="7.5259431128">
				<ele>465.5</ele>
				<time>2021-04-12T10:35:43+02:00</time>
				<extensions>
					<swisstopo:routepoint_id>647058577</swisstopo:routepoint_id>
				</extensions>
			</trkpt>
			<trkpt lat="47.1622194437" lon="7.5259317399">
				<ele>465.4</ele>
				<time>2021-04-12T10:35:44+02:00</time>
				<extensions>
					<swisstopo:routepoint_id>256315231</swisstopo:routepoint_id>
				</extensions>
			</trkpt>
			<trkpt lat="47.1622965417" lon="7.5259255665">
				<ele>465.4</ele>
				<time>2021-04-12T10:35:45+02:00</time>
				<extensions>
					<swisstopo:routepoint_id>37891535</swisstopo:routepoint_id>
				</extensions>
			</trkpt>
			<trkpt lat="47.1623688408" lon="7.5259255852">
				<ele>465.2</ele>
				<time>2021-04-12T10:35:46+02:00</time>
				<extensions>
					<swisstopo:routepoint_id>1187869233</swisstopo:routepoint_id>
				</extensions>
			</trkpt>
			<trkpt lat="47.1624380984" lon="7.5259280240">
				<ele>465.0</ele>
				<time>2021-04-12T10:35:47+02:00</time>
				<extensions>
					<swisstopo:routepoint_id>1510216519</swisstopo:routepoint_id>
				</extensions>
			</trkpt>
			<trkpt lat="47.1625059883" lon="7.5259271455">
				<ele>464.9</ele>
				<time>2021-04-12T10:35:48+02:00</time>
				<extensions>
					<swisstopo:routepoint_id>1099810940</swisstopo:routepoint_id>
				</extensions>
			</trkpt>
			<trkpt lat="47.1625740006" lon="7.5259212651">
				<ele>464.8</ele>
				<time>2021-04-12T10:35:49+02:00</time>
				<extensions>
					<swisstopo:routepoint_id>1130718851</swisstopo:routepoint_id>
				</extensions>
			</trkpt>
			<trkpt lat="47.1626445386" lon="7.5259119040">
				<ele>464.8</ele>
				<time>2021-04-12T10:35:50+02:00</time>
				<extensions>
					<swisstopo:routepoint_id>908936454</swisstopo:routepoint_id>
				</extensions>
			</trkpt>
			<trkpt lat="47.1627186272" lon="7.5259017554">
				<ele>464.8</ele>
				<time>2021-04-12T10:35:51+02:00</time>
				<extensions>
					<swisstopo:routepoint_id>1443801267</swisstopo:routepoint_id>
				</extensions>
			</trkpt>
			<trkpt lat="47.1627970086" lon="7.5258915312">
				<ele>464.8</ele>
				<time>2021-04-12T10:35:52+02:00</time>
				<extensions>
					<swisstopo:routepoint_id>1550167016</swisstopo:routepoint_id>
				</extensions>
			</trkpt>
			<trkpt lat="47.1628798088" lon="7.5258809552">
				<ele>464.8</ele>
				<time>2021-04-12T10:35:53+02:00</time>
				<extensions>
					<swisstopo:routepoint_id>385432508</swisstopo:routepoint_id>
				</extensions>
			</trkpt>
			<trkpt lat="47.1629664845" lon="7.5258699273">
				<ele>464.9</ele>
				<time>2021-04-12T10:35:54+02:00</time>
				<extensions>
					<swisstopo:routepoint_id>1153482604</swisstopo:routepoint_id>
				</extensions>
			</trkpt>
			<trkpt lat="47.1630565623" lon="7.5258594909">
				<ele>464.9</ele>
				<time>2021-04-12T10:35:55+02:00</time>
				<extensions>
					<swisstopo:routepoint_id>1247243959</swisstopo:routepoint_id>
				</extensions>
			</trkpt>
			<trkpt lat="47.1631491365" lon="7.5258499074">
				<ele>465.0</ele>
				<time>2021-04-12T10:35:56+02:00</time>
				<extensions>
					<swisstopo:routepoint_id>841340546</swisstopo:routepoint_id>
				</extensions>
			</trkpt>
			<trkpt lat="47.1632437351" lon="7.5258422298">
				<ele>465.1</ele>
				<time>2021-04-12T10:35:57+02:00</time>
				<extensions>
					<swisstopo:routepoint_id>1378224774</swisstopo:routepoint_id>
				</extensions>
			</trkpt>
			<trkpt lat="47.1633397871" lon="7.5258374852">
				<ele>465.3</ele>
				<time>2021-04-12T10:35:58+02:00</time>
				<extensions>
					<swisstopo:routepoint_id>1065160076</swisstopo:routepoint_id>
				</extensions>
			</trkpt>
			<trkpt lat="47.1634369396" lon="7.5258373455">
				<ele>465.4</ele>
				<time>2021-04-12T10:35:59+02:00</time>
				<extensions>
					<swisstopo:routepoint_id>721715940</swisstopo:routepoint_id>
				</extensions>
			</trkpt>
			<trkpt lat="47.1635350965" lon="7.5258430134">
				<ele>465.6</ele>
				<time>2021-04-12T10:36:00+02:00</time>
				<extensions>
					<swisstopo:routepoint_id>892165324</swisstopo:routepoint_id>
				</extensions>
			</trkpt>
			<trkpt lat="47.1636330460" lon="7.5258552898">
				<ele>465.7</ele>
				<time>2021-04-12T10:36:01+02:00</time>
				<extensions>
					<swisstopo:routepoint_id>891777114</swisstopo:routepoint_id>
				</extensions>
			</trkpt>
			<trkpt lat="47.1637306501" lon="7.5258743702">
				<ele>465.9</ele>
				<time>2021-04-12T10:36:02+02:00</time>
				<extensions>
					<swisstopo:routepoint_id>809582585</swisstopo:routepoint_id>
				</extensions>
			</trkpt>
			<trkpt lat="47.1638279842" lon="7.5259001294">
				<ele>465.9</ele>
				<time>2021-04-12T10:36:03+02:00</time>
				<extensions>
					<swisstopo:routepoint_id>198118703</swisstopo:routepoint_id>
				</extensions>
			</trkpt>
			<trkpt lat="47.1639243207" lon="7.5259329918">
				<ele>466.0</ele>
				<time>2021-04-12T10:36:04+02:00</time>
				<extensions>
					<swisstopo:routepoint_id>1181388471</swisstopo:routepoint_id>
				</extensions>
			</trkpt>
			<trkpt lat="47.1640192027" lon="7.5259736019">
				<ele>466.0</ele>
				<time>2021-04-12T10:36:05+02:00</time>
				<extensions>
					<swisstopo:routepoint_id>2109715582</swisstopo:routepoint_id>
				</extensions>
			</trkpt>
			<trkpt lat="47.1641126067" lon="7.5260216826">
				<ele>466.0</ele>
				<time>2021-04-12T10:36:06+02:00</time>
				<extensions>
					<swisstopo:routepoint_id>887291057</swisstopo:routepoint_id>
				</extensions>
			</trkpt>
			<trkpt lat="47.1642053446" lon="7.5260763957">
				<ele>466.0</ele>
				<time>2021-04-12T10:36:07+02:00</time>
				<extensions>
					<swisstopo:routepoint_id>574350231</swisstopo:routepoint_id>
				</extensions>
			</trkpt>
			<trkpt lat="47.1642973833" lon="7.5261365836">
				<ele>466.0</ele>
				<time>2021-04-12T10:36:08+02:00</time>
				<extensions>
					<swisstopo:routepoint_id>165339152</swisstopo:routepoint_id>
				</extensions>
			</trkpt>
			<trkpt lat="47.1643886479" lon="7.5262008451">
				<ele>466.1</ele>
				<time>2021-04-12T10:36:09+02:00</time>
				<extensions>
					<swisstopo:routepoint_id>11288446</swisstopo:routepoint_id>
				</extensions>
			</trkpt>
			<trkpt lat="47.1644792913" lon="7.5262689693">
				<ele>466.1</ele>
				<time>2021-04-12T10:36:10+02:00</time>
				<extensions>
					<swisstopo:routepoint_id>746350986</swisstopo:routepoint_id>
				</extensions>
			</trkpt>
			<trkpt lat="47.1645687640" lon="7.5263395925">
				<ele>466.2</ele>
				<time>2021-04-12T10:36:11+02:00</time>
				<extensions>
					<swisstopo:routepoint_id>469039575</swisstopo:routepoint_id>
				</extensions>
			</trkpt>
			<trkpt lat="47.1646568394" lon="7.5264126675">
				<ele>466.2</ele>
				<time>2021-04-12T10:36:12+02:00</time>
				<extensions>
					<swisstopo:routepoint_id>1883152535</swisstopo:routepoint_id>
				</extensions>
			</trkpt>
			<trkpt lat="47.1647448454" lon="7.5264880287">
				<ele>466.2</ele>
				<time>2021-04-12T10:36:13+02:00</time>
				<extensions>
					<swisstopo:routepoint_id>530666259</swisstopo:routepoint_id>
				</extensions>
			</trkpt>
			<trkpt lat="47.1648326657" lon="7.5265647338">
				<ele>466.2</ele>
				<time>2021-04-12T10:36:14+02:00</time>
				<extensions>
					<swisstopo:routepoint_id>408229022</swisstopo:routepoint_id>
				</extensions>
			</trkpt>
			<trkpt lat="47.1649205752" lon="7.5266417151">
				<ele>466.3</ele>
				<time>2021-04-12T10:36:15+02:00</time>
				<extensions>
					<swisstopo:routepoint_id>2042404236</swisstopo:routepoint_id>
				</extensions>
			</trkpt>
			<trkpt lat="47.1650083936" lon="7.5267186662">
				<ele>466.3</ele>
				<time>2021-04-12T10:36:16+02:00</time>
				<extensions>
					<swisstopo:routepoint_id>1309380804</swisstopo:routepoint_id>
				</extensions>
			</trkpt>
			<trkpt lat="47.1650961772" lon="7.5267958667">
				<ele>466.3</ele>
				<time>2021-04-12T10:36:17+02:00</time>
				<extensions>
					<swisstopo:routepoint_id>1498242019</swisstopo:routepoint_id>
				</extensions>
			</trkpt>
			<trkpt lat="47.1651845289" lon="7.5268727071">
				<ele>466.3</ele>
				<time>2021-04-12T10:36:18+02:00</time>
				<extensions>
					<swisstopo:routepoint_id>1707852258</swisstopo:routepoint_id>
				</extensions>
			</trkpt>
			<trkpt lat="47.1652733575" lon="7.5269492161">
				<ele>466.4</ele>
				<time>2021-04-12T10:36:19+02:00</time>
				<extensions>
					<swisstopo:routepoint_id>606474404</swisstopo:routepoint_id>
				</extensions>
			</trkpt>
			<trkpt lat="47.1653629949" lon="7.5270252174">
				<ele>466.4</ele>
				<time>2021-04-12T10:36:20+02:00</time>
				<extensions>
					<swisstopo:routepoint_id>1057919366</swisstopo:routepoint_id>
				</extensions>
			</trkpt>
			<trkpt lat="47.1654536417" lon="7.5271014057">
				<ele>466.4</ele>
				<time>2021-04-12T10:36:21+02:00</time>
				<extensions>
					<swisstopo:routepoint_id>1433670849</swisstopo:routepoint_id>
				</extensions>
			</trkpt>
			<trkpt lat="47.1655449131" lon="7.5271783478">
				<ele>466.4</ele>
				<time>2021-04-12T10:36:22+02:00</time>
				<extensions>
					<swisstopo:routepoint_id>939439803</swisstopo:routepoint_id>
				</extensions>
			</trkpt>
			<trkpt lat="47.1656371658" lon="7.5272558927">
				<ele>466.4</ele>
				<time>2021-04-12T10:36:23+02:00</time>
				<extensions>
					<swisstopo:routepoint_id>864996277</swisstopo:routepoint_id>
				</extensions>
			</trkpt>
			<trkpt lat="47.1657300091" lon="7.5273340854">
				<ele>466.4</ele>
				<time>2021-04-12T10:36:24+02:00</time>
				<extensions>
					<swisstopo:routepoint_id>1675620996</swisstopo:routepoint_id>
				</extensions>
			</trkpt>
			<trkpt lat="47.1658237912" lon="7.5274122010">
				<ele>466.4</ele>
				<time>2021-04-12T10:36:25+02:00</time>
				<extensions>
					<swisstopo:routepoint_id>61533014</swisstopo:routepoint_id>
				</extensions>
			</trkpt>
			<trkpt lat="47.1659180663" lon="7.5274901735">
				<ele>466.4</ele>
				<time>2021-04-12T10:36:26+02:00</time>
				<extensions>
					<swisstopo:routepoint_id>1245732091</swisstopo:routepoint_id>
				</extensions>
			</trkpt>
			<trkpt lat="47.1660127755" lon="7.5275680508">
				<ele>466.5</ele>
				<time>2021-04-12T10:36:27+02:00</time>
				<extensions>
					<swisstopo:routepoint_id>1201178834</swisstopo:routepoint_id>
				</extensions>
			</trkpt>
			<trkpt lat="47.1661080224" lon="7.5276466638">
				<ele>466.5</ele>
				<time>2021-04-12T10:36:28+02:00</time>
				<extensions>
					<swisstopo:routepoint_id>1866381238</swisstopo:routepoint_id>
				</extensions>
			</trkpt>
			<trkpt lat="47.1662033054" lon="7.5277268613">
				<ele>466.6</ele>
				<time>2021-04-12T10:36:29+02:00</time>
				<extensions>
					<swisstopo:routepoint_id>2123318984</swisstopo:routepoint_id>
				</extensions>
			</trkpt>
			<trkpt lat="47.1662988041" lon="7.5278092699">
				<ele>466.7</ele>
				<time>2021-04-12T10:36:30+02:00</time>
				<extensions>
					<swisstopo:routepoint_id>1886401889</swisstopo:routepoint_id>
				</extensions>
			</trkpt>
			<trkpt lat="47.1663941125" lon="7.5278939964">
				<ele>466.7</ele>
				<time>2021-04-12T10:36:31+02:00</time>
				<extensions>
					<swisstopo:routepoint_id>1455467762</swisstopo:routepoint_id>
				</extensions>
			</trkpt>
			<trkpt lat="47.1664886266" lon="7.5279817037">
				<ele>466.8</ele>
				<time>2021-04-12T10:36:32+02:00</time>
				<extensions>
					<swisstopo:routepoint_id>60452957</swisstopo:routepoint_id>
				</extensions>
			</trkpt>
			<trkpt lat="47.1665817530" lon="7.5280727301">
				<ele>466.9</ele>
				<time>2021-04-12T10:36:33+02:00</time>
				<extensions>
					<swisstopo:routepoint_id>273083268</swisstopo:routepoint_id>
				</extensions>
			</trkpt>
			<trkpt lat="47.1666730145" lon="7.5281669837">
				<ele>466.9</ele>
				<time>2021-04-12T10:36:34+02:00</time>
				<extensions>
					<swisstopo:routepoint_id>537931637</swisstopo:routepoint_id>
				</extensions>
			</trkpt>
			<trkpt lat="47.1667620501" lon="7.5282646729">
				<ele>467.0</ele>
				<time>2021-04-12T10:36:35+02:00</time>
				<extensions>
					<swisstopo:routepoint_id>110869189</swisstopo:routepoint_id>
				</extensions>
			</trkpt>
			<trkpt lat="47.1668491675" lon="7.5283668683">
				<ele>467.0</ele>
				<time>2021-04-12T10:36:36+02:00</time>
				<extensions>
					<swisstopo:routepoint_id>1510137574</swisstopo:routepoint_id>
				</extensions>
			</trkpt>
			<trkpt lat="47.1669345251" lon="7.5284737798">
				<ele>467.0</ele>
				<time>2021-04-12T10:36:37+02:00</time>
				<extensions>
					<swisstopo:routepoint_id>1920465972</swisstopo:routepoint_id>
				</extensions>
			</trkpt>
			<trkpt lat="47.1670189134" lon="7.5285849926">
				<ele>466.9</ele>
				<time>2021-04-12T10:36:38+02:00</time>
				<extensions>
					<swisstopo:routepoint_id>592376994</swisstopo:routepoint_id>
				</extensions>
			</trkpt>
			<trkpt lat="47.1671024071" lon="7.5286993556">
				<ele>466.9</ele>
				<time>2021-04-12T10:36:39+02:00</time>
				<extensions>
					<swisstopo:routepoint_id>345950666</swisstopo:routepoint_id>
				</extensions>
			</trkpt>
			<trkpt lat="47.1671851801" lon="7.5288156917">
				<ele>466.8</ele>
				<time>2021-04-12T10:36:40+02:00</time>
				<extensions>
					<swisstopo:routepoint_id>1154611033</swisstopo:routepoint_id>
				</extensions>
			</trkpt>
			<trkpt lat="47.1672683626" lon="7.5289331237">
				<ele>466.8</ele>
				<time>2021-04-12T10:36:41+02:00</time>
				<extensions>
					<swisstopo:routepoint_id>885397339</swisstopo:routepoint_id>
				</extensions>
			</trkpt>
			<trkpt lat="47.1673523765" lon="7.5290507274">
				<ele>466.7</ele>
				<time>2021-04-12T10:36:42+02:00</time>
				<extensions>
					<swisstopo:routepoint_id>958886510</swisstopo:routepoint_id>
				</extensions>
			</trkpt>
			<trkpt lat="47.1674376326" lon="7.5291675504">
				<ele>466.7</ele>
				<time>2021-04-12T10:36:43+02:00</time>
				<extensions>
					<swisstopo:routepoint_id>1288286482</swisstopo:routepoint_id>
				</extensions>
			</trkpt>
			<trkpt lat="47.1675244820" lon="7.5292833490">
				<ele>466.7</ele>
				<time>2021-04-12T10:36:44+02:00</time>
				<extensions>
					<swisstopo:routepoint_id>1300773920</swisstopo:routepoint_id>
				</extensions>
			</trkpt>
			<trkpt lat="47.1676126866" lon="7.5293987436">
				<ele>466.7</ele>
				<time>2021-04-12T10:36:45+02:00</time>
				<extensions>
					<swisstopo:routepoint_id>723746980</swisstopo:routepoint_id>
				</extensions>
			</trkpt>
			<trkpt lat="47.1677019640" lon="7.5295143657">
				<ele>466.6</ele>
				<time>2021-04-12T10:36:46+02:00</time>
				<extensions>
					<swisstopo:routepoint_id>668116252</swisstopo:routepoint_id>
				</extensions>
			</trkpt>
			<trkpt lat="47.1677924317" lon="7.5296303889">
				<ele>466.6</ele>
				<time>2021-04-12T10:36:47+02:00</time>
				<extensions>
					<swisstopo:routepoint_id>1985340848</swisstopo:routepoint_id>
				</extensions>
			</trkpt>
			<trkpt lat="47.1678841334" lon="7.5297476009">
				<ele>466.6</ele>
				<time>2021-04-12T10:36:48+02:00</time>
				<extensions>
					<swisstopo:routepoint_id>22725250</swisstopo:routepoint_id>
				</extensions>
			</trkpt>
			<trkpt lat="47.1679766372" lon="7.5298665795">
				<ele>466.6</ele>
				<time>2021-04-12T10:36:49+02:00</time>
				<extensions>
					<swisstopo:routepoint_id>1838671231</swisstopo:routepoint_id>
				</extensions>
			</trkpt>
			<trkpt lat="47.1680695996" lon="7.5299875469">
				<ele>466.6</ele>
				<time>2021-04-12T10:36:50+02:00</time>
				<extensions>
					<swisstopo:routepoint_id>257699087</swisstopo:routepoint_id>
				</extensions>
			</trkpt>
			<trkpt lat="47.1681626901" lon="7.5301103812">
				<ele>466.7</ele>
				<time>2021-04-12T10:36:51+02:00</time>
				<extensions>
					<swisstopo:routepoint_id>1821522857</swisstopo:routepoint_id>
				</extensions>
			</trkpt>
			<trkpt lat="47.1682557512" lon="7.5302347978">
				<ele>466.7</ele>
				<time>2021-04-12T10:36:52+02:00</time>
				<extensions>
					<swisstopo:routepoint_id>1955269614</swisstopo:routepoint_id>
				</extensions>
			</trkpt>
			<trkpt lat="47.1683484051" lon="7.5303600767">
				<ele>466.7</ele>
				<time>2021-04-12T10:36:53+02:00</time>
				<extensions>
					<swisstopo:routepoint_id>1421636104</swisstopo:routepoint_id>
				</extensions>
			</trkpt>
			<trkpt lat="47.1684408601" lon="7.5304856932">
				<ele>466.7</ele>
				<time>2021-04-12T10:36:54+02:00</time>
				<extensions>
					<swisstopo:routepoint_id>534943406</swisstopo:routepoint_id>
				</extensions>
			</trkpt>
			<trkpt lat="47.1685331714" lon="7.5306110985">
				<ele>466.7</ele>
				<time>2021-04-12T10:36:55+02:00</time>
				<extensions>
					<swisstopo:routepoint_id>1427278300</swisstopo:routepoint_id>
				</extensions>
			</trkpt>
			<trkpt lat="47.1686253477" lon="7.5307350018">
				<ele>466.8</ele>
				<time>2021-04-12T10:36:56+02:00</time>
				<extensions>
					<swisstopo:routepoint_id>874051110</swisstopo:routepoint_id>
				</extensions>
			</trkpt>
			<trkpt lat="47.1687169713" lon="7.5308570977">
				<ele>466.8</ele>
				<time>2021-04-12T10:36:57+02:00</time>
				<extensions>
					<swisstopo:routepoint_id>1388860290</swisstopo:routepoint_id>
				</extensions>
			</trkpt>
			<trkpt lat="47.1688087425" lon="7.5309776586">
				<ele>466.8</ele>
				<time>2021-04-12T10:36:58+02:00</time>
				<extensions>
					<swisstopo:routepoint_id>1575134787</swisstopo:routepoint_id>
				</extensions>
			</trkpt>
			<trkpt lat="47.1689000264" lon="7.5310967053">
				<ele>466.9</ele>
				<time>2021-04-12T10:36:59+02:00</time>
				<extensions>
					<swisstopo:routepoint_id>1259448540</swisstopo:routepoint_id>
				</extensions>
			</trkpt>
			<trkpt lat="47.1689911839" lon="7.5312134445">
				<ele>466.9</ele>
				<time>2021-04-12T10:37:00+02:00</time>
				<extensions>
					<swisstopo:routepoint_id>1952786948</swisstopo:routepoint_id>
				</extensions>
			</trkpt>
			<trkpt lat="47.1690826658" lon="7.5313272818">
				<ele>466.9</ele>
				<time>2021-04-12T10:37:01+02:00</time>
				<extensions>
					<swisstopo:routepoint_id>497657935</swisstopo:routepoint_id>
				</extensions>
			</trkpt>
			<trkpt lat="47.1691749166" lon="7.5314384663">
				<ele>466.9</ele>
				<time>2021-04-12T10:37:02+02:00</time>
				<extensions>
					<swisstopo:routepoint_id>1835592127</swisstopo:routepoint_id>
				</extensions>
			</trkpt>
			<trkpt lat="47.1692674963" lon="7.5315483386">
				<ele>467.0</ele>
				<time>2021-04-12T10:37:03+02:00</time>
				<extensions>
					<swisstopo:routepoint_id>46805687</swisstopo:routepoint_id>
				</extensions>
			</trkpt>
			<trkpt lat="47.1693599733" lon="7.5316580850">
				<ele>467.0</ele>
				<time>2021-04-12T10:37:04+02:00</time>
				<extensions>
					<swisstopo:routepoint_id>684166607</swisstopo:routepoint_id>
				</extensions>
			</trkpt>
			<trkpt lat="47.1694516468" lon="7.5317689156">
				<ele>467.1</ele>
				<time>2021-04-12T10:37:05+02:00</time>
				<extensions>
					<swisstopo:routepoint_id>1160717811</swisstopo:routepoint_id>
				</extensions>
			</trkpt>
			<trkpt lat="47.1695422101" lon="7.5318819437">
				<ele>467.1</ele>
				<time>2021-04-12T10:37:06+02:00</time>
				<extensions>
					<swisstopo:routepoint_id>442800129</swisstopo:routepoint_id>
				</extensions>
			</trkpt>
			<trkpt lat="47.1696316361" lon="7.5319968236">
				<ele>467.2</ele>
				<time>2021-04-12T10:37:07+02:00</time>
				<extensions>
					<swisstopo:routepoint_id>1110931248</swisstopo:routepoint_id>
				</extensions>
			</trkpt>
			<trkpt lat="47.1697198089" lon="7.5321134626">
				<ele>467.4</ele>
				<time>2021-04-12T10:37:08+02:00</time>
				<extensions>
					<swisstopo:routepoint_id>1198658118</swisstopo:routepoint_id>
				</extensions>
			</trkpt>
			<trkpt lat="47.1698071052" lon="7.5322307561">
				<ele>467.5</ele>
				<time>2021-04-12T10:37:09+02:00</time>
				<extensions>
					<swisstopo:routepoint_id>302896719</swisstopo:routepoint_id>
				</extensions>
			</trkpt>
			<trkpt lat="47.1698937631" lon="7.5323480577">
				<ele>467.7</ele>
				<time>2021-04-12T10:37:10+02:00</time>
				<extensions>
					<swisstopo:routepoint_id>1248912843</swisstopo:routepoint_id>
				</extensions>
			</trkpt>
			<trkpt lat="47.1699799338" lon="7.5324648604">
				<ele>468.0</ele>
				<time>2021-04-12T10:37:11+02:00</time>
				<extensions>
					<swisstopo:routepoint_id>972986523</swisstopo:routepoint_id>
				</extensions>
			</trkpt>
			<trkpt lat="47.1700653461" lon="7.5325798819">
				<ele>468.2</ele>
				<time>2021-04-12T10:37:12+02:00</time>
				<extensions>
					<swisstopo:routepoint_id>2044003803</swisstopo:routepoint_id>
				</extensions>
			</trkpt>
			<trkpt lat="47.1701487127" lon="7.5326914496">
				<ele>468.5</ele>
				<time>2021-04-12T10:37:13+02:00</time>
				<extensions>
					<swisstopo:routepoint_id>276015962</swisstopo:routepoint_id>
				</extensions>
			</trkpt>
			<trkpt lat="47.1702287237" lon="7.5327973243">
				<ele>468.8</ele>
				<time>2021-04-12T10:37:14+02:00</time>
				<extensions>
					<swisstopo:routepoint_id>435595814</swisstopo:routepoint_id>
				</extensions>
			</trkpt>
			<trkpt lat="47.1703048050" lon="7.5328948907">
				<ele>469.1</ele>
				<time>2021-04-12T10:37:15+02:00</time>
				<extensions>
					<swisstopo:routepoint_id>287093275</swisstopo:routepoint_id>
				</extensions>
			</trkpt>
			<trkpt lat="47.1703761021" lon="7.5329809039">
				<ele>469.3</ele>
				<time>2021-04-12T10:37:16+02:00</time>
				<extensions>
					<swisstopo:routepoint_id>1928401763</swisstopo:routepoint_id>
				</extensions>
			</trkpt>
			<trkpt lat="47.1704407328" lon="7.5330545040">
				<ele>469.6</ele>
				<time>2021-04-12T10:37:17+02:00</time>
				<extensions>
					<swisstopo:routepoint_id>825230217</swisstopo:routepoint_id>
				</extensions>
			</trkpt>
			<trkpt lat="47.1704966241" lon="7.5331163462">
				<ele>469.9</ele>
				<time>2021-04-12T10:37:18+02:00</time>
				<extensions>
					<swisstopo:routepoint_id>1194864793</swisstopo:routepoint_id>
				</extensions>
			</trkpt>
			<trkpt lat="47.1705430502" lon="7.5331665841">
				<ele>470.1</ele>
				<time>2021-04-12T10:37:19+02:00</time>
				<extensions>
					<swisstopo:routepoint_id>972992854</swisstopo:routepoint_id>
				</extensions>
			</trkpt>
			<trkpt lat="47.1705805412" lon="7.5332062080">
				<ele>470.3</ele>
				<time>2021-04-12T10:37:20+02:00</time>
				<extensions>
					<swisstopo:routepoint_id>2925273</swisstopo:routepoint_id>
				</extensions>
			</trkpt>
			<trkpt lat="47.1706102907" lon="7.5332376582">
				<ele>470.5</ele>
				<time>2021-04-12T10:37:21+02:00</time>
				<extensions>
					<swisstopo:routepoint_id>1920423077</swisstopo:routepoint_id>
				</extensions>
			</trkpt>
			<trkpt lat="47.1706356866" lon="7.5332664917">
				<ele>470.7</ele>
				<time>2021-04-12T10:37:22+02:00</time>
				<extensions>
					<swisstopo:routepoint_id>2018924376</swisstopo:routepoint_id>
				</extensions>
			</trkpt>
			<trkpt lat="47.1706615662" lon="7.5332990360">
				<ele>470.9</ele>
				<time>2021-04-12T10:37:23+02:00</time>
				<extensions>
					<swisstopo:routepoint_id>1820364832</swisstopo:routepoint_id>
				</extensions>
			</trkpt>
			<trkpt lat="47.1706922833" lon="7.5333405656">
				<ele>471.1</ele>
				<time>2021-04-12T10:37:24+02:00</time>
				<extensions>
					<swisstopo:routepoint_id>1819696262</swisstopo:routepoint_id>
				</extensions>
			</trkpt>
			<trkpt lat="47.1707317422" lon="7.5333935633">
				<ele>471.3</ele>
				<time>2021-04-12T10:37:25+02:00</time>
				<extensions>
					<swisstopo:routepoint_id>1320458507</swisstopo:routepoint_id>
				</extensions>
			</trkpt>
			<trkpt lat="47.1707821639" lon="7.5334602398">
				<ele>471.5</ele>
				<time>2021-04-12T10:37:26+02:00</time>
				<extensions>
					<swisstopo:routepoint_id>850119051</swisstopo:routepoint_id>
				</extensions>
			</trkpt>
			<trkpt lat="47.1708440096" lon="7.5335420882">
				<ele>471.8</ele>
				<time>2021-04-12T10:37:27+02:00</time>
				<extensions>
					<swisstopo:routepoint_id>742186666</swisstopo:routepoint_id>
				</extensions>
			</trkpt>
			<trkpt lat="47.1709163260" lon="7.5336392067">
				<ele>472.1</ele>
				<time>2021-04-12T10:37:28+02:00</time>
				<extensions>
					<swisstopo:routepoint_id>1346273686</swisstopo:routepoint_id>
				</extensions>
			</trkpt>
			<trkpt lat="47.1709977179" lon="7.5337503757">
				<ele>472.5</ele>
				<time>2021-04-12T10:37:29+02:00</time>
				<extensions>
					<swisstopo:routepoint_id>934135810</swisstopo:routepoint_id>
				</extensions>
			</trkpt>
			<trkpt lat="47.1710869484" lon="7.5338743398">
				<ele>472.9</ele>
				<time>2021-04-12T10:37:30+02:00</time>
				<extensions>
					<swisstopo:routepoint_id>1915099100</swisstopo:routepoint_id>
				</extensions>
			</trkpt>
			<trkpt lat="47.1711825833" lon="7.5340081126">
				<ele>473.4</ele>
				<time>2021-04-12T10:37:31+02:00</time>
				<extensions>
					<swisstopo:routepoint_id>585672464</swisstopo:routepoint_id>
				</extensions>
			</trkpt>
			<trkpt lat="47.1712840237" lon="7.5341479677">
				<ele>473.8</ele>
				<time>2021-04-12T10:37:32+02:00</time>
				<extensions>
					<swisstopo:routepoint_id>1479548247</swisstopo:routepoint_id>
				</extensions>
			</trkpt>
			<trkpt lat="47.1713898805" lon="7.5342902058">
				<ele>474.3</ele>
				<time>2021-04-12T10:37:33+02:00</time>
				<extensions>
					<swisstopo:routepoint_id>1054238716</swisstopo:routepoint_id>
				</extensions>
			</trkpt>
			<trkpt lat="47.1714982987" lon="7.5344328420">
				<ele>474.7</ele>
				<time>2021-04-12T10:37:34+02:00</time>
				<extensions>
					<swisstopo:routepoint_id>1850012062</swisstopo:routepoint_id>
				</extensions>
			</trkpt>
			<trkpt lat="47.1716075013" lon="7.5345748526">
				<ele>475.2</ele>
				<time>2021-04-12T10:37:35+02:00</time>
				<extensions>
					<swisstopo:routepoint_id>1884484768</swisstopo:routepoint_id>
				</extensions>
			</trkpt>
			<trkpt lat="47.1717162285" lon="7.5347159357">
				<ele>475.6</ele>
				<time>2021-04-12T10:37:36+02:00</time>
				<extensions>
					<swisstopo:routepoint_id>1446669820</swisstopo:routepoint_id>
				</extensions>
			</trkpt>
			<trkpt lat="47.1718236110" lon="7.5348568131">
				<ele>476.1</ele>
				<time>2021-04-12T10:37:37+02:00</time>
				<extensions>
					<swisstopo:routepoint_id>369813406</swisstopo:routepoint_id>
				</extensions>
			</trkpt>
			<trkpt lat="47.1719291852" lon="7.5349982206">
				<ele>476.6</ele>
				<time>2021-04-12T10:37:38+02:00</time>
				<extensions>
					<swisstopo:routepoint_id>636240224</swisstopo:routepoint_id>
				</extensions>
			</trkpt>
			<trkpt lat="47.1720333204" lon="7.5351395993">
				<ele>477.0</ele>
				<time>2021-04-12T10:37:39+02:00</time>
				<extensions>
					<swisstopo:routepoint_id>968366355</swisstopo:routepoint_id>
				</extensions>
			</trkpt>
			<trkpt lat="47.1721368652" lon="7.5352792805">
				<ele>477.5</ele>
				<time>2021-04-12T10:37:40+02:00</time>
				<extensions>
					<swisstopo:routepoint_id>1702251519</swisstopo:routepoint_id>
				</extensions>
			</trkpt>
			<trkpt lat="47.1722400908" lon="7.5354160682">
				<ele>478.0</ele>
				<time>2021-04-12T10:37:41+02:00</time>
				<extensions>
					<swisstopo:routepoint_id>964134499</swisstopo:routepoint_id>
				</extensions>
			</trkpt>
			<trkpt lat="47.1723422388" lon="7.5355497443">
				<ele>478.5</ele>
				<time>2021-04-12T10:37:42+02:00</time>
				<extensions>
					<swisstopo:routepoint_id>1444408078</swisstopo:routepoint_id>
				</extensions>
			</trkpt>
			<trkpt lat="47.1724427534" lon="7.5356798321">
				<ele>478.9</ele>
				<time>2021-04-12T10:37:43+02:00</time>
				<extensions>
					<swisstopo:routepoint_id>1011421258</swisstopo:routepoint_id>
				</extensions>
			</trkpt>
			<trkpt lat="47.1725409825" lon="7.5358067668">
				<ele>479.3</ele>
				<time>2021-04-12T10:37:44+02:00</time>
				<extensions>
					<swisstopo:routepoint_id>1624017201</swisstopo:routepoint_id>
				</extensions>
			</trkpt>
			<trkpt lat="47.1726367742" lon="7.5359312729">
				<ele>479.7</ele>
				<time>2021-04-12T10:37:45+02:00</time>
				<extensions>
					<swisstopo:routepoint_id>339943837</swisstopo:routepoint_id>
				</extensions>
			</trkpt>
			<trkpt lat="47.1727302474" lon="7.5360549934">
				<ele>480.0</ele>
				<time>2021-04-12T10:37:46+02:00</time>
				<extensions>
					<swisstopo:routepoint_id>1129567439</swisstopo:routepoint_id>
				</extensions>
			</trkpt>
			<trkpt lat="47.1728217483" lon="7.5361783834">
				<ele>480.3</ele>
				<time>2021-04-12T10:37:47+02:00</time>
				<extensions>
					<swisstopo:routepoint_id>884507793</swisstopo:routepoint_id>
				</extensions>
			</trkpt>
			<trkpt lat="47.1729113156" lon="7.5363023900">
				<ele>480.6</ele>
				<time>2021-04-12T10:37:48+02:00</time>
				<extensions>
					<swisstopo:routepoint_id>1040672417</swisstopo:routepoint_id>
				</extensions>
			</trkpt>
			<trkpt lat="47.1729992066" lon="7.5364278335">
				<ele>480.8</ele>
				<time>2021-04-12T10:37:49+02:00</time>
				<extensions>
					<swisstopo:routepoint_id>1474491351</swisstopo:routepoint_id>
				</extensions>
			</trkpt>
			<trkpt lat="47.1730851160" lon="7.5365552171">
				<ele>481.0</ele>
				<time>2021-04-12T10:37:50+02:00</time>
				<extensions>
					<swisstopo:routepoint_id>1962333524</swisstopo:routepoint_id>
				</extensions>
			</trkpt>
			<trkpt lat="47.1731691116" lon="7.5366854439">
				<ele>481.1</ele>
				<time>2021-04-12T10:37:51+02:00</time>
				<extensions>
					<swisstopo:routepoint_id>2033170889</swisstopo:routepoint_id>
				</extensions>
			</trkpt>
			<trkpt lat="47.1732512440" lon="7.5368192211">
				<ele>481.2</ele>
				<time>2021-04-12T10:37:52+02:00</time>
				<extensions>
					<swisstopo:routepoint_id>743340359</swisstopo:routepoint_id>
				</extensions>
			</trkpt>
			<trkpt lat="47.1733315235" lon="7.5369567922">
				<ele>481.2</ele>
				<time>2021-04-12T10:37:53+02:00</time>
				<extensions>
					<swisstopo:routepoint_id>1409039114</swisstopo:routepoint_id>
				</extensions>
			</trkpt>
			<trkpt lat="47.1734095795" lon="7.5370983036">
				<ele>481.2</ele>
				<time>2021-04-12T10:37:54+02:00</time>
				<extensions>
					<swisstopo:routepoint_id>1418213529</swisstopo:routepoint_id>
				</extensions>
			</trkpt>
			<trkpt lat="47.1734857232" lon="7.5372434658">
				<ele>481.2</ele>
				<time>2021-04-12T10:37:55+02:00</time>
				<extensions>
					<swisstopo:routepoint_id>993783850</swisstopo:routepoint_id>
				</extensions>
			</trkpt>
			<trkpt lat="47.1735601530" lon="7.5373915977">
				<ele>481.1</ele>
				<time>2021-04-12T10:37:56+02:00</time>
				<extensions>
					<swisstopo:routepoint_id>1544844231</swisstopo:routepoint_id>
				</extensions>
			</trkpt>
			<trkpt lat="47.1736329447" lon="7.5375435859">
				<ele>481.0</ele>
				<time>2021-04-12T10:37:57+02:00</time>
				<extensions>
					<swisstopo:routepoint_id>1119698187</swisstopo:routepoint_id>
				</extensions>
			</trkpt>
			<trkpt lat="47.1737041231" lon="7.5376997804">
				<ele>480.9</ele>
				<time>2021-04-12T10:37:58+02:00</time>
				<extensions>
					<swisstopo:routepoint_id>368230248</swisstopo:routepoint_id>
				</extensions>
			</trkpt>
			<trkpt lat="47.1737741687" lon="7.5378609331">
				<ele>480.7</ele>
				<time>2021-04-12T10:37:59+02:00</time>
				<extensions>
					<swisstopo:routepoint_id>1945391129</swisstopo:routepoint_id>
				</extensions>
			</trkpt>
			<trkpt lat="47.1738430012" lon="7.5380268352">
				<ele>480.5</ele>
				<time>2021-04-12T10:38:00+02:00</time>
				<extensions>
					<swisstopo:routepoint_id>750179528</swisstopo:routepoint_id>
				</extensions>
			</trkpt>
			<trkpt lat="47.1739112201" lon="7.5381972165">
				<ele>480.2</ele>
				<time>2021-04-12T10:38:01+02:00</time>
				<extensions>
					<swisstopo:routepoint_id>390835559</swisstopo:routepoint_id>
				</extensions>
			</trkpt>
			<trkpt lat="47.1739792155" lon="7.5383723458">
				<ele>479.9</ele>
				<time>2021-04-12T10:38:02+02:00</time>
				<extensions>
					<swisstopo:routepoint_id>1768247587</swisstopo:routepoint_id>
				</extensions>
			</trkpt>
			<trkpt lat="47.1740473184" lon="7.5385513038">
				<ele>479.5</ele>
				<time>2021-04-12T10:38:03+02:00</time>
				<extensions>
					<swisstopo:routepoint_id>2058487523</swisstopo:routepoint_id>
				</extensions>
			</trkpt>
			<trkpt lat="47.1741154929" lon="7.5387334557">
				<ele>479.1</ele>
				<time>2021-04-12T10:38:04+02:00</time>
				<extensions>
					<swisstopo:routepoint_id>1038245891</swisstopo:routepoint_id>
				</extensions>
			</trkpt>
			<trkpt lat="47.1741840956" lon="7.5389180105">
				<ele>478.7</ele>
				<time>2021-04-12T10:38:05+02:00</time>
				<extensions>
					<swisstopo:routepoint_id>1494058162</swisstopo:routepoint_id>
				</extensions>
			</trkpt>
			<trkpt lat="47.1742533344" lon="7.5391037219">
				<ele>478.2</ele>
				<time>2021-04-12T10:38:06+02:00</time>
				<extensions>
					<swisstopo:routepoint_id>109244363</swisstopo:routepoint_id>
				</extensions>
			</trkpt>
			<trkpt lat="47.1743230916" lon="7.5392899513">
				<ele>477.7</ele>
				<time>2021-04-12T10:38:07+02:00</time>
				<extensions>
					<swisstopo:routepoint_id>2118974403</swisstopo:routepoint_id>
				</extensions>
			</trkpt>
			<trkpt lat="47.1743934835" lon="7.5394760420">
				<ele>477.2</ele>
				<time>2021-04-12T10:38:08+02:00</time>
				<extensions>
					<swisstopo:routepoint_id>1881473020</swisstopo:routepoint_id>
				</extensions>
			</trkpt>
			<trkpt lat="47.1744644334" lon="7.5396621186">
				<ele>476.7</ele>
				<time>2021-04-12T10:38:09+02:00</time>
				<extensions>
					<swisstopo:routepoint_id>220345065</swisstopo:routepoint_id>
				</extensions>
			</trkpt>
			<trkpt lat="47.1745363222" lon="7.5398490295">
				<ele>476.1</ele>
				<time>2021-04-12T10:38:10+02:00</time>
				<extensions>
					<swisstopo:routepoint_id>1077700027</swisstopo:routepoint_id>
				</extensions>
			</trkpt>
			<trkpt lat="47.1746094307" lon="7.5400379263">
				<ele>475.6</ele>
				<time>2021-04-12T10:38:11+02:00</time>
				<extensions>
					<swisstopo:routepoint_id>1027274991</swisstopo:routepoint_id>
				</extensions>
			</trkpt>
			<trkpt lat="47.1746836228" lon="7.5402296816">
				<ele>475.0</ele>
				<time>2021-04-12T10:38:12+02:00</time>
				<extensions>
					<swisstopo:routepoint_id>1789735504</swisstopo:routepoint_id>
				</extensions>
			</trkpt>
			<trkpt lat="47.1747589646" lon="7.5404243777">
				<ele>474.5</ele>
				<time>2021-04-12T10:38:13+02:00</time>
				<extensions>
					<swisstopo:routepoint_id>281172199</swisstopo:routepoint_id>
				</extensions>
			</trkpt>
			<trkpt lat="47.1748350089" lon="7.5406219077">
				<ele>474.0</ele>
				<time>2021-04-12T10:38:14+02:00</time>
				<extensions>
					<swisstopo:routepoint_id>1197125193</swisstopo:routepoint_id>
				</extensions>
			</trkpt>
			<trkpt lat="47.1749115212" lon="7.5408212533">
				<ele>473.6</ele>
				<time>2021-04-12T10:38:15+02:00</time>
				<extensions>
					<swisstopo:routepoint_id>308830008</swisstopo:routepoint_id>
				</extensions>
			</trkpt>
			<trkpt lat="47.1749886381" lon="7.5410217516">
				<ele>473.2</ele>
				<time>2021-04-12T10:38:16+02:00</time>
				<extensions>
					<swisstopo:routepoint_id>37969657</swisstopo:routepoint_id>
				</extensions>
			</trkpt>
			<trkpt lat="47.1750665514" lon="7.5412225281">
				<ele>472.8</ele>
				<time>2021-04-12T10:38:17+02:00</time>
				<extensions>
					<swisstopo:routepoint_id>353382040</swisstopo:routepoint_id>
				</extensions>
			</trkpt>
			<trkpt lat="47.1751447988" lon="7.5414229291">
				<ele>472.4</ele>
				<time>2021-04-12T10:38:18+02:00</time>
				<extensions>
					<swisstopo:routepoint_id>1499662325</swisstopo:routepoint_id>
				</extensions>
			</trkpt>
			<trkpt lat="47.1752232291" lon="7.5416225023">
				<ele>472.1</ele>
				<time>2021-04-12T10:38:19+02:00</time>
				<extensions>
					<swisstopo:routepoint_id>1956615083</swisstopo:routepoint_id>
				</extensions>
			</trkpt>
			<trkpt lat="47.1753018970" lon="7.5418211984">
				<ele>471.8</ele>
				<time>2021-04-12T10:38:20+02:00</time>
				<extensions>
					<swisstopo:routepoint_id>412613470</swisstopo:routepoint_id>
				</extensions>
			</trkpt>
			<trkpt lat="47.1753809222" lon="7.5420190557">
				<ele>471.5</ele>
				<time>2021-04-12T10:38:21+02:00</time>
				<extensions>
					<swisstopo:routepoint_id>569894127</swisstopo:routepoint_id>
				</extensions>
			</trkpt>
			<trkpt lat="47.1754600682" lon="7.5422155785">
				<ele>471.3</ele>
				<time>2021-04-12T10:38:22+02:00</time>
				<extensions>
					<swisstopo:routepoint_id>433526869</swisstopo:routepoint_id>
				</extensions>
			</trkpt>
			<trkpt lat="47.1755391344" lon="7.5424107873">
				<ele>471.0</ele>
				<time>2021-04-12T10:38:23+02:00</time>
				<extensions>
					<swisstopo:routepoint_id>2021556659</swisstopo:routepoint_id>
				</extensions>
			</trkpt>
			<trkpt lat="47.1756176395" lon="7.5426044463">
				<ele>470.8</ele>
				<time>2021-04-12T10:38:24+02:00</time>
				<extensions>
					<swisstopo:routepoint_id>963988626</swisstopo:routepoint_id>
				</extensions>
			</trkpt>
			<trkpt lat="47.1756954372" lon="7.5427963321">
				<ele>470.6</ele>
				<time>2021-04-12T10:38:25+02:00</time>
				<extensions>
					<swisstopo:routepoint_id>1140204214</swisstopo:routepoint_id>
				</extensions>
			</trkpt>
			<trkpt lat="47.1757724224" lon="7.5429868196">
				<ele>470.5</ele>
				<time>2021-04-12T10:38:26+02:00</time>
				<extensions>
					<swisstopo:routepoint_id>1415642517</swisstopo:routepoint_id>
				</extensions>
			</trkpt>
			<trkpt lat="47.1758490862" lon="7.5431763934">
				<ele>470.3</ele>
				<time>2021-04-12T10:38:27+02:00</time>
				<extensions>
					<swisstopo:routepoint_id>732458106</swisstopo:routepoint_id>
				</extensions>
			</trkpt>
			<trkpt lat="47.1759257874" lon="7.5433655498">
				<ele>470.2</ele>
				<time>2021-04-12T10:38:28+02:00</time>
				<extensions>
					<swisstopo:routepoint_id>1047122938</swisstopo:routepoint_id>
				</extensions>
			</trkpt>
			<trkpt lat="47.1760025421" lon="7.5435545459">
				<ele>470.1</ele>
				<time>2021-04-12T10:38:29+02:00</time>
				<extensions>
					<swisstopo:routepoint_id>366731801</swisstopo:routepoint_id>
				</extensions>
			</trkpt>
			<trkpt lat="47.1760793681" lon="7.5437434156">
				<ele>470.0</ele>
				<time>2021-04-12T10:38:30+02:00</time>
				<extensions>
					<swisstopo:routepoint_id>383312517</swisstopo:routepoint_id>
				</extensions>
			</trkpt>
			<trkpt lat="47.1761561993" lon="7.5439325595">
				<ele>469.9</ele>
				<time>2021-04-12T10:38:31+02:00</time>
				<extensions>
					<swisstopo:routepoint_id>2030015866</swisstopo:routepoint_id>
				</extensions>
			</trkpt>
			<trkpt lat="47.1762327917" lon="7.5441219542">
				<ele>469.8</ele>
				<time>2021-04-12T10:38:32+02:00</time>
				<extensions>
					<swisstopo:routepoint_id>1403959973</swisstopo:routepoint_id>
				</extensions>
			</trkpt>
			<trkpt lat="47.1763095440" lon="7.5443117971">
				<ele>469.7</ele>
				<time>2021-04-12T10:38:33+02:00</time>
				<extensions>
					<swisstopo:routepoint_id>1952436622</swisstopo:routepoint_id>
				</extensions>
			</trkpt>
			<trkpt lat="47.1763861883" lon="7.5445017546">
				<ele>469.6</ele>
				<time>2021-04-12T10:38:34+02:00</time>
				<extensions>
					<swisstopo:routepoint_id>1052179794</swisstopo:routepoint_id>
				</extensions>
			</trkpt>
			<trkpt lat="47.1764622755" lon="7.5446911536">
				<ele>469.5</ele>
				<time>2021-04-12T10:38:35+02:00</time>
				<extensions>
					<swisstopo:routepoint_id>1605448360</swisstopo:routepoint_id>
				</extensions>
			</trkpt>
			<trkpt lat="47.1765376871" lon="7.5448790171">
				<ele>469.4</ele>
				<time>2021-04-12T10:38:36+02:00</time>
				<extensions>
					<swisstopo:routepoint_id>1786045612</swisstopo:routepoint_id>
				</extensions>
			</trkpt>
			<trkpt lat="47.1766120199" lon="7.5450646978">
				<ele>469.3</ele>
				<time>2021-04-12T10:38:37+02:00</time>
				<extensions>
					<swisstopo:routepoint_id>542183118</swisstopo:routepoint_id>
				</extensions>
			</trkpt>
			<trkpt lat="47.1766850913" lon="7.5452478386">
				<ele>469.2</ele>
				<time>2021-04-12T10:38:38+02:00</time>
				<extensions>
					<swisstopo:routepoint_id>698550005</swisstopo:routepoint_id>
				</extensions>
			</trkpt>
			<trkpt lat="47.1767567038" lon="7.5454280636">
				<ele>469.0</ele>
				<time>2021-04-12T10:38:39+02:00</time>
				<extensions>
					<swisstopo:routepoint_id>236835886</swisstopo:routepoint_id>
				</extensions>
			</trkpt>
			<trkpt lat="47.1768266791" lon="7.5456046580">
				<ele>468.8</ele>
				<time>2021-04-12T10:38:40+02:00</time>
				<extensions>
					<swisstopo:routepoint_id>1213538111</swisstopo:routepoint_id>
				</extensions>
			</trkpt>
			<trkpt lat="47.1768943205" lon="7.5457757401">
				<ele>468.6</ele>
				<time>2021-04-12T10:38:41+02:00</time>
				<extensions>
					<swisstopo:routepoint_id>1282836018</swisstopo:routepoint_id>
				</extensions>
			</trkpt>
			<trkpt lat="47.1769585859" lon="7.5459391218">
				<ele>468.3</ele>
				<time>2021-04-12T10:38:42+02:00</time>
				<extensions>
					<swisstopo:routepoint_id>2036622293</swisstopo:routepoint_id>
				</extensions>
			</trkpt>
			<trkpt lat="47.1770190197" lon="7.5460940854">
				<ele>468.1</ele>
				<time>2021-04-12T10:38:43+02:00</time>
				<extensions>
					<swisstopo:routepoint_id>769028918</swisstopo:routepoint_id>
				</extensions>
			</trkpt>
			<trkpt lat="47.1770765394" lon="7.5462417200">
				<ele>467.7</ele>
				<time>2021-04-12T10:38:44+02:00</time>
				<extensions>
					<swisstopo:routepoint_id>1512437180</swisstopo:routepoint_id>
				</extensions>
			</trkpt>
			<trkpt lat="47.1771329790" lon="7.5463849178">
				<ele>467.4</ele>
				<time>2021-04-12T10:38:45+02:00</time>
				<extensions>
					<swisstopo:routepoint_id>1915238368</swisstopo:routepoint_id>
				</extensions>
			</trkpt>
			<trkpt lat="47.1771900198" lon="7.5465268484">
				<ele>467.1</ele>
				<time>2021-04-12T10:38:46+02:00</time>
				<extensions>
					<swisstopo:routepoint_id>778866093</swisstopo:routepoint_id>
				</extensions>
			</trkpt>
			<trkpt lat="47.1772479706" lon="7.5466699963">
				<ele>466.7</ele>
				<time>2021-04-12T10:38:47+02:00</time>
				<extensions>
					<swisstopo:routepoint_id>1489596586</swisstopo:routepoint_id>
				</extensions>
			</trkpt>
			<trkpt lat="47.1773068416" lon="7.5468153197">
				<ele>466.3</ele>
				<time>2021-04-12T10:38:48+02:00</time>
				<extensions>
					<swisstopo:routepoint_id>285464176</swisstopo:routepoint_id>
				</extensions>
			</trkpt>
			<trkpt lat="47.1773666622" lon="7.5469629258">
				<ele>465.9</ele>
				<time>2021-04-12T10:38:49+02:00</time>
				<extensions>
					<swisstopo:routepoint_id>317938634</swisstopo:routepoint_id>
				</extensions>
			</trkpt>
			<trkpt lat="47.1774272809" lon="7.5471133586">
				<ele>465.5</ele>
				<time>2021-04-12T10:38:50+02:00</time>
				<extensions>
					<swisstopo:routepoint_id>655307902</swisstopo:routepoint_id>
				</extensions>
			</trkpt>
			<trkpt lat="47.1774887010" lon="7.5472662629">
				<ele>465.1</ele>
				<time>2021-04-12T10:38:51+02:00</time>
				<extensions>
					<swisstopo:routepoint_id>1463767098</swisstopo:routepoint_id>
				</extensions>
			</trkpt>
			<trkpt lat="47.1775508117" lon="7.5474218206">
				<ele>464.7</ele>
				<time>2021-04-12T10:38:52+02:00</time>
				<extensions>
					<swisstopo:routepoint_id>2108439701</swisstopo:routepoint_id>
				</extensions>
			</trkpt>
			<trkpt lat="47.1776139044" lon="7.5475795894">
				<ele>464.2</ele>
				<time>2021-04-12T10:38:53+02:00</time>
				<extensions>
					<swisstopo:routepoint_id>918395560</swisstopo:routepoint_id>
				</extensions>
			</trkpt>
			<trkpt lat="47.1776781447" lon="7.5477397919">
				<ele>463.8</ele>
				<time>2021-04-12T10:38:54+02:00</time>
				<extensions>
					<swisstopo:routepoint_id>1509205931</swisstopo:routepoint_id>
				</extensions>
			</trkpt>
			<trkpt lat="47.1777433363" lon="7.5479026534">
				<ele>463.4</ele>
				<time>2021-04-12T10:38:55+02:00</time>
				<extensions>
					<swisstopo:routepoint_id>1294727600</swisstopo:routepoint_id>
				</extensions>
			</trkpt>
			<trkpt lat="47.1778091546" lon="7.5480679403">
				<ele>463.0</ele>
				<time>2021-04-12T10:38:56+02:00</time>
				<extensions>
					<swisstopo:routepoint_id>34978149</swisstopo:routepoint_id>
				</extensions>
			</trkpt>
			<trkpt lat="47.1778753772" lon="7.5482352872">
				<ele>462.6</ele>
				<time>2021-04-12T10:38:57+02:00</time>
				<extensions>
					<swisstopo:routepoint_id>1614714612</swisstopo:routepoint_id>
				</extensions>
			</trkpt>
			<trkpt lat="47.1779416759" lon="7.5484042318">
				<ele>462.2</ele>
				<time>2021-04-12T10:38:58+02:00</time>
				<extensions>
					<swisstopo:routepoint_id>757636745</swisstopo:routepoint_id>
				</extensions>
			</trkpt>
			<trkpt lat="47.1780074520" lon="7.5485742332">
				<ele>461.8</ele>
				<time>2021-04-12T10:38:59+02:00</time>
				<extensions>
					<swisstopo:routepoint_id>1170230152</swisstopo:routepoint_id>
				</extensions>
			</trkpt>
			<trkpt lat="47.1780725295" lon="7.5487441205">
				<ele>461.4</ele>
				<time>2021-04-12T10:39:00+02:00</time>
				<extensions>
					<swisstopo:routepoint_id>1402925438</swisstopo:routepoint_id>
				</extensions>
			</trkpt>
			<trkpt lat="47.1781379294" lon="7.5489126262">
				<ele>461.2</ele>
				<time>2021-04-12T10:39:01+02:00</time>
				<extensions>
					<swisstopo:routepoint_id>1744876053</swisstopo:routepoint_id>
				</extensions>
			</trkpt>
			<trkpt lat="47.1782043541" lon="7.5490787450">
				<ele>460.9</ele>
				<time>2021-04-12T10:39:02+02:00</time>
				<extensions>
					<swisstopo:routepoint_id>95139339</swisstopo:routepoint_id>
				</extensions>
			</trkpt>
			<trkpt lat="47.1782716278" lon="7.5492426929">
				<ele>460.7</ele>
				<time>2021-04-12T10:39:03+02:00</time>
				<extensions>
					<swisstopo:routepoint_id>1279037205</swisstopo:routepoint_id>
				</extensions>
			</trkpt>
			<trkpt lat="47.1783390601" lon="7.5494048984">
				<ele>460.6</ele>
				<time>2021-04-12T10:39:04+02:00</time>
				<extensions>
					<swisstopo:routepoint_id>466997965</swisstopo:routepoint_id>
				</extensions>
			</trkpt>
			<trkpt lat="47.1784064856" lon="7.5495659872">
				<ele>460.5</ele>
				<time>2021-04-12T10:39:05+02:00</time>
				<extensions>
					<swisstopo:routepoint_id>1929551617</swisstopo:routepoint_id>
				</extensions>
			</trkpt>
			<trkpt lat="47.1784738096" lon="7.5497260465">
				<ele>460.4</ele>
				<time>2021-04-12T10:39:06+02:00</time>
				<extensions>
					<swisstopo:routepoint_id>823473572</swisstopo:routepoint_id>
				</extensions>
			</trkpt>
			<trkpt lat="47.1785408856" lon="7.5498846430">
				<ele>460.3</ele>
				<time>2021-04-12T10:39:07+02:00</time>
				<extensions>
					<swisstopo:routepoint_id>1735703336</swisstopo:routepoint_id>
				</extensions>
			</trkpt>
			<trkpt lat="47.1786072233" lon="7.5500420328">
				<ele>460.3</ele>
				<time>2021-04-12T10:39:08+02:00</time>
				<extensions>
					<swisstopo:routepoint_id>548107304</swisstopo:routepoint_id>
				</extensions>
			</trkpt>
			<trkpt lat="47.1786725200" lon="7.5501983350">
				<ele>460.3</ele>
				<time>2021-04-12T10:39:09+02:00</time>
				<extensions>
					<swisstopo:routepoint_id>1482096345</swisstopo:routepoint_id>
				</extensions>
			</trkpt>
			<trkpt lat="47.1787364119" lon="7.5503533944">
				<ele>460.2</ele>
				<time>2021-04-12T10:39:10+02:00</time>
				<extensions>
					<swisstopo:routepoint_id>930448862</swisstopo:routepoint_id>
				</extensions>
			</trkpt>
			<trkpt lat="47.1787986249" lon="7.5505072089">
				<ele>460.1</ele>
				<time>2021-04-12T10:39:11+02:00</time>
				<extensions>
					<swisstopo:routepoint_id>78106180</swisstopo:routepoint_id>
				</extensions>
			</trkpt>
			<trkpt lat="47.1788594465" lon="7.5506601146">
				<ele>460.1</ele>
				<time>2021-04-12T10:39:12+02:00</time>
				<extensions>
					<swisstopo:routepoint_id>618058943</swisstopo:routepoint_id>
				</extensions>
			</trkpt>
			<trkpt lat="47.1789199650" lon="7.5508119984">
				<ele>460.0</ele>
				<time>2021-04-12T10:39:13+02:00</time>
				<extensions>
					<swisstopo:routepoint_id>338254462</swisstopo:routepoint_id>
				</extensions>
			</trkpt>
			<trkpt lat="47.1789810479" lon="7.5509628847">
				<ele>460.0</ele>
				<time>2021-04-12T10:39:14+02:00</time>
				<extensions>
					<swisstopo:routepoint_id>653529225</swisstopo:routepoint_id>
				</extensions>
			</trkpt>
			<trkpt lat="47.1790429905" lon="7.5511135619">
				<ele>459.9</ele>
				<time>2021-04-12T10:39:15+02:00</time>
				<extensions>
					<swisstopo:routepoint_id>1634313817</swisstopo:routepoint_id>
				</extensions>
			</trkpt>
			<trkpt lat="47.1791055188" lon="7.5512650730">
				<ele>459.9</ele>
				<time>2021-04-12T10:39:16+02:00</time>
				<extensions>
					<swisstopo:routepoint_id>1596477189</swisstopo:routepoint_id>
				</extensions>
			</trkpt>
			<trkpt lat="47.1791683736" lon="7.5514171350">
				<ele>459.8</ele>
				<time>2021-04-12T10:39:17+02:00</time>
				<extensions>
					<swisstopo:routepoint_id>1331429905</swisstopo:routepoint_id>
				</extensions>
			</trkpt>
			<trkpt lat="47.1792313740" lon="7.5515696771">
				<ele>459.8</ele>
				<time>2021-04-12T10:39:18+02:00</time>
				<extensions>
					<swisstopo:routepoint_id>562811595</swisstopo:routepoint_id>
				</extensions>
			</trkpt>
			<trkpt lat="47.1792944914" lon="7.5517222739">
				<ele>459.7</ele>
				<time>2021-04-12T10:39:19+02:00</time>
				<extensions>
					<swisstopo:routepoint_id>1656495777</swisstopo:routepoint_id>
				</extensions>
			</trkpt>
			<trkpt lat="47.1793574708" lon="7.5518747759">
				<ele>459.6</ele>
				<time>2021-04-12T10:39:20+02:00</time>
				<extensions>
					<swisstopo:routepoint_id>746524331</swisstopo:routepoint_id>
				</extensions>
			</trkpt>
			<trkpt lat="47.1794203100" lon="7.5520268022">
				<ele>459.6</ele>
				<time>2021-04-12T10:39:21+02:00</time>
				<extensions>
					<swisstopo:routepoint_id>1234965343</swisstopo:routepoint_id>
				</extensions>
			</trkpt>
			<trkpt lat="47.1794828134" lon="7.5521781750">
				<ele>459.5</ele>
				<time>2021-04-12T10:39:22+02:00</time>
				<extensions>
					<swisstopo:routepoint_id>633071546</swisstopo:routepoint_id>
				</extensions>
			</trkpt>
			<trkpt lat="47.1795444047" lon="7.5523291198">
				<ele>459.5</ele>
				<time>2021-04-12T10:39:23+02:00</time>
				<extensions>
					<swisstopo:routepoint_id>1399486384</swisstopo:routepoint_id>
				</extensions>
			</trkpt>
			<trkpt lat="47.1796056122" lon="7.5524794095">
				<ele>459.4</ele>
				<time>2021-04-12T10:39:24+02:00</time>
				<extensions>
					<swisstopo:routepoint_id>1926753944</swisstopo:routepoint_id>
				</extensions>
			</trkpt>
			<trkpt lat="47.1796665631" lon="7.5526290522">
				<ele>459.4</ele>
				<time>2021-04-12T10:39:25+02:00</time>
				<extensions>
					<swisstopo:routepoint_id>1047623695</swisstopo:routepoint_id>
				</extensions>
			</trkpt>
			<trkpt lat="47.1797272273" lon="7.5527781671">
				<ele>459.3</ele>
				<time>2021-04-12T10:39:26+02:00</time>
				<extensions>
					<swisstopo:routepoint_id>193020112</swisstopo:routepoint_id>
				</extensions>
			</trkpt>
			<trkpt lat="47.1797875890" lon="7.5529272046">
				<ele>459.3</ele>
				<time>2021-04-12T10:39:27+02:00</time>
				<extensions>
					<swisstopo:routepoint_id>1388715414</swisstopo:routepoint_id>
				</extensions>
			</trkpt>
			<trkpt lat="47.1798474949" lon="7.5530769045">
				<ele>459.3</ele>
				<time>2021-04-12T10:39:28+02:00</time>
				<extensions>
					<swisstopo:routepoint_id>1287687502</swisstopo:routepoint_id>
				</extensions>
			</trkpt>
			<trkpt lat="47.1799067582" lon="7.5532272659">
				<ele>459.2</ele>
				<time>2021-04-12T10:39:29+02:00</time>
				<extensions>
					<swisstopo:routepoint_id>1971135295</swisstopo:routepoint_id>
				</extensions>
			</trkpt>
			<trkpt lat="47.1799655221" lon="7.5533782546">
				<ele>459.2</ele>
				<time>2021-04-12T10:39:30+02:00</time>
				<extensions>
					<swisstopo:routepoint_id>1788164443</swisstopo:routepoint_id>
				</extensions>
			</trkpt>
			<trkpt lat="47.1800234601" lon="7.5535299259">
				<ele>459.2</ele>
				<time>2021-04-12T10:39:31+02:00</time>
				<extensions>
					<swisstopo:routepoint_id>1793637383</swisstopo:routepoint_id>
				</extensions>
			</trkpt>
			<trkpt lat="47.1800810196" lon="7.5536821645">
				<ele>459.2</ele>
				<time>2021-04-12T10:39:32+02:00</time>
				<extensions>
					<swisstopo:routepoint_id>1435543142</swisstopo:routepoint_id>
				</extensions>
			</trkpt>
			<trkpt lat="47.1801391237" lon="7.5538340187">
				<ele>459.2</ele>
				<time>2021-04-12T10:39:33+02:00</time>
				<extensions>
					<swisstopo:routepoint_id>194813549</swisstopo:routepoint_id>
				</extensions>
			</trkpt>
			<trkpt lat="47.1801980726" lon="7.5539850206">
				<ele>459.2</ele>
				<time>2021-04-12T10:39:34+02:00</time>
				<extensions>
					<swisstopo:routepoint_id>1466240015</swisstopo:routepoint_id>
				</extensions>
			</trkpt>
			<trkpt lat="47.1802577760" lon="7.5541352996">
				<ele>459.2</ele>
				<time>2021-04-12T10:39:35+02:00</time>
				<extensions>
					<swisstopo:routepoint_id>721082780</swisstopo:routepoint_id>
				</extensions>
			</trkpt>
			<trkpt lat="47.1803180805" lon="7.5542845430">
				<ele>459.3</ele>
				<time>2021-04-12T10:39:36+02:00</time>
				<extensions>
					<swisstopo:routepoint_id>988063439</swisstopo:routepoint_id>
				</extensions>
			</trkpt>
			<trkpt lat="47.1803784070" lon="7.5544330086">
				<ele>459.3</ele>
				<time>2021-04-12T10:39:37+02:00</time>
				<extensions>
					<swisstopo:routepoint_id>2038660669</swisstopo:routepoint_id>
				</extensions>
			</trkpt>
			<trkpt lat="47.1804386858" lon="7.5545810520">
				<ele>459.3</ele>
				<time>2021-04-12T10:39:38+02:00</time>
				<extensions>
					<swisstopo:routepoint_id>668275998</swisstopo:routepoint_id>
				</extensions>
			</trkpt>
			<trkpt lat="47.1804985233" lon="7.5547291775">
				<ele>459.4</ele>
				<time>2021-04-12T10:39:39+02:00</time>
				<extensions>
					<swisstopo:routepoint_id>375224576</swisstopo:routepoint_id>
				</extensions>
			</trkpt>
			<trkpt lat="47.1805580194" lon="7.5548778317">
				<ele>459.4</ele>
				<time>2021-04-12T10:39:40+02:00</time>
				<extensions>
					<swisstopo:routepoint_id>1387461240</swisstopo:routepoint_id>
				</extensions>
			</trkpt>
			<trkpt lat="47.1806171366" lon="7.5550267997">
				<ele>459.4</ele>
				<time>2021-04-12T10:39:41+02:00</time>
				<extensions>
					<swisstopo:routepoint_id>1683621554</swisstopo:routepoint_id>
				</extensions>
			</trkpt>
			<trkpt lat="47.1806755533" lon="7.5551762180">
				<ele>459.4</ele>
				<time>2021-04-12T10:39:42+02:00</time>
				<extensions>
					<swisstopo:routepoint_id>1382925206</swisstopo:routepoint_id>
				</extensions>
			</trkpt>
			<trkpt lat="47.1807333028" lon="7.5553255105">
				<ele>459.4</ele>
				<time>2021-04-12T10:39:43+02:00</time>
				<extensions>
					<swisstopo:routepoint_id>608425761</swisstopo:routepoint_id>
				</extensions>
			</trkpt>
			<trkpt lat="47.1807909594" lon="7.5554739510">
				<ele>459.4</ele>
				<time>2021-04-12T10:39:44+02:00</time>
				<extensions>
					<swisstopo:routepoint_id>1642121760</swisstopo:routepoint_id>
				</extensions>
			</trkpt>
			<trkpt lat="47.1808487360" lon="7.5556213686">
				<ele>459.4</ele>
				<time>2021-04-12T10:39:45+02:00</time>
				<extensions>
					<swisstopo:routepoint_id>1828072723</swisstopo:routepoint_id>
				</extensions>
			</trkpt>
			<trkpt lat="47.1809069717" lon="7.5557675699">
				<ele>459.3</ele>
				<time>2021-04-12T10:39:46+02:00</time>
				<extensions>
					<swisstopo:routepoint_id>369717832</swisstopo:routepoint_id>
				</extensions>
			</trkpt>
			<trkpt lat="47.1809663140" lon="7.5559138089">
				<ele>459.3</ele>
				<time>2021-04-12T10:39:47+02:00</time>
				<extensions>
					<swisstopo:routepoint_id>1177411653</swisstopo:routepoint_id>
				</extensions>
			</trkpt>
			<trkpt lat="47.1810252043" lon="7.5560566762">
				<ele>459.3</ele>
				<time>2021-04-12T10:39:48+02:00</time>
				<extensions>
					<swisstopo:routepoint_id>1843328513</swisstopo:routepoint_id>
				</extensions>
			</trkpt>
			<trkpt lat="47.1810838911" lon="7.5561991767">
				<ele>459.2</ele>
				<time>2021-04-12T10:39:49+02:00</time>
				<extensions>
					<swisstopo:routepoint_id>1223226369</swisstopo:routepoint_id>
				</extensions>
			</trkpt>
			<trkpt lat="47.1811415327" lon="7.5563418719">
				<ele>459.1</ele>
				<time>2021-04-12T10:39:50+02:00</time>
				<extensions>
					<swisstopo:routepoint_id>904631052</swisstopo:routepoint_id>
				</extensions>
			</trkpt>
			<trkpt lat="47.1811972122" lon="7.5564847971">
				<ele>459.1</ele>
				<time>2021-04-12T10:39:51+02:00</time>
				<extensions>
					<swisstopo:routepoint_id>2097353851</swisstopo:routepoint_id>
				</extensions>
			</trkpt>
			<trkpt lat="47.1812507792" lon="7.5566274608">
				<ele>459.0</ele>
				<time>2021-04-12T10:39:52+02:00</time>
				<extensions>
					<swisstopo:routepoint_id>1429591899</swisstopo:routepoint_id>
				</extensions>
			</trkpt>
			<trkpt lat="47.1813028839" lon="7.5567689130">
				<ele>458.9</ele>
				<time>2021-04-12T10:39:53+02:00</time>
				<extensions>
					<swisstopo:routepoint_id>1104003857</swisstopo:routepoint_id>
				</extensions>
			</trkpt>
			<trkpt lat="47.1813541001" lon="7.5569074865">
				<ele>458.9</ele>
				<time>2021-04-12T10:39:54+02:00</time>
				<extensions>
					<swisstopo:routepoint_id>734114519</swisstopo:routepoint_id>
				</extensions>
			</trkpt>
			<trkpt lat="47.1814044634" lon="7.5570423707">
				<ele>458.8</ele>
				<time>2021-04-12T10:39:55+02:00</time>
				<extensions>
					<swisstopo:routepoint_id>969168818</swisstopo:routepoint_id>
				</extensions>
			</trkpt>
			<trkpt lat="47.1814541329" lon="7.5571729064">
				<ele>458.7</ele>
				<time>2021-04-12T10:39:56+02:00</time>
				<extensions>
					<swisstopo:routepoint_id>156861631</swisstopo:routepoint_id>
				</extensions>
			</trkpt>
			<trkpt lat="47.1815029246" lon="7.5572981968">
				<ele>458.7</ele>
				<time>2021-04-12T10:39:57+02:00</time>
				<extensions>
					<swisstopo:routepoint_id>1410997348</swisstopo:routepoint_id>
				</extensions>
			</trkpt>
			<trkpt lat="47.1815515063" lon="7.5574164867">
				<ele>458.6</ele>
				<time>2021-04-12T10:39:58+02:00</time>
				<extensions>
					<swisstopo:routepoint_id>2117997662</swisstopo:routepoint_id>
				</extensions>
			</trkpt>
			<trkpt lat="47.1815993536" lon="7.5575247991">
				<ele>458.5</ele>
				<time>2021-04-12T10:39:59+02:00</time>
				<extensions>
					<swisstopo:routepoint_id>497772562</swisstopo:routepoint_id>
				</extensions>
			</trkpt>
			<trkpt lat="47.1816456021" lon="7.5576209142">
				<ele>458.3</ele>
				<time>2021-04-12T10:40:00+02:00</time>
				<extensions>
					<swisstopo:routepoint_id>1614644469</swisstopo:routepoint_id>
				</extensions>
			</trkpt>
			<trkpt lat="47.1816903561" lon="7.5577027053">
				<ele>458.2</ele>
				<time>2021-04-12T10:40:01+02:00</time>
				<extensions>
					<swisstopo:routepoint_id>1726226991</swisstopo:routepoint_id>
				</extensions>
			</trkpt>
			<trkpt lat="47.1817326213" lon="7.5577694423">
				<ele>458.0</ele>
				<time>2021-04-12T10:40:02+02:00</time>
				<extensions>
					<swisstopo:routepoint_id>192966767</swisstopo:routepoint_id>
				</extensions>
			</trkpt>
			<trkpt lat="47.1817713540" lon="7.5578229412">
				<ele>457.9</ele>
				<time>2021-04-12T10:40:03+02:00</time>
				<extensions>
					<swisstopo:routepoint_id>492145999</swisstopo:routepoint_id>
				</extensions>
			</trkpt>
			<trkpt lat="47.1818047248" lon="7.5578647564">
				<ele>457.9</ele>
				<time>2021-04-12T10:40:04+02:00</time>
				<extensions>
					<swisstopo:routepoint_id>1538280596</swisstopo:routepoint_id>
				</extensions>
			</trkpt>
			<trkpt lat="47.1818326019" lon="7.5578968349">
				<ele>457.8</ele>
				<time>2021-04-12T10:40:05+02:00</time>
				<extensions>
					<swisstopo:routepoint_id>326350739</swisstopo:routepoint_id>
				</extensions>
			</trkpt>
			<trkpt lat="47.1818563050" lon="7.5579198741">
				<ele>457.8</ele>
				<time>2021-04-12T10:40:06+02:00</time>
				<extensions>
					<swisstopo:routepoint_id>303635935</swisstopo:routepoint_id>
				</extensions>
			</trkpt>
			<trkpt lat="47.1818775668" lon="7.5579361061">
				<ele>457.8</ele>
				<time>2021-04-12T10:40:07+02:00</time>
				<extensions>
					<swisstopo:routepoint_id>788014273</swisstopo:routepoint_id>
				</extensions>
			</trkpt>
			<trkpt lat="47.1818992074" lon="7.5579467020">
				<ele>457.8</ele>
				<time>2021-04-12T10:40:08+02:00</time>
				<extensions>
					<swisstopo:routepoint_id>624235262</swisstopo:routepoint_id>
				</extensions>
			</trkpt>
			<trkpt lat="47.1819224413" lon="7.5579497931">
				<ele>457.8</ele>
				<time>2021-04-12T10:40:09+02:00</time>
				<extensions>
					<swisstopo:routepoint_id>1064432839</swisstopo:routepoint_id>
				</extensions>
			</trkpt>
			<trkpt lat="47.1819487499" lon="7.5579439832">
				<ele>457.7</ele>
				<time>2021-04-12T10:40:10+02:00</time>
				<extensions>
					<swisstopo:routepoint_id>1383945563</swisstopo:routepoint_id>
				</extensions>
			</trkpt>
			<trkpt lat="47.1819793489" lon="7.5579301446">
				<ele>457.8</ele>
				<time>2021-04-12T10:40:11+02:00</time>
				<extensions>
					<swisstopo:routepoint_id>577696684</swisstopo:routepoint_id>
				</extensions>
			</trkpt>
			<trkpt lat="47.1820145957" lon="7.5579116091">
				<ele>457.7</ele>
				<time>2021-04-12T10:40:12+02:00</time>
				<extensions>
					<swisstopo:routepoint_id>574599901</swisstopo:routepoint_id>
				</extensions>
			</trkpt>
			<trkpt lat="47.1820548888" lon="7.5578921917">
				<ele>457.7</ele>
				<time>2021-04-12T10:40:13+02:00</time>
				<extensions>
					<swisstopo:routepoint_id>66575548</swisstopo:routepoint_id>
				</extensions>
			</trkpt>
			<trkpt lat="47.1820996257" lon="7.5578736000">
				<ele>457.7</ele>
				<time>2021-04-12T10:40:14+02:00</time>
				<extensions>
					<swisstopo:routepoint_id>96255149</swisstopo:routepoint_id>
				</extensions>
			</trkpt>
			<trkpt lat="47.1821479216" lon="7.5578562517">
				<ele>457.6</ele>
				<time>2021-04-12T10:40:15+02:00</time>
				<extensions>
					<swisstopo:routepoint_id>705103052</swisstopo:routepoint_id>
				</extensions>
			</trkpt>
			<trkpt lat="47.1821987450" lon="7.5578402820">
				<ele>457.6</ele>
				<time>2021-04-12T10:40:16+02:00</time>
				<extensions>
					<swisstopo:routepoint_id>852230818</swisstopo:routepoint_id>
				</extensions>
			</trkpt>
			<trkpt lat="47.1822506254" lon="7.5578255165">
				<ele>457.7</ele>
				<time>2021-04-12T10:40:17+02:00</time>
				<extensions>
					<swisstopo:routepoint_id>1874916283</swisstopo:routepoint_id>
				</extensions>
			</trkpt>
			<trkpt lat="47.1823023033" lon="7.5578115718">
				<ele>457.7</ele>
				<time>2021-04-12T10:40:18+02:00</time>
				<extensions>
					<swisstopo:routepoint_id>1690415950</swisstopo:routepoint_id>
				</extensions>
			</trkpt>
			<trkpt lat="47.1823532534" lon="7.5577986053">
				<ele>457.7</ele>
				<time>2021-04-12T10:40:19+02:00</time>
				<extensions>
					<swisstopo:routepoint_id>1759705487</swisstopo:routepoint_id>
				</extensions>
			</trkpt>
			<trkpt lat="47.1824020580" lon="7.5577868049">
				<ele>457.8</ele>
				<time>2021-04-12T10:40:20+02:00</time>
				<extensions>
					<swisstopo:routepoint_id>225333525</swisstopo:routepoint_id>
				</extensions>
			</trkpt>
			<trkpt lat="47.1824475494" lon="7.5577762176">
				<ele>457.8</ele>
				<time>2021-04-12T10:40:21+02:00</time>
				<extensions>
					<swisstopo:routepoint_id>1166885014</swisstopo:routepoint_id>
				</extensions>
			</trkpt>
			<trkpt lat="47.1824887274" lon="7.5577668033">
				<ele>457.9</ele>
				<time>2021-04-12T10:40:22+02:00</time>
				<extensions>
					<swisstopo:routepoint_id>1015765894</swisstopo:routepoint_id>
				</extensions>
			</trkpt>
			<trkpt lat="47.1825249888" lon="7.5577582186">
				<ele>457.9</ele>
				<time>2021-04-12T10:40:23+02:00</time>
				<extensions>
					<swisstopo:routepoint_id>1629870455</swisstopo:routepoint_id>
				</extensions>
			</trkpt>
			<trkpt lat="47.1825563064" lon="7.5577510263">
				<ele>458.0</ele>
				<time>2021-04-12T10:40:24+02:00</time>
				<extensions>
					<swisstopo:routepoint_id>2078819700</swisstopo:routepoint_id>
				</extensions>
			</trkpt>
			<trkpt lat="47.1825823453" lon="7.5577450830">
				<ele>458.0</ele>
				<time>2021-04-12T10:40:25+02:00</time>
				<extensions>
					<swisstopo:routepoint_id>1311244857</swisstopo:routepoint_id>
				</extensions>
			</trkpt>
			<trkpt lat="47.1826032866" lon="7.5577401591">
				<ele>458.1</ele>
				<time>2021-04-12T10:40:26+02:00</time>
				<extensions>
					<swisstopo:routepoint_id>615126085</swisstopo:routepoint_id>
				</extensions>
			</trkpt>
			<trkpt lat="47.1826188396" lon="7.5577364744">
				<ele>458.1</ele>
				<time>2021-04-12T10:40:27+02:00</time>
				<extensions>
					<swisstopo:routepoint_id>437833937</swisstopo:routepoint_id>
				</extensions>
			</trkpt>
			<trkpt lat="47.1826292825" lon="7.5577340573">
				<ele>458.1</ele>
				<time>2021-04-12T10:40:28+02:00</time>
				<extensions>
					<swisstopo:routepoint_id>1396004537</swisstopo:routepoint_id>
				</extensions>
			</trkpt>
			<trkpt lat="47.1826352473" lon="7.5577327831">
				<ele>458.2</ele>
				<time>2021-04-12T10:40:29+02:00</time>
				<extensions>
					<swisstopo:routepoint_id>1389409884</swisstopo:routepoint_id>
				</extensions>
			</trkpt>
			<trkpt lat="47.1826374793" lon="7.5577325806">
				<ele>458.2</ele>
				<time>2021-04-12T10:40:30+02:00</time>
				<extensions>
					<swisstopo:routepoint_id>74742910</swisstopo:routepoint_id>
				</extensions>
			</trkpt>
			<trkpt lat="47.1826367602" lon="7.5577330586">
				<ele>458.2</ele>
				<time>2021-04-12T10:40:31+02:00</time>
				<extensions>
					<swisstopo:routepoint_id>2073638522</swisstopo:routepoint_id>
				</extensions>
			</trkpt>
			<trkpt lat="47.1826340833" lon="7.5577338733">
				<ele>458.2</ele>
				<time>2021-04-12T10:40:32+02:00</time>
				<extensions>
					<swisstopo:routepoint_id>130532091</swisstopo:routepoint_id>
				</extensions>
			</trkpt>
			<trkpt lat="47.1826304726" lon="7.5577348838">
				<ele>458.2</ele>
				<time>2021-04-12T10:40:33+02:00</time>
				<extensions>
					<swisstopo:routepoint_id>1272049850</swisstopo:routepoint_id>
				</extensions>
			</trkpt>
			<trkpt lat="47.1826267485" lon="7.5577359198">
				<ele>458.2</ele>
				<time>2021-04-12T10:40:34+02:00</time>
				<extensions>
					<swisstopo:routepoint_id>1142123065</swisstopo:routepoint_id>
				</extensions>
			</trkpt>
			<trkpt lat="47.1826241591" lon="7.5577368523">
				<ele>458.2</ele>
				<time>2021-04-12T10:40:35+02:00</time>
				<extensions>
					<swisstopo:routepoint_id>1453516569</swisstopo:routepoint_id>
				</extensions>
			</trkpt>
			<trkpt lat="47.1826238332" lon="7.5577373626">
				<ele>458.2</ele>
				<time>2021-04-12T10:40:36+02:00</time>
				<extensions>
					<swisstopo:routepoint_id>1626490558</swisstopo:routepoint_id>
				</extensions>
			</trkpt>
			<trkpt lat="47.1826268613" lon="7.5577375635">
				<ele>458.2</ele>
				<time>2021-04-12T10:40:37+02:00</time>
				<extensions>
					<swisstopo:routepoint_id>1107465643</swisstopo:routepoint_id>
				</extensions>
			</trkpt>
			<trkpt lat="47.1826342684" lon="7.5577376499">
				<ele>458.2</ele>
				<time>2021-04-12T10:40:38+02:00</time>
				<extensions>
					<swisstopo:routepoint_id>934293352</swisstopo:routepoint_id>
				</extensions>
			</trkpt>
			<trkpt lat="47.1826482938" lon="7.5577371492">
				<ele>458.2</ele>
				<time>2021-04-12T10:40:39+02:00</time>
				<extensions>
					<swisstopo:routepoint_id>267940200</swisstopo:routepoint_id>
				</extensions>
			</trkpt>
			<trkpt lat="47.1826721029" lon="7.5577335976">
				<ele>458.2</ele>
				<time>2021-04-12T10:40:40+02:00</time>
				<extensions>
					<swisstopo:routepoint_id>2145217288</swisstopo:routepoint_id>
				</extensions>
			</trkpt>
			<trkpt lat="47.1827078043" lon="7.5577246618">
				<ele>458.2</ele>
				<time>2021-04-12T10:40:41+02:00</time>
				<extensions>
					<swisstopo:routepoint_id>564009933</swisstopo:routepoint_id>
				</extensions>
			</trkpt>
			<trkpt lat="47.1827568177" lon="7.5577092889">
				<ele>458.2</ele>
				<time>2021-04-12T10:40:42+02:00</time>
				<extensions>
					<swisstopo:routepoint_id>322126073</swisstopo:routepoint_id>
				</extensions>
			</trkpt>
			<trkpt lat="47.1828194395" lon="7.5576881600">
				<ele>458.3</ele>
				<time>2021-04-12T10:40:43+02:00</time>
				<extensions>
					<swisstopo:routepoint_id>166634824</swisstopo:routepoint_id>
				</extensions>
			</trkpt>
			<trkpt lat="47.1828953238" lon="7.5576616020">
				<ele>458.4</ele>
				<time>2021-04-12T10:40:44+02:00</time>
				<extensions>
					<swisstopo:routepoint_id>312811280</swisstopo:routepoint_id>
				</extensions>
			</trkpt>
			<trkpt lat="47.1829832649" lon="7.5576321164">
				<ele>458.4</ele>
				<time>2021-04-12T10:40:45+02:00</time>
				<extensions>
					<swisstopo:routepoint_id>379215104</swisstopo:routepoint_id>
				</extensions>
			</trkpt>
			<trkpt lat="47.1830815690" lon="7.5576025751">
				<ele>458.5</ele>
				<time>2021-04-12T10:40:46+02:00</time>
				<extensions>
					<swisstopo:routepoint_id>1884272279</swisstopo:routepoint_id>
				</extensions>
			</trkpt>
			<trkpt lat="47.1831883938" lon="7.5575760930">
				<ele>458.5</ele>
				<time>2021-04-12T10:40:47+02:00</time>
				<extensions>
					<swisstopo:routepoint_id>22850844</swisstopo:routepoint_id>
				</extensions>
			</trkpt>
			<trkpt lat="47.1833021733" lon="7.5575547030">
				<ele>458.4</ele>
				<time>2021-04-12T10:40:48+02:00</time>
				<extensions>
					<swisstopo:routepoint_id>1802045942</swisstopo:routepoint_id>
				</extensions>
			</trkpt>
			<trkpt lat="47.1834214340" lon="7.5575391367">
				<ele>458.4</ele>
				<time>2021-04-12T10:40:49+02:00</time>
				<extensions>
					<swisstopo:routepoint_id>1024273553</swisstopo:routepoint_id>
				</extensions>
			</trkpt>
			<trkpt lat="47.1835443658" lon="7.5575284861">
				<ele>458.2</ele>
				<time>2021-04-12T10:40:50+02:00</time>
				<extensions>
					<swisstopo:routepoint_id>736690919</swisstopo:routepoint_id>
				</extensions>
			</trkpt>
			<trkpt lat="47.1836695736" lon="7.5575198830">
				<ele>458.1</ele>
				<time>2021-04-12T10:40:51+02:00</time>
				<extensions>
					<swisstopo:routepoint_id>1321050678</swisstopo:routepoint_id>
				</extensions>
			</trkpt>
			<trkpt lat="47.1837962789" lon="7.5575090062">
				<ele>458.0</ele>
				<time>2021-04-12T10:40:52+02:00</time>
				<extensions>
					<swisstopo:routepoint_id>65318813</swisstopo:routepoint_id>
				</extensions>
			</trkpt>
			<trkpt lat="47.1839236025" lon="7.5574930224">
				<ele>457.8</ele>
				<time>2021-04-12T10:40:53+02:00</time>
				<extensions>
					<swisstopo:routepoint_id>449146474</swisstopo:routepoint_id>
				</extensions>
			</trkpt>
			<trkpt lat="47.1840505337" lon="7.5574719434">
				<ele>457.7</ele>
				<time>2021-04-12T10:40:54+02:00</time>
				<extensions>
					<swisstopo:routepoint_id>399769313</swisstopo:routepoint_id>
				</extensions>
			</trkpt>
			<trkpt lat="47.1841763998" lon="7.5574460951">
				<ele>457.7</ele>
				<time>2021-04-12T10:40:55+02:00</time>
				<extensions>
					<swisstopo:routepoint_id>1593995775</swisstopo:routepoint_id>
				</extensions>
			</trkpt>
			<trkpt lat="47.1843015364" lon="7.5574151238">
				<ele>457.7</ele>
				<time>2021-04-12T10:40:56+02:00</time>
				<extensions>
					<swisstopo:routepoint_id>428494100</swisstopo:routepoint_id>
				</extensions>
			</trkpt>
			<trkpt lat="47.1844251496" lon="7.5573796090">
				<ele>457.7</ele>
				<time>2021-04-12T10:40:57+02:00</time>
				<extensions>
					<swisstopo:routepoint_id>1187670309</swisstopo:routepoint_id>
				</extensions>
			</trkpt>
			<trkpt lat="47.1845467315" lon="7.5573411379">
				<ele>457.8</ele>
				<time>2021-04-12T10:40:58+02:00</time>
				<extensions>
					<swisstopo:routepoint_id>314384498</swisstopo:routepoint_id>
				</extensions>
			</trkpt>
			<trkpt lat="47.1846667560" lon="7.5573004046">
				<ele>457.9</ele>
				<time>2021-04-12T10:40:59+02:00</time>
				<extensions>
					<swisstopo:routepoint_id>1050486266</swisstopo:routepoint_id>
				</extensions>
			</trkpt>
			<trkpt lat="47.1847852481" lon="7.5572580167">
				<ele>458.1</ele>
				<time>2021-04-12T10:41:00+02:00</time>
				<extensions>
					<swisstopo:routepoint_id>1059610675</swisstopo:routepoint_id>
				</extensions>
			</trkpt>
			<trkpt lat="47.1849017416" lon="7.5572138931">
				<ele>458.2</ele>
				<time>2021-04-12T10:41:01+02:00</time>
				<extensions>
					<swisstopo:routepoint_id>1942213801</swisstopo:routepoint_id>
				</extensions>
			</trkpt>
			<trkpt lat="47.1850167216" lon="7.5571690291">
				<ele>458.4</ele>
				<time>2021-04-12T10:41:02+02:00</time>
				<extensions>
					<swisstopo:routepoint_id>1035919007</swisstopo:routepoint_id>
				</extensions>
			</trkpt>
			<trkpt lat="47.1851303452" lon="7.5571238889">
				<ele>458.6</ele>
				<time>2021-04-12T10:41:03+02:00</time>
				<extensions>
					<swisstopo:routepoint_id>1040824420</swisstopo:routepoint_id>
				</extensions>
			</trkpt>
			<trkpt lat="47.1852425553" lon="7.5570795881">
				<ele>458.9</ele>
				<time>2021-04-12T10:41:04+02:00</time>
				<extensions>
					<swisstopo:routepoint_id>1881722125</swisstopo:routepoint_id>
				</extensions>
			</trkpt>
			<trkpt lat="47.1853537339" lon="7.5570375462">
				<ele>459.1</ele>
				<time>2021-04-12T10:41:05+02:00</time>
				<extensions>
					<swisstopo:routepoint_id>112085506</swisstopo:routepoint_id>
				</extensions>
			</trkpt>
			<trkpt lat="47.1854647801" lon="7.5569980396">
				<ele>459.4</ele>
				<time>2021-04-12T10:41:06+02:00</time>
				<extensions>
					<swisstopo:routepoint_id>477940923</swisstopo:routepoint_id>
				</extensions>
			</trkpt>
			<trkpt lat="47.1855759859" lon="7.5569624021">
				<ele>459.6</ele>
				<time>2021-04-12T10:41:07+02:00</time>
				<extensions>
					<swisstopo:routepoint_id>1164253081</swisstopo:routepoint_id>
				</extensions>
			</trkpt>
			<trkpt lat="47.1856871742" lon="7.5569305923">
				<ele>459.8</ele>
				<time>2021-04-12T10:41:08+02:00</time>
				<extensions>
					<swisstopo:routepoint_id>1878024550</swisstopo:routepoint_id>
				</extensions>
			</trkpt>
			<trkpt lat="47.1857984551" lon="7.5569031749">
				<ele>460.1</ele>
				<time>2021-04-12T10:41:09+02:00</time>
				<extensions>
					<swisstopo:routepoint_id>243968244</swisstopo:routepoint_id>
				</extensions>
			</trkpt>
			<trkpt lat="47.1859091216" lon="7.5568819187">
				<ele>460.3</ele>
				<time>2021-04-12T10:41:10+02:00</time>
				<extensions>
					<swisstopo:routepoint_id>827994785</swisstopo:routepoint_id>
				</extensions>
			</trkpt>
			<trkpt lat="47.1860187947" lon="7.5568666884">
				<ele>460.5</ele>
				<time>2021-04-12T10:41:11+02:00</time>
				<extensions>
					<swisstopo:routepoint_id>414318935</swisstopo:routepoint_id>
				</extensions>
			</trkpt>
			<trkpt lat="47.1861270273" lon="7.5568572386">
				<ele>460.7</ele>
				<time>2021-04-12T10:41:12+02:00</time>
				<extensions>
					<swisstopo:routepoint_id>1316356971</swisstopo:routepoint_id>
				</extensions>
			</trkpt>
			<trkpt lat="47.1862334211" lon="7.5568508022">
				<ele>460.9</ele>
				<time>2021-04-12T10:41:13+02:00</time>
				<extensions>
					<swisstopo:routepoint_id>635080203</swisstopo:routepoint_id>
				</extensions>
			</trkpt>
			<trkpt lat="47.1863376143" lon="7.5568430481">
				<ele>461.0</ele>
				<time>2021-04-12T10:41:14+02:00</time>
				<extensions>
					<swisstopo:routepoint_id>799246231</swisstopo:routepoint_id>
				</extensions>
			</trkpt>
			<trkpt lat="47.1864400673" lon="7.5568315869">
				<ele>461.2</ele>
				<time>2021-04-12T10:41:15+02:00</time>
				<extensions>
					<swisstopo:routepoint_id>421192432</swisstopo:routepoint_id>
				</extensions>
			</trkpt>
			<trkpt lat="47.1865402689" lon="7.5568139915">
				<ele>461.3</ele>
				<time>2021-04-12T10:41:16+02:00</time>
				<extensions>
					<swisstopo:routepoint_id>875104112</swisstopo:routepoint_id>
				</extensions>
			</trkpt>
			<trkpt lat="47.1866382085" lon="7.5567885772">
				<ele>461.3</ele>
				<time>2021-04-12T10:41:17+02:00</time>
				<extensions>
					<swisstopo:routepoint_id>1906795728</swisstopo:routepoint_id>
				</extensions>
			</trkpt>
			<trkpt lat="47.1867334007" lon="7.5567554517">
				<ele>461.4</ele>
				<time>2021-04-12T10:41:18+02:00</time>
				<extensions>
					<swisstopo:routepoint_id>617336315</swisstopo:routepoint_id>
				</extensions>
			</trkpt>
			<trkpt lat="47.1868262462" lon="7.5567162074">
				<ele>461.4</ele>
				<time>2021-04-12T10:41:19+02:00</time>
				<extensions>
					<swisstopo:routepoint_id>1077947548</swisstopo:routepoint_id>
				</extensions>
			</trkpt>
			<trkpt lat="47.1869172760" lon="7.5566725593">
				<ele>461.5</ele>
				<time>2021-04-12T10:41:20+02:00</time>
				<extensions>
					<swisstopo:routepoint_id>892393144</swisstopo:routepoint_id>
				</extensions>
			</trkpt>
			<trkpt lat="47.1870070636" lon="7.5566256337">
				<ele>461.5</ele>
				<time>2021-04-12T10:41:21+02:00</time>
				<extensions>
					<swisstopo:routepoint_id>425780560</swisstopo:routepoint_id>
				</extensions>
			</trkpt>
			<trkpt lat="47.1870957095" lon="7.5565763533">
				<ele>461.5</ele>
				<time>2021-04-12T10:41:22+02:00</time>
				<extensions>
					<swisstopo:routepoint_id>678360116</swisstopo:routepoint_id>
				</extensions>
			</trkpt>
			<trkpt lat="47.1871831363" lon="7.5565251427">
				<ele>461.6</ele>
				<time>2021-04-12T10:41:23+02:00</time>
				<extensions>
					<swisstopo:routepoint_id>207787689</swisstopo:routepoint_id>
				</extensions>
			</trkpt>
			<trkpt lat="47.1872696514" lon="7.5564726359">
				<ele>461.6</ele>
				<time>2021-04-12T10:41:24+02:00</time>
				<extensions>
					<swisstopo:routepoint_id>479279001</swisstopo:routepoint_id>
				</extensions>
			</trkpt>
			<trkpt lat="47.1873557912" lon="7.5564193212">
				<ele>461.7</ele>
				<time>2021-04-12T10:41:25+02:00</time>
				<extensions>
					<swisstopo:routepoint_id>31009910</swisstopo:routepoint_id>
				</extensions>
			</trkpt>
			<trkpt lat="47.1874414188" lon="7.5563653801">
				<ele>461.8</ele>
				<time>2021-04-12T10:41:26+02:00</time>
				<extensions>
					<swisstopo:routepoint_id>1492514796</swisstopo:routepoint_id>
				</extensions>
			</trkpt>
			<trkpt lat="47.1875267125" lon="7.5563105270">
				<ele>461.8</ele>
				<time>2021-04-12T10:41:27+02:00</time>
				<extensions>
					<swisstopo:routepoint_id>2087179412</swisstopo:routepoint_id>
				</extensions>
			</trkpt>
			<trkpt lat="47.1876120420" lon="7.5562547431">
				<ele>461.8</ele>
				<time>2021-04-12T10:41:28+02:00</time>
				<extensions>
					<swisstopo:routepoint_id>79003739</swisstopo:routepoint_id>
				</extensions>
			</trkpt>
			<trkpt lat="47.1876975387" lon="7.5561981535">
				<ele>461.9</ele>
				<time>2021-04-12T10:41:29+02:00</time>
				<extensions>
					<swisstopo:routepoint_id>670947527</swisstopo:routepoint_id>
				</extensions>
			</trkpt>
			<trkpt lat="47.1877836507" lon="7.5561408262">
				<ele>461.9</ele>
				<time>2021-04-12T10:41:30+02:00</time>
				<extensions>
					<swisstopo:routepoint_id>178455892</swisstopo:routepoint_id>
				</extensions>
			</trkpt>
			<trkpt lat="47.1878704704" lon="7.5560827406">
				<ele>461.9</ele>
				<time>2021-04-12T10:41:31+02:00</time>
				<extensions>
					<swisstopo:routepoint_id>1421005632</swisstopo:routepoint_id>
				</extensions>
			</trkpt>
			<trkpt lat="47.1879582701" lon="7.5560238816">
				<ele>461.9</ele>
				<time>2021-04-12T10:41:32+02:00</time>
				<extensions>
					<swisstopo:routepoint_id>676018737</swisstopo:routepoint_id>
				</extensions>
			</trkpt>
			<trkpt lat="47.1880468958" lon="7.5559645267">
				<ele>461.9</ele>
				<time>2021-04-12T10:41:33+02:00</time>
				<extensions>
					<swisstopo:routepoint_id>1658420129</swisstopo:routepoint_id>
				</extensions>
			</trkpt>
			<trkpt lat="47.1881367071" lon="7.5559052324">
				<ele>461.9</ele>
				<time>2021-04-12T10:41:34+02:00</time>
				<extensions>
					<swisstopo:routepoint_id>876853690</swisstopo:routepoint_id>
				</extensions>
			</trkpt>
			<trkpt lat="47.1882277516" lon="7.5558442629">
				<ele>461.8</ele>
				<time>2021-04-12T10:41:35+02:00</time>
				<extensions>
					<swisstopo:routepoint_id>1247182116</swisstopo:routepoint_id>
				</extensions>
			</trkpt>
			<trkpt lat="47.1883202539" lon="7.5557817880">
				<ele>461.8</ele>
				<time>2021-04-12T10:41:36+02:00</time>
				<extensions>
					<swisstopo:routepoint_id>1949428892</swisstopo:routepoint_id>
				</extensions>
			</trkpt>
			<trkpt lat="47.1884137682" lon="7.5557178207">
				<ele>461.8</ele>
				<time>2021-04-12T10:41:37+02:00</time>
				<extensions>
					<swisstopo:routepoint_id>2040869212</swisstopo:routepoint_id>
				</extensions>
			</trkpt>
			<trkpt lat="47.1885074003" lon="7.5556523255">
				<ele>461.8</ele>
				<time>2021-04-12T10:41:38+02:00</time>
				<extensions>
					<swisstopo:routepoint_id>1280036200</swisstopo:routepoint_id>
				</extensions>
			</trkpt>
			<trkpt lat="47.1886001947" lon="7.5555849310">
				<ele>461.7</ele>
				<time>2021-04-12T10:41:39+02:00</time>
				<extensions>
					<swisstopo:routepoint_id>77237754</swisstopo:routepoint_id>
				</extensions>
			</trkpt>
			<trkpt lat="47.1886921407" lon="7.5555153588">
				<ele>461.7</ele>
				<time>2021-04-12T10:41:40+02:00</time>
				<extensions>
					<swisstopo:routepoint_id>1054808690</swisstopo:routepoint_id>
				</extensions>
			</trkpt>
			<trkpt lat="47.1887828453" lon="7.5554426639">
				<ele>461.5</ele>
				<time>2021-04-12T10:41:41+02:00</time>
				<extensions>
					<swisstopo:routepoint_id>692146845</swisstopo:routepoint_id>
				</extensions>
			</trkpt>
			<trkpt lat="47.1888715219" lon="7.5553654862">
				<ele>461.4</ele>
				<time>2021-04-12T10:41:42+02:00</time>
				<extensions>
					<swisstopo:routepoint_id>2140591763</swisstopo:routepoint_id>
				</extensions>
			</trkpt>
			<trkpt lat="47.1889584179" lon="7.5552836110">
				<ele>461.2</ele>
				<time>2021-04-12T10:41:43+02:00</time>
				<extensions>
					<swisstopo:routepoint_id>132222550</swisstopo:routepoint_id>
				</extensions>
			</trkpt>
			<trkpt lat="47.1890424182" lon="7.5551956200">
				<ele>461.0</ele>
				<time>2021-04-12T10:41:44+02:00</time>
				<extensions>
					<swisstopo:routepoint_id>1766306852</swisstopo:routepoint_id>
				</extensions>
			</trkpt>
			<trkpt lat="47.1891232856" lon="7.5551023667">
				<ele>460.8</ele>
				<time>2021-04-12T10:41:45+02:00</time>
				<extensions>
					<swisstopo:routepoint_id>1652809083</swisstopo:routepoint_id>
				</extensions>
			</trkpt>
			<trkpt lat="47.1892017576" lon="7.5550042537">
				<ele>460.6</ele>
				<time>2021-04-12T10:41:46+02:00</time>
				<extensions>
					<swisstopo:routepoint_id>1061284036</swisstopo:routepoint_id>
				</extensions>
			</trkpt>
			<trkpt lat="47.1892781987" lon="7.5549018667">
				<ele>460.4</ele>
				<time>2021-04-12T10:41:47+02:00</time>
				<extensions>
					<swisstopo:routepoint_id>1621070</swisstopo:routepoint_id>
				</extensions>
			</trkpt>
			<trkpt lat="47.1893533307" lon="7.5547965207">
				<ele>460.3</ele>
				<time>2021-04-12T10:41:48+02:00</time>
				<extensions>
					<swisstopo:routepoint_id>1475519726</swisstopo:routepoint_id>
				</extensions>
			</trkpt>
			<trkpt lat="47.1894272387" lon="7.5546879982">
				<ele>460.1</ele>
				<time>2021-04-12T10:41:49+02:00</time>
				<extensions>
					<swisstopo:routepoint_id>2066362973</swisstopo:routepoint_id>
				</extensions>
			</trkpt>
			<trkpt lat="47.1895001980" lon="7.5545763245">
				<ele>460.0</ele>
				<time>2021-04-12T10:41:50+02:00</time>
				<extensions>
					<swisstopo:routepoint_id>256947927</swisstopo:routepoint_id>
				</extensions>
			</trkpt>
			<trkpt lat="47.1895725257" lon="7.5544632583">
				<ele>459.9</ele>
				<time>2021-04-12T10:41:51+02:00</time>
				<extensions>
					<swisstopo:routepoint_id>2081678619</swisstopo:routepoint_id>
				</extensions>
			</trkpt>
			<trkpt lat="47.1896438084" lon="7.5543481505">
				<ele>459.9</ele>
				<time>2021-04-12T10:41:52+02:00</time>
				<extensions>
					<swisstopo:routepoint_id>2116456256</swisstopo:routepoint_id>
				</extensions>
			</trkpt>
			<trkpt lat="47.1897140110" lon="7.5542306850">
				<ele>459.9</ele>
				<time>2021-04-12T10:41:53+02:00</time>
				<extensions>
					<swisstopo:routepoint_id>361165684</swisstopo:routepoint_id>
				</extensions>
			</trkpt>
			<trkpt lat="47.1897832227" lon="7.5541123379">
				<ele>459.9</ele>
				<time>2021-04-12T10:41:54+02:00</time>
				<extensions>
					<swisstopo:routepoint_id>1322864566</swisstopo:routepoint_id>
				</extensions>
			</trkpt>
			<trkpt lat="47.1898513961" lon="7.5539944239">
				<ele>459.9</ele>
				<time>2021-04-12T10:41:55+02:00</time>
				<extensions>
					<swisstopo:routepoint_id>486563371</swisstopo:routepoint_id>
				</extensions>
			</trkpt>
			<trkpt lat="47.1899180566" lon="7.5538780471">
				<ele>459.9</ele>
				<time>2021-04-12T10:41:56+02:00</time>
				<extensions>
					<swisstopo:routepoint_id>52848621</swisstopo:routepoint_id>
				</extensions>
			</trkpt>
			<trkpt lat="47.1899825571" lon="7.5537662696">
				<ele>460.0</ele>
				<time>2021-04-12T10:41:57+02:00</time>
				<extensions>
					<swisstopo:routepoint_id>1316026936</swisstopo:routepoint_id>
				</extensions>
			</trkpt>
			<trkpt lat="47.1900434414" lon="7.5536619558">
				<ele>460.1</ele>
				<time>2021-04-12T10:41:58+02:00</time>
				<extensions>
					<swisstopo:routepoint_id>1530632899</swisstopo:routepoint_id>
				</extensions>
			</trkpt>
			<trkpt lat="47.1900994062" lon="7.5535682636">
				<ele>460.2</ele>
				<time>2021-04-12T10:41:59+02:00</time>
				<extensions>
					<swisstopo:routepoint_id>640526080</swisstopo:routepoint_id>
				</extensions>
			</trkpt>
			<trkpt lat="47.1901489102" lon="7.5534872398">
				<ele>460.2</ele>
				<time>2021-04-12T10:42:00+02:00</time>
				<extensions>
					<swisstopo:routepoint_id>2133787796</swisstopo:routepoint_id>
				</extensions>
			</trkpt>
			<trkpt lat="47.1901905897" lon="7.5534197967">
				<ele>460.3</ele>
				<time>2021-04-12T10:42:01+02:00</time>
				<extensions>
					<swisstopo:routepoint_id>1742066119</swisstopo:routepoint_id>
				</extensions>
			</trkpt>
			<trkpt lat="47.1902236639" lon="7.5533667981">
				<ele>460.4</ele>
				<time>2021-04-12T10:42:02+02:00</time>
				<extensions>
					<swisstopo:routepoint_id>113218835</swisstopo:routepoint_id>
				</extensions>
			</trkpt>
			<trkpt lat="47.1902478409" lon="7.5533280847">
				<ele>460.5</ele>
				<time>2021-04-12T10:42:03+02:00</time>
				<extensions>
					<swisstopo:routepoint_id>198448603</swisstopo:routepoint_id>
				</extensions>
			</trkpt>
			<trkpt lat="47.1902643294" lon="7.5533023106">
				<ele>460.5</ele>
				<time>2021-04-12T10:42:04+02:00</time>
				<extensions>
					<swisstopo:routepoint_id>283566830</swisstopo:routepoint_id>
				</extensions>
			</trkpt>
			<trkpt lat="47.1902741612" lon="7.5532885995">
				<ele>460.6</ele>
				<time>2021-04-12T10:42:05+02:00</time>
				<extensions>
					<swisstopo:routepoint_id>641499117</swisstopo:routepoint_id>
				</extensions>
			</trkpt>
			<trkpt lat="47.1902783257" lon="7.5532842299">
				<ele>460.6</ele>
				<time>2021-04-12T10:42:06+02:00</time>
				<extensions>
					<swisstopo:routepoint_id>1307751479</swisstopo:routepoint_id>
				</extensions>
			</trkpt>
			<trkpt lat="47.1902791815" lon="7.5532856840">
				<ele>460.7</ele>
				<time>2021-04-12T10:42:07+02:00</time>
				<extensions>
					<swisstopo:routepoint_id>2031464155</swisstopo:routepoint_id>
				</extensions>
			</trkpt>
			<trkpt lat="47.1902786285" lon="7.5532895333">
				<ele>460.7</ele>
				<time>2021-04-12T10:42:08+02:00</time>
				<extensions>
					<swisstopo:routepoint_id>2123033079</swisstopo:routepoint_id>
				</extensions>
			</trkpt>
			<trkpt lat="47.1902779916" lon="7.5532938788">
				<ele>460.7</ele>
				<time>2021-04-12T10:42:09+02:00</time>
				<extensions>
					<swisstopo:routepoint_id>1376163848</swisstopo:routepoint_id>
				</extensions>
			</trkpt>
			<trkpt lat="47.1902778168" lon="7.5532978267">
				<ele>460.7</ele>
				<time>2021-04-12T10:42:10+02:00</time>
				<extensions>
					<swisstopo:routepoint_id>786915146</swisstopo:routepoint_id>
				</extensions>
			</trkpt>
			<trkpt lat="47.1902780940" lon="7.5533012137">
				<ele>460.7</ele>
				<time>2021-04-12T10:42:11+02:00</time>
				<extensions>
					<swisstopo:routepoint_id>1478560596</swisstopo:routepoint_id>
				</extensions>
			</trkpt>
			<trkpt lat="47.1902785778" lon="7.5533042190">
				<ele>460.8</ele>
				<time>2021-04-12T10:42:12+02:00</time>
				<extensions>
					<swisstopo:routepoint_id>1634657535</swisstopo:routepoint_id>
				</extensions>
			</trkpt>
			<trkpt lat="47.1902788634" lon="7.5533076543">
				<ele>460.8</ele>
				<time>2021-04-12T10:42:13+02:00</time>
				<extensions>
					<swisstopo:routepoint_id>930894674</swisstopo:routepoint_id>
				</extensions>
			</trkpt>
			<trkpt lat="47.1902783860" lon="7.5533121861">
				<ele>460.7</ele>
				<time>2021-04-12T10:42:14+02:00</time>
				<extensions>
					<swisstopo:routepoint_id>1128417523</swisstopo:routepoint_id>
				</extensions>
			</trkpt>
			<trkpt lat="47.1902769901" lon="7.5533175589">
				<ele>460.7</ele>
				<time>2021-04-12T10:42:15+02:00</time>
				<extensions>
					<swisstopo:routepoint_id>885222404</swisstopo:routepoint_id>
				</extensions>
			</trkpt>
			<trkpt lat="47.1902752898" lon="7.5533230858">
				<ele>460.7</ele>
				<time>2021-04-12T10:42:16+02:00</time>
				<extensions>
					<swisstopo:routepoint_id>166237612</swisstopo:routepoint_id>
				</extensions>
			</trkpt>
			<trkpt lat="47.1902731827" lon="7.5533285156">
				<ele>460.7</ele>
				<time>2021-04-12T10:42:17+02:00</time>
				<extensions>
					<swisstopo:routepoint_id>79320137</swisstopo:routepoint_id>
				</extensions>
			</trkpt>
			<trkpt lat="47.1902711842" lon="7.5533333109">
				<ele>460.7</ele>
				<time>2021-04-12T10:42:18+02:00</time>
				<extensions>
					<swisstopo:routepoint_id>1693681419</swisstopo:routepoint_id>
				</extensions>
			</trkpt>
			<trkpt lat="47.1902695961" lon="7.5533370631">
				<ele>460.7</ele>
				<time>2021-04-12T10:42:19+02:00</time>
				<extensions>
					<swisstopo:routepoint_id>807868148</swisstopo:routepoint_id>
				</extensions>
			</trkpt>
			<trkpt lat="47.1902684405" lon="7.5533395543">
				<ele>460.6</ele>
				<time>2021-04-12T10:42:20+02:00</time>
				<extensions>
					<swisstopo:routepoint_id>1448347102</swisstopo:routepoint_id>
				</extensions>
			</trkpt>
			<trkpt lat="47.1902674364" lon="7.5533413898">
				<ele>460.6</ele>
				<time>2021-04-12T10:42:21+02:00</time>
				<extensions>
					<swisstopo:routepoint_id>642604569</swisstopo:routepoint_id>
				</extensions>
			</trkpt>
			<trkpt lat="47.1902663676" lon="7.5533429614">
				<ele>460.6</ele>
				<time>2021-04-12T10:42:22+02:00</time>
				<extensions>
					<swisstopo:routepoint_id>559730420</swisstopo:routepoint_id>
				</extensions>
			</trkpt>
			<trkpt lat="47.1902651989" lon="7.5533445273">
				<ele>460.6</ele>
				<time>2021-04-12T10:42:23+02:00</time>
				<extensions>
					<swisstopo:routepoint_id>1410795080</swisstopo:routepoint_id>
				</extensions>
			</trkpt>
			<trkpt lat="47.1902640206" lon="7.5533459371">
				<ele>460.6</ele>
				<time>2021-04-12T10:42:24+02:00</time>
				<extensions>
					<swisstopo:routepoint_id>865963033</swisstopo:routepoint_id>
				</extensions>
			</trkpt>
			<trkpt lat="47.1902629661" lon="7.5533469667">
				<ele>460.6</ele>
				<time>2021-04-12T10:42:25+02:00</time>
				<extensions>
					<swisstopo:routepoint_id>744019912</swisstopo:routepoint_id>
				</extensions>
			</trkpt>
			<trkpt lat="47.1902622327" lon="7.5533475557">
				<ele>460.6</ele>
				<time>2021-04-12T10:42:26+02:00</time>
				<extensions>
					<swisstopo:routepoint_id>2092868150</swisstopo:routepoint_id>
				</extensions>
			</trkpt>
			<trkpt lat="47.1902618843" lon="7.5533479911">
				<ele>460.6</ele>
				<time>2021-04-12T10:42:27+02:00</time>
				<extensions>
					<swisstopo:routepoint_id>1200342837</swisstopo:routepoint_id>
				</extensions>
			</trkpt>
			<trkpt lat="47.1902622897" lon="7.5533480586">
				<ele>460.6</ele>
				<time>2021-04-12T10:42:28+02:00</time>
				<extensions>
					<swisstopo:routepoint_id>700681541</swisstopo:routepoint_id>
				</extensions>
			</trkpt>
			<trkpt lat="47.1902651026" lon="7.5533463404">
				<ele>460.6</ele>
				<time>2021-04-12T10:42:29+02:00</time>
				<extensions>
					<swisstopo:routepoint_id>1701823086</swisstopo:routepoint_id>
				</extensions>
			</trkpt>
			<trkpt lat="47.1902727139" lon="7.5533420768">
				<ele>460.6</ele>
				<time>2021-04-12T10:42:30+02:00</time>
				<extensions>
					<swisstopo:routepoint_id>205912009</swisstopo:routepoint_id>
				</extensions>
			</trkpt>
			<trkpt lat="47.1902871003" lon="7.5533355443">
				<ele>460.6</ele>
				<time>2021-04-12T10:42:31+02:00</time>
				<extensions>
					<swisstopo:routepoint_id>1166979946</swisstopo:routepoint_id>
				</extensions>
			</trkpt>
			<trkpt lat="47.1903090117" lon="7.5533261561">
				<ele>460.6</ele>
				<time>2021-04-12T10:42:32+02:00</time>
				<extensions>
					<swisstopo:routepoint_id>463804371</swisstopo:routepoint_id>
				</extensions>
			</trkpt>
			<trkpt lat="47.1903370186" lon="7.5533109990">
				<ele>460.6</ele>
				<time>2021-04-12T10:42:33+02:00</time>
				<extensions>
					<swisstopo:routepoint_id>1941908434</swisstopo:routepoint_id>
				</extensions>
			</trkpt>
			<trkpt lat="47.1903680223" lon="7.5532859599">
				<ele>460.6</ele>
				<time>2021-04-12T10:42:34+02:00</time>
				<extensions>
					<swisstopo:routepoint_id>198583132</swisstopo:routepoint_id>
				</extensions>
			</trkpt>
			<trkpt lat="47.1903996207" lon="7.5532492925">
				<ele>460.6</ele>
				<time>2021-04-12T10:42:35+02:00</time>
				<extensions>
					<swisstopo:routepoint_id>397112086</swisstopo:routepoint_id>
				</extensions>
			</trkpt>
			<trkpt lat="47.1904317295" lon="7.5532012241">
				<ele>460.7</ele>
				<time>2021-04-12T10:42:36+02:00</time>
				<extensions>
					<swisstopo:routepoint_id>2031138173</swisstopo:routepoint_id>
				</extensions>
			</trkpt>
			<trkpt lat="47.1904663311" lon="7.5531432338">
				<ele>460.7</ele>
				<time>2021-04-12T10:42:37+02:00</time>
				<extensions>
					<swisstopo:routepoint_id>939220899</swisstopo:routepoint_id>
				</extensions>
			</trkpt>
			<trkpt lat="47.1905050845" lon="7.5530774519">
				<ele>460.7</ele>
				<time>2021-04-12T10:42:38+02:00</time>
				<extensions>
					<swisstopo:routepoint_id>1480844043</swisstopo:routepoint_id>
				</extensions>
			</trkpt>
			<trkpt lat="47.1905488512" lon="7.5530049493">
				<ele>460.8</ele>
				<time>2021-04-12T10:42:39+02:00</time>
				<extensions>
					<swisstopo:routepoint_id>1357845618</swisstopo:routepoint_id>
				</extensions>
			</trkpt>
			<trkpt lat="47.1905982675" lon="7.5529257955">
				<ele>460.9</ele>
				<time>2021-04-12T10:42:40+02:00</time>
				<extensions>
					<swisstopo:routepoint_id>2585057</swisstopo:routepoint_id>
				</extensions>
			</trkpt>
			<trkpt lat="47.1906536227" lon="7.5528399069">
				<ele>461.0</ele>
				<time>2021-04-12T10:42:41+02:00</time>
				<extensions>
					<swisstopo:routepoint_id>497380059</swisstopo:routepoint_id>
				</extensions>
			</trkpt>
			<trkpt lat="47.1907149749" lon="7.5527466631">
				<ele>461.0</ele>
				<time>2021-04-12T10:42:42+02:00</time>
				<extensions>
					<swisstopo:routepoint_id>1460297489</swisstopo:routepoint_id>
				</extensions>
			</trkpt>
			<trkpt lat="47.1907820952" lon="7.5526460319">
				<ele>461.1</ele>
				<time>2021-04-12T10:42:43+02:00</time>
				<extensions>
					<swisstopo:routepoint_id>1776779707</swisstopo:routepoint_id>
				</extensions>
			</trkpt>
			<trkpt lat="47.1908546517" lon="7.5525382598">
				<ele>461.2</ele>
				<time>2021-04-12T10:42:44+02:00</time>
				<extensions>
					<swisstopo:routepoint_id>1576424014</swisstopo:routepoint_id>
				</extensions>
			</trkpt>
			<trkpt lat="47.1909314392" lon="7.5524242215">
				<ele>461.2</ele>
				<time>2021-04-12T10:42:45+02:00</time>
				<extensions>
					<swisstopo:routepoint_id>1452650259</swisstopo:routepoint_id>
				</extensions>
			</trkpt>
			<trkpt lat="47.1910117580" lon="7.5523048909">
				<ele>461.1</ele>
				<time>2021-04-12T10:42:46+02:00</time>
				<extensions>
					<swisstopo:routepoint_id>2098803917</swisstopo:routepoint_id>
				</extensions>
			</trkpt>
			<trkpt lat="47.1910950476" lon="7.5521809894">
				<ele>461.1</ele>
				<time>2021-04-12T10:42:47+02:00</time>
				<extensions>
					<swisstopo:routepoint_id>31047397</swisstopo:routepoint_id>
				</extensions>
			</trkpt>
			<trkpt lat="47.1911809475" lon="7.5520538122">
				<ele>460.9</ele>
				<time>2021-04-12T10:42:48+02:00</time>
				<extensions>
					<swisstopo:routepoint_id>2122558805</swisstopo:routepoint_id>
				</extensions>
			</trkpt>
			<trkpt lat="47.1912686566" lon="7.5519239965">
				<ele>460.7</ele>
				<time>2021-04-12T10:42:49+02:00</time>
				<extensions>
					<swisstopo:routepoint_id>1994975318</swisstopo:routepoint_id>
				</extensions>
			</trkpt>
			<trkpt lat="47.1913576664" lon="7.5517925051">
				<ele>460.5</ele>
				<time>2021-04-12T10:42:50+02:00</time>
				<extensions>
					<swisstopo:routepoint_id>887989015</swisstopo:routepoint_id>
				</extensions>
			</trkpt>
			<trkpt lat="47.1914477289" lon="7.5516591518">
				<ele>460.2</ele>
				<time>2021-04-12T10:42:51+02:00</time>
				<extensions>
					<swisstopo:routepoint_id>1567512102</swisstopo:routepoint_id>
				</extensions>
			</trkpt>
			<trkpt lat="47.1915385675" lon="7.5515245881">
				<ele>459.9</ele>
				<time>2021-04-12T10:42:52+02:00</time>
				<extensions>
					<swisstopo:routepoint_id>1994000565</swisstopo:routepoint_id>
				</extensions>
			</trkpt>
			<trkpt lat="47.1916295266" lon="7.5513894516">
				<ele>459.6</ele>
				<time>2021-04-12T10:42:53+02:00</time>
				<extensions>
					<swisstopo:routepoint_id>1685184520</swisstopo:routepoint_id>
				</extensions>
			</trkpt>
			<trkpt lat="47.1917206555" lon="7.5512537432">
				<ele>459.2</ele>
				<time>2021-04-12T10:42:54+02:00</time>
				<extensions>
					<swisstopo:routepoint_id>1881891004</swisstopo:routepoint_id>
				</extensions>
			</trkpt>
			<trkpt lat="47.1918120193" lon="7.5511172881">
				<ele>458.9</ele>
				<time>2021-04-12T10:42:55+02:00</time>
				<extensions>
					<swisstopo:routepoint_id>802951212</swisstopo:routepoint_id>
				</extensions>
			</trkpt>
			<trkpt lat="47.1919037016" lon="7.5509799779">
				<ele>458.6</ele>
				<time>2021-04-12T10:42:56+02:00</time>
				<extensions>
					<swisstopo:routepoint_id>413782336</swisstopo:routepoint_id>
				</extensions>
			</trkpt>
			<trkpt lat="47.1919954940" lon="7.5508421826">
				<ele>458.4</ele>
				<time>2021-04-12T10:42:57+02:00</time>
				<extensions>
					<swisstopo:routepoint_id>887672166</swisstopo:routepoint_id>
				</extensions>
			</trkpt>
			<trkpt lat="47.1920876186" lon="7.5507039299">
				<ele>458.1</ele>
				<time>2021-04-12T10:42:58+02:00</time>
				<extensions>
					<swisstopo:routepoint_id>537198253</swisstopo:routepoint_id>
				</extensions>
			</trkpt>
			<trkpt lat="47.1921800572" lon="7.5505651440">
				<ele>457.9</ele>
				<time>2021-04-12T10:42:59+02:00</time>
				<extensions>
					<swisstopo:routepoint_id>669786183</swisstopo:routepoint_id>
				</extensions>
			</trkpt>
			<trkpt lat="47.1922728972" lon="7.5504260765">
				<ele>457.8</ele>
				<time>2021-04-12T10:43:00+02:00</time>
				<extensions>
					<swisstopo:routepoint_id>2134583754</swisstopo:routepoint_id>
				</extensions>
			</trkpt>
			<trkpt lat="47.1923660007" lon="7.5502869238">
				<ele>457.6</ele>
				<time>2021-04-12T10:43:01+02:00</time>
				<extensions>
					<swisstopo:routepoint_id>87346696</swisstopo:routepoint_id>
				</extensions>
			</trkpt>
			<trkpt lat="47.1924592835" lon="7.5501475745">
				<ele>457.5</ele>
				<time>2021-04-12T10:43:02+02:00</time>
				<extensions>
					<swisstopo:routepoint_id>1304588771</swisstopo:routepoint_id>
				</extensions>
			</trkpt>
			<trkpt lat="47.1925525622" lon="7.5500081326">
				<ele>457.4</ele>
				<time>2021-04-12T10:43:03+02:00</time>
				<extensions>
					<swisstopo:routepoint_id>415438327</swisstopo:routepoint_id>
				</extensions>
			</trkpt>
			<trkpt lat="47.1926459024" lon="7.5498689628">
				<ele>457.4</ele>
				<time>2021-04-12T10:43:04+02:00</time>
				<extensions>
					<swisstopo:routepoint_id>802625492</swisstopo:routepoint_id>
				</extensions>
			</trkpt>
			<trkpt lat="47.1927393352" lon="7.5497299942">
				<ele>457.3</ele>
				<time>2021-04-12T10:43:05+02:00</time>
				<extensions>
					<swisstopo:routepoint_id>1381857237</swisstopo:routepoint_id>
				</extensions>
			</trkpt>
			<trkpt lat="47.1928333157" lon="7.5495904372">
				<ele>457.3</ele>
				<time>2021-04-12T10:43:06+02:00</time>
				<extensions>
					<swisstopo:routepoint_id>1986423601</swisstopo:routepoint_id>
				</extensions>
			</trkpt>
			<trkpt lat="47.1929280969" lon="7.5494501981">
				<ele>457.2</ele>
				<time>2021-04-12T10:43:07+02:00</time>
				<extensions>
					<swisstopo:routepoint_id>1040685745</swisstopo:routepoint_id>
				</extensions>
			</trkpt>
			<trkpt lat="47.1930236438" lon="7.5493088616">
				<ele>457.2</ele>
				<time>2021-04-12T10:43:08+02:00</time>
				<extensions>
					<swisstopo:routepoint_id>1698495047</swisstopo:routepoint_id>
				</extensions>
			</trkpt>
			<trkpt lat="47.1931200938" lon="7.5491665266">
				<ele>457.2</ele>
				<time>2021-04-12T10:43:09+02:00</time>
				<extensions>
					<swisstopo:routepoint_id>106135358</swisstopo:routepoint_id>
				</extensions>
			</trkpt>
			<trkpt lat="47.1932173002" lon="7.5490232386">
				<ele>457.2</ele>
				<time>2021-04-12T10:43:10+02:00</time>
				<extensions>
					<swisstopo:routepoint_id>1405534896</swisstopo:routepoint_id>
				</extensions>
			</trkpt>
			<trkpt lat="47.1933150186" lon="7.5488791063">
				<ele>457.2</ele>
				<time>2021-04-12T10:43:11+02:00</time>
				<extensions>
					<swisstopo:routepoint_id>504880072</swisstopo:routepoint_id>
				</extensions>
			</trkpt>
			<trkpt lat="47.1934127517" lon="7.5487349628">
				<ele>457.2</ele>
				<time>2021-04-12T10:43:12+02:00</time>
				<extensions>
					<swisstopo:routepoint_id>811480807</swisstopo:routepoint_id>
				</extensions>
			</trkpt>
			<trkpt lat="47.1935102528" lon="7.5485908505">
				<ele>457.3</ele>
				<time>2021-04-12T10:43:13+02:00</time>
				<extensions>
					<swisstopo:routepoint_id>2036764799</swisstopo:routepoint_id>
				</extensions>
			</trkpt>
			<trkpt lat="47.1936067400" lon="7.5484470875">
				<ele>457.3</ele>
				<time>2021-04-12T10:43:14+02:00</time>
				<extensions>
					<swisstopo:routepoint_id>1016643613</swisstopo:routepoint_id>
				</extensions>
			</trkpt>
			<trkpt lat="47.1937021062" lon="7.5483050699">
				<ele>457.3</ele>
				<time>2021-04-12T10:43:15+02:00</time>
				<extensions>
					<swisstopo:routepoint_id>1349308159</swisstopo:routepoint_id>
				</extensions>
			</trkpt>
			<trkpt lat="47.1937968814" lon="7.5481667359">
				<ele>457.4</ele>
				<time>2021-04-12T10:43:16+02:00</time>
				<extensions>
					<swisstopo:routepoint_id>394915993</swisstopo:routepoint_id>
				</extensions>
			</trkpt>
			<trkpt lat="47.1938920827" lon="7.5480334932">
				<ele>457.4</ele>
				<time>2021-04-12T10:43:17+02:00</time>
				<extensions>
					<swisstopo:routepoint_id>1628625121</swisstopo:routepoint_id>
				</extensions>
			</trkpt>
			<trkpt lat="47.1939884296" lon="7.5479059061">
				<ele>457.5</ele>
				<time>2021-04-12T10:43:18+02:00</time>
				<extensions>
					<swisstopo:routepoint_id>475843985</swisstopo:routepoint_id>
				</extensions>
			</trkpt>
			<trkpt lat="47.1940867039" lon="7.5477848200">
				<ele>457.6</ele>
				<time>2021-04-12T10:43:19+02:00</time>
				<extensions>
					<swisstopo:routepoint_id>280754467</swisstopo:routepoint_id>
				</extensions>
			</trkpt>
			<trkpt lat="47.1941877747" lon="7.5476715944">
				<ele>457.6</ele>
				<time>2021-04-12T10:43:20+02:00</time>
				<extensions>
					<swisstopo:routepoint_id>618754410</swisstopo:routepoint_id>
				</extensions>
			</trkpt>
			<trkpt lat="47.1942918308" lon="7.5475678593">
				<ele>457.7</ele>
				<time>2021-04-12T10:43:21+02:00</time>
				<extensions>
					<swisstopo:routepoint_id>1289550096</swisstopo:routepoint_id>
				</extensions>
			</trkpt>
			<trkpt lat="47.1943991301" lon="7.5474744292">
				<ele>457.7</ele>
				<time>2021-04-12T10:43:22+02:00</time>
				<extensions>
					<swisstopo:routepoint_id>1063497948</swisstopo:routepoint_id>
				</extensions>
			</trkpt>
			<trkpt lat="47.1945098442" lon="7.5473918066">
				<ele>457.7</ele>
				<time>2021-04-12T10:43:23+02:00</time>
				<extensions>
					<swisstopo:routepoint_id>703618055</swisstopo:routepoint_id>
				</extensions>
			</trkpt>
			<trkpt lat="47.1946235905" lon="7.5473200619">
				<ele>457.7</ele>
				<time>2021-04-12T10:43:24+02:00</time>
				<extensions>
					<swisstopo:routepoint_id>1663690003</swisstopo:routepoint_id>
				</extensions>
			</trkpt>
			<trkpt lat="47.1947397026" lon="7.5472595242">
				<ele>457.7</ele>
				<time>2021-04-12T10:43:25+02:00</time>
				<extensions>
					<swisstopo:routepoint_id>1400796481</swisstopo:routepoint_id>
				</extensions>
			</trkpt>
			<trkpt lat="47.1948578234" lon="7.5472105333">
				<ele>457.6</ele>
				<time>2021-04-12T10:43:26+02:00</time>
				<extensions>
					<swisstopo:routepoint_id>323234106</swisstopo:routepoint_id>
				</extensions>
			</trkpt>
			<trkpt lat="47.1949771057" lon="7.5471733757">
				<ele>457.5</ele>
				<time>2021-04-12T10:43:27+02:00</time>
				<extensions>
					<swisstopo:routepoint_id>1609476279</swisstopo:routepoint_id>
				</extensions>
			</trkpt>
			<trkpt lat="47.1950965339" lon="7.5471489795">
				<ele>457.3</ele>
				<time>2021-04-12T10:43:28+02:00</time>
				<extensions>
					<swisstopo:routepoint_id>763803541</swisstopo:routepoint_id>
				</extensions>
			</trkpt>
			<trkpt lat="47.1952157073" lon="7.5471372897">
				<ele>457.0</ele>
				<time>2021-04-12T10:43:29+02:00</time>
				<extensions>
					<swisstopo:routepoint_id>1736355468</swisstopo:routepoint_id>
				</extensions>
			</trkpt>
			<trkpt lat="47.1953343422" lon="7.5471359444">
				<ele>456.7</ele>
				<time>2021-04-12T10:43:30+02:00</time>
				<extensions>
					<swisstopo:routepoint_id>771071593</swisstopo:routepoint_id>
				</extensions>
			</trkpt>
			<trkpt lat="47.1954518730" lon="7.5471425427">
				<ele>456.3</ele>
				<time>2021-04-12T10:43:31+02:00</time>
				<extensions>
					<swisstopo:routepoint_id>1483937553</swisstopo:routepoint_id>
				</extensions>
			</trkpt>
			<trkpt lat="47.1955679031" lon="7.5471547828">
				<ele>455.9</ele>
				<time>2021-04-12T10:43:32+02:00</time>
				<extensions>
					<swisstopo:routepoint_id>1810860660</swisstopo:routepoint_id>
				</extensions>
			</trkpt>
			<trkpt lat="47.1956811791" lon="7.5471701691">
				<ele>455.5</ele>
				<time>2021-04-12T10:43:33+02:00</time>
				<extensions>
					<swisstopo:routepoint_id>996867336</swisstopo:routepoint_id>
				</extensions>
			</trkpt>
			<trkpt lat="47.1957906522" lon="7.5471865098">
				<ele>455.0</ele>
				<time>2021-04-12T10:43:34+02:00</time>
				<extensions>
					<swisstopo:routepoint_id>1829385905</swisstopo:routepoint_id>
				</extensions>
			</trkpt>
			<trkpt lat="47.1958953976" lon="7.5472025808">
				<ele>454.6</ele>
				<time>2021-04-12T10:43:35+02:00</time>
				<extensions>
					<swisstopo:routepoint_id>965531236</swisstopo:routepoint_id>
				</extensions>
			</trkpt>
			<trkpt lat="47.1959951489" lon="7.5472168322">
				<ele>454.1</ele>
				<time>2021-04-12T10:43:36+02:00</time>
				<extensions>
					<swisstopo:routepoint_id>1297046720</swisstopo:routepoint_id>
				</extensions>
			</trkpt>
			<trkpt lat="47.1960894760" lon="7.5472289882">
				<ele>453.7</ele>
				<time>2021-04-12T10:43:37+02:00</time>
				<extensions>
					<swisstopo:routepoint_id>357722343</swisstopo:routepoint_id>
				</extensions>
			</trkpt>
			<trkpt lat="47.1961773268" lon="7.5472396947">
				<ele>453.3</ele>
				<time>2021-04-12T10:43:38+02:00</time>
				<extensions>
					<swisstopo:routepoint_id>1432690848</swisstopo:routepoint_id>
				</extensions>
			</trkpt>
			<trkpt lat="47.1962582324" lon="7.5472489503">
				<ele>452.8</ele>
				<time>2021-04-12T10:43:39+02:00</time>
				<extensions>
					<swisstopo:routepoint_id>1648432172</swisstopo:routepoint_id>
				</extensions>
			</trkpt>
			<trkpt lat="47.1963319738" lon="7.5472570311">
				<ele>452.4</ele>
				<time>2021-04-12T10:43:40+02:00</time>
				<extensions>
					<swisstopo:routepoint_id>512984857</swisstopo:routepoint_id>
				</extensions>
			</trkpt>
			<trkpt lat="47.1963978581" lon="7.5472643391">
				<ele>452.0</ele>
				<time>2021-04-12T10:43:41+02:00</time>
				<extensions>
					<swisstopo:routepoint_id>1737132541</swisstopo:routepoint_id>
				</extensions>
			</trkpt>
			<trkpt lat="47.1964554957" lon="7.5472704722">
				<ele>451.7</ele>
				<time>2021-04-12T10:43:42+02:00</time>
				<extensions>
					<swisstopo:routepoint_id>946435622</swisstopo:routepoint_id>
				</extensions>
			</trkpt>
			<trkpt lat="47.1965051980" lon="7.5472753366">
				<ele>451.4</ele>
				<time>2021-04-12T10:43:43+02:00</time>
				<extensions>
					<swisstopo:routepoint_id>332125625</swisstopo:routepoint_id>
				</extensions>
			</trkpt>
			<trkpt lat="47.1965472810" lon="7.5472792348">
				<ele>451.1</ele>
				<time>2021-04-12T10:43:44+02:00</time>
				<extensions>
					<swisstopo:routepoint_id>725380822</swisstopo:routepoint_id>
				</extensions>
			</trkpt>
			<trkpt lat="47.1965824224" lon="7.5472821027">
				<ele>450.9</ele>
				<time>2021-04-12T10:43:45+02:00</time>
				<extensions>
					<swisstopo:routepoint_id>210811335</swisstopo:routepoint_id>
				</extensions>
			</trkpt>
			<trkpt lat="47.1966114955" lon="7.5472840625">
				<ele>450.7</ele>
				<time>2021-04-12T10:43:46+02:00</time>
				<extensions>
					<swisstopo:routepoint_id>1905573442</swisstopo:routepoint_id>
				</extensions>
			</trkpt>
			<trkpt lat="47.1966358606" lon="7.5472853169">
				<ele>450.5</ele>
				<time>2021-04-12T10:43:47+02:00</time>
				<extensions>
					<swisstopo:routepoint_id>1549211983</swisstopo:routepoint_id>
				</extensions>
			</trkpt>
			<trkpt lat="47.1966571363" lon="7.5472859287">
				<ele>450.4</ele>
				<time>2021-04-12T10:43:48+02:00</time>
				<extensions>
					<swisstopo:routepoint_id>1514062053</swisstopo:routepoint_id>
				</extensions>
			</trkpt>
			<trkpt lat="47.1966770170" lon="7.5472861084">
				<ele>450.2</ele>
				<time>2021-04-12T10:43:49+02:00</time>
				<extensions>
					<swisstopo:routepoint_id>1307191468</swisstopo:routepoint_id>
				</extensions>
			</trkpt>
			<trkpt lat="47.1966978642" lon="7.5472857820">
				<ele>450.1</ele>
				<time>2021-04-12T10:43:50+02:00</time>
				<extensions>
					<swisstopo:routepoint_id>1209293866</swisstopo:routepoint_id>
				</extensions>
			</trkpt>
			<trkpt lat="47.1967225245" lon="7.5472850342">
				<ele>449.9</ele>
				<time>2021-04-12T10:43:51+02:00</time>
				<extensions>
					<swisstopo:routepoint_id>816770654</swisstopo:routepoint_id>
				</extensions>
			</trkpt>
			<trkpt lat="47.1967535376" lon="7.5472836880">
				<ele>449.8</ele>
				<time>2021-04-12T10:43:52+02:00</time>
				<extensions>
					<swisstopo:routepoint_id>748910154</swisstopo:routepoint_id>
				</extensions>
			</trkpt>
			<trkpt lat="47.1967928599" lon="7.5472816871">
				<ele>449.5</ele>
				<time>2021-04-12T10:43:53+02:00</time>
				<extensions>
					<swisstopo:routepoint_id>531303211</swisstopo:routepoint_id>
				</extensions>
			</trkpt>
			<trkpt lat="47.1968416012" lon="7.5472790907">
				<ele>449.3</ele>
				<time>2021-04-12T10:43:54+02:00</time>
				<extensions>
					<swisstopo:routepoint_id>376063051</swisstopo:routepoint_id>
				</extensions>
			</trkpt>
			<trkpt lat="47.1969000169" lon="7.5472756523">
				<ele>449.0</ele>
				<time>2021-04-12T10:43:55+02:00</time>
				<extensions>
					<swisstopo:routepoint_id>447325036</swisstopo:routepoint_id>
				</extensions>
			</trkpt>
			<trkpt lat="47.1969672684" lon="7.5472714659">
				<ele>448.7</ele>
				<time>2021-04-12T10:43:56+02:00</time>
				<extensions>
					<swisstopo:routepoint_id>1999115552</swisstopo:routepoint_id>
				</extensions>
			</trkpt>
			<trkpt lat="47.1970419998" lon="7.5472665813">
				<ele>448.3</ele>
				<time>2021-04-12T10:43:57+02:00</time>
				<extensions>
					<swisstopo:routepoint_id>1753425149</swisstopo:routepoint_id>
				</extensions>
			</trkpt>
			<trkpt lat="47.1971224783" lon="7.5472611218">
				<ele>448.0</ele>
				<time>2021-04-12T10:43:58+02:00</time>
				<extensions>
					<swisstopo:routepoint_id>2045875109</swisstopo:routepoint_id>
				</extensions>
			</trkpt>
			<trkpt lat="47.1972065063" lon="7.5472548652">
				<ele>447.6</ele>
				<time>2021-04-12T10:43:59+02:00</time>
				<extensions>
					<swisstopo:routepoint_id>1662284846</swisstopo:routepoint_id>
				</extensions>
			</trkpt>
			<trkpt lat="47.1972921259" lon="7.5472469202">
				<ele>447.3</ele>
				<time>2021-04-12T10:44:00+02:00</time>
				<extensions>
					<swisstopo:routepoint_id>1406642899</swisstopo:routepoint_id>
				</extensions>
			</trkpt>
			<trkpt lat="47.1973767866" lon="7.5472347960">
				<ele>446.9</ele>
				<time>2021-04-12T10:44:01+02:00</time>
				<extensions>
					<swisstopo:routepoint_id>1947217317</swisstopo:routepoint_id>
				</extensions>
			</trkpt>
			<trkpt lat="47.1974573830" lon="7.5472193721">
				<ele>446.6</ele>
				<time>2021-04-12T10:44:02+02:00</time>
				<extensions>
					<swisstopo:routepoint_id>1378150186</swisstopo:routepoint_id>
				</extensions>
			</trkpt>
			<trkpt lat="47.1975315328" lon="7.5472036037">
				<ele>446.3</ele>
				<time>2021-04-12T10:44:03+02:00</time>
				<extensions>
					<swisstopo:routepoint_id>1959043207</swisstopo:routepoint_id>
				</extensions>
			</trkpt>
			<trkpt lat="47.1975968012" lon="7.5471899871">
				<ele>446.0</ele>
				<time>2021-04-12T10:44:04+02:00</time>
				<extensions>
					<swisstopo:routepoint_id>419904245</swisstopo:routepoint_id>
				</extensions>
			</trkpt>
			<trkpt lat="47.1976519274" lon="7.5471790931">
				<ele>445.9</ele>
				<time>2021-04-12T10:44:05+02:00</time>
				<extensions>
					<swisstopo:routepoint_id>699381673</swisstopo:routepoint_id>
				</extensions>
			</trkpt>
			<trkpt lat="47.1976963569" lon="7.5471706958">
				<ele>445.7</ele>
				<time>2021-04-12T10:44:06+02:00</time>
				<extensions>
					<swisstopo:routepoint_id>1329778080</swisstopo:routepoint_id>
				</extensions>
			</trkpt>
			<trkpt lat="47.1977305962" lon="7.5471642864">
				<ele>445.6</ele>
				<time>2021-04-12T10:44:07+02:00</time>
				<extensions>
					<swisstopo:routepoint_id>717876231</swisstopo:routepoint_id>
				</extensions>
			</trkpt>
			<trkpt lat="47.1977565235" lon="7.5471598621">
				<ele>445.6</ele>
				<time>2021-04-12T10:44:08+02:00</time>
				<extensions>
					<swisstopo:routepoint_id>782685571</swisstopo:routepoint_id>
				</extensions>
			</trkpt>
			<trkpt lat="47.1977767905" lon="7.5471571639">
				<ele>445.5</ele>
				<time>2021-04-12T10:44:09+02:00</time>
				<extensions>
					<swisstopo:routepoint_id>1259053922</swisstopo:routepoint_id>
				</extensions>
			</trkpt>
			<trkpt lat="47.1977948000" lon="7.5471562747">
				<ele>445.5</ele>
				<time>2021-04-12T10:44:10+02:00</time>
				<extensions>
					<swisstopo:routepoint_id>1762893163</swisstopo:routepoint_id>
				</extensions>
			</trkpt>
			<trkpt lat="47.1978152148" lon="7.5471591259">
				<ele>445.5</ele>
				<time>2021-04-12T10:44:11+02:00</time>
				<extensions>
					<swisstopo:routepoint_id>113512882</swisstopo:routepoint_id>
				</extensions>
			</trkpt>
			<trkpt lat="47.1978419325" lon="7.5471663201">
				<ele>445.5</ele>
				<time>2021-04-12T10:44:12+02:00</time>
				<extensions>
					<swisstopo:routepoint_id>845529238</swisstopo:routepoint_id>
				</extensions>
			</trkpt>
			<trkpt lat="47.1978771303" lon="7.5471763963">
				<ele>445.4</ele>
				<time>2021-04-12T10:44:13+02:00</time>
				<extensions>
					<swisstopo:routepoint_id>910610867</swisstopo:routepoint_id>
				</extensions>
			</trkpt>
			<trkpt lat="47.1979213623" lon="7.5471870705">
				<ele>445.3</ele>
				<time>2021-04-12T10:44:14+02:00</time>
				<extensions>
					<swisstopo:routepoint_id>1668373147</swisstopo:routepoint_id>
				</extensions>
			</trkpt>
			<trkpt lat="47.1979746090" lon="7.5471971541">
				<ele>445.1</ele>
				<time>2021-04-12T10:44:15+02:00</time>
				<extensions>
					<swisstopo:routepoint_id>653502750</swisstopo:routepoint_id>
				</extensions>
			</trkpt>
			<trkpt lat="47.1980360238" lon="7.5472063310">
				<ele>445.0</ele>
				<time>2021-04-12T10:44:16+02:00</time>
				<extensions>
					<swisstopo:routepoint_id>1189348492</swisstopo:routepoint_id>
				</extensions>
			</trkpt>
			<trkpt lat="47.1981045942" lon="7.5472147218">
				<ele>444.8</ele>
				<time>2021-04-12T10:44:17+02:00</time>
				<extensions>
					<swisstopo:routepoint_id>602318768</swisstopo:routepoint_id>
				</extensions>
			</trkpt>
			<trkpt lat="47.1981791881" lon="7.5472222649">
				<ele>444.6</ele>
				<time>2021-04-12T10:44:18+02:00</time>
				<extensions>
					<swisstopo:routepoint_id>2081105465</swisstopo:routepoint_id>
				</extensions>
			</trkpt>
			<trkpt lat="47.1982591030" lon="7.5472291416">
				<ele>444.3</ele>
				<time>2021-04-12T10:44:19+02:00</time>
				<extensions>
					<swisstopo:routepoint_id>1073391566</swisstopo:routepoint_id>
				</extensions>
			</trkpt>
			<trkpt lat="47.1983437741" lon="7.5472353717">
				<ele>444.1</ele>
				<time>2021-04-12T10:44:20+02:00</time>
				<extensions>
					<swisstopo:routepoint_id>1629414962</swisstopo:routepoint_id>
				</extensions>
			</trkpt>
			<trkpt lat="47.1984326240" lon="7.5472411293">
				<ele>443.8</ele>
				<time>2021-04-12T10:44:21+02:00</time>
				<extensions>
					<swisstopo:routepoint_id>865799790</swisstopo:routepoint_id>
				</extensions>
			</trkpt>
			<trkpt lat="47.1985248095" lon="7.5472463777">
				<ele>443.6</ele>
				<time>2021-04-12T10:44:22+02:00</time>
				<extensions>
					<swisstopo:routepoint_id>147878458</swisstopo:routepoint_id>
				</extensions>
			</trkpt>
			<trkpt lat="47.1986195788" lon="7.5472510075">
				<ele>443.3</ele>
				<time>2021-04-12T10:44:23+02:00</time>
				<extensions>
					<swisstopo:routepoint_id>754664027</swisstopo:routepoint_id>
				</extensions>
			</trkpt>
			<trkpt lat="47.1987163207" lon="7.5472544880">
				<ele>443.1</ele>
				<time>2021-04-12T10:44:24+02:00</time>
				<extensions>
					<swisstopo:routepoint_id>599882607</swisstopo:routepoint_id>
				</extensions>
			</trkpt>
			<trkpt lat="47.1988143046" lon="7.5472570015">
				<ele>442.9</ele>
				<time>2021-04-12T10:44:25+02:00</time>
				<extensions>
					<swisstopo:routepoint_id>1938736831</swisstopo:routepoint_id>
				</extensions>
			</trkpt>
			<trkpt lat="47.1989131474" lon="7.5472589952">
				<ele>442.7</ele>
				<time>2021-04-12T10:44:26+02:00</time>
				<extensions>
					<swisstopo:routepoint_id>580542686</swisstopo:routepoint_id>
				</extensions>
			</trkpt>
			<trkpt lat="47.1990122107" lon="7.5472610139">
				<ele>442.5</ele>
				<time>2021-04-12T10:44:27+02:00</time>
				<extensions>
					<swisstopo:routepoint_id>1162715281</swisstopo:routepoint_id>
				</extensions>
			</trkpt>
			<trkpt lat="47.1991107410" lon="7.5472631927">
				<ele>442.3</ele>
				<time>2021-04-12T10:44:28+02:00</time>
				<extensions>
					<swisstopo:routepoint_id>1802023714</swisstopo:routepoint_id>
				</extensions>
			</trkpt>
			<trkpt lat="47.1992089195" lon="7.5472656264">
				<ele>442.1</ele>
				<time>2021-04-12T10:44:29+02:00</time>
				<extensions>
					<swisstopo:routepoint_id>650687557</swisstopo:routepoint_id>
				</extensions>
			</trkpt>
			<trkpt lat="47.1993073050" lon="7.5472685236">
				<ele>442.0</ele>
				<time>2021-04-12T10:44:30+02:00</time>
				<extensions>
					<swisstopo:routepoint_id>1119039975</swisstopo:routepoint_id>
				</extensions>
			</trkpt>
			<trkpt lat="47.1994063932" lon="7.5472716837">
				<ele>441.8</ele>
				<time>2021-04-12T10:44:31+02:00</time>
				<extensions>
					<swisstopo:routepoint_id>43079399</swisstopo:routepoint_id>
				</extensions>
			</trkpt>
			<trkpt lat="47.1995066841" lon="7.5472753130">
				<ele>441.7</ele>
				<time>2021-04-12T10:44:32+02:00</time>
				<extensions>
					<swisstopo:routepoint_id>333469954</swisstopo:routepoint_id>
				</extensions>
			</trkpt>
			<trkpt lat="47.1996084152" lon="7.5472794589">
				<ele>441.5</ele>
				<time>2021-04-12T10:44:33+02:00</time>
				<extensions>
					<swisstopo:routepoint_id>1844681855</swisstopo:routepoint_id>
				</extensions>
			</trkpt>
			<trkpt lat="47.1997118529" lon="7.5472838172">
				<ele>441.3</ele>
				<time>2021-04-12T10:44:34+02:00</time>
				<extensions>
					<swisstopo:routepoint_id>346525246</swisstopo:routepoint_id>
				</extensions>
			</trkpt>
			<trkpt lat="47.1998165311" lon="7.5472887918">
				<ele>441.1</ele>
				<time>2021-04-12T10:44:35+02:00</time>
				<extensions>
					<swisstopo:routepoint_id>74158858</swisstopo:routepoint_id>
				</extensions>
			</trkpt>
			<trkpt lat="47.1999219072" lon="7.5472935409">
				<ele>440.9</ele>
				<time>2021-04-12T10:44:36+02:00</time>
				<extensions>
					<swisstopo:routepoint_id>847411146</swisstopo:routepoint_id>
				</extensions>
			</trkpt>
			<trkpt lat="47.2000277554" lon="7.5472977978">
				<ele>440.8</ele>
				<time>2021-04-12T10:44:37+02:00</time>
				<extensions>
					<swisstopo:routepoint_id>327583918</swisstopo:routepoint_id>
				</extensions>
			</trkpt>
			<trkpt lat="47.2001331273" lon="7.5473011334">
				<ele>440.6</ele>
				<time>2021-04-12T10:44:38+02:00</time>
				<extensions>
					<swisstopo:routepoint_id>1702322565</swisstopo:routepoint_id>
				</extensions>
			</trkpt>
			<trkpt lat="47.2002376749" lon="7.5473010345">
				<ele>440.4</ele>
				<time>2021-04-12T10:44:39+02:00</time>
				<extensions>
					<swisstopo:routepoint_id>10720974</swisstopo:routepoint_id>
				</extensions>
			</trkpt>
			<trkpt lat="47.2003412873" lon="7.5472945349">
				<ele>440.3</ele>
				<time>2021-04-12T10:44:40+02:00</time>
				<extensions>
					<swisstopo:routepoint_id>1946267317</swisstopo:routepoint_id>
				</extensions>
			</trkpt>
			<trkpt lat="47.2004439375" lon="7.5472795006">
				<ele>440.1</ele>
				<time>2021-04-12T10:44:41+02:00</time>
				<extensions>
					<swisstopo:routepoint_id>443885715</swisstopo:routepoint_id>
				</extensions>
			</trkpt>
			<trkpt lat="47.2005452430" lon="7.5472538520">
				<ele>440.0</ele>
				<time>2021-04-12T10:44:42+02:00</time>
				<extensions>
					<swisstopo:routepoint_id>29022327</swisstopo:routepoint_id>
				</extensions>
			</trkpt>
			<trkpt lat="47.2006448932" lon="7.5472146143">
				<ele>439.8</ele>
				<time>2021-04-12T10:44:43+02:00</time>
				<extensions>
					<swisstopo:routepoint_id>299462020</swisstopo:routepoint_id>
				</extensions>
			</trkpt>
			<trkpt lat="47.2007419686" lon="7.5471599458">
				<ele>439.6</ele>
				<time>2021-04-12T10:44:44+02:00</time>
				<extensions>
					<swisstopo:routepoint_id>1503985219</swisstopo:routepoint_id>
				</extensions>
			</trkpt>
			<trkpt lat="47.2008354065" lon="7.5470891910">
				<ele>439.5</ele>
				<time>2021-04-12T10:44:45+02:00</time>
				<extensions>
					<swisstopo:routepoint_id>1597050543</swisstopo:routepoint_id>
				</extensions>
			</trkpt>
			<trkpt lat="47.2009252911" lon="7.5470027069">
				<ele>439.3</ele>
				<time>2021-04-12T10:44:46+02:00</time>
				<extensions>
					<swisstopo:routepoint_id>230372348</swisstopo:routepoint_id>
				</extensions>
			</trkpt>
			<trkpt lat="47.2010122662" lon="7.5469018770">
				<ele>439.2</ele>
				<time>2021-04-12T10:44:47+02:00</time>
				<extensions>
					<swisstopo:routepoint_id>2102520942</swisstopo:routepoint_id>
				</extensions>
			</trkpt>
			<trkpt lat="47.2010967896" lon="7.5467888282">
				<ele>439.0</ele>
				<time>2021-04-12T10:44:48+02:00</time>
				<extensions>
					<swisstopo:routepoint_id>226060809</swisstopo:routepoint_id>
				</extensions>
			</trkpt>
			<trkpt lat="47.2011791843" lon="7.5466663606">
				<ele>438.9</ele>
				<time>2021-04-12T10:44:49+02:00</time>
				<extensions>
					<swisstopo:routepoint_id>505445320</swisstopo:routepoint_id>
				</extensions>
			</trkpt>
			<trkpt lat="47.2012592728" lon="7.5465361435">
				<ele>438.8</ele>
				<time>2021-04-12T10:44:50+02:00</time>
				<extensions>
					<swisstopo:routepoint_id>1721669355</swisstopo:routepoint_id>
				</extensions>
			</trkpt>
			<trkpt lat="47.2013363084" lon="7.5463994440">
				<ele>438.8</ele>
				<time>2021-04-12T10:44:51+02:00</time>
				<extensions>
					<swisstopo:routepoint_id>902189807</swisstopo:routepoint_id>
				</extensions>
			</trkpt>
			<trkpt lat="47.2014091307" lon="7.5462572762">
				<ele>438.7</ele>
				<time>2021-04-12T10:44:52+02:00</time>
				<extensions>
					<swisstopo:routepoint_id>1869538429</swisstopo:routepoint_id>
				</extensions>
			</trkpt>
			<trkpt lat="47.2014767714" lon="7.5461105279">
				<ele>438.6</ele>
				<time>2021-04-12T10:44:53+02:00</time>
				<extensions>
					<swisstopo:routepoint_id>1499136946</swisstopo:routepoint_id>
				</extensions>
			</trkpt>
			<trkpt lat="47.2015392702" lon="7.5459602102">
				<ele>438.5</ele>
				<time>2021-04-12T10:44:54+02:00</time>
				<extensions>
					<swisstopo:routepoint_id>1716504818</swisstopo:routepoint_id>
				</extensions>
			</trkpt>
			<trkpt lat="47.2015974019" lon="7.5458078203">
				<ele>438.5</ele>
				<time>2021-04-12T10:44:55+02:00</time>
				<extensions>
					<swisstopo:routepoint_id>1162328</swisstopo:routepoint_id>
				</extensions>
			</trkpt>
			<trkpt lat="47.2016518734" lon="7.5456551524">
				<ele>438.4</ele>
				<time>2021-04-12T10:44:56+02:00</time>
				<extensions>
					<swisstopo:routepoint_id>207893873</swisstopo:routepoint_id>
				</extensions>
			</trkpt>
			<trkpt lat="47.2017042955" lon="7.5455040453">
				<ele>438.4</ele>
				<time>2021-04-12T10:44:57+02:00</time>
				<extensions>
					<swisstopo:routepoint_id>116429842</swisstopo:routepoint_id>
				</extensions>
			</trkpt>
			<trkpt lat="47.2017560956" lon="7.5453571913">
				<ele>438.3</ele>
				<time>2021-04-12T10:44:58+02:00</time>
				<extensions>
					<swisstopo:routepoint_id>478752077</swisstopo:routepoint_id>
				</extensions>
			</trkpt>
			<trkpt lat="47.2018090233" lon="7.5452171722">
				<ele>438.2</ele>
				<time>2021-04-12T10:44:59+02:00</time>
				<extensions>
					<swisstopo:routepoint_id>1912416477</swisstopo:routepoint_id>
				</extensions>
			</trkpt>
			<trkpt lat="47.2018648569" lon="7.5450867949">
				<ele>438.2</ele>
				<time>2021-04-12T10:45:00+02:00</time>
				<extensions>
					<swisstopo:routepoint_id>595984290</swisstopo:routepoint_id>
				</extensions>
			</trkpt>
			<trkpt lat="47.2019243938" lon="7.5449690614">
				<ele>438.1</ele>
				<time>2021-04-12T10:45:01+02:00</time>
				<extensions>
					<swisstopo:routepoint_id>844232422</swisstopo:routepoint_id>
				</extensions>
			</trkpt>
			<trkpt lat="47.2019879474" lon="7.5448651125">
				<ele>438.1</ele>
				<time>2021-04-12T10:45:02+02:00</time>
				<extensions>
					<swisstopo:routepoint_id>589860825</swisstopo:routepoint_id>
				</extensions>
			</trkpt>
			<trkpt lat="47.2020550843" lon="7.5447749142">
				<ele>438.0</ele>
				<time>2021-04-12T10:45:03+02:00</time>
				<extensions>
					<swisstopo:routepoint_id>1006371223</swisstopo:routepoint_id>
				</extensions>
			</trkpt>
			<trkpt lat="47.2021253343" lon="7.5446983775">
				<ele>437.9</ele>
				<time>2021-04-12T10:45:04+02:00</time>
				<extensions>
					<swisstopo:routepoint_id>499941189</swisstopo:routepoint_id>
				</extensions>
			</trkpt>
			<trkpt lat="47.2021978778" lon="7.5446339783">
				<ele>437.9</ele>
				<time>2021-04-12T10:45:05+02:00</time>
				<extensions>
					<swisstopo:routepoint_id>1555536459</swisstopo:routepoint_id>
				</extensions>
			</trkpt>
			<trkpt lat="47.2022718069" lon="7.5445790636">
				<ele>437.8</ele>
				<time>2021-04-12T10:45:06+02:00</time>
				<extensions>
					<swisstopo:routepoint_id>435347835</swisstopo:routepoint_id>
				</extensions>
			</trkpt>
			<trkpt lat="47.2023455697" lon="7.5445303446">
				<ele>437.7</ele>
				<time>2021-04-12T10:45:07+02:00</time>
				<extensions>
					<swisstopo:routepoint_id>414277516</swisstopo:routepoint_id>
				</extensions>
			</trkpt>
			<trkpt lat="47.2024172843" lon="7.5444844270">
				<ele>437.4</ele>
				<time>2021-04-12T10:45:08+02:00</time>
				<extensions>
					<swisstopo:routepoint_id>620227838</swisstopo:routepoint_id>
				</extensions>
			</trkpt>
			<trkpt lat="47.2024852832" lon="7.5444400847">
				<ele>437.2</ele>
				<time>2021-04-12T10:45:09+02:00</time>
				<extensions>
					<swisstopo:routepoint_id>283650728</swisstopo:routepoint_id>
				</extensions>
			</trkpt>
			<trkpt lat="47.2025479975" lon="7.5443990009">
				<ele>436.8</ele>
				<time>2021-04-12T10:45:10+02:00</time>
				<extensions>
					<swisstopo:routepoint_id>2051572803</swisstopo:routepoint_id>
				</extensions>
			</trkpt>
			<trkpt lat="47.2026042003" lon="7.5443636882">
				<ele>436.5</ele>
				<time>2021-04-12T10:45:11+02:00</time>
				<extensions>
					<swisstopo:routepoint_id>786663789</swisstopo:routepoint_id>
				</extensions>
			</trkpt>
			<trkpt lat="47.2026527813" lon="7.5443366261">
				<ele>436.1</ele>
				<time>2021-04-12T10:45:12+02:00</time>
				<extensions>
					<swisstopo:routepoint_id>1548970791</swisstopo:routepoint_id>
				</extensions>
			</trkpt>
			<trkpt lat="47.2026924856" lon="7.5443182368">
				<ele>435.7</ele>
				<time>2021-04-12T10:45:13+02:00</time>
				<extensions>
					<swisstopo:routepoint_id>1755315403</swisstopo:routepoint_id>
				</extensions>
			</trkpt>
			<trkpt lat="47.2027257174" lon="7.5443083750">
				<ele>435.3</ele>
				<time>2021-04-12T10:45:14+02:00</time>
				<extensions>
					<swisstopo:routepoint_id>1603119382</swisstopo:routepoint_id>
				</extensions>
			</trkpt>
			<trkpt lat="47.2027562607" lon="7.5443052746">
				<ele>434.9</ele>
				<time>2021-04-12T10:45:15+02:00</time>
				<extensions>
					<swisstopo:routepoint_id>1297618012</swisstopo:routepoint_id>
				</extensions>
			</trkpt>
			<trkpt lat="47.2027868498" lon="7.5443067666">
				<ele>434.5</ele>
				<time>2021-04-12T10:45:16+02:00</time>
				<extensions>
					<swisstopo:routepoint_id>1369492399</swisstopo:routepoint_id>
				</extensions>
			</trkpt>
			<trkpt lat="47.2028183573" lon="7.5443078774">
				<ele>434.1</ele>
				<time>2021-04-12T10:45:17+02:00</time>
				<extensions>
					<swisstopo:routepoint_id>329021447</swisstopo:routepoint_id>
				</extensions>
			</trkpt>
			<trkpt lat="47.2028484511" lon="7.5443006392">
				<ele>433.7</ele>
				<time>2021-04-12T10:45:18+02:00</time>
				<extensions>
					<swisstopo:routepoint_id>93068704</swisstopo:routepoint_id>
				</extensions>
			</trkpt>
			<trkpt lat="47.2028736285" lon="7.5442804530">
				<ele>433.3</ele>
				<time>2021-04-12T10:45:19+02:00</time>
				<extensions>
					<swisstopo:routepoint_id>837613112</swisstopo:routepoint_id>
				</extensions>
			</trkpt>
			<trkpt lat="47.2028920291" lon="7.5442462426">
				<ele>432.9</ele>
				<time>2021-04-12T10:45:20+02:00</time>
				<extensions>
					<swisstopo:routepoint_id>1008267299</swisstopo:routepoint_id>
				</extensions>
			</trkpt>
			<trkpt lat="47.2029037693" lon="7.5441993499">
				<ele>432.7</ele>
				<time>2021-04-12T10:45:21+02:00</time>
				<extensions>
					<swisstopo:routepoint_id>155035816</swisstopo:routepoint_id>
				</extensions>
			</trkpt>
			<trkpt lat="47.2029086549" lon="7.5441414795">
				<ele>432.5</ele>
				<time>2021-04-12T10:45:22+02:00</time>
				<extensions>
					<swisstopo:routepoint_id>789295701</swisstopo:routepoint_id>
				</extensions>
			</trkpt>
			<trkpt lat="47.2029080406" lon="7.5440738108">
				<ele>432.4</ele>
				<time>2021-04-12T10:45:23+02:00</time>
				<extensions>
					<swisstopo:routepoint_id>686359188</swisstopo:routepoint_id>
				</extensions>
			</trkpt>
			<trkpt lat="47.2029058391" lon="7.5439979627">
				<ele>432.4</ele>
				<time>2021-04-12T10:45:24+02:00</time>
				<extensions>
					<swisstopo:routepoint_id>1504204679</swisstopo:routepoint_id>
				</extensions>
			</trkpt>
			<trkpt lat="47.2029043590" lon="7.5439152989">
				<ele>432.4</ele>
				<time>2021-04-12T10:45:25+02:00</time>
				<extensions>
					<swisstopo:routepoint_id>990547469</swisstopo:routepoint_id>
				</extensions>
			</trkpt>
			<trkpt lat="47.2029053091" lon="7.5438272442">
				<ele>432.5</ele>
				<time>2021-04-12T10:45:26+02:00</time>
				<extensions>
					<swisstopo:routepoint_id>838079939</swisstopo:routepoint_id>
				</extensions>
			</trkpt>
			<trkpt lat="47.2029092130" lon="7.5437361164">
				<ele>432.6</ele>
				<time>2021-04-12T10:45:27+02:00</time>
				<extensions>
					<swisstopo:routepoint_id>264294100</swisstopo:routepoint_id>
				</extensions>
			</trkpt>
			<trkpt lat="47.2029149227" lon="7.5436454300">
				<ele>432.8</ele>
				<time>2021-04-12T10:45:28+02:00</time>
				<extensions>
					<swisstopo:routepoint_id>994756704</swisstopo:routepoint_id>
				</extensions>
			</trkpt>
			<trkpt lat="47.2029220752" lon="7.5435581237">
				<ele>432.9</ele>
				<time>2021-04-12T10:45:29+02:00</time>
				<extensions>
					<swisstopo:routepoint_id>715732233</swisstopo:routepoint_id>
				</extensions>
			</trkpt>
			<trkpt lat="47.2029298472" lon="7.5434770750">
				<ele>433.1</ele>
				<time>2021-04-12T10:45:30+02:00</time>
				<extensions>
					<swisstopo:routepoint_id>1255733184</swisstopo:routepoint_id>
				</extensions>
			</trkpt>
			<trkpt lat="47.2029371853" lon="7.5434061055">
				<ele>433.2</ele>
				<time>2021-04-12T10:45:31+02:00</time>
				<extensions>
					<swisstopo:routepoint_id>1785824419</swisstopo:routepoint_id>
				</extensions>
			</trkpt>
			<trkpt lat="47.2029430172" lon="7.5433471166">
				<ele>433.3</ele>
				<time>2021-04-12T10:45:32+02:00</time>
				<extensions>
					<swisstopo:routepoint_id>1119559661</swisstopo:routepoint_id>
				</extensions>
			</trkpt>
			<trkpt lat="47.2029472017" lon="7.5433009796">
				<ele>433.4</ele>
				<time>2021-04-12T10:45:33+02:00</time>
				<extensions>
					<swisstopo:routepoint_id>187507413</swisstopo:routepoint_id>
				</extensions>
			</trkpt>
			<trkpt lat="47.2029491525" lon="7.5432671326">
				<ele>433.6</ele>
				<time>2021-04-12T10:45:34+02:00</time>
				<extensions>
					<swisstopo:routepoint_id>1078580142</swisstopo:routepoint_id>
				</extensions>
			</trkpt>
			<trkpt lat="47.2029488540" lon="7.5432446441">
				<ele>433.7</ele>
				<time>2021-04-12T10:45:35+02:00</time>
				<extensions>
					<swisstopo:routepoint_id>786982267</swisstopo:routepoint_id>
				</extensions>
			</trkpt>
			<trkpt lat="47.2029470053" lon="7.5432313854">
				<ele>433.8</ele>
				<time>2021-04-12T10:45:36+02:00</time>
				<extensions>
					<swisstopo:routepoint_id>459179596</swisstopo:routepoint_id>
				</extensions>
			</trkpt>
			<trkpt lat="47.2029444755" lon="7.5432250485">
				<ele>433.9</ele>
				<time>2021-04-12T10:45:37+02:00</time>
				<extensions>
					<swisstopo:routepoint_id>1522726301</swisstopo:routepoint_id>
				</extensions>
			</trkpt>
			<trkpt lat="47.2029416577" lon="7.5432224455">
				<ele>434.0</ele>
				<time>2021-04-12T10:45:38+02:00</time>
				<extensions>
					<swisstopo:routepoint_id>898319608</swisstopo:routepoint_id>
				</extensions>
			</trkpt>
			<trkpt lat="47.2029398420" lon="7.5432199120">
				<ele>434.1</ele>
				<time>2021-04-12T10:45:39+02:00</time>
				<extensions>
					<swisstopo:routepoint_id>1247613246</swisstopo:routepoint_id>
				</extensions>
			</trkpt>
			<trkpt lat="47.2029399482" lon="7.5432154567">
				<ele>434.1</ele>
				<time>2021-04-12T10:45:40+02:00</time>
				<extensions>
					<swisstopo:routepoint_id>605496214</swisstopo:routepoint_id>
				</extensions>
			</trkpt>
			<trkpt lat="47.2029424487" lon="7.5432082593">
				<ele>434.1</ele>
				<time>2021-04-12T10:45:41+02:00</time>
				<extensions>
					<swisstopo:routepoint_id>1797349212</swisstopo:routepoint_id>
				</extensions>
			</trkpt>
			<trkpt lat="47.2029474648" lon="7.5431976149">
				<ele>434.1</ele>
				<time>2021-04-12T10:45:42+02:00</time>
				<extensions>
					<swisstopo:routepoint_id>1543227382</swisstopo:routepoint_id>
				</extensions>
			</trkpt>
			<trkpt lat="47.2029554393" lon="7.5431823257">
				<ele>434.0</ele>
				<time>2021-04-12T10:45:43+02:00</time>
				<extensions>
					<swisstopo:routepoint_id>1862604455</swisstopo:routepoint_id>
				</extensions>
			</trkpt>
			<trkpt lat="47.2029666491" lon="7.5431610845">
				<ele>434.0</ele>
				<time>2021-04-12T10:45:44+02:00</time>
				<extensions>
					<swisstopo:routepoint_id>923952866</swisstopo:routepoint_id>
				</extensions>
			</trkpt>
			<trkpt lat="47.2029809762" lon="7.5431327959">
				<ele>434.0</ele>
				<time>2021-04-12T10:45:45+02:00</time>
				<extensions>
					<swisstopo:routepoint_id>421567405</swisstopo:routepoint_id>
				</extensions>
			</trkpt>
			<trkpt lat="47.2029971553" lon="7.5430970661">
				<ele>433.9</ele>
				<time>2021-04-12T10:45:46+02:00</time>
				<extensions>
					<swisstopo:routepoint_id>734824382</swisstopo:routepoint_id>
				</extensions>
			</trkpt>
			<trkpt lat="47.2030140884" lon="7.5430535291">
				<ele>433.8</ele>
				<time>2021-04-12T10:45:47+02:00</time>
				<extensions>
					<swisstopo:routepoint_id>14934377</swisstopo:routepoint_id>
				</extensions>
			</trkpt>
			<trkpt lat="47.2030317907" lon="7.5430010163">
				<ele>433.7</ele>
				<time>2021-04-12T10:45:48+02:00</time>
				<extensions>
					<swisstopo:routepoint_id>1893971187</swisstopo:routepoint_id>
				</extensions>
			</trkpt>
			<trkpt lat="47.2030505350" lon="7.5429387087">
				<ele>433.5</ele>
				<time>2021-04-12T10:45:49+02:00</time>
				<extensions>
					<swisstopo:routepoint_id>1971124075</swisstopo:routepoint_id>
				</extensions>
			</trkpt>
			<trkpt lat="47.2030708176" lon="7.5428658201">
				<ele>433.4</ele>
				<time>2021-04-12T10:45:50+02:00</time>
				<extensions>
					<swisstopo:routepoint_id>1599589903</swisstopo:routepoint_id>
				</extensions>
			</trkpt>
			<trkpt lat="47.2030924064" lon="7.5427818949">
				<ele>433.3</ele>
				<time>2021-04-12T10:45:51+02:00</time>
				<extensions>
					<swisstopo:routepoint_id>2107206575</swisstopo:routepoint_id>
				</extensions>
			</trkpt>
			<trkpt lat="47.2031155413" lon="7.5426872619">
				<ele>433.2</ele>
				<time>2021-04-12T10:45:52+02:00</time>
				<extensions>
					<swisstopo:routepoint_id>1668083348</swisstopo:routepoint_id>
				</extensions>
			</trkpt>
			<trkpt lat="47.2031399713" lon="7.5425821139">
				<ele>433.0</ele>
				<time>2021-04-12T10:45:53+02:00</time>
				<extensions>
					<swisstopo:routepoint_id>77818251</swisstopo:routepoint_id>
				</extensions>
			</trkpt>
			<trkpt lat="47.2031648945" lon="7.5424668792">
				<ele>432.9</ele>
				<time>2021-04-12T10:45:54+02:00</time>
				<extensions>
					<swisstopo:routepoint_id>73803534</swisstopo:routepoint_id>
				</extensions>
			</trkpt>
			<trkpt lat="47.2031891200" lon="7.5423418572">
				<ele>432.8</ele>
				<time>2021-04-12T10:45:55+02:00</time>
				<extensions>
					<swisstopo:routepoint_id>1317931619</swisstopo:routepoint_id>
				</extensions>
			</trkpt>
			<trkpt lat="47.2032103552" lon="7.5422073366">
				<ele>432.6</ele>
				<time>2021-04-12T10:45:56+02:00</time>
				<extensions>
					<swisstopo:routepoint_id>1330385375</swisstopo:routepoint_id>
				</extensions>
			</trkpt>
			<trkpt lat="47.2032266567" lon="7.5420644506">
				<ele>432.5</ele>
				<time>2021-04-12T10:45:57+02:00</time>
				<extensions>
					<swisstopo:routepoint_id>187265061</swisstopo:routepoint_id>
				</extensions>
			</trkpt>
			<trkpt lat="47.2032363092" lon="7.5419154656">
				<ele>432.5</ele>
				<time>2021-04-12T10:45:58+02:00</time>
				<extensions>
					<swisstopo:routepoint_id>1300337372</swisstopo:routepoint_id>
				</extensions>
			</trkpt>
			<trkpt lat="47.2032386201" lon="7.5417623878">
				<ele>432.4</ele>
				<time>2021-04-12T10:45:59+02:00</time>
				<extensions>
					<swisstopo:routepoint_id>1976619332</swisstopo:routepoint_id>
				</extensions>
			</trkpt>
			<trkpt lat="47.2032343196" lon="7.5416073771">
				<ele>432.3</ele>
				<time>2021-04-12T10:46:00+02:00</time>
				<extensions>
					<swisstopo:routepoint_id>1616577481</swisstopo:routepoint_id>
				</extensions>
			</trkpt>
			<trkpt lat="47.2032253270" lon="7.5414519502">
				<ele>432.2</ele>
				<time>2021-04-12T10:46:01+02:00</time>
				<extensions>
					<swisstopo:routepoint_id>2002104970</swisstopo:routepoint_id>
				</extensions>
			</trkpt>
			<trkpt lat="47.2032122450" lon="7.5412973036">
				<ele>432.2</ele>
				<time>2021-04-12T10:46:02+02:00</time>
				<extensions>
					<swisstopo:routepoint_id>456965947</swisstopo:routepoint_id>
				</extensions>
			</trkpt>
			<trkpt lat="47.2031966799" lon="7.5411439547">
				<ele>432.2</ele>
				<time>2021-04-12T10:46:03+02:00</time>
				<extensions>
					<swisstopo:routepoint_id>825149557</swisstopo:routepoint_id>
				</extensions>
			</trkpt>
			<trkpt lat="47.2031790711" lon="7.5409932286">
				<ele>432.2</ele>
				<time>2021-04-12T10:46:04+02:00</time>
				<extensions>
					<swisstopo:routepoint_id>1986695820</swisstopo:routepoint_id>
				</extensions>
			</trkpt>
			<trkpt lat="47.2031609472" lon="7.5408451414">
				<ele>432.2</ele>
				<time>2021-04-12T10:46:05+02:00</time>
				<extensions>
					<swisstopo:routepoint_id>1320903184</swisstopo:routepoint_id>
				</extensions>
			</trkpt>
			<trkpt lat="47.2031426460" lon="7.5406996178">
				<ele>432.2</ele>
				<time>2021-04-12T10:46:06+02:00</time>
				<extensions>
					<swisstopo:routepoint_id>1881354449</swisstopo:routepoint_id>
				</extensions>
			</trkpt>
			<trkpt lat="47.2031238097" lon="7.5405573155">
				<ele>432.2</ele>
				<time>2021-04-12T10:46:07+02:00</time>
				<extensions>
					<swisstopo:routepoint_id>375005915</swisstopo:routepoint_id>
				</extensions>
			</trkpt>
			<trkpt lat="47.2031046835" lon="7.5404179460">
				<ele>432.3</ele>
				<time>2021-04-12T10:46:08+02:00</time>
				<extensions>
					<swisstopo:routepoint_id>2007393107</swisstopo:routepoint_id>
				</extensions>
			</trkpt>
			<trkpt lat="47.2030848014" lon="7.5402812938">
				<ele>432.3</ele>
				<time>2021-04-12T10:46:09+02:00</time>
				<extensions>
					<swisstopo:routepoint_id>1287854979</swisstopo:routepoint_id>
				</extensions>
			</trkpt>
			<trkpt lat="47.2030633648" lon="7.5401473542">
				<ele>432.3</ele>
				<time>2021-04-12T10:46:10+02:00</time>
				<extensions>
					<swisstopo:routepoint_id>490953940</swisstopo:routepoint_id>
				</extensions>
			</trkpt>
			<trkpt lat="47.2030401728" lon="7.5400154894">
				<ele>432.4</ele>
				<time>2021-04-12T10:46:11+02:00</time>
				<extensions>
					<swisstopo:routepoint_id>830697806</swisstopo:routepoint_id>
				</extensions>
			</trkpt>
			<trkpt lat="47.2030164234" lon="7.5398845752">
				<ele>432.4</ele>
				<time>2021-04-12T10:46:12+02:00</time>
				<extensions>
					<swisstopo:routepoint_id>746836295</swisstopo:routepoint_id>
				</extensions>
			</trkpt>
			<trkpt lat="47.2029927404" lon="7.5397538130">
				<ele>432.4</ele>
				<time>2021-04-12T10:46:13+02:00</time>
				<extensions>
					<swisstopo:routepoint_id>35693350</swisstopo:routepoint_id>
				</extensions>
			</trkpt>
			<trkpt lat="47.2029703328" lon="7.5396224517">
				<ele>432.4</ele>
				<time>2021-04-12T10:46:14+02:00</time>
				<extensions>
					<swisstopo:routepoint_id>750195937</swisstopo:routepoint_id>
				</extensions>
			</trkpt>
			<trkpt lat="47.2029492245" lon="7.5394899805">
				<ele>432.3</ele>
				<time>2021-04-12T10:46:15+02:00</time>
				<extensions>
					<swisstopo:routepoint_id>666621622</swisstopo:routepoint_id>
				</extensions>
			</trkpt>
			<trkpt lat="47.2029286232" lon="7.5393570906">
				<ele>432.3</ele>
				<time>2021-04-12T10:46:16+02:00</time>
				<extensions>
					<swisstopo:routepoint_id>487414555</swisstopo:routepoint_id>
				</extensions>
			</trkpt>
			<trkpt lat="47.2029084249" lon="7.5392244825">
				<ele>432.2</ele>
				<time>2021-04-12T10:46:17+02:00</time>
				<extensions>
					<swisstopo:routepoint_id>1473796227</swisstopo:routepoint_id>
				</extensions>
			</trkpt>
			<trkpt lat="47.2028880168" lon="7.5390922769">
				<ele>432.1</ele>
				<time>2021-04-12T10:46:18+02:00</time>
				<extensions>
					<swisstopo:routepoint_id>1016802691</swisstopo:routepoint_id>
				</extensions>
			</trkpt>
			<trkpt lat="47.2028675621" lon="7.5389608387">
				<ele>432.0</ele>
				<time>2021-04-12T10:46:19+02:00</time>
				<extensions>
					<swisstopo:routepoint_id>1875448458</swisstopo:routepoint_id>
				</extensions>
			</trkpt>
			<trkpt lat="47.2028476115" lon="7.5388306315">
				<ele>431.9</ele>
				<time>2021-04-12T10:46:20+02:00</time>
				<extensions>
					<swisstopo:routepoint_id>2044746587</swisstopo:routepoint_id>
				</extensions>
			</trkpt>
			<trkpt lat="47.2028291994" lon="7.5387015890">
				<ele>431.8</ele>
				<time>2021-04-12T10:46:21+02:00</time>
				<extensions>
					<swisstopo:routepoint_id>2022568415</swisstopo:routepoint_id>
				</extensions>
			</trkpt>
			<trkpt lat="47.2028111855" lon="7.5385756050">
				<ele>431.7</ele>
				<time>2021-04-12T10:46:22+02:00</time>
				<extensions>
					<swisstopo:routepoint_id>788702542</swisstopo:routepoint_id>
				</extensions>
			</trkpt>
			<trkpt lat="47.2027934100" lon="7.5384541354">
				<ele>431.6</ele>
				<time>2021-04-12T10:46:23+02:00</time>
				<extensions>
					<swisstopo:routepoint_id>1454554110</swisstopo:routepoint_id>
				</extensions>
			</trkpt>
			<trkpt lat="47.2027764029" lon="7.5383385991">
				<ele>431.5</ele>
				<time>2021-04-12T10:46:24+02:00</time>
				<extensions>
					<swisstopo:routepoint_id>1884572969</swisstopo:routepoint_id>
				</extensions>
			</trkpt>
			<trkpt lat="47.2027609137" lon="7.5382314936">
				<ele>431.4</ele>
				<time>2021-04-12T10:46:25+02:00</time>
				<extensions>
					<swisstopo:routepoint_id>781580380</swisstopo:routepoint_id>
				</extensions>
			</trkpt>
			<trkpt lat="47.2027474737" lon="7.5381351139">
				<ele>431.2</ele>
				<time>2021-04-12T10:46:26+02:00</time>
				<extensions>
					<swisstopo:routepoint_id>2011461608</swisstopo:routepoint_id>
				</extensions>
			</trkpt>
			<trkpt lat="47.2027363312" lon="7.5380493038">
				<ele>431.1</ele>
				<time>2021-04-12T10:46:27+02:00</time>
				<extensions>
					<swisstopo:routepoint_id>947674582</swisstopo:routepoint_id>
				</extensions>
			</trkpt>
			<trkpt lat="47.2027282021" lon="7.5379728413">
				<ele>431.0</ele>
				<time>2021-04-12T10:46:28+02:00</time>
				<extensions>
					<swisstopo:routepoint_id>1827973522</swisstopo:routepoint_id>
				</extensions>
			</trkpt>
			<trkpt lat="47.2027249153" lon="7.5379048172">
				<ele>431.0</ele>
				<time>2021-04-12T10:46:29+02:00</time>
				<extensions>
					<swisstopo:routepoint_id>849930272</swisstopo:routepoint_id>
				</extensions>
			</trkpt>
			<trkpt lat="47.2027279008" lon="7.5378437222">
				<ele>430.8</ele>
				<time>2021-04-12T10:46:30+02:00</time>
				<extensions>
					<swisstopo:routepoint_id>1864345307</swisstopo:routepoint_id>
				</extensions>
			</trkpt>
			<trkpt lat="47.2027388585" lon="7.5377882550">
				<ele>430.7</ele>
				<time>2021-04-12T10:46:31+02:00</time>
				<extensions>
					<swisstopo:routepoint_id>117681372</swisstopo:routepoint_id>
				</extensions>
			</trkpt>
			<trkpt lat="47.2027591579" lon="7.5377379556">
				<ele>430.4</ele>
				<time>2021-04-12T10:46:32+02:00</time>
				<extensions>
					<swisstopo:routepoint_id>38380317</swisstopo:routepoint_id>
				</extensions>
			</trkpt>
			<trkpt lat="47.2027896677" lon="7.5376927491">
				<ele>430.0</ele>
				<time>2021-04-12T10:46:33+02:00</time>
				<extensions>
					<swisstopo:routepoint_id>812893719</swisstopo:routepoint_id>
				</extensions>
			</trkpt>
			<trkpt lat="47.2028298449" lon="7.5376519041">
				<ele>429.6</ele>
				<time>2021-04-12T10:46:34+02:00</time>
				<extensions>
					<swisstopo:routepoint_id>13773019</swisstopo:routepoint_id>
				</extensions>
			</trkpt>
			<trkpt lat="47.2028784829" lon="7.5376142121">
				<ele>429.2</ele>
				<time>2021-04-12T10:46:35+02:00</time>
				<extensions>
					<swisstopo:routepoint_id>1702380104</swisstopo:routepoint_id>
				</extensions>
			</trkpt>
			<trkpt lat="47.2029341527" lon="7.5375782721">
				<ele>428.7</ele>
				<time>2021-04-12T10:46:36+02:00</time>
				<extensions>
					<swisstopo:routepoint_id>977778947</swisstopo:routepoint_id>
				</extensions>
			</trkpt>
			<trkpt lat="47.2029946734" lon="7.5375448346">
				<ele>428.3</ele>
				<time>2021-04-12T10:46:37+02:00</time>
				<extensions>
					<swisstopo:routepoint_id>985895385</swisstopo:routepoint_id>
				</extensions>
			</trkpt>
			<trkpt lat="47.2030580362" lon="7.5375162428">
				<ele>427.9</ele>
				<time>2021-04-12T10:46:38+02:00</time>
				<extensions>
					<swisstopo:routepoint_id>2107399090</swisstopo:routepoint_id>
				</extensions>
			</trkpt>
			<trkpt lat="47.2031215636" lon="7.5374925138">
				<ele>427.5</ele>
				<time>2021-04-12T10:46:39+02:00</time>
				<extensions>
					<swisstopo:routepoint_id>608715659</swisstopo:routepoint_id>
				</extensions>
			</trkpt>
			<trkpt lat="47.2031837622" lon="7.5374737318">
				<ele>427.3</ele>
				<time>2021-04-12T10:46:40+02:00</time>
				<extensions>
					<swisstopo:routepoint_id>71986505</swisstopo:routepoint_id>
				</extensions>
			</trkpt>
			<trkpt lat="47.2032421870" lon="7.5374587742">
				<ele>427.2</ele>
				<time>2021-04-12T10:46:41+02:00</time>
				<extensions>
					<swisstopo:routepoint_id>843896274</swisstopo:routepoint_id>
				</extensions>
			</trkpt>
			<trkpt lat="47.2032959483" lon="7.5374481429">
				<ele>427.2</ele>
				<time>2021-04-12T10:46:42+02:00</time>
				<extensions>
					<swisstopo:routepoint_id>1382672330</swisstopo:routepoint_id>
				</extensions>
			</trkpt>
			<trkpt lat="47.2033455575" lon="7.5374417715">
				<ele>427.2</ele>
				<time>2021-04-12T10:46:43+02:00</time>
				<extensions>
					<swisstopo:routepoint_id>653306123</swisstopo:routepoint_id>
				</extensions>
			</trkpt>
			<trkpt lat="47.2033912898" lon="7.5374381448">
				<ele>427.3</ele>
				<time>2021-04-12T10:46:44+02:00</time>
				<extensions>
					<swisstopo:routepoint_id>32122150</swisstopo:routepoint_id>
				</extensions>
			</trkpt>
			<trkpt lat="47.2034325711" lon="7.5374352971">
				<ele>427.5</ele>
				<time>2021-04-12T10:46:45+02:00</time>
				<extensions>
					<swisstopo:routepoint_id>858579653</swisstopo:routepoint_id>
				</extensions>
			</trkpt>
			<trkpt lat="47.2034679947" lon="7.5374328100">
				<ele>427.7</ele>
				<time>2021-04-12T10:46:46+02:00</time>
				<extensions>
					<swisstopo:routepoint_id>1205603778</swisstopo:routepoint_id>
				</extensions>
			</trkpt>
			<trkpt lat="47.2034966584" lon="7.5374310484">
				<ele>427.8</ele>
				<time>2021-04-12T10:46:47+02:00</time>
				<extensions>
					<swisstopo:routepoint_id>1074487401</swisstopo:routepoint_id>
				</extensions>
			</trkpt>
			<trkpt lat="47.2035191097" lon="7.5374301444">
				<ele>428.0</ele>
				<time>2021-04-12T10:46:48+02:00</time>
				<extensions>
					<swisstopo:routepoint_id>719760984</swisstopo:routepoint_id>
				</extensions>
			</trkpt>
			<trkpt lat="47.2035348550" lon="7.5374314706">
				<ele>428.2</ele>
				<time>2021-04-12T10:46:49+02:00</time>
				<extensions>
					<swisstopo:routepoint_id>247474537</swisstopo:routepoint_id>
				</extensions>
			</trkpt>
			<trkpt lat="47.2035447248" lon="7.5374347050">
				<ele>428.5</ele>
				<time>2021-04-12T10:46:50+02:00</time>
				<extensions>
					<swisstopo:routepoint_id>1776202767</swisstopo:routepoint_id>
				</extensions>
			</trkpt>
			<trkpt lat="47.2035501329" lon="7.5374387646">
				<ele>428.8</ele>
				<time>2021-04-12T10:46:51+02:00</time>
				<extensions>
					<swisstopo:routepoint_id>469728022</swisstopo:routepoint_id>
				</extensions>
			</trkpt>
			<trkpt lat="47.2035518312" lon="7.5374436540">
				<ele>429.1</ele>
				<time>2021-04-12T10:46:52+02:00</time>
				<extensions>
					<swisstopo:routepoint_id>568979382</swisstopo:routepoint_id>
				</extensions>
			</trkpt>
			<trkpt lat="47.2035507538" lon="7.5374492104">
				<ele>429.4</ele>
				<time>2021-04-12T10:46:53+02:00</time>
				<extensions>
					<swisstopo:routepoint_id>91793183</swisstopo:routepoint_id>
				</extensions>
			</trkpt>
			<trkpt lat="47.2035471165" lon="7.5374548261">
				<ele>429.7</ele>
				<time>2021-04-12T10:46:54+02:00</time>
				<extensions>
					<swisstopo:routepoint_id>874768135</swisstopo:routepoint_id>
				</extensions>
			</trkpt>
			<trkpt lat="47.2035419222" lon="7.5374601872">
				<ele>430.0</ele>
				<time>2021-04-12T10:46:55+02:00</time>
				<extensions>
					<swisstopo:routepoint_id>554997583</swisstopo:routepoint_id>
				</extensions>
			</trkpt>
			<trkpt lat="47.2035361652" lon="7.5374647544">
				<ele>430.3</ele>
				<time>2021-04-12T10:46:56+02:00</time>
				<extensions>
					<swisstopo:routepoint_id>1322898560</swisstopo:routepoint_id>
				</extensions>
			</trkpt>
			<trkpt lat="47.2035302363" lon="7.5374684900">
				<ele>430.6</ele>
				<time>2021-04-12T10:46:57+02:00</time>
				<extensions>
					<swisstopo:routepoint_id>1057900529</swisstopo:routepoint_id>
				</extensions>
			</trkpt>
			<trkpt lat="47.2035244779" lon="7.5374714444">
				<ele>430.9</ele>
				<time>2021-04-12T10:46:58+02:00</time>
				<extensions>
					<swisstopo:routepoint_id>1117077390</swisstopo:routepoint_id>
				</extensions>
			</trkpt>
			<trkpt lat="47.2035187829" lon="7.5374738493">
				<ele>431.1</ele>
				<time>2021-04-12T10:46:59+02:00</time>
				<extensions>
					<swisstopo:routepoint_id>1417651656</swisstopo:routepoint_id>
				</extensions>
			</trkpt>
			<trkpt lat="47.2035131258" lon="7.5374759295">
				<ele>431.4</ele>
				<time>2021-04-12T10:47:00+02:00</time>
				<extensions>
					<swisstopo:routepoint_id>140318927</swisstopo:routepoint_id>
				</extensions>
			</trkpt>
			<trkpt lat="47.2035075370" lon="7.5374777685">
				<ele>431.6</ele>
				<time>2021-04-12T10:47:01+02:00</time>
				<extensions>
					<swisstopo:routepoint_id>403161683</swisstopo:routepoint_id>
				</extensions>
			</trkpt>
			<trkpt lat="47.2035025438" lon="7.5374790030">
				<ele>431.8</ele>
				<time>2021-04-12T10:47:02+02:00</time>
				<extensions>
					<swisstopo:routepoint_id>627499896</swisstopo:routepoint_id>
				</extensions>
			</trkpt>
			<trkpt lat="47.2034983021" lon="7.5374797622">
				<ele>432.0</ele>
				<time>2021-04-12T10:47:03+02:00</time>
				<extensions>
					<swisstopo:routepoint_id>98561655</swisstopo:routepoint_id>
				</extensions>
			</trkpt>
			<trkpt lat="47.2034947072" lon="7.5374800531">
				<ele>432.2</ele>
				<time>2021-04-12T10:47:04+02:00</time>
				<extensions>
					<swisstopo:routepoint_id>815843748</swisstopo:routepoint_id>
				</extensions>
			</trkpt>
			<trkpt lat="47.2034916557" lon="7.5374801635">
				<ele>432.3</ele>
				<time>2021-04-12T10:47:05+02:00</time>
				<extensions>
					<swisstopo:routepoint_id>202786541</swisstopo:routepoint_id>
				</extensions>
			</trkpt>
			<trkpt lat="47.2034898688" lon="7.5374794503">
				<ele>432.4</ele>
				<time>2021-04-12T10:47:06+02:00</time>
				<extensions>
					<swisstopo:routepoint_id>176846798</swisstopo:routepoint_id>
				</extensions>
			</trkpt>
			<trkpt lat="47.2034909142" lon="7.5374776374">
				<ele>432.5</ele>
				<time>2021-04-12T10:47:07+02:00</time>
				<extensions>
					<swisstopo:routepoint_id>146766538</swisstopo:routepoint_id>
				</extensions>
			</trkpt>
			<trkpt lat="47.2034956042" lon="7.5374746503">
				<ele>432.6</ele>
				<time>2021-04-12T10:47:08+02:00</time>
				<extensions>
					<swisstopo:routepoint_id>1393977410</swisstopo:routepoint_id>
				</extensions>
			</trkpt>
			<trkpt lat="47.2035038992" lon="7.5374708279">
				<ele>432.7</ele>
				<time>2021-04-12T10:47:09+02:00</time>
				<extensions>
					<swisstopo:routepoint_id>1679224747</swisstopo:routepoint_id>
				</extensions>
			</trkpt>
			<trkpt lat="47.2035160311" lon="7.5374675553">
				<ele>432.7</ele>
				<time>2021-04-12T10:47:10+02:00</time>
				<extensions>
					<swisstopo:routepoint_id>500233955</swisstopo:routepoint_id>
				</extensions>
			</trkpt>
			<trkpt lat="47.2035353652" lon="7.5374680953">
				<ele>432.7</ele>
				<time>2021-04-12T10:47:11+02:00</time>
				<extensions>
					<swisstopo:routepoint_id>33603680</swisstopo:routepoint_id>
				</extensions>
			</trkpt>
			<trkpt lat="47.2035585629" lon="7.5374762928">
				<ele>432.7</ele>
				<time>2021-04-12T10:47:12+02:00</time>
				<extensions>
					<swisstopo:routepoint_id>2136334246</swisstopo:routepoint_id>
				</extensions>
			</trkpt>
			<trkpt lat="47.2035865124" lon="7.5374944815">
				<ele>432.7</ele>
				<time>2021-04-12T10:47:13+02:00</time>
				<extensions>
					<swisstopo:routepoint_id>1590578329</swisstopo:routepoint_id>
				</extensions>
			</trkpt>
			<trkpt lat="47.2036203920" lon="7.5375230801">
				<ele>432.7</ele>
				<time>2021-04-12T10:47:14+02:00</time>
				<extensions>
					<swisstopo:routepoint_id>973537647</swisstopo:routepoint_id>
				</extensions>
			</trkpt>
			<trkpt lat="47.2036582623" lon="7.5375629882">
				<ele>432.8</ele>
				<time>2021-04-12T10:47:15+02:00</time>
				<extensions>
					<swisstopo:routepoint_id>569326636</swisstopo:routepoint_id>
				</extensions>
			</trkpt>
			<trkpt lat="47.2036977183" lon="7.5376142444">
				<ele>433.0</ele>
				<time>2021-04-12T10:47:16+02:00</time>
				<extensions>
					<swisstopo:routepoint_id>1633123867</swisstopo:routepoint_id>
				</extensions>
			</trkpt>
			<trkpt lat="47.2037378796" lon="7.5376763710">
				<ele>433.1</ele>
				<time>2021-04-12T10:47:17+02:00</time>
				<extensions>
					<swisstopo:routepoint_id>924340362</swisstopo:routepoint_id>
				</extensions>
			</trkpt>
			<trkpt lat="47.2037762884" lon="7.5377485001">
				<ele>433.3</ele>
				<time>2021-04-12T10:47:18+02:00</time>
				<extensions>
					<swisstopo:routepoint_id>491761736</swisstopo:routepoint_id>
				</extensions>
			</trkpt>
			<trkpt lat="47.2038122214" lon="7.5378290259">
				<ele>433.5</ele>
				<time>2021-04-12T10:47:19+02:00</time>
				<extensions>
					<swisstopo:routepoint_id>1522423296</swisstopo:routepoint_id>
				</extensions>
			</trkpt>
			<trkpt lat="47.2038445307" lon="7.5379166493">
				<ele>433.7</ele>
				<time>2021-04-12T10:47:20+02:00</time>
				<extensions>
					<swisstopo:routepoint_id>100681867</swisstopo:routepoint_id>
				</extensions>
			</trkpt>
			<trkpt lat="47.2038726880" lon="7.5380094777">
				<ele>433.9</ele>
				<time>2021-04-12T10:47:21+02:00</time>
				<extensions>
					<swisstopo:routepoint_id>2090508480</swisstopo:routepoint_id>
				</extensions>
			</trkpt>
			<trkpt lat="47.2038972294" lon="7.5381061975">
				<ele>434.0</ele>
				<time>2021-04-12T10:47:22+02:00</time>
				<extensions>
					<swisstopo:routepoint_id>196074793</swisstopo:routepoint_id>
				</extensions>
			</trkpt>
			<trkpt lat="47.2039178370" lon="7.5382059985">
				<ele>434.2</ele>
				<time>2021-04-12T10:47:23+02:00</time>
				<extensions>
					<swisstopo:routepoint_id>1189131453</swisstopo:routepoint_id>
				</extensions>
			</trkpt>
			<trkpt lat="47.2039345106" lon="7.5383078921">
				<ele>434.3</ele>
				<time>2021-04-12T10:47:24+02:00</time>
				<extensions>
					<swisstopo:routepoint_id>1249511589</swisstopo:routepoint_id>
				</extensions>
			</trkpt>
			<trkpt lat="47.2039476088" lon="7.5384100502">
				<ele>434.4</ele>
				<time>2021-04-12T10:47:25+02:00</time>
				<extensions>
					<swisstopo:routepoint_id>298692310</swisstopo:routepoint_id>
				</extensions>
			</trkpt>
			<trkpt lat="47.2039576658" lon="7.5385135380">
				<ele>434.4</ele>
				<time>2021-04-12T10:47:26+02:00</time>
				<extensions>
					<swisstopo:routepoint_id>1452371131</swisstopo:routepoint_id>
				</extensions>
			</trkpt>
			<trkpt lat="47.2039653755" lon="7.5386179459">
				<ele>434.5</ele>
				<time>2021-04-12T10:47:27+02:00</time>
				<extensions>
					<swisstopo:routepoint_id>1702466915</swisstopo:routepoint_id>
				</extensions>
			</trkpt>
			<trkpt lat="47.2039715600" lon="7.5387218326">
				<ele>434.5</ele>
				<time>2021-04-12T10:47:28+02:00</time>
				<extensions>
					<swisstopo:routepoint_id>289327777</swisstopo:routepoint_id>
				</extensions>
			</trkpt>
			<trkpt lat="47.2039757826" lon="7.5388220772">
				<ele>434.5</ele>
				<time>2021-04-12T10:47:29+02:00</time>
				<extensions>
					<swisstopo:routepoint_id>828971231</swisstopo:routepoint_id>
				</extensions>
			</trkpt>
			<trkpt lat="47.2039782739" lon="7.5389135951">
				<ele>434.5</ele>
				<time>2021-04-12T10:47:30+02:00</time>
				<extensions>
					<swisstopo:routepoint_id>1793061328</swisstopo:routepoint_id>
				</extensions>
			</trkpt>
			<trkpt lat="47.2039794786" lon="7.5389914908">
				<ele>434.5</ele>
				<time>2021-04-12T10:47:31+02:00</time>
				<extensions>
					<swisstopo:routepoint_id>343721345</swisstopo:routepoint_id>
				</extensions>
			</trkpt>
			<trkpt lat="47.2039793930" lon="7.5390518679">
				<ele>434.5</ele>
				<time>2021-04-12T10:47:32+02:00</time>
				<extensions>
					<swisstopo:routepoint_id>193634985</swisstopo:routepoint_id>
				</extensions>
			</trkpt>
			<trkpt lat="47.2039785267" lon="7.5390943047">
				<ele>434.5</ele>
				<time>2021-04-12T10:47:33+02:00</time>
				<extensions>
					<swisstopo:routepoint_id>985467690</swisstopo:routepoint_id>
				</extensions>
			</trkpt>
			<trkpt lat="47.2039772715" lon="7.5391215882">
				<ele>434.4</ele>
				<time>2021-04-12T10:47:34+02:00</time>
				<extensions>
					<swisstopo:routepoint_id>1361580166</swisstopo:routepoint_id>
				</extensions>
			</trkpt>
			<trkpt lat="47.2039751506" lon="7.5391367471">
				<ele>434.4</ele>
				<time>2021-04-12T10:47:35+02:00</time>
				<extensions>
					<swisstopo:routepoint_id>492107530</swisstopo:routepoint_id>
				</extensions>
			</trkpt>
			<trkpt lat="47.2039725397" lon="7.5391422326">
				<ele>434.4</ele>
				<time>2021-04-12T10:47:36+02:00</time>
				<extensions>
					<swisstopo:routepoint_id>891732113</swisstopo:routepoint_id>
				</extensions>
			</trkpt>
			<trkpt lat="47.2039696815" lon="7.5391402498">
				<ele>434.3</ele>
				<time>2021-04-12T10:47:37+02:00</time>
				<extensions>
					<swisstopo:routepoint_id>53250778</swisstopo:routepoint_id>
				</extensions>
			</trkpt>
			<trkpt lat="47.2039668588" lon="7.5391330085">
				<ele>434.3</ele>
				<time>2021-04-12T10:47:38+02:00</time>
				<extensions>
					<swisstopo:routepoint_id>1632628694</swisstopo:routepoint_id>
				</extensions>
			</trkpt>
			<trkpt lat="47.2039642104" lon="7.5391220780">
				<ele>434.2</ele>
				<time>2021-04-12T10:47:39+02:00</time>
				<extensions>
					<swisstopo:routepoint_id>1191902339</swisstopo:routepoint_id>
				</extensions>
			</trkpt>
			<trkpt lat="47.2039616618" lon="7.5391088278">
				<ele>434.2</ele>
				<time>2021-04-12T10:47:40+02:00</time>
				<extensions>
					<swisstopo:routepoint_id>575152357</swisstopo:routepoint_id>
				</extensions>
			</trkpt>
			<trkpt lat="47.2039592960" lon="7.5390944804">
				<ele>434.1</ele>
				<time>2021-04-12T10:47:41+02:00</time>
				<extensions>
					<swisstopo:routepoint_id>761768952</swisstopo:routepoint_id>
				</extensions>
			</trkpt>
			<trkpt lat="47.2039572085" lon="7.5390798805">
				<ele>434.0</ele>
				<time>2021-04-12T10:47:42+02:00</time>
				<extensions>
					<swisstopo:routepoint_id>1900756497</swisstopo:routepoint_id>
				</extensions>
			</trkpt>
			<trkpt lat="47.2039555174" lon="7.5390662889">
				<ele>434.0</ele>
				<time>2021-04-12T10:47:43+02:00</time>
				<extensions>
					<swisstopo:routepoint_id>47712307</swisstopo:routepoint_id>
				</extensions>
			</trkpt>
			<trkpt lat="47.2039540630" lon="7.5390581762">
				<ele>433.9</ele>
				<time>2021-04-12T10:47:44+02:00</time>
				<extensions>
					<swisstopo:routepoint_id>889343418</swisstopo:routepoint_id>
				</extensions>
			</trkpt>
			<trkpt lat="47.2039534099" lon="7.5390603825">
				<ele>433.9</ele>
				<time>2021-04-12T10:47:45+02:00</time>
				<extensions>
					<swisstopo:routepoint_id>708643206</swisstopo:routepoint_id>
				</extensions>
			</trkpt>
			<trkpt lat="47.2039538906" lon="7.5390765145">
				<ele>433.8</ele>
				<time>2021-04-12T10:47:46+02:00</time>
				<extensions>
					<swisstopo:routepoint_id>222056980</swisstopo:routepoint_id>
				</extensions>
			</trkpt>
			<trkpt lat="47.2039559141" lon="7.5391084742">
				<ele>433.9</ele>
				<time>2021-04-12T10:47:47+02:00</time>
				<extensions>
					<swisstopo:routepoint_id>1932568021</swisstopo:routepoint_id>
				</extensions>
			</trkpt>
			<trkpt lat="47.2039593220" lon="7.5391570999">
				<ele>433.9</ele>
				<time>2021-04-12T10:47:48+02:00</time>
				<extensions>
					<swisstopo:routepoint_id>2128051719</swisstopo:routepoint_id>
				</extensions>
			</trkpt>
			<trkpt lat="47.2039637892" lon="7.5392230299">
				<ele>433.9</ele>
				<time>2021-04-12T10:47:49+02:00</time>
				<extensions>
					<swisstopo:routepoint_id>1972584095</swisstopo:routepoint_id>
				</extensions>
			</trkpt>
			<trkpt lat="47.2039706874" lon="7.5393043687">
				<ele>433.9</ele>
				<time>2021-04-12T10:47:50+02:00</time>
				<extensions>
					<swisstopo:routepoint_id>368342279</swisstopo:routepoint_id>
				</extensions>
			</trkpt>
			<trkpt lat="47.2039808775" lon="7.5393980340">
				<ele>434.0</ele>
				<time>2021-04-12T10:47:51+02:00</time>
				<extensions>
					<swisstopo:routepoint_id>1680812499</swisstopo:routepoint_id>
				</extensions>
			</trkpt>
			<trkpt lat="47.2039938687" lon="7.5395014832">
				<ele>434.1</ele>
				<time>2021-04-12T10:47:52+02:00</time>
				<extensions>
					<swisstopo:routepoint_id>1415778055</swisstopo:routepoint_id>
				</extensions>
			</trkpt>
			<trkpt lat="47.2040093707" lon="7.5396131713">
				<ele>434.2</ele>
				<time>2021-04-12T10:47:53+02:00</time>
				<extensions>
					<swisstopo:routepoint_id>862961625</swisstopo:routepoint_id>
				</extensions>
			</trkpt>
			<trkpt lat="47.2040267798" lon="7.5397321757">
				<ele>434.3</ele>
				<time>2021-04-12T10:47:54+02:00</time>
				<extensions>
					<swisstopo:routepoint_id>1838963184</swisstopo:routepoint_id>
				</extensions>
			</trkpt>
			<trkpt lat="47.2040450492" lon="7.5398579256">
				<ele>434.4</ele>
				<time>2021-04-12T10:47:55+02:00</time>
				<extensions>
					<swisstopo:routepoint_id>869585864</swisstopo:routepoint_id>
				</extensions>
			</trkpt>
			<trkpt lat="47.2040637086" lon="7.5399899429">
				<ele>434.4</ele>
				<time>2021-04-12T10:47:56+02:00</time>
				<extensions>
					<swisstopo:routepoint_id>1503398413</swisstopo:routepoint_id>
				</extensions>
			</trkpt>
			<trkpt lat="47.2040824471" lon="7.5401271375">
				<ele>434.5</ele>
				<time>2021-04-12T10:47:57+02:00</time>
				<extensions>
					<swisstopo:routepoint_id>324536689</swisstopo:routepoint_id>
				</extensions>
			</trkpt>
			<trkpt lat="47.2041012857" lon="7.5402676140">
				<ele>434.6</ele>
				<time>2021-04-12T10:47:58+02:00</time>
				<extensions>
					<swisstopo:routepoint_id>2027152290</swisstopo:routepoint_id>
				</extensions>
			</trkpt>
			<trkpt lat="47.2041198984" lon="7.5404101073">
				<ele>434.6</ele>
				<time>2021-04-12T10:47:59+02:00</time>
				<extensions>
					<swisstopo:routepoint_id>520478375</swisstopo:routepoint_id>
				</extensions>
			</trkpt>
			<trkpt lat="47.2041386370" lon="7.5405538969">
				<ele>434.7</ele>
				<time>2021-04-12T10:48:00+02:00</time>
				<extensions>
					<swisstopo:routepoint_id>979154394</swisstopo:routepoint_id>
				</extensions>
			</trkpt>
			<trkpt lat="47.2041578571" lon="7.5406976227">
				<ele>434.8</ele>
				<time>2021-04-12T10:48:01+02:00</time>
				<extensions>
					<swisstopo:routepoint_id>480712997</swisstopo:routepoint_id>
				</extensions>
			</trkpt>
			<trkpt lat="47.2041768637" lon="7.5408410388">
				<ele>434.9</ele>
				<time>2021-04-12T10:48:02+02:00</time>
				<extensions>
					<swisstopo:routepoint_id>509860565</swisstopo:routepoint_id>
				</extensions>
			</trkpt>
			<trkpt lat="47.2041950586" lon="7.5409822537">
				<ele>434.9</ele>
				<time>2021-04-12T10:48:03+02:00</time>
				<extensions>
					<swisstopo:routepoint_id>766764425</swisstopo:routepoint_id>
				</extensions>
			</trkpt>
			<trkpt lat="47.2042114353" lon="7.5411198524">
				<ele>434.9</ele>
				<time>2021-04-12T10:48:04+02:00</time>
				<extensions>
					<swisstopo:routepoint_id>2107808975</swisstopo:routepoint_id>
				</extensions>
			</trkpt>
			<trkpt lat="47.2042273093" lon="7.5412531521">
				<ele>434.9</ele>
				<time>2021-04-12T10:48:05+02:00</time>
				<extensions>
					<swisstopo:routepoint_id>1055201913</swisstopo:routepoint_id>
				</extensions>
			</trkpt>
			<trkpt lat="47.2042430877" lon="7.5413811118">
				<ele>434.9</ele>
				<time>2021-04-12T10:48:06+02:00</time>
				<extensions>
					<swisstopo:routepoint_id>858594865</swisstopo:routepoint_id>
				</extensions>
			</trkpt>
			<trkpt lat="47.2042589568" lon="7.5415028185">
				<ele>434.9</ele>
				<time>2021-04-12T10:48:07+02:00</time>
				<extensions>
					<swisstopo:routepoint_id>1461271862</swisstopo:routepoint_id>
				</extensions>
			</trkpt>
			<trkpt lat="47.2042756733" lon="7.5416172185">
				<ele>434.9</ele>
				<time>2021-04-12T10:48:08+02:00</time>
				<extensions>
					<swisstopo:routepoint_id>973197542</swisstopo:routepoint_id>
				</extensions>
			</trkpt>
			<trkpt lat="47.2042942120" lon="7.5417235325">
				<ele>434.9</ele>
				<time>2021-04-12T10:48:09+02:00</time>
				<extensions>
					<swisstopo:routepoint_id>1295632842</swisstopo:routepoint_id>
				</extensions>
			</trkpt>
			<trkpt lat="47.2043134393" lon="7.5418207635">
				<ele>434.9</ele>
				<time>2021-04-12T10:48:10+02:00</time>
				<extensions>
					<swisstopo:routepoint_id>216994914</swisstopo:routepoint_id>
				</extensions>
			</trkpt>
			<trkpt lat="47.2043303058" lon="7.5419070291">
				<ele>434.9</ele>
				<time>2021-04-12T10:48:11+02:00</time>
				<extensions>
					<swisstopo:routepoint_id>606286992</swisstopo:routepoint_id>
				</extensions>
			</trkpt>
			<trkpt lat="47.2043449990" lon="7.5419818419">
				<ele>434.8</ele>
				<time>2021-04-12T10:48:12+02:00</time>
				<extensions>
					<swisstopo:routepoint_id>55569529</swisstopo:routepoint_id>
				</extensions>
			</trkpt>
			<trkpt lat="47.2043580069" lon="7.5420441829">
				<ele>434.7</ele>
				<time>2021-04-12T10:48:13+02:00</time>
				<extensions>
					<swisstopo:routepoint_id>1949171105</swisstopo:routepoint_id>
				</extensions>
			</trkpt>
			<trkpt lat="47.2043708375" lon="7.5420916715">
				<ele>434.6</ele>
				<time>2021-04-12T10:48:14+02:00</time>
				<extensions>
					<swisstopo:routepoint_id>2003210397</swisstopo:routepoint_id>
				</extensions>
			</trkpt>
			<trkpt lat="47.2043836066" lon="7.5421244902">
				<ele>434.4</ele>
				<time>2021-04-12T10:48:15+02:00</time>
				<extensions>
					<swisstopo:routepoint_id>1856008360</swisstopo:routepoint_id>
				</extensions>
			</trkpt>
			<trkpt lat="47.2043953964" lon="7.5421439926">
				<ele>434.3</ele>
				<time>2021-04-12T10:48:16+02:00</time>
				<extensions>
					<swisstopo:routepoint_id>1732533845</swisstopo:routepoint_id>
				</extensions>
			</trkpt>
			<trkpt lat="47.2044047991" lon="7.5421523763">
				<ele>434.1</ele>
				<time>2021-04-12T10:48:17+02:00</time>
				<extensions>
					<swisstopo:routepoint_id>965563242</swisstopo:routepoint_id>
				</extensions>
			</trkpt>
			<trkpt lat="47.2044116340" lon="7.5421511919">
				<ele>434.0</ele>
				<time>2021-04-12T10:48:18+02:00</time>
				<extensions>
					<swisstopo:routepoint_id>1834971562</swisstopo:routepoint_id>
				</extensions>
			</trkpt>
			<trkpt lat="47.2044162861" lon="7.5421430126">
				<ele>433.8</ele>
				<time>2021-04-12T10:48:19+02:00</time>
				<extensions>
					<swisstopo:routepoint_id>354387967</swisstopo:routepoint_id>
				</extensions>
			</trkpt>
			<trkpt lat="47.2044190810" lon="7.5421300362">
				<ele>433.7</ele>
				<time>2021-04-12T10:48:20+02:00</time>
				<extensions>
					<swisstopo:routepoint_id>1226408238</swisstopo:routepoint_id>
				</extensions>
			</trkpt>
			<trkpt lat="47.2044205393" lon="7.5421142377">
				<ele>433.5</ele>
				<time>2021-04-12T10:48:21+02:00</time>
				<extensions>
					<swisstopo:routepoint_id>695212160</swisstopo:routepoint_id>
				</extensions>
			</trkpt>
			<trkpt lat="47.2044207470" lon="7.5420963051">
				<ele>433.4</ele>
				<time>2021-04-12T10:48:22+02:00</time>
				<extensions>
					<swisstopo:routepoint_id>2119733440</swisstopo:routepoint_id>
				</extensions>
			</trkpt>
			<trkpt lat="47.2044198007" lon="7.5420774657">
				<ele>433.2</ele>
				<time>2021-04-12T10:48:23+02:00</time>
				<extensions>
					<swisstopo:routepoint_id>1753705997</swisstopo:routepoint_id>
				</extensions>
			</trkpt>
			<trkpt lat="47.2044180334" lon="7.5420585944">
				<ele>433.0</ele>
				<time>2021-04-12T10:48:24+02:00</time>
				<extensions>
					<swisstopo:routepoint_id>323636504</swisstopo:routepoint_id>
				</extensions>
			</trkpt>
			<trkpt lat="47.2044157222" lon="7.5420404732">
				<ele>432.8</ele>
				<time>2021-04-12T10:48:25+02:00</time>
				<extensions>
					<swisstopo:routepoint_id>1930128524</swisstopo:routepoint_id>
				</extensions>
			</trkpt>
			<trkpt lat="47.2044130073" lon="7.5420238936">
				<ele>432.6</ele>
				<time>2021-04-12T10:48:26+02:00</time>
				<extensions>
					<swisstopo:routepoint_id>1929614933</swisstopo:routepoint_id>
				</extensions>
			</trkpt>
			<trkpt lat="47.2044101691" lon="7.5420092517">
				<ele>432.5</ele>
				<time>2021-04-12T10:48:27+02:00</time>
				<extensions>
					<swisstopo:routepoint_id>1887625584</swisstopo:routepoint_id>
				</extensions>
			</trkpt>
			<trkpt lat="47.2044073298" lon="7.5419968542">
				<ele>432.3</ele>
				<time>2021-04-12T10:48:28+02:00</time>
				<extensions>
					<swisstopo:routepoint_id>547273157</swisstopo:routepoint_id>
				</extensions>
			</trkpt>
			<trkpt lat="47.2044045031" lon="7.5419866615">
				<ele>432.1</ele>
				<time>2021-04-12T10:48:29+02:00</time>
				<extensions>
					<swisstopo:routepoint_id>347489598</swisstopo:routepoint_id>
				</extensions>
			</trkpt>
			<trkpt lat="47.2044017986" lon="7.5419785391">
				<ele>432.0</ele>
				<time>2021-04-12T10:48:30+02:00</time>
				<extensions>
					<swisstopo:routepoint_id>1249637393</swisstopo:routepoint_id>
				</extensions>
			</trkpt>
			<trkpt lat="47.2043993448" lon="7.5419723332">
				<ele>431.9</ele>
				<time>2021-04-12T10:48:31+02:00</time>
				<extensions>
					<swisstopo:routepoint_id>265596491</swisstopo:routepoint_id>
				</extensions>
			</trkpt>
			<trkpt lat="47.2043971836" lon="7.5419677052">
				<ele>431.8</ele>
				<time>2021-04-12T10:48:32+02:00</time>
				<extensions>
					<swisstopo:routepoint_id>1409205771</swisstopo:routepoint_id>
				</extensions>
			</trkpt>
			<trkpt lat="47.2043952750" lon="7.5419643485">
				<ele>431.8</ele>
				<time>2021-04-12T10:48:33+02:00</time>
				<extensions>
					<swisstopo:routepoint_id>2071734081</swisstopo:routepoint_id>
				</extensions>
			</trkpt>
			<trkpt lat="47.2043935664" lon="7.5419620268">
				<ele>431.8</ele>
				<time>2021-04-12T10:48:34+02:00</time>
				<extensions>
					<swisstopo:routepoint_id>334846909</swisstopo:routepoint_id>
				</extensions>
			</trkpt>
			<trkpt lat="47.2043920612" lon="7.5419605285">
				<ele>431.8</ele>
				<time>2021-04-12T10:48:35+02:00</time>
				<extensions>
					<swisstopo:routepoint_id>1364844423</swisstopo:routepoint_id>
				</extensions>
			</trkpt>
			<trkpt lat="47.2043908264" lon="7.5419597272">
				<ele>431.8</ele>
				<time>2021-04-12T10:48:36+02:00</time>
				<extensions>
					<swisstopo:routepoint_id>1667383754</swisstopo:routepoint_id>
				</extensions>
			</trkpt>
			<trkpt lat="47.2043899380" lon="7.5419594774">
				<ele>431.8</ele>
				<time>2021-04-12T10:48:37+02:00</time>
				<extensions>
					<swisstopo:routepoint_id>1204643775</swisstopo:routepoint_id>
				</extensions>
			</trkpt>
			<trkpt lat="47.2043893295" lon="7.5419595341">
				<ele>431.8</ele>
				<time>2021-04-12T10:48:38+02:00</time>
				<extensions>
					<swisstopo:routepoint_id>2119586156</swisstopo:routepoint_id>
				</extensions>
			</trkpt>
			<trkpt lat="47.2043888920" lon="7.5419598606">
				<ele>431.9</ele>
				<time>2021-04-12T10:48:39+02:00</time>
				<extensions>
					<swisstopo:routepoint_id>1425787456</swisstopo:routepoint_id>
				</extensions>
			</trkpt>
			<trkpt lat="47.2043885664" lon="7.5419604277">
				<ele>431.9</ele>
				<time>2021-04-12T10:48:40+02:00</time>
				<extensions>
					<swisstopo:routepoint_id>1587239766</swisstopo:routepoint_id>
				</extensions>
			</trkpt>
			<trkpt lat="47.2043882755" lon="7.5419610422">
				<ele>431.9</ele>
				<time>2021-04-12T10:48:41+02:00</time>
				<extensions>
					<swisstopo:routepoint_id>696884128</swisstopo:routepoint_id>
				</extensions>
			</trkpt>
			<trkpt lat="47.2043880160" lon="7.5419617580">
				<ele>431.9</ele>
				<time>2021-04-12T10:48:42+02:00</time>
				<extensions>
					<swisstopo:routepoint_id>155728558</swisstopo:routepoint_id>
				</extensions>
			</trkpt>
			<trkpt lat="47.2043877682" lon="7.5419625276">
				<ele>432.0</ele>
				<time>2021-04-12T10:48:43+02:00</time>
				<extensions>
					<swisstopo:routepoint_id>1694792260</swisstopo:routepoint_id>
				</extensions>
			</trkpt>
			<trkpt lat="47.2043875309" lon="7.5419633529">
				<ele>432.0</ele>
				<time>2021-04-12T10:48:44+02:00</time>
				<extensions>
					<swisstopo:routepoint_id>150420012</swisstopo:routepoint_id>
				</extensions>
			</trkpt>
			<trkpt lat="47.2043872966" lon="7.5419641745">
				<ele>432.0</ele>
				<time>2021-04-12T10:48:45+02:00</time>
				<extensions>
					<swisstopo:routepoint_id>520889165</swisstopo:routepoint_id>
				</extensions>
			</trkpt>
			<trkpt lat="47.2043870306" lon="7.5419649878">
				<ele>431.9</ele>
				<time>2021-04-12T10:48:46+02:00</time>
				<extensions>
					<swisstopo:routepoint_id>1440850983</swisstopo:routepoint_id>
				</extensions>
			</trkpt>
			<trkpt lat="47.2043867100" lon="7.5419657656">
				<ele>431.9</ele>
				<time>2021-04-12T10:48:47+02:00</time>
				<extensions>
					<swisstopo:routepoint_id>1356867709</swisstopo:routepoint_id>
				</extensions>
			</trkpt>
			<trkpt lat="47.2043864314" lon="7.5419664325">
				<ele>431.8</ele>
				<time>2021-04-12T10:48:48+02:00</time>
				<extensions>
					<swisstopo:routepoint_id>746737670</swisstopo:routepoint_id>
				</extensions>
			</trkpt>
			<trkpt lat="47.2043861499" lon="7.5419669522">
				<ele>431.7</ele>
				<time>2021-04-12T10:48:49+02:00</time>
				<extensions>
					<swisstopo:routepoint_id>525586622</swisstopo:routepoint_id>
				</extensions>
			</trkpt>
			<trkpt lat="47.2043858461" lon="7.5419673339">
				<ele>431.6</ele>
				<time>2021-04-12T10:48:50+02:00</time>
				<extensions>
					<swisstopo:routepoint_id>934115843</swisstopo:routepoint_id>
				</extensions>
			</trkpt>
			<trkpt lat="47.2043856440" lon="7.5419677048">
				<ele>431.5</ele>
				<time>2021-04-12T10:48:51+02:00</time>
				<extensions>
					<swisstopo:routepoint_id>1579513731</swisstopo:routepoint_id>
				</extensions>
			</trkpt>
			<trkpt lat="47.2043855495" lon="7.5419681313">
				<ele>431.3</ele>
				<time>2021-04-12T10:48:52+02:00</time>
				<extensions>
					<swisstopo:routepoint_id>1841916350</swisstopo:routepoint_id>
				</extensions>
			</trkpt>
			<trkpt lat="47.2043856978" lon="7.5419684423">
				<ele>431.2</ele>
				<time>2021-04-12T10:48:53+02:00</time>
				<extensions>
					<swisstopo:routepoint_id>1111322945</swisstopo:routepoint_id>
				</extensions>
			</trkpt>
			<trkpt lat="47.2043860849" lon="7.5419685072">
				<ele>431.1</ele>
				<time>2021-04-12T10:48:54+02:00</time>
				<extensions>
					<swisstopo:routepoint_id>1339458656</swisstopo:routepoint_id>
				</extensions>
			</trkpt>
			<trkpt lat="47.2043870160" lon="7.5419691339">
				<ele>431.1</ele>
				<time>2021-04-12T10:48:55+02:00</time>
				<extensions>
					<swisstopo:routepoint_id>210559891</swisstopo:routepoint_id>
				</extensions>
			</trkpt>
			<trkpt lat="47.2043892541" lon="7.5419716838">
				<ele>431.1</ele>
				<time>2021-04-12T10:48:56+02:00</time>
				<extensions>
					<swisstopo:routepoint_id>1974521428</swisstopo:routepoint_id>
				</extensions>
			</trkpt>
			<trkpt lat="47.2043935542" lon="7.5419775055">
				<ele>431.0</ele>
				<time>2021-04-12T10:48:57+02:00</time>
				<extensions>
					<swisstopo:routepoint_id>716843305</swisstopo:routepoint_id>
				</extensions>
			</trkpt>
			<trkpt lat="47.2044010225" lon="7.5419879438">
				<ele>431.0</ele>
				<time>2021-04-12T10:48:58+02:00</time>
				<extensions>
					<swisstopo:routepoint_id>602167465</swisstopo:routepoint_id>
				</extensions>
			</trkpt>
			<trkpt lat="47.2044126359" lon="7.5420039616">
				<ele>431.0</ele>
				<time>2021-04-12T10:48:59+02:00</time>
				<extensions>
					<swisstopo:routepoint_id>1685639591</swisstopo:routepoint_id>
				</extensions>
			</trkpt>
			<trkpt lat="47.2044286736" lon="7.5420261005">
				<ele>431.0</ele>
				<time>2021-04-12T10:49:00+02:00</time>
				<extensions>
					<swisstopo:routepoint_id>940334713</swisstopo:routepoint_id>
				</extensions>
			</trkpt>
			<trkpt lat="47.2044486965" lon="7.5420541885">
				<ele>431.0</ele>
				<time>2021-04-12T10:49:01+02:00</time>
				<extensions>
					<swisstopo:routepoint_id>873363118</swisstopo:routepoint_id>
				</extensions>
			</trkpt>
			<trkpt lat="47.2044712265" lon="7.5420879309">
				<ele>431.0</ele>
				<time>2021-04-12T10:49:02+02:00</time>
				<extensions>
					<swisstopo:routepoint_id>563196981</swisstopo:routepoint_id>
				</extensions>
			</trkpt>
			<trkpt lat="47.2044941483" lon="7.5421263113">
				<ele>431.0</ele>
				<time>2021-04-12T10:49:03+02:00</time>
				<extensions>
					<swisstopo:routepoint_id>1691227338</swisstopo:routepoint_id>
				</extensions>
			</trkpt>
			<trkpt lat="47.2045157012" lon="7.5421680170">
				<ele>431.0</ele>
				<time>2021-04-12T10:49:04+02:00</time>
				<extensions>
					<swisstopo:routepoint_id>364318074</swisstopo:routepoint_id>
				</extensions>
			</trkpt>
			<trkpt lat="47.2045349734" lon="7.5422110438">
				<ele>431.0</ele>
				<time>2021-04-12T10:49:05+02:00</time>
				<extensions>
					<swisstopo:routepoint_id>617992121</swisstopo:routepoint_id>
				</extensions>
			</trkpt>
			<trkpt lat="47.2045515251" lon="7.5422533315">
				<ele>431.0</ele>
				<time>2021-04-12T10:49:06+02:00</time>
				<extensions>
					<swisstopo:routepoint_id>1362660755</swisstopo:routepoint_id>
				</extensions>
			</trkpt>
			<trkpt lat="47.2045647867" lon="7.5422930146">
				<ele>431.0</ele>
				<time>2021-04-12T10:49:07+02:00</time>
				<extensions>
					<swisstopo:routepoint_id>1473697677</swisstopo:routepoint_id>
				</extensions>
			</trkpt>
			<trkpt lat="47.2045752146" lon="7.5423279199">
				<ele>431.0</ele>
				<time>2021-04-12T10:49:08+02:00</time>
				<extensions>
					<swisstopo:routepoint_id>1507956488</swisstopo:routepoint_id>
				</extensions>
			</trkpt>
			<trkpt lat="47.2045830837" lon="7.5423567519">
				<ele>431.0</ele>
				<time>2021-04-12T10:49:09+02:00</time>
				<extensions>
					<swisstopo:routepoint_id>1770175569</swisstopo:routepoint_id>
				</extensions>
			</trkpt>
			<trkpt lat="47.2045886358" lon="7.5423789520">
				<ele>431.0</ele>
				<time>2021-04-12T10:49:10+02:00</time>
				<extensions>
					<swisstopo:routepoint_id>102342645</swisstopo:routepoint_id>
				</extensions>
			</trkpt>
			<trkpt lat="47.2045922362" lon="7.5423949116">
				<ele>431.0</ele>
				<time>2021-04-12T10:49:11+02:00</time>
				<extensions>
					<swisstopo:routepoint_id>2085916915</swisstopo:routepoint_id>
				</extensions>
			</trkpt>
			<trkpt lat="47.2045942934" lon="7.5424055036">
				<ele>431.0</ele>
				<time>2021-04-12T10:49:12+02:00</time>
				<extensions>
					<swisstopo:routepoint_id>335053130</swisstopo:routepoint_id>
				</extensions>
			</trkpt>
			<trkpt lat="47.2045950639" lon="7.5424116783">
				<ele>431.0</ele>
				<time>2021-04-12T10:49:13+02:00</time>
				<extensions>
					<swisstopo:routepoint_id>535833476</swisstopo:routepoint_id>
				</extensions>
			</trkpt>
			<trkpt lat="47.2045948365" lon="7.5424143895">
				<ele>431.0</ele>
				<time>2021-04-12T10:49:14+02:00</time>
				<extensions>
					<swisstopo:routepoint_id>1354299261</swisstopo:routepoint_id>
				</extensions>
			</trkpt>
			<trkpt lat="47.2045938531" lon="7.5424143716">
				<ele>431.0</ele>
				<time>2021-04-12T10:49:15+02:00</time>
				<extensions>
					<swisstopo:routepoint_id>528505074</swisstopo:routepoint_id>
				</extensions>
			</trkpt>
			<trkpt lat="47.2045924366" lon="7.5424122989">
				<ele>431.0</ele>
				<time>2021-04-12T10:49:16+02:00</time>
				<extensions>
					<swisstopo:routepoint_id>592414726</swisstopo:routepoint_id>
				</extensions>
			</trkpt>
			<trkpt lat="47.2045907993" lon="7.5424090345">
				<ele>430.9</ele>
				<time>2021-04-12T10:49:17+02:00</time>
				<extensions>
					<swisstopo:routepoint_id>980112390</swisstopo:routepoint_id>
				</extensions>
			</trkpt>
			<trkpt lat="47.2045890019" lon="7.5424050484">
				<ele>430.9</ele>
				<time>2021-04-12T10:49:18+02:00</time>
				<extensions>
					<swisstopo:routepoint_id>1549366240</swisstopo:routepoint_id>
				</extensions>
			</trkpt>
			<trkpt lat="47.2045871870" lon="7.5424007094">
				<ele>430.9</ele>
				<time>2021-04-12T10:49:19+02:00</time>
				<extensions>
					<swisstopo:routepoint_id>1959175805</swisstopo:routepoint_id>
				</extensions>
			</trkpt>
			<trkpt lat="47.2045854675" lon="7.5423964627">
				<ele>430.9</ele>
				<time>2021-04-12T10:49:20+02:00</time>
				<extensions>
					<swisstopo:routepoint_id>500995184</swisstopo:routepoint_id>
				</extensions>
			</trkpt>
			<trkpt lat="47.2045840147" lon="7.5423940375">
				<ele>430.9</ele>
				<time>2021-04-12T10:49:21+02:00</time>
				<extensions>
					<swisstopo:routepoint_id>2090161248</swisstopo:routepoint_id>
				</extensions>
			</trkpt>
			<trkpt lat="47.2045833151" lon="7.5423969317">
				<ele>430.9</ele>
				<time>2021-04-12T10:49:22+02:00</time>
				<extensions>
					<swisstopo:routepoint_id>802597510</swisstopo:routepoint_id>
				</extensions>
			</trkpt>
			<trkpt lat="47.2045841650" lon="7.5424089169">
				<ele>430.9</ele>
				<time>2021-04-12T10:49:23+02:00</time>
				<extensions>
					<swisstopo:routepoint_id>911563763</swisstopo:routepoint_id>
				</extensions>
			</trkpt>
			<trkpt lat="47.2045877342" lon="7.5424321780">
				<ele>430.9</ele>
				<time>2021-04-12T10:49:24+02:00</time>
				<extensions>
					<swisstopo:routepoint_id>503827043</swisstopo:routepoint_id>
				</extensions>
			</trkpt>
			<trkpt lat="47.2045963074" lon="7.5424664993">
				<ele>430.9</ele>
				<time>2021-04-12T10:49:25+02:00</time>
				<extensions>
					<swisstopo:routepoint_id>293091580</swisstopo:routepoint_id>
				</extensions>
			</trkpt>
			<trkpt lat="47.2046127313" lon="7.5425088171">
				<ele>430.9</ele>
				<time>2021-04-12T10:49:26+02:00</time>
				<extensions>
					<swisstopo:routepoint_id>1810182489</swisstopo:routepoint_id>
				</extensions>
			</trkpt>
			<trkpt lat="47.2046393498" lon="7.5425533544">
				<ele>430.9</ele>
				<time>2021-04-12T10:49:27+02:00</time>
				<extensions>
					<swisstopo:routepoint_id>336265574</swisstopo:routepoint_id>
				</extensions>
			</trkpt>
			<trkpt lat="47.2046771885" lon="7.5425939624">
				<ele>430.9</ele>
				<time>2021-04-12T10:49:28+02:00</time>
				<extensions>
					<swisstopo:routepoint_id>1586026961</swisstopo:routepoint_id>
				</extensions>
			</trkpt>
			<trkpt lat="47.2047259991" lon="7.5426248087">
				<ele>430.9</ele>
				<time>2021-04-12T10:49:29+02:00</time>
				<extensions>
					<swisstopo:routepoint_id>1788106963</swisstopo:routepoint_id>
				</extensions>
			</trkpt>
			<trkpt lat="47.2047854486" lon="7.5426439176">
				<ele>430.9</ele>
				<time>2021-04-12T10:49:30+02:00</time>
				<extensions>
					<swisstopo:routepoint_id>827571023</swisstopo:routepoint_id>
				</extensions>
			</trkpt>
			<trkpt lat="47.2048544364" lon="7.5426517542">
				<ele>431.0</ele>
				<time>2021-04-12T10:49:31+02:00</time>
				<extensions>
					<swisstopo:routepoint_id>1882085589</swisstopo:routepoint_id>
				</extensions>
			</trkpt>
			<trkpt lat="47.2049318983" lon="7.5426495254">
				<ele>431.1</ele>
				<time>2021-04-12T10:49:32+02:00</time>
				<extensions>
					<swisstopo:routepoint_id>1925857660</swisstopo:routepoint_id>
				</extensions>
			</trkpt>
			<trkpt lat="47.2050167764" lon="7.5426394580">
				<ele>431.1</ele>
				<time>2021-04-12T10:49:33+02:00</time>
				<extensions>
					<swisstopo:routepoint_id>1016164036</swisstopo:routepoint_id>
				</extensions>
			</trkpt>
			<trkpt lat="47.2051074682" lon="7.5426231140">
				<ele>431.1</ele>
				<time>2021-04-12T10:49:34+02:00</time>
				<extensions>
					<swisstopo:routepoint_id>1878992108</swisstopo:routepoint_id>
				</extensions>
			</trkpt>
			<trkpt lat="47.2052029011" lon="7.5426014626">
				<ele>431.2</ele>
				<time>2021-04-12T10:49:35+02:00</time>
				<extensions>
					<swisstopo:routepoint_id>1473330021</swisstopo:routepoint_id>
				</extensions>
			</trkpt>
			<trkpt lat="47.2053023500" lon="7.5425756772">
				<ele>431.2</ele>
				<time>2021-04-12T10:49:36+02:00</time>
				<extensions>
					<swisstopo:routepoint_id>1771213037</swisstopo:routepoint_id>
				</extensions>
			</trkpt>
			<trkpt lat="47.2054054464" lon="7.5425464295">
				<ele>431.3</ele>
				<time>2021-04-12T10:49:37+02:00</time>
				<extensions>
					<swisstopo:routepoint_id>359198145</swisstopo:routepoint_id>
				</extensions>
			</trkpt>
			<trkpt lat="47.2055119455" lon="7.5425140366">
				<ele>431.3</ele>
				<time>2021-04-12T10:49:38+02:00</time>
				<extensions>
					<swisstopo:routepoint_id>466691298</swisstopo:routepoint_id>
				</extensions>
			</trkpt>
			<trkpt lat="47.2056210121" lon="7.5424800331">
				<ele>431.4</ele>
				<time>2021-04-12T10:49:39+02:00</time>
				<extensions>
					<swisstopo:routepoint_id>1070366642</swisstopo:routepoint_id>
				</extensions>
			</trkpt>
			<trkpt lat="47.2057317624" lon="7.5424448859">
				<ele>431.5</ele>
				<time>2021-04-12T10:49:40+02:00</time>
				<extensions>
					<swisstopo:routepoint_id>181641175</swisstopo:routepoint_id>
				</extensions>
			</trkpt>
			<trkpt lat="47.2058436308" lon="7.5424093174">
				<ele>431.7</ele>
				<time>2021-04-12T10:49:41+02:00</time>
				<extensions>
					<swisstopo:routepoint_id>1268965838</swisstopo:routepoint_id>
				</extensions>
			</trkpt>
			<trkpt lat="47.2059558399" lon="7.5423727900">
				<ele>432.0</ele>
				<time>2021-04-12T10:49:42+02:00</time>
				<extensions>
					<swisstopo:routepoint_id>848740909</swisstopo:routepoint_id>
				</extensions>
			</trkpt>
			<trkpt lat="47.2060675720" lon="7.5423360771">
				<ele>432.3</ele>
				<time>2021-04-12T10:49:43+02:00</time>
				<extensions>
					<swisstopo:routepoint_id>1202074189</swisstopo:routepoint_id>
				</extensions>
			</trkpt>
			<trkpt lat="47.2061777819" lon="7.5423000655">
				<ele>432.7</ele>
				<time>2021-04-12T10:49:44+02:00</time>
				<extensions>
					<swisstopo:routepoint_id>1882227194</swisstopo:routepoint_id>
				</extensions>
			</trkpt>
			<trkpt lat="47.2062856777" lon="7.5422643543">
				<ele>433.0</ele>
				<time>2021-04-12T10:49:45+02:00</time>
				<extensions>
					<swisstopo:routepoint_id>10845601</swisstopo:routepoint_id>
				</extensions>
			</trkpt>
			<trkpt lat="47.2063909108" lon="7.5422299680">
				<ele>433.4</ele>
				<time>2021-04-12T10:49:46+02:00</time>
				<extensions>
					<swisstopo:routepoint_id>1893389659</swisstopo:routepoint_id>
				</extensions>
			</trkpt>
			<trkpt lat="47.2064934150" lon="7.5421969483">
				<ele>433.7</ele>
				<time>2021-04-12T10:49:47+02:00</time>
				<extensions>
					<swisstopo:routepoint_id>787317567</swisstopo:routepoint_id>
				</extensions>
			</trkpt>
			<trkpt lat="47.2065933222" lon="7.5421658607">
				<ele>434.0</ele>
				<time>2021-04-12T10:49:48+02:00</time>
				<extensions>
					<swisstopo:routepoint_id>1799599402</swisstopo:routepoint_id>
				</extensions>
			</trkpt>
			<trkpt lat="47.2066909901" lon="7.5421369824">
				<ele>434.1</ele>
				<time>2021-04-12T10:49:49+02:00</time>
				<extensions>
					<swisstopo:routepoint_id>707465066</swisstopo:routepoint_id>
				</extensions>
			</trkpt>
			<trkpt lat="47.2067863647" lon="7.5421104696">
				<ele>434.2</ele>
				<time>2021-04-12T10:49:50+02:00</time>
				<extensions>
					<swisstopo:routepoint_id>1895894470</swisstopo:routepoint_id>
				</extensions>
			</trkpt>
			<trkpt lat="47.2068798721" lon="7.5420863679">
				<ele>434.2</ele>
				<time>2021-04-12T10:49:51+02:00</time>
				<extensions>
					<swisstopo:routepoint_id>2083486751</swisstopo:routepoint_id>
				</extensions>
			</trkpt>
			<trkpt lat="47.2069718149" lon="7.5420639846">
				<ele>434.2</ele>
				<time>2021-04-12T10:49:52+02:00</time>
				<extensions>
					<swisstopo:routepoint_id>293476075</swisstopo:routepoint_id>
				</extensions>
			</trkpt>
			<trkpt lat="47.2070624618" lon="7.5420425467">
				<ele>434.0</ele>
				<time>2021-04-12T10:49:53+02:00</time>
				<extensions>
					<swisstopo:routepoint_id>1829939013</swisstopo:routepoint_id>
				</extensions>
			</trkpt>
			<trkpt lat="47.2071518967" lon="7.5420216130">
				<ele>433.8</ele>
				<time>2021-04-12T10:49:54+02:00</time>
				<extensions>
					<swisstopo:routepoint_id>1671682804</swisstopo:routepoint_id>
				</extensions>
			</trkpt>
			<trkpt lat="47.2072406896" lon="7.5420007013">
				<ele>433.6</ele>
				<time>2021-04-12T10:49:55+02:00</time>
				<extensions>
					<swisstopo:routepoint_id>444333127</swisstopo:routepoint_id>
				</extensions>
			</trkpt>
			<trkpt lat="47.2073293480" lon="7.5419803490">
				<ele>433.3</ele>
				<time>2021-04-12T10:49:56+02:00</time>
				<extensions>
					<swisstopo:routepoint_id>1106224870</swisstopo:routepoint_id>
				</extensions>
			</trkpt>
			<trkpt lat="47.2074181051" lon="7.5419603717">
				<ele>432.9</ele>
				<time>2021-04-12T10:49:57+02:00</time>
				<extensions>
					<swisstopo:routepoint_id>1555458011</swisstopo:routepoint_id>
				</extensions>
			</trkpt>
			<trkpt lat="47.2075071993" lon="7.5419403244">
				<ele>432.6</ele>
				<time>2021-04-12T10:49:58+02:00</time>
				<extensions>
					<swisstopo:routepoint_id>1264355946</swisstopo:routepoint_id>
				</extensions>
			</trkpt>
			<trkpt lat="47.2075967234" lon="7.5419206284">
				<ele>432.2</ele>
				<time>2021-04-12T10:49:59+02:00</time>
				<extensions>
					<swisstopo:routepoint_id>679697357</swisstopo:routepoint_id>
				</extensions>
			</trkpt>
			<trkpt lat="47.2076867727" lon="7.5419014157">
				<ele>432.0</ele>
				<time>2021-04-12T10:50:00+02:00</time>
				<extensions>
					<swisstopo:routepoint_id>1207960706</swisstopo:routepoint_id>
				</extensions>
			</trkpt>
			<trkpt lat="47.2077775836" lon="7.5418823971">
				<ele>431.8</ele>
				<time>2021-04-12T10:50:01+02:00</time>
				<extensions>
					<swisstopo:routepoint_id>2032670651</swisstopo:routepoint_id>
				</extensions>
			</trkpt>
			<trkpt lat="47.2078688944" lon="7.5418633757">
				<ele>431.8</ele>
				<time>2021-04-12T10:50:02+02:00</time>
				<extensions>
					<swisstopo:routepoint_id>925774881</swisstopo:routepoint_id>
				</extensions>
			</trkpt>
			<trkpt lat="47.2079606001" lon="7.5418441406">
				<ele>431.9</ele>
				<time>2021-04-12T10:50:03+02:00</time>
				<extensions>
					<swisstopo:routepoint_id>979402452</swisstopo:routepoint_id>
				</extensions>
			</trkpt>
			<trkpt lat="47.2080522962" lon="7.5418245001">
				<ele>432.2</ele>
				<time>2021-04-12T10:50:04+02:00</time>
				<extensions>
					<swisstopo:routepoint_id>354856509</swisstopo:routepoint_id>
				</extensions>
			</trkpt>
			<trkpt lat="47.2081435807" lon="7.5418042563">
				<ele>432.5</ele>
				<time>2021-04-12T10:50:05+02:00</time>
				<extensions>
					<swisstopo:routepoint_id>511259044</swisstopo:routepoint_id>
				</extensions>
			</trkpt>
			<trkpt lat="47.2082339521" lon="7.5417833517">
				<ele>432.9</ele>
				<time>2021-04-12T10:50:06+02:00</time>
				<extensions>
					<swisstopo:routepoint_id>648680861</swisstopo:routepoint_id>
				</extensions>
			</trkpt>
			<trkpt lat="47.2083234259" lon="7.5417624777">
				<ele>433.3</ele>
				<time>2021-04-12T10:50:07+02:00</time>
				<extensions>
					<swisstopo:routepoint_id>1752238655</swisstopo:routepoint_id>
				</extensions>
			</trkpt>
			<trkpt lat="47.2084123824" lon="7.5417407465">
				<ele>433.9</ele>
				<time>2021-04-12T10:50:08+02:00</time>
				<extensions>
					<swisstopo:routepoint_id>1431823274</swisstopo:routepoint_id>
				</extensions>
			</trkpt>
			<trkpt lat="47.2085006131" lon="7.5417176860">
				<ele>434.4</ele>
				<time>2021-04-12T10:50:09+02:00</time>
				<extensions>
					<swisstopo:routepoint_id>2099501483</swisstopo:routepoint_id>
				</extensions>
			</trkpt>
			<trkpt lat="47.2085883689" lon="7.5416937684">
				<ele>435.0</ele>
				<time>2021-04-12T10:50:10+02:00</time>
				<extensions>
					<swisstopo:routepoint_id>1017620924</swisstopo:routepoint_id>
				</extensions>
			</trkpt>
			<trkpt lat="47.2086757742" lon="7.5416693495">
				<ele>435.6</ele>
				<time>2021-04-12T10:50:11+02:00</time>
				<extensions>
					<swisstopo:routepoint_id>595104960</swisstopo:routepoint_id>
				</extensions>
			</trkpt>
			<trkpt lat="47.2087624559" lon="7.5416444173">
				<ele>436.2</ele>
				<time>2021-04-12T10:50:12+02:00</time>
				<extensions>
					<swisstopo:routepoint_id>1097718641</swisstopo:routepoint_id>
				</extensions>
			</trkpt>
			<trkpt lat="47.2088480407" lon="7.5416196157">
				<ele>436.8</ele>
				<time>2021-04-12T10:50:13+02:00</time>
				<extensions>
					<swisstopo:routepoint_id>325187910</swisstopo:routepoint_id>
				</extensions>
			</trkpt>
			<trkpt lat="47.2089321802" lon="7.5415954130">
				<ele>437.4</ele>
				<time>2021-04-12T10:50:14+02:00</time>
				<extensions>
					<swisstopo:routepoint_id>87321755</swisstopo:routepoint_id>
				</extensions>
			</trkpt>
			<trkpt lat="47.2090142758" lon="7.5415715052">
				<ele>437.9</ele>
				<time>2021-04-12T10:50:15+02:00</time>
				<extensions>
					<swisstopo:routepoint_id>885405384</swisstopo:routepoint_id>
				</extensions>
			</trkpt>
			<trkpt lat="47.2090939798" lon="7.5415482317">
				<ele>438.4</ele>
				<time>2021-04-12T10:50:16+02:00</time>
				<extensions>
					<swisstopo:routepoint_id>1094098825</swisstopo:routepoint_id>
				</extensions>
			</trkpt>
			<trkpt lat="47.2091713160" lon="7.5415260147">
				<ele>438.9</ele>
				<time>2021-04-12T10:50:17+02:00</time>
				<extensions>
					<swisstopo:routepoint_id>1763966161</swisstopo:routepoint_id>
				</extensions>
			</trkpt>
			<trkpt lat="47.2092461756" lon="7.5415052373">
				<ele>439.4</ele>
				<time>2021-04-12T10:50:18+02:00</time>
				<extensions>
					<swisstopo:routepoint_id>967521092</swisstopo:routepoint_id>
				</extensions>
			</trkpt>
			<trkpt lat="47.2093172073" lon="7.5414864810">
				<ele>439.8</ele>
				<time>2021-04-12T10:50:19+02:00</time>
				<extensions>
					<swisstopo:routepoint_id>380818160</swisstopo:routepoint_id>
				</extensions>
			</trkpt>
			<trkpt lat="47.2093817585" lon="7.5414703548">
				<ele>440.2</ele>
				<time>2021-04-12T10:50:20+02:00</time>
				<extensions>
					<swisstopo:routepoint_id>909547060</swisstopo:routepoint_id>
				</extensions>
			</trkpt>
			<trkpt lat="47.2094367049" lon="7.5414571289">
				<ele>440.5</ele>
				<time>2021-04-12T10:50:21+02:00</time>
				<extensions>
					<swisstopo:routepoint_id>968838074</swisstopo:routepoint_id>
				</extensions>
			</trkpt>
			<trkpt lat="47.2094796189" lon="7.5414472093">
				<ele>440.8</ele>
				<time>2021-04-12T10:50:22+02:00</time>
				<extensions>
					<swisstopo:routepoint_id>1040498164</swisstopo:routepoint_id>
				</extensions>
			</trkpt>
			<trkpt lat="47.2095102091" lon="7.5414406505">
				<ele>441.0</ele>
				<time>2021-04-12T10:50:23+02:00</time>
				<extensions>
					<swisstopo:routepoint_id>693304827</swisstopo:routepoint_id>
				</extensions>
			</trkpt>
			<trkpt lat="47.2095299767" lon="7.5414368640">
				<ele>441.3</ele>
				<time>2021-04-12T10:50:24+02:00</time>
				<extensions>
					<swisstopo:routepoint_id>127958767</swisstopo:routepoint_id>
				</extensions>
			</trkpt>
			<trkpt lat="47.2095408247" lon="7.5414356797">
				<ele>441.4</ele>
				<time>2021-04-12T10:50:25+02:00</time>
				<extensions>
					<swisstopo:routepoint_id>971866322</swisstopo:routepoint_id>
				</extensions>
			</trkpt>
			<trkpt lat="47.2095445638" lon="7.5414364271">
				<ele>441.6</ele>
				<time>2021-04-12T10:50:26+02:00</time>
				<extensions>
					<swisstopo:routepoint_id>396654772</swisstopo:routepoint_id>
				</extensions>
			</trkpt>
			<trkpt lat="47.2095430763" lon="7.5414386722">
				<ele>441.7</ele>
				<time>2021-04-12T10:50:27+02:00</time>
				<extensions>
					<swisstopo:routepoint_id>787512716</swisstopo:routepoint_id>
				</extensions>
			</trkpt>
			<trkpt lat="47.2095377331" lon="7.5414417666">
				<ele>441.8</ele>
				<time>2021-04-12T10:50:28+02:00</time>
				<extensions>
					<swisstopo:routepoint_id>784501351</swisstopo:routepoint_id>
				</extensions>
			</trkpt>
			<trkpt lat="47.2095299363" lon="7.5414450607">
				<ele>441.8</ele>
				<time>2021-04-12T10:50:29+02:00</time>
				<extensions>
					<swisstopo:routepoint_id>1712097324</swisstopo:routepoint_id>
				</extensions>
			</trkpt>
			<trkpt lat="47.2095204265" lon="7.5414484593">
				<ele>441.9</ele>
				<time>2021-04-12T10:50:30+02:00</time>
				<extensions>
					<swisstopo:routepoint_id>1086338315</swisstopo:routepoint_id>
				</extensions>
			</trkpt>
			<trkpt lat="47.2095103155" lon="7.5414516765">
				<ele>442.0</ele>
				<time>2021-04-12T10:50:31+02:00</time>
				<extensions>
					<swisstopo:routepoint_id>182093411</swisstopo:routepoint_id>
				</extensions>
			</trkpt>
			<trkpt lat="47.2095011407" lon="7.5414547414">
				<ele>442.1</ele>
				<time>2021-04-12T10:50:32+02:00</time>
				<extensions>
					<swisstopo:routepoint_id>279761702</swisstopo:routepoint_id>
				</extensions>
			</trkpt>
			<trkpt lat="47.2094950650" lon="7.5414575267">
				<ele>442.1</ele>
				<time>2021-04-12T10:50:33+02:00</time>
				<extensions>
					<swisstopo:routepoint_id>1113222231</swisstopo:routepoint_id>
				</extensions>
			</trkpt>
			<trkpt lat="47.2094955064" lon="7.5414604924">
				<ele>442.2</ele>
				<time>2021-04-12T10:50:34+02:00</time>
				<extensions>
					<swisstopo:routepoint_id>1048503753</swisstopo:routepoint_id>
				</extensions>
			</trkpt>
			<trkpt lat="47.2095041671" lon="7.5414652376">
				<ele>442.3</ele>
				<time>2021-04-12T10:50:35+02:00</time>
				<extensions>
					<swisstopo:routepoint_id>2099253036</swisstopo:routepoint_id>
				</extensions>
			</trkpt>
			<trkpt lat="47.2095200726" lon="7.5414722054">
				<ele>442.4</ele>
				<time>2021-04-12T10:50:36+02:00</time>
				<extensions>
					<swisstopo:routepoint_id>1136939489</swisstopo:routepoint_id>
				</extensions>
			</trkpt>
			<trkpt lat="47.2095418755" lon="7.5414798499">
				<ele>442.5</ele>
				<time>2021-04-12T10:50:37+02:00</time>
				<extensions>
					<swisstopo:routepoint_id>232500617</swisstopo:routepoint_id>
				</extensions>
			</trkpt>
			<trkpt lat="47.2095674399" lon="7.5414855657">
				<ele>442.6</ele>
				<time>2021-04-12T10:50:38+02:00</time>
				<extensions>
					<swisstopo:routepoint_id>1365116026</swisstopo:routepoint_id>
				</extensions>
			</trkpt>
			<trkpt lat="47.2095952015" lon="7.5414872362">
				<ele>442.7</ele>
				<time>2021-04-12T10:50:39+02:00</time>
				<extensions>
					<swisstopo:routepoint_id>1937248081</swisstopo:routepoint_id>
				</extensions>
			</trkpt>
			<trkpt lat="47.2096230586" lon="7.5414844565">
				<ele>442.8</ele>
				<time>2021-04-12T10:50:40+02:00</time>
				<extensions>
					<swisstopo:routepoint_id>1328925200</swisstopo:routepoint_id>
				</extensions>
			</trkpt>
			<trkpt lat="47.2096493410" lon="7.5414768410">
				<ele>442.8</ele>
				<time>2021-04-12T10:50:41+02:00</time>
				<extensions>
					<swisstopo:routepoint_id>1415907600</swisstopo:routepoint_id>
				</extensions>
			</trkpt>
			<trkpt lat="47.2096730821" lon="7.5414639210">
				<ele>442.8</ele>
				<time>2021-04-12T10:50:42+02:00</time>
				<extensions>
					<swisstopo:routepoint_id>892740793</swisstopo:routepoint_id>
				</extensions>
			</trkpt>
			<trkpt lat="47.2096941220" lon="7.5414436990">
				<ele>442.7</ele>
				<time>2021-04-12T10:50:43+02:00</time>
				<extensions>
					<swisstopo:routepoint_id>1973750009</swisstopo:routepoint_id>
				</extensions>
			</trkpt>
			<trkpt lat="47.2097138938" lon="7.5414145551">
				<ele>442.7</ele>
				<time>2021-04-12T10:50:44+02:00</time>
				<extensions>
					<swisstopo:routepoint_id>636506054</swisstopo:routepoint_id>
				</extensions>
			</trkpt>
			<trkpt lat="47.2097340249" lon="7.5413770494">
				<ele>442.6</ele>
				<time>2021-04-12T10:50:45+02:00</time>
				<extensions>
					<swisstopo:routepoint_id>1141203871</swisstopo:routepoint_id>
				</extensions>
			</trkpt>
			<trkpt lat="47.2097558714" lon="7.5413334141">
				<ele>442.6</ele>
				<time>2021-04-12T10:50:46+02:00</time>
				<extensions>
					<swisstopo:routepoint_id>1037008540</swisstopo:routepoint_id>
				</extensions>
			</trkpt>
			<trkpt lat="47.2097804182" lon="7.5412854799">
				<ele>442.6</ele>
				<time>2021-04-12T10:50:47+02:00</time>
				<extensions>
					<swisstopo:routepoint_id>25252728</swisstopo:routepoint_id>
				</extensions>
			</trkpt>
			<trkpt lat="47.2098075981" lon="7.5412353849">
				<ele>442.6</ele>
				<time>2021-04-12T10:50:48+02:00</time>
				<extensions>
					<swisstopo:routepoint_id>1368321037</swisstopo:routepoint_id>
				</extensions>
			</trkpt>
			<trkpt lat="47.2098378368" lon="7.5411845229">
				<ele>442.7</ele>
				<time>2021-04-12T10:50:49+02:00</time>
				<extensions>
					<swisstopo:routepoint_id>2116776783</swisstopo:routepoint_id>
				</extensions>
			</trkpt>
			<trkpt lat="47.2098710406" lon="7.5411336637">
				<ele>442.7</ele>
				<time>2021-04-12T10:50:50+02:00</time>
				<extensions>
					<swisstopo:routepoint_id>1453295679</swisstopo:routepoint_id>
				</extensions>
			</trkpt>
			<trkpt lat="47.2099066230" lon="7.5410832966">
				<ele>442.7</ele>
				<time>2021-04-12T10:50:51+02:00</time>
				<extensions>
					<swisstopo:routepoint_id>61475975</swisstopo:routepoint_id>
				</extensions>
			</trkpt>
			<trkpt lat="47.2099444212" lon="7.5410334745">
				<ele>442.7</ele>
				<time>2021-04-12T10:50:52+02:00</time>
				<extensions>
					<swisstopo:routepoint_id>287077618</swisstopo:routepoint_id>
				</extensions>
			</trkpt>
			<trkpt lat="47.2099841785" lon="7.5409842031">
				<ele>442.8</ele>
				<time>2021-04-12T10:50:53+02:00</time>
				<extensions>
					<swisstopo:routepoint_id>1665254564</swisstopo:routepoint_id>
				</extensions>
			</trkpt>
			<trkpt lat="47.2100257892" lon="7.5409352219">
				<ele>442.8</ele>
				<time>2021-04-12T10:50:54+02:00</time>
				<extensions>
					<swisstopo:routepoint_id>1926569444</swisstopo:routepoint_id>
				</extensions>
			</trkpt>
			<trkpt lat="47.2100692032" lon="7.5408868649">
				<ele>442.8</ele>
				<time>2021-04-12T10:50:55+02:00</time>
				<extensions>
					<swisstopo:routepoint_id>94215842</swisstopo:routepoint_id>
				</extensions>
			</trkpt>
			<trkpt lat="47.2101149614" lon="7.5408387388">
				<ele>442.8</ele>
				<time>2021-04-12T10:50:56+02:00</time>
				<extensions>
					<swisstopo:routepoint_id>790208655</swisstopo:routepoint_id>
				</extensions>
			</trkpt>
			<trkpt lat="47.2101638009" lon="7.5407898283">
				<ele>442.9</ele>
				<time>2021-04-12T10:50:57+02:00</time>
				<extensions>
					<swisstopo:routepoint_id>997991537</swisstopo:routepoint_id>
				</extensions>
			</trkpt>
			<trkpt lat="47.2102157979" lon="7.5407396341">
				<ele>443.0</ele>
				<time>2021-04-12T10:50:58+02:00</time>
				<extensions>
					<swisstopo:routepoint_id>1396479289</swisstopo:routepoint_id>
				</extensions>
			</trkpt>
			<trkpt lat="47.2102711029" lon="7.5406889556">
				<ele>443.2</ele>
				<time>2021-04-12T10:50:59+02:00</time>
				<extensions>
					<swisstopo:routepoint_id>778632160</swisstopo:routepoint_id>
				</extensions>
			</trkpt>
			<trkpt lat="47.2103290268" lon="7.5406376976">
				<ele>443.4</ele>
				<time>2021-04-12T10:51:00+02:00</time>
				<extensions>
					<swisstopo:routepoint_id>1852851949</swisstopo:routepoint_id>
				</extensions>
			</trkpt>
			<trkpt lat="47.2103885418" lon="7.5405846132">
				<ele>443.6</ele>
				<time>2021-04-12T10:51:01+02:00</time>
				<extensions>
					<swisstopo:routepoint_id>222341696</swisstopo:routepoint_id>
				</extensions>
			</trkpt>
			<trkpt lat="47.2104491114" lon="7.5405298357">
				<ele>443.8</ele>
				<time>2021-04-12T10:51:02+02:00</time>
				<extensions>
					<swisstopo:routepoint_id>275338892</swisstopo:routepoint_id>
				</extensions>
			</trkpt>
			<trkpt lat="47.2105108689" lon="7.5404727586">
				<ele>444.0</ele>
				<time>2021-04-12T10:51:03+02:00</time>
				<extensions>
					<swisstopo:routepoint_id>1940982206</swisstopo:routepoint_id>
				</extensions>
			</trkpt>
			<trkpt lat="47.2105744195" lon="7.5404130376">
				<ele>444.1</ele>
				<time>2021-04-12T10:51:04+02:00</time>
				<extensions>
					<swisstopo:routepoint_id>1811338312</swisstopo:routepoint_id>
				</extensions>
			</trkpt>
			<trkpt lat="47.2106400316" lon="7.5403506345">
				<ele>444.2</ele>
				<time>2021-04-12T10:51:05+02:00</time>
				<extensions>
					<swisstopo:routepoint_id>434829912</swisstopo:routepoint_id>
				</extensions>
			</trkpt>
			<trkpt lat="47.2107074800" lon="7.5402855959">
				<ele>444.3</ele>
				<time>2021-04-12T10:51:06+02:00</time>
				<extensions>
					<swisstopo:routepoint_id>299480243</swisstopo:routepoint_id>
				</extensions>
			</trkpt>
			<trkpt lat="47.2107768012" lon="7.5402184691">
				<ele>444.4</ele>
				<time>2021-04-12T10:51:07+02:00</time>
				<extensions>
					<swisstopo:routepoint_id>1810259180</swisstopo:routepoint_id>
				</extensions>
			</trkpt>
			<trkpt lat="47.2108475483" lon="7.5401502028">
				<ele>444.5</ele>
				<time>2021-04-12T10:51:08+02:00</time>
				<extensions>
					<swisstopo:routepoint_id>1625211211</swisstopo:routepoint_id>
				</extensions>
			</trkpt>
			<trkpt lat="47.2109193082" lon="7.5400816964">
				<ele>444.6</ele>
				<time>2021-04-12T10:51:09+02:00</time>
				<extensions>
					<swisstopo:routepoint_id>1080317084</swisstopo:routepoint_id>
				</extensions>
			</trkpt>
			<trkpt lat="47.2109914447" lon="7.5400135947">
				<ele>444.7</ele>
				<time>2021-04-12T10:51:10+02:00</time>
				<extensions>
					<swisstopo:routepoint_id>2062479050</swisstopo:routepoint_id>
				</extensions>
			</trkpt>
			<trkpt lat="47.2110632134" lon="7.5399460937">
				<ele>444.8</ele>
				<time>2021-04-12T10:51:11+02:00</time>
				<extensions>
					<swisstopo:routepoint_id>1551847123</swisstopo:routepoint_id>
				</extensions>
			</trkpt>
			<trkpt lat="47.2111335751" lon="7.5398776368">
				<ele>445.0</ele>
				<time>2021-04-12T10:51:12+02:00</time>
				<extensions>
					<swisstopo:routepoint_id>705703446</swisstopo:routepoint_id>
				</extensions>
			</trkpt>
			<trkpt lat="47.2112005395" lon="7.5398053814">
				<ele>445.1</ele>
				<time>2021-04-12T10:51:13+02:00</time>
				<extensions>
					<swisstopo:routepoint_id>205634541</swisstopo:routepoint_id>
				</extensions>
			</trkpt>
			<trkpt lat="47.2112610934" lon="7.5397266742">
				<ele>445.3</ele>
				<time>2021-04-12T10:51:14+02:00</time>
				<extensions>
					<swisstopo:routepoint_id>798542564</swisstopo:routepoint_id>
				</extensions>
			</trkpt>
			<trkpt lat="47.2113131659" lon="7.5396404103">
				<ele>445.4</ele>
				<time>2021-04-12T10:51:15+02:00</time>
				<extensions>
					<swisstopo:routepoint_id>1479563045</swisstopo:routepoint_id>
				</extensions>
			</trkpt>
			<trkpt lat="47.2113541828" lon="7.5395457280">
				<ele>445.5</ele>
				<time>2021-04-12T10:51:16+02:00</time>
				<extensions>
					<swisstopo:routepoint_id>1302948702</swisstopo:routepoint_id>
				</extensions>
			</trkpt>
			<trkpt lat="47.2113822664" lon="7.5394440586">
				<ele>445.7</ele>
				<time>2021-04-12T10:51:17+02:00</time>
				<extensions>
					<swisstopo:routepoint_id>768086055</swisstopo:routepoint_id>
				</extensions>
			</trkpt>
			<trkpt lat="47.2113957504" lon="7.5393374382">
				<ele>445.8</ele>
				<time>2021-04-12T10:51:18+02:00</time>
				<extensions>
					<swisstopo:routepoint_id>698124268</swisstopo:routepoint_id>
				</extensions>
			</trkpt>
			<trkpt lat="47.2113948039" lon="7.5392279938">
				<ele>446.0</ele>
				<time>2021-04-12T10:51:19+02:00</time>
				<extensions>
					<swisstopo:routepoint_id>1671408715</swisstopo:routepoint_id>
				</extensions>
			</trkpt>
			<trkpt lat="47.2113807681" lon="7.5391174191">
				<ele>446.2</ele>
				<time>2021-04-12T10:51:20+02:00</time>
				<extensions>
					<swisstopo:routepoint_id>132686598</swisstopo:routepoint_id>
				</extensions>
			</trkpt>
			<trkpt lat="47.2113558365" lon="7.5390067951">
				<ele>446.4</ele>
				<time>2021-04-12T10:51:21+02:00</time>
				<extensions>
					<swisstopo:routepoint_id>975627000</swisstopo:routepoint_id>
				</extensions>
			</trkpt>
			<trkpt lat="47.2113221435" lon="7.5388956977">
				<ele>446.6</ele>
				<time>2021-04-12T10:51:22+02:00</time>
				<extensions>
					<swisstopo:routepoint_id>1325344155</swisstopo:routepoint_id>
				</extensions>
			</trkpt>
			<trkpt lat="47.2112817525" lon="7.5387838939">
				<ele>446.7</ele>
				<time>2021-04-12T10:51:23+02:00</time>
				<extensions>
					<swisstopo:routepoint_id>1358826401</swisstopo:routepoint_id>
				</extensions>
			</trkpt>
			<trkpt lat="47.2112363746" lon="7.5386712622">
				<ele>446.9</ele>
				<time>2021-04-12T10:51:24+02:00</time>
				<extensions>
					<swisstopo:routepoint_id>1454219409</swisstopo:routepoint_id>
				</extensions>
			</trkpt>
			<trkpt lat="47.2111880001" lon="7.5385579363">
				<ele>447.1</ele>
				<time>2021-04-12T10:51:25+02:00</time>
				<extensions>
					<swisstopo:routepoint_id>554220556</swisstopo:routepoint_id>
				</extensions>
			</trkpt>
			<trkpt lat="47.2111381784" lon="7.5384441282">
				<ele>447.2</ele>
				<time>2021-04-12T10:51:26+02:00</time>
				<extensions>
					<swisstopo:routepoint_id>1148307653</swisstopo:routepoint_id>
				</extensions>
			</trkpt>
			<trkpt lat="47.2110881364" lon="7.5383301174">
				<ele>447.3</ele>
				<time>2021-04-12T10:51:27+02:00</time>
				<extensions>
					<swisstopo:routepoint_id>171188382</swisstopo:routepoint_id>
				</extensions>
			</trkpt>
			<trkpt lat="47.2110387887" lon="7.5382162026">
				<ele>447.4</ele>
				<time>2021-04-12T10:51:28+02:00</time>
				<extensions>
					<swisstopo:routepoint_id>1682532941</swisstopo:routepoint_id>
				</extensions>
			</trkpt>
			<trkpt lat="47.2109904274" lon="7.5381021493">
				<ele>447.4</ele>
				<time>2021-04-12T10:51:29+02:00</time>
				<extensions>
					<swisstopo:routepoint_id>266475691</swisstopo:routepoint_id>
				</extensions>
			</trkpt>
			<trkpt lat="47.2109428382" lon="7.5379877370">
				<ele>447.5</ele>
				<time>2021-04-12T10:51:30+02:00</time>
				<extensions>
					<swisstopo:routepoint_id>1153534642</swisstopo:routepoint_id>
				</extensions>
			</trkpt>
			<trkpt lat="47.2108957468" lon="7.5378726986">
				<ele>447.6</ele>
				<time>2021-04-12T10:51:31+02:00</time>
				<extensions>
					<swisstopo:routepoint_id>2121846625</swisstopo:routepoint_id>
				</extensions>
			</trkpt>
			<trkpt lat="47.2108494158" lon="7.5377569928">
				<ele>447.6</ele>
				<time>2021-04-12T10:51:32+02:00</time>
				<extensions>
					<swisstopo:routepoint_id>762784293</swisstopo:routepoint_id>
				</extensions>
			</trkpt>
			<trkpt lat="47.2108027895" lon="7.5376411994">
				<ele>447.7</ele>
				<time>2021-04-12T10:51:33+02:00</time>
				<extensions>
					<swisstopo:routepoint_id>1785723508</swisstopo:routepoint_id>
				</extensions>
			</trkpt>
			<trkpt lat="47.2107560308" lon="7.5375258184">
				<ele>447.8</ele>
				<time>2021-04-12T10:51:34+02:00</time>
				<extensions>
					<swisstopo:routepoint_id>1571032131</swisstopo:routepoint_id>
				</extensions>
			</trkpt>
			<trkpt lat="47.2107106528" lon="7.5374105481">
				<ele>447.9</ele>
				<time>2021-04-12T10:51:35+02:00</time>
				<extensions>
					<swisstopo:routepoint_id>1025585852</swisstopo:routepoint_id>
				</extensions>
			</trkpt>
			<trkpt lat="47.2106671519" lon="7.5372957228">
				<ele>448.0</ele>
				<time>2021-04-12T10:51:36+02:00</time>
				<extensions>
					<swisstopo:routepoint_id>1317663742</swisstopo:routepoint_id>
				</extensions>
			</trkpt>
			<trkpt lat="47.2106258542" lon="7.5371823568">
				<ele>448.1</ele>
				<time>2021-04-12T10:51:37+02:00</time>
				<extensions>
					<swisstopo:routepoint_id>1123143930</swisstopo:routepoint_id>
				</extensions>
			</trkpt>
			<trkpt lat="47.2105875856" lon="7.5370715820">
				<ele>448.2</ele>
				<time>2021-04-12T10:51:38+02:00</time>
				<extensions>
					<swisstopo:routepoint_id>298774380</swisstopo:routepoint_id>
				</extensions>
			</trkpt>
			<trkpt lat="47.2105520680" lon="7.5369648670">
				<ele>448.3</ele>
				<time>2021-04-12T10:51:39+02:00</time>
				<extensions>
					<swisstopo:routepoint_id>684237974</swisstopo:routepoint_id>
				</extensions>
			</trkpt>
			<trkpt lat="47.2105189187" lon="7.5368631098">
				<ele>448.3</ele>
				<time>2021-04-12T10:51:40+02:00</time>
				<extensions>
					<swisstopo:routepoint_id>212699333</swisstopo:routepoint_id>
				</extensions>
			</trkpt>
			<trkpt lat="47.2104887038" lon="7.5367678230">
				<ele>448.4</ele>
				<time>2021-04-12T10:51:41+02:00</time>
				<extensions>
					<swisstopo:routepoint_id>1424901123</swisstopo:routepoint_id>
				</extensions>
			</trkpt>
			<trkpt lat="47.2104621496" lon="7.5366814895">
				<ele>448.5</ele>
				<time>2021-04-12T10:51:42+02:00</time>
				<extensions>
					<swisstopo:routepoint_id>1723026564</swisstopo:routepoint_id>
				</extensions>
			</trkpt>
			<trkpt lat="47.2104398222" lon="7.5366070414">
				<ele>448.5</ele>
				<time>2021-04-12T10:51:43+02:00</time>
				<extensions>
					<swisstopo:routepoint_id>90481353</swisstopo:routepoint_id>
				</extensions>
			</trkpt>
			<trkpt lat="47.2104222140" lon="7.5365468293">
				<ele>448.6</ele>
				<time>2021-04-12T10:51:44+02:00</time>
				<extensions>
					<swisstopo:routepoint_id>301677795</swisstopo:routepoint_id>
				</extensions>
			</trkpt>
			<trkpt lat="47.2104097093" lon="7.5365018702">
				<ele>448.7</ele>
				<time>2021-04-12T10:51:45+02:00</time>
				<extensions>
					<swisstopo:routepoint_id>89809998</swisstopo:routepoint_id>
				</extensions>
			</trkpt>
			<trkpt lat="47.2104021947" lon="7.5364723132">
				<ele>448.7</ele>
				<time>2021-04-12T10:51:46+02:00</time>
				<extensions>
					<swisstopo:routepoint_id>1903116192</swisstopo:routepoint_id>
				</extensions>
			</trkpt>
			<trkpt lat="47.2103986753" lon="7.5364563080">
				<ele>448.8</ele>
				<time>2021-04-12T10:51:47+02:00</time>
				<extensions>
					<swisstopo:routepoint_id>1052400526</swisstopo:routepoint_id>
				</extensions>
			</trkpt>
			<trkpt lat="47.2103983844" lon="7.5364509658">
				<ele>448.8</ele>
				<time>2021-04-12T10:51:48+02:00</time>
				<extensions>
					<swisstopo:routepoint_id>1020323790</swisstopo:routepoint_id>
				</extensions>
			</trkpt>
			<trkpt lat="47.2104005706" lon="7.5364536670">
				<ele>448.9</ele>
				<time>2021-04-12T10:51:49+02:00</time>
				<extensions>
					<swisstopo:routepoint_id>925017235</swisstopo:routepoint_id>
				</extensions>
			</trkpt>
			<trkpt lat="47.2104044969" lon="7.5364619464">
				<ele>448.9</ele>
				<time>2021-04-12T10:51:50+02:00</time>
				<extensions>
					<swisstopo:routepoint_id>1130548012</swisstopo:routepoint_id>
				</extensions>
			</trkpt>
			<trkpt lat="47.2104093670" lon="7.5364738682">
				<ele>449.0</ele>
				<time>2021-04-12T10:51:51+02:00</time>
				<extensions>
					<swisstopo:routepoint_id>185129028</swisstopo:routepoint_id>
				</extensions>
			</trkpt>
			<trkpt lat="47.2104149356" lon="7.5364879061">
				<ele>449.0</ele>
				<time>2021-04-12T10:51:52+02:00</time>
				<extensions>
					<swisstopo:routepoint_id>1907252740</swisstopo:routepoint_id>
				</extensions>
			</trkpt>
			<trkpt lat="47.2104207364" lon="7.5365028737">
				<ele>449.0</ele>
				<time>2021-04-12T10:51:53+02:00</time>
				<extensions>
					<swisstopo:routepoint_id>1855886058</swisstopo:routepoint_id>
				</extensions>
			</trkpt>
			<trkpt lat="47.2104265216" lon="7.5365177812">
				<ele>449.0</ele>
				<time>2021-04-12T10:51:54+02:00</time>
				<extensions>
					<swisstopo:routepoint_id>1824487778</swisstopo:routepoint_id>
				</extensions>
			</trkpt>
			<trkpt lat="47.2104316505" lon="7.5365316088">
				<ele>449.1</ele>
				<time>2021-04-12T10:51:55+02:00</time>
				<extensions>
					<swisstopo:routepoint_id>247089333</swisstopo:routepoint_id>
				</extensions>
			</trkpt>
			<trkpt lat="47.2104359135" lon="7.5365437362">
				<ele>449.1</ele>
				<time>2021-04-12T10:51:56+02:00</time>
				<extensions>
					<swisstopo:routepoint_id>1744530080</swisstopo:routepoint_id>
				</extensions>
			</trkpt>
			<trkpt lat="47.2104389160" lon="7.5365522933">
				<ele>449.1</ele>
				<time>2021-04-12T10:51:57+02:00</time>
				<extensions>
					<swisstopo:routepoint_id>722822069</swisstopo:routepoint_id>
				</extensions>
			</trkpt>
			<trkpt lat="47.2104393820" lon="7.5365526136">
				<ele>449.1</ele>
				<time>2021-04-12T10:51:58+02:00</time>
				<extensions>
					<swisstopo:routepoint_id>155522604</swisstopo:routepoint_id>
				</extensions>
			</trkpt>
			<trkpt lat="47.2104352966" lon="7.5365394796">
				<ele>449.1</ele>
				<time>2021-04-12T10:51:59+02:00</time>
				<extensions>
					<swisstopo:routepoint_id>380807029</swisstopo:routepoint_id>
				</extensions>
			</trkpt>
			<trkpt lat="47.2104259206" lon="7.5365091385">
				<ele>449.1</ele>
				<time>2021-04-12T10:52:00+02:00</time>
				<extensions>
					<swisstopo:routepoint_id>722468343</swisstopo:routepoint_id>
				</extensions>
			</trkpt>
			<trkpt lat="47.2104106304" lon="7.5364593280">
				<ele>449.1</ele>
				<time>2021-04-12T10:52:01+02:00</time>
				<extensions>
					<swisstopo:routepoint_id>652900663</swisstopo:routepoint_id>
				</extensions>
			</trkpt>
			<trkpt lat="47.2103893859" lon="7.5363898926">
				<ele>449.0</ele>
				<time>2021-04-12T10:52:02+02:00</time>
				<extensions>
					<swisstopo:routepoint_id>1807490518</swisstopo:routepoint_id>
				</extensions>
			</trkpt>
			<trkpt lat="47.2103620058" lon="7.5363015533">
				<ele>448.8</ele>
				<time>2021-04-12T10:52:03+02:00</time>
				<extensions>
					<swisstopo:routepoint_id>189465564</swisstopo:routepoint_id>
				</extensions>
			</trkpt>
			<trkpt lat="47.2103279413" lon="7.5361964547">
				<ele>448.6</ele>
				<time>2021-04-12T10:52:04+02:00</time>
				<extensions>
					<swisstopo:routepoint_id>1776969294</swisstopo:routepoint_id>
				</extensions>
			</trkpt>
			<trkpt lat="47.2102867395" lon="7.5360767848">
				<ele>448.2</ele>
				<time>2021-04-12T10:52:05+02:00</time>
				<extensions>
					<swisstopo:routepoint_id>467845429</swisstopo:routepoint_id>
				</extensions>
			</trkpt>
			<trkpt lat="47.2102390409" lon="7.5359445778">
				<ele>447.7</ele>
				<time>2021-04-12T10:52:06+02:00</time>
				<extensions>
					<swisstopo:routepoint_id>1140493536</swisstopo:routepoint_id>
				</extensions>
			</trkpt>
			<trkpt lat="47.2101858946" lon="7.5358019694">
				<ele>447.2</ele>
				<time>2021-04-12T10:52:07+02:00</time>
				<extensions>
					<swisstopo:routepoint_id>1983310077</swisstopo:routepoint_id>
				</extensions>
			</trkpt>
			<trkpt lat="47.2101284522" lon="7.5356513134">
				<ele>446.6</ele>
				<time>2021-04-12T10:52:08+02:00</time>
				<extensions>
					<swisstopo:routepoint_id>251295405</swisstopo:routepoint_id>
				</extensions>
			</trkpt>
			<trkpt lat="47.2100679669" lon="7.5354950625">
				<ele>445.9</ele>
				<time>2021-04-12T10:52:09+02:00</time>
				<extensions>
					<swisstopo:routepoint_id>1569021833</swisstopo:routepoint_id>
				</extensions>
			</trkpt>
			<trkpt lat="47.2100055038" lon="7.5353354549">
				<ele>445.1</ele>
				<time>2021-04-12T10:52:10+02:00</time>
				<extensions>
					<swisstopo:routepoint_id>1598245718</swisstopo:routepoint_id>
				</extensions>
			</trkpt>
			<trkpt lat="47.2099418001" lon="7.5351739505">
				<ele>444.4</ele>
				<time>2021-04-12T10:52:11+02:00</time>
				<extensions>
					<swisstopo:routepoint_id>990325750</swisstopo:routepoint_id>
				</extensions>
			</trkpt>
			<trkpt lat="47.2098773048" lon="7.5350115764">
				<ele>443.6</ele>
				<time>2021-04-12T10:52:12+02:00</time>
				<extensions>
					<swisstopo:routepoint_id>1406616000</swisstopo:routepoint_id>
				</extensions>
			</trkpt>
			<trkpt lat="47.2098128313" lon="7.5348490517">
				<ele>442.8</ele>
				<time>2021-04-12T10:52:13+02:00</time>
				<extensions>
					<swisstopo:routepoint_id>1495125824</swisstopo:routepoint_id>
				</extensions>
			</trkpt>
			<trkpt lat="47.2097493506" lon="7.5346866999">
				<ele>442.0</ele>
				<time>2021-04-12T10:52:14+02:00</time>
				<extensions>
					<swisstopo:routepoint_id>873570421</swisstopo:routepoint_id>
				</extensions>
			</trkpt>
			<trkpt lat="47.2096877879" lon="7.5345245672">
				<ele>441.2</ele>
				<time>2021-04-12T10:52:15+02:00</time>
				<extensions>
					<swisstopo:routepoint_id>1899854855</swisstopo:routepoint_id>
				</extensions>
			</trkpt>
			<trkpt lat="47.2096300566" lon="7.5343620100">
				<ele>440.5</ele>
				<time>2021-04-12T10:52:16+02:00</time>
				<extensions>
					<swisstopo:routepoint_id>2073684389</swisstopo:routepoint_id>
				</extensions>
			</trkpt>
			<trkpt lat="47.2095769769" lon="7.5341993946">
				<ele>439.9</ele>
				<time>2021-04-12T10:52:17+02:00</time>
				<extensions>
					<swisstopo:routepoint_id>901418760</swisstopo:routepoint_id>
				</extensions>
			</trkpt>
			<trkpt lat="47.2095286220" lon="7.5340376451">
				<ele>439.4</ele>
				<time>2021-04-12T10:52:18+02:00</time>
				<extensions>
					<swisstopo:routepoint_id>1795453382</swisstopo:routepoint_id>
				</extensions>
			</trkpt>
			<trkpt lat="47.2094851999" lon="7.5338776092">
				<ele>439.0</ele>
				<time>2021-04-12T10:52:19+02:00</time>
				<extensions>
					<swisstopo:routepoint_id>1892267277</swisstopo:routepoint_id>
				</extensions>
			</trkpt>
			<trkpt lat="47.2094477991" lon="7.5337191564">
				<ele>438.8</ele>
				<time>2021-04-12T10:52:20+02:00</time>
				<extensions>
					<swisstopo:routepoint_id>1250796116</swisstopo:routepoint_id>
				</extensions>
			</trkpt>
			<trkpt lat="47.2094159510" lon="7.5335629885">
				<ele>438.6</ele>
				<time>2021-04-12T10:52:21+02:00</time>
				<extensions>
					<swisstopo:routepoint_id>412901129</swisstopo:routepoint_id>
				</extensions>
			</trkpt>
			<trkpt lat="47.2093884310" lon="7.5334099653">
				<ele>438.4</ele>
				<time>2021-04-12T10:52:22+02:00</time>
				<extensions>
					<swisstopo:routepoint_id>1109611646</swisstopo:routepoint_id>
				</extensions>
			</trkpt>
			<trkpt lat="47.2093630974" lon="7.5332605791">
				<ele>438.4</ele>
				<time>2021-04-12T10:52:23+02:00</time>
				<extensions>
					<swisstopo:routepoint_id>494943774</swisstopo:routepoint_id>
				</extensions>
			</trkpt>
			<trkpt lat="47.2093371515" lon="7.5331161126">
				<ele>438.4</ele>
				<time>2021-04-12T10:52:24+02:00</time>
				<extensions>
					<swisstopo:routepoint_id>1315844787</swisstopo:routepoint_id>
				</extensions>
			</trkpt>
			<trkpt lat="47.2093086907" lon="7.5329795359">
				<ele>438.4</ele>
				<time>2021-04-12T10:52:25+02:00</time>
				<extensions>
					<swisstopo:routepoint_id>616738303</swisstopo:routepoint_id>
				</extensions>
			</trkpt>
			<trkpt lat="47.2092763871" lon="7.5328530123">
				<ele>438.4</ele>
				<time>2021-04-12T10:52:26+02:00</time>
				<extensions>
					<swisstopo:routepoint_id>1764578099</swisstopo:routepoint_id>
				</extensions>
			</trkpt>
			<trkpt lat="47.2092395731" lon="7.5327375097">
				<ele>438.4</ele>
				<time>2021-04-12T10:52:27+02:00</time>
				<extensions>
					<swisstopo:routepoint_id>514944823</swisstopo:routepoint_id>
				</extensions>
			</trkpt>
			<trkpt lat="47.2091986082" lon="7.5326329864">
				<ele>438.3</ele>
				<time>2021-04-12T10:52:28+02:00</time>
				<extensions>
					<swisstopo:routepoint_id>318542751</swisstopo:routepoint_id>
				</extensions>
			</trkpt>
			<trkpt lat="47.2091549629" lon="7.5325384199">
				<ele>438.2</ele>
				<time>2021-04-12T10:52:29+02:00</time>
				<extensions>
					<swisstopo:routepoint_id>71284086</swisstopo:routepoint_id>
				</extensions>
			</trkpt>
			<trkpt lat="47.2091106941" lon="7.5324528096">
				<ele>438.2</ele>
				<time>2021-04-12T10:52:30+02:00</time>
				<extensions>
					<swisstopo:routepoint_id>1923242023</swisstopo:routepoint_id>
				</extensions>
			</trkpt>
			<trkpt lat="47.2090685284" lon="7.5323764262">
				<ele>438.1</ele>
				<time>2021-04-12T10:52:31+02:00</time>
				<extensions>
					<swisstopo:routepoint_id>4825917</swisstopo:routepoint_id>
				</extensions>
			</trkpt>
			<trkpt lat="47.2090306291" lon="7.5323103082">
				<ele>438.2</ele>
				<time>2021-04-12T10:52:32+02:00</time>
				<extensions>
					<swisstopo:routepoint_id>1652292080</swisstopo:routepoint_id>
				</extensions>
			</trkpt>
			<trkpt lat="47.2089986592" lon="7.5322571490">
				<ele>438.2</ele>
				<time>2021-04-12T10:52:33+02:00</time>
				<extensions>
					<swisstopo:routepoint_id>961949203</swisstopo:routepoint_id>
				</extensions>
			</trkpt>
			<trkpt lat="47.2089732577" lon="7.5322178166">
				<ele>438.2</ele>
				<time>2021-04-12T10:52:34+02:00</time>
				<extensions>
					<swisstopo:routepoint_id>1223360205</swisstopo:routepoint_id>
				</extensions>
			</trkpt>
			<trkpt lat="47.2089548139" lon="7.5321931420">
				<ele>438.3</ele>
				<time>2021-04-12T10:52:35+02:00</time>
				<extensions>
					<swisstopo:routepoint_id>1006529057</swisstopo:routepoint_id>
				</extensions>
			</trkpt>
			<trkpt lat="47.2089429948" lon="7.5321813318">
				<ele>438.4</ele>
				<time>2021-04-12T10:52:36+02:00</time>
				<extensions>
					<swisstopo:routepoint_id>1005173580</swisstopo:routepoint_id>
				</extensions>
			</trkpt>
			<trkpt lat="47.2089367487" lon="7.5321796050">
				<ele>438.5</ele>
				<time>2021-04-12T10:52:37+02:00</time>
				<extensions>
					<swisstopo:routepoint_id>1845991758</swisstopo:routepoint_id>
				</extensions>
			</trkpt>
			<trkpt lat="47.2089348831" lon="7.5321847387">
				<ele>438.6</ele>
				<time>2021-04-12T10:52:38+02:00</time>
				<extensions>
					<swisstopo:routepoint_id>887228497</swisstopo:routepoint_id>
				</extensions>
			</trkpt>
			<trkpt lat="47.2089363027" lon="7.5321945474">
				<ele>438.8</ele>
				<time>2021-04-12T10:52:39+02:00</time>
				<extensions>
					<swisstopo:routepoint_id>1670387958</swisstopo:routepoint_id>
				</extensions>
			</trkpt>
			<trkpt lat="47.2089400085" lon="7.5322073430">
				<ele>439.0</ele>
				<time>2021-04-12T10:52:40+02:00</time>
				<extensions>
					<swisstopo:routepoint_id>156692875</swisstopo:routepoint_id>
				</extensions>
			</trkpt>
			<trkpt lat="47.2089449522" lon="7.5322219359">
				<ele>439.2</ele>
				<time>2021-04-12T10:52:41+02:00</time>
				<extensions>
					<swisstopo:routepoint_id>722198903</swisstopo:routepoint_id>
				</extensions>
			</trkpt>
			<trkpt lat="47.2089509532" lon="7.5322373839">
				<ele>439.4</ele>
				<time>2021-04-12T10:52:42+02:00</time>
				<extensions>
					<swisstopo:routepoint_id>419389877</swisstopo:routepoint_id>
				</extensions>
			</trkpt>
			<trkpt lat="47.2089574488" lon="7.5322525664">
				<ele>439.6</ele>
				<time>2021-04-12T10:52:43+02:00</time>
				<extensions>
					<swisstopo:routepoint_id>644333285</swisstopo:routepoint_id>
				</extensions>
			</trkpt>
			<trkpt lat="47.2089639501" lon="7.5322668860">
				<ele>439.7</ele>
				<time>2021-04-12T10:52:44+02:00</time>
				<extensions>
					<swisstopo:routepoint_id>1696972821</swisstopo:routepoint_id>
				</extensions>
			</trkpt>
			<trkpt lat="47.2089704277" lon="7.5322798422">
				<ele>439.9</ele>
				<time>2021-04-12T10:52:45+02:00</time>
				<extensions>
					<swisstopo:routepoint_id>291886740</swisstopo:routepoint_id>
				</extensions>
			</trkpt>
			<trkpt lat="47.2089766799" lon="7.5322914439">
				<ele>440.0</ele>
				<time>2021-04-12T10:52:46+02:00</time>
				<extensions>
					<swisstopo:routepoint_id>887789432</swisstopo:routepoint_id>
				</extensions>
			</trkpt>
			<trkpt lat="47.2089824107" lon="7.5323016762">
				<ele>440.1</ele>
				<time>2021-04-12T10:52:47+02:00</time>
				<extensions>
					<swisstopo:routepoint_id>360604268</swisstopo:routepoint_id>
				</extensions>
			</trkpt>
			<trkpt lat="47.2089874644" lon="7.5323105933">
				<ele>440.2</ele>
				<time>2021-04-12T10:52:48+02:00</time>
				<extensions>
					<swisstopo:routepoint_id>477080442</swisstopo:routepoint_id>
				</extensions>
			</trkpt>
			<trkpt lat="47.2089916756" lon="7.5323182137">
				<ele>440.3</ele>
				<time>2021-04-12T10:52:49+02:00</time>
				<extensions>
					<swisstopo:routepoint_id>1734534443</swisstopo:routepoint_id>
				</extensions>
			</trkpt>
			<trkpt lat="47.2089949890" lon="7.5323244324">
				<ele>440.4</ele>
				<time>2021-04-12T10:52:50+02:00</time>
				<extensions>
					<swisstopo:routepoint_id>229875476</swisstopo:routepoint_id>
				</extensions>
			</trkpt>
			<trkpt lat="47.2089971057" lon="7.5323292028">
				<ele>440.6</ele>
				<time>2021-04-12T10:52:51+02:00</time>
				<extensions>
					<swisstopo:routepoint_id>194044179</swisstopo:routepoint_id>
				</extensions>
			</trkpt>
			<trkpt lat="47.2089972279" lon="7.5323297199">
				<ele>440.8</ele>
				<time>2021-04-12T10:52:52+02:00</time>
				<extensions>
					<swisstopo:routepoint_id>1420340307</swisstopo:routepoint_id>
				</extensions>
			</trkpt>
			<trkpt lat="47.2089942478" lon="7.5323201815">
				<ele>440.9</ele>
				<time>2021-04-12T10:52:53+02:00</time>
				<extensions>
					<swisstopo:routepoint_id>231319697</swisstopo:routepoint_id>
				</extensions>
			</trkpt>
			<trkpt lat="47.2089886063" lon="7.5322960662">
				<ele>441.0</ele>
				<time>2021-04-12T10:52:54+02:00</time>
				<extensions>
					<swisstopo:routepoint_id>844746409</swisstopo:routepoint_id>
				</extensions>
			</trkpt>
			<trkpt lat="47.2089825131" lon="7.5322554584">
				<ele>441.0</ele>
				<time>2021-04-12T10:52:55+02:00</time>
				<extensions>
					<swisstopo:routepoint_id>638505746</swisstopo:routepoint_id>
				</extensions>
			</trkpt>
			<trkpt lat="47.2089796961" lon="7.5322004883">
				<ele>440.9</ele>
				<time>2021-04-12T10:52:56+02:00</time>
				<extensions>
					<swisstopo:routepoint_id>390288963</swisstopo:routepoint_id>
				</extensions>
			</trkpt>
			<trkpt lat="47.2089830827" lon="7.5321339190">
				<ele>440.8</ele>
				<time>2021-04-12T10:52:57+02:00</time>
				<extensions>
					<swisstopo:routepoint_id>1171543203</swisstopo:routepoint_id>
				</extensions>
			</trkpt>
			<trkpt lat="47.2089937360" lon="7.5320592301">
				<ele>440.8</ele>
				<time>2021-04-12T10:52:58+02:00</time>
				<extensions>
					<swisstopo:routepoint_id>1996537125</swisstopo:routepoint_id>
				</extensions>
			</trkpt>
			<trkpt lat="47.2090117729" lon="7.5319801079">
				<ele>440.7</ele>
				<time>2021-04-12T10:52:59+02:00</time>
				<extensions>
					<swisstopo:routepoint_id>1367475500</swisstopo:routepoint_id>
				</extensions>
			</trkpt>
			<trkpt lat="47.2090355438" lon="7.5319000325">
				<ele>440.8</ele>
				<time>2021-04-12T10:53:00+02:00</time>
				<extensions>
					<swisstopo:routepoint_id>790738306</swisstopo:routepoint_id>
				</extensions>
			</trkpt>
			<trkpt lat="47.2090622799" lon="7.5318215638">
				<ele>440.9</ele>
				<time>2021-04-12T10:53:01+02:00</time>
				<extensions>
					<swisstopo:routepoint_id>1309901306</swisstopo:routepoint_id>
				</extensions>
			</trkpt>
			<trkpt lat="47.2090902480" lon="7.5317476118">
				<ele>441.1</ele>
				<time>2021-04-12T10:53:02+02:00</time>
				<extensions>
					<swisstopo:routepoint_id>1656384545</swisstopo:routepoint_id>
				</extensions>
			</trkpt>
			<trkpt lat="47.2091171204" lon="7.5316797096">
				<ele>441.3</ele>
				<time>2021-04-12T10:53:03+02:00</time>
				<extensions>
					<swisstopo:routepoint_id>1024531754</swisstopo:routepoint_id>
				</extensions>
			</trkpt>
			<trkpt lat="47.2091427430" lon="7.5316183068">
				<ele>441.5</ele>
				<time>2021-04-12T10:53:04+02:00</time>
				<extensions>
					<swisstopo:routepoint_id>781307832</swisstopo:routepoint_id>
				</extensions>
			</trkpt>
			<trkpt lat="47.2091677108" lon="7.5315612510">
				<ele>441.9</ele>
				<time>2021-04-12T10:53:05+02:00</time>
				<extensions>
					<swisstopo:routepoint_id>1725714666</swisstopo:routepoint_id>
				</extensions>
			</trkpt>
			<trkpt lat="47.2091930662" lon="7.5315072781">
				<ele>442.2</ele>
				<time>2021-04-12T10:53:06+02:00</time>
				<extensions>
					<swisstopo:routepoint_id>172255080</swisstopo:routepoint_id>
				</extensions>
			</trkpt>
			<trkpt lat="47.2092196062" lon="7.5314548766">
				<ele>442.5</ele>
				<time>2021-04-12T10:53:07+02:00</time>
				<extensions>
					<swisstopo:routepoint_id>283173404</swisstopo:routepoint_id>
				</extensions>
			</trkpt>
			<trkpt lat="47.2092476886" lon="7.5314023991">
				<ele>442.8</ele>
				<time>2021-04-12T10:53:08+02:00</time>
				<extensions>
					<swisstopo:routepoint_id>471639276</swisstopo:routepoint_id>
				</extensions>
			</trkpt>
			<trkpt lat="47.2092777880" lon="7.5313488895">
				<ele>443.1</ele>
				<time>2021-04-12T10:53:09+02:00</time>
				<extensions>
					<swisstopo:routepoint_id>479170655</swisstopo:routepoint_id>
				</extensions>
			</trkpt>
			<trkpt lat="47.2093099458" lon="7.5312937121">
				<ele>443.3</ele>
				<time>2021-04-12T10:53:10+02:00</time>
				<extensions>
					<swisstopo:routepoint_id>357522335</swisstopo:routepoint_id>
				</extensions>
			</trkpt>
			<trkpt lat="47.2093443511" lon="7.5312348446">
				<ele>443.5</ele>
				<time>2021-04-12T10:53:11+02:00</time>
				<extensions>
					<swisstopo:routepoint_id>218640039</swisstopo:routepoint_id>
				</extensions>
			</trkpt>
			<trkpt lat="47.2093813410" lon="7.5311707796">
				<ele>443.7</ele>
				<time>2021-04-12T10:53:12+02:00</time>
				<extensions>
					<swisstopo:routepoint_id>338615456</swisstopo:routepoint_id>
				</extensions>
			</trkpt>
			<trkpt lat="47.2094204940" lon="7.5311012003">
				<ele>443.8</ele>
				<time>2021-04-12T10:53:13+02:00</time>
				<extensions>
					<swisstopo:routepoint_id>278304442</swisstopo:routepoint_id>
				</extensions>
			</trkpt>
			<trkpt lat="47.2094617509" lon="7.5310266651">
				<ele>443.9</ele>
				<time>2021-04-12T10:53:14+02:00</time>
				<extensions>
					<swisstopo:routepoint_id>243373528</swisstopo:routepoint_id>
				</extensions>
			</trkpt>
			<trkpt lat="47.2095048606" lon="7.5309481640">
				<ele>443.9</ele>
				<time>2021-04-12T10:53:15+02:00</time>
				<extensions>
					<swisstopo:routepoint_id>1570021208</swisstopo:routepoint_id>
				</extensions>
			</trkpt>
			<trkpt lat="47.2095491074" lon="7.5308669134">
				<ele>443.8</ele>
				<time>2021-04-12T10:53:16+02:00</time>
				<extensions>
					<swisstopo:routepoint_id>1214872167</swisstopo:routepoint_id>
				</extensions>
			</trkpt>
			<trkpt lat="47.2095939421" lon="7.5307835956">
				<ele>443.7</ele>
				<time>2021-04-12T10:53:17+02:00</time>
				<extensions>
					<swisstopo:routepoint_id>81995093</swisstopo:routepoint_id>
				</extensions>
			</trkpt>
			<trkpt lat="47.2096387644" lon="7.5306990166">
				<ele>443.7</ele>
				<time>2021-04-12T10:53:18+02:00</time>
				<extensions>
					<swisstopo:routepoint_id>1554510324</swisstopo:routepoint_id>
				</extensions>
			</trkpt>
			<trkpt lat="47.2096831731" lon="7.5306141132">
				<ele>443.6</ele>
				<time>2021-04-12T10:53:19+02:00</time>
				<extensions>
					<swisstopo:routepoint_id>368966066</swisstopo:routepoint_id>
				</extensions>
			</trkpt>
			<trkpt lat="47.2097274997" lon="7.5305289190">
				<ele>443.6</ele>
				<time>2021-04-12T10:53:20+02:00</time>
				<extensions>
					<swisstopo:routepoint_id>1427382373</swisstopo:routepoint_id>
				</extensions>
			</trkpt>
			<trkpt lat="47.2097715047" lon="7.5304450358">
				<ele>443.7</ele>
				<time>2021-04-12T10:53:21+02:00</time>
				<extensions>
					<swisstopo:routepoint_id>475722374</swisstopo:routepoint_id>
				</extensions>
			</trkpt>
			<trkpt lat="47.2098142567" lon="7.5303638034">
				<ele>443.8</ele>
				<time>2021-04-12T10:53:22+02:00</time>
				<extensions>
					<swisstopo:routepoint_id>384322037</swisstopo:routepoint_id>
				</extensions>
			</trkpt>
			<trkpt lat="47.2098547007" lon="7.5302868395">
				<ele>443.9</ele>
				<time>2021-04-12T10:53:23+02:00</time>
				<extensions>
					<swisstopo:routepoint_id>1817149330</swisstopo:routepoint_id>
				</extensions>
			</trkpt>
			<trkpt lat="47.2098928827" lon="7.5302151014">
				<ele>444.0</ele>
				<time>2021-04-12T10:53:24+02:00</time>
				<extensions>
					<swisstopo:routepoint_id>1463845323</swisstopo:routepoint_id>
				</extensions>
			</trkpt>
			<trkpt lat="47.2099273223" lon="7.5301511979">
				<ele>444.2</ele>
				<time>2021-04-12T10:53:25+02:00</time>
				<extensions>
					<swisstopo:routepoint_id>1275683629</swisstopo:routepoint_id>
				</extensions>
			</trkpt>
			<trkpt lat="47.2099574683" lon="7.5300964763">
				<ele>444.3</ele>
				<time>2021-04-12T10:53:26+02:00</time>
				<extensions>
					<swisstopo:routepoint_id>2085504602</swisstopo:routepoint_id>
				</extensions>
			</trkpt>
			<trkpt lat="47.2099830414" lon="7.5300520826">
				<ele>444.5</ele>
				<time>2021-04-12T10:53:27+02:00</time>
				<extensions>
					<swisstopo:routepoint_id>1995243127</swisstopo:routepoint_id>
				</extensions>
			</trkpt>
			<trkpt lat="47.2100033192" lon="7.5300184305">
				<ele>444.7</ele>
				<time>2021-04-12T10:53:28+02:00</time>
				<extensions>
					<swisstopo:routepoint_id>1094087584</swisstopo:routepoint_id>
				</extensions>
			</trkpt>
			<trkpt lat="47.2100181430" lon="7.5299956126">
				<ele>444.8</ele>
				<time>2021-04-12T10:53:29+02:00</time>
				<extensions>
					<swisstopo:routepoint_id>1575038674</swisstopo:routepoint_id>
				</extensions>
			</trkpt>
			<trkpt lat="47.2100273142" lon="7.5299838543">
				<ele>444.9</ele>
				<time>2021-04-12T10:53:30+02:00</time>
				<extensions>
					<swisstopo:routepoint_id>1791560996</swisstopo:routepoint_id>
				</extensions>
			</trkpt>
			<trkpt lat="47.2100318163" lon="7.5299816242">
				<ele>444.9</ele>
				<time>2021-04-12T10:53:31+02:00</time>
				<extensions>
					<swisstopo:routepoint_id>897445185</swisstopo:routepoint_id>
				</extensions>
			</trkpt>
			<trkpt lat="47.2100328544" lon="7.5299863600">
				<ele>445.0</ele>
				<time>2021-04-12T10:53:32+02:00</time>
				<extensions>
					<swisstopo:routepoint_id>1583571414</swisstopo:routepoint_id>
				</extensions>
			</trkpt>
			<trkpt lat="47.2100311935" lon="7.5299957296">
				<ele>444.9</ele>
				<time>2021-04-12T10:53:33+02:00</time>
				<extensions>
					<swisstopo:routepoint_id>1319917827</swisstopo:routepoint_id>
				</extensions>
			</trkpt>
			<trkpt lat="47.2100275707" lon="7.5300081627">
				<ele>444.9</ele>
				<time>2021-04-12T10:53:34+02:00</time>
				<extensions>
					<swisstopo:routepoint_id>352844879</swisstopo:routepoint_id>
				</extensions>
			</trkpt>
			<trkpt lat="47.2100227693" lon="7.5300220486">
				<ele>444.8</ele>
				<time>2021-04-12T10:53:35+02:00</time>
				<extensions>
					<swisstopo:routepoint_id>1061531986</swisstopo:routepoint_id>
				</extensions>
			</trkpt>
			<trkpt lat="47.2100171444" lon="7.5300362599">
				<ele>444.8</ele>
				<time>2021-04-12T10:53:36+02:00</time>
				<extensions>
					<swisstopo:routepoint_id>2021433073</swisstopo:routepoint_id>
				</extensions>
			</trkpt>
			<trkpt lat="47.2100109505" lon="7.5300500058">
				<ele>444.7</ele>
				<time>2021-04-12T10:53:37+02:00</time>
				<extensions>
					<swisstopo:routepoint_id>1034362371</swisstopo:routepoint_id>
				</extensions>
			</trkpt>
			<trkpt lat="47.2100045563" lon="7.5300628686">
				<ele>444.6</ele>
				<time>2021-04-12T10:53:38+02:00</time>
				<extensions>
					<swisstopo:routepoint_id>648246932</swisstopo:routepoint_id>
				</extensions>
			</trkpt>
			<trkpt lat="47.2099980519" lon="7.5300747023">
				<ele>444.5</ele>
				<time>2021-04-12T10:53:39+02:00</time>
				<extensions>
					<swisstopo:routepoint_id>901644893</swisstopo:routepoint_id>
				</extensions>
			</trkpt>
			<trkpt lat="47.2099915904" lon="7.5300852943">
				<ele>444.5</ele>
				<time>2021-04-12T10:53:40+02:00</time>
				<extensions>
					<swisstopo:routepoint_id>1301103419</swisstopo:routepoint_id>
				</extensions>
			</trkpt>
			<trkpt lat="47.2099857005" lon="7.5300946429">
				<ele>444.5</ele>
				<time>2021-04-12T10:53:41+02:00</time>
				<extensions>
					<swisstopo:routepoint_id>1966669379</swisstopo:routepoint_id>
				</extensions>
			</trkpt>
			<trkpt lat="47.2099809018" lon="7.5301019633">
				<ele>444.5</ele>
				<time>2021-04-12T10:53:42+02:00</time>
				<extensions>
					<swisstopo:routepoint_id>1891441876</swisstopo:routepoint_id>
				</extensions>
			</trkpt>
			<trkpt lat="47.2099786762" lon="7.5301042867">
				<ele>444.5</ele>
				<time>2021-04-12T10:53:43+02:00</time>
				<extensions>
					<swisstopo:routepoint_id>263183391</swisstopo:routepoint_id>
				</extensions>
			</trkpt>
			<trkpt lat="47.2099815220" lon="7.5300965904">
				<ele>444.5</ele>
				<time>2021-04-12T10:53:44+02:00</time>
				<extensions>
					<swisstopo:routepoint_id>1654423364</swisstopo:routepoint_id>
				</extensions>
			</trkpt>
			<trkpt lat="47.2099909121" lon="7.5300737801">
				<ele>444.5</ele>
				<time>2021-04-12T10:53:45+02:00</time>
				<extensions>
					<swisstopo:routepoint_id>275217392</swisstopo:routepoint_id>
				</extensions>
			</trkpt>
			<trkpt lat="47.2100073167" lon="7.5300321176">
				<ele>444.4</ele>
				<time>2021-04-12T10:53:46+02:00</time>
				<extensions>
					<swisstopo:routepoint_id>2046415353</swisstopo:routepoint_id>
				</extensions>
			</trkpt>
			<trkpt lat="47.2100303713" lon="7.5299697265">
				<ele>444.4</ele>
				<time>2021-04-12T10:53:47+02:00</time>
				<extensions>
					<swisstopo:routepoint_id>4747519</swisstopo:routepoint_id>
				</extensions>
			</trkpt>
			<trkpt lat="47.2100590112" lon="7.5298873504">
				<ele>444.4</ele>
				<time>2021-04-12T10:53:48+02:00</time>
				<extensions>
					<swisstopo:routepoint_id>334656894</swisstopo:routepoint_id>
				</extensions>
			</trkpt>
			<trkpt lat="47.2100918072" lon="7.5297881436">
				<ele>444.3</ele>
				<time>2021-04-12T10:53:49+02:00</time>
				<extensions>
					<swisstopo:routepoint_id>318745965</swisstopo:routepoint_id>
				</extensions>
			</trkpt>
			<trkpt lat="47.2101266188" lon="7.5296752052">
				<ele>444.2</ele>
				<time>2021-04-12T10:53:50+02:00</time>
				<extensions>
					<swisstopo:routepoint_id>1339218137</swisstopo:routepoint_id>
				</extensions>
			</trkpt>
			<trkpt lat="47.2101622207" lon="7.5295509741">
				<ele>444.1</ele>
				<time>2021-04-12T10:53:51+02:00</time>
				<extensions>
					<swisstopo:routepoint_id>463124352</swisstopo:routepoint_id>
				</extensions>
			</trkpt>
			<trkpt lat="47.2101979645" lon="7.5294172413">
				<ele>444.0</ele>
				<time>2021-04-12T10:53:52+02:00</time>
				<extensions>
					<swisstopo:routepoint_id>1250247336</swisstopo:routepoint_id>
				</extensions>
			</trkpt>
			<trkpt lat="47.2102332485" lon="7.5292752818">
				<ele>443.8</ele>
				<time>2021-04-12T10:53:53+02:00</time>
				<extensions>
					<swisstopo:routepoint_id>1926973904</swisstopo:routepoint_id>
				</extensions>
			</trkpt>
			<trkpt lat="47.2102675861" lon="7.5291263296">
				<ele>443.6</ele>
				<time>2021-04-12T10:53:54+02:00</time>
				<extensions>
					<swisstopo:routepoint_id>449524121</swisstopo:routepoint_id>
				</extensions>
			</trkpt>
			<trkpt lat="47.2103007203" lon="7.5289725717">
				<ele>443.4</ele>
				<time>2021-04-12T10:53:55+02:00</time>
				<extensions>
					<swisstopo:routepoint_id>304431501</swisstopo:routepoint_id>
				</extensions>
			</trkpt>
			<trkpt lat="47.2103327645" lon="7.5288153273">
				<ele>443.2</ele>
				<time>2021-04-12T10:53:56+02:00</time>
				<extensions>
					<swisstopo:routepoint_id>1274190153</swisstopo:routepoint_id>
				</extensions>
			</trkpt>
			<trkpt lat="47.2103634794" lon="7.5286566334">
				<ele>443.0</ele>
				<time>2021-04-12T10:53:57+02:00</time>
				<extensions>
					<swisstopo:routepoint_id>606973587</swisstopo:routepoint_id>
				</extensions>
			</trkpt>
			<trkpt lat="47.2103926531" lon="7.5284988154">
				<ele>442.8</ele>
				<time>2021-04-12T10:53:58+02:00</time>
				<extensions>
					<swisstopo:routepoint_id>857753459</swisstopo:routepoint_id>
				</extensions>
			</trkpt>
			<trkpt lat="47.2104206298" lon="7.5283416146">
				<ele>442.5</ele>
				<time>2021-04-12T10:54:00+02:00</time>
				<extensions>
					<swisstopo:routepoint_id>204663102</swisstopo:routepoint_id>
				</extensions>
			</trkpt>
			<trkpt lat="47.2104472460" lon="7.5281887063">
				<ele>442.2</ele>
				<time>2021-04-12T10:54:01+02:00</time>
				<extensions>
					<swisstopo:routepoint_id>1651436467</swisstopo:routepoint_id>
				</extensions>
			</trkpt>
			<trkpt lat="47.2104735318" lon="7.5280379380">
				<ele>441.9</ele>
				<time>2021-04-12T10:54:02+02:00</time>
				<extensions>
					<swisstopo:routepoint_id>1614047041</swisstopo:routepoint_id>
				</extensions>
			</trkpt>
			<trkpt lat="47.2104995980" lon="7.5278896194">
				<ele>441.6</ele>
				<time>2021-04-12T10:54:03+02:00</time>
				<extensions>
					<swisstopo:routepoint_id>275189183</swisstopo:routepoint_id>
				</extensions>
			</trkpt>
			<trkpt lat="47.2105256695" lon="7.5277431238">
				<ele>441.3</ele>
				<time>2021-04-12T10:54:04+02:00</time>
				<extensions>
					<swisstopo:routepoint_id>1572306690</swisstopo:routepoint_id>
				</extensions>
			</trkpt>
			<trkpt lat="47.2105518990" lon="7.5275979356">
				<ele>440.9</ele>
				<time>2021-04-12T10:54:05+02:00</time>
				<extensions>
					<swisstopo:routepoint_id>972262495</swisstopo:routepoint_id>
				</extensions>
			</trkpt>
			<trkpt lat="47.2105783272" lon="7.5274546476">
				<ele>440.6</ele>
				<time>2021-04-12T10:54:06+02:00</time>
				<extensions>
					<swisstopo:routepoint_id>612683442</swisstopo:routepoint_id>
				</extensions>
			</trkpt>
			<trkpt lat="47.2106051878" lon="7.5273141657">
				<ele>440.2</ele>
				<time>2021-04-12T10:54:07+02:00</time>
				<extensions>
					<swisstopo:routepoint_id>186522329</swisstopo:routepoint_id>
				</extensions>
			</trkpt>
			<trkpt lat="47.2106326052" lon="7.5271776431">
				<ele>439.9</ele>
				<time>2021-04-12T10:54:08+02:00</time>
				<extensions>
					<swisstopo:routepoint_id>1702142530</swisstopo:routepoint_id>
				</extensions>
			</trkpt>
			<trkpt lat="47.2106604747" lon="7.5270466973">
				<ele>439.5</ele>
				<time>2021-04-12T10:54:09+02:00</time>
				<extensions>
					<swisstopo:routepoint_id>1279840023</swisstopo:routepoint_id>
				</extensions>
			</trkpt>
			<trkpt lat="47.2106893348" lon="7.5269240278">
				<ele>439.2</ele>
				<time>2021-04-12T10:54:10+02:00</time>
				<extensions>
					<swisstopo:routepoint_id>1075058209</swisstopo:routepoint_id>
				</extensions>
			</trkpt>
			<trkpt lat="47.2107188447" lon="7.5268118046">
				<ele>438.9</ele>
				<time>2021-04-12T10:54:11+02:00</time>
				<extensions>
					<swisstopo:routepoint_id>1723396452</swisstopo:routepoint_id>
				</extensions>
			</trkpt>
			<trkpt lat="47.2107481065" lon="7.5267120723">
				<ele>438.7</ele>
				<time>2021-04-12T10:54:12+02:00</time>
				<extensions>
					<swisstopo:routepoint_id>2012221675</swisstopo:routepoint_id>
				</extensions>
			</trkpt>
			<trkpt lat="47.2107765098" lon="7.5266266696">
				<ele>438.4</ele>
				<time>2021-04-12T10:54:13+02:00</time>
				<extensions>
					<swisstopo:routepoint_id>837218769</swisstopo:routepoint_id>
				</extensions>
			</trkpt>
			<trkpt lat="47.2108046453" lon="7.5265558481">
				<ele>438.2</ele>
				<time>2021-04-12T10:54:14+02:00</time>
				<extensions>
					<swisstopo:routepoint_id>822995439</swisstopo:routepoint_id>
				</extensions>
			</trkpt>
			<trkpt lat="47.2108337881" lon="7.5264989626">
				<ele>438.1</ele>
				<time>2021-04-12T10:54:15+02:00</time>
				<extensions>
					<swisstopo:routepoint_id>142172946</swisstopo:routepoint_id>
				</extensions>
			</trkpt>
			<trkpt lat="47.2108646454" lon="7.5264527614">
				<ele>438.0</ele>
				<time>2021-04-12T10:54:16+02:00</time>
				<extensions>
					<swisstopo:routepoint_id>1498887958</swisstopo:routepoint_id>
				</extensions>
			</trkpt>
			<trkpt lat="47.2108976947" lon="7.5264128068">
				<ele>437.9</ele>
				<time>2021-04-12T10:54:17+02:00</time>
				<extensions>
					<swisstopo:routepoint_id>1826730796</swisstopo:routepoint_id>
				</extensions>
			</trkpt>
			<trkpt lat="47.2109314861" lon="7.5263740608">
				<ele>437.8</ele>
				<time>2021-04-12T10:54:18+02:00</time>
				<extensions>
					<swisstopo:routepoint_id>1438270860</swisstopo:routepoint_id>
				</extensions>
			</trkpt>
			<trkpt lat="47.2109625841" lon="7.5263332763">
				<ele>437.7</ele>
				<time>2021-04-12T10:54:19+02:00</time>
				<extensions>
					<swisstopo:routepoint_id>942413388</swisstopo:routepoint_id>
				</extensions>
			</trkpt>
			<trkpt lat="47.2109872396" lon="7.5262880603">
				<ele>437.5</ele>
				<time>2021-04-12T10:54:20+02:00</time>
				<extensions>
					<swisstopo:routepoint_id>1449915491</swisstopo:routepoint_id>
				</extensions>
			</trkpt>
			<trkpt lat="47.2110026302" lon="7.5262393186">
				<ele>437.4</ele>
				<time>2021-04-12T10:54:21+02:00</time>
				<extensions>
					<swisstopo:routepoint_id>1232714728</swisstopo:routepoint_id>
				</extensions>
			</trkpt>
			<trkpt lat="47.2110055731" lon="7.5261910447">
				<ele>437.3</ele>
				<time>2021-04-12T10:54:22+02:00</time>
				<extensions>
					<swisstopo:routepoint_id>1461690887</swisstopo:routepoint_id>
				</extensions>
			</trkpt>
			<trkpt lat="47.2109940220" lon="7.5261485887">
				<ele>437.1</ele>
				<time>2021-04-12T10:54:23+02:00</time>
				<extensions>
					<swisstopo:routepoint_id>1573299776</swisstopo:routepoint_id>
				</extensions>
			</trkpt>
			<trkpt lat="47.2109694559" lon="7.5261165855">
				<ele>437.0</ele>
				<time>2021-04-12T10:54:24+02:00</time>
				<extensions>
					<swisstopo:routepoint_id>483189721</swisstopo:routepoint_id>
				</extensions>
			</trkpt>
			<trkpt lat="47.2109340326" lon="7.5260977638">
				<ele>436.9</ele>
				<time>2021-04-12T10:54:25+02:00</time>
				<extensions>
					<swisstopo:routepoint_id>1333971540</swisstopo:routepoint_id>
				</extensions>
			</trkpt>
			<trkpt lat="47.2108902853" lon="7.5260900623">
				<ele>436.7</ele>
				<time>2021-04-12T10:54:26+02:00</time>
				<extensions>
					<swisstopo:routepoint_id>330398100</swisstopo:routepoint_id>
				</extensions>
			</trkpt>
			<trkpt lat="47.2108405257" lon="7.5260883580">
				<ele>436.4</ele>
				<time>2021-04-12T10:54:27+02:00</time>
				<extensions>
					<swisstopo:routepoint_id>1755639205</swisstopo:routepoint_id>
				</extensions>
			</trkpt>
			<trkpt lat="47.2107861534" lon="7.5260876590">
				<ele>436.1</ele>
				<time>2021-04-12T10:54:27+02:00</time>
				<extensions>
					<swisstopo:routepoint_id>602808655</swisstopo:routepoint_id>
				</extensions>
			</trkpt>
			<trkpt lat="47.2107285070" lon="7.5260829888">
				<ele>435.9</ele>
				<time>2021-04-12T10:54:28+02:00</time>
				<extensions>
					<swisstopo:routepoint_id>1724701686</swisstopo:routepoint_id>
				</extensions>
			</trkpt>
			<trkpt lat="47.2106676369" lon="7.5260731305">
				<ele>435.7</ele>
				<time>2021-04-12T10:54:29+02:00</time>
				<extensions>
					<swisstopo:routepoint_id>326969396</swisstopo:routepoint_id>
				</extensions>
			</trkpt>
			<trkpt lat="47.2106032510" lon="7.5260563665">
				<ele>435.5</ele>
				<time>2021-04-12T10:54:30+02:00</time>
				<extensions>
					<swisstopo:routepoint_id>2111469546</swisstopo:routepoint_id>
				</extensions>
			</trkpt>
			<trkpt lat="47.2105345605" lon="7.5260318100">
				<ele>435.3</ele>
				<time>2021-04-12T10:54:31+02:00</time>
				<extensions>
					<swisstopo:routepoint_id>301392947</swisstopo:routepoint_id>
				</extensions>
			</trkpt>
			<trkpt lat="47.2104610621" lon="7.5259985086">
				<ele>435.1</ele>
				<time>2021-04-12T10:54:32+02:00</time>
				<extensions>
					<swisstopo:routepoint_id>1744820603</swisstopo:routepoint_id>
				</extensions>
			</trkpt>
			<trkpt lat="47.2103833828" lon="7.5259565896">
				<ele>434.9</ele>
				<time>2021-04-12T10:54:33+02:00</time>
				<extensions>
					<swisstopo:routepoint_id>1310674836</swisstopo:routepoint_id>
				</extensions>
			</trkpt>
			<trkpt lat="47.2103033595" lon="7.5259042220">
				<ele>434.7</ele>
				<time>2021-04-12T10:54:34+02:00</time>
				<extensions>
					<swisstopo:routepoint_id>1772201373</swisstopo:routepoint_id>
				</extensions>
			</trkpt>
			<trkpt lat="47.2102226778" lon="7.5258392084">
				<ele>434.3</ele>
				<time>2021-04-12T10:54:35+02:00</time>
				<extensions>
					<swisstopo:routepoint_id>1937775768</swisstopo:routepoint_id>
				</extensions>
			</trkpt>
			<trkpt lat="47.2101434383" lon="7.5257595651">
				<ele>433.9</ele>
				<time>2021-04-12T10:54:36+02:00</time>
				<extensions>
					<swisstopo:routepoint_id>1607826021</swisstopo:routepoint_id>
				</extensions>
			</trkpt>
			<trkpt lat="47.2100682029" lon="7.5256667978">
				<ele>433.5</ele>
				<time>2021-04-12T10:54:37+02:00</time>
				<extensions>
					<swisstopo:routepoint_id>945204746</swisstopo:routepoint_id>
				</extensions>
			</trkpt>
			<trkpt lat="47.2099974421" lon="7.5255660484">
				<ele>433.1</ele>
				<time>2021-04-12T10:54:38+02:00</time>
				<extensions>
					<swisstopo:routepoint_id>1119629163</swisstopo:routepoint_id>
				</extensions>
			</trkpt>
			<trkpt lat="47.2099311347" lon="7.5254639796">
				<ele>432.6</ele>
				<time>2021-04-12T10:54:39+02:00</time>
				<extensions>
					<swisstopo:routepoint_id>1355627527</swisstopo:routepoint_id>
				</extensions>
			</trkpt>
			<trkpt lat="47.2098705238" lon="7.5253661886">
				<ele>432.2</ele>
				<time>2021-04-12T10:54:40+02:00</time>
				<extensions>
					<swisstopo:routepoint_id>1377835266</swisstopo:routepoint_id>
				</extensions>
			</trkpt>
			<trkpt lat="47.2098169382" lon="7.5252777611">
				<ele>431.9</ele>
				<time>2021-04-12T10:54:41+02:00</time>
				<extensions>
					<swisstopo:routepoint_id>961150061</swisstopo:routepoint_id>
				</extensions>
			</trkpt>
			<trkpt lat="47.2097718350" lon="7.5252018751">
				<ele>431.6</ele>
				<time>2021-04-12T10:54:42+02:00</time>
				<extensions>
					<swisstopo:routepoint_id>677082493</swisstopo:routepoint_id>
				</extensions>
			</trkpt>
			<trkpt lat="47.2097361266" lon="7.5251402465">
				<ele>431.3</ele>
				<time>2021-04-12T10:54:43+02:00</time>
				<extensions>
					<swisstopo:routepoint_id>209614398</swisstopo:routepoint_id>
				</extensions>
			</trkpt>
			<trkpt lat="47.2097103761" lon="7.5250943603">
				<ele>431.1</ele>
				<time>2021-04-12T10:54:44+02:00</time>
				<extensions>
					<swisstopo:routepoint_id>1116006106</swisstopo:routepoint_id>
				</extensions>
			</trkpt>
			<trkpt lat="47.2096941076" lon="7.5250639645">
				<ele>431.0</ele>
				<time>2021-04-12T10:54:45+02:00</time>
				<extensions>
					<swisstopo:routepoint_id>592450644</swisstopo:routepoint_id>
				</extensions>
			</trkpt>
			<trkpt lat="47.2096856684" lon="7.5250473306">
				<ele>430.9</ele>
				<time>2021-04-12T10:54:46+02:00</time>
				<extensions>
					<swisstopo:routepoint_id>1583786216</swisstopo:routepoint_id>
				</extensions>
			</trkpt>
			<trkpt lat="47.2096832940" lon="7.5250416966">
				<ele>430.9</ele>
				<time>2021-04-12T10:54:47+02:00</time>
				<extensions>
					<swisstopo:routepoint_id>635127747</swisstopo:routepoint_id>
				</extensions>
			</trkpt>
			<trkpt lat="47.2096854561" lon="7.5250440359">
				<ele>430.9</ele>
				<time>2021-04-12T10:54:48+02:00</time>
				<extensions>
					<swisstopo:routepoint_id>1598318239</swisstopo:routepoint_id>
				</extensions>
			</trkpt>
			<trkpt lat="47.2096909436" lon="7.5250520481">
				<ele>431.0</ele>
				<time>2021-04-12T10:54:49+02:00</time>
				<extensions>
					<swisstopo:routepoint_id>61702550</swisstopo:routepoint_id>
				</extensions>
			</trkpt>
			<trkpt lat="47.2096985394" lon="7.5250641122">
				<ele>431.0</ele>
				<time>2021-04-12T10:54:50+02:00</time>
				<extensions>
					<swisstopo:routepoint_id>1947639996</swisstopo:routepoint_id>
				</extensions>
			</trkpt>
			<trkpt lat="47.2097073175" lon="7.5250787385">
				<ele>431.1</ele>
				<time>2021-04-12T10:54:51+02:00</time>
				<extensions>
					<swisstopo:routepoint_id>2039665198</swisstopo:routepoint_id>
				</extensions>
			</trkpt>
			<trkpt lat="47.2097166477" lon="7.5250945234">
				<ele>431.2</ele>
				<time>2021-04-12T10:54:52+02:00</time>
				<extensions>
					<swisstopo:routepoint_id>371525725</swisstopo:routepoint_id>
				</extensions>
			</trkpt>
			<trkpt lat="47.2097259486" lon="7.5251104494">
				<ele>431.3</ele>
				<time>2021-04-12T10:54:53+02:00</time>
				<extensions>
					<swisstopo:routepoint_id>1497898246</swisstopo:routepoint_id>
				</extensions>
			</trkpt>
			<trkpt lat="47.2097347775" lon="7.5251259060">
				<ele>431.4</ele>
				<time>2021-04-12T10:54:54+02:00</time>
				<extensions>
					<swisstopo:routepoint_id>225026741</swisstopo:routepoint_id>
				</extensions>
			</trkpt>
			<trkpt lat="47.2097429743" lon="7.5251403596">
				<ele>431.5</ele>
				<time>2021-04-12T10:54:55+02:00</time>
				<extensions>
					<swisstopo:routepoint_id>305733620</swisstopo:routepoint_id>
				</extensions>
			</trkpt>
			<trkpt lat="47.2097502658" lon="7.5251535294">
				<ele>431.5</ele>
				<time>2021-04-12T10:54:56+02:00</time>
				<extensions>
					<swisstopo:routepoint_id>1684067716</swisstopo:routepoint_id>
				</extensions>
			</trkpt>
			<trkpt lat="47.2097566718" lon="7.5251652553">
				<ele>431.6</ele>
				<time>2021-04-12T10:54:57+02:00</time>
				<extensions>
					<swisstopo:routepoint_id>291635352</swisstopo:routepoint_id>
				</extensions>
			</trkpt>
			<trkpt lat="47.2097622346" lon="7.5251752421">
				<ele>431.6</ele>
				<time>2021-04-12T10:54:58+02:00</time>
				<extensions>
					<swisstopo:routepoint_id>957678610</swisstopo:routepoint_id>
				</extensions>
			</trkpt>
			<trkpt lat="47.2097670074" lon="7.5251835200">
				<ele>431.6</ele>
				<time>2021-04-12T10:54:59+02:00</time>
				<extensions>
					<swisstopo:routepoint_id>314464005</swisstopo:routepoint_id>
				</extensions>
			</trkpt>
			<trkpt lat="47.2097709888" lon="7.5251902368">
				<ele>431.6</ele>
				<time>2021-04-12T10:55:00+02:00</time>
				<extensions>
					<swisstopo:routepoint_id>239276768</swisstopo:routepoint_id>
				</extensions>
			</trkpt>
			<trkpt lat="47.2097743347" lon="7.5251956068">
				<ele>431.6</ele>
				<time>2021-04-12T10:55:01+02:00</time>
				<extensions>
					<swisstopo:routepoint_id>1435252592</swisstopo:routepoint_id>
				</extensions>
			</trkpt>
			<trkpt lat="47.2097771367" lon="7.5251996691">
				<ele>431.6</ele>
				<time>2021-04-12T10:55:02+02:00</time>
				<extensions>
					<swisstopo:routepoint_id>1753990640</swisstopo:routepoint_id>
				</extensions>
			</trkpt>
			<trkpt lat="47.2097794498" lon="7.5252027054">
				<ele>431.5</ele>
				<time>2021-04-12T10:55:03+02:00</time>
				<extensions>
					<swisstopo:routepoint_id>812664111</swisstopo:routepoint_id>
				</extensions>
			</trkpt>
			<trkpt lat="47.2097813805" lon="7.5252047965">
				<ele>431.5</ele>
				<time>2021-04-12T10:55:04+02:00</time>
				<extensions>
					<swisstopo:routepoint_id>449718657</swisstopo:routepoint_id>
				</extensions>
			</trkpt>
			<trkpt lat="47.2097830022" lon="7.5252060885">
				<ele>431.4</ele>
				<time>2021-04-12T10:55:05+02:00</time>
				<extensions>
					<swisstopo:routepoint_id>1426514406</swisstopo:routepoint_id>
				</extensions>
			</trkpt>
			<trkpt lat="47.2097842763" lon="7.5252066671">
				<ele>431.4</ele>
				<time>2021-04-12T10:55:06+02:00</time>
				<extensions>
					<swisstopo:routepoint_id>920186534</swisstopo:routepoint_id>
				</extensions>
			</trkpt>
			<trkpt lat="47.2097853121" lon="7.5252066015">
				<ele>431.3</ele>
				<time>2021-04-12T10:55:07+02:00</time>
				<extensions>
					<swisstopo:routepoint_id>1545334891</swisstopo:routepoint_id>
				</extensions>
			</trkpt>
			<trkpt lat="47.2097860902" lon="7.5252059863">
				<ele>431.2</ele>
				<time>2021-04-12T10:55:08+02:00</time>
				<extensions>
					<swisstopo:routepoint_id>776286219</swisstopo:routepoint_id>
				</extensions>
			</trkpt>
			<trkpt lat="47.2097866675" lon="7.5252050273">
				<ele>431.2</ele>
				<time>2021-04-12T10:55:09+02:00</time>
				<extensions>
					<swisstopo:routepoint_id>1079327208</swisstopo:routepoint_id>
				</extensions>
			</trkpt>
			<trkpt lat="47.2097871111" lon="7.5252038679">
				<ele>431.1</ele>
				<time>2021-04-12T10:55:10+02:00</time>
				<extensions>
					<swisstopo:routepoint_id>458018647</swisstopo:routepoint_id>
				</extensions>
			</trkpt>
			<trkpt lat="47.2097875279" lon="7.5252025420">
				<ele>431.0</ele>
				<time>2021-04-12T10:55:11+02:00</time>
				<extensions>
					<swisstopo:routepoint_id>1338009281</swisstopo:routepoint_id>
				</extensions>
			</trkpt>
			<trkpt lat="47.2097874439" lon="7.5252007305">
				<ele>430.9</ele>
				<time>2021-04-12T10:55:12+02:00</time>
				<extensions>
					<swisstopo:routepoint_id>1620718030</swisstopo:routepoint_id>
				</extensions>
			</trkpt>
			<trkpt lat="47.2097845446" lon="7.5251956144">
				<ele>430.9</ele>
				<time>2021-04-12T10:55:13+02:00</time>
				<extensions>
					<swisstopo:routepoint_id>725351662</swisstopo:routepoint_id>
				</extensions>
			</trkpt>
			<trkpt lat="47.2097744571" lon="7.5251826714">
				<ele>430.7</ele>
				<time>2021-04-12T10:55:14+02:00</time>
				<extensions>
					<swisstopo:routepoint_id>1868202862</swisstopo:routepoint_id>
				</extensions>
			</trkpt>
			<trkpt lat="47.2097526597" lon="7.5251587952">
				<ele>430.6</ele>
				<time>2021-04-12T10:55:15+02:00</time>
				<extensions>
					<swisstopo:routepoint_id>527098847</swisstopo:routepoint_id>
				</extensions>
			</trkpt>
			<trkpt lat="47.2097159769" lon="7.5251241120">
				<ele>430.3</ele>
				<time>2021-04-12T10:55:16+02:00</time>
				<extensions>
					<swisstopo:routepoint_id>580277654</swisstopo:routepoint_id>
				</extensions>
			</trkpt>
			<trkpt lat="47.2096623703" lon="7.5250819650">
				<ele>430.0</ele>
				<time>2021-04-12T10:55:17+02:00</time>
				<extensions>
					<swisstopo:routepoint_id>1003289751</swisstopo:routepoint_id>
				</extensions>
			</trkpt>
			<trkpt lat="47.2095909135" lon="7.5250369520">
				<ele>429.6</ele>
				<time>2021-04-12T10:55:18+02:00</time>
				<extensions>
					<swisstopo:routepoint_id>249248813</swisstopo:routepoint_id>
				</extensions>
			</trkpt>
			<trkpt lat="47.2095019065" lon="7.5249944569">
				<ele>429.0</ele>
				<time>2021-04-12T10:55:19+02:00</time>
				<extensions>
					<swisstopo:routepoint_id>1531688441</swisstopo:routepoint_id>
				</extensions>
			</trkpt>
			<trkpt lat="47.2093961293" lon="7.5249594641">
				<ele>428.5</ele>
				<time>2021-04-12T10:55:20+02:00</time>
				<extensions>
					<swisstopo:routepoint_id>1201151298</swisstopo:routepoint_id>
				</extensions>
			</trkpt>
			<trkpt lat="47.2092751585" lon="7.5249348838">
				<ele>427.8</ele>
				<time>2021-04-12T10:55:21+02:00</time>
				<extensions>
					<swisstopo:routepoint_id>1403583686</swisstopo:routepoint_id>
				</extensions>
			</trkpt>
			<trkpt lat="47.2091415191" lon="7.5249191542">
				<ele>427.2</ele>
				<time>2021-04-12T10:55:22+02:00</time>
				<extensions>
					<swisstopo:routepoint_id>2070631954</swisstopo:routepoint_id>
				</extensions>
			</trkpt>
			<trkpt lat="47.2089988938" lon="7.5249111742">
				<ele>426.5</ele>
				<time>2021-04-12T10:55:23+02:00</time>
				<extensions>
					<swisstopo:routepoint_id>1138751243</swisstopo:routepoint_id>
				</extensions>
			</trkpt>
			<trkpt lat="47.2088498688" lon="7.5249092768">
				<ele>425.8</ele>
				<time>2021-04-12T10:55:24+02:00</time>
				<extensions>
					<swisstopo:routepoint_id>617879037</swisstopo:routepoint_id>
				</extensions>
			</trkpt>
			<trkpt lat="47.2086967435" lon="7.5249125562">
				<ele>425.1</ele>
				<time>2021-04-12T10:55:25+02:00</time>
				<extensions>
					<swisstopo:routepoint_id>1609541614</swisstopo:routepoint_id>
				</extensions>
			</trkpt>
			<trkpt lat="47.2085413396" lon="7.5249204336">
				<ele>424.4</ele>
				<time>2021-04-12T10:55:26+02:00</time>
				<extensions>
					<swisstopo:routepoint_id>1861888886</swisstopo:routepoint_id>
				</extensions>
			</trkpt>
			<trkpt lat="47.2055948338" lon="7.5254246786">
				<ele>423.2</ele>
				<time>2021-04-12T10:55:41+02:00</time>
				<extensions>
					<swisstopo:routepoint_id>1782286565</swisstopo:routepoint_id>
				</extensions>
			</trkpt>
			<trkpt lat="47.2053443077" lon="7.5255018706">
				<ele>424.8</ele>
				<time>2021-04-12T10:55:42+02:00</time>
				<extensions>
					<swisstopo:routepoint_id>1788389599</swisstopo:routepoint_id>
				</extensions>
			</trkpt>
			<trkpt lat="47.2051299851" lon="7.5255630166">
				<ele>425.8</ele>
				<time>2021-04-12T10:55:43+02:00</time>
				<extensions>
					<swisstopo:routepoint_id>1282866981</swisstopo:routepoint_id>
				</extensions>
			</trkpt>
			<trkpt lat="47.2049402694" lon="7.5256175979">
				<ele>426.6</ele>
				<time>2021-04-12T10:55:44+02:00</time>
				<extensions>
					<swisstopo:routepoint_id>409533787</swisstopo:routepoint_id>
				</extensions>
			</trkpt>
			<trkpt lat="47.2047708256" lon="7.5256671861">
				<ele>427.0</ele>
				<time>2021-04-12T10:55:45+02:00</time>
				<extensions>
					<swisstopo:routepoint_id>349269474</swisstopo:routepoint_id>
				</extensions>
			</trkpt>
			<trkpt lat="47.2046191833" lon="7.5257123162">
				<ele>427.2</ele>
				<time>2021-04-12T10:55:46+02:00</time>
				<extensions>
					<swisstopo:routepoint_id>1099242267</swisstopo:routepoint_id>
				</extensions>
			</trkpt>
			<trkpt lat="47.2044836231" lon="7.5257533996">
				<ele>427.1</ele>
				<time>2021-04-12T10:55:47+02:00</time>
				<extensions>
					<swisstopo:routepoint_id>162966328</swisstopo:routepoint_id>
				</extensions>
			</trkpt>
			<trkpt lat="47.2043638130" lon="7.5257917910">
				<ele>427.0</ele>
				<time>2021-04-12T10:55:48+02:00</time>
				<extensions>
					<swisstopo:routepoint_id>933424771</swisstopo:routepoint_id>
				</extensions>
			</trkpt>
			<trkpt lat="47.2042589813" lon="7.5258266218">
				<ele>426.8</ele>
				<time>2021-04-12T10:55:49+02:00</time>
				<extensions>
					<swisstopo:routepoint_id>702084862</swisstopo:routepoint_id>
				</extensions>
			</trkpt>
			<trkpt lat="47.2041696492" lon="7.5258573345">
				<ele>426.5</ele>
				<time>2021-04-12T10:55:50+02:00</time>
				<extensions>
					<swisstopo:routepoint_id>1665119016</swisstopo:routepoint_id>
				</extensions>
			</trkpt>
			<trkpt lat="47.2040962512" lon="7.5258836584">
				<ele>426.2</ele>
				<time>2021-04-12T10:55:51+02:00</time>
				<extensions>
					<swisstopo:routepoint_id>1795897855</swisstopo:routepoint_id>
				</extensions>
			</trkpt>
			<trkpt lat="47.2040383417" lon="7.5259057868">
				<ele>426.0</ele>
				<time>2021-04-12T10:55:52+02:00</time>
				<extensions>
					<swisstopo:routepoint_id>772590400</swisstopo:routepoint_id>
				</extensions>
			</trkpt>
			<trkpt lat="47.2039951391" lon="7.5259236183">
				<ele>425.7</ele>
				<time>2021-04-12T10:55:53+02:00</time>
				<extensions>
					<swisstopo:routepoint_id>1240723038</swisstopo:routepoint_id>
				</extensions>
			</trkpt>
			<trkpt lat="47.2039650646" lon="7.5259374257">
				<ele>425.5</ele>
				<time>2021-04-12T10:55:54+02:00</time>
				<extensions>
					<swisstopo:routepoint_id>765887296</swisstopo:routepoint_id>
				</extensions>
			</trkpt>
			<trkpt lat="47.2039467538" lon="7.5259473418">
				<ele>425.2</ele>
				<time>2021-04-12T10:55:55+02:00</time>
				<extensions>
					<swisstopo:routepoint_id>250803754</swisstopo:routepoint_id>
				</extensions>
			</trkpt>
			<trkpt lat="47.2039389999" lon="7.5259534488">
				<ele>425.0</ele>
				<time>2021-04-12T10:55:56+02:00</time>
				<extensions>
					<swisstopo:routepoint_id>1895778064</swisstopo:routepoint_id>
				</extensions>
			</trkpt>
			<trkpt lat="47.2039400327" lon="7.5259559878">
				<ele>424.9</ele>
				<time>2021-04-12T10:55:57+02:00</time>
				<extensions>
					<swisstopo:routepoint_id>127051109</swisstopo:routepoint_id>
				</extensions>
			</trkpt>
			<trkpt lat="47.2039480851" lon="7.5259556406">
				<ele>424.8</ele>
				<time>2021-04-12T10:55:58+02:00</time>
				<extensions>
					<swisstopo:routepoint_id>749243845</swisstopo:routepoint_id>
				</extensions>
			</trkpt>
			<trkpt lat="47.2039610175" lon="7.5259532247">
				<ele>424.7</ele>
				<time>2021-04-12T10:55:59+02:00</time>
				<extensions>
					<swisstopo:routepoint_id>1844680554</swisstopo:routepoint_id>
				</extensions>
			</trkpt>
			<trkpt lat="47.2039764439" lon="7.5259497310">
				<ele>424.6</ele>
				<time>2021-04-12T10:56:00+02:00</time>
				<extensions>
					<swisstopo:routepoint_id>324659339</swisstopo:routepoint_id>
				</extensions>
			</trkpt>
			<trkpt lat="47.2039912926" lon="7.5259465738">
				<ele>424.6</ele>
				<time>2021-04-12T10:56:01+02:00</time>
				<extensions>
					<swisstopo:routepoint_id>1941047193</swisstopo:routepoint_id>
				</extensions>
			</trkpt>
			<trkpt lat="47.2040015526" lon="7.5259456214">
				<ele>424.7</ele>
				<time>2021-04-12T10:56:02+02:00</time>
				<extensions>
					<swisstopo:routepoint_id>756091174</swisstopo:routepoint_id>
				</extensions>
			</trkpt>
			<trkpt lat="47.2040048492" lon="7.5259479777">
				<ele>424.7</ele>
				<time>2021-04-12T10:56:03+02:00</time>
				<extensions>
					<swisstopo:routepoint_id>963622119</swisstopo:routepoint_id>
				</extensions>
			</trkpt>
			<trkpt lat="47.2039997441" lon="7.5259541942">
				<ele>424.8</ele>
				<time>2021-04-12T10:56:04+02:00</time>
				<extensions>
					<swisstopo:routepoint_id>1422772006</swisstopo:routepoint_id>
				</extensions>
			</trkpt>
			<trkpt lat="47.2039837468" lon="7.5259655092">
				<ele>424.8</ele>
				<time>2021-04-12T10:56:05+02:00</time>
				<extensions>
					<swisstopo:routepoint_id>298695497</swisstopo:routepoint_id>
				</extensions>
			</trkpt>
			<trkpt lat="47.2039548532" lon="7.5259828598">
				<ele>425.0</ele>
				<time>2021-04-12T10:56:06+02:00</time>
				<extensions>
					<swisstopo:routepoint_id>1505935040</swisstopo:routepoint_id>
				</extensions>
			</trkpt>
			<trkpt lat="47.2039128564" lon="7.5260060267">
				<ele>425.1</ele>
				<time>2021-04-12T10:56:07+02:00</time>
				<extensions>
					<swisstopo:routepoint_id>7953738</swisstopo:routepoint_id>
				</extensions>
			</trkpt>
			<trkpt lat="47.2038583355" lon="7.5260347600">
				<ele>425.2</ele>
				<time>2021-04-12T10:56:08+02:00</time>
				<extensions>
					<swisstopo:routepoint_id>534488452</swisstopo:routepoint_id>
				</extensions>
			</trkpt>
			<trkpt lat="47.2037925806" lon="7.5260693881">
				<ele>425.3</ele>
				<time>2021-04-12T10:56:09+02:00</time>
				<extensions>
					<swisstopo:routepoint_id>223317363</swisstopo:routepoint_id>
				</extensions>
			</trkpt>
			<trkpt lat="47.2037169769" lon="7.5261106010">
				<ele>425.4</ele>
				<time>2021-04-12T10:56:10+02:00</time>
				<extensions>
					<swisstopo:routepoint_id>1640988632</swisstopo:routepoint_id>
				</extensions>
			</trkpt>
			<trkpt lat="47.2036326374" lon="7.5261586566">
				<ele>425.5</ele>
				<time>2021-04-12T10:56:11+02:00</time>
				<extensions>
					<swisstopo:routepoint_id>2110943250</swisstopo:routepoint_id>
				</extensions>
			</trkpt>
			<trkpt lat="47.2035405307" lon="7.5262135246">
				<ele>425.6</ele>
				<time>2021-04-12T10:56:12+02:00</time>
				<extensions>
					<swisstopo:routepoint_id>45870663</swisstopo:routepoint_id>
				</extensions>
			</trkpt>
			<trkpt lat="47.2034413449" lon="7.5262748257">
				<ele>425.7</ele>
				<time>2021-04-12T10:56:13+02:00</time>
				<extensions>
					<swisstopo:routepoint_id>1603768</swisstopo:routepoint_id>
				</extensions>
			</trkpt>
			<trkpt lat="47.2033351634" lon="7.5263420878">
				<ele>425.8</ele>
				<time>2021-04-12T10:56:14+02:00</time>
				<extensions>
					<swisstopo:routepoint_id>1184725012</swisstopo:routepoint_id>
				</extensions>
			</trkpt>
			<trkpt lat="47.2032224589" lon="7.5264148452">
				<ele>425.8</ele>
				<time>2021-04-12T10:56:15+02:00</time>
				<extensions>
					<swisstopo:routepoint_id>204901700</swisstopo:routepoint_id>
				</extensions>
			</trkpt>
			<trkpt lat="47.2031030111" lon="7.5264930505">
				<ele>425.9</ele>
				<time>2021-04-12T10:56:16+02:00</time>
				<extensions>
					<swisstopo:routepoint_id>1366585759</swisstopo:routepoint_id>
				</extensions>
			</trkpt>
			<trkpt lat="47.2029767303" lon="7.5265764347">
				<ele>426.0</ele>
				<time>2021-04-12T10:56:17+02:00</time>
				<extensions>
					<swisstopo:routepoint_id>869246848</swisstopo:routepoint_id>
				</extensions>
			</trkpt>
			<trkpt lat="47.2028444978" lon="7.5266647812">
				<ele>426.0</ele>
				<time>2021-04-12T10:56:18+02:00</time>
				<extensions>
					<swisstopo:routepoint_id>100523795</swisstopo:routepoint_id>
				</extensions>
			</trkpt>
			<trkpt lat="47.2027076847" lon="7.5267581298">
				<ele>426.1</ele>
				<time>2021-04-12T10:56:19+02:00</time>
				<extensions>
					<swisstopo:routepoint_id>1581276023</swisstopo:routepoint_id>
				</extensions>
			</trkpt>
			<trkpt lat="47.2025673993" lon="7.5268569375">
				<ele>426.2</ele>
				<time>2021-04-12T10:56:20+02:00</time>
				<extensions>
					<swisstopo:routepoint_id>1395986936</swisstopo:routepoint_id>
				</extensions>
			</trkpt>
			<trkpt lat="47.2024242477" lon="7.5269612734">
				<ele>426.3</ele>
				<time>2021-04-12T10:56:21+02:00</time>
				<extensions>
					<swisstopo:routepoint_id>1093589877</swisstopo:routepoint_id>
				</extensions>
			</trkpt>
			<trkpt lat="47.2022793864" lon="7.5270710462">
				<ele>426.4</ele>
				<time>2021-04-12T10:56:22+02:00</time>
				<extensions>
					<swisstopo:routepoint_id>1800011713</swisstopo:routepoint_id>
				</extensions>
			</trkpt>
			<trkpt lat="47.2021336851" lon="7.5271860743">
				<ele>426.5</ele>
				<time>2021-04-12T10:56:23+02:00</time>
				<extensions>
					<swisstopo:routepoint_id>1194725102</swisstopo:routepoint_id>
				</extensions>
			</trkpt>
			<trkpt lat="47.2019879756" lon="7.5273055867">
				<ele>426.7</ele>
				<time>2021-04-12T10:56:24+02:00</time>
				<extensions>
					<swisstopo:routepoint_id>772689864</swisstopo:routepoint_id>
				</extensions>
			</trkpt>
			<trkpt lat="47.2018428400" lon="7.5274287701">
				<ele>427.0</ele>
				<time>2021-04-12T10:56:25+02:00</time>
				<extensions>
					<swisstopo:routepoint_id>764930839</swisstopo:routepoint_id>
				</extensions>
			</trkpt>
			<trkpt lat="47.2016986879" lon="7.5275546205">
				<ele>427.4</ele>
				<time>2021-04-12T10:56:26+02:00</time>
				<extensions>
					<swisstopo:routepoint_id>1355500131</swisstopo:routepoint_id>
				</extensions>
			</trkpt>
			<trkpt lat="47.2015562889" lon="7.5276824211">
				<ele>427.9</ele>
				<time>2021-04-12T10:56:27+02:00</time>
				<extensions>
					<swisstopo:routepoint_id>1384174341</swisstopo:routepoint_id>
				</extensions>
			</trkpt>
			<trkpt lat="47.2014158852" lon="7.5278113237">
				<ele>428.4</ele>
				<time>2021-04-12T10:56:28+02:00</time>
				<extensions>
					<swisstopo:routepoint_id>127801236</swisstopo:routepoint_id>
				</extensions>
			</trkpt>
			<trkpt lat="47.2012783050" lon="7.5279413460">
				<ele>428.9</ele>
				<time>2021-04-12T10:56:29+02:00</time>
				<extensions>
					<swisstopo:routepoint_id>471726452</swisstopo:routepoint_id>
				</extensions>
			</trkpt>
			<trkpt lat="47.2011447201" lon="7.5280721596">
				<ele>429.4</ele>
				<time>2021-04-12T10:56:30+02:00</time>
				<extensions>
					<swisstopo:routepoint_id>1944337687</swisstopo:routepoint_id>
				</extensions>
			</trkpt>
			<trkpt lat="47.2010160443" lon="7.5282027626">
				<ele>429.8</ele>
				<time>2021-04-12T10:56:31+02:00</time>
				<extensions>
					<swisstopo:routepoint_id>224849010</swisstopo:routepoint_id>
				</extensions>
			</trkpt>
			<trkpt lat="47.2008924931" lon="7.5283327172">
				<ele>430.2</ele>
				<time>2021-04-12T10:56:32+02:00</time>
				<extensions>
					<swisstopo:routepoint_id>1613575997</swisstopo:routepoint_id>
				</extensions>
			</trkpt>
			<trkpt lat="47.2007731614" lon="7.5284619893">
				<ele>430.5</ele>
				<time>2021-04-12T10:56:33+02:00</time>
				<extensions>
					<swisstopo:routepoint_id>948287263</swisstopo:routepoint_id>
				</extensions>
			</trkpt>
			<trkpt lat="47.2006567838" lon="7.5285915280">
				<ele>430.7</ele>
				<time>2021-04-12T10:56:34+02:00</time>
				<extensions>
					<swisstopo:routepoint_id>1387884854</swisstopo:routepoint_id>
				</extensions>
			</trkpt>
			<trkpt lat="47.2005429033" lon="7.5287217938">
				<ele>431.0</ele>
				<time>2021-04-12T10:56:35+02:00</time>
				<extensions>
					<swisstopo:routepoint_id>213367464</swisstopo:routepoint_id>
				</extensions>
			</trkpt>
			<trkpt lat="47.2004318893" lon="7.5288529773">
				<ele>431.2</ele>
				<time>2021-04-12T10:56:36+02:00</time>
				<extensions>
					<swisstopo:routepoint_id>1916760605</swisstopo:routepoint_id>
				</extensions>
			</trkpt>
			<trkpt lat="47.2003241368" lon="7.5289836774">
				<ele>431.3</ele>
				<time>2021-04-12T10:56:37+02:00</time>
				<extensions>
					<swisstopo:routepoint_id>593299588</swisstopo:routepoint_id>
				</extensions>
			</trkpt>
			<trkpt lat="47.2002202221" lon="7.5291121563">
				<ele>431.5</ele>
				<time>2021-04-12T10:56:38+02:00</time>
				<extensions>
					<swisstopo:routepoint_id>819602495</swisstopo:routepoint_id>
				</extensions>
			</trkpt>
			<trkpt lat="47.2001213016" lon="7.5292355407">
				<ele>431.6</ele>
				<time>2021-04-12T10:56:39+02:00</time>
				<extensions>
					<swisstopo:routepoint_id>1099021607</swisstopo:routepoint_id>
				</extensions>
			</trkpt>
			<trkpt lat="47.2000287092" lon="7.5293512147">
				<ele>431.7</ele>
				<time>2021-04-12T10:56:40+02:00</time>
				<extensions>
					<swisstopo:routepoint_id>749301002</swisstopo:routepoint_id>
				</extensions>
			</trkpt>
			<trkpt lat="47.1999432847" lon="7.5294579896">
				<ele>431.8</ele>
				<time>2021-04-12T10:56:41+02:00</time>
				<extensions>
					<swisstopo:routepoint_id>657834606</swisstopo:routepoint_id>
				</extensions>
			</trkpt>
			<trkpt lat="47.1998640384" lon="7.5295562082">
				<ele>431.9</ele>
				<time>2021-04-12T10:56:42+02:00</time>
				<extensions>
					<swisstopo:routepoint_id>980408286</swisstopo:routepoint_id>
				</extensions>
			</trkpt>
			<trkpt lat="47.1997899990" lon="7.5296465614">
				<ele>432.0</ele>
				<time>2021-04-12T10:56:43+02:00</time>
				<extensions>
					<swisstopo:routepoint_id>80039371</swisstopo:routepoint_id>
				</extensions>
			</trkpt>
			<trkpt lat="47.1997195015" lon="7.5297305528">
				<ele>432.1</ele>
				<time>2021-04-12T10:56:44+02:00</time>
				<extensions>
					<swisstopo:routepoint_id>896945375</swisstopo:routepoint_id>
				</extensions>
			</trkpt>
			<trkpt lat="47.1996514237" lon="7.5298093436">
				<ele>432.2</ele>
				<time>2021-04-12T10:56:45+02:00</time>
				<extensions>
					<swisstopo:routepoint_id>1773199332</swisstopo:routepoint_id>
				</extensions>
			</trkpt>
			<trkpt lat="47.1995849725" lon="7.5298835378">
				<ele>432.3</ele>
				<time>2021-04-12T10:56:46+02:00</time>
				<extensions>
					<swisstopo:routepoint_id>1530603505</swisstopo:routepoint_id>
				</extensions>
			</trkpt>
			<trkpt lat="47.1995194006" lon="7.5299533471">
				<ele>432.4</ele>
				<time>2021-04-12T10:56:47+02:00</time>
				<extensions>
					<swisstopo:routepoint_id>146501122</swisstopo:routepoint_id>
				</extensions>
			</trkpt>
			<trkpt lat="47.1994542323" lon="7.5300200391">
				<ele>432.5</ele>
				<time>2021-04-12T10:56:48+02:00</time>
				<extensions>
					<swisstopo:routepoint_id>1228097992</swisstopo:routepoint_id>
				</extensions>
			</trkpt>
			<trkpt lat="47.1993892488" lon="7.5300837214">
				<ele>432.6</ele>
				<time>2021-04-12T10:56:49+02:00</time>
				<extensions>
					<swisstopo:routepoint_id>1177620227</swisstopo:routepoint_id>
				</extensions>
			</trkpt>
			<trkpt lat="47.1993248836" lon="7.5301448521">
				<ele>432.7</ele>
				<time>2021-04-12T10:56:50+02:00</time>
				<extensions>
					<swisstopo:routepoint_id>1053864437</swisstopo:routepoint_id>
				</extensions>
			</trkpt>
			<trkpt lat="47.1992613707" lon="7.5302030163">
				<ele>432.9</ele>
				<time>2021-04-12T10:56:51+02:00</time>
				<extensions>
					<swisstopo:routepoint_id>2001955850</swisstopo:routepoint_id>
				</extensions>
			</trkpt>
			<trkpt lat="47.1991991980" lon="7.5302579191">
				<ele>433.0</ele>
				<time>2021-04-12T10:56:52+02:00</time>
				<extensions>
					<swisstopo:routepoint_id>98189754</swisstopo:routepoint_id>
				</extensions>
			</trkpt>
			<trkpt lat="47.1991392222" lon="7.5303083977">
				<ele>433.2</ele>
				<time>2021-04-12T10:56:53+02:00</time>
				<extensions>
					<swisstopo:routepoint_id>1007754582</swisstopo:routepoint_id>
				</extensions>
			</trkpt>
			<trkpt lat="47.1990819592" lon="7.5303538393">
				<ele>433.3</ele>
				<time>2021-04-12T10:56:54+02:00</time>
				<extensions>
					<swisstopo:routepoint_id>127735785</swisstopo:routepoint_id>
				</extensions>
			</trkpt>
			<trkpt lat="47.1990274918" lon="7.5303953213">
				<ele>433.5</ele>
				<time>2021-04-12T10:56:55+02:00</time>
				<extensions>
					<swisstopo:routepoint_id>1519175142</swisstopo:routepoint_id>
				</extensions>
			</trkpt>
			<trkpt lat="47.1989751376" lon="7.5304338439">
				<ele>433.6</ele>
				<time>2021-04-12T10:56:56+02:00</time>
				<extensions>
					<swisstopo:routepoint_id>1343532411</swisstopo:routepoint_id>
				</extensions>
			</trkpt>
			<trkpt lat="47.1989236525" lon="7.5304714045">
				<ele>433.7</ele>
				<time>2021-04-12T10:56:57+02:00</time>
				<extensions>
					<swisstopo:routepoint_id>2106167119</swisstopo:routepoint_id>
				</extensions>
			</trkpt>
			<trkpt lat="47.1988723681" lon="7.5305104186">
				<ele>433.8</ele>
				<time>2021-04-12T10:56:58+02:00</time>
				<extensions>
					<swisstopo:routepoint_id>1377815532</swisstopo:routepoint_id>
				</extensions>
			</trkpt>
			<trkpt lat="47.1988216204" lon="7.5305506832">
				<ele>433.9</ele>
				<time>2021-04-12T10:56:59+02:00</time>
				<extensions>
					<swisstopo:routepoint_id>629480723</swisstopo:routepoint_id>
				</extensions>
			</trkpt>
			<trkpt lat="47.1987723655" lon="7.5305899470">
				<ele>434.1</ele>
				<time>2021-04-12T10:57:00+02:00</time>
				<extensions>
					<swisstopo:routepoint_id>1178066339</swisstopo:routepoint_id>
				</extensions>
			</trkpt>
			<trkpt lat="47.1987258621" lon="7.5306257946">
				<ele>434.2</ele>
				<time>2021-04-12T10:57:01+02:00</time>
				<extensions>
					<swisstopo:routepoint_id>2109217880</swisstopo:routepoint_id>
				</extensions>
			</trkpt>
			<trkpt lat="47.1986839240" lon="7.5306569797">
				<ele>434.2</ele>
				<time>2021-04-12T10:57:02+02:00</time>
				<extensions>
					<swisstopo:routepoint_id>1112348131</swisstopo:routepoint_id>
				</extensions>
			</trkpt>
			<trkpt lat="47.1986483699" lon="7.5306821986">
				<ele>434.3</ele>
				<time>2021-04-12T10:57:03+02:00</time>
				<extensions>
					<swisstopo:routepoint_id>1389890582</swisstopo:routepoint_id>
				</extensions>
			</trkpt>
			<trkpt lat="47.1986204040" lon="7.5307009495">
				<ele>434.3</ele>
				<time>2021-04-12T10:57:04+02:00</time>
				<extensions>
					<swisstopo:routepoint_id>1711383255</swisstopo:routepoint_id>
				</extensions>
			</trkpt>
			<trkpt lat="47.1985997795" lon="7.5307135276">
				<ele>434.3</ele>
				<time>2021-04-12T10:57:05+02:00</time>
				<extensions>
					<swisstopo:routepoint_id>1969882514</swisstopo:routepoint_id>
				</extensions>
			</trkpt>
			<trkpt lat="47.1985858120" lon="7.5307207888">
				<ele>434.3</ele>
				<time>2021-04-12T10:57:06+02:00</time>
				<extensions>
					<swisstopo:routepoint_id>60026999</swisstopo:routepoint_id>
				</extensions>
			</trkpt>
			<trkpt lat="47.1985777841" lon="7.5307235560">
				<ele>434.3</ele>
				<time>2021-04-12T10:57:07+02:00</time>
				<extensions>
					<swisstopo:routepoint_id>1703941750</swisstopo:routepoint_id>
				</extensions>
			</trkpt>
			<trkpt lat="47.1985744459" lon="7.5307228001">
				<ele>434.3</ele>
				<time>2021-04-12T10:57:08+02:00</time>
				<extensions>
					<swisstopo:routepoint_id>1454559505</swisstopo:routepoint_id>
				</extensions>
			</trkpt>
			<trkpt lat="47.1985745174" lon="7.5307196335">
				<ele>434.2</ele>
				<time>2021-04-12T10:57:09+02:00</time>
				<extensions>
					<swisstopo:routepoint_id>1975246734</swisstopo:routepoint_id>
				</extensions>
			</trkpt>
			<trkpt lat="47.1985768496" lon="7.5307151485">
				<ele>434.2</ele>
				<time>2021-04-12T10:57:10+02:00</time>
				<extensions>
					<swisstopo:routepoint_id>22159365</swisstopo:routepoint_id>
				</extensions>
			</trkpt>
			<trkpt lat="47.1985801266" lon="7.5307101902">
				<ele>434.1</ele>
				<time>2021-04-12T10:57:11+02:00</time>
				<extensions>
					<swisstopo:routepoint_id>917776624</swisstopo:routepoint_id>
				</extensions>
			</trkpt>
			<trkpt lat="47.1985835437" lon="7.5307052147">
				<ele>434.1</ele>
				<time>2021-04-12T10:57:12+02:00</time>
				<extensions>
					<swisstopo:routepoint_id>1844166814</swisstopo:routepoint_id>
				</extensions>
			</trkpt>
			<trkpt lat="47.1985861074" lon="7.5307008461">
				<ele>434.1</ele>
				<time>2021-04-12T10:57:13+02:00</time>
				<extensions>
					<swisstopo:routepoint_id>280165747</swisstopo:routepoint_id>
				</extensions>
			</trkpt>
			<trkpt lat="47.1985861369" lon="7.5306982016">
				<ele>434.0</ele>
				<time>2021-04-12T10:57:14+02:00</time>
				<extensions>
					<swisstopo:routepoint_id>1461555605</swisstopo:routepoint_id>
				</extensions>
			</trkpt>
			<trkpt lat="47.1985815000" lon="7.5306985222">
				<ele>434.0</ele>
				<time>2021-04-12T10:57:15+02:00</time>
				<extensions>
					<swisstopo:routepoint_id>1447098849</swisstopo:routepoint_id>
				</extensions>
			</trkpt>
			<trkpt lat="47.1985709819" lon="7.5307025469">
				<ele>434.0</ele>
				<time>2021-04-12T10:57:16+02:00</time>
				<extensions>
					<swisstopo:routepoint_id>1138052868</swisstopo:routepoint_id>
				</extensions>
			</trkpt>
			<trkpt lat="47.1985545421" lon="7.5307101008">
				<ele>434.0</ele>
				<time>2021-04-12T10:57:17+02:00</time>
				<extensions>
					<swisstopo:routepoint_id>1765192294</swisstopo:routepoint_id>
				</extensions>
			</trkpt>
			<trkpt lat="47.1985332114" lon="7.5307207659">
				<ele>434.0</ele>
				<time>2021-04-12T10:57:18+02:00</time>
				<extensions>
					<swisstopo:routepoint_id>100301953</swisstopo:routepoint_id>
				</extensions>
			</trkpt>
			<trkpt lat="47.1985083844" lon="7.5307336327">
				<ele>434.1</ele>
				<time>2021-04-12T10:57:19+02:00</time>
				<extensions>
					<swisstopo:routepoint_id>261176</swisstopo:routepoint_id>
				</extensions>
			</trkpt>
			<trkpt lat="47.1984817980" lon="7.5307476578">
				<ele>434.1</ele>
				<time>2021-04-12T10:57:20+02:00</time>
				<extensions>
					<swisstopo:routepoint_id>94617738</swisstopo:routepoint_id>
				</extensions>
			</trkpt>
			<trkpt lat="47.1984551252" lon="7.5307617885">
				<ele>434.1</ele>
				<time>2021-04-12T10:57:21+02:00</time>
				<extensions>
					<swisstopo:routepoint_id>1102423786</swisstopo:routepoint_id>
				</extensions>
			</trkpt>
			<trkpt lat="47.1984296057" lon="7.5307752963">
				<ele>434.1</ele>
				<time>2021-04-12T10:57:22+02:00</time>
				<extensions>
					<swisstopo:routepoint_id>2095148633</swisstopo:routepoint_id>
				</extensions>
			</trkpt>
			<trkpt lat="47.1984066556" lon="7.5307873382">
				<ele>434.2</ele>
				<time>2021-04-12T10:57:23+02:00</time>
				<extensions>
					<swisstopo:routepoint_id>873714972</swisstopo:routepoint_id>
				</extensions>
			</trkpt>
			<trkpt lat="47.1983877406" lon="7.5307971264">
				<ele>434.2</ele>
				<time>2021-04-12T10:57:24+02:00</time>
				<extensions>
					<swisstopo:routepoint_id>34356218</swisstopo:routepoint_id>
				</extensions>
			</trkpt>
			<trkpt lat="47.1983733477" lon="7.5308044366">
				<ele>434.2</ele>
				<time>2021-04-12T10:57:25+02:00</time>
				<extensions>
					<swisstopo:routepoint_id>1899338530</swisstopo:routepoint_id>
				</extensions>
			</trkpt>
			<trkpt lat="47.1983630970" lon="7.5308094887">
				<ele>434.2</ele>
				<time>2021-04-12T10:57:26+02:00</time>
				<extensions>
					<swisstopo:routepoint_id>1985744702</swisstopo:routepoint_id>
				</extensions>
			</trkpt>
			<trkpt lat="47.1983563723" lon="7.5308127382">
				<ele>434.2</ele>
				<time>2021-04-12T10:57:27+02:00</time>
				<extensions>
					<swisstopo:routepoint_id>367848487</swisstopo:routepoint_id>
				</extensions>
			</trkpt>
			<trkpt lat="47.1983524311" lon="7.5308145902">
				<ele>434.3</ele>
				<time>2021-04-12T10:57:28+02:00</time>
				<extensions>
					<swisstopo:routepoint_id>1971584943</swisstopo:routepoint_id>
				</extensions>
			</trkpt>
			<trkpt lat="47.1983507320" lon="7.5308152811">
				<ele>434.3</ele>
				<time>2021-04-12T10:57:29+02:00</time>
				<extensions>
					<swisstopo:routepoint_id>755463791</swisstopo:routepoint_id>
				</extensions>
			</trkpt>
			<trkpt lat="47.1983507712" lon="7.5308150535">
				<ele>434.3</ele>
				<time>2021-04-12T10:57:30+02:00</time>
				<extensions>
					<swisstopo:routepoint_id>1156614273</swisstopo:routepoint_id>
				</extensions>
			</trkpt>
			<trkpt lat="47.1983521056" lon="7.5308140234">
				<ele>434.3</ele>
				<time>2021-04-12T10:57:31+02:00</time>
				<extensions>
					<swisstopo:routepoint_id>194113667</swisstopo:routepoint_id>
				</extensions>
			</trkpt>
			<trkpt lat="47.1983543395" lon="7.5308124735">
				<ele>434.4</ele>
				<time>2021-04-12T10:57:32+02:00</time>
				<extensions>
					<swisstopo:routepoint_id>440741476</swisstopo:routepoint_id>
				</extensions>
			</trkpt>
			<trkpt lat="47.1983571575" lon="7.5308105427">
				<ele>434.4</ele>
				<time>2021-04-12T10:57:33+02:00</time>
				<extensions>
					<swisstopo:routepoint_id>870888629</swisstopo:routepoint_id>
				</extensions>
			</trkpt>
			<trkpt lat="47.1983602611" lon="7.5308083964">
				<ele>434.4</ele>
				<time>2021-04-12T10:57:34+02:00</time>
				<extensions>
					<swisstopo:routepoint_id>1924133298</swisstopo:routepoint_id>
				</extensions>
			</trkpt>
			<trkpt lat="47.1983635987" lon="7.5308062426">
				<ele>434.4</ele>
				<time>2021-04-12T10:57:35+02:00</time>
				<extensions>
					<swisstopo:routepoint_id>2099582960</swisstopo:routepoint_id>
				</extensions>
			</trkpt>
			<trkpt lat="47.1983669990" lon="7.5308041749">
				<ele>434.4</ele>
				<time>2021-04-12T10:57:36+02:00</time>
				<extensions>
					<swisstopo:routepoint_id>239521216</swisstopo:routepoint_id>
				</extensions>
			</trkpt>
			<trkpt lat="47.1983703506" lon="7.5308022739">
				<ele>434.5</ele>
				<time>2021-04-12T10:57:37+02:00</time>
				<extensions>
					<swisstopo:routepoint_id>1248722834</swisstopo:routepoint_id>
				</extensions>
			</trkpt>
			<trkpt lat="47.1983735724" lon="7.5308005375">
				<ele>434.5</ele>
				<time>2021-04-12T10:57:38+02:00</time>
				<extensions>
					<swisstopo:routepoint_id>2074472554</swisstopo:routepoint_id>
				</extensions>
			</trkpt>
			<trkpt lat="47.1983765199" lon="7.5307989955">
				<ele>434.5</ele>
				<time>2021-04-12T10:57:39+02:00</time>
				<extensions>
					<swisstopo:routepoint_id>1263206033</swisstopo:routepoint_id>
				</extensions>
			</trkpt>
			<trkpt lat="47.1983791189" lon="7.5307975879">
				<ele>434.5</ele>
				<time>2021-04-12T10:57:40+02:00</time>
				<extensions>
					<swisstopo:routepoint_id>680462389</swisstopo:routepoint_id>
				</extensions>
			</trkpt>
			<trkpt lat="47.1983813469" lon="7.5307962778">
				<ele>434.5</ele>
				<time>2021-04-12T10:57:41+02:00</time>
				<extensions>
					<swisstopo:routepoint_id>1180951648</swisstopo:routepoint_id>
				</extensions>
			</trkpt>
			<trkpt lat="47.1983831964" lon="7.5307951115">
				<ele>434.6</ele>
				<time>2021-04-12T10:57:42+02:00</time>
				<extensions>
					<swisstopo:routepoint_id>1210482362</swisstopo:routepoint_id>
				</extensions>
			</trkpt>
			<trkpt lat="47.1983847487" lon="7.5307941046">
				<ele>434.6</ele>
				<time>2021-04-12T10:57:43+02:00</time>
				<extensions>
					<swisstopo:routepoint_id>1464470103</swisstopo:routepoint_id>
				</extensions>
			</trkpt>
			<trkpt lat="47.1983860480" lon="7.5307932627">
				<ele>434.6</ele>
				<time>2021-04-12T10:57:44+02:00</time>
				<extensions>
					<swisstopo:routepoint_id>1038942854</swisstopo:routepoint_id>
				</extensions>
			</trkpt>
			<trkpt lat="47.1983870886" lon="7.5307926645">
				<ele>434.6</ele>
				<time>2021-04-12T10:57:45+02:00</time>
				<extensions>
					<swisstopo:routepoint_id>323013421</swisstopo:routepoint_id>
				</extensions>
			</trkpt>
			<trkpt lat="47.1983878741" lon="7.5307922609">
				<ele>434.6</ele>
				<time>2021-04-12T10:57:46+02:00</time>
				<extensions>
					<swisstopo:routepoint_id>47907131</swisstopo:routepoint_id>
				</extensions>
			</trkpt>
			<trkpt lat="47.1983883863" lon="7.5307920438">
				<ele>434.7</ele>
				<time>2021-04-12T10:57:47+02:00</time>
				<extensions>
					<swisstopo:routepoint_id>2016266739</swisstopo:routepoint_id>
				</extensions>
			</trkpt>
			<trkpt lat="47.1983886731" lon="7.5307919643">
				<ele>434.7</ele>
				<time>2021-04-12T10:57:48+02:00</time>
				<extensions>
					<swisstopo:routepoint_id>103132713</swisstopo:routepoint_id>
				</extensions>
			</trkpt>
			<trkpt lat="47.1983887752" lon="7.5307920135">
				<ele>434.7</ele>
				<time>2021-04-12T10:57:49+02:00</time>
				<extensions>
					<swisstopo:routepoint_id>332204262</swisstopo:routepoint_id>
				</extensions>
			</trkpt>
			<trkpt lat="47.1983887481" lon="7.5307922370">
				<ele>434.7</ele>
				<time>2021-04-12T10:57:50+02:00</time>
				<extensions>
					<swisstopo:routepoint_id>2047032881</swisstopo:routepoint_id>
				</extensions>
			</trkpt>
			<trkpt lat="47.1983884890" lon="7.5307926112">
				<ele>434.7</ele>
				<time>2021-04-12T10:57:51+02:00</time>
				<extensions>
					<swisstopo:routepoint_id>1793606027</swisstopo:routepoint_id>
				</extensions>
			</trkpt>
			<trkpt lat="47.1983879286" lon="7.5307931470">
				<ele>434.7</ele>
				<time>2021-04-12T10:57:52+02:00</time>
				<extensions>
					<swisstopo:routepoint_id>908542850</swisstopo:routepoint_id>
				</extensions>
			</trkpt>
			<trkpt lat="47.1983871973" lon="7.5307937451">
				<ele>434.7</ele>
				<time>2021-04-12T10:57:53+02:00</time>
				<extensions>
					<swisstopo:routepoint_id>1270949780</swisstopo:routepoint_id>
				</extensions>
			</trkpt>
			<trkpt lat="47.1983864398" lon="7.5307942524">
				<ele>434.7</ele>
				<time>2021-04-12T10:57:54+02:00</time>
				<extensions>
					<swisstopo:routepoint_id>1980599398</swisstopo:routepoint_id>
				</extensions>
			</trkpt>
			<trkpt lat="47.1983857345" lon="7.5307946715">
				<ele>434.7</ele>
				<time>2021-04-12T10:57:55+02:00</time>
				<extensions>
					<swisstopo:routepoint_id>1937553686</swisstopo:routepoint_id>
				</extensions>
			</trkpt>
			<trkpt lat="47.1983850999" lon="7.5307950363">
				<ele>434.7</ele>
				<time>2021-04-12T10:57:56+02:00</time>
				<extensions>
					<swisstopo:routepoint_id>22777494</swisstopo:routepoint_id>
				</extensions>
			</trkpt>
			<trkpt lat="47.1983844526" lon="7.5307952974">
				<ele>434.7</ele>
				<time>2021-04-12T10:57:57+02:00</time>
				<extensions>
					<swisstopo:routepoint_id>569252492</swisstopo:routepoint_id>
				</extensions>
			</trkpt>
			<trkpt lat="47.1983837112" lon="7.5307955617">
				<ele>434.6</ele>
				<time>2021-04-12T10:57:58+02:00</time>
				<extensions>
					<swisstopo:routepoint_id>386985659</swisstopo:routepoint_id>
				</extensions>
			</trkpt>
			<trkpt lat="47.1983826705" lon="7.5307959325">
				<ele>434.6</ele>
				<time>2021-04-12T10:57:59+02:00</time>
				<extensions>
					<swisstopo:routepoint_id>1487487697</swisstopo:routepoint_id>
				</extensions>
			</trkpt>
			<trkpt lat="47.1983812927" lon="7.5307964728">
				<ele>434.6</ele>
				<time>2021-04-12T10:58:00+02:00</time>
				<extensions>
					<swisstopo:routepoint_id>1348588752</swisstopo:routepoint_id>
				</extensions>
			</trkpt>
			<trkpt lat="47.1983795575" lon="7.5307971420">
				<ele>434.5</ele>
				<time>2021-04-12T10:58:01+02:00</time>
				<extensions>
					<swisstopo:routepoint_id>1188744426</swisstopo:routepoint_id>
				</extensions>
			</trkpt>
			<trkpt lat="47.1983776222" lon="7.5307978916">
				<ele>434.5</ele>
				<time>2021-04-12T10:58:02+02:00</time>
				<extensions>
					<swisstopo:routepoint_id>1187199741</swisstopo:routepoint_id>
				</extensions>
			</trkpt>
			<trkpt lat="47.1983757466" lon="7.5307986150">
				<ele>434.5</ele>
				<time>2021-04-12T10:58:03+02:00</time>
				<extensions>
					<swisstopo:routepoint_id>995482710</swisstopo:routepoint_id>
				</extensions>
			</trkpt>
			<trkpt lat="47.1983741156" lon="7.5307991850">
				<ele>434.5</ele>
				<time>2021-04-12T10:58:04+02:00</time>
				<extensions>
					<swisstopo:routepoint_id>32813193</swisstopo:routepoint_id>
				</extensions>
			</trkpt>
			<trkpt lat="47.1983727334" lon="7.5307996406">
				<ele>434.5</ele>
				<time>2021-04-12T10:58:05+02:00</time>
				<extensions>
					<swisstopo:routepoint_id>1735521119</swisstopo:routepoint_id>
				</extensions>
			</trkpt>
			<trkpt lat="47.1983715783" lon="7.5308000220">
				<ele>434.5</ele>
				<time>2021-04-12T10:58:06+02:00</time>
				<extensions>
					<swisstopo:routepoint_id>1780553479</swisstopo:routepoint_id>
				</extensions>
			</trkpt>
			<trkpt lat="47.1983706558" lon="7.5308003916">
				<ele>434.5</ele>
				<time>2021-04-12T10:58:07+02:00</time>
				<extensions>
					<swisstopo:routepoint_id>577700608</swisstopo:routepoint_id>
				</extensions>
			</trkpt>
			<trkpt lat="47.1983699525" lon="7.5308007634">
				<ele>434.5</ele>
				<time>2021-04-12T10:58:08+02:00</time>
				<extensions>
					<swisstopo:routepoint_id>640550569</swisstopo:routepoint_id>
				</extensions>
			</trkpt>
			<trkpt lat="47.1983694587" lon="7.5308010880">
				<ele>434.5</ele>
				<time>2021-04-12T10:58:09+02:00</time>
				<extensions>
					<swisstopo:routepoint_id>397890772</swisstopo:routepoint_id>
				</extensions>
			</trkpt>
			<trkpt lat="47.1983691479" lon="7.5308013753">
				<ele>434.5</ele>
				<time>2021-04-12T10:58:10+02:00</time>
				<extensions>
					<swisstopo:routepoint_id>86128246</swisstopo:routepoint_id>
				</extensions>
			</trkpt>
			<trkpt lat="47.1983689717" lon="7.5308016484">
				<ele>434.5</ele>
				<time>2021-04-12T10:58:11+02:00</time>
				<extensions>
					<swisstopo:routepoint_id>153452444</swisstopo:routepoint_id>
				</extensions>
			</trkpt>
			<trkpt lat="47.1983689205" lon="7.5308019043">
				<ele>434.5</ele>
				<time>2021-04-12T10:58:12+02:00</time>
				<extensions>
					<swisstopo:routepoint_id>2094849908</swisstopo:routepoint_id>
				</extensions>
			</trkpt>
			<trkpt lat="47.1983689596" lon="7.5308021568">
				<ele>434.5</ele>
				<time>2021-04-12T10:58:13+02:00</time>
				<extensions>
					<swisstopo:routepoint_id>148011191</swisstopo:routepoint_id>
				</extensions>
			</trkpt>
			<trkpt lat="47.1983690585" lon="7.5308023771">
				<ele>434.5</ele>
				<time>2021-04-12T10:58:14+02:00</time>
				<extensions>
					<swisstopo:routepoint_id>838023911</swisstopo:routepoint_id>
				</extensions>
			</trkpt>
			<trkpt lat="47.1983692068" lon="7.5308025797">
				<ele>434.6</ele>
				<time>2021-04-12T10:58:15+02:00</time>
				<extensions>
					<swisstopo:routepoint_id>1470115151</swisstopo:routepoint_id>
				</extensions>
			</trkpt>
			<trkpt lat="47.1983692833" lon="7.5308028506">
				<ele>434.6</ele>
				<time>2021-04-12T10:58:16+02:00</time>
				<extensions>
					<swisstopo:routepoint_id>1425984122</swisstopo:routepoint_id>
				</extensions>
			</trkpt>
			<trkpt lat="47.1983689338" lon="7.5308032616">
				<ele>434.6</ele>
				<time>2021-04-12T10:58:17+02:00</time>
				<extensions>
					<swisstopo:routepoint_id>597637934</swisstopo:routepoint_id>
				</extensions>
			</trkpt>
			<trkpt lat="47.1983676204" lon="7.5308040745">
				<ele>434.6</ele>
				<time>2021-04-12T10:58:18+02:00</time>
				<extensions>
					<swisstopo:routepoint_id>719739719</swisstopo:routepoint_id>
				</extensions>
			</trkpt>
			<trkpt lat="47.1983645383" lon="7.5308056819">
				<ele>434.6</ele>
				<time>2021-04-12T10:58:19+02:00</time>
				<extensions>
					<swisstopo:routepoint_id>2037557329</swisstopo:routepoint_id>
				</extensions>
			</trkpt>
			<trkpt lat="47.1983581451" lon="7.5308088152">
				<ele>434.6</ele>
				<time>2021-04-12T10:58:20+02:00</time>
				<extensions>
					<swisstopo:routepoint_id>1451793441</swisstopo:routepoint_id>
				</extensions>
			</trkpt>
			<trkpt lat="47.1983461692" lon="7.5308143581">
				<ele>434.6</ele>
				<time>2021-04-12T10:58:21+02:00</time>
				<extensions>
					<swisstopo:routepoint_id>583165673</swisstopo:routepoint_id>
				</extensions>
			</trkpt>
			<trkpt lat="47.1983267028" lon="7.5308227724">
				<ele>434.6</ele>
				<time>2021-04-12T10:58:22+02:00</time>
				<extensions>
					<swisstopo:routepoint_id>150101203</swisstopo:routepoint_id>
				</extensions>
			</trkpt>
			<trkpt lat="47.1982982838" lon="7.5308341838">
				<ele>434.6</ele>
				<time>2021-04-12T10:58:23+02:00</time>
				<extensions>
					<swisstopo:routepoint_id>1605117243</swisstopo:routepoint_id>
				</extensions>
			</trkpt>
			<trkpt lat="47.1982597997" lon="7.5308488673">
				<ele>434.6</ele>
				<time>2021-04-12T10:58:24+02:00</time>
				<extensions>
					<swisstopo:routepoint_id>515929487</swisstopo:routepoint_id>
				</extensions>
			</trkpt>
			<trkpt lat="47.1982107913" lon="7.5308676356">
				<ele>434.6</ele>
				<time>2021-04-12T10:58:25+02:00</time>
				<extensions>
					<swisstopo:routepoint_id>1835405070</swisstopo:routepoint_id>
				</extensions>
			</trkpt>
			<trkpt lat="47.1981510518" lon="7.5308912251">
				<ele>434.6</ele>
				<time>2021-04-12T10:58:26+02:00</time>
				<extensions>
					<swisstopo:routepoint_id>1197905982</swisstopo:routepoint_id>
				</extensions>
			</trkpt>
			<trkpt lat="47.1980808572" lon="7.5309200830">
				<ele>434.6</ele>
				<time>2021-04-12T10:58:27+02:00</time>
				<extensions>
					<swisstopo:routepoint_id>546648849</swisstopo:routepoint_id>
				</extensions>
			</trkpt>
			<trkpt lat="47.1980017724" lon="7.5309542019">
				<ele>434.6</ele>
				<time>2021-04-12T10:58:28+02:00</time>
				<extensions>
					<swisstopo:routepoint_id>592163277</swisstopo:routepoint_id>
				</extensions>
			</trkpt>
			<trkpt lat="47.1979160001" lon="7.5309931347">
				<ele>434.8</ele>
				<time>2021-04-12T10:58:29+02:00</time>
				<extensions>
					<swisstopo:routepoint_id>1048976341</swisstopo:routepoint_id>
				</extensions>
			</trkpt>
			<trkpt lat="47.1978256952" lon="7.5310361655">
				<ele>435.0</ele>
				<time>2021-04-12T10:58:30+02:00</time>
				<extensions>
					<swisstopo:routepoint_id>1452104964</swisstopo:routepoint_id>
				</extensions>
			</trkpt>
			<trkpt lat="47.1977334004" lon="7.5310818379">
				<ele>435.3</ele>
				<time>2021-04-12T10:58:31+02:00</time>
				<extensions>
					<swisstopo:routepoint_id>1523965440</swisstopo:routepoint_id>
				</extensions>
			</trkpt>
			<trkpt lat="47.1976411813" lon="7.5311284539">
				<ele>435.7</ele>
				<time>2021-04-12T10:58:32+02:00</time>
				<extensions>
					<swisstopo:routepoint_id>249692311</swisstopo:routepoint_id>
				</extensions>
			</trkpt>
			<trkpt lat="47.1975510287" lon="7.5311743056">
				<ele>436.2</ele>
				<time>2021-04-12T10:58:33+02:00</time>
				<extensions>
					<swisstopo:routepoint_id>395624739</swisstopo:routepoint_id>
				</extensions>
			</trkpt>
			<trkpt lat="47.1974647637" lon="7.5312177408">
				<ele>436.7</ele>
				<time>2021-04-12T10:58:34+02:00</time>
				<extensions>
					<swisstopo:routepoint_id>655617261</swisstopo:routepoint_id>
				</extensions>
			</trkpt>
			<trkpt lat="47.1973838459" lon="7.5312572745">
				<ele>437.2</ele>
				<time>2021-04-12T10:58:35+02:00</time>
				<extensions>
					<swisstopo:routepoint_id>220712870</swisstopo:routepoint_id>
				</extensions>
			</trkpt>
			<trkpt lat="47.1973089512" lon="7.5312917519">
				<ele>437.8</ele>
				<time>2021-04-12T10:58:36+02:00</time>
				<extensions>
					<swisstopo:routepoint_id>816947721</swisstopo:routepoint_id>
				</extensions>
			</trkpt>
			<trkpt lat="47.1972399961" lon="7.5313207575">
				<ele>438.4</ele>
				<time>2021-04-12T10:58:37+02:00</time>
				<extensions>
					<swisstopo:routepoint_id>1577391576</swisstopo:routepoint_id>
				</extensions>
			</trkpt>
			<trkpt lat="47.1971766427" lon="7.5313446378">
				<ele>438.9</ele>
				<time>2021-04-12T10:58:38+02:00</time>
				<extensions>
					<swisstopo:routepoint_id>534595617</swisstopo:routepoint_id>
				</extensions>
			</trkpt>
			<trkpt lat="47.1971190366" lon="7.5313645436">
				<ele>439.5</ele>
				<time>2021-04-12T10:58:39+02:00</time>
				<extensions>
					<swisstopo:routepoint_id>2024439518</swisstopo:routepoint_id>
				</extensions>
			</trkpt>
			<trkpt lat="47.1970673673" lon="7.5313822757">
				<ele>440.1</ele>
				<time>2021-04-12T10:58:40+02:00</time>
				<extensions>
					<swisstopo:routepoint_id>24075958</swisstopo:routepoint_id>
				</extensions>
			</trkpt>
			<trkpt lat="47.1970216479" lon="7.5313980665">
				<ele>440.7</ele>
				<time>2021-04-12T10:58:41+02:00</time>
				<extensions>
					<swisstopo:routepoint_id>917700470</swisstopo:routepoint_id>
				</extensions>
			</trkpt>
			<trkpt lat="47.1969821080" lon="7.5314120698">
				<ele>441.3</ele>
				<time>2021-04-12T10:58:42+02:00</time>
				<extensions>
					<swisstopo:routepoint_id>564246536</swisstopo:routepoint_id>
				</extensions>
			</trkpt>
			<trkpt lat="47.1969486934" lon="7.5314241525">
				<ele>441.8</ele>
				<time>2021-04-12T10:58:43+02:00</time>
				<extensions>
					<swisstopo:routepoint_id>3745400</swisstopo:routepoint_id>
				</extensions>
			</trkpt>
			<trkpt lat="47.1969207865" lon="7.5314342942">
				<ele>442.4</ele>
				<time>2021-04-12T10:58:44+02:00</time>
				<extensions>
					<swisstopo:routepoint_id>671912037</swisstopo:routepoint_id>
				</extensions>
			</trkpt>
			<trkpt lat="47.1968977237" lon="7.5314426838">
				<ele>442.9</ele>
				<time>2021-04-12T10:58:45+02:00</time>
				<extensions>
					<swisstopo:routepoint_id>1356589933</swisstopo:routepoint_id>
				</extensions>
			</trkpt>
			<trkpt lat="47.1968777843" lon="7.5314499566">
				<ele>443.5</ele>
				<time>2021-04-12T10:58:46+02:00</time>
				<extensions>
					<swisstopo:routepoint_id>373123732</swisstopo:routepoint_id>
				</extensions>
			</trkpt>
			<trkpt lat="47.1968592585" lon="7.5314559332">
				<ele>444.0</ele>
				<time>2021-04-12T10:58:47+02:00</time>
				<extensions>
					<swisstopo:routepoint_id>438314484</swisstopo:routepoint_id>
				</extensions>
			</trkpt>
			<trkpt lat="47.1968416614" lon="7.5314603601">
				<ele>444.7</ele>
				<time>2021-04-12T10:58:48+02:00</time>
				<extensions>
					<swisstopo:routepoint_id>882623378</swisstopo:routepoint_id>
				</extensions>
			</trkpt>
			<trkpt lat="47.1968249493" lon="7.5314624767">
				<ele>445.5</ele>
				<time>2021-04-12T10:58:49+02:00</time>
				<extensions>
					<swisstopo:routepoint_id>1581564217</swisstopo:routepoint_id>
				</extensions>
			</trkpt>
			<trkpt lat="47.1968083830" lon="7.5314622443">
				<ele>446.5</ele>
				<time>2021-04-12T10:58:50+02:00</time>
				<extensions>
					<swisstopo:routepoint_id>1944696200</swisstopo:routepoint_id>
				</extensions>
			</trkpt>
			<trkpt lat="47.1967902262" lon="7.5314597193">
				<ele>447.7</ele>
				<time>2021-04-12T10:58:51+02:00</time>
				<extensions>
					<swisstopo:routepoint_id>1955409707</swisstopo:routepoint_id>
				</extensions>
			</trkpt>
			<trkpt lat="47.1967718079" lon="7.5314578760">
				<ele>448.9</ele>
				<time>2021-04-12T10:58:52+02:00</time>
				<extensions>
					<swisstopo:routepoint_id>1628695508</swisstopo:routepoint_id>
				</extensions>
			</trkpt>
			<trkpt lat="47.1967504932" lon="7.5314590392">
				<ele>450.2</ele>
				<time>2021-04-12T10:58:53+02:00</time>
				<extensions>
					<swisstopo:routepoint_id>1658838294</swisstopo:routepoint_id>
				</extensions>
			</trkpt>
			<trkpt lat="47.1967247034" lon="7.5314643368">
				<ele>451.5</ele>
				<time>2021-04-12T10:58:54+02:00</time>
				<extensions>
					<swisstopo:routepoint_id>1462501904</swisstopo:routepoint_id>
				</extensions>
			</trkpt>
			<trkpt lat="47.1966935881" lon="7.5314743464">
				<ele>452.7</ele>
				<time>2021-04-12T10:58:55+02:00</time>
				<extensions>
					<swisstopo:routepoint_id>171676966</swisstopo:routepoint_id>
				</extensions>
			</trkpt>
			<trkpt lat="47.1964280026" lon="7.5315977003">
				<ele>457.6</ele>
				<time>2021-04-12T10:59:00+02:00</time>
				<extensions>
					<swisstopo:routepoint_id>1304229641</swisstopo:routepoint_id>
				</extensions>
			</trkpt>
			<trkpt lat="47.1963146316" lon="7.5316864971">
				<ele>457.7</ele>
				<time>2021-04-12T10:59:01+02:00</time>
				<extensions>
					<swisstopo:routepoint_id>821991358</swisstopo:routepoint_id>
				</extensions>
			</trkpt>
			<trkpt lat="47.1962192194" lon="7.5317706414">
				<ele>457.5</ele>
				<time>2021-04-12T10:59:02+02:00</time>
				<extensions>
					<swisstopo:routepoint_id>446452755</swisstopo:routepoint_id>
				</extensions>
			</trkpt>
			<trkpt lat="47.1961307854" lon="7.5318503348">
				<ele>457.0</ele>
				<time>2021-04-12T10:59:03+02:00</time>
				<extensions>
					<swisstopo:routepoint_id>223590667</swisstopo:routepoint_id>
				</extensions>
			</trkpt>
			<trkpt lat="47.1960454817" lon="7.5319279453">
				<ele>456.6</ele>
				<time>2021-04-12T10:59:04+02:00</time>
				<extensions>
					<swisstopo:routepoint_id>1939441666</swisstopo:routepoint_id>
				</extensions>
			</trkpt>
			<trkpt lat="47.1959640641" lon="7.5320031459">
				<ele>456.1</ele>
				<time>2021-04-12T10:59:05+02:00</time>
				<extensions>
					<swisstopo:routepoint_id>1689286296</swisstopo:routepoint_id>
				</extensions>
			</trkpt>
			<trkpt lat="47.1958866260" lon="7.5320778579">
				<ele>455.7</ele>
				<time>2021-04-12T10:59:06+02:00</time>
				<extensions>
					<swisstopo:routepoint_id>2100963532</swisstopo:routepoint_id>
				</extensions>
			</trkpt>
			<trkpt lat="47.1958120641" lon="7.5321523438">
				<ele>455.4</ele>
				<time>2021-04-12T10:59:07+02:00</time>
				<extensions>
					<swisstopo:routepoint_id>1967958350</swisstopo:routepoint_id>
				</extensions>
			</trkpt>
			<trkpt lat="47.1957394884" lon="7.5322271887">
				<ele>455.2</ele>
				<time>2021-04-12T10:59:08+02:00</time>
				<extensions>
					<swisstopo:routepoint_id>2080341003</swisstopo:routepoint_id>
				</extensions>
			</trkpt>
			<trkpt lat="47.1956691742" lon="7.5323024489">
				<ele>455.1</ele>
				<time>2021-04-12T10:59:09+02:00</time>
				<extensions>
					<swisstopo:routepoint_id>1109980614</swisstopo:routepoint_id>
				</extensions>
			</trkpt>
			<trkpt lat="47.1956001987" lon="7.5323797936">
				<ele>455.1</ele>
				<time>2021-04-12T10:59:10+02:00</time>
				<extensions>
					<swisstopo:routepoint_id>253738009</swisstopo:routepoint_id>
				</extensions>
			</trkpt>
			<trkpt lat="47.1955323647" lon="7.5324586887">
				<ele>455.1</ele>
				<time>2021-04-12T10:59:11+02:00</time>
				<extensions>
					<swisstopo:routepoint_id>1819677968</swisstopo:routepoint_id>
				</extensions>
			</trkpt>
			<trkpt lat="47.1954655135" lon="7.5325391332">
				<ele>455.3</ele>
				<time>2021-04-12T10:59:12+02:00</time>
				<extensions>
					<swisstopo:routepoint_id>1012991249</swisstopo:routepoint_id>
				</extensions>
			</trkpt>
			<trkpt lat="47.1954002628" lon="7.5326213567">
				<ele>455.5</ele>
				<time>2021-04-12T10:59:13+02:00</time>
				<extensions>
					<swisstopo:routepoint_id>93568527</swisstopo:routepoint_id>
				</extensions>
			</trkpt>
			<trkpt lat="47.1953370507" lon="7.5327063416">
				<ele>455.7</ele>
				<time>2021-04-12T10:59:14+02:00</time>
				<extensions>
					<swisstopo:routepoint_id>648203685</swisstopo:routepoint_id>
				</extensions>
			</trkpt>
			<trkpt lat="47.1952762363" lon="7.5327941820">
				<ele>455.9</ele>
				<time>2021-04-12T10:59:15+02:00</time>
				<extensions>
					<swisstopo:routepoint_id>174792564</swisstopo:routepoint_id>
				</extensions>
			</trkpt>
			<trkpt lat="47.1952178170" lon="7.5328848072">
				<ele>456.1</ele>
				<time>2021-04-12T10:59:16+02:00</time>
				<extensions>
					<swisstopo:routepoint_id>2128477699</swisstopo:routepoint_id>
				</extensions>
			</trkpt>
			<trkpt lat="47.1951615182" lon="7.5329795500">
				<ele>456.4</ele>
				<time>2021-04-12T10:59:17+02:00</time>
				<extensions>
					<swisstopo:routepoint_id>542095367</swisstopo:routepoint_id>
				</extensions>
			</trkpt>
			<trkpt lat="47.1951071788" lon="7.5330799432">
				<ele>456.6</ele>
				<time>2021-04-12T10:59:18+02:00</time>
				<extensions>
					<swisstopo:routepoint_id>1371202595</swisstopo:routepoint_id>
				</extensions>
			</trkpt>
			<trkpt lat="47.1950547990" lon="7.5331862779">
				<ele>456.8</ele>
				<time>2021-04-12T10:59:19+02:00</time>
				<extensions>
					<swisstopo:routepoint_id>1154998208</swisstopo:routepoint_id>
				</extensions>
			</trkpt>
			<trkpt lat="47.1950043333" lon="7.5332984211">
				<ele>457.0</ele>
				<time>2021-04-12T10:59:20+02:00</time>
				<extensions>
					<swisstopo:routepoint_id>950196623</swisstopo:routepoint_id>
				</extensions>
			</trkpt>
			<trkpt lat="47.1949562856" lon="7.5334154589">
				<ele>457.1</ele>
				<time>2021-04-12T10:59:21+02:00</time>
				<extensions>
					<swisstopo:routepoint_id>1266243669</swisstopo:routepoint_id>
				</extensions>
			</trkpt>
			<trkpt lat="47.1949115837" lon="7.5335364337">
				<ele>457.3</ele>
				<time>2021-04-12T10:59:22+02:00</time>
				<extensions>
					<swisstopo:routepoint_id>194403113</swisstopo:routepoint_id>
				</extensions>
			</trkpt>
			<trkpt lat="47.1948703594" lon="7.5336612968">
				<ele>457.3</ele>
				<time>2021-04-12T10:59:23+02:00</time>
				<extensions>
					<swisstopo:routepoint_id>1010493104</swisstopo:routepoint_id>
				</extensions>
			</trkpt>
			<trkpt lat="47.1948323425" lon="7.5337910603">
				<ele>457.3</ele>
				<time>2021-04-12T10:59:24+02:00</time>
				<extensions>
					<swisstopo:routepoint_id>1056918452</swisstopo:routepoint_id>
				</extensions>
			</trkpt>
			<trkpt lat="47.1947971711" lon="7.5339266725">
				<ele>457.3</ele>
				<time>2021-04-12T10:59:25+02:00</time>
				<extensions>
					<swisstopo:routepoint_id>1791178427</swisstopo:routepoint_id>
				</extensions>
			</trkpt>
			<trkpt lat="47.1947650309" lon="7.5340688551">
				<ele>457.2</ele>
				<time>2021-04-12T10:59:26+02:00</time>
				<extensions>
					<swisstopo:routepoint_id>910058943</swisstopo:routepoint_id>
				</extensions>
			</trkpt>
			<trkpt lat="47.1947362662" lon="7.5342179624">
				<ele>457.0</ele>
				<time>2021-04-12T10:59:27+02:00</time>
				<extensions>
					<swisstopo:routepoint_id>982121067</swisstopo:routepoint_id>
				</extensions>
			</trkpt>
			<trkpt lat="47.1947113324" lon="7.5343742626">
				<ele>456.7</ele>
				<time>2021-04-12T10:59:28+02:00</time>
				<extensions>
					<swisstopo:routepoint_id>949462227</swisstopo:routepoint_id>
				</extensions>
			</trkpt>
			<trkpt lat="47.1946907318" lon="7.5345389139">
				<ele>456.4</ele>
				<time>2021-04-12T10:59:29+02:00</time>
				<extensions>
					<swisstopo:routepoint_id>1808151979</swisstopo:routepoint_id>
				</extensions>
			</trkpt>
			<trkpt lat="47.1946749502" lon="7.5347120126">
				<ele>456.0</ele>
				<time>2021-04-12T10:59:30+02:00</time>
				<extensions>
					<swisstopo:routepoint_id>569222356</swisstopo:routepoint_id>
				</extensions>
			</trkpt>
			<trkpt lat="47.1946645807" lon="7.5348927926">
				<ele>455.6</ele>
				<time>2021-04-12T10:59:31+02:00</time>
				<extensions>
					<swisstopo:routepoint_id>2027973554</swisstopo:routepoint_id>
				</extensions>
			</trkpt>
			<trkpt lat="47.1946590741" lon="7.5350807436">
				<ele>455.1</ele>
				<time>2021-04-12T10:59:32+02:00</time>
				<extensions>
					<swisstopo:routepoint_id>1438560541</swisstopo:routepoint_id>
				</extensions>
			</trkpt>
			<trkpt lat="47.1946574051" lon="7.5352746560">
				<ele>454.7</ele>
				<time>2021-04-12T10:59:33+02:00</time>
				<extensions>
					<swisstopo:routepoint_id>1516114661</swisstopo:routepoint_id>
				</extensions>
			</trkpt>
			<trkpt lat="47.1946591441" lon="7.5354733005">
				<ele>454.4</ele>
				<time>2021-04-12T10:59:34+02:00</time>
				<extensions>
					<swisstopo:routepoint_id>1445635772</swisstopo:routepoint_id>
				</extensions>
			</trkpt>
			<trkpt lat="47.1946637003" lon="7.5356781852">
				<ele>454.3</ele>
				<time>2021-04-12T10:59:35+02:00</time>
				<extensions>
					<swisstopo:routepoint_id>170437846</swisstopo:routepoint_id>
				</extensions>
			</trkpt>
			<trkpt lat="47.1946687868" lon="7.5358893163">
				<ele>454.3</ele>
				<time>2021-04-12T10:59:36+02:00</time>
				<extensions>
					<swisstopo:routepoint_id>1953176271</swisstopo:routepoint_id>
				</extensions>
			</trkpt>
			<trkpt lat="47.1946735966" lon="7.5361046743">
				<ele>454.6</ele>
				<time>2021-04-12T10:59:37+02:00</time>
				<extensions>
					<swisstopo:routepoint_id>598558655</swisstopo:routepoint_id>
				</extensions>
			</trkpt>
			<trkpt lat="47.1946814572" lon="7.5363224452">
				<ele>454.8</ele>
				<time>2021-04-12T10:59:38+02:00</time>
				<extensions>
					<swisstopo:routepoint_id>1161912037</swisstopo:routepoint_id>
				</extensions>
			</trkpt>
			<trkpt lat="47.1946924519" lon="7.5365406465">
				<ele>455.0</ele>
				<time>2021-04-12T10:59:39+02:00</time>
				<extensions>
					<swisstopo:routepoint_id>1186803688</swisstopo:routepoint_id>
				</extensions>
			</trkpt>
			<trkpt lat="47.1947057723" lon="7.5367586610">
				<ele>455.1</ele>
				<time>2021-04-12T10:59:40+02:00</time>
				<extensions>
					<swisstopo:routepoint_id>781470880</swisstopo:routepoint_id>
				</extensions>
			</trkpt>
			<trkpt lat="47.1947196499" lon="7.5369770218">
				<ele>455.2</ele>
				<time>2021-04-12T10:59:41+02:00</time>
				<extensions>
					<swisstopo:routepoint_id>171095108</swisstopo:routepoint_id>
				</extensions>
			</trkpt>
			<trkpt lat="47.1947335182" lon="7.5371975605">
				<ele>455.2</ele>
				<time>2021-04-12T10:59:42+02:00</time>
				<extensions>
					<swisstopo:routepoint_id>114876823</swisstopo:routepoint_id>
				</extensions>
			</trkpt>
			<trkpt lat="47.1947471035" lon="7.5374204780">
				<ele>455.2</ele>
				<time>2021-04-12T10:59:43+02:00</time>
				<extensions>
					<swisstopo:routepoint_id>146965508</swisstopo:routepoint_id>
				</extensions>
			</trkpt>
			<trkpt lat="47.1947606282" lon="7.5376469599">
				<ele>455.3</ele>
				<time>2021-04-12T10:59:44+02:00</time>
				<extensions>
					<swisstopo:routepoint_id>443098906</swisstopo:routepoint_id>
				</extensions>
			</trkpt>
			<trkpt lat="47.1947751662" lon="7.5378784564">
				<ele>455.4</ele>
				<time>2021-04-12T10:59:45+02:00</time>
				<extensions>
					<swisstopo:routepoint_id>1837508993</swisstopo:routepoint_id>
				</extensions>
			</trkpt>
			<trkpt lat="47.1947911067" lon="7.5381162163">
				<ele>455.4</ele>
				<time>2021-04-12T10:59:46+02:00</time>
				<extensions>
					<swisstopo:routepoint_id>51317844</swisstopo:routepoint_id>
				</extensions>
			</trkpt>
			<trkpt lat="47.1948098152" lon="7.5383600930">
				<ele>455.5</ele>
				<time>2021-04-12T10:59:47+02:00</time>
				<extensions>
					<swisstopo:routepoint_id>1358061661</swisstopo:routepoint_id>
				</extensions>
			</trkpt>
			<trkpt lat="47.1948303187" lon="7.5386099631">
				<ele>455.6</ele>
				<time>2021-04-12T10:59:48+02:00</time>
				<extensions>
					<swisstopo:routepoint_id>1486136111</swisstopo:routepoint_id>
				</extensions>
			</trkpt>
			<trkpt lat="47.1948510781" lon="7.5388645785">
				<ele>455.6</ele>
				<time>2021-04-12T10:59:49+02:00</time>
				<extensions>
					<swisstopo:routepoint_id>107319320</swisstopo:routepoint_id>
				</extensions>
			</trkpt>
			<trkpt lat="47.1948728545" lon="7.5391220225">
				<ele>455.7</ele>
				<time>2021-04-12T10:59:50+02:00</time>
				<extensions>
					<swisstopo:routepoint_id>1977031407</swisstopo:routepoint_id>
				</extensions>
			</trkpt>
			<trkpt lat="47.1948955756" lon="7.5393798324">
				<ele>455.7</ele>
				<time>2021-04-12T10:59:51+02:00</time>
				<extensions>
					<swisstopo:routepoint_id>2099871065</swisstopo:routepoint_id>
				</extensions>
			</trkpt>
			<trkpt lat="47.1949185928" lon="7.5396368323">
				<ele>455.7</ele>
				<time>2021-04-12T10:59:52+02:00</time>
				<extensions>
					<swisstopo:routepoint_id>786734657</swisstopo:routepoint_id>
				</extensions>
			</trkpt>
			<trkpt lat="47.1949423066" lon="7.5398920334">
				<ele>455.7</ele>
				<time>2021-04-12T10:59:53+02:00</time>
				<extensions>
					<swisstopo:routepoint_id>592565620</swisstopo:routepoint_id>
				</extensions>
			</trkpt>
			<trkpt lat="47.1949666084" lon="7.5401452260">
				<ele>455.6</ele>
				<time>2021-04-12T10:59:54+02:00</time>
				<extensions>
					<swisstopo:routepoint_id>1368704201</swisstopo:routepoint_id>
				</extensions>
			</trkpt>
			<trkpt lat="47.1949920939" lon="7.5403963569">
				<ele>455.5</ele>
				<time>2021-04-12T10:59:55+02:00</time>
				<extensions>
					<swisstopo:routepoint_id>2114163190</swisstopo:routepoint_id>
				</extensions>
			</trkpt>
			<trkpt lat="47.1950184324" lon="7.5406458802">
				<ele>455.5</ele>
				<time>2021-04-12T10:59:56+02:00</time>
				<extensions>
					<swisstopo:routepoint_id>476311068</swisstopo:routepoint_id>
				</extensions>
			</trkpt>
			<trkpt lat="47.1950456677" lon="7.5408934615">
				<ele>455.3</ele>
				<time>2021-04-12T10:59:57+02:00</time>
				<extensions>
					<swisstopo:routepoint_id>1688567507</swisstopo:routepoint_id>
				</extensions>
			</trkpt>
			<trkpt lat="47.1950743273" lon="7.5411389477">
				<ele>455.2</ele>
				<time>2021-04-12T10:59:58+02:00</time>
				<extensions>
					<swisstopo:routepoint_id>757695044</swisstopo:routepoint_id>
				</extensions>
			</trkpt>
			<trkpt lat="47.1951048390" lon="7.5413825837">
				<ele>455.1</ele>
				<time>2021-04-12T10:59:59+02:00</time>
				<extensions>
					<swisstopo:routepoint_id>2577798</swisstopo:routepoint_id>
				</extensions>
			</trkpt>
			<trkpt lat="47.1951371998" lon="7.5416246591">
				<ele>455.0</ele>
				<time>2021-04-12T11:00:00+02:00</time>
				<extensions>
					<swisstopo:routepoint_id>375378046</swisstopo:routepoint_id>
				</extensions>
			</trkpt>
			<trkpt lat="47.1951710323" lon="7.5418656653">
				<ele>454.8</ele>
				<time>2021-04-12T11:00:01+02:00</time>
				<extensions>
					<swisstopo:routepoint_id>1819347883</swisstopo:routepoint_id>
				</extensions>
			</trkpt>
			<trkpt lat="47.1952057652" lon="7.5421062452">
				<ele>454.7</ele>
				<time>2021-04-12T11:00:02+02:00</time>
				<extensions>
					<swisstopo:routepoint_id>1907703595</swisstopo:routepoint_id>
				</extensions>
			</trkpt>
			<trkpt lat="47.1952410822" lon="7.5423461164">
				<ele>454.5</ele>
				<time>2021-04-12T11:00:03+02:00</time>
				<extensions>
					<swisstopo:routepoint_id>843471455</swisstopo:routepoint_id>
				</extensions>
			</trkpt>
			<trkpt lat="47.1952768476" lon="7.5425863465">
				<ele>454.3</ele>
				<time>2021-04-12T11:00:04+02:00</time>
				<extensions>
					<swisstopo:routepoint_id>685190338</swisstopo:routepoint_id>
				</extensions>
			</trkpt>
			<trkpt lat="47.1953129484" lon="7.5428276215">
				<ele>454.1</ele>
				<time>2021-04-12T11:00:05+02:00</time>
				<extensions>
					<swisstopo:routepoint_id>1186695552</swisstopo:routepoint_id>
				</extensions>
			</trkpt>
			<trkpt lat="47.1953480592" lon="7.5430708262">
				<ele>453.9</ele>
				<time>2021-04-12T11:00:06+02:00</time>
				<extensions>
					<swisstopo:routepoint_id>1111512775</swisstopo:routepoint_id>
				</extensions>
			</trkpt>
			<trkpt lat="47.1953815555" lon="7.5433164757">
				<ele>453.7</ele>
				<time>2021-04-12T11:00:07+02:00</time>
				<extensions>
					<swisstopo:routepoint_id>234964172</swisstopo:routepoint_id>
				</extensions>
			</trkpt>
			<trkpt lat="47.1954127730" lon="7.5435654006">
				<ele>453.5</ele>
				<time>2021-04-12T11:00:08+02:00</time>
				<extensions>
					<swisstopo:routepoint_id>1967895618</swisstopo:routepoint_id>
				</extensions>
			</trkpt>
			<trkpt lat="47.1954412112" lon="7.5438169437">
				<ele>453.2</ele>
				<time>2021-04-12T11:00:09+02:00</time>
				<extensions>
					<swisstopo:routepoint_id>1026004279</swisstopo:routepoint_id>
				</extensions>
			</trkpt>
			<trkpt lat="47.1954667208" lon="7.5440706769">
				<ele>452.9</ele>
				<time>2021-04-12T11:00:10+02:00</time>
				<extensions>
					<swisstopo:routepoint_id>1907715390</swisstopo:routepoint_id>
				</extensions>
			</trkpt>
			<trkpt lat="47.1954893169" lon="7.5443266389">
				<ele>452.7</ele>
				<time>2021-04-12T11:00:11+02:00</time>
				<extensions>
					<swisstopo:routepoint_id>1041710020</swisstopo:routepoint_id>
				</extensions>
			</trkpt>
			<trkpt lat="47.1955091404" lon="7.5445845994">
				<ele>452.4</ele>
				<time>2021-04-12T11:00:12+02:00</time>
				<extensions>
					<swisstopo:routepoint_id>1733615796</swisstopo:routepoint_id>
				</extensions>
			</trkpt>
			<trkpt lat="47.1955258199" lon="7.5448453475">
				<ele>452.1</ele>
				<time>2021-04-12T11:00:13+02:00</time>
				<extensions>
					<swisstopo:routepoint_id>1970044523</swisstopo:routepoint_id>
				</extensions>
			</trkpt>
			<trkpt lat="47.1955390767" lon="7.5451091149">
				<ele>451.8</ele>
				<time>2021-04-12T11:00:14+02:00</time>
				<extensions>
					<swisstopo:routepoint_id>635428615</swisstopo:routepoint_id>
				</extensions>
			</trkpt>
			<trkpt lat="47.1955486676" lon="7.5453754020">
				<ele>451.5</ele>
				<time>2021-04-12T11:00:15+02:00</time>
				<extensions>
					<swisstopo:routepoint_id>212555774</swisstopo:routepoint_id>
				</extensions>
			</trkpt>
			<trkpt lat="47.1955544091" lon="7.5456435024">
				<ele>451.2</ele>
				<time>2021-04-12T11:00:16+02:00</time>
				<extensions>
					<swisstopo:routepoint_id>1159588657</swisstopo:routepoint_id>
				</extensions>
			</trkpt>
			<trkpt lat="47.1955560107" lon="7.5459134439">
				<ele>450.8</ele>
				<time>2021-04-12T11:00:17+02:00</time>
				<extensions>
					<swisstopo:routepoint_id>792461674</swisstopo:routepoint_id>
				</extensions>
			</trkpt>
			<trkpt lat="47.1955530416" lon="7.5461852056">
				<ele>450.5</ele>
				<time>2021-04-12T11:00:18+02:00</time>
				<extensions>
					<swisstopo:routepoint_id>209776224</swisstopo:routepoint_id>
				</extensions>
			</trkpt>
			<trkpt lat="47.1955469882" lon="7.5464581752">
				<ele>450.3</ele>
				<time>2021-04-12T11:00:19+02:00</time>
				<extensions>
					<swisstopo:routepoint_id>1688332041</swisstopo:routepoint_id>
				</extensions>
			</trkpt>
			<trkpt lat="47.1955395216" lon="7.5467322546">
				<ele>450.1</ele>
				<time>2021-04-12T11:00:20+02:00</time>
				<extensions>
					<swisstopo:routepoint_id>1095185276</swisstopo:routepoint_id>
				</extensions>
			</trkpt>
			<trkpt lat="47.1955297946" lon="7.5470085604">
				<ele>450.1</ele>
				<time>2021-04-12T11:00:21+02:00</time>
				<extensions>
					<swisstopo:routepoint_id>696595295</swisstopo:routepoint_id>
				</extensions>
			</trkpt>
			<trkpt lat="47.1955174611" lon="7.5472854592">
				<ele>450.3</ele>
				<time>2021-04-12T11:00:22+02:00</time>
				<extensions>
					<swisstopo:routepoint_id>1743763268</swisstopo:routepoint_id>
				</extensions>
			</trkpt>
			<trkpt lat="47.1955035530" lon="7.5475630439">
				<ele>450.6</ele>
				<time>2021-04-12T11:00:23+02:00</time>
				<extensions>
					<swisstopo:routepoint_id>719914667</swisstopo:routepoint_id>
				</extensions>
			</trkpt>
			<trkpt lat="47.1997133476" lon="7.5643808314">
				<ele>435.3</ele>
				<time>2021-04-12T11:01:27+02:00</time>
				<extensions>
					<swisstopo:routepoint_id>682941071</swisstopo:routepoint_id>
				</extensions>
			</trkpt>
			<trkpt lat="47.1998329969" lon="7.5646083755">
				<ele>434.4</ele>
				<time>2021-04-12T11:01:28+02:00</time>
				<extensions>
					<swisstopo:routepoint_id>2037970729</swisstopo:routepoint_id>
				</extensions>
			</trkpt>
			<trkpt lat="47.1999507931" lon="7.5648285843">
				<ele>434.0</ele>
				<time>2021-04-12T11:01:29+02:00</time>
				<extensions>
					<swisstopo:routepoint_id>1957356300</swisstopo:routepoint_id>
				</extensions>
			</trkpt>
			<trkpt lat="47.2000664773" lon="7.5650403800">
				<ele>433.8</ele>
				<time>2021-04-12T11:01:30+02:00</time>
				<extensions>
					<swisstopo:routepoint_id>2132829354</swisstopo:routepoint_id>
				</extensions>
			</trkpt>
			<trkpt lat="47.2001798831" lon="7.5652434125">
				<ele>433.5</ele>
				<time>2021-04-12T11:01:31+02:00</time>
				<extensions>
					<swisstopo:routepoint_id>665916954</swisstopo:routepoint_id>
				</extensions>
			</trkpt>
			<trkpt lat="47.2002925980" lon="7.5654374136">
				<ele>433.3</ele>
				<time>2021-04-12T11:01:32+02:00</time>
				<extensions>
					<swisstopo:routepoint_id>1528961361</swisstopo:routepoint_id>
				</extensions>
			</trkpt>
			<trkpt lat="47.2004050003" lon="7.5656265187">
				<ele>433.2</ele>
				<time>2021-04-12T11:01:33+02:00</time>
				<extensions>
					<swisstopo:routepoint_id>464274325</swisstopo:routepoint_id>
				</extensions>
			</trkpt>
			<trkpt lat="47.2005187552" lon="7.5658129108">
				<ele>433.0</ele>
				<time>2021-04-12T11:01:34+02:00</time>
				<extensions>
					<swisstopo:routepoint_id>1250490724</swisstopo:routepoint_id>
				</extensions>
			</trkpt>
			<trkpt lat="47.2006355204" lon="7.5660021127">
				<ele>432.8</ele>
				<time>2021-04-12T11:01:36+02:00</time>
				<extensions>
					<swisstopo:routepoint_id>1722628726</swisstopo:routepoint_id>
				</extensions>
			</trkpt>
			<trkpt lat="47.2007517597" lon="7.5661909814">
				<ele>432.7</ele>
				<time>2021-04-12T11:01:37+02:00</time>
				<extensions>
					<swisstopo:routepoint_id>1993952675</swisstopo:routepoint_id>
				</extensions>
			</trkpt>
			<trkpt lat="47.2008703724" lon="7.5663838776">
				<ele>432.5</ele>
				<time>2021-04-12T11:01:38+02:00</time>
				<extensions>
					<swisstopo:routepoint_id>880297290</swisstopo:routepoint_id>
				</extensions>
			</trkpt>
			<trkpt lat="47.2009904439" lon="7.5665809732">
				<ele>432.3</ele>
				<time>2021-04-12T11:01:39+02:00</time>
				<extensions>
					<swisstopo:routepoint_id>1141708847</swisstopo:routepoint_id>
				</extensions>
			</trkpt>
			<trkpt lat="47.2011116921" lon="7.5667811218">
				<ele>432.1</ele>
				<time>2021-04-12T11:01:40+02:00</time>
				<extensions>
					<swisstopo:routepoint_id>934205584</swisstopo:routepoint_id>
				</extensions>
			</trkpt>
			<trkpt lat="47.2012345305" lon="7.5669837593">
				<ele>431.8</ele>
				<time>2021-04-12T11:01:41+02:00</time>
				<extensions>
					<swisstopo:routepoint_id>940307071</swisstopo:routepoint_id>
				</extensions>
			</trkpt>
			<trkpt lat="47.2013587703" lon="7.5671880535">
				<ele>431.6</ele>
				<time>2021-04-12T11:01:42+02:00</time>
				<extensions>
					<swisstopo:routepoint_id>408784024</swisstopo:routepoint_id>
				</extensions>
			</trkpt>
			<trkpt lat="47.2014841051" lon="7.5673938186">
				<ele>431.4</ele>
				<time>2021-04-12T11:01:43+02:00</time>
				<extensions>
					<swisstopo:routepoint_id>632904615</swisstopo:routepoint_id>
				</extensions>
			</trkpt>
			<trkpt lat="47.2016100762" lon="7.5676011236">
				<ele>431.1</ele>
				<time>2021-04-12T11:01:44+02:00</time>
				<extensions>
					<swisstopo:routepoint_id>741360714</swisstopo:routepoint_id>
				</extensions>
			</trkpt>
			<trkpt lat="47.2017364439" lon="7.5678107246">
				<ele>430.9</ele>
				<time>2021-04-12T11:01:45+02:00</time>
				<extensions>
					<swisstopo:routepoint_id>349400304</swisstopo:routepoint_id>
				</extensions>
			</trkpt>
			<trkpt lat="47.2018631586" lon="7.5680238938">
				<ele>430.7</ele>
				<time>2021-04-12T11:01:46+02:00</time>
				<extensions>
					<swisstopo:routepoint_id>1150618430</swisstopo:routepoint_id>
				</extensions>
			</trkpt>
			<trkpt lat="47.2019916110" lon="7.5682408264">
				<ele>430.4</ele>
				<time>2021-04-12T11:01:47+02:00</time>
				<extensions>
					<swisstopo:routepoint_id>353711775</swisstopo:routepoint_id>
				</extensions>
			</trkpt>
			<trkpt lat="47.2021232791" lon="7.5684620242">
				<ele>430.2</ele>
				<time>2021-04-12T11:01:48+02:00</time>
				<extensions>
					<swisstopo:routepoint_id>599067529</swisstopo:routepoint_id>
				</extensions>
			</trkpt>
			<trkpt lat="47.2022587382" lon="7.5686866704">
				<ele>429.9</ele>
				<time>2021-04-12T11:01:49+02:00</time>
				<extensions>
					<swisstopo:routepoint_id>1124622767</swisstopo:routepoint_id>
				</extensions>
			</trkpt>
			<trkpt lat="47.2023984052" lon="7.5689140624">
				<ele>429.6</ele>
				<time>2021-04-12T11:01:50+02:00</time>
				<extensions>
					<swisstopo:routepoint_id>1531267722</swisstopo:routepoint_id>
				</extensions>
			</trkpt>
			<trkpt lat="47.2025417711" lon="7.5691442889">
				<ele>429.3</ele>
				<time>2021-04-12T11:01:51+02:00</time>
				<extensions>
					<swisstopo:routepoint_id>572578006</swisstopo:routepoint_id>
				</extensions>
			</trkpt>
			<trkpt lat="47.2026886135" lon="7.5693776397">
				<ele>429.0</ele>
				<time>2021-04-12T11:01:52+02:00</time>
				<extensions>
					<swisstopo:routepoint_id>444324635</swisstopo:routepoint_id>
				</extensions>
			</trkpt>
			<trkpt lat="47.2028386595" lon="7.5696141840">
				<ele>428.7</ele>
				<time>2021-04-12T11:01:53+02:00</time>
				<extensions>
					<swisstopo:routepoint_id>963499826</swisstopo:routepoint_id>
				</extensions>
			</trkpt>
			<trkpt lat="47.2029919021" lon="7.5698539449">
				<ele>428.3</ele>
				<time>2021-04-12T11:01:54+02:00</time>
				<extensions>
					<swisstopo:routepoint_id>1514877202</swisstopo:routepoint_id>
				</extensions>
			</trkpt>
			<trkpt lat="47.2031485361" lon="7.5700960988">
				<ele>428.1</ele>
				<time>2021-04-12T11:01:55+02:00</time>
				<extensions>
					<swisstopo:routepoint_id>2122498829</swisstopo:routepoint_id>
				</extensions>
			</trkpt>
			<trkpt lat="47.2033078901" lon="7.5703392091">
				<ele>427.8</ele>
				<time>2021-04-12T11:01:56+02:00</time>
				<extensions>
					<swisstopo:routepoint_id>986958686</swisstopo:routepoint_id>
				</extensions>
			</trkpt>
			<trkpt lat="47.2034681620" lon="7.5705826520">
				<ele>427.6</ele>
				<time>2021-04-12T11:01:57+02:00</time>
				<extensions>
					<swisstopo:routepoint_id>650946174</swisstopo:routepoint_id>
				</extensions>
			</trkpt>
			<trkpt lat="47.2036292176" lon="7.5708264057">
				<ele>427.5</ele>
				<time>2021-04-12T11:01:57+02:00</time>
				<extensions>
					<swisstopo:routepoint_id>1170648600</swisstopo:routepoint_id>
				</extensions>
			</trkpt>
			<trkpt lat="47.2037895176" lon="7.5710709154">
				<ele>427.4</ele>
				<time>2021-04-12T11:01:58+02:00</time>
				<extensions>
					<swisstopo:routepoint_id>1993330033</swisstopo:routepoint_id>
				</extensions>
			</trkpt>
			<trkpt lat="47.2039476205" lon="7.5713145211">
				<ele>427.4</ele>
				<time>2021-04-12T11:01:59+02:00</time>
				<extensions>
					<swisstopo:routepoint_id>1152971431</swisstopo:routepoint_id>
				</extensions>
			</trkpt>
			<trkpt lat="47.2041041032" lon="7.5715559301">
				<ele>427.4</ele>
				<time>2021-04-12T11:02:00+02:00</time>
				<extensions>
					<swisstopo:routepoint_id>1245893936</swisstopo:routepoint_id>
				</extensions>
			</trkpt>
			<trkpt lat="47.2042586461" lon="7.5717949513">
				<ele>427.6</ele>
				<time>2021-04-12T11:02:01+02:00</time>
				<extensions>
					<swisstopo:routepoint_id>1773824102</swisstopo:routepoint_id>
				</extensions>
			</trkpt>
			<trkpt lat="47.2044109634" lon="7.5720315054">
				<ele>427.7</ele>
				<time>2021-04-12T11:02:02+02:00</time>
				<extensions>
					<swisstopo:routepoint_id>1293694660</swisstopo:routepoint_id>
				</extensions>
			</trkpt>
			<trkpt lat="47.2045604598" lon="7.5722655013">
				<ele>427.9</ele>
				<time>2021-04-12T11:02:03+02:00</time>
				<extensions>
					<swisstopo:routepoint_id>2001708392</swisstopo:routepoint_id>
				</extensions>
			</trkpt>
			<trkpt lat="47.2047070784" lon="7.5724974718">
				<ele>428.1</ele>
				<time>2021-04-12T11:02:04+02:00</time>
				<extensions>
					<swisstopo:routepoint_id>234130442</swisstopo:routepoint_id>
				</extensions>
			</trkpt>
			<trkpt lat="47.2048509161" lon="7.5727276837">
				<ele>428.3</ele>
				<time>2021-04-12T11:02:05+02:00</time>
				<extensions>
					<swisstopo:routepoint_id>840297390</swisstopo:routepoint_id>
				</extensions>
			</trkpt>
			<trkpt lat="47.2049917135" lon="7.5729559827">
				<ele>428.5</ele>
				<time>2021-04-12T11:02:06+02:00</time>
				<extensions>
					<swisstopo:routepoint_id>1025771058</swisstopo:routepoint_id>
				</extensions>
			</trkpt>
			<trkpt lat="47.2051295466" lon="7.5731820079">
				<ele>428.7</ele>
				<time>2021-04-12T11:02:07+02:00</time>
				<extensions>
					<swisstopo:routepoint_id>135453690</swisstopo:routepoint_id>
				</extensions>
			</trkpt>
			<trkpt lat="47.2052644831" lon="7.5734060291">
				<ele>428.9</ele>
				<time>2021-04-12T11:02:08+02:00</time>
				<extensions>
					<swisstopo:routepoint_id>237502010</swisstopo:routepoint_id>
				</extensions>
			</trkpt>
			<trkpt lat="47.2053966290" lon="7.5736283235">
				<ele>429.2</ele>
				<time>2021-04-12T11:02:09+02:00</time>
				<extensions>
					<swisstopo:routepoint_id>1671665944</swisstopo:routepoint_id>
				</extensions>
			</trkpt>
			<trkpt lat="47.2055263000" lon="7.5738486155">
				<ele>429.4</ele>
				<time>2021-04-12T11:02:10+02:00</time>
				<extensions>
					<swisstopo:routepoint_id>160967107</swisstopo:routepoint_id>
				</extensions>
			</trkpt>
			<trkpt lat="47.2056538159" lon="7.5740669959">
				<ele>429.7</ele>
				<time>2021-04-12T11:02:11+02:00</time>
				<extensions>
					<swisstopo:routepoint_id>1692255776</swisstopo:routepoint_id>
				</extensions>
			</trkpt>
			<trkpt lat="47.2057792326" lon="7.5742835356">
				<ele>430.0</ele>
				<time>2021-04-12T11:02:12+02:00</time>
				<extensions>
					<swisstopo:routepoint_id>469406364</swisstopo:routepoint_id>
				</extensions>
			</trkpt>
			<trkpt lat="47.2059025624" lon="7.5744985526">
				<ele>430.3</ele>
				<time>2021-04-12T11:02:13+02:00</time>
				<extensions>
					<swisstopo:routepoint_id>1605324317</swisstopo:routepoint_id>
				</extensions>
			</trkpt>
			<trkpt lat="47.2060234583" lon="7.5747126065">
				<ele>430.6</ele>
				<time>2021-04-12T11:02:14+02:00</time>
				<extensions>
					<swisstopo:routepoint_id>1848738558</swisstopo:routepoint_id>
				</extensions>
			</trkpt>
			<trkpt lat="47.2061420010" lon="7.5749265538">
				<ele>430.9</ele>
				<time>2021-04-12T11:02:15+02:00</time>
				<extensions>
					<swisstopo:routepoint_id>1955539510</swisstopo:routepoint_id>
				</extensions>
			</trkpt>
			<trkpt lat="47.2062586798" lon="7.5751409654">
				<ele>431.2</ele>
				<time>2021-04-12T11:02:16+02:00</time>
				<extensions>
					<swisstopo:routepoint_id>1662810882</swisstopo:routepoint_id>
				</extensions>
			</trkpt>
			<trkpt lat="47.2063733876" lon="7.5753563542">
				<ele>431.5</ele>
				<time>2021-04-12T11:02:17+02:00</time>
				<extensions>
					<swisstopo:routepoint_id>1657795363</swisstopo:routepoint_id>
				</extensions>
			</trkpt>
			<trkpt lat="47.2064864302" lon="7.5755727849">
				<ele>431.8</ele>
				<time>2021-04-12T11:02:18+02:00</time>
				<extensions>
					<swisstopo:routepoint_id>1113829763</swisstopo:routepoint_id>
				</extensions>
			</trkpt>
			<trkpt lat="47.2065978538" lon="7.5757909982">
				<ele>432.1</ele>
				<time>2021-04-12T11:02:19+02:00</time>
				<extensions>
					<swisstopo:routepoint_id>521875842</swisstopo:routepoint_id>
				</extensions>
			</trkpt>
			<trkpt lat="47.2067076421" lon="7.5760114259">
				<ele>432.4</ele>
				<time>2021-04-12T11:02:20+02:00</time>
				<extensions>
					<swisstopo:routepoint_id>844062146</swisstopo:routepoint_id>
				</extensions>
			</trkpt>
			<trkpt lat="47.2068158791" lon="7.5762342857">
				<ele>432.7</ele>
				<time>2021-04-12T11:02:21+02:00</time>
				<extensions>
					<swisstopo:routepoint_id>2022999387</swisstopo:routepoint_id>
				</extensions>
			</trkpt>
			<trkpt lat="47.2069225236" lon="7.5764590779">
				<ele>433.0</ele>
				<time>2021-04-12T11:02:22+02:00</time>
				<extensions>
					<swisstopo:routepoint_id>1589598005</swisstopo:routepoint_id>
				</extensions>
			</trkpt>
			<trkpt lat="47.2070274095" lon="7.5766857540">
				<ele>433.2</ele>
				<time>2021-04-12T11:02:23+02:00</time>
				<extensions>
					<swisstopo:routepoint_id>1677101355</swisstopo:routepoint_id>
				</extensions>
			</trkpt>
			<trkpt lat="47.2071303150" lon="7.5769138194">
				<ele>433.4</ele>
				<time>2021-04-12T11:02:24+02:00</time>
				<extensions>
					<swisstopo:routepoint_id>1319606610</swisstopo:routepoint_id>
				</extensions>
			</trkpt>
			<trkpt lat="47.2072311631" lon="7.5771432805">
				<ele>433.6</ele>
				<time>2021-04-12T11:02:25+02:00</time>
				<extensions>
					<swisstopo:routepoint_id>1564671701</swisstopo:routepoint_id>
				</extensions>
			</trkpt>
			<trkpt lat="47.2073299661" lon="7.5773746203">
				<ele>433.8</ele>
				<time>2021-04-12T11:02:26+02:00</time>
				<extensions>
					<swisstopo:routepoint_id>1500021192</swisstopo:routepoint_id>
				</extensions>
			</trkpt>
			<trkpt lat="47.2074270417" lon="7.5776082327">
				<ele>433.9</ele>
				<time>2021-04-12T11:02:27+02:00</time>
				<extensions>
					<swisstopo:routepoint_id>1545641811</swisstopo:routepoint_id>
				</extensions>
			</trkpt>
			<trkpt lat="47.2075224616" lon="7.5778440132">
				<ele>434.0</ele>
				<time>2021-04-12T11:02:28+02:00</time>
				<extensions>
					<swisstopo:routepoint_id>1639723365</swisstopo:routepoint_id>
				</extensions>
			</trkpt>
			<trkpt lat="47.2076163259" lon="7.5780819425">
				<ele>434.0</ele>
				<time>2021-04-12T11:02:29+02:00</time>
				<extensions>
					<swisstopo:routepoint_id>172953604</swisstopo:routepoint_id>
				</extensions>
			</trkpt>
			<trkpt lat="47.2077087805" lon="7.5783220087">
				<ele>434.1</ele>
				<time>2021-04-12T11:02:30+02:00</time>
				<extensions>
					<swisstopo:routepoint_id>1285848037</swisstopo:routepoint_id>
				</extensions>
			</trkpt>
			<trkpt lat="47.2077999674" lon="7.5785641550">
				<ele>434.1</ele>
				<time>2021-04-12T11:02:31+02:00</time>
				<extensions>
					<swisstopo:routepoint_id>1120018098</swisstopo:routepoint_id>
				</extensions>
			</trkpt>
			<trkpt lat="47.2078900095" lon="7.5788079050">
				<ele>434.0</ele>
				<time>2021-04-12T11:02:32+02:00</time>
				<extensions>
					<swisstopo:routepoint_id>1450007131</swisstopo:routepoint_id>
				</extensions>
			</trkpt>
			<trkpt lat="47.2079785454" lon="7.5790534026">
				<ele>434.0</ele>
				<time>2021-04-12T11:02:33+02:00</time>
				<extensions>
					<swisstopo:routepoint_id>625424561</swisstopo:routepoint_id>
				</extensions>
			</trkpt>
			<trkpt lat="47.2080651466" lon="7.5793012545">
				<ele>433.9</ele>
				<time>2021-04-12T11:02:34+02:00</time>
				<extensions>
					<swisstopo:routepoint_id>1725628309</swisstopo:routepoint_id>
				</extensions>
			</trkpt>
			<trkpt lat="47.2081493208" lon="7.5795518771">
				<ele>433.8</ele>
				<time>2021-04-12T11:02:35+02:00</time>
				<extensions>
					<swisstopo:routepoint_id>868336628</swisstopo:routepoint_id>
				</extensions>
			</trkpt>
			<trkpt lat="47.2082303364" lon="7.5798064757">
				<ele>433.7</ele>
				<time>2021-04-12T11:02:36+02:00</time>
				<extensions>
					<swisstopo:routepoint_id>1982325431</swisstopo:routepoint_id>
				</extensions>
			</trkpt>
			<trkpt lat="47.2083088439" lon="7.5800647466">
				<ele>433.6</ele>
				<time>2021-04-12T11:02:37+02:00</time>
				<extensions>
					<swisstopo:routepoint_id>882219259</swisstopo:routepoint_id>
				</extensions>
			</trkpt>
			<trkpt lat="47.2083857033" lon="7.5803254398">
				<ele>433.5</ele>
				<time>2021-04-12T11:02:38+02:00</time>
				<extensions>
					<swisstopo:routepoint_id>1231987125</swisstopo:routepoint_id>
				</extensions>
			</trkpt>
			<trkpt lat="47.2084613345" lon="7.5805872252">
				<ele>433.4</ele>
				<time>2021-04-12T11:02:39+02:00</time>
				<extensions>
					<swisstopo:routepoint_id>2117769148</swisstopo:routepoint_id>
				</extensions>
			</trkpt>
			<trkpt lat="47.2085359145" lon="7.5808494705">
				<ele>433.3</ele>
				<time>2021-04-12T11:02:40+02:00</time>
				<extensions>
					<swisstopo:routepoint_id>952105058</swisstopo:routepoint_id>
				</extensions>
			</trkpt>
			<trkpt lat="47.2086092677" lon="7.5811122797">
				<ele>433.2</ele>
				<time>2021-04-12T11:02:41+02:00</time>
				<extensions>
					<swisstopo:routepoint_id>1129056009</swisstopo:routepoint_id>
				</extensions>
			</trkpt>
			<trkpt lat="47.2086810618" lon="7.5813756714">
				<ele>433.1</ele>
				<time>2021-04-12T11:02:42+02:00</time>
				<extensions>
					<swisstopo:routepoint_id>878838371</swisstopo:routepoint_id>
				</extensions>
			</trkpt>
		</trkseg>
	</trk>
</gpx>
